<?xml version='1.0' encoding='UTF-8'?><gpx version="1.1" creator="JPX - https://github.com/jenetics/jpx" xmlns="http://www.topografix.com/GPX/1/1"><trk><trkseg><trkpt lat="44.0683599" lon="12.4462087"><ele>35.0</ele><time>2026-04-29T09:35:46.452Z</time></trkpt><trkpt lat="44.0684376" lon="12.4462553"><ele>35.0</ele><time>2026-04-29T09:35:48.452Z</time></trkpt><trkpt lat="44.0684676" lon="12.4463895"><ele>35.0</ele><time>2026-04-29T09:35:51.452Z</time></trkpt><trkpt lat="44.0684382" lon="12.4464782"><ele>35.0</ele><time>2026-04-29T09:35:52.452Z</time></trkpt><trkpt lat="44.0684091" lon="12.4465754"><ele>35.0</ele><time>2026-04-29T09:35:53.452Z</time></trkpt><trkpt lat="44.0683715" lon="12.4466648"><ele>35.0</ele><time>2026-04-29T09:35:54.453Z</time></trkpt><trkpt lat="44.06833" lon="12.446749"><ele>35.83333333333333</ele><time>2026-04-29T09:35:55.453Z</time></trkpt><trkpt lat="44.0682699" lon="12.446819"><ele>36.666666666666664</ele><time>2026-04-29T09:35:56.452Z</time></trkpt><trkpt lat="44.0681974" lon="12.4468817"><ele>37.5</ele><time>2026-04-29T09:35:57.452Z</time></trkpt><trkpt lat="44.0681267" lon="12.4469202"><ele>38.333333333333336</ele><time>2026-04-29T09:35:58.452Z</time></trkpt><trkpt lat="44.0680355" lon="12.4469718"><ele>39.16666666666667</ele><time>2026-04-29T09:36:00.452Z</time></trkpt><trkpt lat="44.0679939" lon="12.4470539"><ele>40.0</ele><time>2026-04-29T09:36:03.453Z</time></trkpt><trkpt lat="44.0678753" lon="12.4470694"><ele>40.0</ele><time>2026-04-29T09:36:24.452Z</time></trkpt><trkpt lat="44.0678096" lon="12.447029"><ele>40.0</ele><time>2026-04-29T09:36:25.452Z</time></trkpt><trkpt lat="44.0677396" lon="12.4469852"><ele>40.0</ele><time>2026-04-29T09:36:26.453Z</time></trkpt><trkpt lat="44.0676579" lon="12.4469302"><ele>40.0</ele><time>2026-04-29T09:36:27.452Z</time></trkpt><trkpt lat="44.067567" lon="12.4468777"><ele>40.0</ele><time>2026-04-29T09:36:28.452Z</time></trkpt><trkpt lat="44.0674803" lon="12.4468259"><ele>40.0</ele><time>2026-04-29T09:36:29.452Z</time></trkpt><trkpt lat="44.0673996" lon="12.446767"><ele>39.833333333333336</ele><time>2026-04-29T09:36:30.453Z</time></trkpt><trkpt lat="44.0673256" lon="12.4467203"><ele>39.66666666666667</ele><time>2026-04-29T09:36:31.452Z</time></trkpt><trkpt lat="44.0672565" lon="12.4466821"><ele>39.5</ele><time>2026-04-29T09:36:32.452Z</time></trkpt><trkpt lat="44.0671961" lon="12.4466454"><ele>39.333333333333336</ele><time>2026-04-29T09:36:33.452Z</time></trkpt><trkpt lat="44.0671047" lon="12.4465874"><ele>39.166666666666664</ele><time>2026-04-29T09:36:35.452Z</time></trkpt><trkpt lat="44.0670206" lon="12.4465267"><ele>39.0</ele><time>2026-04-29T09:36:37.452Z</time></trkpt><trkpt lat="44.0669601" lon="12.4464764"><ele>39.0</ele><time>2026-04-29T09:36:39.452Z</time></trkpt><trkpt lat="44.0668918" lon="12.4464288"><ele>39.0</ele><time>2026-04-29T09:36:42.453Z</time></trkpt><trkpt lat="44.0668239" lon="12.4463861"><ele>39.0</ele><time>2026-04-29T09:37:28.452Z</time></trkpt><trkpt lat="44.0667154" lon="12.4463288"><ele>39.0</ele><time>2026-04-29T09:37:30.452Z</time></trkpt><trkpt lat="44.0666571" lon="12.4462946"><ele>39.0</ele><time>2026-04-29T09:37:31.453Z</time></trkpt><trkpt lat="44.0665772" lon="12.4461666"><ele>39.0</ele><time>2026-04-29T09:37:33.453Z</time></trkpt><trkpt lat="44.0665702" lon="12.4460075"><ele>39.0</ele><time>2026-04-29T09:37:35.452Z</time></trkpt><trkpt lat="44.0665831" lon="12.4459076"><ele>39.0</ele><time>2026-04-29T09:37:36.452Z</time></trkpt><trkpt lat="44.0665973" lon="12.4457934"><ele>39.0</ele><time>2026-04-29T09:37:37.452Z</time></trkpt><trkpt lat="44.0666165" lon="12.445667"><ele>39.0</ele><time>2026-04-29T09:37:38.452Z</time></trkpt><trkpt lat="44.0666377" lon="12.44553"><ele>38.4</ele><time>2026-04-29T09:37:39.452Z</time></trkpt><trkpt lat="44.0666507" lon="12.4453748"><ele>37.8</ele><time>2026-04-29T09:37:40.452Z</time></trkpt><trkpt lat="44.066669" lon="12.4452181"><ele>37.2</ele><time>2026-04-29T09:37:41.452Z</time></trkpt><trkpt lat="44.066688" lon="12.4450719"><ele>36.6</ele><time>2026-04-29T09:37:42.452Z</time></trkpt><trkpt lat="44.0667032" lon="12.4449475"><ele>36.0</ele><time>2026-04-29T09:37:43.452Z</time></trkpt><trkpt lat="44.0667216" lon="12.4448432"><ele>36.0</ele><time>2026-04-29T09:37:44.452Z</time></trkpt><trkpt lat="44.066739" lon="12.4447525"><ele>36.0</ele><time>2026-04-29T09:37:45.452Z</time></trkpt><trkpt lat="44.0667627" lon="12.4446054"><ele>36.0</ele><time>2026-04-29T09:37:47.452Z</time></trkpt><trkpt lat="44.0667675" lon="12.4444299"><ele>36.0</ele><time>2026-04-29T09:37:49.452Z</time></trkpt><trkpt lat="44.0667437" lon="12.4443084"><ele>36.0</ele><time>2026-04-29T09:37:50.452Z</time></trkpt><trkpt lat="44.0667133" lon="12.4441822"><ele>36.0</ele><time>2026-04-29T09:37:51.453Z</time></trkpt><trkpt lat="44.0666755" lon="12.44405"><ele>36.0</ele><time>2026-04-29T09:37:52.452Z</time></trkpt><trkpt lat="44.066634" lon="12.4439101"><ele>36.0</ele><time>2026-04-29T09:37:53.452Z</time></trkpt><trkpt lat="44.0665984" lon="12.4437632"><ele>36.0</ele><time>2026-04-29T09:37:54.452Z</time></trkpt><trkpt lat="44.0665765" lon="12.4436066"><ele>36.0</ele><time>2026-04-29T09:37:55.452Z</time></trkpt><trkpt lat="44.0665619" lon="12.4434244"><ele>37.25</ele><time>2026-04-29T09:37:56.452Z</time></trkpt><trkpt lat="44.0665436" lon="12.4432309"><ele>38.5</ele><time>2026-04-29T09:37:57.452Z</time></trkpt><trkpt lat="44.0665241" lon="12.4430448"><ele>39.75</ele><time>2026-04-29T09:37:58.452Z</time></trkpt><trkpt lat="44.0665114" lon="12.4428851"><ele>41.0</ele><time>2026-04-29T09:37:59.452Z</time></trkpt><trkpt lat="44.0665043" lon="12.4427518"><ele>41.0</ele><time>2026-04-29T09:38:00.452Z</time></trkpt><trkpt lat="44.0664958" lon="12.4426326"><ele>41.0</ele><time>2026-04-29T09:38:01.453Z</time></trkpt><trkpt lat="44.0664927" lon="12.4425286"><ele>41.0</ele><time>2026-04-29T09:38:02.452Z</time></trkpt><trkpt lat="44.0664882" lon="12.442435"><ele>41.0</ele><time>2026-04-29T09:38:03.452Z</time></trkpt><trkpt lat="44.0664836" lon="12.4423329"><ele>41.0</ele><time>2026-04-29T09:38:04.452Z</time></trkpt><trkpt lat="44.0664847" lon="12.4422283"><ele>41.0</ele><time>2026-04-29T09:38:05.452Z</time></trkpt><trkpt lat="44.0664955" lon="12.4421207"><ele>40.4</ele><time>2026-04-29T09:38:06.453Z</time></trkpt><trkpt lat="44.0665209" lon="12.4419871"><ele>39.8</ele><time>2026-04-29T09:38:08.452Z</time></trkpt><trkpt lat="44.0665555" lon="12.4418804"><ele>39.199999999999996</ele><time>2026-04-29T09:38:10.453Z</time></trkpt><trkpt lat="44.0665799" lon="12.4417092"><ele>38.599999999999994</ele><time>2026-04-29T09:38:12.452Z</time></trkpt><trkpt lat="44.0665627" lon="12.441623"><ele>38.0</ele><time>2026-04-29T09:38:13.452Z</time></trkpt><trkpt lat="44.0664846" lon="12.4414865"><ele>38.0</ele><time>2026-04-29T09:38:15.452Z</time></trkpt><trkpt lat="44.0664478" lon="12.4414099"><ele>38.0</ele><time>2026-04-29T09:38:16.452Z</time></trkpt><trkpt lat="44.0664153" lon="12.441317"><ele>38.0</ele><time>2026-04-29T09:38:17.452Z</time></trkpt><trkpt lat="44.0663943" lon="12.4412192"><ele>38.0</ele><time>2026-04-29T09:38:18.452Z</time></trkpt><trkpt lat="44.0663817" lon="12.4411156"><ele>38.0</ele><time>2026-04-29T09:38:19.452Z</time></trkpt><trkpt lat="44.0663733" lon="12.4410083"><ele>38.0</ele><time>2026-04-29T09:38:20.452Z</time></trkpt><trkpt lat="44.0663709" lon="12.4408897"><ele>38.0</ele><time>2026-04-29T09:38:21.452Z</time></trkpt><trkpt lat="44.0663714" lon="12.4407486"><ele>38.0</ele><time>2026-04-29T09:38:22.452Z</time></trkpt><trkpt lat="44.0663704" lon="12.4405812"><ele>38.0</ele><time>2026-04-29T09:38:23.452Z</time></trkpt><trkpt lat="44.0663701" lon="12.4404036"><ele>38.0</ele><time>2026-04-29T09:38:24.452Z</time></trkpt><trkpt lat="44.0663674" lon="12.4402231"><ele>38.0</ele><time>2026-04-29T09:38:25.452Z</time></trkpt><trkpt lat="44.066364" lon="12.4400444"><ele>38.0</ele><time>2026-04-29T09:38:26.452Z</time></trkpt><trkpt lat="44.06636" lon="12.439862"><ele>38.0</ele><time>2026-04-29T09:38:27.452Z</time></trkpt><trkpt lat="44.066359" lon="12.4396806"><ele>38.0</ele><time>2026-04-29T09:38:28.452Z</time></trkpt><trkpt lat="44.0663553" lon="12.4395085"><ele>38.199999999999996</ele><time>2026-04-29T09:38:29.452Z</time></trkpt><trkpt lat="44.0663544" lon="12.4393606"><ele>38.4</ele><time>2026-04-29T09:38:30.452Z</time></trkpt><trkpt lat="44.0663544" lon="12.4392223"><ele>38.599999999999994</ele><time>2026-04-29T09:38:31.452Z</time></trkpt><trkpt lat="44.066354" lon="12.4390966"><ele>38.8</ele><time>2026-04-29T09:38:32.452Z</time></trkpt><trkpt lat="44.0663546" lon="12.4389762"><ele>39.0</ele><time>2026-04-29T09:38:33.453Z</time></trkpt><trkpt lat="44.0663561" lon="12.4388799"><ele>38.6</ele><time>2026-04-29T09:38:34.452Z</time></trkpt><trkpt lat="44.0663693" lon="12.43875"><ele>38.2</ele><time>2026-04-29T09:38:36.453Z</time></trkpt><trkpt lat="44.0663676" lon="12.4386379"><ele>37.800000000000004</ele><time>2026-04-29T09:38:38.452Z</time></trkpt><trkpt lat="44.0663606" lon="12.4385079"><ele>37.4</ele><time>2026-04-29T09:38:40.452Z</time></trkpt><trkpt lat="44.0663487" lon="12.4383391"><ele>37.0</ele><time>2026-04-29T09:38:42.453Z</time></trkpt><trkpt lat="44.0663489" lon="12.4382468"><ele>37.0</ele><time>2026-04-29T09:38:43.452Z</time></trkpt><trkpt lat="44.0663563" lon="12.4381486"><ele>37.0</ele><time>2026-04-29T09:38:44.452Z</time></trkpt><trkpt lat="44.0663718" lon="12.4380462"><ele>37.0</ele><time>2026-04-29T09:38:45.453Z</time></trkpt><trkpt lat="44.0664036" lon="12.4379479"><ele>37.0</ele><time>2026-04-29T09:38:46.452Z</time></trkpt><trkpt lat="44.0664415" lon="12.4378401"><ele>37.0</ele><time>2026-04-29T09:38:47.452Z</time></trkpt><trkpt lat="44.0664763" lon="12.4377282"><ele>37.0</ele><time>2026-04-29T09:38:48.452Z</time></trkpt><trkpt lat="44.066513" lon="12.4376128"><ele>37.0</ele><time>2026-04-29T09:38:49.452Z</time></trkpt><trkpt lat="44.0665426" lon="12.4375116"><ele>37.0</ele><time>2026-04-29T09:38:50.452Z</time></trkpt><trkpt lat="44.0665737" lon="12.4374241"><ele>37.0</ele><time>2026-04-29T09:38:51.452Z</time></trkpt><trkpt lat="44.0666041" lon="12.4373437"><ele>37.0</ele><time>2026-04-29T09:38:52.452Z</time></trkpt><trkpt lat="44.0666461" lon="12.4372177"><ele>37.0</ele><time>2026-04-29T09:38:54.452Z</time></trkpt><trkpt lat="44.066706" lon="12.4370838"><ele>37.0</ele><time>2026-04-29T09:38:56.452Z</time></trkpt><trkpt lat="44.0667463" lon="12.4370045"><ele>37.16666666666667</ele><time>2026-04-29T09:38:57.452Z</time></trkpt><trkpt lat="44.0667874" lon="12.4369165"><ele>37.333333333333336</ele><time>2026-04-29T09:38:58.452Z</time></trkpt><trkpt lat="44.0668308" lon="12.4368261"><ele>37.5</ele><time>2026-04-29T09:38:59.452Z</time></trkpt><trkpt lat="44.0668746" lon="12.4367322"><ele>37.666666666666664</ele><time>2026-04-29T09:39:00.452Z</time></trkpt><trkpt lat="44.06692" lon="12.4366344"><ele>37.83333333333333</ele><time>2026-04-29T09:39:01.453Z</time></trkpt><trkpt lat="44.0669627" lon="12.4365405"><ele>38.0</ele><time>2026-04-29T09:39:02.452Z</time></trkpt><trkpt lat="44.0670034" lon="12.4364519"><ele>38.0</ele><time>2026-04-29T09:39:03.452Z</time></trkpt><trkpt lat="44.0670401" lon="12.4363668"><ele>38.0</ele><time>2026-04-29T09:39:04.452Z</time></trkpt><trkpt lat="44.0670974" lon="12.4362188"><ele>38.0</ele><time>2026-04-29T09:39:06.452Z</time></trkpt><trkpt lat="44.067145" lon="12.4361065"><ele>38.0</ele><time>2026-04-29T09:39:08.452Z</time></trkpt><trkpt lat="44.067179" lon="12.4360165"><ele>38.0</ele><time>2026-04-29T09:39:10.452Z</time></trkpt><trkpt lat="44.0672111" lon="12.4359375"><ele>38.0</ele><time>2026-04-29T09:39:12.452Z</time></trkpt><trkpt lat="44.0672625" lon="12.4358358"><ele>38.0</ele><time>2026-04-29T09:40:18.452Z</time></trkpt><trkpt lat="44.0672927" lon="12.4357292"><ele>38.0</ele><time>2026-04-29T09:40:20.452Z</time></trkpt><trkpt lat="44.0673036" lon="12.4355848"><ele>38.0</ele><time>2026-04-29T09:40:22.453Z</time></trkpt><trkpt lat="44.0672419" lon="12.4354336"><ele>38.0</ele><time>2026-04-29T09:40:24.452Z</time></trkpt><trkpt lat="44.0671856" lon="12.4353665"><ele>38.0</ele><time>2026-04-29T09:40:25.452Z</time></trkpt><trkpt lat="44.0671153" lon="12.4352995"><ele>38.0</ele><time>2026-04-29T09:40:26.452Z</time></trkpt><trkpt lat="44.0670345" lon="12.4352286"><ele>38.0</ele><time>2026-04-29T09:40:27.452Z</time></trkpt><trkpt lat="44.0669453" lon="12.4351563"><ele>38.0</ele><time>2026-04-29T09:40:28.452Z</time></trkpt><trkpt lat="44.0668563" lon="12.4350759"><ele>38.0</ele><time>2026-04-29T09:40:29.452Z</time></trkpt><trkpt lat="44.0667659" lon="12.4350012"><ele>38.0</ele><time>2026-04-29T09:40:30.453Z</time></trkpt><trkpt lat="44.0666778" lon="12.4349292"><ele>38.0</ele><time>2026-04-29T09:40:31.452Z</time></trkpt><trkpt lat="44.0665848" lon="12.4348554"><ele>38.0</ele><time>2026-04-29T09:40:32.452Z</time></trkpt><trkpt lat="44.0664906" lon="12.4347758"><ele>38.0</ele><time>2026-04-29T09:40:33.452Z</time></trkpt><trkpt lat="44.0663888" lon="12.4346901"><ele>38.0</ele><time>2026-04-29T09:40:34.452Z</time></trkpt><trkpt lat="44.0662825" lon="12.4345959"><ele>37.75</ele><time>2026-04-29T09:40:35.452Z</time></trkpt><trkpt lat="44.0661771" lon="12.434503"><ele>37.5</ele><time>2026-04-29T09:40:36.452Z</time></trkpt><trkpt lat="44.0660707" lon="12.4344124"><ele>37.25</ele><time>2026-04-29T09:40:37.452Z</time></trkpt><trkpt lat="44.0659696" lon="12.434321"><ele>37.0</ele><time>2026-04-29T09:40:38.452Z</time></trkpt><trkpt lat="44.0658671" lon="12.4342328"><ele>37.25</ele><time>2026-04-29T09:40:39.452Z</time></trkpt><trkpt lat="44.0657677" lon="12.434149"><ele>37.5</ele><time>2026-04-29T09:40:40.452Z</time></trkpt><trkpt lat="44.065664" lon="12.4340602"><ele>37.75</ele><time>2026-04-29T09:40:41.452Z</time></trkpt><trkpt lat="44.0655598" lon="12.4339682"><ele>38.0</ele><time>2026-04-29T09:40:42.452Z</time></trkpt><trkpt lat="44.0654546" lon="12.433881"><ele>38.25</ele><time>2026-04-29T09:40:43.452Z</time></trkpt><trkpt lat="44.0653498" lon="12.4337916"><ele>38.5</ele><time>2026-04-29T09:40:44.452Z</time></trkpt><trkpt lat="44.0652406" lon="12.4337019"><ele>38.75</ele><time>2026-04-29T09:40:45.452Z</time></trkpt><trkpt lat="44.065132" lon="12.433609"><ele>39.0</ele><time>2026-04-29T09:40:46.453Z</time></trkpt><trkpt lat="44.0650236" lon="12.4335181"><ele>38.75</ele><time>2026-04-29T09:40:47.452Z</time></trkpt><trkpt lat="44.0649121" lon="12.4334205"><ele>38.5</ele><time>2026-04-29T09:40:48.452Z</time></trkpt><trkpt lat="44.0647986" lon="12.4333283"><ele>38.25</ele><time>2026-04-29T09:40:49.452Z</time></trkpt><trkpt lat="44.0646844" lon="12.4332308"><ele>38.0</ele><time>2026-04-29T09:40:50.453Z</time></trkpt><trkpt lat="44.0645721" lon="12.4331329"><ele>38.0</ele><time>2026-04-29T09:40:51.452Z</time></trkpt><trkpt lat="44.0644591" lon="12.4330334"><ele>38.0</ele><time>2026-04-29T09:40:52.452Z</time></trkpt><trkpt lat="44.0643465" lon="12.4329329"><ele>38.0</ele><time>2026-04-29T09:40:53.452Z</time></trkpt><trkpt lat="44.0642303" lon="12.4328291"><ele>38.0</ele><time>2026-04-29T09:40:54.452Z</time></trkpt><trkpt lat="44.0641124" lon="12.4327289"><ele>38.25</ele><time>2026-04-29T09:40:55.452Z</time></trkpt><trkpt lat="44.0639932" lon="12.4326276"><ele>38.5</ele><time>2026-04-29T09:40:56.452Z</time></trkpt><trkpt lat="44.0638727" lon="12.4325231"><ele>38.75</ele><time>2026-04-29T09:40:57.452Z</time></trkpt><trkpt lat="44.063753" lon="12.4324161"><ele>39.0</ele><time>2026-04-29T09:40:58.452Z</time></trkpt><trkpt lat="44.063633" lon="12.4323113"><ele>39.0</ele><time>2026-04-29T09:40:59.452Z</time></trkpt><trkpt lat="44.0635088" lon="12.4322052"><ele>39.0</ele><time>2026-04-29T09:41:00.452Z</time></trkpt><trkpt lat="44.0633861" lon="12.4320997"><ele>39.0</ele><time>2026-04-29T09:41:01.453Z</time></trkpt><trkpt lat="44.063262" lon="12.4319925"><ele>39.0</ele><time>2026-04-29T09:41:02.452Z</time></trkpt><trkpt lat="44.0631376" lon="12.4318839"><ele>39.0</ele><time>2026-04-29T09:41:03.452Z</time></trkpt><trkpt lat="44.0630127" lon="12.4317788"><ele>39.0</ele><time>2026-04-29T09:41:04.452Z</time></trkpt><trkpt lat="44.0628865" lon="12.431673"><ele>39.0</ele><time>2026-04-29T09:41:05.452Z</time></trkpt><trkpt lat="44.0627583" lon="12.4315669"><ele>39.0</ele><time>2026-04-29T09:41:06.453Z</time></trkpt><trkpt lat="44.0626331" lon="12.4314573"><ele>39.0</ele><time>2026-04-29T09:41:07.452Z</time></trkpt><trkpt lat="44.0625089" lon="12.4313455"><ele>39.0</ele><time>2026-04-29T09:41:08.452Z</time></trkpt><trkpt lat="44.0623875" lon="12.4312367"><ele>39.0</ele><time>2026-04-29T09:41:09.452Z</time></trkpt><trkpt lat="44.0622613" lon="12.4311261"><ele>39.0</ele><time>2026-04-29T09:41:10.452Z</time></trkpt><trkpt lat="44.0621384" lon="12.43102"><ele>38.75</ele><time>2026-04-29T09:41:11.452Z</time></trkpt><trkpt lat="44.0620178" lon="12.4309169"><ele>38.5</ele><time>2026-04-29T09:41:12.452Z</time></trkpt><trkpt lat="44.0618948" lon="12.4308124"><ele>38.25</ele><time>2026-04-29T09:41:13.452Z</time></trkpt><trkpt lat="44.0617723" lon="12.430707"><ele>38.0</ele><time>2026-04-29T09:41:14.452Z</time></trkpt><trkpt lat="44.061653" lon="12.430602"><ele>38.25</ele><time>2026-04-29T09:41:15.452Z</time></trkpt><trkpt lat="44.0615338" lon="12.4304969"><ele>38.5</ele><time>2026-04-29T09:41:16.452Z</time></trkpt><trkpt lat="44.0614138" lon="12.4303914"><ele>38.75</ele><time>2026-04-29T09:41:17.453Z</time></trkpt><trkpt lat="44.0612943" lon="12.4302876"><ele>39.0</ele><time>2026-04-29T09:41:18.452Z</time></trkpt><trkpt lat="44.061173" lon="12.4301829"><ele>39.25</ele><time>2026-04-29T09:41:19.452Z</time></trkpt><trkpt lat="44.0610592" lon="12.4300839"><ele>39.5</ele><time>2026-04-29T09:41:20.453Z</time></trkpt><trkpt lat="44.0609583" lon="12.4299928"><ele>39.75</ele><time>2026-04-29T09:41:21.452Z</time></trkpt><trkpt lat="44.0608685" lon="12.4299097"><ele>40.0</ele><time>2026-04-29T09:41:22.452Z</time></trkpt><trkpt lat="44.0607835" lon="12.4298335"><ele>40.2</ele><time>2026-04-29T09:41:23.452Z</time></trkpt><trkpt lat="44.0606985" lon="12.4297574"><ele>40.4</ele><time>2026-04-29T09:41:24.452Z</time></trkpt><trkpt lat="44.0606071" lon="12.4296744"><ele>40.599999999999994</ele><time>2026-04-29T09:41:25.452Z</time></trkpt><trkpt lat="44.0605081" lon="12.429588"><ele>40.8</ele><time>2026-04-29T09:41:26.452Z</time></trkpt><trkpt lat="44.060404" lon="12.4294993"><ele>41.0</ele><time>2026-04-29T09:41:27.452Z</time></trkpt><trkpt lat="44.0602972" lon="12.4294111"><ele>41.0</ele><time>2026-04-29T09:41:28.452Z</time></trkpt><trkpt lat="44.060186" lon="12.4293149"><ele>41.0</ele><time>2026-04-29T09:41:29.452Z</time></trkpt><trkpt lat="44.0600732" lon="12.429214"><ele>41.0</ele><time>2026-04-29T09:41:30.452Z</time></trkpt><trkpt lat="44.0599563" lon="12.4291113"><ele>41.0</ele><time>2026-04-29T09:41:31.452Z</time></trkpt><trkpt lat="44.059837" lon="12.4290092"><ele>41.25</ele><time>2026-04-29T09:41:32.452Z</time></trkpt><trkpt lat="44.0597142" lon="12.4289045"><ele>41.5</ele><time>2026-04-29T09:41:33.452Z</time></trkpt><trkpt lat="44.059594" lon="12.4287965"><ele>41.75</ele><time>2026-04-29T09:41:34.452Z</time></trkpt><trkpt lat="44.0594717" lon="12.4286897"><ele>42.0</ele><time>2026-04-29T09:41:35.452Z</time></trkpt><trkpt lat="44.0593469" lon="12.4285895"><ele>42.0</ele><time>2026-04-29T09:41:36.452Z</time></trkpt><trkpt lat="44.0592183" lon="12.4284937"><ele>42.0</ele><time>2026-04-29T09:41:37.452Z</time></trkpt><trkpt lat="44.0590849" lon="12.4284074"><ele>42.0</ele><time>2026-04-29T09:41:38.452Z</time></trkpt><trkpt lat="44.0589504" lon="12.4283232"><ele>42.0</ele><time>2026-04-29T09:41:39.452Z</time></trkpt><trkpt lat="44.0588101" lon="12.4282472"><ele>42.0</ele><time>2026-04-29T09:41:40.452Z</time></trkpt><trkpt lat="44.0586694" lon="12.428181"><ele>42.0</ele><time>2026-04-29T09:41:41.452Z</time></trkpt><trkpt lat="44.0585293" lon="12.4281223"><ele>42.0</ele><time>2026-04-29T09:41:42.452Z</time></trkpt><trkpt lat="44.0583891" lon="12.4280722"><ele>42.0</ele><time>2026-04-29T09:41:43.452Z</time></trkpt><trkpt lat="44.0582507" lon="12.4280317"><ele>42.0</ele><time>2026-04-29T09:41:44.452Z</time></trkpt><trkpt lat="44.0581096" lon="12.428001"><ele>42.0</ele><time>2026-04-29T09:41:45.453Z</time></trkpt><trkpt lat="44.0579683" lon="12.4279771"><ele>42.0</ele><time>2026-04-29T09:41:46.453Z</time></trkpt><trkpt lat="44.0578262" lon="12.4279553"><ele>42.0</ele><time>2026-04-29T09:41:47.452Z</time></trkpt><trkpt lat="44.0576863" lon="12.427941"><ele>42.25</ele><time>2026-04-29T09:41:48.452Z</time></trkpt><trkpt lat="44.0575469" lon="12.4279225"><ele>42.5</ele><time>2026-04-29T09:41:49.452Z</time></trkpt><trkpt lat="44.0574102" lon="12.427908"><ele>42.75</ele><time>2026-04-29T09:41:50.452Z</time></trkpt><trkpt lat="44.0572748" lon="12.4278937"><ele>43.0</ele><time>2026-04-29T09:41:51.452Z</time></trkpt><trkpt lat="44.0571405" lon="12.4278777"><ele>43.0</ele><time>2026-04-29T09:41:52.452Z</time></trkpt><trkpt lat="44.0570036" lon="12.4278625"><ele>43.0</ele><time>2026-04-29T09:41:53.452Z</time></trkpt><trkpt lat="44.0568685" lon="12.4278451"><ele>43.0</ele><time>2026-04-29T09:41:54.452Z</time></trkpt><trkpt lat="44.0567327" lon="12.4278254"><ele>43.0</ele><time>2026-04-29T09:41:55.452Z</time></trkpt><trkpt lat="44.0565937" lon="12.4278065"><ele>42.5</ele><time>2026-04-29T09:41:56.452Z</time></trkpt><trkpt lat="44.0564548" lon="12.4277858"><ele>42.0</ele><time>2026-04-29T09:41:57.452Z</time></trkpt><trkpt lat="44.0563151" lon="12.4277621"><ele>41.5</ele><time>2026-04-29T09:41:58.452Z</time></trkpt><trkpt lat="44.0561723" lon="12.4277425"><ele>41.0</ele><time>2026-04-29T09:41:59.452Z</time></trkpt><trkpt lat="44.056024" lon="12.4277254"><ele>41.0</ele><time>2026-04-29T09:42:00.452Z</time></trkpt><trkpt lat="44.0558733" lon="12.427707"><ele>41.0</ele><time>2026-04-29T09:42:01.453Z</time></trkpt><trkpt lat="44.0557238" lon="12.4276858"><ele>41.0</ele><time>2026-04-29T09:42:02.452Z</time></trkpt><trkpt lat="44.0555744" lon="12.4276657"><ele>41.25</ele><time>2026-04-29T09:42:03.452Z</time></trkpt><trkpt lat="44.0554281" lon="12.4276458"><ele>41.5</ele><time>2026-04-29T09:42:04.452Z</time></trkpt><trkpt lat="44.0552838" lon="12.4276226"><ele>41.75</ele><time>2026-04-29T09:42:05.452Z</time></trkpt><trkpt lat="44.0551399" lon="12.4275992"><ele>42.0</ele><time>2026-04-29T09:42:06.452Z</time></trkpt><trkpt lat="44.0549937" lon="12.4275656"><ele>41.75</ele><time>2026-04-29T09:42:07.452Z</time></trkpt><trkpt lat="44.0548508" lon="12.4275134"><ele>41.5</ele><time>2026-04-29T09:42:08.452Z</time></trkpt><trkpt lat="44.0547127" lon="12.4274448"><ele>41.25</ele><time>2026-04-29T09:42:09.452Z</time></trkpt><trkpt lat="44.054579" lon="12.4273602"><ele>41.0</ele><time>2026-04-29T09:42:10.452Z</time></trkpt><trkpt lat="44.0544496" lon="12.4272593"><ele>41.0</ele><time>2026-04-29T09:42:11.452Z</time></trkpt><trkpt lat="44.0543248" lon="12.4271479"><ele>41.0</ele><time>2026-04-29T09:42:12.452Z</time></trkpt><trkpt lat="44.0542047" lon="12.4270218"><ele>41.0</ele><time>2026-04-29T09:42:13.452Z</time></trkpt><trkpt lat="44.0540869" lon="12.4268796"><ele>42.0</ele><time>2026-04-29T09:42:14.452Z</time></trkpt><trkpt lat="44.0539775" lon="12.4267285"><ele>43.0</ele><time>2026-04-29T09:42:15.452Z</time></trkpt><trkpt lat="44.0538725" lon="12.4265683"><ele>44.0</ele><time>2026-04-29T09:42:16.452Z</time></trkpt><trkpt lat="44.0537694" lon="12.4264055"><ele>43.666666666666664</ele><time>2026-04-29T09:42:17.452Z</time></trkpt><trkpt lat="44.0536665" lon="12.4262361"><ele>43.333333333333336</ele><time>2026-04-29T09:42:18.452Z</time></trkpt><trkpt lat="44.0535658" lon="12.4260642"><ele>43.0</ele><time>2026-04-29T09:42:19.452Z</time></trkpt><trkpt lat="44.0534665" lon="12.4258904"><ele>43.0</ele><time>2026-04-29T09:42:20.452Z</time></trkpt><trkpt lat="44.0533678" lon="12.4257148"><ele>43.0</ele><time>2026-04-29T09:42:21.452Z</time></trkpt><trkpt lat="44.0532716" lon="12.4255341"><ele>43.0</ele><time>2026-04-29T09:42:22.453Z</time></trkpt><trkpt lat="44.0531839" lon="12.4253483"><ele>42.66666666666667</ele><time>2026-04-29T09:42:23.453Z</time></trkpt><trkpt lat="44.0531011" lon="12.4251593"><ele>42.333333333333336</ele><time>2026-04-29T09:42:24.452Z</time></trkpt><trkpt lat="44.0530191" lon="12.4249795"><ele>42.0</ele><time>2026-04-29T09:42:25.452Z</time></trkpt><trkpt lat="44.0529374" lon="12.4248014"><ele>42.5</ele><time>2026-04-29T09:42:26.452Z</time></trkpt><trkpt lat="44.0528562" lon="12.424626"><ele>43.0</ele><time>2026-04-29T09:42:27.452Z</time></trkpt><trkpt lat="44.0527771" lon="12.4244507"><ele>43.5</ele><time>2026-04-29T09:42:28.452Z</time></trkpt><trkpt lat="44.0526987" lon="12.4242756"><ele>44.0</ele><time>2026-04-29T09:42:29.452Z</time></trkpt><trkpt lat="44.0526227" lon="12.4241035"><ele>44.0</ele><time>2026-04-29T09:42:30.452Z</time></trkpt><trkpt lat="44.0525463" lon="12.4239337"><ele>44.0</ele><time>2026-04-29T09:42:31.452Z</time></trkpt><trkpt lat="44.0524661" lon="12.4237669"><ele>44.0</ele><time>2026-04-29T09:42:32.452Z</time></trkpt><trkpt lat="44.0523821" lon="12.4235974"><ele>44.0</ele><time>2026-04-29T09:42:33.452Z</time></trkpt><trkpt lat="44.0522956" lon="12.4234222"><ele>44.33333333333333</ele><time>2026-04-29T09:42:34.452Z</time></trkpt><trkpt lat="44.0522071" lon="12.4232429"><ele>44.666666666666664</ele><time>2026-04-29T09:42:35.452Z</time></trkpt><trkpt lat="44.0521143" lon="12.4230617"><ele>45.0</ele><time>2026-04-29T09:42:36.452Z</time></trkpt><trkpt lat="44.052022" lon="12.4228794"><ele>45.333333333333336</ele><time>2026-04-29T09:42:37.452Z</time></trkpt><trkpt lat="44.0519313" lon="12.4226988"><ele>45.66666666666667</ele><time>2026-04-29T09:42:38.452Z</time></trkpt><trkpt lat="44.0518377" lon="12.4225184"><ele>46.0</ele><time>2026-04-29T09:42:39.452Z</time></trkpt><trkpt lat="44.0517446" lon="12.4223408"><ele>46.0</ele><time>2026-04-29T09:42:40.452Z</time></trkpt><trkpt lat="44.0516523" lon="12.4221619"><ele>46.0</ele><time>2026-04-29T09:42:41.452Z</time></trkpt><trkpt lat="44.0515603" lon="12.4219824"><ele>46.0</ele><time>2026-04-29T09:42:42.452Z</time></trkpt><trkpt lat="44.0514681" lon="12.4218049"><ele>46.0</ele><time>2026-04-29T09:42:43.452Z</time></trkpt><trkpt lat="44.0513735" lon="12.4216294"><ele>46.0</ele><time>2026-04-29T09:42:44.452Z</time></trkpt><trkpt lat="44.0512815" lon="12.4214527"><ele>46.0</ele><time>2026-04-29T09:42:45.452Z</time></trkpt><trkpt lat="44.0511876" lon="12.4212734"><ele>46.0</ele><time>2026-04-29T09:42:46.452Z</time></trkpt><trkpt lat="44.0510929" lon="12.4210924"><ele>46.0</ele><time>2026-04-29T09:42:47.452Z</time></trkpt><trkpt lat="44.0510005" lon="12.4209084"><ele>46.0</ele><time>2026-04-29T09:42:48.452Z</time></trkpt><trkpt lat="44.0509073" lon="12.4207247"><ele>46.0</ele><time>2026-04-29T09:42:49.453Z</time></trkpt><trkpt lat="44.0508136" lon="12.4205448"><ele>46.0</ele><time>2026-04-29T09:42:50.452Z</time></trkpt><trkpt lat="44.0507206" lon="12.4203649"><ele>46.0</ele><time>2026-04-29T09:42:51.452Z</time></trkpt><trkpt lat="44.0506276" lon="12.4201836"><ele>46.333333333333336</ele><time>2026-04-29T09:42:52.452Z</time></trkpt><trkpt lat="44.0505307" lon="12.4199963"><ele>46.666666666666664</ele><time>2026-04-29T09:42:53.452Z</time></trkpt><trkpt lat="44.0504346" lon="12.4198083"><ele>47.0</ele><time>2026-04-29T09:42:54.452Z</time></trkpt><trkpt lat="44.0503347" lon="12.4196211"><ele>47.33333333333333</ele><time>2026-04-29T09:42:55.452Z</time></trkpt><trkpt lat="44.0502361" lon="12.419436"><ele>47.666666666666664</ele><time>2026-04-29T09:42:56.452Z</time></trkpt><trkpt lat="44.0501407" lon="12.4192514"><ele>48.0</ele><time>2026-04-29T09:42:57.452Z</time></trkpt><trkpt lat="44.0500471" lon="12.4190668"><ele>48.0</ele><time>2026-04-29T09:42:58.452Z</time></trkpt><trkpt lat="44.0499529" lon="12.4188798"><ele>48.0</ele><time>2026-04-29T09:42:59.452Z</time></trkpt><trkpt lat="44.0498594" lon="12.4186902"><ele>48.0</ele><time>2026-04-29T09:43:00.452Z</time></trkpt><trkpt lat="44.0497664" lon="12.4184981"><ele>48.33333333333333</ele><time>2026-04-29T09:43:01.452Z</time></trkpt><trkpt lat="44.0496729" lon="12.4183044"><ele>48.666666666666664</ele><time>2026-04-29T09:43:02.451Z</time></trkpt><trkpt lat="44.0495809" lon="12.418108"><ele>49.0</ele><time>2026-04-29T09:43:03.451Z</time></trkpt><trkpt lat="44.0494915" lon="12.4179151"><ele>49.0</ele><time>2026-04-29T09:43:04.451Z</time></trkpt><trkpt lat="44.0494019" lon="12.417723"><ele>49.0</ele><time>2026-04-29T09:43:05.451Z</time></trkpt><trkpt lat="44.0493153" lon="12.4175348"><ele>49.0</ele><time>2026-04-29T09:43:06.452Z</time></trkpt><trkpt lat="44.049229" lon="12.4173469"><ele>49.0</ele><time>2026-04-29T09:43:07.451Z</time></trkpt><trkpt lat="44.0491471" lon="12.417163"><ele>49.0</ele><time>2026-04-29T09:43:08.451Z</time></trkpt><trkpt lat="44.0490648" lon="12.4169796"><ele>49.0</ele><time>2026-04-29T09:43:09.452Z</time></trkpt><trkpt lat="44.0489809" lon="12.4167944"><ele>49.0</ele><time>2026-04-29T09:43:10.451Z</time></trkpt><trkpt lat="44.0488953" lon="12.4166074"><ele>49.0</ele><time>2026-04-29T09:43:11.451Z</time></trkpt><trkpt lat="44.0488107" lon="12.4164212"><ele>49.0</ele><time>2026-04-29T09:43:12.451Z</time></trkpt><trkpt lat="44.0487237" lon="12.4162345"><ele>49.0</ele><time>2026-04-29T09:43:13.452Z</time></trkpt><trkpt lat="44.0486386" lon="12.4160485"><ele>49.0</ele><time>2026-04-29T09:43:14.451Z</time></trkpt><trkpt lat="44.0485499" lon="12.4158681"><ele>49.0</ele><time>2026-04-29T09:43:15.452Z</time></trkpt><trkpt lat="44.0484652" lon="12.4156898"><ele>49.0</ele><time>2026-04-29T09:43:16.451Z</time></trkpt><trkpt lat="44.0483835" lon="12.4155244"><ele>49.0</ele><time>2026-04-29T09:43:17.452Z</time></trkpt><trkpt lat="44.0483042" lon="12.4153692"><ele>49.0</ele><time>2026-04-29T09:43:18.451Z</time></trkpt><trkpt lat="44.0482284" lon="12.415221"><ele>49.0</ele><time>2026-04-29T09:43:19.451Z</time></trkpt><trkpt lat="44.0481639" lon="12.4150856"><ele>48.99999999999999</ele><time>2026-04-29T09:43:20.451Z</time></trkpt><trkpt lat="44.0481049" lon="12.4149683"><ele>49.0</ele><time>2026-04-29T09:43:21.451Z</time></trkpt><trkpt lat="44.0480523" lon="12.4148621"><ele>49.0</ele><time>2026-04-29T09:43:22.451Z</time></trkpt><trkpt lat="44.0480053" lon="12.414765"><ele>49.0</ele><time>2026-04-29T09:43:23.451Z</time></trkpt><trkpt lat="44.0479577" lon="12.4146784"><ele>48.99999999999999</ele><time>2026-04-29T09:43:24.451Z</time></trkpt><trkpt lat="44.0479102" lon="12.4146186"><ele>49.0</ele><time>2026-04-29T09:43:25.451Z</time></trkpt><trkpt lat="44.0477894" lon="12.4145506"><ele>48.99999999999999</ele><time>2026-04-29T09:43:27.451Z</time></trkpt><trkpt lat="44.0477226" lon="12.4145836"><ele>49.0</ele><time>2026-04-29T09:43:28.451Z</time></trkpt><trkpt lat="44.0476588" lon="12.4146454"><ele>49.0</ele><time>2026-04-29T09:43:29.451Z</time></trkpt><trkpt lat="44.0475954" lon="12.4147278"><ele>49.0</ele><time>2026-04-29T09:43:30.452Z</time></trkpt><trkpt lat="44.0475279" lon="12.4148252"><ele>48.99999999999999</ele><time>2026-04-29T09:43:31.451Z</time></trkpt><trkpt lat="44.0474538" lon="12.4149306"><ele>49.0</ele><time>2026-04-29T09:43:32.452Z</time></trkpt><trkpt lat="44.0473748" lon="12.4150416"><ele>49.5</ele><time>2026-04-29T09:43:33.451Z</time></trkpt><trkpt lat="44.0473006" lon="12.4151619"><ele>50.0</ele><time>2026-04-29T09:43:34.451Z</time></trkpt><trkpt lat="44.0472376" lon="12.4152912"><ele>50.5</ele><time>2026-04-29T09:43:35.451Z</time></trkpt><trkpt lat="44.0471766" lon="12.4154277"><ele>51.0</ele><time>2026-04-29T09:43:36.451Z</time></trkpt><trkpt lat="44.0471172" lon="12.4155758"><ele>51.0</ele><time>2026-04-29T09:43:37.451Z</time></trkpt><trkpt lat="44.0470626" lon="12.4157288"><ele>51.0</ele><time>2026-04-29T09:43:38.451Z</time></trkpt><trkpt lat="44.0470084" lon="12.4158857"><ele>51.0</ele><time>2026-04-29T09:43:39.451Z</time></trkpt><trkpt lat="44.0469568" lon="12.4160444"><ele>51.0</ele><time>2026-04-29T09:43:40.451Z</time></trkpt><trkpt lat="44.0469042" lon="12.4161984"><ele>50.25</ele><time>2026-04-29T09:43:41.451Z</time></trkpt><trkpt lat="44.0468545" lon="12.4163509"><ele>49.5</ele><time>2026-04-29T09:43:42.451Z</time></trkpt><trkpt lat="44.0468104" lon="12.4165014"><ele>48.75</ele><time>2026-04-29T09:43:43.451Z</time></trkpt><trkpt lat="44.0467673" lon="12.4166492"><ele>48.0</ele><time>2026-04-29T09:43:44.451Z</time></trkpt><trkpt lat="44.0467249" lon="12.4167958"><ele>48.0</ele><time>2026-04-29T09:43:45.452Z</time></trkpt><trkpt lat="44.0466855" lon="12.4169447"><ele>48.0</ele><time>2026-04-29T09:43:46.451Z</time></trkpt><trkpt lat="44.0466447" lon="12.4170918"><ele>48.0</ele><time>2026-04-29T09:43:47.451Z</time></trkpt><trkpt lat="44.0465995" lon="12.4172367"><ele>48.0</ele><time>2026-04-29T09:43:48.451Z</time></trkpt><trkpt lat="44.0465574" lon="12.4173827"><ele>48.2</ele><time>2026-04-29T09:43:49.451Z</time></trkpt><trkpt lat="44.0465173" lon="12.4175197"><ele>48.4</ele><time>2026-04-29T09:43:50.451Z</time></trkpt><trkpt lat="44.0464674" lon="12.4176298"><ele>48.6</ele><time>2026-04-29T09:43:51.451Z</time></trkpt><trkpt lat="44.046405" lon="12.4177178"><ele>48.800000000000004</ele><time>2026-04-29T09:43:52.452Z</time></trkpt><trkpt lat="44.046325" lon="12.4177955"><ele>49.0</ele><time>2026-04-29T09:43:53.451Z</time></trkpt><trkpt lat="44.0462343" lon="12.4178707"><ele>49.0</ele><time>2026-04-29T09:43:54.451Z</time></trkpt><trkpt lat="44.0461362" lon="12.4179426"><ele>49.0</ele><time>2026-04-29T09:43:55.452Z</time></trkpt><trkpt lat="44.0460388" lon="12.4180256"><ele>49.0</ele><time>2026-04-29T09:43:56.451Z</time></trkpt><trkpt lat="44.0459378" lon="12.4181174"><ele>49.0</ele><time>2026-04-29T09:43:57.451Z</time></trkpt><trkpt lat="44.0458393" lon="12.4182109"><ele>49.25</ele><time>2026-04-29T09:43:58.452Z</time></trkpt><trkpt lat="44.0457394" lon="12.4183057"><ele>49.5</ele><time>2026-04-29T09:43:59.451Z</time></trkpt><trkpt lat="44.0456437" lon="12.4184054"><ele>49.75</ele><time>2026-04-29T09:44:00.451Z</time></trkpt><trkpt lat="44.0455543" lon="12.4185089"><ele>50.0</ele><time>2026-04-29T09:44:01.451Z</time></trkpt><trkpt lat="44.0454736" lon="12.4186225"><ele>50.0</ele><time>2026-04-29T09:44:02.452Z</time></trkpt><trkpt lat="44.0454036" lon="12.4187433"><ele>50.0</ele><time>2026-04-29T09:44:03.451Z</time></trkpt><trkpt lat="44.0453317" lon="12.4188464"><ele>50.0</ele><time>2026-04-29T09:44:04.451Z</time></trkpt><trkpt lat="44.0452631" lon="12.4189464"><ele>50.0</ele><time>2026-04-29T09:44:05.451Z</time></trkpt><trkpt lat="44.0451948" lon="12.4190393"><ele>50.0</ele><time>2026-04-29T09:44:06.451Z</time></trkpt><trkpt lat="44.0451299" lon="12.4191111"><ele>49.8</ele><time>2026-04-29T09:44:07.451Z</time></trkpt><trkpt lat="44.0450534" lon="12.4191675"><ele>49.6</ele><time>2026-04-29T09:44:08.451Z</time></trkpt><trkpt lat="44.0449694" lon="12.419212"><ele>49.400000000000006</ele><time>2026-04-29T09:44:09.451Z</time></trkpt><trkpt lat="44.0448771" lon="12.4192507"><ele>49.2</ele><time>2026-04-29T09:44:10.451Z</time></trkpt><trkpt lat="44.044784" lon="12.4192861"><ele>49.0</ele><time>2026-04-29T09:44:11.451Z</time></trkpt><trkpt lat="44.0446922" lon="12.4193149"><ele>48.99999999999999</ele><time>2026-04-29T09:44:12.451Z</time></trkpt><trkpt lat="44.0446047" lon="12.4193289"><ele>49.0</ele><time>2026-04-29T09:44:13.451Z</time></trkpt><trkpt lat="44.0445202" lon="12.4193314"><ele>49.0</ele><time>2026-04-29T09:44:14.451Z</time></trkpt><trkpt lat="44.0444455" lon="12.419317"><ele>49.0</ele><time>2026-04-29T09:44:15.451Z</time></trkpt><trkpt lat="44.0443758" lon="12.4192914"><ele>48.99999999999999</ele><time>2026-04-29T09:44:16.451Z</time></trkpt><trkpt lat="44.0443111" lon="12.4192569"><ele>49.0</ele><time>2026-04-29T09:44:17.451Z</time></trkpt><trkpt lat="44.0442472" lon="12.419213"><ele>48.99999999999999</ele><time>2026-04-29T09:44:18.452Z</time></trkpt><trkpt lat="44.0441872" lon="12.4191561"><ele>49.0</ele><time>2026-04-29T09:44:19.452Z</time></trkpt><trkpt lat="44.0441273" lon="12.4190888"><ele>49.0</ele><time>2026-04-29T09:44:20.451Z</time></trkpt><trkpt lat="44.0440673" lon="12.4190182"><ele>49.0</ele><time>2026-04-29T09:44:21.451Z</time></trkpt><trkpt lat="44.0440043" lon="12.4189494"><ele>48.99999999999999</ele><time>2026-04-29T09:44:22.451Z</time></trkpt><trkpt lat="44.0439445" lon="12.4188787"><ele>49.0</ele><time>2026-04-29T09:44:23.451Z</time></trkpt><trkpt lat="44.0438873" lon="12.4188033"><ele>49.166666666666664</ele><time>2026-04-29T09:44:24.451Z</time></trkpt><trkpt lat="44.0438385" lon="12.418718"><ele>49.33333333333333</ele><time>2026-04-29T09:44:25.452Z</time></trkpt><trkpt lat="44.0437937" lon="12.4186273"><ele>49.5</ele><time>2026-04-29T09:44:26.451Z</time></trkpt><trkpt lat="44.0437507" lon="12.4185298"><ele>49.66666666666667</ele><time>2026-04-29T09:44:27.451Z</time></trkpt><trkpt lat="44.0437099" lon="12.4184261"><ele>49.833333333333336</ele><time>2026-04-29T09:44:28.451Z</time></trkpt><trkpt lat="44.0436675" lon="12.4183217"><ele>50.0</ele><time>2026-04-29T09:44:29.451Z</time></trkpt><trkpt lat="44.0436256" lon="12.4182161"><ele>50.00000000000001</ele><time>2026-04-29T09:44:30.451Z</time></trkpt><trkpt lat="44.0435902" lon="12.4181073"><ele>50.0</ele><time>2026-04-29T09:44:31.451Z</time></trkpt><trkpt lat="44.0435565" lon="12.4179934"><ele>50.0</ele><time>2026-04-29T09:44:32.451Z</time></trkpt><trkpt lat="44.0435223" lon="12.4178796"><ele>50.0</ele><time>2026-04-29T09:44:33.451Z</time></trkpt><trkpt lat="44.0434846" lon="12.4177634"><ele>50.00000000000001</ele><time>2026-04-29T09:44:34.452Z</time></trkpt><trkpt lat="44.0434452" lon="12.4176462"><ele>50.0</ele><time>2026-04-29T09:44:35.451Z</time></trkpt><trkpt lat="44.0434003" lon="12.4175304"><ele>50.0</ele><time>2026-04-29T09:44:36.451Z</time></trkpt><trkpt lat="44.0433584" lon="12.4174091"><ele>50.0</ele><time>2026-04-29T09:44:37.451Z</time></trkpt><trkpt lat="44.0433139" lon="12.4172863"><ele>50.0</ele><time>2026-04-29T09:44:38.451Z</time></trkpt><trkpt lat="44.0432669" lon="12.4171625"><ele>50.0</ele><time>2026-04-29T09:44:39.451Z</time></trkpt><trkpt lat="44.0432193" lon="12.4170364"><ele>50.0</ele><time>2026-04-29T09:44:40.451Z</time></trkpt><trkpt lat="44.0431688" lon="12.4169177"><ele>50.16666666666667</ele><time>2026-04-29T09:44:41.451Z</time></trkpt><trkpt lat="44.0431208" lon="12.416807"><ele>50.333333333333336</ele><time>2026-04-29T09:44:42.451Z</time></trkpt><trkpt lat="44.0430786" lon="12.4167056"><ele>50.5</ele><time>2026-04-29T09:44:43.451Z</time></trkpt><trkpt lat="44.0430353" lon="12.4166188"><ele>50.66666666666667</ele><time>2026-04-29T09:44:44.451Z</time></trkpt><trkpt lat="44.0429955" lon="12.41653"><ele>50.833333333333336</ele><time>2026-04-29T09:44:45.451Z</time></trkpt><trkpt lat="44.0429483" lon="12.4164396"><ele>51.0</ele><time>2026-04-29T09:44:46.451Z</time></trkpt><trkpt lat="44.0428875" lon="12.416351"><ele>51.4</ele><time>2026-04-29T09:44:47.451Z</time></trkpt><trkpt lat="44.04282" lon="12.4162642"><ele>51.8</ele><time>2026-04-29T09:44:48.452Z</time></trkpt><trkpt lat="44.0427486" lon="12.416179"><ele>52.199999999999996</ele><time>2026-04-29T09:44:49.451Z</time></trkpt><trkpt lat="44.0426815" lon="12.4160916"><ele>52.599999999999994</ele><time>2026-04-29T09:44:50.451Z</time></trkpt><trkpt lat="44.0426203" lon="12.4159999"><ele>53.0</ele><time>2026-04-29T09:44:51.451Z</time></trkpt><trkpt lat="44.0425641" lon="12.4159108"><ele>53.00000000000001</ele><time>2026-04-29T09:44:52.451Z</time></trkpt><trkpt lat="44.0425169" lon="12.415817"><ele>53.0</ele><time>2026-04-29T09:44:53.452Z</time></trkpt><trkpt lat="44.0424817" lon="12.4157314"><ele>53.0</ele><time>2026-04-29T09:44:54.451Z</time></trkpt><trkpt lat="44.0424484" lon="12.4156558"><ele>53.0</ele><time>2026-04-29T09:44:55.451Z</time></trkpt><trkpt lat="44.0424138" lon="12.4155785"><ele>53.00000000000001</ele><time>2026-04-29T09:44:56.451Z</time></trkpt><trkpt lat="44.0423786" lon="12.4154979"><ele>53.0</ele><time>2026-04-29T09:44:57.452Z</time></trkpt><trkpt lat="44.0423416" lon="12.4153306"><ele>52.85714285714286</ele><time>2026-04-29T09:44:59.451Z</time></trkpt><trkpt lat="44.0423478" lon="12.4152382"><ele>52.71428571428571</ele><time>2026-04-29T09:45:00.451Z</time></trkpt><trkpt lat="44.0423807" lon="12.4151447"><ele>52.57142857142857</ele><time>2026-04-29T09:45:01.451Z</time></trkpt><trkpt lat="44.042425" lon="12.4150574"><ele>52.42857142857143</ele><time>2026-04-29T09:45:02.452Z</time></trkpt><trkpt lat="44.0424729" lon="12.4149719"><ele>52.28571428571429</ele><time>2026-04-29T09:45:03.452Z</time></trkpt><trkpt lat="44.0425032" lon="12.4148813"><ele>52.14285714285714</ele><time>2026-04-29T09:45:04.451Z</time></trkpt><trkpt lat="44.0425081" lon="12.4147829"><ele>52.0</ele><time>2026-04-29T09:45:05.451Z</time></trkpt><trkpt lat="44.0424833" lon="12.4146734"><ele>51.8</ele><time>2026-04-29T09:45:06.451Z</time></trkpt><trkpt lat="44.042437" lon="12.4145574"><ele>51.6</ele><time>2026-04-29T09:45:07.451Z</time></trkpt><trkpt lat="44.0423758" lon="12.4144329"><ele>51.4</ele><time>2026-04-29T09:45:08.451Z</time></trkpt><trkpt lat="44.0423118" lon="12.4142951"><ele>51.199999999999996</ele><time>2026-04-29T09:45:09.451Z</time></trkpt><trkpt lat="44.0422419" lon="12.4141569"><ele>51.0</ele><time>2026-04-29T09:45:10.451Z</time></trkpt><trkpt lat="44.042177" lon="12.4140238"><ele>51.0</ele><time>2026-04-29T09:45:11.451Z</time></trkpt><trkpt lat="44.0421133" lon="12.4138998"><ele>51.0</ele><time>2026-04-29T09:45:12.451Z</time></trkpt><trkpt lat="44.0420544" lon="12.4137827"><ele>51.0</ele><time>2026-04-29T09:45:13.451Z</time></trkpt><trkpt lat="44.0420006" lon="12.4136705"><ele>51.0</ele><time>2026-04-29T09:45:14.452Z</time></trkpt><trkpt lat="44.0419572" lon="12.4135673"><ele>51.0</ele><time>2026-04-29T09:45:15.451Z</time></trkpt><trkpt lat="44.0419173" lon="12.4134829"><ele>51.4</ele><time>2026-04-29T09:45:16.451Z</time></trkpt><trkpt lat="44.0418709" lon="12.4133543"><ele>51.8</ele><time>2026-04-29T09:45:18.451Z</time></trkpt><trkpt lat="44.0418317" lon="12.413281"><ele>52.199999999999996</ele><time>2026-04-29T09:45:20.451Z</time></trkpt><trkpt lat="44.0417111" lon="12.4131906"><ele>52.599999999999994</ele><time>2026-04-29T09:45:35.451Z</time></trkpt><trkpt lat="44.0416378" lon="12.4132262"><ele>53.0</ele><time>2026-04-29T09:45:36.451Z</time></trkpt><trkpt lat="44.0415393" lon="12.4132792"><ele>51.333333333333336</ele><time>2026-04-29T09:45:37.451Z</time></trkpt><trkpt lat="44.0414101" lon="12.4133332"><ele>49.66666666666667</ele><time>2026-04-29T09:45:38.451Z</time></trkpt><trkpt lat="44.0412472" lon="12.4133901"><ele>48.0</ele><time>2026-04-29T09:45:39.451Z</time></trkpt><trkpt lat="44.0410688" lon="12.413441"><ele>48.0</ele><time>2026-04-29T09:45:40.451Z</time></trkpt><trkpt lat="44.0409008" lon="12.4134744"><ele>48.0</ele><time>2026-04-29T09:45:41.451Z</time></trkpt><trkpt lat="44.0407492" lon="12.4135056"><ele>48.0</ele><time>2026-04-29T09:45:42.451Z</time></trkpt><trkpt lat="44.0406164" lon="12.4135284"><ele>47.8</ele><time>2026-04-29T09:45:43.451Z</time></trkpt><trkpt lat="44.0405099" lon="12.4135486"><ele>47.599999999999994</ele><time>2026-04-29T09:45:44.451Z</time></trkpt><trkpt lat="44.0404327" lon="12.413546"><ele>47.400000000000006</ele><time>2026-04-29T09:45:45.452Z</time></trkpt><trkpt lat="44.0403382" lon="12.4135068"><ele>47.2</ele><time>2026-04-29T09:45:47.451Z</time></trkpt><trkpt lat="44.0402689" lon="12.4133737"><ele>47.0</ele><time>2026-04-29T09:45:49.451Z</time></trkpt><trkpt lat="44.0402246" lon="12.4132838"><ele>47.0</ele><time>2026-04-29T09:45:50.451Z</time></trkpt><trkpt lat="44.0401723" lon="12.4131963"><ele>47.0</ele><time>2026-04-29T09:45:51.451Z</time></trkpt><trkpt lat="44.0401139" lon="12.413116"><ele>47.0</ele><time>2026-04-29T09:45:52.451Z</time></trkpt><trkpt lat="44.0400553" lon="12.4130457"><ele>47.0</ele><time>2026-04-29T09:45:53.451Z</time></trkpt><trkpt lat="44.0399974" lon="12.4129845"><ele>47.0</ele><time>2026-04-29T09:45:54.451Z</time></trkpt><trkpt lat="44.0399436" lon="12.4129333"><ele>47.0</ele><time>2026-04-29T09:45:55.451Z</time></trkpt><trkpt lat="44.0398851" lon="12.4128913"><ele>47.0</ele><time>2026-04-29T09:45:56.451Z</time></trkpt><trkpt lat="44.0398036" lon="12.4128686"><ele>46.83333333333333</ele><time>2026-04-29T09:45:57.451Z</time></trkpt><trkpt lat="44.0397228" lon="12.4128462"><ele>46.666666666666664</ele><time>2026-04-29T09:45:58.451Z</time></trkpt><trkpt lat="44.0396518" lon="12.4128204"><ele>46.5</ele><time>2026-04-29T09:45:59.451Z</time></trkpt><trkpt lat="44.0395911" lon="12.4127907"><ele>46.333333333333336</ele><time>2026-04-29T09:46:00.451Z</time></trkpt><trkpt lat="44.0394984" lon="12.4127181"><ele>46.16666666666667</ele><time>2026-04-29T09:46:02.452Z</time></trkpt><trkpt lat="44.0394523" lon="12.412588"><ele>46.0</ele><time>2026-04-29T09:46:04.451Z</time></trkpt><trkpt lat="44.039415" lon="12.412466"><ele>46.0</ele><time>2026-04-29T09:46:05.451Z</time></trkpt><trkpt lat="44.039375" lon="12.4123315"><ele>46.0</ele><time>2026-04-29T09:46:06.451Z</time></trkpt><trkpt lat="44.0393357" lon="12.4121906"><ele>46.0</ele><time>2026-04-29T09:46:07.452Z</time></trkpt><trkpt lat="44.039302" lon="12.4120609"><ele>46.0</ele><time>2026-04-29T09:46:08.451Z</time></trkpt><trkpt lat="44.0392734" lon="12.4119518"><ele>46.0</ele><time>2026-04-29T09:46:09.451Z</time></trkpt><trkpt lat="44.0392494" lon="12.4118422"><ele>46.4</ele><time>2026-04-29T09:46:10.451Z</time></trkpt><trkpt lat="44.0392228" lon="12.4117321"><ele>46.8</ele><time>2026-04-29T09:46:11.452Z</time></trkpt><trkpt lat="44.0391876" lon="12.4116097"><ele>47.199999999999996</ele><time>2026-04-29T09:46:12.451Z</time></trkpt><trkpt lat="44.0391452" lon="12.4114816"><ele>47.599999999999994</ele><time>2026-04-29T09:46:13.451Z</time></trkpt><trkpt lat="44.0390925" lon="12.4113516"><ele>48.0</ele><time>2026-04-29T09:46:14.451Z</time></trkpt><trkpt lat="44.0390405" lon="12.411219"><ele>48.0</ele><time>2026-04-29T09:46:15.451Z</time></trkpt><trkpt lat="44.0389892" lon="12.4110769"><ele>48.0</ele><time>2026-04-29T09:46:16.451Z</time></trkpt><trkpt lat="44.0389349" lon="12.410936"><ele>48.0</ele><time>2026-04-29T09:46:17.451Z</time></trkpt><trkpt lat="44.0388781" lon="12.4107929"><ele>48.0</ele><time>2026-04-29T09:46:18.451Z</time></trkpt><trkpt lat="44.0388236" lon="12.4106476"><ele>48.0</ele><time>2026-04-29T09:46:19.452Z</time></trkpt><trkpt lat="44.0387754" lon="12.4105193"><ele>48.0</ele><time>2026-04-29T09:46:20.451Z</time></trkpt><trkpt lat="44.0387261" lon="12.4104049"><ele>48.0</ele><time>2026-04-29T09:46:21.451Z</time></trkpt><trkpt lat="44.0386823" lon="12.4102906"><ele>48.0</ele><time>2026-04-29T09:46:22.451Z</time></trkpt><trkpt lat="44.0386379" lon="12.4101674"><ele>48.0</ele><time>2026-04-29T09:46:23.452Z</time></trkpt><trkpt lat="44.0385854" lon="12.4100357"><ele>48.166666666666664</ele><time>2026-04-29T09:46:24.451Z</time></trkpt><trkpt lat="44.03854" lon="12.4099086"><ele>48.33333333333333</ele><time>2026-04-29T09:46:25.451Z</time></trkpt><trkpt lat="44.0385036" lon="12.4097945"><ele>48.5</ele><time>2026-04-29T09:46:26.451Z</time></trkpt><trkpt lat="44.0384689" lon="12.4096995"><ele>48.666666666666664</ele><time>2026-04-29T09:46:27.451Z</time></trkpt><trkpt lat="44.0384398" lon="12.4096141"><ele>48.83333333333333</ele><time>2026-04-29T09:46:28.452Z</time></trkpt><trkpt lat="44.0384077" lon="12.409528"><ele>49.0</ele><time>2026-04-29T09:46:29.451Z</time></trkpt><trkpt lat="44.038373" lon="12.409446"><ele>48.99999999999999</ele><time>2026-04-29T09:46:30.452Z</time></trkpt><trkpt lat="44.0383445" lon="12.4093641"><ele>49.0</ele><time>2026-04-29T09:46:31.451Z</time></trkpt><trkpt lat="44.0383134" lon="12.4092816"><ele>49.0</ele><time>2026-04-29T09:46:32.451Z</time></trkpt><trkpt lat="44.0382807" lon="12.4092042"><ele>49.0</ele><time>2026-04-29T09:46:33.451Z</time></trkpt><trkpt lat="44.0382203" lon="12.4090575"><ele>48.99999999999999</ele><time>2026-04-29T09:46:35.452Z</time></trkpt><trkpt lat="44.0381576" lon="12.4089073"><ele>49.0</ele><time>2026-04-29T09:46:37.451Z</time></trkpt><trkpt lat="44.0381036" lon="12.4087719"><ele>49.400000000000006</ele><time>2026-04-29T09:46:39.451Z</time></trkpt><trkpt lat="44.0380572" lon="12.4086246"><ele>49.8</ele><time>2026-04-29T09:46:41.452Z</time></trkpt><trkpt lat="44.038011" lon="12.4084654"><ele>50.2</ele><time>2026-04-29T09:46:43.451Z</time></trkpt><trkpt lat="44.0379761" lon="12.4083132"><ele>50.599999999999994</ele><time>2026-04-29T09:46:45.451Z</time></trkpt><trkpt lat="44.0379373" lon="12.4082037"><ele>51.0</ele><time>2026-04-29T09:46:47.451Z</time></trkpt><trkpt lat="44.0379001" lon="12.4080639"><ele>50.666666666666664</ele><time>2026-04-29T09:46:49.451Z</time></trkpt><trkpt lat="44.0378653" lon="12.4078901"><ele>50.33333333333333</ele><time>2026-04-29T09:46:51.451Z</time></trkpt><trkpt lat="44.0378438" lon="12.4077826"><ele>50.0</ele><time>2026-04-29T09:46:52.451Z</time></trkpt><trkpt lat="44.0378245" lon="12.4076656"><ele>49.666666666666664</ele><time>2026-04-29T09:46:53.451Z</time></trkpt><trkpt lat="44.0378021" lon="12.4075575"><ele>49.33333333333333</ele><time>2026-04-29T09:46:54.451Z</time></trkpt><trkpt lat="44.0377819" lon="12.4074651"><ele>49.0</ele><time>2026-04-29T09:46:55.451Z</time></trkpt><trkpt lat="44.0377672" lon="12.4073748"><ele>48.99999999999999</ele><time>2026-04-29T09:46:56.451Z</time></trkpt><trkpt lat="44.0377581" lon="12.4072867"><ele>49.0</ele><time>2026-04-29T09:46:57.451Z</time></trkpt><trkpt lat="44.037735" lon="12.4071082"><ele>49.0</ele><time>2026-04-29T09:46:59.451Z</time></trkpt><trkpt lat="44.0377213" lon="12.4070174"><ele>49.0</ele><time>2026-04-29T09:47:00.451Z</time></trkpt><trkpt lat="44.037705" lon="12.4069287"><ele>48.99999999999999</ele><time>2026-04-29T09:47:01.451Z</time></trkpt><trkpt lat="44.0376829" lon="12.4068319"><ele>49.0</ele><time>2026-04-29T09:47:02.451Z</time></trkpt><trkpt lat="44.0376615" lon="12.4067407"><ele>49.0</ele><time>2026-04-29T09:47:03.451Z</time></trkpt><trkpt lat="44.0376464" lon="12.406647"><ele>49.0</ele><time>2026-04-29T09:47:04.451Z</time></trkpt><trkpt lat="44.0376319" lon="12.4065575"><ele>49.0</ele><time>2026-04-29T09:47:05.452Z</time></trkpt><trkpt lat="44.0376158" lon="12.4064678"><ele>49.0</ele><time>2026-04-29T09:47:06.451Z</time></trkpt><trkpt lat="44.0375974" lon="12.4063693"><ele>49.0</ele><time>2026-04-29T09:47:07.451Z</time></trkpt><trkpt lat="44.0375833" lon="12.4062692"><ele>49.0</ele><time>2026-04-29T09:47:08.452Z</time></trkpt><trkpt lat="44.0375675" lon="12.4061768"><ele>49.0</ele><time>2026-04-29T09:47:09.451Z</time></trkpt><trkpt lat="44.0375478" lon="12.4060193"><ele>49.0</ele><time>2026-04-29T09:47:11.451Z</time></trkpt><trkpt lat="44.0375303" lon="12.4058473"><ele>49.0</ele><time>2026-04-29T09:47:13.451Z</time></trkpt><trkpt lat="44.0375137" lon="12.405759"><ele>49.0</ele><time>2026-04-29T09:47:14.451Z</time></trkpt><trkpt lat="44.0374672" lon="12.4056042"><ele>49.0</ele><time>2026-04-29T09:47:16.451Z</time></trkpt><trkpt lat="44.0374311" lon="12.4054729"><ele>49.0</ele><time>2026-04-29T09:47:18.451Z</time></trkpt><trkpt lat="44.0374031" lon="12.4053102"><ele>50.166666666666664</ele><time>2026-04-29T09:47:20.451Z</time></trkpt><trkpt lat="44.0373807" lon="12.405218"><ele>51.33333333333333</ele><time>2026-04-29T09:47:21.452Z</time></trkpt><trkpt lat="44.0373608" lon="12.405125"><ele>52.5</ele><time>2026-04-29T09:47:22.452Z</time></trkpt><trkpt lat="44.0373406" lon="12.4050409"><ele>53.66666666666667</ele><time>2026-04-29T09:47:23.451Z</time></trkpt><trkpt lat="44.0373049" lon="12.4048813"><ele>54.833333333333336</ele><time>2026-04-29T09:47:25.452Z</time></trkpt><trkpt lat="44.0372829" lon="12.4047911"><ele>56.0</ele><time>2026-04-29T09:47:26.451Z</time></trkpt><trkpt lat="44.0372647" lon="12.4047058"><ele>55.50000000000001</ele><time>2026-04-29T09:47:27.451Z</time></trkpt><trkpt lat="44.037236" lon="12.4045759"><ele>55.0</ele><time>2026-04-29T09:47:29.452Z</time></trkpt><trkpt lat="44.0372189" lon="12.4044615"><ele>54.5</ele><time>2026-04-29T09:47:31.451Z</time></trkpt><trkpt lat="44.0372401" lon="12.404372"><ele>54.0</ele><time>2026-04-29T09:47:33.451Z</time></trkpt><trkpt lat="44.0372857" lon="12.4042932"><ele>53.50000000000001</ele><time>2026-04-29T09:47:35.451Z</time></trkpt><trkpt lat="44.0372955" lon="12.404184"><ele>53.0</ele><time>2026-04-29T09:47:37.452Z</time></trkpt><trkpt lat="44.0372657" lon="12.4040291"><ele>53.0</ele><time>2026-04-29T09:47:39.451Z</time></trkpt><trkpt lat="44.0372477" lon="12.4039291"><ele>53.0</ele><time>2026-04-29T09:47:40.451Z</time></trkpt><trkpt lat="44.0372318" lon="12.4038352"><ele>53.0</ele><time>2026-04-29T09:47:41.451Z</time></trkpt><trkpt lat="44.0372127" lon="12.4037439"><ele>53.0</ele><time>2026-04-29T09:47:42.451Z</time></trkpt><trkpt lat="44.0371895" lon="12.4036491"><ele>53.0</ele><time>2026-04-29T09:47:43.451Z</time></trkpt><trkpt lat="44.0371611" lon="12.4035515"><ele>53.0</ele><time>2026-04-29T09:47:44.451Z</time></trkpt><trkpt lat="44.0371344" lon="12.4034535"><ele>53.0</ele><time>2026-04-29T09:47:45.451Z</time></trkpt><trkpt lat="44.0371146" lon="12.4033619"><ele>52.5</ele><time>2026-04-29T09:47:46.451Z</time></trkpt><trkpt lat="44.0370889" lon="12.4032032"><ele>52.0</ele><time>2026-04-29T09:47:48.451Z</time></trkpt><trkpt lat="44.0370396" lon="12.4030662"><ele>51.5</ele><time>2026-04-29T09:47:50.451Z</time></trkpt><trkpt lat="44.0369958" lon="12.4029294"><ele>51.0</ele><time>2026-04-29T09:47:52.451Z</time></trkpt><trkpt lat="44.0369648" lon="12.4027582"><ele>51.0</ele><time>2026-04-29T09:47:54.452Z</time></trkpt><trkpt lat="44.0369451" lon="12.4026637"><ele>51.0</ele><time>2026-04-29T09:47:55.451Z</time></trkpt><trkpt lat="44.0369182" lon="12.4025662"><ele>51.0</ele><time>2026-04-29T09:47:56.451Z</time></trkpt><trkpt lat="44.0368841" lon="12.4024755"><ele>51.0</ele><time>2026-04-29T09:47:57.451Z</time></trkpt><trkpt lat="44.0368487" lon="12.4023886"><ele>51.0</ele><time>2026-04-29T09:47:58.451Z</time></trkpt><trkpt lat="44.0368161" lon="12.4023061"><ele>51.0</ele><time>2026-04-29T09:47:59.451Z</time></trkpt><trkpt lat="44.0367845" lon="12.4022275"><ele>51.0</ele><time>2026-04-29T09:48:00.451Z</time></trkpt><trkpt lat="44.0367253" lon="12.4020915"><ele>51.166666666666664</ele><time>2026-04-29T09:48:02.451Z</time></trkpt><trkpt lat="44.0366798" lon="12.4019963"><ele>51.33333333333333</ele><time>2026-04-29T09:48:04.451Z</time></trkpt><trkpt lat="44.0366362" lon="12.4019166"><ele>51.5</ele><time>2026-04-29T09:48:06.451Z</time></trkpt><trkpt lat="44.0365594" lon="12.4018297"><ele>51.666666666666664</ele><time>2026-04-29T09:48:08.451Z</time></trkpt><trkpt lat="44.0364736" lon="12.401717"><ele>51.83333333333333</ele><time>2026-04-29T09:48:10.451Z</time></trkpt><trkpt lat="44.0364337" lon="12.4016489"><ele>52.0</ele><time>2026-04-29T09:48:11.451Z</time></trkpt><trkpt lat="44.0364005" lon="12.4015683"><ele>51.99999999999999</ele><time>2026-04-29T09:48:12.451Z</time></trkpt><trkpt lat="44.0363686" lon="12.401488"><ele>52.0</ele><time>2026-04-29T09:48:13.452Z</time></trkpt><trkpt lat="44.0363407" lon="12.4014087"><ele>52.0</ele><time>2026-04-29T09:48:14.451Z</time></trkpt><trkpt lat="44.0363117" lon="12.4013211"><ele>52.0</ele><time>2026-04-29T09:48:15.451Z</time></trkpt><trkpt lat="44.0362813" lon="12.4012298"><ele>51.99999999999999</ele><time>2026-04-29T09:48:16.451Z</time></trkpt><trkpt lat="44.0362298" lon="12.401091"><ele>52.0</ele><time>2026-04-29T09:48:18.451Z</time></trkpt><trkpt lat="44.0361817" lon="12.4009483"><ele>51.99999999999999</ele><time>2026-04-29T09:48:20.451Z</time></trkpt><trkpt lat="44.0361506" lon="12.4008512"><ele>52.0</ele><time>2026-04-29T09:48:21.451Z</time></trkpt><trkpt lat="44.0361235" lon="12.400748"><ele>52.0</ele><time>2026-04-29T09:48:22.451Z</time></trkpt><trkpt lat="44.0360948" lon="12.4006463"><ele>52.0</ele><time>2026-04-29T09:48:23.451Z</time></trkpt><trkpt lat="44.0360687" lon="12.4005446"><ele>51.99999999999999</ele><time>2026-04-29T09:48:24.451Z</time></trkpt><trkpt lat="44.0360375" lon="12.4004551"><ele>52.0</ele><time>2026-04-29T09:48:25.451Z</time></trkpt><trkpt lat="44.0360129" lon="12.4003652"><ele>51.99999999999999</ele><time>2026-04-29T09:48:26.451Z</time></trkpt><trkpt lat="44.0359851" lon="12.4002746"><ele>52.0</ele><time>2026-04-29T09:48:27.451Z</time></trkpt><trkpt lat="44.0359631" lon="12.4001749"><ele>52.0</ele><time>2026-04-29T09:48:28.451Z</time></trkpt><trkpt lat="44.0359456" lon="12.4000819"><ele>52.0</ele><time>2026-04-29T09:48:29.451Z</time></trkpt><trkpt lat="44.0359152" lon="12.3999203"><ele>51.99999999999999</ele><time>2026-04-29T09:48:31.451Z</time></trkpt><trkpt lat="44.0358715" lon="12.3997754"><ele>52.0</ele><time>2026-04-29T09:48:33.451Z</time></trkpt><trkpt lat="44.0358295" lon="12.3996757"><ele>52.33333333333333</ele><time>2026-04-29T09:48:35.451Z</time></trkpt><trkpt lat="44.0357937" lon="12.3995887"><ele>52.666666666666664</ele><time>2026-04-29T09:48:37.451Z</time></trkpt><trkpt lat="44.035745" lon="12.3994561"><ele>53.0</ele><time>2026-04-29T09:48:39.452Z</time></trkpt><trkpt lat="44.0356827" lon="12.3992974"><ele>53.33333333333333</ele><time>2026-04-29T09:48:41.451Z</time></trkpt><trkpt lat="44.0356467" lon="12.3992127"><ele>53.666666666666664</ele><time>2026-04-29T09:48:42.451Z</time></trkpt><trkpt lat="44.035608" lon="12.3991433"><ele>54.0</ele><time>2026-04-29T09:48:43.451Z</time></trkpt><trkpt lat="44.0355257" lon="12.3990473"><ele>54.0</ele><time>2026-04-29T09:48:45.451Z</time></trkpt><trkpt lat="44.0354133" lon="12.3989541"><ele>54.0</ele><time>2026-04-29T09:48:47.451Z</time></trkpt><trkpt lat="44.0353523" lon="12.3989075"><ele>54.0</ele><time>2026-04-29T09:48:48.452Z</time></trkpt><trkpt lat="44.0352748" lon="12.3988336"><ele>54.0</ele><time>2026-04-29T09:48:50.451Z</time></trkpt><trkpt lat="44.0352309" lon="12.3987696"><ele>54.0</ele><time>2026-04-29T09:48:52.451Z</time></trkpt><trkpt lat="44.0352084" lon="12.3986656"><ele>54.0</ele><time>2026-04-29T09:48:55.451Z</time></trkpt><trkpt lat="44.035195" lon="12.3985797"><ele>54.166666666666664</ele><time>2026-04-29T09:48:59.451Z</time></trkpt><trkpt lat="44.0352646" lon="12.3985396"><ele>54.33333333333333</ele><time>2026-04-29T09:49:14.451Z</time></trkpt><trkpt lat="44.0353431" lon="12.398485"><ele>54.5</ele><time>2026-04-29T09:49:16.451Z</time></trkpt><trkpt lat="44.0353976" lon="12.3984169"><ele>54.666666666666664</ele><time>2026-04-29T09:49:18.451Z</time></trkpt><trkpt lat="44.0354459" lon="12.3983334"><ele>54.83333333333333</ele><time>2026-04-29T09:49:20.451Z</time></trkpt><trkpt lat="44.0354996" lon="12.3982161"><ele>55.0</ele><time>2026-04-29T09:49:22.451Z</time></trkpt><trkpt lat="44.0355499" lon="12.3981405"><ele>54.99999999999999</ele><time>2026-04-29T09:49:24.451Z</time></trkpt><trkpt lat="44.035612" lon="12.3981027"><ele>55.0</ele><time>2026-04-29T09:49:27.451Z</time></trkpt><trkpt lat="44.035669" lon="12.3981705"><ele>55.0</ele><time>2026-04-29T09:49:29.451Z</time></trkpt><trkpt lat="44.0357083" lon="12.3982636"><ele>55.0</ele><time>2026-04-29T09:49:30.452Z</time></trkpt><trkpt lat="44.035747" lon="12.3983629"><ele>54.99999999999999</ele><time>2026-04-29T09:49:31.451Z</time></trkpt><trkpt lat="44.0357886" lon="12.3984665"><ele>55.0</ele><time>2026-04-29T09:49:32.451Z</time></trkpt><trkpt lat="44.0358293" lon="12.3985593"><ele>54.666666666666664</ele><time>2026-04-29T09:49:33.451Z</time></trkpt><trkpt lat="44.0358704" lon="12.3986517"><ele>54.33333333333333</ele><time>2026-04-29T09:49:34.451Z</time></trkpt><trkpt lat="44.035913" lon="12.3987397"><ele>54.0</ele><time>2026-04-29T09:49:35.451Z</time></trkpt><trkpt lat="44.0359748" lon="12.39887"><ele>53.66666666666667</ele><time>2026-04-29T09:49:37.451Z</time></trkpt><trkpt lat="44.0360124" lon="12.3989446"><ele>53.333333333333336</ele><time>2026-04-29T09:49:39.451Z</time></trkpt><trkpt lat="44.0361127" lon="12.3989267"><ele>53.0</ele><time>2026-04-29T09:49:42.451Z</time></trkpt><trkpt lat="44.0362062" lon="12.3987915"><ele>53.00000000000001</ele><time>2026-04-29T09:49:44.451Z</time></trkpt><trkpt lat="44.0362643" lon="12.3987187"><ele>53.0</ele><time>2026-04-29T09:49:45.451Z</time></trkpt><trkpt lat="44.0363142" lon="12.3986543"><ele>53.0</ele><time>2026-04-29T09:49:46.451Z</time></trkpt><trkpt lat="44.0363635" lon="12.3985939"><ele>53.0</ele><time>2026-04-29T09:49:47.451Z</time></trkpt><trkpt lat="44.0364115" lon="12.3985305"><ele>53.00000000000001</ele><time>2026-04-29T09:49:48.451Z</time></trkpt><trkpt lat="44.0364944" lon="12.3984164"><ele>53.0</ele><time>2026-04-29T09:49:50.451Z</time></trkpt><trkpt lat="44.0365804" lon="12.3982942"><ele>53.0</ele><time>2026-04-29T09:49:52.451Z</time></trkpt><trkpt lat="44.0366212" lon="12.3982263"><ele>53.0</ele><time>2026-04-29T09:49:53.451Z</time></trkpt><trkpt lat="44.0366651" lon="12.3981567"><ele>53.0</ele><time>2026-04-29T09:49:54.451Z</time></trkpt><trkpt lat="44.0367167" lon="12.3980869"><ele>53.0</ele><time>2026-04-29T09:49:55.451Z</time></trkpt><trkpt lat="44.0367725" lon="12.3980154"><ele>53.0</ele><time>2026-04-29T09:49:56.451Z</time></trkpt><trkpt lat="44.0368323" lon="12.3979471"><ele>53.0</ele><time>2026-04-29T09:49:57.451Z</time></trkpt><trkpt lat="44.0368864" lon="12.3978825"><ele>53.0</ele><time>2026-04-29T09:49:58.451Z</time></trkpt><trkpt lat="44.0369377" lon="12.3978161"><ele>53.333333333333336</ele><time>2026-04-29T09:49:59.451Z</time></trkpt><trkpt lat="44.0369907" lon="12.3977471"><ele>53.66666666666667</ele><time>2026-04-29T09:50:00.451Z</time></trkpt><trkpt lat="44.0370487" lon="12.3976733"><ele>54.0</ele><time>2026-04-29T09:50:01.451Z</time></trkpt><trkpt lat="44.037108" lon="12.3975949"><ele>54.33333333333333</ele><time>2026-04-29T09:50:02.451Z</time></trkpt><trkpt lat="44.0371625" lon="12.397524"><ele>54.666666666666664</ele><time>2026-04-29T09:50:03.452Z</time></trkpt><trkpt lat="44.0372482" lon="12.3974084"><ele>55.0</ele><time>2026-04-29T09:50:05.451Z</time></trkpt><trkpt lat="44.037336" lon="12.3973078"><ele>54.99999999999999</ele><time>2026-04-29T09:50:07.451Z</time></trkpt><trkpt lat="44.0373959" lon="12.3972222"><ele>55.0</ele><time>2026-04-29T09:50:09.451Z</time></trkpt><trkpt lat="44.0374312" lon="12.3971153"><ele>55.0</ele><time>2026-04-29T09:50:12.451Z</time></trkpt><trkpt lat="44.037385" lon="12.3970102"><ele>55.0</ele><time>2026-04-29T09:50:14.451Z</time></trkpt><trkpt lat="44.0373135" lon="12.3969015"><ele>54.99999999999999</ele><time>2026-04-29T09:50:16.451Z</time></trkpt><trkpt lat="44.037261" lon="12.3968419"><ele>55.0</ele><time>2026-04-29T09:50:17.451Z</time></trkpt><trkpt lat="44.0372108" lon="12.3967803"><ele>54.99999999999999</ele><time>2026-04-29T09:50:18.451Z</time></trkpt><trkpt lat="44.0371259" lon="12.396676"><ele>55.0</ele><time>2026-04-29T09:50:20.451Z</time></trkpt><trkpt lat="44.0370586" lon="12.3965944"><ele>55.0</ele><time>2026-04-29T09:50:22.451Z</time></trkpt><trkpt lat="44.0370057" lon="12.3965288"><ele>55.0</ele><time>2026-04-29T09:50:24.451Z</time></trkpt><trkpt lat="44.0369847" lon="12.3964168"><ele>54.99999999999999</ele><time>2026-04-29T09:50:27.452Z</time></trkpt><trkpt lat="44.0370381" lon="12.3963202"><ele>55.0</ele><time>2026-04-29T09:50:29.451Z</time></trkpt><trkpt lat="44.0371005" lon="12.3962437"><ele>54.99999999999999</ele><time>2026-04-29T09:50:30.451Z</time></trkpt><trkpt lat="44.0371714" lon="12.3961588"><ele>55.0</ele><time>2026-04-29T09:50:31.451Z</time></trkpt><trkpt lat="44.037239" lon="12.3960777"><ele>55.0</ele><time>2026-04-29T09:50:32.451Z</time></trkpt><trkpt lat="44.0373064" lon="12.395997"><ele>55.0</ele><time>2026-04-29T09:50:33.452Z</time></trkpt><trkpt lat="44.0373698" lon="12.3959199"><ele>54.99999999999999</ele><time>2026-04-29T09:50:34.451Z</time></trkpt><trkpt lat="44.0374312" lon="12.3958464"><ele>55.0</ele><time>2026-04-29T09:50:35.452Z</time></trkpt><trkpt lat="44.0374876" lon="12.3957779"><ele>55.49999999999999</ele><time>2026-04-29T09:50:36.451Z</time></trkpt><trkpt lat="44.0375386" lon="12.3957217"><ele>56.0</ele><time>2026-04-29T09:50:37.451Z</time></trkpt><trkpt lat="44.0376219" lon="12.3956176"><ele>56.5</ele><time>2026-04-29T09:50:39.451Z</time></trkpt><trkpt lat="44.037701" lon="12.3955262"><ele>57.0</ele><time>2026-04-29T09:50:41.451Z</time></trkpt><trkpt lat="44.0377487" lon="12.3954596"><ele>57.49999999999999</ele><time>2026-04-29T09:50:43.451Z</time></trkpt><trkpt lat="44.0377664" lon="12.3953556"><ele>58.0</ele><time>2026-04-29T09:50:47.452Z</time></trkpt><trkpt lat="44.0376914" lon="12.3952294"><ele>57.99999999999999</ele><time>2026-04-29T09:50:49.451Z</time></trkpt><trkpt lat="44.0376435" lon="12.3951541"><ele>58.0</ele><time>2026-04-29T09:50:50.451Z</time></trkpt><trkpt lat="44.0375885" lon="12.3950708"><ele>58.0</ele><time>2026-04-29T09:50:51.451Z</time></trkpt><trkpt lat="44.0375356" lon="12.3949831"><ele>58.0</ele><time>2026-04-29T09:50:52.451Z</time></trkpt><trkpt lat="44.037481" lon="12.3948853"><ele>57.99999999999999</ele><time>2026-04-29T09:50:53.451Z</time></trkpt><trkpt lat="44.0374249" lon="12.3947783"><ele>58.0</ele><time>2026-04-29T09:50:54.451Z</time></trkpt><trkpt lat="44.0373634" lon="12.3946563"><ele>58.599999999999994</ele><time>2026-04-29T09:50:55.451Z</time></trkpt><trkpt lat="44.0373" lon="12.3945357"><ele>59.199999999999996</ele><time>2026-04-29T09:50:56.451Z</time></trkpt><trkpt lat="44.0372375" lon="12.3944154"><ele>59.8</ele><time>2026-04-29T09:50:57.451Z</time></trkpt><trkpt lat="44.0371732" lon="12.3942881"><ele>60.4</ele><time>2026-04-29T09:50:58.451Z</time></trkpt><trkpt lat="44.0371027" lon="12.3941591"><ele>61.0</ele><time>2026-04-29T09:50:59.451Z</time></trkpt><trkpt lat="44.0370282" lon="12.3940223"><ele>61.0</ele><time>2026-04-29T09:51:00.451Z</time></trkpt><trkpt lat="44.0369544" lon="12.3938852"><ele>61.0</ele><time>2026-04-29T09:51:01.451Z</time></trkpt><trkpt lat="44.0368805" lon="12.3937539"><ele>61.0</ele><time>2026-04-29T09:51:02.451Z</time></trkpt><trkpt lat="44.0368102" lon="12.3936269"><ele>61.0</ele><time>2026-04-29T09:51:03.451Z</time></trkpt><trkpt lat="44.0367433" lon="12.3935029"><ele>61.0</ele><time>2026-04-29T09:51:04.451Z</time></trkpt><trkpt lat="44.0366762" lon="12.3933721"><ele>61.0</ele><time>2026-04-29T09:51:05.451Z</time></trkpt><trkpt lat="44.0366057" lon="12.3932349"><ele>61.0</ele><time>2026-04-29T09:51:06.451Z</time></trkpt><trkpt lat="44.0365358" lon="12.3930945"><ele>61.0</ele><time>2026-04-29T09:51:07.451Z</time></trkpt><trkpt lat="44.0364607" lon="12.3929589"><ele>61.75</ele><time>2026-04-29T09:51:08.451Z</time></trkpt><trkpt lat="44.0363859" lon="12.3928281"><ele>62.5</ele><time>2026-04-29T09:51:09.452Z</time></trkpt><trkpt lat="44.036317" lon="12.3926929"><ele>63.25</ele><time>2026-04-29T09:51:10.451Z</time></trkpt><trkpt lat="44.0362475" lon="12.3925593"><ele>64.0</ele><time>2026-04-29T09:51:11.451Z</time></trkpt><trkpt lat="44.0361804" lon="12.3924335"><ele>64.0</ele><time>2026-04-29T09:51:12.451Z</time></trkpt><trkpt lat="44.0361111" lon="12.392304"><ele>64.0</ele><time>2026-04-29T09:51:13.451Z</time></trkpt><trkpt lat="44.0360342" lon="12.3921684"><ele>64.0</ele><time>2026-04-29T09:51:14.451Z</time></trkpt><trkpt lat="44.0359581" lon="12.392034"><ele>64.0</ele><time>2026-04-29T09:51:15.451Z</time></trkpt><trkpt lat="44.0358787" lon="12.3918948"><ele>64.0</ele><time>2026-04-29T09:51:16.451Z</time></trkpt><trkpt lat="44.0357993" lon="12.3917494"><ele>64.0</ele><time>2026-04-29T09:51:17.452Z</time></trkpt><trkpt lat="44.0357213" lon="12.3916022"><ele>64.0</ele><time>2026-04-29T09:51:18.451Z</time></trkpt><trkpt lat="44.0356395" lon="12.3914504"><ele>64.0</ele><time>2026-04-29T09:51:19.451Z</time></trkpt><trkpt lat="44.0355584" lon="12.3912962"><ele>65.0</ele><time>2026-04-29T09:51:20.451Z</time></trkpt><trkpt lat="44.035476" lon="12.3911405"><ele>66.0</ele><time>2026-04-29T09:51:21.451Z</time></trkpt><trkpt lat="44.0353967" lon="12.3909885"><ele>67.0</ele><time>2026-04-29T09:51:22.452Z</time></trkpt><trkpt lat="44.0353146" lon="12.3908372"><ele>68.0</ele><time>2026-04-29T09:51:23.451Z</time></trkpt><trkpt lat="44.0352313" lon="12.3906915"><ele>68.0</ele><time>2026-04-29T09:51:24.451Z</time></trkpt><trkpt lat="44.0351519" lon="12.3905435"><ele>68.0</ele><time>2026-04-29T09:51:25.451Z</time></trkpt><trkpt lat="44.035073" lon="12.3903925"><ele>68.0</ele><time>2026-04-29T09:51:26.451Z</time></trkpt><trkpt lat="44.0349925" lon="12.390243"><ele>68.0</ele><time>2026-04-29T09:51:27.451Z</time></trkpt><trkpt lat="44.0349093" lon="12.3900925"><ele>68.0</ele><time>2026-04-29T09:51:28.451Z</time></trkpt><trkpt lat="44.03483" lon="12.3899397"><ele>68.0</ele><time>2026-04-29T09:51:29.452Z</time></trkpt><trkpt lat="44.0347506" lon="12.389785"><ele>68.0</ele><time>2026-04-29T09:51:30.451Z</time></trkpt><trkpt lat="44.0346761" lon="12.3896205"><ele>68.0</ele><time>2026-04-29T09:51:31.451Z</time></trkpt><trkpt lat="44.034605" lon="12.389462"><ele>68.25</ele><time>2026-04-29T09:51:32.451Z</time></trkpt><trkpt lat="44.034533" lon="12.3893125"><ele>68.5</ele><time>2026-04-29T09:51:33.451Z</time></trkpt><trkpt lat="44.0344623" lon="12.3891659"><ele>68.75</ele><time>2026-04-29T09:51:34.451Z</time></trkpt><trkpt lat="44.0343963" lon="12.3890281"><ele>69.0</ele><time>2026-04-29T09:51:35.451Z</time></trkpt><trkpt lat="44.0343185" lon="12.3889107"><ele>69.75</ele><time>2026-04-29T09:51:36.451Z</time></trkpt><trkpt lat="44.0342273" lon="12.3888122"><ele>70.5</ele><time>2026-04-29T09:51:37.451Z</time></trkpt><trkpt lat="44.0341258" lon="12.3887329"><ele>71.25</ele><time>2026-04-29T09:51:38.451Z</time></trkpt><trkpt lat="44.0340137" lon="12.3886919"><ele>72.0</ele><time>2026-04-29T09:51:39.451Z</time></trkpt><trkpt lat="44.0338851" lon="12.3886592"><ele>72.25</ele><time>2026-04-29T09:51:40.451Z</time></trkpt><trkpt lat="44.0337528" lon="12.3886287"><ele>72.5</ele><time>2026-04-29T09:51:41.452Z</time></trkpt><trkpt lat="44.0336139" lon="12.3885876"><ele>72.75</ele><time>2026-04-29T09:51:42.452Z</time></trkpt><trkpt lat="44.0334752" lon="12.3885403"><ele>73.0</ele><time>2026-04-29T09:51:43.452Z</time></trkpt><trkpt lat="44.033337" lon="12.3884871"><ele>72.25</ele><time>2026-04-29T09:51:44.451Z</time></trkpt><trkpt lat="44.0332026" lon="12.3884346"><ele>71.5</ele><time>2026-04-29T09:51:45.451Z</time></trkpt><trkpt lat="44.0330704" lon="12.388377"><ele>70.75</ele><time>2026-04-29T09:51:46.451Z</time></trkpt><trkpt lat="44.032936" lon="12.3883302"><ele>70.0</ele><time>2026-04-29T09:51:47.451Z</time></trkpt><trkpt lat="44.0327968" lon="12.3882939"><ele>70.0</ele><time>2026-04-29T09:51:48.451Z</time></trkpt><trkpt lat="44.0326565" lon="12.3882673"><ele>70.0</ele><time>2026-04-29T09:51:49.451Z</time></trkpt><trkpt lat="44.03252" lon="12.3882463"><ele>70.0</ele><time>2026-04-29T09:51:50.451Z</time></trkpt><trkpt lat="44.0323869" lon="12.3882288"><ele>70.0</ele><time>2026-04-29T09:51:51.451Z</time></trkpt><trkpt lat="44.0322664" lon="12.3881969"><ele>70.2</ele><time>2026-04-29T09:51:52.451Z</time></trkpt><trkpt lat="44.0321578" lon="12.388159"><ele>70.4</ele><time>2026-04-29T09:51:53.451Z</time></trkpt><trkpt lat="44.0320639" lon="12.3881156"><ele>70.6</ele><time>2026-04-29T09:51:54.451Z</time></trkpt><trkpt lat="44.0319708" lon="12.3880698"><ele>70.8</ele><time>2026-04-29T09:51:55.452Z</time></trkpt><trkpt lat="44.0318706" lon="12.3880097"><ele>71.0</ele><time>2026-04-29T09:51:56.451Z</time></trkpt><trkpt lat="44.0317679" lon="12.3879351"><ele>71.0</ele><time>2026-04-29T09:51:57.451Z</time></trkpt><trkpt lat="44.0316557" lon="12.3878631"><ele>71.0</ele><time>2026-04-29T09:51:58.451Z</time></trkpt><trkpt lat="44.0315305" lon="12.3878065"><ele>71.0</ele><time>2026-04-29T09:51:59.451Z</time></trkpt><trkpt lat="44.0313953" lon="12.3877578"><ele>71.0</ele><time>2026-04-29T09:52:00.451Z</time></trkpt><trkpt lat="44.0312582" lon="12.3877213"><ele>70.75</ele><time>2026-04-29T09:52:01.452Z</time></trkpt><trkpt lat="44.0311157" lon="12.3876919"><ele>70.5</ele><time>2026-04-29T09:52:02.451Z</time></trkpt><trkpt lat="44.0309746" lon="12.387666"><ele>70.25</ele><time>2026-04-29T09:52:03.451Z</time></trkpt><trkpt lat="44.0308352" lon="12.3876492"><ele>70.0</ele><time>2026-04-29T09:52:04.451Z</time></trkpt><trkpt lat="44.0306979" lon="12.3876279"><ele>70.5</ele><time>2026-04-29T09:52:05.451Z</time></trkpt><trkpt lat="44.0305617" lon="12.3876143"><ele>71.0</ele><time>2026-04-29T09:52:06.451Z</time></trkpt><trkpt lat="44.0304263" lon="12.3876008"><ele>71.5</ele><time>2026-04-29T09:52:07.451Z</time></trkpt><trkpt lat="44.030291" lon="12.3875841"><ele>72.0</ele><time>2026-04-29T09:52:08.451Z</time></trkpt><trkpt lat="44.0301566" lon="12.3875571"><ele>72.0</ele><time>2026-04-29T09:52:09.451Z</time></trkpt><trkpt lat="44.0300283" lon="12.3875156"><ele>72.0</ele><time>2026-04-29T09:52:10.451Z</time></trkpt><trkpt lat="44.0299045" lon="12.3874559"><ele>72.0</ele><time>2026-04-29T09:52:11.452Z</time></trkpt><trkpt lat="44.0297888" lon="12.3873803"><ele>72.0</ele><time>2026-04-29T09:52:12.451Z</time></trkpt><trkpt lat="44.0296816" lon="12.3872762"><ele>72.5</ele><time>2026-04-29T09:52:13.452Z</time></trkpt><trkpt lat="44.0295725" lon="12.3871798"><ele>73.0</ele><time>2026-04-29T09:52:14.451Z</time></trkpt><trkpt lat="44.029458" lon="12.387106"><ele>73.5</ele><time>2026-04-29T09:52:15.451Z</time></trkpt><trkpt lat="44.0293386" lon="12.3870655"><ele>74.0</ele><time>2026-04-29T09:52:16.451Z</time></trkpt><trkpt lat="44.0292091" lon="12.3870512"><ele>74.25</ele><time>2026-04-29T09:52:17.451Z</time></trkpt><trkpt lat="44.0290807" lon="12.3870738"><ele>74.5</ele><time>2026-04-29T09:52:18.451Z</time></trkpt><trkpt lat="44.0289604" lon="12.3871099"><ele>74.75</ele><time>2026-04-29T09:52:19.451Z</time></trkpt><trkpt lat="44.0288452" lon="12.3871603"><ele>75.0</ele><time>2026-04-29T09:52:20.451Z</time></trkpt><trkpt lat="44.0287311" lon="12.387192"><ele>75.0</ele><time>2026-04-29T09:52:21.451Z</time></trkpt><trkpt lat="44.0286175" lon="12.3871933"><ele>75.0</ele><time>2026-04-29T09:52:22.451Z</time></trkpt><trkpt lat="44.0285085" lon="12.3871613"><ele>75.0</ele><time>2026-04-29T09:52:23.451Z</time></trkpt><trkpt lat="44.0283993" lon="12.3870871"><ele>75.0</ele><time>2026-04-29T09:52:24.451Z</time></trkpt><trkpt lat="44.0282978" lon="12.3869925"><ele>75.0</ele><time>2026-04-29T09:52:25.451Z</time></trkpt><trkpt lat="44.0282012" lon="12.386883"><ele>75.0</ele><time>2026-04-29T09:52:26.452Z</time></trkpt><trkpt lat="44.0281034" lon="12.3867737"><ele>75.0</ele><time>2026-04-29T09:52:27.451Z</time></trkpt><trkpt lat="44.0280009" lon="12.386668"><ele>75.0</ele><time>2026-04-29T09:52:28.451Z</time></trkpt><trkpt lat="44.0278954" lon="12.386553"><ele>75.0</ele><time>2026-04-29T09:52:29.451Z</time></trkpt><trkpt lat="44.0277879" lon="12.3864405"><ele>75.0</ele><time>2026-04-29T09:52:30.451Z</time></trkpt><trkpt lat="44.0276835" lon="12.3863281"><ele>75.0</ele><time>2026-04-29T09:52:31.451Z</time></trkpt><trkpt lat="44.0275801" lon="12.3862162"><ele>75.0</ele><time>2026-04-29T09:52:32.451Z</time></trkpt><trkpt lat="44.0274774" lon="12.3861096"><ele>75.5</ele><time>2026-04-29T09:52:33.451Z</time></trkpt><trkpt lat="44.0273808" lon="12.3860068"><ele>76.0</ele><time>2026-04-29T09:52:34.451Z</time></trkpt><trkpt lat="44.0272892" lon="12.3859088"><ele>76.5</ele><time>2026-04-29T09:52:35.451Z</time></trkpt><trkpt lat="44.027198" lon="12.3858139"><ele>77.0</ele><time>2026-04-29T09:52:36.451Z</time></trkpt><trkpt lat="44.0271073" lon="12.3857223"><ele>77.0</ele><time>2026-04-29T09:52:37.451Z</time></trkpt><trkpt lat="44.0270164" lon="12.3856279"><ele>77.0</ele><time>2026-04-29T09:52:38.451Z</time></trkpt><trkpt lat="44.0269305" lon="12.3855379"><ele>77.0</ele><time>2026-04-29T09:52:39.452Z</time></trkpt><trkpt lat="44.0268434" lon="12.3854491"><ele>77.0</ele><time>2026-04-29T09:52:40.451Z</time></trkpt><trkpt lat="44.026757" lon="12.3853588"><ele>77.0</ele><time>2026-04-29T09:52:41.451Z</time></trkpt><trkpt lat="44.0266686" lon="12.3852622"><ele>75.75</ele><time>2026-04-29T09:52:42.452Z</time></trkpt><trkpt lat="44.0265744" lon="12.3851653"><ele>74.5</ele><time>2026-04-29T09:52:43.451Z</time></trkpt><trkpt lat="44.0264764" lon="12.3850744"><ele>73.25</ele><time>2026-04-29T09:52:44.451Z</time></trkpt><trkpt lat="44.0263748" lon="12.3849788"><ele>72.0</ele><time>2026-04-29T09:52:45.451Z</time></trkpt><trkpt lat="44.0262736" lon="12.3848745"><ele>72.0</ele><time>2026-04-29T09:52:46.451Z</time></trkpt><trkpt lat="44.026179" lon="12.3847682"><ele>72.0</ele><time>2026-04-29T09:52:47.451Z</time></trkpt><trkpt lat="44.0260858" lon="12.3846616"><ele>72.0</ele><time>2026-04-29T09:52:48.451Z</time></trkpt><trkpt lat="44.0260011" lon="12.3845433"><ele>72.0</ele><time>2026-04-29T09:52:49.451Z</time></trkpt><trkpt lat="44.0259245" lon="12.3844074"><ele>71.75</ele><time>2026-04-29T09:52:50.451Z</time></trkpt><trkpt lat="44.025861" lon="12.3842634"><ele>71.5</ele><time>2026-04-29T09:52:51.451Z</time></trkpt><trkpt lat="44.0257937" lon="12.3841207"><ele>71.25</ele><time>2026-04-29T09:52:52.451Z</time></trkpt><trkpt lat="44.0257178" lon="12.3839894"><ele>71.0</ele><time>2026-04-29T09:52:53.451Z</time></trkpt><trkpt lat="44.0256284" lon="12.3838708"><ele>71.75</ele><time>2026-04-29T09:52:54.451Z</time></trkpt><trkpt lat="44.0255286" lon="12.3837669"><ele>72.5</ele><time>2026-04-29T09:52:55.451Z</time></trkpt><trkpt lat="44.0254175" lon="12.3836698"><ele>73.25</ele><time>2026-04-29T09:52:56.451Z</time></trkpt><trkpt lat="44.0252928" lon="12.3835825"><ele>74.0</ele><time>2026-04-29T09:52:57.452Z</time></trkpt><trkpt lat="44.0251642" lon="12.3835024"><ele>74.0</ele><time>2026-04-29T09:52:58.451Z</time></trkpt><trkpt lat="44.0250447" lon="12.3834141"><ele>74.0</ele><time>2026-04-29T09:52:59.451Z</time></trkpt><trkpt lat="44.0249294" lon="12.3833281"><ele>74.0</ele><time>2026-04-29T09:53:00.451Z</time></trkpt><trkpt lat="44.0248225" lon="12.3832285"><ele>74.0</ele><time>2026-04-29T09:53:01.452Z</time></trkpt><trkpt lat="44.0247185" lon="12.3831167"><ele>74.0</ele><time>2026-04-29T09:53:02.451Z</time></trkpt><trkpt lat="44.0246229" lon="12.3829988"><ele>74.0</ele><time>2026-04-29T09:53:03.452Z</time></trkpt><trkpt lat="44.0245346" lon="12.382871"><ele>74.0</ele><time>2026-04-29T09:53:04.451Z</time></trkpt><trkpt lat="44.0244445" lon="12.3827482"><ele>74.0</ele><time>2026-04-29T09:53:05.451Z</time></trkpt><trkpt lat="44.0243536" lon="12.3826373"><ele>74.0</ele><time>2026-04-29T09:53:06.451Z</time></trkpt><trkpt lat="44.0242541" lon="12.3825425"><ele>74.0</ele><time>2026-04-29T09:53:07.451Z</time></trkpt><trkpt lat="44.0241502" lon="12.3824604"><ele>74.0</ele><time>2026-04-29T09:53:08.451Z</time></trkpt><trkpt lat="44.0240356" lon="12.3824069"><ele>74.0</ele><time>2026-04-29T09:53:09.451Z</time></trkpt><trkpt lat="44.023913" lon="12.3823708"><ele>74.0</ele><time>2026-04-29T09:53:10.451Z</time></trkpt><trkpt lat="44.0237854" lon="12.382352"><ele>74.0</ele><time>2026-04-29T09:53:11.451Z</time></trkpt><trkpt lat="44.02366" lon="12.382345"><ele>74.0</ele><time>2026-04-29T09:53:12.451Z</time></trkpt><trkpt lat="44.0235344" lon="12.3823449"><ele>74.0</ele><time>2026-04-29T09:53:13.451Z</time></trkpt><trkpt lat="44.0234095" lon="12.3823768"><ele>77.25</ele><time>2026-04-29T09:53:14.451Z</time></trkpt><trkpt lat="44.0232864" lon="12.3824408"><ele>80.5</ele><time>2026-04-29T09:53:15.452Z</time></trkpt><trkpt lat="44.0231777" lon="12.3825241"><ele>83.75</ele><time>2026-04-29T09:53:16.451Z</time></trkpt><trkpt lat="44.023085" lon="12.3826207"><ele>87.0</ele><time>2026-04-29T09:53:17.451Z</time></trkpt><trkpt lat="44.0230047" lon="12.3827016"><ele>87.0</ele><time>2026-04-29T09:53:18.451Z</time></trkpt><trkpt lat="44.0229351" lon="12.3827468"><ele>87.0</ele><time>2026-04-29T09:53:19.451Z</time></trkpt><trkpt lat="44.0228736" lon="12.3827708"><ele>87.0</ele><time>2026-04-29T09:53:20.452Z</time></trkpt><trkpt lat="44.0228024" lon="12.3827725"><ele>87.0</ele><time>2026-04-29T09:53:21.451Z</time></trkpt><trkpt lat="44.0227277" lon="12.3827736"><ele>87.0</ele><time>2026-04-29T09:53:22.451Z</time></trkpt><trkpt lat="44.0226516" lon="12.3827952"><ele>87.0</ele><time>2026-04-29T09:53:23.451Z</time></trkpt><trkpt lat="44.0225858" lon="12.3828607"><ele>87.0</ele><time>2026-04-29T09:53:24.451Z</time></trkpt><trkpt lat="44.0225244" lon="12.3829471"><ele>86.8</ele><time>2026-04-29T09:53:25.451Z</time></trkpt><trkpt lat="44.0224574" lon="12.383034"><ele>86.6</ele><time>2026-04-29T09:53:26.451Z</time></trkpt><trkpt lat="44.0223702" lon="12.3831044"><ele>86.39999999999999</ele><time>2026-04-29T09:53:27.451Z</time></trkpt><trkpt lat="44.0222686" lon="12.3831512"><ele>86.19999999999999</ele><time>2026-04-29T09:53:28.451Z</time></trkpt><trkpt lat="44.0221564" lon="12.3831859"><ele>86.0</ele><time>2026-04-29T09:53:29.451Z</time></trkpt><trkpt lat="44.022044" lon="12.3832188"><ele>86.0</ele><time>2026-04-29T09:53:30.451Z</time></trkpt><trkpt lat="44.0219311" lon="12.3832516"><ele>86.0</ele><time>2026-04-29T09:53:31.451Z</time></trkpt><trkpt lat="44.0218117" lon="12.3832886"><ele>86.0</ele><time>2026-04-29T09:53:32.451Z</time></trkpt><trkpt lat="44.0216896" lon="12.38333"><ele>86.0</ele><time>2026-04-29T09:53:33.451Z</time></trkpt><trkpt lat="44.0215682" lon="12.3833712"><ele>86.5</ele><time>2026-04-29T09:53:34.451Z</time></trkpt><trkpt lat="44.0214494" lon="12.3834092"><ele>87.0</ele><time>2026-04-29T09:53:35.452Z</time></trkpt><trkpt lat="44.0213338" lon="12.3834411"><ele>87.5</ele><time>2026-04-29T09:53:36.451Z</time></trkpt><trkpt lat="44.0212226" lon="12.38346"><ele>88.0</ele><time>2026-04-29T09:53:37.451Z</time></trkpt><trkpt lat="44.0211186" lon="12.3834745"><ele>88.0</ele><time>2026-04-29T09:53:38.451Z</time></trkpt><trkpt lat="44.021013" lon="12.3834752"><ele>88.0</ele><time>2026-04-29T09:53:39.451Z</time></trkpt><trkpt lat="44.0208983" lon="12.3834755"><ele>88.0</ele><time>2026-04-29T09:53:40.451Z</time></trkpt><trkpt lat="44.0207834" lon="12.3834579"><ele>88.0</ele><time>2026-04-29T09:53:41.451Z</time></trkpt><trkpt lat="44.0206674" lon="12.383416"><ele>86.75</ele><time>2026-04-29T09:53:42.452Z</time></trkpt><trkpt lat="44.0205529" lon="12.3833463"><ele>85.5</ele><time>2026-04-29T09:53:43.451Z</time></trkpt><trkpt lat="44.0204351" lon="12.3832802"><ele>84.25</ele><time>2026-04-29T09:53:44.451Z</time></trkpt><trkpt lat="44.0203237" lon="12.3832345"><ele>83.0</ele><time>2026-04-29T09:53:45.451Z</time></trkpt><trkpt lat="44.0202046" lon="12.3832158"><ele>83.0</ele><time>2026-04-29T09:53:46.451Z</time></trkpt><trkpt lat="44.0200769" lon="12.3832175"><ele>83.0</ele><time>2026-04-29T09:53:47.451Z</time></trkpt><trkpt lat="44.019944" lon="12.3832436"><ele>83.0</ele><time>2026-04-29T09:53:48.451Z</time></trkpt><trkpt lat="44.0198081" lon="12.3832941"><ele>83.0</ele><time>2026-04-29T09:53:49.451Z</time></trkpt><trkpt lat="44.0196692" lon="12.3833576"><ele>83.0</ele><time>2026-04-29T09:53:50.451Z</time></trkpt><trkpt lat="44.0195312" lon="12.3834297"><ele>83.0</ele><time>2026-04-29T09:53:51.451Z</time></trkpt><trkpt lat="44.0193906" lon="12.3834977"><ele>83.0</ele><time>2026-04-29T09:53:52.45Z</time></trkpt><trkpt lat="44.0192464" lon="12.3835688"><ele>83.0</ele><time>2026-04-29T09:53:53.45Z</time></trkpt><trkpt lat="44.0191066" lon="12.3836376"><ele>81.75</ele><time>2026-04-29T09:53:54.45Z</time></trkpt><trkpt lat="44.0189655" lon="12.3837022"><ele>80.5</ele><time>2026-04-29T09:53:55.45Z</time></trkpt><trkpt lat="44.0188295" lon="12.3837744"><ele>79.25</ele><time>2026-04-29T09:53:56.45Z</time></trkpt><trkpt lat="44.0186883" lon="12.383844"><ele>78.0</ele><time>2026-04-29T09:53:57.45Z</time></trkpt><trkpt lat="44.0185418" lon="12.3839122"><ele>78.0</ele><time>2026-04-29T09:53:58.45Z</time></trkpt><trkpt lat="44.0183985" lon="12.383986"><ele>78.0</ele><time>2026-04-29T09:53:59.45Z</time></trkpt><trkpt lat="44.018255" lon="12.384054"><ele>78.0</ele><time>2026-04-29T09:54:00.45Z</time></trkpt><trkpt lat="44.0181062" lon="12.3841201"><ele>79.33333333333333</ele><time>2026-04-29T09:54:01.45Z</time></trkpt><trkpt lat="44.0179586" lon="12.3841779"><ele>80.66666666666666</ele><time>2026-04-29T09:54:02.45Z</time></trkpt><trkpt lat="44.0178095" lon="12.3842442"><ele>82.0</ele><time>2026-04-29T09:54:03.45Z</time></trkpt><trkpt lat="44.0176606" lon="12.3843147"><ele>82.0</ele><time>2026-04-29T09:54:04.45Z</time></trkpt><trkpt lat="44.0175174" lon="12.3843782"><ele>82.0</ele><time>2026-04-29T09:54:05.45Z</time></trkpt><trkpt lat="44.0173749" lon="12.3844414"><ele>82.0</ele><time>2026-04-29T09:54:06.45Z</time></trkpt><trkpt lat="44.0172388" lon="12.3844985"><ele>82.0</ele><time>2026-04-29T09:54:07.451Z</time></trkpt><trkpt lat="44.0171039" lon="12.3845381"><ele>82.0</ele><time>2026-04-29T09:54:08.451Z</time></trkpt><trkpt lat="44.0169715" lon="12.3845628"><ele>82.0</ele><time>2026-04-29T09:54:09.45Z</time></trkpt><trkpt lat="44.0168344" lon="12.3845738"><ele>82.0</ele><time>2026-04-29T09:54:10.45Z</time></trkpt><trkpt lat="44.0166967" lon="12.3845661"><ele>82.0</ele><time>2026-04-29T09:54:11.45Z</time></trkpt><trkpt lat="44.0165556" lon="12.3845439"><ele>82.75</ele><time>2026-04-29T09:54:12.45Z</time></trkpt><trkpt lat="44.0164173" lon="12.3845055"><ele>83.5</ele><time>2026-04-29T09:54:13.45Z</time></trkpt><trkpt lat="44.0162786" lon="12.3844495"><ele>84.25</ele><time>2026-04-29T09:54:14.45Z</time></trkpt><trkpt lat="44.0161436" lon="12.3843985"><ele>85.0</ele><time>2026-04-29T09:54:15.45Z</time></trkpt><trkpt lat="44.0160079" lon="12.3843453"><ele>85.0</ele><time>2026-04-29T09:54:16.45Z</time></trkpt><trkpt lat="44.0158703" lon="12.3842925"><ele>85.0</ele><time>2026-04-29T09:54:17.45Z</time></trkpt><trkpt lat="44.0157345" lon="12.384238"><ele>85.0</ele><time>2026-04-29T09:54:18.45Z</time></trkpt><trkpt lat="44.0156032" lon="12.3841749"><ele>85.0</ele><time>2026-04-29T09:54:19.45Z</time></trkpt><trkpt lat="44.0154741" lon="12.3841029"><ele>85.0</ele><time>2026-04-29T09:54:20.45Z</time></trkpt><trkpt lat="44.0153507" lon="12.3840151"><ele>85.0</ele><time>2026-04-29T09:54:21.45Z</time></trkpt><trkpt lat="44.0152339" lon="12.3839183"><ele>85.0</ele><time>2026-04-29T09:54:22.45Z</time></trkpt><trkpt lat="44.0151344" lon="12.3837972"><ele>85.0</ele><time>2026-04-29T09:54:23.45Z</time></trkpt><trkpt lat="44.0150431" lon="12.3836706"><ele>83.0</ele><time>2026-04-29T09:54:24.45Z</time></trkpt><trkpt lat="44.0149587" lon="12.3835374"><ele>81.0</ele><time>2026-04-29T09:54:25.45Z</time></trkpt><trkpt lat="44.0148784" lon="12.3834145"><ele>79.0</ele><time>2026-04-29T09:54:26.45Z</time></trkpt><trkpt lat="44.0147971" lon="12.3833011"><ele>77.0</ele><time>2026-04-29T09:54:27.45Z</time></trkpt><trkpt lat="44.0147038" lon="12.3832096"><ele>77.0</ele><time>2026-04-29T09:54:28.45Z</time></trkpt><trkpt lat="44.0146015" lon="12.3831411"><ele>77.0</ele><time>2026-04-29T09:54:29.45Z</time></trkpt><trkpt lat="44.0144847" lon="12.3830953"><ele>77.0</ele><time>2026-04-29T09:54:30.45Z</time></trkpt><trkpt lat="44.014355" lon="12.3830639"><ele>77.0</ele><time>2026-04-29T09:54:31.45Z</time></trkpt><trkpt lat="44.0142231" lon="12.3830441"><ele>77.0</ele><time>2026-04-29T09:54:32.45Z</time></trkpt><trkpt lat="44.0140867" lon="12.3830341"><ele>77.0</ele><time>2026-04-29T09:54:33.451Z</time></trkpt><trkpt lat="44.0139601" lon="12.3830233"><ele>77.0</ele><time>2026-04-29T09:54:34.45Z</time></trkpt><trkpt lat="44.0138363" lon="12.3830182"><ele>77.0</ele><time>2026-04-29T09:54:35.45Z</time></trkpt><trkpt lat="44.0137186" lon="12.3830228"><ele>77.0</ele><time>2026-04-29T09:54:36.45Z</time></trkpt><trkpt lat="44.0136146" lon="12.383041"><ele>77.0</ele><time>2026-04-29T09:54:37.45Z</time></trkpt><trkpt lat="44.0135204" lon="12.3830614"><ele>77.0</ele><time>2026-04-29T09:54:38.45Z</time></trkpt><trkpt lat="44.0134279" lon="12.3830612"><ele>77.0</ele><time>2026-04-29T09:54:39.45Z</time></trkpt><trkpt lat="44.0133348" lon="12.383034"><ele>77.0</ele><time>2026-04-29T09:54:40.45Z</time></trkpt><trkpt lat="44.0132408" lon="12.382985"><ele>78.5</ele><time>2026-04-29T09:54:41.45Z</time></trkpt><trkpt lat="44.0131424" lon="12.3829314"><ele>80.0</ele><time>2026-04-29T09:54:42.45Z</time></trkpt><trkpt lat="44.0130288" lon="12.3828961"><ele>81.5</ele><time>2026-04-29T09:54:43.451Z</time></trkpt><trkpt lat="44.0129009" lon="12.3828782"><ele>83.0</ele><time>2026-04-29T09:54:44.45Z</time></trkpt><trkpt lat="44.012762" lon="12.3828628"><ele>83.0</ele><time>2026-04-29T09:54:45.45Z</time></trkpt><trkpt lat="44.0126093" lon="12.3828435"><ele>83.0</ele><time>2026-04-29T09:54:46.45Z</time></trkpt><trkpt lat="44.0124469" lon="12.3828251"><ele>83.0</ele><time>2026-04-29T09:54:47.45Z</time></trkpt><trkpt lat="44.0122832" lon="12.382803"><ele>82.0</ele><time>2026-04-29T09:54:48.45Z</time></trkpt><trkpt lat="44.0121219" lon="12.3827819"><ele>81.0</ele><time>2026-04-29T09:54:49.45Z</time></trkpt><trkpt lat="44.0119574" lon="12.3827599"><ele>80.0</ele><time>2026-04-29T09:54:50.45Z</time></trkpt><trkpt lat="44.0117907" lon="12.38274"><ele>80.33333333333334</ele><time>2026-04-29T09:54:51.45Z</time></trkpt><trkpt lat="44.0116235" lon="12.3827214"><ele>80.66666666666667</ele><time>2026-04-29T09:54:52.451Z</time></trkpt><trkpt lat="44.011455" lon="12.3826973"><ele>81.0</ele><time>2026-04-29T09:54:53.45Z</time></trkpt><trkpt lat="44.0112833" lon="12.3826717"><ele>81.0</ele><time>2026-04-29T09:54:54.45Z</time></trkpt><trkpt lat="44.0111096" lon="12.3826457"><ele>81.0</ele><time>2026-04-29T09:54:55.45Z</time></trkpt><trkpt lat="44.0109351" lon="12.3826236"><ele>81.0</ele><time>2026-04-29T09:54:56.45Z</time></trkpt><trkpt lat="44.0107609" lon="12.3826014"><ele>81.66666666666667</ele><time>2026-04-29T09:54:57.45Z</time></trkpt><trkpt lat="44.0105899" lon="12.3825785"><ele>82.33333333333334</ele><time>2026-04-29T09:54:58.45Z</time></trkpt><trkpt lat="44.0104194" lon="12.382556"><ele>83.0</ele><time>2026-04-29T09:54:59.45Z</time></trkpt><trkpt lat="44.0102515" lon="12.382533"><ele>83.0</ele><time>2026-04-29T09:55:00.45Z</time></trkpt><trkpt lat="44.0100885" lon="12.3825097"><ele>83.0</ele><time>2026-04-29T09:55:01.45Z</time></trkpt><trkpt lat="44.0099271" lon="12.3824833"><ele>83.0</ele><time>2026-04-29T09:55:02.45Z</time></trkpt><trkpt lat="44.0097681" lon="12.3824454"><ele>83.66666666666667</ele><time>2026-04-29T09:55:03.45Z</time></trkpt><trkpt lat="44.0096154" lon="12.3823944"><ele>84.33333333333333</ele><time>2026-04-29T09:55:04.45Z</time></trkpt><trkpt lat="44.0094646" lon="12.382325"><ele>85.0</ele><time>2026-04-29T09:55:05.45Z</time></trkpt><trkpt lat="44.0093177" lon="12.382223"><ele>85.0</ele><time>2026-04-29T09:55:06.45Z</time></trkpt><trkpt lat="44.0091786" lon="12.3821003"><ele>85.0</ele><time>2026-04-29T09:55:07.45Z</time></trkpt><trkpt lat="44.0090442" lon="12.3819671"><ele>85.0</ele><time>2026-04-29T09:55:08.45Z</time></trkpt><trkpt lat="44.0089122" lon="12.3818283"><ele>85.33333333333333</ele><time>2026-04-29T09:55:09.45Z</time></trkpt><trkpt lat="44.0087789" lon="12.3816906"><ele>85.66666666666667</ele><time>2026-04-29T09:55:10.45Z</time></trkpt><trkpt lat="44.008645" lon="12.3815509"><ele>86.0</ele><time>2026-04-29T09:55:11.45Z</time></trkpt><trkpt lat="44.0085116" lon="12.3814109"><ele>86.0</ele><time>2026-04-29T09:55:12.45Z</time></trkpt><trkpt lat="44.0083774" lon="12.3812722"><ele>86.0</ele><time>2026-04-29T09:55:13.45Z</time></trkpt><trkpt lat="44.0082398" lon="12.3811369"><ele>86.0</ele><time>2026-04-29T09:55:14.45Z</time></trkpt><trkpt lat="44.0081056" lon="12.3810035"><ele>86.0</ele><time>2026-04-29T09:55:15.45Z</time></trkpt><trkpt lat="44.0079726" lon="12.3808685"><ele>86.0</ele><time>2026-04-29T09:55:16.45Z</time></trkpt><trkpt lat="44.0078388" lon="12.3807313"><ele>86.0</ele><time>2026-04-29T09:55:17.451Z</time></trkpt><trkpt lat="44.0077038" lon="12.3805939"><ele>85.66666666666667</ele><time>2026-04-29T09:55:18.45Z</time></trkpt><trkpt lat="44.0075675" lon="12.3804572"><ele>85.33333333333333</ele><time>2026-04-29T09:55:19.45Z</time></trkpt><trkpt lat="44.0074303" lon="12.3803239"><ele>85.0</ele><time>2026-04-29T09:55:20.45Z</time></trkpt><trkpt lat="44.0072902" lon="12.3801857"><ele>85.0</ele><time>2026-04-29T09:55:21.45Z</time></trkpt><trkpt lat="44.0071523" lon="12.3800498"><ele>85.0</ele><time>2026-04-29T09:55:22.451Z</time></trkpt><trkpt lat="44.0070168" lon="12.3799143"><ele>85.0</ele><time>2026-04-29T09:55:23.45Z</time></trkpt><trkpt lat="44.0068834" lon="12.379781"><ele>84.66666666666666</ele><time>2026-04-29T09:55:24.451Z</time></trkpt><trkpt lat="44.0067536" lon="12.3796443"><ele>84.33333333333333</ele><time>2026-04-29T09:55:25.45Z</time></trkpt><trkpt lat="44.0066216" lon="12.3795047"><ele>84.0</ele><time>2026-04-29T09:55:26.451Z</time></trkpt><trkpt lat="44.0064879" lon="12.3793676"><ele>84.0</ele><time>2026-04-29T09:55:27.45Z</time></trkpt><trkpt lat="44.0063565" lon="12.3792266"><ele>84.0</ele><time>2026-04-29T09:55:28.45Z</time></trkpt><trkpt lat="44.0062248" lon="12.3790869"><ele>84.0</ele><time>2026-04-29T09:55:29.45Z</time></trkpt><trkpt lat="44.0060929" lon="12.3789476"><ele>84.33333333333333</ele><time>2026-04-29T09:55:30.45Z</time></trkpt><trkpt lat="44.0059624" lon="12.3788105"><ele>84.66666666666666</ele><time>2026-04-29T09:55:31.45Z</time></trkpt><trkpt lat="44.0058323" lon="12.3786771"><ele>85.0</ele><time>2026-04-29T09:55:32.45Z</time></trkpt><trkpt lat="44.0057016" lon="12.3785483"><ele>85.0</ele><time>2026-04-29T09:55:33.45Z</time></trkpt><trkpt lat="44.0055668" lon="12.3784304"><ele>85.0</ele><time>2026-04-29T09:55:34.451Z</time></trkpt><trkpt lat="44.0054263" lon="12.3783181"><ele>85.0</ele><time>2026-04-29T09:55:35.45Z</time></trkpt><trkpt lat="44.005285" lon="12.3782037"><ele>85.0</ele><time>2026-04-29T09:55:36.45Z</time></trkpt><trkpt lat="44.005142" lon="12.3780926"><ele>85.0</ele><time>2026-04-29T09:55:37.45Z</time></trkpt><trkpt lat="44.004997" lon="12.3779827"><ele>85.0</ele><time>2026-04-29T09:55:38.45Z</time></trkpt><trkpt lat="44.0048476" lon="12.3778741"><ele>85.66666666666666</ele><time>2026-04-29T09:55:39.451Z</time></trkpt><trkpt lat="44.004696" lon="12.3777656"><ele>86.33333333333333</ele><time>2026-04-29T09:55:40.45Z</time></trkpt><trkpt lat="44.0045409" lon="12.3776561"><ele>87.0</ele><time>2026-04-29T09:55:41.45Z</time></trkpt><trkpt lat="44.0043866" lon="12.3775473"><ele>87.0</ele><time>2026-04-29T09:55:42.45Z</time></trkpt><trkpt lat="44.0042307" lon="12.3774363"><ele>87.0</ele><time>2026-04-29T09:55:43.45Z</time></trkpt><trkpt lat="44.0040758" lon="12.3773241"><ele>87.0</ele><time>2026-04-29T09:55:44.45Z</time></trkpt><trkpt lat="44.0039201" lon="12.3772124"><ele>87.66666666666667</ele><time>2026-04-29T09:55:45.45Z</time></trkpt><trkpt lat="44.0037644" lon="12.3770983"><ele>88.33333333333334</ele><time>2026-04-29T09:55:46.45Z</time></trkpt><trkpt lat="44.0036089" lon="12.3769837"><ele>89.0</ele><time>2026-04-29T09:55:47.45Z</time></trkpt><trkpt lat="44.0034537" lon="12.3768704"><ele>88.66666666666667</ele><time>2026-04-29T09:55:48.45Z</time></trkpt><trkpt lat="44.0032986" lon="12.3767538"><ele>88.33333333333333</ele><time>2026-04-29T09:55:49.451Z</time></trkpt><trkpt lat="44.0031442" lon="12.3766378"><ele>88.0</ele><time>2026-04-29T09:55:50.45Z</time></trkpt><trkpt lat="44.0029904" lon="12.3765244"><ele>88.0</ele><time>2026-04-29T09:55:51.45Z</time></trkpt><trkpt lat="44.0028361" lon="12.37641"><ele>88.0</ele><time>2026-04-29T09:55:52.45Z</time></trkpt><trkpt lat="44.0026824" lon="12.3762944"><ele>88.0</ele><time>2026-04-29T09:55:53.45Z</time></trkpt><trkpt lat="44.0025304" lon="12.3761777"><ele>88.0</ele><time>2026-04-29T09:55:54.45Z</time></trkpt><trkpt lat="44.0023758" lon="12.3760642"><ele>88.0</ele><time>2026-04-29T09:55:55.45Z</time></trkpt><trkpt lat="44.0022223" lon="12.3759497"><ele>88.0</ele><time>2026-04-29T09:55:56.45Z</time></trkpt><trkpt lat="44.0020661" lon="12.375838"><ele>88.0</ele><time>2026-04-29T09:55:57.45Z</time></trkpt><trkpt lat="44.0019098" lon="12.3757263"><ele>88.0</ele><time>2026-04-29T09:55:58.45Z</time></trkpt><trkpt lat="44.0017524" lon="12.3756125"><ele>88.0</ele><time>2026-04-29T09:55:59.451Z</time></trkpt><trkpt lat="44.0015951" lon="12.3754997"><ele>88.66666666666666</ele><time>2026-04-29T09:56:00.45Z</time></trkpt><trkpt lat="44.0014395" lon="12.3753847"><ele>89.33333333333333</ele><time>2026-04-29T09:56:01.45Z</time></trkpt><trkpt lat="44.0012846" lon="12.375269"><ele>90.0</ele><time>2026-04-29T09:56:02.45Z</time></trkpt><trkpt lat="44.001129" lon="12.3751531"><ele>90.0</ele><time>2026-04-29T09:56:03.45Z</time></trkpt><trkpt lat="44.0009745" lon="12.3750383"><ele>90.0</ele><time>2026-04-29T09:56:04.45Z</time></trkpt><trkpt lat="44.0008218" lon="12.374924"><ele>90.0</ele><time>2026-04-29T09:56:05.45Z</time></trkpt><trkpt lat="44.0006697" lon="12.3748074"><ele>90.0</ele><time>2026-04-29T09:56:06.45Z</time></trkpt><trkpt lat="44.0005217" lon="12.37469"><ele>90.0</ele><time>2026-04-29T09:56:07.45Z</time></trkpt><trkpt lat="44.0003804" lon="12.3745633"><ele>90.0</ele><time>2026-04-29T09:56:08.45Z</time></trkpt><trkpt lat="44.0002459" lon="12.3744319"><ele>90.33333333333333</ele><time>2026-04-29T09:56:09.45Z</time></trkpt><trkpt lat="44.0001219" lon="12.3742899"><ele>90.66666666666666</ele><time>2026-04-29T09:56:10.45Z</time></trkpt><trkpt lat="44.0000012" lon="12.3741435"><ele>91.0</ele><time>2026-04-29T09:56:11.45Z</time></trkpt><trkpt lat="43.9998816" lon="12.3739972"><ele>91.33333333333333</ele><time>2026-04-29T09:56:12.45Z</time></trkpt><trkpt lat="43.9997643" lon="12.3738518"><ele>91.66666666666667</ele><time>2026-04-29T09:56:13.45Z</time></trkpt><trkpt lat="43.999649" lon="12.3737038"><ele>92.0</ele><time>2026-04-29T09:56:14.45Z</time></trkpt><trkpt lat="43.9995327" lon="12.3735561"><ele>92.0</ele><time>2026-04-29T09:56:15.45Z</time></trkpt><trkpt lat="43.9994158" lon="12.3734089"><ele>92.0</ele><time>2026-04-29T09:56:16.45Z</time></trkpt><trkpt lat="43.9992973" lon="12.3732629"><ele>92.0</ele><time>2026-04-29T09:56:17.45Z</time></trkpt><trkpt lat="43.9991714" lon="12.37313"><ele>92.0</ele><time>2026-04-29T09:56:18.45Z</time></trkpt><trkpt lat="43.9990375" lon="12.3730148"><ele>92.0</ele><time>2026-04-29T09:56:19.45Z</time></trkpt><trkpt lat="43.99889" lon="12.3729229"><ele>92.0</ele><time>2026-04-29T09:56:20.451Z</time></trkpt><trkpt lat="43.9987361" lon="12.3728466"><ele>92.0</ele><time>2026-04-29T09:56:21.45Z</time></trkpt><trkpt lat="43.9985775" lon="12.372779"><ele>92.0</ele><time>2026-04-29T09:56:22.45Z</time></trkpt><trkpt lat="43.9984185" lon="12.3727176"><ele>92.0</ele><time>2026-04-29T09:56:23.45Z</time></trkpt><trkpt lat="43.9982589" lon="12.3726587"><ele>92.33333333333334</ele><time>2026-04-29T09:56:24.45Z</time></trkpt><trkpt lat="43.9981018" lon="12.372595"><ele>92.66666666666667</ele><time>2026-04-29T09:56:25.45Z</time></trkpt><trkpt lat="43.9979472" lon="12.3725268"><ele>93.0</ele><time>2026-04-29T09:56:26.45Z</time></trkpt><trkpt lat="43.9977911" lon="12.3724597"><ele>93.0</ele><time>2026-04-29T09:56:27.451Z</time></trkpt><trkpt lat="43.9976347" lon="12.3723954"><ele>93.0</ele><time>2026-04-29T09:56:28.45Z</time></trkpt><trkpt lat="43.9974784" lon="12.3723302"><ele>93.0</ele><time>2026-04-29T09:56:29.45Z</time></trkpt><trkpt lat="43.9973241" lon="12.3722615"><ele>93.33333333333333</ele><time>2026-04-29T09:56:30.45Z</time></trkpt><trkpt lat="43.9971721" lon="12.3721888"><ele>93.66666666666666</ele><time>2026-04-29T09:56:31.451Z</time></trkpt><trkpt lat="43.9970207" lon="12.3721181"><ele>94.0</ele><time>2026-04-29T09:56:32.45Z</time></trkpt><trkpt lat="43.996869" lon="12.3720605"><ele>94.0</ele><time>2026-04-29T09:56:33.45Z</time></trkpt><trkpt lat="43.9967185" lon="12.3720186"><ele>94.0</ele><time>2026-04-29T09:56:34.45Z</time></trkpt><trkpt lat="43.9965626" lon="12.3719888"><ele>94.0</ele><time>2026-04-29T09:56:35.45Z</time></trkpt><trkpt lat="43.9964033" lon="12.3719643"><ele>95.33333333333333</ele><time>2026-04-29T09:56:36.45Z</time></trkpt><trkpt lat="43.9962414" lon="12.3719423"><ele>96.66666666666666</ele><time>2026-04-29T09:56:37.45Z</time></trkpt><trkpt lat="43.9960812" lon="12.3719185"><ele>98.0</ele><time>2026-04-29T09:56:38.45Z</time></trkpt><trkpt lat="43.9959233" lon="12.371893"><ele>99.0</ele><time>2026-04-29T09:56:39.45Z</time></trkpt><trkpt lat="43.9957681" lon="12.3718608"><ele>100.0</ele><time>2026-04-29T09:56:40.45Z</time></trkpt><trkpt lat="43.9956152" lon="12.3718221"><ele>101.0</ele><time>2026-04-29T09:56:41.45Z</time></trkpt><trkpt lat="43.9954665" lon="12.3717856"><ele>101.0</ele><time>2026-04-29T09:56:42.45Z</time></trkpt><trkpt lat="43.9953211" lon="12.3717502"><ele>101.0</ele><time>2026-04-29T09:56:43.45Z</time></trkpt><trkpt lat="43.9951839" lon="12.3717104"><ele>101.0</ele><time>2026-04-29T09:56:44.45Z</time></trkpt><trkpt lat="43.9950645" lon="12.3716671"><ele>101.0</ele><time>2026-04-29T09:56:45.45Z</time></trkpt><trkpt lat="43.994954" lon="12.3716205"><ele>101.4</ele><time>2026-04-29T09:56:46.45Z</time></trkpt><trkpt lat="43.9948475" lon="12.3715666"><ele>101.8</ele><time>2026-04-29T09:56:47.45Z</time></trkpt><trkpt lat="43.9947432" lon="12.3715149"><ele>102.2</ele><time>2026-04-29T09:56:48.45Z</time></trkpt><trkpt lat="43.9946479" lon="12.3714705"><ele>102.60000000000001</ele><time>2026-04-29T09:56:49.45Z</time></trkpt><trkpt lat="43.9945665" lon="12.3714307"><ele>103.0</ele><time>2026-04-29T09:56:50.451Z</time></trkpt><trkpt lat="43.9944968" lon="12.3713961"><ele>103.00000000000001</ele><time>2026-04-29T09:56:51.45Z</time></trkpt><trkpt lat="43.9944289" lon="12.3713795"><ele>103.0</ele><time>2026-04-29T09:56:52.45Z</time></trkpt><trkpt lat="43.9943564" lon="12.3713908"><ele>103.0</ele><time>2026-04-29T09:56:53.45Z</time></trkpt><trkpt lat="43.9942732" lon="12.371432"><ele>103.0</ele><time>2026-04-29T09:56:54.45Z</time></trkpt><trkpt lat="43.9941852" lon="12.3714828"><ele>103.00000000000001</ele><time>2026-04-29T09:56:55.45Z</time></trkpt><trkpt lat="43.9940858" lon="12.3715037"><ele>103.0</ele><time>2026-04-29T09:56:56.45Z</time></trkpt><trkpt lat="43.9939805" lon="12.3714854"><ele>103.5</ele><time>2026-04-29T09:56:57.45Z</time></trkpt><trkpt lat="43.9938682" lon="12.3714342"><ele>104.0</ele><time>2026-04-29T09:56:58.45Z</time></trkpt><trkpt lat="43.9937547" lon="12.3713676"><ele>104.5</ele><time>2026-04-29T09:56:59.45Z</time></trkpt><trkpt lat="43.9936341" lon="12.3712985"><ele>105.0</ele><time>2026-04-29T09:57:00.45Z</time></trkpt><trkpt lat="43.9935078" lon="12.371233"><ele>105.75</ele><time>2026-04-29T09:57:01.45Z</time></trkpt><trkpt lat="43.9933799" lon="12.3711678"><ele>106.5</ele><time>2026-04-29T09:57:02.45Z</time></trkpt><trkpt lat="43.9932576" lon="12.3711078"><ele>107.25</ele><time>2026-04-29T09:57:03.451Z</time></trkpt><trkpt lat="43.99315" lon="12.3710475"><ele>108.0</ele><time>2026-04-29T09:57:04.451Z</time></trkpt><trkpt lat="43.9930564" lon="12.3710013"><ele>108.0</ele><time>2026-04-29T09:57:05.45Z</time></trkpt><trkpt lat="43.9929728" lon="12.3709803"><ele>108.00000000000001</ele><time>2026-04-29T09:57:06.45Z</time></trkpt><trkpt lat="43.9928921" lon="12.3709878"><ele>108.00000000000001</ele><time>2026-04-29T09:57:07.45Z</time></trkpt><trkpt lat="43.9928115" lon="12.371033"><ele>108.0</ele><time>2026-04-29T09:57:08.451Z</time></trkpt><trkpt lat="43.9927314" lon="12.3711128"><ele>108.0</ele><time>2026-04-29T09:57:09.45Z</time></trkpt><trkpt lat="43.9926594" lon="12.3712263"><ele>108.0</ele><time>2026-04-29T09:57:10.45Z</time></trkpt><trkpt lat="43.992597" lon="12.3713544"><ele>108.00000000000001</ele><time>2026-04-29T09:57:11.45Z</time></trkpt><trkpt lat="43.9925551" lon="12.3714931"><ele>108.00000000000001</ele><time>2026-04-29T09:57:12.45Z</time></trkpt><trkpt lat="43.9925209" lon="12.3716443"><ele>108.0</ele><time>2026-04-29T09:57:13.45Z</time></trkpt><trkpt lat="43.9924709" lon="12.3717807"><ele>108.0</ele><time>2026-04-29T09:57:14.451Z</time></trkpt><trkpt lat="43.9924087" lon="12.3718926"><ele>110.66666666666667</ele><time>2026-04-29T09:57:15.451Z</time></trkpt><trkpt lat="43.992346" lon="12.3719851"><ele>113.33333333333334</ele><time>2026-04-29T09:57:16.45Z</time></trkpt><trkpt lat="43.9923093" lon="12.3720794"><ele>116.0</ele><time>2026-04-29T09:57:17.451Z</time></trkpt><trkpt lat="43.9923063" lon="12.372173"><ele>118.66666666666667</ele><time>2026-04-29T09:57:18.45Z</time></trkpt><trkpt lat="43.9923418" lon="12.3722762"><ele>121.33333333333334</ele><time>2026-04-29T09:57:19.45Z</time></trkpt><trkpt lat="43.9924064" lon="12.3723768"><ele>124.0</ele><time>2026-04-29T09:57:20.45Z</time></trkpt><trkpt lat="43.9924727" lon="12.3724765"><ele>124.4</ele><time>2026-04-29T09:57:21.45Z</time></trkpt><trkpt lat="43.9925315" lon="12.3725792"><ele>124.80000000000001</ele><time>2026-04-29T09:57:22.45Z</time></trkpt><trkpt lat="43.9925785" lon="12.3726917"><ele>125.19999999999999</ele><time>2026-04-29T09:57:23.45Z</time></trkpt><trkpt lat="43.9926122" lon="12.3728181"><ele>125.6</ele><time>2026-04-29T09:57:24.45Z</time></trkpt><trkpt lat="43.9926331" lon="12.3729576"><ele>126.0</ele><time>2026-04-29T09:57:25.45Z</time></trkpt><trkpt lat="43.9926485" lon="12.3731087"><ele>127.16666666666667</ele><time>2026-04-29T09:57:26.45Z</time></trkpt><trkpt lat="43.9926606" lon="12.3732628"><ele>128.33333333333334</ele><time>2026-04-29T09:57:27.45Z</time></trkpt><trkpt lat="43.9926739" lon="12.3734055"><ele>129.5</ele><time>2026-04-29T09:57:28.45Z</time></trkpt><trkpt lat="43.992673" lon="12.3735265"><ele>130.66666666666669</ele><time>2026-04-29T09:57:29.45Z</time></trkpt><trkpt lat="43.9926539" lon="12.3736293"><ele>131.83333333333334</ele><time>2026-04-29T09:57:30.45Z</time></trkpt><trkpt lat="43.9926181" lon="12.3737119"><ele>133.0</ele><time>2026-04-29T09:57:31.45Z</time></trkpt><trkpt lat="43.9925642" lon="12.3737815"><ele>135.4</ele><time>2026-04-29T09:57:32.45Z</time></trkpt><trkpt lat="43.9924936" lon="12.3738265"><ele>137.8</ele><time>2026-04-29T09:57:33.45Z</time></trkpt><trkpt lat="43.9924131" lon="12.373855"><ele>140.2</ele><time>2026-04-29T09:57:34.45Z</time></trkpt><trkpt lat="43.9923201" lon="12.3738737"><ele>142.6</ele><time>2026-04-29T09:57:35.45Z</time></trkpt><trkpt lat="43.9922175" lon="12.3738959"><ele>145.0</ele><time>2026-04-29T09:57:36.451Z</time></trkpt><trkpt lat="43.9921126" lon="12.3739177"><ele>146.4</ele><time>2026-04-29T09:57:37.45Z</time></trkpt><trkpt lat="43.9920081" lon="12.3739486"><ele>147.8</ele><time>2026-04-29T09:57:38.45Z</time></trkpt><trkpt lat="43.9919092" lon="12.3739926"><ele>149.2</ele><time>2026-04-29T09:57:39.45Z</time></trkpt><trkpt lat="43.9918145" lon="12.3740439"><ele>150.6</ele><time>2026-04-29T09:57:40.45Z</time></trkpt><trkpt lat="43.9917227" lon="12.3741034"><ele>152.0</ele><time>2026-04-29T09:57:41.451Z</time></trkpt><trkpt lat="43.9916373" lon="12.3741715"><ele>152.79999999999998</ele><time>2026-04-29T09:57:42.45Z</time></trkpt><trkpt lat="43.9915589" lon="12.3742462"><ele>153.6</ele><time>2026-04-29T09:57:43.45Z</time></trkpt><trkpt lat="43.9914863" lon="12.3743264"><ele>154.39999999999998</ele><time>2026-04-29T09:57:44.45Z</time></trkpt><trkpt lat="43.9914145" lon="12.37442"><ele>155.2</ele><time>2026-04-29T09:57:45.45Z</time></trkpt><trkpt lat="43.9913524" lon="12.3745245"><ele>156.0</ele><time>2026-04-29T09:57:46.45Z</time></trkpt><trkpt lat="43.9912999" lon="12.3746403"><ele>158.6</ele><time>2026-04-29T09:57:47.451Z</time></trkpt><trkpt lat="43.9912488" lon="12.3747615"><ele>161.2</ele><time>2026-04-29T09:57:48.45Z</time></trkpt><trkpt lat="43.991192" lon="12.3748806"><ele>163.79999999999998</ele><time>2026-04-29T09:57:49.45Z</time></trkpt><trkpt lat="43.9911291" lon="12.3749879"><ele>166.39999999999998</ele><time>2026-04-29T09:57:50.45Z</time></trkpt><trkpt lat="43.9910558" lon="12.3750783"><ele>169.0</ele><time>2026-04-29T09:57:51.45Z</time></trkpt><trkpt lat="43.9909697" lon="12.3751425"><ele>169.0</ele><time>2026-04-29T09:57:52.45Z</time></trkpt><trkpt lat="43.9908793" lon="12.375167"><ele>169.0</ele><time>2026-04-29T09:57:53.45Z</time></trkpt><trkpt lat="43.9907861" lon="12.3751627"><ele>169.0</ele><time>2026-04-29T09:57:54.45Z</time></trkpt><trkpt lat="43.9906923" lon="12.3751308"><ele>169.0</ele><time>2026-04-29T09:57:55.451Z</time></trkpt><trkpt lat="43.9906063" lon="12.3750726"><ele>169.0</ele><time>2026-04-29T09:57:56.45Z</time></trkpt><trkpt lat="43.9905281" lon="12.3750145"><ele>169.66666666666669</ele><time>2026-04-29T09:57:57.45Z</time></trkpt><trkpt lat="43.9904665" lon="12.3749799"><ele>170.33333333333334</ele><time>2026-04-29T09:57:58.45Z</time></trkpt><trkpt lat="43.9903739" lon="12.3749898"><ele>171.0</ele><time>2026-04-29T09:58:00.451Z</time></trkpt><trkpt lat="43.9903163" lon="12.3750547"><ele>171.66666666666666</ele><time>2026-04-29T09:58:02.45Z</time></trkpt><trkpt lat="43.9903237" lon="12.3751624"><ele>172.33333333333331</ele><time>2026-04-29T09:58:06.45Z</time></trkpt><trkpt lat="43.9903954" lon="12.3753124"><ele>173.0</ele><time>2026-04-29T09:58:08.45Z</time></trkpt><trkpt lat="43.9904426" lon="12.3753914"><ele>173.0</ele><time>2026-04-29T09:58:09.451Z</time></trkpt><trkpt lat="43.9904996" lon="12.375468"><ele>173.0</ele><time>2026-04-29T09:58:10.45Z</time></trkpt><trkpt lat="43.9905619" lon="12.3755415"><ele>173.0</ele><time>2026-04-29T09:58:11.45Z</time></trkpt><trkpt lat="43.9906272" lon="12.3756246"><ele>173.0</ele><time>2026-04-29T09:58:12.45Z</time></trkpt><trkpt lat="43.9906949" lon="12.3757138"><ele>173.0</ele><time>2026-04-29T09:58:13.45Z</time></trkpt><trkpt lat="43.9907591" lon="12.3758028"><ele>173.0</ele><time>2026-04-29T09:58:14.451Z</time></trkpt><trkpt lat="43.9908198" lon="12.3758927"><ele>174.2</ele><time>2026-04-29T09:58:15.45Z</time></trkpt><trkpt lat="43.990885" lon="12.3759835"><ele>175.4</ele><time>2026-04-29T09:58:16.451Z</time></trkpt><trkpt lat="43.9909471" lon="12.3760801"><ele>176.6</ele><time>2026-04-29T09:58:17.45Z</time></trkpt><trkpt lat="43.9910069" lon="12.3761853"><ele>177.79999999999998</ele><time>2026-04-29T09:58:18.45Z</time></trkpt><trkpt lat="43.991064" lon="12.3762993"><ele>179.0</ele><time>2026-04-29T09:58:19.45Z</time></trkpt><trkpt lat="43.9911167" lon="12.3764184"><ele>181.6</ele><time>2026-04-29T09:58:20.45Z</time></trkpt><trkpt lat="43.9911682" lon="12.3765488"><ele>184.2</ele><time>2026-04-29T09:58:21.45Z</time></trkpt><trkpt lat="43.9912172" lon="12.3766857"><ele>186.79999999999998</ele><time>2026-04-29T09:58:22.451Z</time></trkpt><trkpt lat="43.9912701" lon="12.3768213"><ele>189.39999999999998</ele><time>2026-04-29T09:58:23.45Z</time></trkpt><trkpt lat="43.991333" lon="12.3769508"><ele>192.0</ele><time>2026-04-29T09:58:24.45Z</time></trkpt><trkpt lat="43.9914041" lon="12.377064"><ele>192.0</ele><time>2026-04-29T09:58:25.45Z</time></trkpt><trkpt lat="43.9914825" lon="12.3771497"><ele>192.0</ele><time>2026-04-29T09:58:26.45Z</time></trkpt><trkpt lat="43.9915699" lon="12.3772119"><ele>192.0</ele><time>2026-04-29T09:58:27.451Z</time></trkpt><trkpt lat="43.9916613" lon="12.3772463"><ele>192.0</ele><time>2026-04-29T09:58:28.45Z</time></trkpt><trkpt lat="43.9917489" lon="12.3772509"><ele>192.0</ele><time>2026-04-29T09:58:29.45Z</time></trkpt><trkpt lat="43.9918268" lon="12.3772639"><ele>192.5</ele><time>2026-04-29T09:58:30.45Z</time></trkpt><trkpt lat="43.9918981" lon="12.3773173"><ele>193.0</ele><time>2026-04-29T09:58:31.45Z</time></trkpt><trkpt lat="43.9919561" lon="12.3774016"><ele>193.5</ele><time>2026-04-29T09:58:32.45Z</time></trkpt><trkpt lat="43.9919925" lon="12.3775081"><ele>194.0</ele><time>2026-04-29T09:58:33.45Z</time></trkpt><trkpt lat="43.9920121" lon="12.3776275"><ele>194.5</ele><time>2026-04-29T09:58:34.45Z</time></trkpt><trkpt lat="43.992015" lon="12.3777503"><ele>195.0</ele><time>2026-04-29T09:58:35.45Z</time></trkpt><trkpt lat="43.9919958" lon="12.3778801"><ele>195.0</ele><time>2026-04-29T09:58:36.45Z</time></trkpt><trkpt lat="43.9919601" lon="12.3780095"><ele>195.0</ele><time>2026-04-29T09:58:37.45Z</time></trkpt><trkpt lat="43.9919165" lon="12.3781317"><ele>195.0</ele><time>2026-04-29T09:58:38.45Z</time></trkpt><trkpt lat="43.9918707" lon="12.3782401"><ele>195.0</ele><time>2026-04-29T09:58:39.45Z</time></trkpt><trkpt lat="43.9918246" lon="12.378329"><ele>195.0</ele><time>2026-04-29T09:58:40.451Z</time></trkpt><trkpt lat="43.9917668" lon="12.378387"><ele>195.0</ele><time>2026-04-29T09:58:41.45Z</time></trkpt><trkpt lat="43.9916911" lon="12.3784027"><ele>198.33333333333334</ele><time>2026-04-29T09:58:42.45Z</time></trkpt><trkpt lat="43.9916045" lon="12.3783858"><ele>201.66666666666669</ele><time>2026-04-29T09:58:43.45Z</time></trkpt><trkpt lat="43.9915207" lon="12.3783469"><ele>205.0</ele><time>2026-04-29T09:58:44.45Z</time></trkpt><trkpt lat="43.9914377" lon="12.3783197"><ele>208.33333333333334</ele><time>2026-04-29T09:58:45.45Z</time></trkpt><trkpt lat="43.9913592" lon="12.3783199"><ele>211.66666666666669</ele><time>2026-04-29T09:58:46.45Z</time></trkpt><trkpt lat="43.9912918" lon="12.3783544"><ele>215.0</ele><time>2026-04-29T09:58:47.45Z</time></trkpt><trkpt lat="43.9912382" lon="12.3784189"><ele>215.00000000000003</ele><time>2026-04-29T09:58:48.45Z</time></trkpt><trkpt lat="43.991201" lon="12.3785074"><ele>215.0</ele><time>2026-04-29T09:58:49.45Z</time></trkpt><trkpt lat="43.9911964" lon="12.378616"><ele>215.0</ele><time>2026-04-29T09:58:50.45Z</time></trkpt><trkpt lat="43.9912096" lon="12.378735"><ele>215.0</ele><time>2026-04-29T09:58:51.45Z</time></trkpt><trkpt lat="43.9912329" lon="12.3788542"><ele>215.00000000000003</ele><time>2026-04-29T09:58:52.45Z</time></trkpt><trkpt lat="43.9912536" lon="12.3789713"><ele>215.0</ele><time>2026-04-29T09:58:53.45Z</time></trkpt><trkpt lat="43.9912606" lon="12.3790877"><ele>216.50000000000003</ele><time>2026-04-29T09:58:54.45Z</time></trkpt><trkpt lat="43.9912494" lon="12.3792013"><ele>218.0</ele><time>2026-04-29T09:58:55.45Z</time></trkpt><trkpt lat="43.9912195" lon="12.3793002"><ele>219.5</ele><time>2026-04-29T09:58:56.45Z</time></trkpt><trkpt lat="43.9911777" lon="12.3793688"><ele>221.0</ele><time>2026-04-29T09:58:57.45Z</time></trkpt><trkpt lat="43.9910491" lon="12.3793975"><ele>222.50000000000003</ele><time>2026-04-29T09:58:59.45Z</time></trkpt><trkpt lat="43.9909686" lon="12.379355"><ele>224.0</ele><time>2026-04-29T09:59:00.45Z</time></trkpt><trkpt lat="43.9908842" lon="12.3792944"><ele>226.39999999999998</ele><time>2026-04-29T09:59:01.45Z</time></trkpt><trkpt lat="43.990806" lon="12.3792384"><ele>228.79999999999998</ele><time>2026-04-29T09:59:02.45Z</time></trkpt><trkpt lat="43.9907403" lon="12.3792023"><ele>231.20000000000002</ele><time>2026-04-29T09:59:03.45Z</time></trkpt><trkpt lat="43.9906427" lon="12.3792232"><ele>233.60000000000002</ele><time>2026-04-29T09:59:05.45Z</time></trkpt><trkpt lat="43.9906138" lon="12.3793654"><ele>236.0</ele><time>2026-04-29T09:59:07.45Z</time></trkpt><trkpt lat="43.990667" lon="12.3795368"><ele>236.00000000000003</ele><time>2026-04-29T09:59:09.45Z</time></trkpt><trkpt lat="43.9906991" lon="12.3796244"><ele>236.0</ele><time>2026-04-29T09:59:10.45Z</time></trkpt><trkpt lat="43.990723" lon="12.3797251"><ele>236.0</ele><time>2026-04-29T09:59:11.451Z</time></trkpt><trkpt lat="43.9907408" lon="12.3798355"><ele>236.0</ele><time>2026-04-29T09:59:12.451Z</time></trkpt><trkpt lat="43.9907506" lon="12.3799503"><ele>236.00000000000003</ele><time>2026-04-29T09:59:13.45Z</time></trkpt><trkpt lat="43.9907503" lon="12.38008"><ele>236.0</ele><time>2026-04-29T09:59:14.45Z</time></trkpt><trkpt lat="43.9907372" lon="12.3802114"><ele>236.60000000000002</ele><time>2026-04-29T09:59:15.45Z</time></trkpt><trkpt lat="43.9907255" lon="12.3803342"><ele>237.20000000000002</ele><time>2026-04-29T09:59:16.45Z</time></trkpt><trkpt lat="43.9907282" lon="12.3804578"><ele>237.79999999999998</ele><time>2026-04-29T09:59:17.45Z</time></trkpt><trkpt lat="43.9907564" lon="12.3805734"><ele>238.39999999999998</ele><time>2026-04-29T09:59:18.45Z</time></trkpt><trkpt lat="43.9908179" lon="12.3806832"><ele>239.0</ele><time>2026-04-29T09:59:19.45Z</time></trkpt><trkpt lat="43.9909038" lon="12.3807797"><ele>239.0</ele><time>2026-04-29T09:59:20.45Z</time></trkpt><trkpt lat="43.9909949" lon="12.3808801"><ele>239.0</ele><time>2026-04-29T09:59:21.45Z</time></trkpt><trkpt lat="43.9910814" lon="12.3809901"><ele>239.0</ele><time>2026-04-29T09:59:22.45Z</time></trkpt><trkpt lat="43.9911643" lon="12.38111"><ele>239.0</ele><time>2026-04-29T09:59:23.45Z</time></trkpt><trkpt lat="43.9912475" lon="12.3812302"><ele>241.75</ele><time>2026-04-29T09:59:24.451Z</time></trkpt><trkpt lat="43.991331" lon="12.3813495"><ele>244.5</ele><time>2026-04-29T09:59:25.45Z</time></trkpt><trkpt lat="43.9914122" lon="12.3814717"><ele>247.25</ele><time>2026-04-29T09:59:26.45Z</time></trkpt><trkpt lat="43.9914993" lon="12.3815996"><ele>250.0</ele><time>2026-04-29T09:59:27.45Z</time></trkpt><trkpt lat="43.9915859" lon="12.3817196"><ele>250.0</ele><time>2026-04-29T09:59:28.45Z</time></trkpt><trkpt lat="43.9916718" lon="12.3818335"><ele>250.0</ele><time>2026-04-29T09:59:29.451Z</time></trkpt><trkpt lat="43.9917509" lon="12.3819413"><ele>250.0</ele><time>2026-04-29T09:59:30.45Z</time></trkpt><trkpt lat="43.9918278" lon="12.382043"><ele>250.0</ele><time>2026-04-29T09:59:31.45Z</time></trkpt><trkpt lat="43.9918999" lon="12.3821403"><ele>250.0</ele><time>2026-04-29T09:59:32.45Z</time></trkpt><trkpt lat="43.9919634" lon="12.3822286"><ele>250.16666666666666</ele><time>2026-04-29T09:59:33.45Z</time></trkpt><trkpt lat="43.9920088" lon="12.3823088"><ele>250.33333333333331</ele><time>2026-04-29T09:59:34.45Z</time></trkpt><trkpt lat="43.9920071" lon="12.3824567"><ele>250.5</ele><time>2026-04-29T09:59:36.45Z</time></trkpt><trkpt lat="43.9919555" lon="12.382518"><ele>250.66666666666669</ele><time>2026-04-29T09:59:37.45Z</time></trkpt><trkpt lat="43.9918775" lon="12.3825692"><ele>250.83333333333334</ele><time>2026-04-29T09:59:38.45Z</time></trkpt><trkpt lat="43.991781" lon="12.3826285"><ele>251.0</ele><time>2026-04-29T09:59:39.45Z</time></trkpt><trkpt lat="43.9916753" lon="12.3827139"><ele>253.5</ele><time>2026-04-29T09:59:40.45Z</time></trkpt><trkpt lat="43.9915726" lon="12.3828174"><ele>256.0</ele><time>2026-04-29T09:59:41.45Z</time></trkpt><trkpt lat="43.9914799" lon="12.3829471"><ele>258.5</ele><time>2026-04-29T09:59:42.451Z</time></trkpt><trkpt lat="43.9913936" lon="12.3831033"><ele>261.0</ele><time>2026-04-29T09:59:43.45Z</time></trkpt><trkpt lat="43.9913073" lon="12.3832682"><ele>262.0</ele><time>2026-04-29T09:59:44.45Z</time></trkpt><trkpt lat="43.9912201" lon="12.3834269"><ele>263.0</ele><time>2026-04-29T09:59:45.45Z</time></trkpt><trkpt lat="43.9911325" lon="12.3835708"><ele>264.0</ele><time>2026-04-29T09:59:46.45Z</time></trkpt><trkpt lat="43.9910496" lon="12.3836913"><ele>265.0</ele><time>2026-04-29T09:59:47.451Z</time></trkpt><trkpt lat="43.9909558" lon="12.3837966"><ele>265.25</ele><time>2026-04-29T09:59:48.451Z</time></trkpt><trkpt lat="43.990853" lon="12.3838831"><ele>265.5</ele><time>2026-04-29T09:59:49.45Z</time></trkpt><trkpt lat="43.9907383" lon="12.3839466"><ele>265.75</ele><time>2026-04-29T09:59:50.45Z</time></trkpt><trkpt lat="43.9906187" lon="12.3840033"><ele>266.0</ele><time>2026-04-29T09:59:51.45Z</time></trkpt><trkpt lat="43.9905005" lon="12.3840575"><ele>268.40000000000003</ele><time>2026-04-29T09:59:52.45Z</time></trkpt><trkpt lat="43.9903897" lon="12.3841152"><ele>270.8</ele><time>2026-04-29T09:59:53.45Z</time></trkpt><trkpt lat="43.9902966" lon="12.3841705"><ele>273.20000000000005</ele><time>2026-04-29T09:59:54.45Z</time></trkpt><trkpt lat="43.990219" lon="12.3842227"><ele>275.6</ele><time>2026-04-29T09:59:55.451Z</time></trkpt><trkpt lat="43.9901564" lon="12.3842804"><ele>278.0</ele><time>2026-04-29T09:59:56.45Z</time></trkpt><trkpt lat="43.990117" lon="12.384364"><ele>278.0</ele><time>2026-04-29T09:59:57.45Z</time></trkpt><trkpt lat="43.9901076" lon="12.3844735"><ele>278.0</ele><time>2026-04-29T09:59:58.45Z</time></trkpt><trkpt lat="43.9901308" lon="12.3845918"><ele>278.0</ele><time>2026-04-29T09:59:59.45Z</time></trkpt><trkpt lat="43.9901772" lon="12.3847158"><ele>278.0</ele><time>2026-04-29T10:00:00.45Z</time></trkpt><trkpt lat="43.9902256" lon="12.3848464"><ele>278.0</ele><time>2026-04-29T10:00:01.45Z</time></trkpt><trkpt lat="43.9902662" lon="12.3849917"><ele>279.0</ele><time>2026-04-29T10:00:02.45Z</time></trkpt><trkpt lat="43.9902947" lon="12.385148"><ele>280.0</ele><time>2026-04-29T10:00:03.45Z</time></trkpt><trkpt lat="43.9903256" lon="12.3853068"><ele>281.0</ele><time>2026-04-29T10:00:04.45Z</time></trkpt><trkpt lat="43.9903556" lon="12.3854638"><ele>282.0</ele><time>2026-04-29T10:00:05.45Z</time></trkpt><trkpt lat="43.9903824" lon="12.3856126"><ele>283.3333333333333</ele><time>2026-04-29T10:00:06.45Z</time></trkpt><trkpt lat="43.9904107" lon="12.3857518"><ele>284.6666666666667</ele><time>2026-04-29T10:00:07.45Z</time></trkpt><trkpt lat="43.9904334" lon="12.3858847"><ele>286.0</ele><time>2026-04-29T10:00:08.45Z</time></trkpt><trkpt lat="43.9904539" lon="12.3860139"><ele>287.33333333333337</ele><time>2026-04-29T10:00:09.45Z</time></trkpt><trkpt lat="43.9904779" lon="12.386128"><ele>288.6666666666667</ele><time>2026-04-29T10:00:10.45Z</time></trkpt><trkpt lat="43.9904961" lon="12.3862161"><ele>290.0</ele><time>2026-04-29T10:00:11.45Z</time></trkpt><trkpt lat="43.9905151" lon="12.3863429"><ele>290.0</ele><time>2026-04-29T10:00:13.451Z</time></trkpt><trkpt lat="43.9905197" lon="12.3864387"><ele>290.0</ele><time>2026-04-29T10:00:15.45Z</time></trkpt><trkpt lat="43.9904667" lon="12.3865343"><ele>290.0</ele><time>2026-04-29T10:00:18.45Z</time></trkpt><trkpt lat="43.9903479" lon="12.3865331"><ele>290.0</ele><time>2026-04-29T10:00:20.45Z</time></trkpt><trkpt lat="43.9902748" lon="12.3864976"><ele>290.0</ele><time>2026-04-29T10:00:21.45Z</time></trkpt><trkpt lat="43.990198" lon="12.3864631"><ele>290.0</ele><time>2026-04-29T10:00:22.45Z</time></trkpt><trkpt lat="43.9901084" lon="12.3864273"><ele>290.8</ele><time>2026-04-29T10:00:23.45Z</time></trkpt><trkpt lat="43.9900064" lon="12.3863927"><ele>291.6</ele><time>2026-04-29T10:00:24.45Z</time></trkpt><trkpt lat="43.9899042" lon="12.386354"><ele>292.4</ele><time>2026-04-29T10:00:25.45Z</time></trkpt><trkpt lat="43.9898058" lon="12.3863154"><ele>293.2</ele><time>2026-04-29T10:00:26.45Z</time></trkpt><trkpt lat="43.9897044" lon="12.3862779"><ele>294.0</ele><time>2026-04-29T10:00:27.45Z</time></trkpt><trkpt lat="43.9895983" lon="12.3862374"><ele>295.5</ele><time>2026-04-29T10:00:28.45Z</time></trkpt><trkpt lat="43.9894894" lon="12.386187"><ele>297.0</ele><time>2026-04-29T10:00:29.45Z</time></trkpt><trkpt lat="43.9893788" lon="12.3861296"><ele>298.5</ele><time>2026-04-29T10:00:30.451Z</time></trkpt><trkpt lat="43.9892669" lon="12.3860637"><ele>300.0</ele><time>2026-04-29T10:00:31.451Z</time></trkpt><trkpt lat="43.9891712" lon="12.3859788"><ele>302.4</ele><time>2026-04-29T10:00:32.45Z</time></trkpt><trkpt lat="43.9890922" lon="12.3858812"><ele>304.8</ele><time>2026-04-29T10:00:33.45Z</time></trkpt><trkpt lat="43.9890161" lon="12.3857681"><ele>307.2</ele><time>2026-04-29T10:00:34.45Z</time></trkpt><trkpt lat="43.9889475" lon="12.3856392"><ele>309.6</ele><time>2026-04-29T10:00:35.45Z</time></trkpt><trkpt lat="43.9888905" lon="12.3855049"><ele>312.0</ele><time>2026-04-29T10:00:36.45Z</time></trkpt><trkpt lat="43.9888433" lon="12.3853613"><ele>312.75</ele><time>2026-04-29T10:00:37.45Z</time></trkpt><trkpt lat="43.9888001" lon="12.3852135"><ele>313.5</ele><time>2026-04-29T10:00:38.451Z</time></trkpt><trkpt lat="43.9887504" lon="12.3850721"><ele>314.25</ele><time>2026-04-29T10:00:39.45Z</time></trkpt><trkpt lat="43.9886919" lon="12.3849425"><ele>315.0</ele><time>2026-04-29T10:00:40.45Z</time></trkpt><trkpt lat="43.9886175" lon="12.3848239"><ele>315.0</ele><time>2026-04-29T10:00:41.45Z</time></trkpt><trkpt lat="43.9885286" lon="12.384723"><ele>315.0</ele><time>2026-04-29T10:00:42.45Z</time></trkpt><trkpt lat="43.9884324" lon="12.3846371"><ele>315.0</ele><time>2026-04-29T10:00:43.45Z</time></trkpt><trkpt lat="43.9883281" lon="12.3845656"><ele>315.0</ele><time>2026-04-29T10:00:44.45Z</time></trkpt><trkpt lat="43.988221" lon="12.3844864"><ele>317.25</ele><time>2026-04-29T10:00:45.45Z</time></trkpt><trkpt lat="43.9881128" lon="12.3844199"><ele>319.5</ele><time>2026-04-29T10:00:46.45Z</time></trkpt><trkpt lat="43.9879976" lon="12.3843695"><ele>321.75</ele><time>2026-04-29T10:00:47.45Z</time></trkpt><trkpt lat="43.9878757" lon="12.3843278"><ele>324.0</ele><time>2026-04-29T10:00:48.45Z</time></trkpt><trkpt lat="43.9877532" lon="12.3842914"><ele>324.0</ele><time>2026-04-29T10:00:49.45Z</time></trkpt><trkpt lat="43.9876332" lon="12.3842541"><ele>324.0</ele><time>2026-04-29T10:00:50.45Z</time></trkpt><trkpt lat="43.9875139" lon="12.3842207"><ele>324.0</ele><time>2026-04-29T10:00:51.45Z</time></trkpt><trkpt lat="43.9874016" lon="12.3841945"><ele>324.0</ele><time>2026-04-29T10:00:52.45Z</time></trkpt><trkpt lat="43.9872896" lon="12.3841894"><ele>327.0</ele><time>2026-04-29T10:00:53.45Z</time></trkpt><trkpt lat="43.9871805" lon="12.3841999"><ele>330.0</ele><time>2026-04-29T10:00:54.451Z</time></trkpt><trkpt lat="43.9870705" lon="12.3842334"><ele>333.0</ele><time>2026-04-29T10:00:55.451Z</time></trkpt><trkpt lat="43.9869643" lon="12.3842851"><ele>336.0</ele><time>2026-04-29T10:00:56.45Z</time></trkpt><trkpt lat="43.9868616" lon="12.384364"><ele>336.0</ele><time>2026-04-29T10:00:57.45Z</time></trkpt><trkpt lat="43.9867686" lon="12.3844454"><ele>336.0</ele><time>2026-04-29T10:00:58.45Z</time></trkpt><trkpt lat="43.9866967" lon="12.384526"><ele>336.0</ele><time>2026-04-29T10:00:59.45Z</time></trkpt><trkpt lat="43.9866325" lon="12.3845924"><ele>336.0</ele><time>2026-04-29T10:01:00.45Z</time></trkpt><trkpt lat="43.9865797" lon="12.3846556"><ele>336.0</ele><time>2026-04-29T10:01:01.45Z</time></trkpt><trkpt lat="43.9865256" lon="12.3847215"><ele>336.0</ele><time>2026-04-29T10:01:02.45Z</time></trkpt><trkpt lat="43.9864662" lon="12.3847961"><ele>334.8</ele><time>2026-04-29T10:01:03.45Z</time></trkpt><trkpt lat="43.9863894" lon="12.3848855"><ele>333.6</ele><time>2026-04-29T10:01:04.45Z</time></trkpt><trkpt lat="43.9862998" lon="12.384975"><ele>332.4</ele><time>2026-04-29T10:01:05.45Z</time></trkpt><trkpt lat="43.9862017" lon="12.3850477"><ele>331.2</ele><time>2026-04-29T10:01:06.45Z</time></trkpt><trkpt lat="43.9861032" lon="12.385113"><ele>330.0</ele><time>2026-04-29T10:01:07.45Z</time></trkpt><trkpt lat="43.9860043" lon="12.3851651"><ele>330.0</ele><time>2026-04-29T10:01:08.45Z</time></trkpt><trkpt lat="43.9859045" lon="12.3852225"><ele>330.0</ele><time>2026-04-29T10:01:09.45Z</time></trkpt><trkpt lat="43.9858123" lon="12.3852743"><ele>330.0</ele><time>2026-04-29T10:01:10.45Z</time></trkpt><trkpt lat="43.9857269" lon="12.385325"><ele>330.0</ele><time>2026-04-29T10:01:11.45Z</time></trkpt><trkpt lat="43.9856463" lon="12.3853678"><ele>330.0</ele><time>2026-04-29T10:01:12.45Z</time></trkpt><trkpt lat="43.9855782" lon="12.3854012"><ele>329.3333333333333</ele><time>2026-04-29T10:01:13.45Z</time></trkpt><trkpt lat="43.9854675" lon="12.385457"><ele>328.6666666666667</ele><time>2026-04-29T10:01:15.45Z</time></trkpt><trkpt lat="43.9854045" lon="12.385487"><ele>328.0</ele><time>2026-04-29T10:01:16.45Z</time></trkpt><trkpt lat="43.9853331" lon="12.3855156"><ele>327.33333333333337</ele><time>2026-04-29T10:01:17.45Z</time></trkpt><trkpt lat="43.9852585" lon="12.3855401"><ele>326.6666666666667</ele><time>2026-04-29T10:01:18.45Z</time></trkpt><trkpt lat="43.9851895" lon="12.3855582"><ele>326.0</ele><time>2026-04-29T10:01:19.45Z</time></trkpt><trkpt lat="43.9850701" lon="12.3856215"><ele>327.20000000000005</ele><time>2026-04-29T10:01:21.45Z</time></trkpt><trkpt lat="43.985008" lon="12.3856834"><ele>328.40000000000003</ele><time>2026-04-29T10:01:22.45Z</time></trkpt><trkpt lat="43.9849513" lon="12.3857739"><ele>329.6</ele><time>2026-04-29T10:01:23.451Z</time></trkpt><trkpt lat="43.9848968" lon="12.3858989"><ele>330.8</ele><time>2026-04-29T10:01:24.45Z</time></trkpt><trkpt lat="43.9848284" lon="12.385999"><ele>332.0</ele><time>2026-04-29T10:01:25.45Z</time></trkpt><trkpt lat="43.9847539" lon="12.3860889"><ele>332.0</ele><time>2026-04-29T10:01:26.45Z</time></trkpt><trkpt lat="43.9846756" lon="12.3861736"><ele>332.0</ele><time>2026-04-29T10:01:27.45Z</time></trkpt><trkpt lat="43.9846037" lon="12.3862416"><ele>332.0</ele><time>2026-04-29T10:01:28.45Z</time></trkpt><trkpt lat="43.984526" lon="12.3863083"><ele>332.0</ele><time>2026-04-29T10:01:29.45Z</time></trkpt><trkpt lat="43.98444" lon="12.3863838"><ele>332.0</ele><time>2026-04-29T10:01:30.45Z</time></trkpt><trkpt lat="43.9843477" lon="12.3864625"><ele>330.75</ele><time>2026-04-29T10:01:31.45Z</time></trkpt><trkpt lat="43.9842499" lon="12.3865411"><ele>329.5</ele><time>2026-04-29T10:01:32.45Z</time></trkpt><trkpt lat="43.9841549" lon="12.3866206"><ele>328.25</ele><time>2026-04-29T10:01:33.45Z</time></trkpt><trkpt lat="43.9840594" lon="12.3867065"><ele>327.0</ele><time>2026-04-29T10:01:34.45Z</time></trkpt><trkpt lat="43.9839623" lon="12.3867892"><ele>327.0</ele><time>2026-04-29T10:01:35.451Z</time></trkpt><trkpt lat="43.9838654" lon="12.3868687"><ele>327.0</ele><time>2026-04-29T10:01:36.45Z</time></trkpt><trkpt lat="43.9837735" lon="12.3869337"><ele>327.0</ele><time>2026-04-29T10:01:37.45Z</time></trkpt><trkpt lat="43.9836885" lon="12.386995"><ele>327.0</ele><time>2026-04-29T10:01:38.45Z</time></trkpt><trkpt lat="43.9836074" lon="12.387049"><ele>327.0</ele><time>2026-04-29T10:01:39.45Z</time></trkpt><trkpt lat="43.9835311" lon="12.3871058"><ele>327.0</ele><time>2026-04-29T10:01:40.45Z</time></trkpt><trkpt lat="43.9834601" lon="12.3871681"><ele>327.0</ele><time>2026-04-29T10:01:41.45Z</time></trkpt><trkpt lat="43.9833979" lon="12.3872593"><ele>327.0</ele><time>2026-04-29T10:01:42.45Z</time></trkpt><trkpt lat="43.9833503" lon="12.3873734"><ele>327.0</ele><time>2026-04-29T10:01:43.45Z</time></trkpt><trkpt lat="43.9833136" lon="12.3875119"><ele>327.0</ele><time>2026-04-29T10:01:44.45Z</time></trkpt><trkpt lat="43.9832788" lon="12.3876444"><ele>325.0</ele><time>2026-04-29T10:01:45.45Z</time></trkpt><trkpt lat="43.9832346" lon="12.3877548"><ele>323.0</ele><time>2026-04-29T10:01:46.45Z</time></trkpt><trkpt lat="43.9831804" lon="12.3878536"><ele>321.0</ele><time>2026-04-29T10:01:47.45Z</time></trkpt><trkpt lat="43.9831144" lon="12.3879291"><ele>319.0</ele><time>2026-04-29T10:01:48.45Z</time></trkpt><trkpt lat="43.9830445" lon="12.3879973"><ele>317.0</ele><time>2026-04-29T10:01:49.45Z</time></trkpt><trkpt lat="43.9829874" lon="12.3880751"><ele>315.0</ele><time>2026-04-29T10:01:50.45Z</time></trkpt><trkpt lat="43.9829443" lon="12.3881741"><ele>314.2</ele><time>2026-04-29T10:01:51.45Z</time></trkpt><trkpt lat="43.9829204" lon="12.3882932"><ele>313.4</ele><time>2026-04-29T10:01:52.45Z</time></trkpt><trkpt lat="43.9829174" lon="12.388427"><ele>312.6</ele><time>2026-04-29T10:01:53.45Z</time></trkpt><trkpt lat="43.9829287" lon="12.388577"><ele>311.8</ele><time>2026-04-29T10:01:54.45Z</time></trkpt><trkpt lat="43.9829612" lon="12.3887168"><ele>311.0</ele><time>2026-04-29T10:01:55.45Z</time></trkpt><trkpt lat="43.9830021" lon="12.3888429"><ele>309.2</ele><time>2026-04-29T10:01:56.451Z</time></trkpt><trkpt lat="43.9830504" lon="12.3889554"><ele>307.40000000000003</ele><time>2026-04-29T10:01:57.45Z</time></trkpt><trkpt lat="43.9831067" lon="12.3890618"><ele>305.6</ele><time>2026-04-29T10:01:58.45Z</time></trkpt><trkpt lat="43.9831586" lon="12.389147"><ele>303.8</ele><time>2026-04-29T10:01:59.45Z</time></trkpt><trkpt lat="43.9832034" lon="12.3892239"><ele>302.0</ele><time>2026-04-29T10:02:00.45Z</time></trkpt><trkpt lat="43.9832484" lon="12.3893659"><ele>302.0</ele><time>2026-04-29T10:02:02.45Z</time></trkpt><trkpt lat="43.9832237" lon="12.3894922"><ele>302.0</ele><time>2026-04-29T10:02:04.451Z</time></trkpt><trkpt lat="43.9831275" lon="12.3896103"><ele>302.0</ele><time>2026-04-29T10:02:06.45Z</time></trkpt><trkpt lat="43.9830568" lon="12.3896623"><ele>302.0</ele><time>2026-04-29T10:02:07.45Z</time></trkpt><trkpt lat="43.9829884" lon="12.3896966"><ele>302.0</ele><time>2026-04-29T10:02:08.45Z</time></trkpt><trkpt lat="43.982929" lon="12.3897282"><ele>302.0</ele><time>2026-04-29T10:02:09.45Z</time></trkpt><trkpt lat="43.9828576" lon="12.3898486"><ele>298.83333333333337</ele><time>2026-04-29T10:02:11.45Z</time></trkpt><trkpt lat="43.982854" lon="12.389947"><ele>295.6666666666667</ele><time>2026-04-29T10:02:12.45Z</time></trkpt><trkpt lat="43.9828655" lon="12.3900582"><ele>292.5</ele><time>2026-04-29T10:02:13.45Z</time></trkpt><trkpt lat="43.9828927" lon="12.3901665"><ele>289.3333333333333</ele><time>2026-04-29T10:02:14.45Z</time></trkpt><trkpt lat="43.9829226" lon="12.3902756"><ele>286.16666666666663</ele><time>2026-04-29T10:02:15.451Z</time></trkpt><trkpt lat="43.9829432" lon="12.3903648"><ele>283.0</ele><time>2026-04-29T10:02:16.45Z</time></trkpt><trkpt lat="43.9829167" lon="12.3905197"><ele>279.8</ele><time>2026-04-29T10:02:18.45Z</time></trkpt><trkpt lat="43.9828623" lon="12.3905661"><ele>276.6</ele><time>2026-04-29T10:02:19.45Z</time></trkpt><trkpt lat="43.9827734" lon="12.3905871"><ele>273.4</ele><time>2026-04-29T10:02:20.451Z</time></trkpt><trkpt lat="43.9826623" lon="12.3906002"><ele>270.2</ele><time>2026-04-29T10:02:21.45Z</time></trkpt><trkpt lat="43.9825462" lon="12.3906033"><ele>267.0</ele><time>2026-04-29T10:02:22.45Z</time></trkpt><trkpt lat="43.9824409" lon="12.3906117"><ele>267.0</ele><time>2026-04-29T10:02:23.45Z</time></trkpt><trkpt lat="43.9823455" lon="12.3906296"><ele>267.0</ele><time>2026-04-29T10:02:24.451Z</time></trkpt><trkpt lat="43.9822578" lon="12.390663"><ele>267.0</ele><time>2026-04-29T10:02:25.45Z</time></trkpt><trkpt lat="43.9821738" lon="12.390732"><ele>267.0</ele><time>2026-04-29T10:02:26.45Z</time></trkpt><trkpt lat="43.9820939" lon="12.3908353"><ele>267.0</ele><time>2026-04-29T10:02:27.45Z</time></trkpt><trkpt lat="43.9820234" lon="12.3909615"><ele>267.0</ele><time>2026-04-29T10:02:28.45Z</time></trkpt><trkpt lat="43.981955" lon="12.3910892"><ele>267.0</ele><time>2026-04-29T10:02:29.45Z</time></trkpt><trkpt lat="43.9818935" lon="12.3912114"><ele>267.0</ele><time>2026-04-29T10:02:30.45Z</time></trkpt><trkpt lat="43.9818362" lon="12.391336"><ele>267.0</ele><time>2026-04-29T10:02:31.45Z</time></trkpt><trkpt lat="43.9817951" lon="12.3914754"><ele>267.0</ele><time>2026-04-29T10:02:32.45Z</time></trkpt><trkpt lat="43.9817765" lon="12.3916231"><ele>263.4</ele><time>2026-04-29T10:02:33.45Z</time></trkpt><trkpt lat="43.9817649" lon="12.3917804"><ele>259.79999999999995</ele><time>2026-04-29T10:02:34.45Z</time></trkpt><trkpt lat="43.9817619" lon="12.3919288"><ele>256.2</ele><time>2026-04-29T10:02:35.45Z</time></trkpt><trkpt lat="43.981763" lon="12.392074"><ele>252.6</ele><time>2026-04-29T10:02:36.45Z</time></trkpt><trkpt lat="43.9817712" lon="12.3922099"><ele>249.0</ele><time>2026-04-29T10:02:37.45Z</time></trkpt><trkpt lat="43.9817898" lon="12.3923472"><ele>245.5</ele><time>2026-04-29T10:02:38.449Z</time></trkpt><trkpt lat="43.9818084" lon="12.3924976"><ele>242.0</ele><time>2026-04-29T10:02:39.449Z</time></trkpt><trkpt lat="43.9818294" lon="12.3926592"><ele>238.5</ele><time>2026-04-29T10:02:40.449Z</time></trkpt><trkpt lat="43.9818469" lon="12.392828"><ele>235.0</ele><time>2026-04-29T10:02:41.449Z</time></trkpt><trkpt lat="43.9818758" lon="12.3929972"><ele>233.0</ele><time>2026-04-29T10:02:42.449Z</time></trkpt><trkpt lat="43.9819166" lon="12.3931531"><ele>231.0</ele><time>2026-04-29T10:02:43.449Z</time></trkpt><trkpt lat="43.9819694" lon="12.3933007"><ele>229.0</ele><time>2026-04-29T10:02:44.449Z</time></trkpt><trkpt lat="43.9820195" lon="12.3934466"><ele>227.0</ele><time>2026-04-29T10:02:45.449Z</time></trkpt><trkpt lat="43.9820658" lon="12.3935914"><ele>227.0</ele><time>2026-04-29T10:02:46.449Z</time></trkpt><trkpt lat="43.9820958" lon="12.3937312"><ele>227.0</ele><time>2026-04-29T10:02:47.449Z</time></trkpt><trkpt lat="43.9821161" lon="12.3938668"><ele>227.0</ele><time>2026-04-29T10:02:48.449Z</time></trkpt><trkpt lat="43.9821224" lon="12.393993"><ele>227.0</ele><time>2026-04-29T10:02:49.449Z</time></trkpt><trkpt lat="43.9821109" lon="12.3941227"><ele>227.0</ele><time>2026-04-29T10:02:50.449Z</time></trkpt><trkpt lat="43.9820819" lon="12.3942586"><ele>225.6</ele><time>2026-04-29T10:02:51.449Z</time></trkpt><trkpt lat="43.9820408" lon="12.3943947"><ele>224.2</ele><time>2026-04-29T10:02:52.449Z</time></trkpt><trkpt lat="43.9819879" lon="12.3945339"><ele>222.8</ele><time>2026-04-29T10:02:53.449Z</time></trkpt><trkpt lat="43.9819348" lon="12.3946621"><ele>221.4</ele><time>2026-04-29T10:02:54.449Z</time></trkpt><trkpt lat="43.9818943" lon="12.3947913"><ele>220.0</ele><time>2026-04-29T10:02:55.449Z</time></trkpt><trkpt lat="43.981866" lon="12.3949224"><ele>218.2</ele><time>2026-04-29T10:02:56.449Z</time></trkpt><trkpt lat="43.9818452" lon="12.395057"><ele>216.4</ele><time>2026-04-29T10:02:57.449Z</time></trkpt><trkpt lat="43.9818316" lon="12.3951863"><ele>214.60000000000002</ele><time>2026-04-29T10:02:58.45Z</time></trkpt><trkpt lat="43.9818241" lon="12.3953168"><ele>212.8</ele><time>2026-04-29T10:02:59.449Z</time></trkpt><trkpt lat="43.9818223" lon="12.3954514"><ele>211.0</ele><time>2026-04-29T10:03:00.449Z</time></trkpt><trkpt lat="43.9818226" lon="12.3955827"><ele>209.20000000000002</ele><time>2026-04-29T10:03:01.449Z</time></trkpt><trkpt lat="43.9818503" lon="12.3957286"><ele>207.4</ele><time>2026-04-29T10:03:02.449Z</time></trkpt><trkpt lat="43.9818898" lon="12.3958675"><ele>205.6</ele><time>2026-04-29T10:03:03.449Z</time></trkpt><trkpt lat="43.9819436" lon="12.3960051"><ele>203.8</ele><time>2026-04-29T10:03:04.449Z</time></trkpt><trkpt lat="43.9819974" lon="12.3961372"><ele>202.0</ele><time>2026-04-29T10:03:05.449Z</time></trkpt><trkpt lat="43.9820512" lon="12.3962756"><ele>200.75</ele><time>2026-04-29T10:03:06.449Z</time></trkpt><trkpt lat="43.9821004" lon="12.3964149"><ele>199.5</ele><time>2026-04-29T10:03:07.449Z</time></trkpt><trkpt lat="43.9821352" lon="12.3965767"><ele>198.25</ele><time>2026-04-29T10:03:08.449Z</time></trkpt><trkpt lat="43.9821571" lon="12.396745"><ele>197.0</ele><time>2026-04-29T10:03:09.449Z</time></trkpt><trkpt lat="43.9821731" lon="12.3969051"><ele>197.0</ele><time>2026-04-29T10:03:10.449Z</time></trkpt><trkpt lat="43.9821849" lon="12.3970585"><ele>197.0</ele><time>2026-04-29T10:03:11.449Z</time></trkpt><trkpt lat="43.9821924" lon="12.3972036"><ele>197.0</ele><time>2026-04-29T10:03:12.45Z</time></trkpt><trkpt lat="43.9821969" lon="12.3973368"><ele>197.0</ele><time>2026-04-29T10:03:13.449Z</time></trkpt><trkpt lat="43.9822001" lon="12.3974638"><ele>197.0</ele><time>2026-04-29T10:03:14.449Z</time></trkpt><trkpt lat="43.9821979" lon="12.3975828"><ele>197.0</ele><time>2026-04-29T10:03:15.449Z</time></trkpt><trkpt lat="43.9821826" lon="12.3977153"><ele>197.0</ele><time>2026-04-29T10:03:16.449Z</time></trkpt><trkpt lat="43.9821629" lon="12.397866"><ele>197.0</ele><time>2026-04-29T10:03:17.449Z</time></trkpt><trkpt lat="43.9821386" lon="12.3980239"><ele>197.0</ele><time>2026-04-29T10:03:18.449Z</time></trkpt><trkpt lat="43.9821202" lon="12.3981766"><ele>197.0</ele><time>2026-04-29T10:03:19.449Z</time></trkpt><trkpt lat="43.9821018" lon="12.3983269"><ele>197.0</ele><time>2026-04-29T10:03:20.449Z</time></trkpt><trkpt lat="43.9820794" lon="12.3984793"><ele>197.0</ele><time>2026-04-29T10:03:21.449Z</time></trkpt><trkpt lat="43.982049" lon="12.3986213"><ele>197.0</ele><time>2026-04-29T10:03:22.449Z</time></trkpt><trkpt lat="43.9820226" lon="12.3987648"><ele>197.0</ele><time>2026-04-29T10:03:23.449Z</time></trkpt><trkpt lat="43.9820019" lon="12.3989013"><ele>197.0</ele><time>2026-04-29T10:03:24.449Z</time></trkpt><trkpt lat="43.9819933" lon="12.399035"><ele>195.39999999999998</ele><time>2026-04-29T10:03:25.449Z</time></trkpt><trkpt lat="43.9819933" lon="12.3991678"><ele>193.79999999999998</ele><time>2026-04-29T10:03:26.449Z</time></trkpt><trkpt lat="43.9820049" lon="12.3992919"><ele>192.2</ele><time>2026-04-29T10:03:27.449Z</time></trkpt><trkpt lat="43.9820276" lon="12.3994128"><ele>190.6</ele><time>2026-04-29T10:03:28.449Z</time></trkpt><trkpt lat="43.9820683" lon="12.399532"><ele>189.0</ele><time>2026-04-29T10:03:29.449Z</time></trkpt><trkpt lat="43.9821253" lon="12.3996355"><ele>185.79999999999998</ele><time>2026-04-29T10:03:30.449Z</time></trkpt><trkpt lat="43.9821966" lon="12.3997317"><ele>182.6</ele><time>2026-04-29T10:03:31.449Z</time></trkpt><trkpt lat="43.9822792" lon="12.3998126"><ele>179.4</ele><time>2026-04-29T10:03:32.449Z</time></trkpt><trkpt lat="43.9823709" lon="12.3998814"><ele>176.2</ele><time>2026-04-29T10:03:33.449Z</time></trkpt><trkpt lat="43.9824738" lon="12.3999368"><ele>173.0</ele><time>2026-04-29T10:03:34.449Z</time></trkpt><trkpt lat="43.9825779" lon="12.3999805"><ele>172.0</ele><time>2026-04-29T10:03:35.449Z</time></trkpt><trkpt lat="43.9826769" lon="12.4000174"><ele>171.0</ele><time>2026-04-29T10:03:36.449Z</time></trkpt><trkpt lat="43.9827732" lon="12.4000466"><ele>170.0</ele><time>2026-04-29T10:03:37.449Z</time></trkpt><trkpt lat="43.9828679" lon="12.400071"><ele>169.0</ele><time>2026-04-29T10:03:38.449Z</time></trkpt><trkpt lat="43.9829554" lon="12.4000883"><ele>168.0</ele><time>2026-04-29T10:03:39.449Z</time></trkpt><trkpt lat="43.9830412" lon="12.4001068"><ele>168.0</ele><time>2026-04-29T10:03:40.45Z</time></trkpt><trkpt lat="43.983122" lon="12.4001192"><ele>168.0</ele><time>2026-04-29T10:03:41.449Z</time></trkpt><trkpt lat="43.9831951" lon="12.4001343"><ele>168.0</ele><time>2026-04-29T10:03:42.449Z</time></trkpt><trkpt lat="43.9832599" lon="12.4001491"><ele>168.0</ele><time>2026-04-29T10:03:43.449Z</time></trkpt><trkpt lat="43.9833375" lon="12.4002412"><ele>168.0</ele><time>2026-04-29T10:03:45.449Z</time></trkpt><trkpt lat="43.9833488" lon="12.4003283"><ele>168.0</ele><time>2026-04-29T10:03:46.449Z</time></trkpt><trkpt lat="43.9833289" lon="12.4004262"><ele>165.83333333333334</ele><time>2026-04-29T10:03:47.449Z</time></trkpt><trkpt lat="43.9832827" lon="12.4005212"><ele>163.66666666666666</ele><time>2026-04-29T10:03:48.449Z</time></trkpt><trkpt lat="43.9832294" lon="12.4006128"><ele>161.5</ele><time>2026-04-29T10:03:49.449Z</time></trkpt><trkpt lat="43.9831762" lon="12.4006988"><ele>159.33333333333331</ele><time>2026-04-29T10:03:50.449Z</time></trkpt><trkpt lat="43.9831379" lon="12.4007871"><ele>157.16666666666666</ele><time>2026-04-29T10:03:51.449Z</time></trkpt><trkpt lat="43.983129" lon="12.4008796"><ele>155.0</ele><time>2026-04-29T10:03:52.449Z</time></trkpt><trkpt lat="43.9831485" lon="12.4009631"><ele>155.0</ele><time>2026-04-29T10:03:53.449Z</time></trkpt><trkpt lat="43.9831827" lon="12.4010392"><ele>155.0</ele><time>2026-04-29T10:03:54.449Z</time></trkpt><trkpt lat="43.983318" lon="12.4010811"><ele>155.0</ele><time>2026-04-29T10:03:56.449Z</time></trkpt><trkpt lat="43.9834003" lon="12.4010671"><ele>155.0</ele><time>2026-04-29T10:03:57.449Z</time></trkpt><trkpt lat="43.9834911" lon="12.4010193"><ele>155.0</ele><time>2026-04-29T10:03:58.449Z</time></trkpt><trkpt lat="43.9835786" lon="12.4009506"><ele>152.83333333333331</ele><time>2026-04-29T10:03:59.449Z</time></trkpt><trkpt lat="43.9836664" lon="12.4008846"><ele>150.66666666666666</ele><time>2026-04-29T10:04:00.45Z</time></trkpt><trkpt lat="43.9837495" lon="12.4008237"><ele>148.5</ele><time>2026-04-29T10:04:01.449Z</time></trkpt><trkpt lat="43.9838258" lon="12.400776"><ele>146.33333333333334</ele><time>2026-04-29T10:04:02.449Z</time></trkpt><trkpt lat="43.9838983" lon="12.4007503"><ele>144.16666666666669</ele><time>2026-04-29T10:04:03.449Z</time></trkpt><trkpt lat="43.9839662" lon="12.400749"><ele>142.0</ele><time>2026-04-29T10:04:04.449Z</time></trkpt><trkpt lat="43.98404" lon="12.4007725"><ele>142.0</ele><time>2026-04-29T10:04:05.449Z</time></trkpt><trkpt lat="43.9841083" lon="12.4008145"><ele>142.0</ele><time>2026-04-29T10:04:06.45Z</time></trkpt><trkpt lat="43.9841758" lon="12.4008948"><ele>142.0</ele><time>2026-04-29T10:04:07.449Z</time></trkpt><trkpt lat="43.9842367" lon="12.4010058"><ele>142.0</ele><time>2026-04-29T10:04:08.449Z</time></trkpt><trkpt lat="43.9842942" lon="12.4011252"><ele>142.0</ele><time>2026-04-29T10:04:09.449Z</time></trkpt><trkpt lat="43.9843478" lon="12.4012351"><ele>138.6</ele><time>2026-04-29T10:04:10.449Z</time></trkpt><trkpt lat="43.9844013" lon="12.4013472"><ele>135.2</ele><time>2026-04-29T10:04:11.449Z</time></trkpt><trkpt lat="43.9844543" lon="12.4014588"><ele>131.8</ele><time>2026-04-29T10:04:12.449Z</time></trkpt><trkpt lat="43.984504" lon="12.4015644"><ele>128.4</ele><time>2026-04-29T10:04:13.449Z</time></trkpt><trkpt lat="43.9845431" lon="12.4016692"><ele>125.0</ele><time>2026-04-29T10:04:14.449Z</time></trkpt><trkpt lat="43.9845767" lon="12.4017742"><ele>124.99999999999999</ele><time>2026-04-29T10:04:15.449Z</time></trkpt><trkpt lat="43.984592" lon="12.4018832"><ele>125.0</ele><time>2026-04-29T10:04:16.449Z</time></trkpt><trkpt lat="43.9845907" lon="12.4019912"><ele>125.0</ele><time>2026-04-29T10:04:17.449Z</time></trkpt><trkpt lat="43.9845686" lon="12.4020963"><ele>125.0</ele><time>2026-04-29T10:04:18.449Z</time></trkpt><trkpt lat="43.9845237" lon="12.4021862"><ele>124.99999999999999</ele><time>2026-04-29T10:04:19.449Z</time></trkpt><trkpt lat="43.9844559" lon="12.4022631"><ele>125.0</ele><time>2026-04-29T10:04:20.449Z</time></trkpt><trkpt lat="43.9843785" lon="12.4023339"><ele>124.8</ele><time>2026-04-29T10:04:21.449Z</time></trkpt><trkpt lat="43.9842953" lon="12.4023957"><ele>124.6</ele><time>2026-04-29T10:04:22.449Z</time></trkpt><trkpt lat="43.9842167" lon="12.4024647"><ele>124.4</ele><time>2026-04-29T10:04:23.449Z</time></trkpt><trkpt lat="43.9841379" lon="12.4025361"><ele>124.2</ele><time>2026-04-29T10:04:24.45Z</time></trkpt><trkpt lat="43.9840614" lon="12.4026046"><ele>124.0</ele><time>2026-04-29T10:04:25.449Z</time></trkpt><trkpt lat="43.9839866" lon="12.4026699"><ele>124.00000000000001</ele><time>2026-04-29T10:04:26.449Z</time></trkpt><trkpt lat="43.983915" lon="12.4027299"><ele>124.0</ele><time>2026-04-29T10:04:27.449Z</time></trkpt><trkpt lat="43.9838436" lon="12.4027872"><ele>124.0</ele><time>2026-04-29T10:04:28.449Z</time></trkpt><trkpt lat="43.9837817" lon="12.4028492"><ele>124.0</ele><time>2026-04-29T10:04:29.449Z</time></trkpt><trkpt lat="43.983731" lon="12.4029182"><ele>124.00000000000001</ele><time>2026-04-29T10:04:30.449Z</time></trkpt><trkpt lat="43.9836947" lon="12.4030661"><ele>124.0</ele><time>2026-04-29T10:04:32.45Z</time></trkpt><trkpt lat="43.9836803" lon="12.4032481"><ele>122.6</ele><time>2026-04-29T10:04:34.449Z</time></trkpt><trkpt lat="43.9836587" lon="12.4033451"><ele>121.2</ele><time>2026-04-29T10:04:35.449Z</time></trkpt><trkpt lat="43.9836142" lon="12.4034408"><ele>119.79999999999998</ele><time>2026-04-29T10:04:36.449Z</time></trkpt><trkpt lat="43.9835403" lon="12.4035512"><ele>118.39999999999999</ele><time>2026-04-29T10:04:37.449Z</time></trkpt><trkpt lat="43.9834537" lon="12.4036658"><ele>117.0</ele><time>2026-04-29T10:04:38.45Z</time></trkpt><trkpt lat="43.9833714" lon="12.4037771"><ele>115.8</ele><time>2026-04-29T10:04:39.449Z</time></trkpt><trkpt lat="43.983291" lon="12.4038928"><ele>114.6</ele><time>2026-04-29T10:04:40.449Z</time></trkpt><trkpt lat="43.983225" lon="12.4039986"><ele>113.39999999999999</ele><time>2026-04-29T10:04:41.449Z</time></trkpt><trkpt lat="43.9831686" lon="12.4040897"><ele>112.19999999999999</ele><time>2026-04-29T10:04:42.449Z</time></trkpt><trkpt lat="43.9831213" lon="12.4041602"><ele>111.0</ele><time>2026-04-29T10:04:43.449Z</time></trkpt><trkpt lat="43.9830542" lon="12.4042139"><ele>111.0</ele><time>2026-04-29T10:04:45.449Z</time></trkpt><trkpt lat="43.9829254" lon="12.4042146"><ele>111.0</ele><time>2026-04-29T10:04:47.449Z</time></trkpt><trkpt lat="43.9828291" lon="12.4042353"><ele>111.0</ele><time>2026-04-29T10:04:48.449Z</time></trkpt><trkpt lat="43.9827217" lon="12.4042744"><ele>111.0</ele><time>2026-04-29T10:04:49.449Z</time></trkpt><trkpt lat="43.9826104" lon="12.4043207"><ele>113.0</ele><time>2026-04-29T10:04:50.449Z</time></trkpt><trkpt lat="43.982494" lon="12.4043718"><ele>115.0</ele><time>2026-04-29T10:04:51.449Z</time></trkpt><trkpt lat="43.9823706" lon="12.4044226"><ele>117.0</ele><time>2026-04-29T10:04:52.449Z</time></trkpt><trkpt lat="43.982243" lon="12.4044734"><ele>119.0</ele><time>2026-04-29T10:04:53.449Z</time></trkpt><trkpt lat="43.9821134" lon="12.4045347"><ele>119.0</ele><time>2026-04-29T10:04:54.449Z</time></trkpt><trkpt lat="43.9819825" lon="12.4045981"><ele>119.0</ele><time>2026-04-29T10:04:55.449Z</time></trkpt><trkpt lat="43.9818534" lon="12.4046642"><ele>119.0</ele><time>2026-04-29T10:04:56.449Z</time></trkpt><trkpt lat="43.9817259" lon="12.4047336"><ele>119.0</ele><time>2026-04-29T10:04:57.449Z</time></trkpt><trkpt lat="43.9815979" lon="12.4048045"><ele>116.5</ele><time>2026-04-29T10:04:58.449Z</time></trkpt><trkpt lat="43.9814714" lon="12.4048743"><ele>114.0</ele><time>2026-04-29T10:04:59.449Z</time></trkpt><trkpt lat="43.9813475" lon="12.404951"><ele>111.5</ele><time>2026-04-29T10:05:00.449Z</time></trkpt><trkpt lat="43.9812372" lon="12.4050476"><ele>109.0</ele><time>2026-04-29T10:05:01.45Z</time></trkpt><trkpt lat="43.9811405" lon="12.4051448"><ele>109.0</ele><time>2026-04-29T10:05:02.449Z</time></trkpt><trkpt lat="43.981054" lon="12.4052358"><ele>109.0</ele><time>2026-04-29T10:05:03.449Z</time></trkpt><trkpt lat="43.9809785" lon="12.4052985"><ele>109.0</ele><time>2026-04-29T10:05:04.449Z</time></trkpt><trkpt lat="43.9809024" lon="12.405346"><ele>109.0</ele><time>2026-04-29T10:05:05.45Z</time></trkpt><trkpt lat="43.9808264" lon="12.4053599"><ele>109.0</ele><time>2026-04-29T10:05:06.449Z</time></trkpt><trkpt lat="43.980733" lon="12.4053555"><ele>111.5</ele><time>2026-04-29T10:05:07.449Z</time></trkpt><trkpt lat="43.980624" lon="12.4053448"><ele>114.0</ele><time>2026-04-29T10:05:08.449Z</time></trkpt><trkpt lat="43.9805031" lon="12.4053437"><ele>116.5</ele><time>2026-04-29T10:05:09.45Z</time></trkpt><trkpt lat="43.9803789" lon="12.4053668"><ele>119.0</ele><time>2026-04-29T10:05:10.449Z</time></trkpt><trkpt lat="43.9802447" lon="12.4054094"><ele>119.0</ele><time>2026-04-29T10:05:11.449Z</time></trkpt><trkpt lat="43.9801088" lon="12.4054571"><ele>119.0</ele><time>2026-04-29T10:05:12.449Z</time></trkpt><trkpt lat="43.9799709" lon="12.4054878"><ele>119.0</ele><time>2026-04-29T10:05:13.449Z</time></trkpt><trkpt lat="43.9798358" lon="12.4054779"><ele>119.0</ele><time>2026-04-29T10:05:14.449Z</time></trkpt><trkpt lat="43.9797045" lon="12.405436"><ele>119.0</ele><time>2026-04-29T10:05:15.449Z</time></trkpt><trkpt lat="43.9795744" lon="12.4053732"><ele>119.0</ele><time>2026-04-29T10:05:16.449Z</time></trkpt><trkpt lat="43.9794497" lon="12.4053045"><ele>119.0</ele><time>2026-04-29T10:05:17.449Z</time></trkpt><trkpt lat="43.9793327" lon="12.4052346"><ele>119.0</ele><time>2026-04-29T10:05:18.449Z</time></trkpt><trkpt lat="43.9792328" lon="12.4051712"><ele>119.6</ele><time>2026-04-29T10:05:19.45Z</time></trkpt><trkpt lat="43.9791351" lon="12.4051263"><ele>120.2</ele><time>2026-04-29T10:05:20.449Z</time></trkpt><trkpt lat="43.9790458" lon="12.4051118"><ele>120.79999999999998</ele><time>2026-04-29T10:05:21.449Z</time></trkpt><trkpt lat="43.9789596" lon="12.4051044"><ele>121.39999999999999</ele><time>2026-04-29T10:05:22.45Z</time></trkpt><trkpt lat="43.9788715" lon="12.4051097"><ele>122.0</ele><time>2026-04-29T10:05:23.45Z</time></trkpt><trkpt lat="43.9787826" lon="12.4051395"><ele>122.0</ele><time>2026-04-29T10:05:24.449Z</time></trkpt><trkpt lat="43.9786999" lon="12.4051878"><ele>121.99999999999999</ele><time>2026-04-29T10:05:25.45Z</time></trkpt><trkpt lat="43.9786211" lon="12.4052533"><ele>121.99999999999999</ele><time>2026-04-29T10:05:26.45Z</time></trkpt><trkpt lat="43.9785454" lon="12.4053376"><ele>122.0</ele><time>2026-04-29T10:05:27.449Z</time></trkpt><trkpt lat="43.9784606" lon="12.4054143"><ele>122.0</ele><time>2026-04-29T10:05:28.449Z</time></trkpt><trkpt lat="43.9783697" lon="12.4054877"><ele>120.8</ele><time>2026-04-29T10:05:29.449Z</time></trkpt><trkpt lat="43.9782756" lon="12.4055542"><ele>119.6</ele><time>2026-04-29T10:05:30.45Z</time></trkpt><trkpt lat="43.9781768" lon="12.4056049"><ele>118.39999999999999</ele><time>2026-04-29T10:05:31.449Z</time></trkpt><trkpt lat="43.978068" lon="12.4056433"><ele>117.19999999999999</ele><time>2026-04-29T10:05:32.449Z</time></trkpt><trkpt lat="43.9779531" lon="12.4056623"><ele>116.0</ele><time>2026-04-29T10:05:33.449Z</time></trkpt><trkpt lat="43.9778314" lon="12.4056688"><ele>116.0</ele><time>2026-04-29T10:05:34.449Z</time></trkpt><trkpt lat="43.9777081" lon="12.4056708"><ele>116.0</ele><time>2026-04-29T10:05:35.45Z</time></trkpt><trkpt lat="43.9775916" lon="12.405649"><ele>116.0</ele><time>2026-04-29T10:05:36.449Z</time></trkpt><trkpt lat="43.9774778" lon="12.4055971"><ele>116.0</ele><time>2026-04-29T10:05:37.449Z</time></trkpt><trkpt lat="43.9773563" lon="12.4055513"><ele>116.5</ele><time>2026-04-29T10:05:38.45Z</time></trkpt><trkpt lat="43.9772445" lon="12.405521"><ele>117.0</ele><time>2026-04-29T10:05:39.449Z</time></trkpt><trkpt lat="43.97713" lon="12.4055116"><ele>117.5</ele><time>2026-04-29T10:05:40.449Z</time></trkpt><trkpt lat="43.9770104" lon="12.4055145"><ele>118.0</ele><time>2026-04-29T10:05:41.449Z</time></trkpt><trkpt lat="43.9768878" lon="12.4055266"><ele>118.0</ele><time>2026-04-29T10:05:42.45Z</time></trkpt><trkpt lat="43.9767633" lon="12.4055462"><ele>118.0</ele><time>2026-04-29T10:05:43.449Z</time></trkpt><trkpt lat="43.9766366" lon="12.4055734"><ele>118.0</ele><time>2026-04-29T10:05:44.449Z</time></trkpt><trkpt lat="43.9765068" lon="12.4056046"><ele>118.0</ele><time>2026-04-29T10:05:45.449Z</time></trkpt><trkpt lat="43.9763779" lon="12.4056182"><ele>118.0</ele><time>2026-04-29T10:05:46.449Z</time></trkpt><trkpt lat="43.976245" lon="12.4056139"><ele>118.0</ele><time>2026-04-29T10:05:47.449Z</time></trkpt><trkpt lat="43.9761223" lon="12.4055979"><ele>118.0</ele><time>2026-04-29T10:05:48.449Z</time></trkpt><trkpt lat="43.9760131" lon="12.405573"><ele>118.0</ele><time>2026-04-29T10:05:49.45Z</time></trkpt><trkpt lat="43.9759108" lon="12.4055401"><ele>119.4</ele><time>2026-04-29T10:05:50.449Z</time></trkpt><trkpt lat="43.9758153" lon="12.4054888"><ele>120.80000000000001</ele><time>2026-04-29T10:05:51.45Z</time></trkpt><trkpt lat="43.9757254" lon="12.4054174"><ele>122.2</ele><time>2026-04-29T10:05:52.449Z</time></trkpt><trkpt lat="43.9756371" lon="12.4053239"><ele>123.6</ele><time>2026-04-29T10:05:53.449Z</time></trkpt><trkpt lat="43.9755614" lon="12.4052002"><ele>125.0</ele><time>2026-04-29T10:05:54.449Z</time></trkpt><trkpt lat="43.9754926" lon="12.4050674"><ele>125.0</ele><time>2026-04-29T10:05:55.449Z</time></trkpt><trkpt lat="43.9754367" lon="12.4049174"><ele>125.0</ele><time>2026-04-29T10:05:56.449Z</time></trkpt><trkpt lat="43.9753968" lon="12.404762"><ele>125.0</ele><time>2026-04-29T10:05:57.45Z</time></trkpt><trkpt lat="43.9753628" lon="12.4045932"><ele>125.0</ele><time>2026-04-29T10:05:58.449Z</time></trkpt><trkpt lat="43.9753354" lon="12.404429"><ele>124.8</ele><time>2026-04-29T10:05:59.449Z</time></trkpt><trkpt lat="43.9753012" lon="12.4042802"><ele>124.6</ele><time>2026-04-29T10:06:00.449Z</time></trkpt><trkpt lat="43.9752469" lon="12.4041545"><ele>124.4</ele><time>2026-04-29T10:06:01.449Z</time></trkpt><trkpt lat="43.9751701" lon="12.4040433"><ele>124.2</ele><time>2026-04-29T10:06:02.45Z</time></trkpt><trkpt lat="43.9750808" lon="12.403941"><ele>124.0</ele><time>2026-04-29T10:06:03.449Z</time></trkpt><trkpt lat="43.9749816" lon="12.4038455"><ele>126.5</ele><time>2026-04-29T10:06:04.449Z</time></trkpt><trkpt lat="43.9748808" lon="12.4037492"><ele>129.0</ele><time>2026-04-29T10:06:05.449Z</time></trkpt><trkpt lat="43.9747818" lon="12.40365"><ele>131.5</ele><time>2026-04-29T10:06:06.449Z</time></trkpt><trkpt lat="43.9746914" lon="12.4035449"><ele>134.0</ele><time>2026-04-29T10:06:07.449Z</time></trkpt><trkpt lat="43.9746103" lon="12.4034177"><ele>134.0</ele><time>2026-04-29T10:06:08.449Z</time></trkpt><trkpt lat="43.9745325" lon="12.4032749"><ele>134.0</ele><time>2026-04-29T10:06:09.449Z</time></trkpt><trkpt lat="43.9744547" lon="12.403121"><ele>134.0</ele><time>2026-04-29T10:06:10.449Z</time></trkpt><trkpt lat="43.9743768" lon="12.4029629"><ele>134.0</ele><time>2026-04-29T10:06:11.449Z</time></trkpt><trkpt lat="43.9742974" lon="12.4028087"><ele>133.75</ele><time>2026-04-29T10:06:12.449Z</time></trkpt><trkpt lat="43.9742234" lon="12.402661"><ele>133.5</ele><time>2026-04-29T10:06:13.449Z</time></trkpt><trkpt lat="43.9741475" lon="12.4025146"><ele>133.25</ele><time>2026-04-29T10:06:14.449Z</time></trkpt><trkpt lat="43.9740745" lon="12.402375"><ele>133.0</ele><time>2026-04-29T10:06:15.449Z</time></trkpt><trkpt lat="43.97401" lon="12.4022477"><ele>134.0</ele><time>2026-04-29T10:06:16.449Z</time></trkpt><trkpt lat="43.9739541" lon="12.4021256"><ele>135.0</ele><time>2026-04-29T10:06:17.449Z</time></trkpt><trkpt lat="43.9739103" lon="12.4020005"><ele>136.0</ele><time>2026-04-29T10:06:18.449Z</time></trkpt><trkpt lat="43.9738752" lon="12.4018625"><ele>137.0</ele><time>2026-04-29T10:06:19.449Z</time></trkpt><trkpt lat="43.9738519" lon="12.4017074"><ele>138.0</ele><time>2026-04-29T10:06:20.449Z</time></trkpt><trkpt lat="43.973828" lon="12.4015442"><ele>138.0</ele><time>2026-04-29T10:06:21.449Z</time></trkpt><trkpt lat="43.9737928" lon="12.4013795"><ele>138.0</ele><time>2026-04-29T10:06:22.449Z</time></trkpt><trkpt lat="43.9737351" lon="12.401214"><ele>138.0</ele><time>2026-04-29T10:06:23.449Z</time></trkpt><trkpt lat="43.97366" lon="12.4010454"><ele>138.0</ele><time>2026-04-29T10:06:24.449Z</time></trkpt><trkpt lat="43.9735758" lon="12.4008816"><ele>138.5</ele><time>2026-04-29T10:06:25.449Z</time></trkpt><trkpt lat="43.9734919" lon="12.4007173"><ele>139.0</ele><time>2026-04-29T10:06:26.449Z</time></trkpt><trkpt lat="43.9734124" lon="12.4005545"><ele>139.5</ele><time>2026-04-29T10:06:27.449Z</time></trkpt><trkpt lat="43.9733334" lon="12.4003884"><ele>140.0</ele><time>2026-04-29T10:06:28.449Z</time></trkpt><trkpt lat="43.9732532" lon="12.4002259"><ele>140.0</ele><time>2026-04-29T10:06:29.449Z</time></trkpt><trkpt lat="43.9731691" lon="12.4000703"><ele>140.0</ele><time>2026-04-29T10:06:30.449Z</time></trkpt><trkpt lat="43.9730899" lon="12.3999178"><ele>140.0</ele><time>2026-04-29T10:06:31.449Z</time></trkpt><trkpt lat="43.9730135" lon="12.3997791"><ele>140.0</ele><time>2026-04-29T10:06:32.45Z</time></trkpt><trkpt lat="43.9729344" lon="12.3996685"><ele>142.0</ele><time>2026-04-29T10:06:33.449Z</time></trkpt><trkpt lat="43.9728492" lon="12.3996131"><ele>144.0</ele><time>2026-04-29T10:06:34.449Z</time></trkpt><trkpt lat="43.9727536" lon="12.399598"><ele>146.0</ele><time>2026-04-29T10:06:35.449Z</time></trkpt><trkpt lat="43.9726486" lon="12.3996015"><ele>148.0</ele><time>2026-04-29T10:06:36.449Z</time></trkpt><trkpt lat="43.9725421" lon="12.399607"><ele>150.0</ele><time>2026-04-29T10:06:37.449Z</time></trkpt><trkpt lat="43.9724473" lon="12.3995886"><ele>152.0</ele><time>2026-04-29T10:06:38.45Z</time></trkpt><trkpt lat="43.9723653" lon="12.3995498"><ele>154.0</ele><time>2026-04-29T10:06:39.449Z</time></trkpt><trkpt lat="43.9722923" lon="12.3994857"><ele>156.0</ele><time>2026-04-29T10:06:40.449Z</time></trkpt><trkpt lat="43.9722279" lon="12.3993969"><ele>158.0</ele><time>2026-04-29T10:06:41.449Z</time></trkpt><trkpt lat="43.9721607" lon="12.3992872"><ele>160.0</ele><time>2026-04-29T10:06:42.449Z</time></trkpt><trkpt lat="43.9720802" lon="12.3991733"><ele>160.0</ele><time>2026-04-29T10:06:43.449Z</time></trkpt><trkpt lat="43.9719895" lon="12.3990733"><ele>160.0</ele><time>2026-04-29T10:06:44.449Z</time></trkpt><trkpt lat="43.9718925" lon="12.3990074"><ele>160.0</ele><time>2026-04-29T10:06:45.449Z</time></trkpt><trkpt lat="43.9717917" lon="12.3989699"><ele>160.0</ele><time>2026-04-29T10:06:46.45Z</time></trkpt><trkpt lat="43.9716904" lon="12.3989464"><ele>160.0</ele><time>2026-04-29T10:06:47.449Z</time></trkpt><trkpt lat="43.9715913" lon="12.3989286"><ele>159.33333333333334</ele><time>2026-04-29T10:06:48.449Z</time></trkpt><trkpt lat="43.9714955" lon="12.3989142"><ele>158.66666666666669</ele><time>2026-04-29T10:06:49.449Z</time></trkpt><trkpt lat="43.971403" lon="12.3988957"><ele>158.0</ele><time>2026-04-29T10:06:50.449Z</time></trkpt><trkpt lat="43.9713136" lon="12.3988724"><ele>157.33333333333334</ele><time>2026-04-29T10:06:51.449Z</time></trkpt><trkpt lat="43.9712319" lon="12.3988379"><ele>156.66666666666666</ele><time>2026-04-29T10:06:52.449Z</time></trkpt><trkpt lat="43.9711608" lon="12.3987911"><ele>156.0</ele><time>2026-04-29T10:06:53.449Z</time></trkpt><trkpt lat="43.9710933" lon="12.3987386"><ele>156.8</ele><time>2026-04-29T10:06:54.449Z</time></trkpt><trkpt lat="43.9710257" lon="12.3986751"><ele>157.6</ele><time>2026-04-29T10:06:55.449Z</time></trkpt><trkpt lat="43.9709615" lon="12.3986104"><ele>158.4</ele><time>2026-04-29T10:06:56.449Z</time></trkpt><trkpt lat="43.9709028" lon="12.3985259"><ele>159.2</ele><time>2026-04-29T10:06:57.449Z</time></trkpt><trkpt lat="43.9708456" lon="12.3984154"><ele>160.0</ele><time>2026-04-29T10:06:58.449Z</time></trkpt><trkpt lat="43.9707951" lon="12.3982831"><ele>160.0</ele><time>2026-04-29T10:06:59.449Z</time></trkpt><trkpt lat="43.9707487" lon="12.3981419"><ele>160.0</ele><time>2026-04-29T10:07:00.449Z</time></trkpt><trkpt lat="43.9707002" lon="12.3979982"><ele>160.0</ele><time>2026-04-29T10:07:01.449Z</time></trkpt><trkpt lat="43.9706471" lon="12.3978846"><ele>160.0</ele><time>2026-04-29T10:07:02.449Z</time></trkpt><trkpt lat="43.9705785" lon="12.3977891"><ele>160.0</ele><time>2026-04-29T10:07:03.449Z</time></trkpt><trkpt lat="43.9704878" lon="12.3977219"><ele>162.2</ele><time>2026-04-29T10:07:04.45Z</time></trkpt><trkpt lat="43.9703826" lon="12.3976874"><ele>164.4</ele><time>2026-04-29T10:07:05.449Z</time></trkpt><trkpt lat="43.9702736" lon="12.3976539"><ele>166.60000000000002</ele><time>2026-04-29T10:07:06.449Z</time></trkpt><trkpt lat="43.9701647" lon="12.3976204"><ele>168.8</ele><time>2026-04-29T10:07:07.45Z</time></trkpt><trkpt lat="43.9700553" lon="12.3975854"><ele>171.0</ele><time>2026-04-29T10:07:08.45Z</time></trkpt><trkpt lat="43.9699505" lon="12.3975457"><ele>171.0</ele><time>2026-04-29T10:07:09.449Z</time></trkpt><trkpt lat="43.9698524" lon="12.3974955"><ele>171.0</ele><time>2026-04-29T10:07:10.449Z</time></trkpt><trkpt lat="43.9697615" lon="12.3974329"><ele>171.0</ele><time>2026-04-29T10:07:11.449Z</time></trkpt><trkpt lat="43.9696744" lon="12.3973594"><ele>171.0</ele><time>2026-04-29T10:07:12.449Z</time></trkpt><trkpt lat="43.9695852" lon="12.397268"><ele>171.0</ele><time>2026-04-29T10:07:13.45Z</time></trkpt><trkpt lat="43.9694997" lon="12.3971699"><ele>172.5</ele><time>2026-04-29T10:07:14.449Z</time></trkpt><trkpt lat="43.9694115" lon="12.397064"><ele>174.0</ele><time>2026-04-29T10:07:15.449Z</time></trkpt><trkpt lat="43.9693213" lon="12.3969602"><ele>175.5</ele><time>2026-04-29T10:07:16.449Z</time></trkpt><trkpt lat="43.969224" lon="12.3968565"><ele>177.0</ele><time>2026-04-29T10:07:17.449Z</time></trkpt><trkpt lat="43.9691196" lon="12.3967651"><ele>177.0</ele><time>2026-04-29T10:07:18.449Z</time></trkpt><trkpt lat="43.9690079" lon="12.3966754"><ele>177.0</ele><time>2026-04-29T10:07:19.449Z</time></trkpt><trkpt lat="43.9688956" lon="12.3965869"><ele>177.0</ele><time>2026-04-29T10:07:20.449Z</time></trkpt><trkpt lat="43.9687854" lon="12.39649"><ele>177.0</ele><time>2026-04-29T10:07:21.449Z</time></trkpt><trkpt lat="43.9686851" lon="12.3963877"><ele>178.75</ele><time>2026-04-29T10:07:22.449Z</time></trkpt><trkpt lat="43.9685933" lon="12.3962797"><ele>180.5</ele><time>2026-04-29T10:07:23.449Z</time></trkpt><trkpt lat="43.9685043" lon="12.3961644"><ele>182.25</ele><time>2026-04-29T10:07:24.45Z</time></trkpt><trkpt lat="43.9684173" lon="12.3960486"><ele>184.0</ele><time>2026-04-29T10:07:25.449Z</time></trkpt><trkpt lat="43.9683328" lon="12.3959318"><ele>184.0</ele><time>2026-04-29T10:07:26.449Z</time></trkpt><trkpt lat="43.9682409" lon="12.3958234"><ele>184.0</ele><time>2026-04-29T10:07:27.449Z</time></trkpt><trkpt lat="43.9681478" lon="12.3957192"><ele>184.0</ele><time>2026-04-29T10:07:28.449Z</time></trkpt><trkpt lat="43.9680513" lon="12.395631"><ele>184.0</ele><time>2026-04-29T10:07:29.45Z</time></trkpt><trkpt lat="43.9679548" lon="12.3955631"><ele>184.0</ele><time>2026-04-29T10:07:30.449Z</time></trkpt><trkpt lat="43.9678717" lon="12.3955168"><ele>184.0</ele><time>2026-04-29T10:07:31.449Z</time></trkpt><trkpt lat="43.9678031" lon="12.3954795"><ele>184.0</ele><time>2026-04-29T10:07:32.449Z</time></trkpt><trkpt lat="43.9677131" lon="12.3953618"><ele>184.0</ele><time>2026-04-29T10:07:34.449Z</time></trkpt><trkpt lat="43.9676861" lon="12.3952769"><ele>184.0</ele><time>2026-04-29T10:07:35.449Z</time></trkpt><trkpt lat="43.9676774" lon="12.3951731"><ele>184.0</ele><time>2026-04-29T10:07:36.449Z</time></trkpt><trkpt lat="43.9676814" lon="12.3950525"><ele>186.79999999999998</ele><time>2026-04-29T10:07:37.449Z</time></trkpt><trkpt lat="43.9676789" lon="12.3949168"><ele>189.6</ele><time>2026-04-29T10:07:38.449Z</time></trkpt><trkpt lat="43.9676672" lon="12.3947776"><ele>192.4</ele><time>2026-04-29T10:07:39.449Z</time></trkpt><trkpt lat="43.9676641" lon="12.3946308"><ele>195.2</ele><time>2026-04-29T10:07:40.449Z</time></trkpt><trkpt lat="43.9676708" lon="12.3944806"><ele>198.0</ele><time>2026-04-29T10:07:41.449Z</time></trkpt><trkpt lat="43.967699" lon="12.3943337"><ele>198.0</ele><time>2026-04-29T10:07:42.449Z</time></trkpt><trkpt lat="43.9677286" lon="12.3941989"><ele>198.0</ele><time>2026-04-29T10:07:43.449Z</time></trkpt><trkpt lat="43.9677384" lon="12.3940744"><ele>198.0</ele><time>2026-04-29T10:07:44.449Z</time></trkpt><trkpt lat="43.9677155" lon="12.3939742"><ele>198.0</ele><time>2026-04-29T10:07:45.449Z</time></trkpt><trkpt lat="43.9676576" lon="12.3938849"><ele>198.0</ele><time>2026-04-29T10:07:46.45Z</time></trkpt><trkpt lat="43.967585" lon="12.3938005"><ele>198.0</ele><time>2026-04-29T10:07:47.449Z</time></trkpt><trkpt lat="43.9674953" lon="12.393715"><ele>198.0</ele><time>2026-04-29T10:07:48.449Z</time></trkpt><trkpt lat="43.9674044" lon="12.3936323"><ele>198.0</ele><time>2026-04-29T10:07:49.449Z</time></trkpt><trkpt lat="43.9673199" lon="12.3935695"><ele>198.0</ele><time>2026-04-29T10:07:50.449Z</time></trkpt><trkpt lat="43.9672394" lon="12.3935063"><ele>198.0</ele><time>2026-04-29T10:07:51.449Z</time></trkpt><trkpt lat="43.9671619" lon="12.3934429"><ele>198.0</ele><time>2026-04-29T10:07:52.449Z</time></trkpt><trkpt lat="43.9670871" lon="12.3933831"><ele>198.0</ele><time>2026-04-29T10:07:53.449Z</time></trkpt><trkpt lat="43.9670078" lon="12.393316"><ele>198.0</ele><time>2026-04-29T10:07:54.449Z</time></trkpt><trkpt lat="43.9669337" lon="12.3932377"><ele>198.0</ele><time>2026-04-29T10:07:55.449Z</time></trkpt><trkpt lat="43.9668706" lon="12.393159"><ele>198.0</ele><time>2026-04-29T10:07:56.45Z</time></trkpt><trkpt lat="43.9668057" lon="12.3930724"><ele>198.0</ele><time>2026-04-29T10:07:57.449Z</time></trkpt><trkpt lat="43.9667435" lon="12.39298"><ele>196.8</ele><time>2026-04-29T10:07:58.449Z</time></trkpt><trkpt lat="43.9666823" lon="12.3928801"><ele>195.60000000000002</ele><time>2026-04-29T10:07:59.449Z</time></trkpt><trkpt lat="43.9666198" lon="12.3927931"><ele>194.39999999999998</ele><time>2026-04-29T10:08:00.449Z</time></trkpt><trkpt lat="43.9665503" lon="12.3927127"><ele>193.2</ele><time>2026-04-29T10:08:01.449Z</time></trkpt><trkpt lat="43.9664838" lon="12.3926327"><ele>192.0</ele><time>2026-04-29T10:08:02.449Z</time></trkpt><trkpt lat="43.9664204" lon="12.3925415"><ele>192.0</ele><time>2026-04-29T10:08:03.449Z</time></trkpt><trkpt lat="43.9663604" lon="12.3924505"><ele>192.0</ele><time>2026-04-29T10:08:04.449Z</time></trkpt><trkpt lat="43.9662992" lon="12.392369"><ele>192.0</ele><time>2026-04-29T10:08:05.449Z</time></trkpt><trkpt lat="43.9662437" lon="12.3923014"><ele>192.0</ele><time>2026-04-29T10:08:06.449Z</time></trkpt><trkpt lat="43.9661925" lon="12.3922394"><ele>192.0</ele><time>2026-04-29T10:08:07.449Z</time></trkpt><trkpt lat="43.9661103" lon="12.3921411"><ele>192.0</ele><time>2026-04-29T10:08:09.45Z</time></trkpt><trkpt lat="43.9660424" lon="12.3920707"><ele>191.5</ele><time>2026-04-29T10:08:11.449Z</time></trkpt><trkpt lat="43.9659895" lon="12.3920217"><ele>191.0</ele><time>2026-04-29T10:08:13.449Z</time></trkpt><trkpt lat="43.96593" lon="12.3919217"><ele>190.5</ele><time>2026-04-29T10:08:15.449Z</time></trkpt><trkpt lat="43.9659043" lon="12.3917566"><ele>190.0</ele><time>2026-04-29T10:08:17.449Z</time></trkpt><trkpt lat="43.9658993" lon="12.3916538"><ele>189.5</ele><time>2026-04-29T10:08:18.449Z</time></trkpt><trkpt lat="43.9658966" lon="12.3915522"><ele>189.0</ele><time>2026-04-29T10:08:19.449Z</time></trkpt><trkpt lat="43.9658942" lon="12.3914565"><ele>189.0</ele><time>2026-04-29T10:08:20.449Z</time></trkpt><trkpt lat="43.9658946" lon="12.3913662"><ele>189.0</ele><time>2026-04-29T10:08:21.45Z</time></trkpt><trkpt lat="43.965909" lon="12.3912071"><ele>189.0</ele><time>2026-04-29T10:08:23.449Z</time></trkpt><trkpt lat="43.965919" lon="12.3910541"><ele>189.0</ele><time>2026-04-29T10:08:25.449Z</time></trkpt><trkpt lat="43.9659091" lon="12.3909248"><ele>189.0</ele><time>2026-04-29T10:08:27.449Z</time></trkpt><trkpt lat="43.9658486" lon="12.3908654"><ele>185.2</ele><time>2026-04-29T10:08:29.449Z</time></trkpt><trkpt lat="43.965757" lon="12.3908823"><ele>181.39999999999998</ele><time>2026-04-29T10:08:31.45Z</time></trkpt><trkpt lat="43.9656427" lon="12.3909774"><ele>177.6</ele><time>2026-04-29T10:08:33.45Z</time></trkpt><trkpt lat="43.9655887" lon="12.3910246"><ele>173.8</ele><time>2026-04-29T10:08:34.449Z</time></trkpt><trkpt lat="43.9654785" lon="12.3911152"><ele>170.0</ele><time>2026-04-29T10:08:36.449Z</time></trkpt><trkpt lat="43.9654209" lon="12.3911574"><ele>170.0</ele><time>2026-04-29T10:08:37.45Z</time></trkpt><trkpt lat="43.9653624" lon="12.3912003"><ele>170.0</ele><time>2026-04-29T10:08:38.449Z</time></trkpt><trkpt lat="43.9653004" lon="12.3912417"><ele>170.0</ele><time>2026-04-29T10:08:39.449Z</time></trkpt><trkpt lat="43.9652406" lon="12.3912804"><ele>170.0</ele><time>2026-04-29T10:08:40.449Z</time></trkpt><trkpt lat="43.9651326" lon="12.39134"><ele>170.0</ele><time>2026-04-29T10:08:42.449Z</time></trkpt><trkpt lat="43.9650684" lon="12.391346"><ele>170.0</ele><time>2026-04-29T10:08:43.449Z</time></trkpt><trkpt lat="43.964944" lon="12.3913194"><ele>166.66666666666666</ele><time>2026-04-29T10:08:45.449Z</time></trkpt><trkpt lat="43.9648733" lon="12.3912937"><ele>163.33333333333331</ele><time>2026-04-29T10:08:46.449Z</time></trkpt><trkpt lat="43.9648079" lon="12.3912555"><ele>160.0</ele><time>2026-04-29T10:08:47.449Z</time></trkpt><trkpt lat="43.9647342" lon="12.391212"><ele>156.66666666666666</ele><time>2026-04-29T10:08:48.449Z</time></trkpt><trkpt lat="43.964662" lon="12.3911643"><ele>153.33333333333334</ele><time>2026-04-29T10:08:49.449Z</time></trkpt><trkpt lat="43.9645865" lon="12.3911108"><ele>150.0</ele><time>2026-04-29T10:08:50.449Z</time></trkpt><trkpt lat="43.9645085" lon="12.3910514"><ele>150.0</ele><time>2026-04-29T10:08:51.449Z</time></trkpt><trkpt lat="43.9644325" lon="12.3909977"><ele>150.0</ele><time>2026-04-29T10:08:52.449Z</time></trkpt><trkpt lat="43.9643621" lon="12.3909468"><ele>150.0</ele><time>2026-04-29T10:08:53.449Z</time></trkpt><trkpt lat="43.9642937" lon="12.3908934"><ele>150.0</ele><time>2026-04-29T10:08:54.449Z</time></trkpt><trkpt lat="43.9642191" lon="12.390857"><ele>150.0</ele><time>2026-04-29T10:08:55.449Z</time></trkpt><trkpt lat="43.9641396" lon="12.3908278"><ele>150.0</ele><time>2026-04-29T10:08:56.449Z</time></trkpt><trkpt lat="43.9640565" lon="12.3907955"><ele>147.2</ele><time>2026-04-29T10:08:57.449Z</time></trkpt><trkpt lat="43.9639746" lon="12.3907518"><ele>144.4</ele><time>2026-04-29T10:08:58.449Z</time></trkpt><trkpt lat="43.9638909" lon="12.3906817"><ele>141.6</ele><time>2026-04-29T10:08:59.449Z</time></trkpt><trkpt lat="43.9638197" lon="12.3905925"><ele>138.8</ele><time>2026-04-29T10:09:00.449Z</time></trkpt><trkpt lat="43.9637626" lon="12.3904764"><ele>136.0</ele><time>2026-04-29T10:09:01.449Z</time></trkpt><trkpt lat="43.9637216" lon="12.3903272"><ele>136.2</ele><time>2026-04-29T10:09:02.449Z</time></trkpt><trkpt lat="43.9636889" lon="12.3901648"><ele>136.39999999999998</ele><time>2026-04-29T10:09:03.449Z</time></trkpt><trkpt lat="43.9636575" lon="12.3900149"><ele>136.6</ele><time>2026-04-29T10:09:04.449Z</time></trkpt><trkpt lat="43.9636209" lon="12.3898766"><ele>136.79999999999998</ele><time>2026-04-29T10:09:05.449Z</time></trkpt><trkpt lat="43.9635843" lon="12.3897361"><ele>137.0</ele><time>2026-04-29T10:09:06.449Z</time></trkpt><trkpt lat="43.9635412" lon="12.3895979"><ele>137.0</ele><time>2026-04-29T10:09:07.449Z</time></trkpt><trkpt lat="43.9634868" lon="12.3894687"><ele>137.0</ele><time>2026-04-29T10:09:08.449Z</time></trkpt><trkpt lat="43.9634087" lon="12.3893425"><ele>137.0</ele><time>2026-04-29T10:09:09.449Z</time></trkpt><trkpt lat="43.963306" lon="12.3892334"><ele>137.0</ele><time>2026-04-29T10:09:10.449Z</time></trkpt><trkpt lat="43.9631888" lon="12.3891323"><ele>135.25</ele><time>2026-04-29T10:09:11.449Z</time></trkpt><trkpt lat="43.9630748" lon="12.3890459"><ele>133.5</ele><time>2026-04-29T10:09:12.449Z</time></trkpt><trkpt lat="43.9629693" lon="12.3889664"><ele>131.75</ele><time>2026-04-29T10:09:13.449Z</time></trkpt><trkpt lat="43.9628728" lon="12.3888879"><ele>130.0</ele><time>2026-04-29T10:09:14.449Z</time></trkpt><trkpt lat="43.9627812" lon="12.3888011"><ele>130.0</ele><time>2026-04-29T10:09:15.449Z</time></trkpt><trkpt lat="43.9626934" lon="12.3887094"><ele>130.0</ele><time>2026-04-29T10:09:16.449Z</time></trkpt><trkpt lat="43.9626082" lon="12.3885944"><ele>130.0</ele><time>2026-04-29T10:09:17.45Z</time></trkpt><trkpt lat="43.9625319" lon="12.3884746"><ele>130.0</ele><time>2026-04-29T10:09:18.449Z</time></trkpt><trkpt lat="43.9624618" lon="12.3883382"><ele>129.5</ele><time>2026-04-29T10:09:19.449Z</time></trkpt><trkpt lat="43.9623978" lon="12.3881893"><ele>129.0</ele><time>2026-04-29T10:09:20.449Z</time></trkpt><trkpt lat="43.9623332" lon="12.3880339"><ele>128.5</ele><time>2026-04-29T10:09:21.449Z</time></trkpt><trkpt lat="43.9622789" lon="12.3878792"><ele>128.0</ele><time>2026-04-29T10:09:22.449Z</time></trkpt><trkpt lat="43.9622333" lon="12.387732"><ele>128.0</ele><time>2026-04-29T10:09:23.45Z</time></trkpt><trkpt lat="43.9621808" lon="12.3875921"><ele>128.0</ele><time>2026-04-29T10:09:24.449Z</time></trkpt><trkpt lat="43.9621056" lon="12.3874647"><ele>128.0</ele><time>2026-04-29T10:09:25.45Z</time></trkpt><trkpt lat="43.96201" lon="12.3873508"><ele>128.0</ele><time>2026-04-29T10:09:26.449Z</time></trkpt><trkpt lat="43.9619216" lon="12.3872456"><ele>128.6</ele><time>2026-04-29T10:09:27.449Z</time></trkpt><trkpt lat="43.9618572" lon="12.3871368"><ele>129.20000000000002</ele><time>2026-04-29T10:09:28.449Z</time></trkpt><trkpt lat="43.9617992" lon="12.3870254"><ele>129.8</ele><time>2026-04-29T10:09:29.449Z</time></trkpt><trkpt lat="43.9617649" lon="12.3868877"><ele>130.4</ele><time>2026-04-29T10:09:30.449Z</time></trkpt><trkpt lat="43.9617439" lon="12.3867368"><ele>131.0</ele><time>2026-04-29T10:09:31.449Z</time></trkpt><trkpt lat="43.9617256" lon="12.3865803"><ele>132.0</ele><time>2026-04-29T10:09:32.449Z</time></trkpt><trkpt lat="43.9616953" lon="12.3864271"><ele>133.0</ele><time>2026-04-29T10:09:33.449Z</time></trkpt><trkpt lat="43.9616438" lon="12.3862904"><ele>134.0</ele><time>2026-04-29T10:09:34.449Z</time></trkpt><trkpt lat="43.9615661" lon="12.3861636"><ele>135.0</ele><time>2026-04-29T10:09:35.449Z</time></trkpt><trkpt lat="43.9614835" lon="12.3860505"><ele>135.0</ele><time>2026-04-29T10:09:36.45Z</time></trkpt><trkpt lat="43.9614117" lon="12.3859561"><ele>135.0</ele><time>2026-04-29T10:09:37.449Z</time></trkpt><trkpt lat="43.9613549" lon="12.3858598"><ele>135.0</ele><time>2026-04-29T10:09:38.449Z</time></trkpt><trkpt lat="43.9613228" lon="12.3857492"><ele>135.0</ele><time>2026-04-29T10:09:39.449Z</time></trkpt><trkpt lat="43.9612986" lon="12.385631"><ele>135.0</ele><time>2026-04-29T10:09:40.449Z</time></trkpt><trkpt lat="43.9612837" lon="12.3855068"><ele>136.33333333333334</ele><time>2026-04-29T10:09:41.449Z</time></trkpt><trkpt lat="43.9612739" lon="12.3853956"><ele>137.66666666666666</ele><time>2026-04-29T10:09:42.449Z</time></trkpt><trkpt lat="43.9612581" lon="12.3852476"><ele>139.0</ele><time>2026-04-29T10:09:44.449Z</time></trkpt><trkpt lat="43.9612546" lon="12.385139"><ele>140.33333333333331</ele><time>2026-04-29T10:09:46.449Z</time></trkpt><trkpt lat="43.9612974" lon="12.3850493"><ele>141.66666666666666</ele><time>2026-04-29T10:09:49.449Z</time></trkpt><trkpt lat="43.9613787" lon="12.3851206"><ele>143.0</ele><time>2026-04-29T10:09:51.449Z</time></trkpt><trkpt lat="43.9614746" lon="12.3852492"><ele>143.0</ele><time>2026-04-29T10:09:53.449Z</time></trkpt><trkpt lat="43.9615309" lon="12.385317"><ele>143.0</ele><time>2026-04-29T10:09:54.449Z</time></trkpt><trkpt lat="43.961586" lon="12.3853795"><ele>143.0</ele><time>2026-04-29T10:09:55.449Z</time></trkpt><trkpt lat="43.9616515" lon="12.3854518"><ele>143.0</ele><time>2026-04-29T10:09:56.449Z</time></trkpt><trkpt lat="43.9617179" lon="12.3855145"><ele>143.0</ele><time>2026-04-29T10:09:57.449Z</time></trkpt><trkpt lat="43.9617729" lon="12.3855669"><ele>143.0</ele><time>2026-04-29T10:09:58.449Z</time></trkpt><trkpt lat="43.9618712" lon="12.3856563"><ele>142.5</ele><time>2026-04-29T10:10:00.449Z</time></trkpt><trkpt lat="43.9619421" lon="12.3857652"><ele>142.0</ele><time>2026-04-29T10:10:02.45Z</time></trkpt><trkpt lat="43.9619798" lon="12.385856"><ele>141.5</ele><time>2026-04-29T10:10:04.449Z</time></trkpt><trkpt lat="43.9620539" lon="12.3858702"><ele>141.0</ele><time>2026-04-29T10:10:06.449Z</time></trkpt><trkpt lat="43.9621476" lon="12.3857865"><ele>140.5</ele><time>2026-04-29T10:10:08.449Z</time></trkpt><trkpt lat="43.9621784" lon="12.3857011"><ele>140.0</ele><time>2026-04-29T10:10:09.449Z</time></trkpt><trkpt lat="43.9621999" lon="12.3856077"><ele>140.0</ele><time>2026-04-29T10:10:10.449Z</time></trkpt><trkpt lat="43.9622196" lon="12.3855133"><ele>140.0</ele><time>2026-04-29T10:10:11.449Z</time></trkpt><trkpt lat="43.9622361" lon="12.3854251"><ele>140.0</ele><time>2026-04-29T10:10:12.449Z</time></trkpt><trkpt lat="43.9622618" lon="12.3853422"><ele>140.0</ele><time>2026-04-29T10:10:13.449Z</time></trkpt><trkpt lat="43.9622867" lon="12.385261"><ele>140.0</ele><time>2026-04-29T10:10:14.449Z</time></trkpt><trkpt lat="43.9623183" lon="12.3851036"><ele>140.0</ele><time>2026-04-29T10:10:16.449Z</time></trkpt><trkpt lat="43.9623133" lon="12.3849331"><ele>142.83333333333331</ele><time>2026-04-29T10:10:18.449Z</time></trkpt><trkpt lat="43.9623001" lon="12.3847582"><ele>145.66666666666666</ele><time>2026-04-29T10:10:20.449Z</time></trkpt><trkpt lat="43.9623073" lon="12.3846664"><ele>148.5</ele><time>2026-04-29T10:10:21.449Z</time></trkpt><trkpt lat="43.9623186" lon="12.3845778"><ele>151.33333333333334</ele><time>2026-04-29T10:10:22.449Z</time></trkpt><trkpt lat="43.9623467" lon="12.3844946"><ele>154.16666666666669</ele><time>2026-04-29T10:10:23.449Z</time></trkpt><trkpt lat="43.9624386" lon="12.3843758"><ele>157.0</ele><time>2026-04-29T10:10:25.449Z</time></trkpt><trkpt lat="43.9624931" lon="12.3843101"><ele>159.66666666666669</ele><time>2026-04-29T10:10:26.449Z</time></trkpt><trkpt lat="43.9625483" lon="12.3842436"><ele>162.33333333333334</ele><time>2026-04-29T10:10:27.449Z</time></trkpt><trkpt lat="43.9626141" lon="12.3841847"><ele>165.0</ele><time>2026-04-29T10:10:28.449Z</time></trkpt><trkpt lat="43.9626882" lon="12.3841412"><ele>167.66666666666666</ele><time>2026-04-29T10:10:29.449Z</time></trkpt><trkpt lat="43.9627553" lon="12.3840837"><ele>170.33333333333331</ele><time>2026-04-29T10:10:30.45Z</time></trkpt><trkpt lat="43.9628137" lon="12.3840188"><ele>173.0</ele><time>2026-04-29T10:10:31.45Z</time></trkpt><trkpt lat="43.9628665" lon="12.3839484"><ele>173.0</ele><time>2026-04-29T10:10:32.449Z</time></trkpt><trkpt lat="43.9629421" lon="12.3838244"><ele>173.0</ele><time>2026-04-29T10:10:34.449Z</time></trkpt><trkpt lat="43.9630029" lon="12.3837379"><ele>173.0</ele><time>2026-04-29T10:10:36.449Z</time></trkpt><trkpt lat="43.9630719" lon="12.3837454"><ele>173.0</ele><time>2026-04-29T10:10:38.449Z</time></trkpt><trkpt lat="43.9631941" lon="12.3838281"><ele>173.0</ele><time>2026-04-29T10:10:40.449Z</time></trkpt><trkpt lat="43.9632779" lon="12.3838648"><ele>175.25</ele><time>2026-04-29T10:10:41.449Z</time></trkpt><trkpt lat="43.9633751" lon="12.3838868"><ele>177.5</ele><time>2026-04-29T10:10:42.449Z</time></trkpt><trkpt lat="43.9634859" lon="12.383902"><ele>179.75</ele><time>2026-04-29T10:10:43.449Z</time></trkpt><trkpt lat="43.9636064" lon="12.3838985"><ele>182.0</ele><time>2026-04-29T10:10:44.449Z</time></trkpt><trkpt lat="43.9637339" lon="12.3838948"><ele>182.0</ele><time>2026-04-29T10:10:45.45Z</time></trkpt><trkpt lat="43.9638597" lon="12.383891"><ele>182.0</ele><time>2026-04-29T10:10:46.449Z</time></trkpt><trkpt lat="43.9639796" lon="12.38389"><ele>182.0</ele><time>2026-04-29T10:10:47.449Z</time></trkpt><trkpt lat="43.9640891" lon="12.383892"><ele>182.0</ele><time>2026-04-29T10:10:48.449Z</time></trkpt><trkpt lat="43.9641871" lon="12.3838991"><ele>184.6</ele><time>2026-04-29T10:10:49.449Z</time></trkpt><trkpt lat="43.9642876" lon="12.3839135"><ele>187.2</ele><time>2026-04-29T10:10:50.449Z</time></trkpt><trkpt lat="43.9643898" lon="12.3839285"><ele>189.8</ele><time>2026-04-29T10:10:51.449Z</time></trkpt><trkpt lat="43.964488" lon="12.3839445"><ele>192.4</ele><time>2026-04-29T10:10:52.449Z</time></trkpt><trkpt lat="43.9645993" lon="12.3839609"><ele>195.0</ele><time>2026-04-29T10:10:53.449Z</time></trkpt><trkpt lat="43.9647259" lon="12.3839827"><ele>195.0</ele><time>2026-04-29T10:10:54.45Z</time></trkpt><trkpt lat="43.9648579" lon="12.3840028"><ele>195.0</ele><time>2026-04-29T10:10:55.449Z</time></trkpt><trkpt lat="43.9649894" lon="12.3840313"><ele>195.0</ele><time>2026-04-29T10:10:56.449Z</time></trkpt><trkpt lat="43.9651094" lon="12.3840513"><ele>195.0</ele><time>2026-04-29T10:10:57.449Z</time></trkpt><trkpt lat="43.9652022" lon="12.3840583"><ele>197.4</ele><time>2026-04-29T10:10:58.449Z</time></trkpt><trkpt lat="43.9652694" lon="12.3840477"><ele>199.8</ele><time>2026-04-29T10:10:59.45Z</time></trkpt><trkpt lat="43.9653813" lon="12.3839788"><ele>202.2</ele><time>2026-04-29T10:11:01.449Z</time></trkpt><trkpt lat="43.9654421" lon="12.383915"><ele>204.6</ele><time>2026-04-29T10:11:02.449Z</time></trkpt><trkpt lat="43.9655125" lon="12.3838298"><ele>207.0</ele><time>2026-04-29T10:11:03.45Z</time></trkpt><trkpt lat="43.9655814" lon="12.3837285"><ele>207.5</ele><time>2026-04-29T10:11:04.449Z</time></trkpt><trkpt lat="43.9656473" lon="12.3836332"><ele>208.0</ele><time>2026-04-29T10:11:05.449Z</time></trkpt><trkpt lat="43.9656999" lon="12.3835607"><ele>208.5</ele><time>2026-04-29T10:11:06.45Z</time></trkpt><trkpt lat="43.9657602" lon="12.3835116"><ele>209.0</ele><time>2026-04-29T10:11:07.45Z</time></trkpt><trkpt lat="43.9658868" lon="12.3834829"><ele>209.5</ele><time>2026-04-29T10:11:09.449Z</time></trkpt><trkpt lat="43.9659643" lon="12.3834918"><ele>210.0</ele><time>2026-04-29T10:11:10.45Z</time></trkpt><trkpt lat="43.9660507" lon="12.383522"><ele>212.33333333333334</ele><time>2026-04-29T10:11:11.449Z</time></trkpt><trkpt lat="43.966147" lon="12.3835656"><ele>214.66666666666669</ele><time>2026-04-29T10:11:12.449Z</time></trkpt><trkpt lat="43.9662431" lon="12.3836112"><ele>217.0</ele><time>2026-04-29T10:11:13.449Z</time></trkpt><trkpt lat="43.9663283" lon="12.3836428"><ele>219.33333333333334</ele><time>2026-04-29T10:11:14.449Z</time></trkpt><trkpt lat="43.9664063" lon="12.3836549"><ele>221.66666666666669</ele><time>2026-04-29T10:11:15.449Z</time></trkpt><trkpt lat="43.9664849" lon="12.3836466"><ele>224.0</ele><time>2026-04-29T10:11:16.449Z</time></trkpt><trkpt lat="43.9665595" lon="12.3836161"><ele>224.00000000000003</ele><time>2026-04-29T10:11:17.449Z</time></trkpt><trkpt lat="43.9666313" lon="12.3835659"><ele>224.0</ele><time>2026-04-29T10:11:18.449Z</time></trkpt><trkpt lat="43.9666912" lon="12.3834996"><ele>224.0</ele><time>2026-04-29T10:11:19.45Z</time></trkpt><trkpt lat="43.9667485" lon="12.3834277"><ele>224.0</ele><time>2026-04-29T10:11:20.449Z</time></trkpt><trkpt lat="43.9668089" lon="12.3833533"><ele>224.00000000000003</ele><time>2026-04-29T10:11:21.449Z</time></trkpt><trkpt lat="43.9668698" lon="12.3832824"><ele>224.0</ele><time>2026-04-29T10:11:22.449Z</time></trkpt><trkpt lat="43.9669425" lon="12.3832149"><ele>226.0</ele><time>2026-04-29T10:11:23.449Z</time></trkpt><trkpt lat="43.9670284" lon="12.3831401"><ele>227.99999999999997</ele><time>2026-04-29T10:11:24.449Z</time></trkpt><trkpt lat="43.9671148" lon="12.3830519"><ele>229.99999999999997</ele><time>2026-04-29T10:11:25.449Z</time></trkpt><trkpt lat="43.9672029" lon="12.3829642"><ele>232.0</ele><time>2026-04-29T10:11:26.449Z</time></trkpt><trkpt lat="43.9672907" lon="12.3828802"><ele>234.0</ele><time>2026-04-29T10:11:27.449Z</time></trkpt><trkpt lat="43.9673805" lon="12.382798"><ele>235.16666666666666</ele><time>2026-04-29T10:11:28.449Z</time></trkpt><trkpt lat="43.9674599" lon="12.3827235"><ele>236.33333333333331</ele><time>2026-04-29T10:11:29.45Z</time></trkpt><trkpt lat="43.9675349" lon="12.382656"><ele>237.5</ele><time>2026-04-29T10:11:30.449Z</time></trkpt><trkpt lat="43.9676051" lon="12.3825908"><ele>238.66666666666666</ele><time>2026-04-29T10:11:31.449Z</time></trkpt><trkpt lat="43.9676769" lon="12.38254"><ele>239.83333333333331</ele><time>2026-04-29T10:11:32.449Z</time></trkpt><trkpt lat="43.9677531" lon="12.3825121"><ele>241.0</ele><time>2026-04-29T10:11:33.449Z</time></trkpt><trkpt lat="43.9678454" lon="12.3825007"><ele>242.83333333333331</ele><time>2026-04-29T10:11:34.449Z</time></trkpt><trkpt lat="43.9679381" lon="12.3825086"><ele>244.66666666666666</ele><time>2026-04-29T10:11:35.449Z</time></trkpt><trkpt lat="43.9680267" lon="12.3825386"><ele>246.5</ele><time>2026-04-29T10:11:36.449Z</time></trkpt><trkpt lat="43.9681031" lon="12.3825942"><ele>248.33333333333331</ele><time>2026-04-29T10:11:37.449Z</time></trkpt><trkpt lat="43.9681747" lon="12.3826546"><ele>250.16666666666666</ele><time>2026-04-29T10:11:38.45Z</time></trkpt><trkpt lat="43.9682487" lon="12.3827218"><ele>252.0</ele><time>2026-04-29T10:11:39.449Z</time></trkpt><trkpt lat="43.9683264" lon="12.3827755"><ele>253.33333333333334</ele><time>2026-04-29T10:11:40.449Z</time></trkpt><trkpt lat="43.9684052" lon="12.3828104"><ele>254.66666666666669</ele><time>2026-04-29T10:11:41.449Z</time></trkpt><trkpt lat="43.9684779" lon="12.3828275"><ele>256.0</ele><time>2026-04-29T10:11:42.449Z</time></trkpt><trkpt lat="43.9685469" lon="12.3828202"><ele>257.33333333333337</ele><time>2026-04-29T10:11:43.449Z</time></trkpt><trkpt lat="43.9686252" lon="12.3827934"><ele>258.6666666666667</ele><time>2026-04-29T10:11:44.449Z</time></trkpt><trkpt lat="43.968731" lon="12.3827405"><ele>260.0</ele><time>2026-04-29T10:11:45.449Z</time></trkpt><trkpt lat="43.9688599" lon="12.3826871"><ele>260.0</ele><time>2026-04-29T10:11:46.449Z</time></trkpt><trkpt lat="43.9689879" lon="12.3826375"><ele>260.0</ele><time>2026-04-29T10:11:47.449Z</time></trkpt><trkpt lat="43.9690976" lon="12.3825923"><ele>260.0</ele><time>2026-04-29T10:11:48.449Z</time></trkpt><trkpt lat="43.9691979" lon="12.3825463"><ele>260.0</ele><time>2026-04-29T10:11:49.45Z</time></trkpt><trkpt lat="43.9692951" lon="12.3824945"><ele>260.6</ele><time>2026-04-29T10:11:50.449Z</time></trkpt><trkpt lat="43.9693919" lon="12.382428"><ele>261.2</ele><time>2026-04-29T10:11:51.449Z</time></trkpt><trkpt lat="43.9694891" lon="12.3823504"><ele>261.8</ele><time>2026-04-29T10:11:52.449Z</time></trkpt><trkpt lat="43.9695852" lon="12.3822754"><ele>262.4</ele><time>2026-04-29T10:11:53.45Z</time></trkpt><trkpt lat="43.9696823" lon="12.3821956"><ele>263.0</ele><time>2026-04-29T10:11:54.449Z</time></trkpt><trkpt lat="43.969781" lon="12.3821152"><ele>263.8</ele><time>2026-04-29T10:11:55.449Z</time></trkpt><trkpt lat="43.9698828" lon="12.3820404"><ele>264.6</ele><time>2026-04-29T10:11:56.449Z</time></trkpt><trkpt lat="43.9699865" lon="12.3819791"><ele>265.4</ele><time>2026-04-29T10:11:57.449Z</time></trkpt><trkpt lat="43.9700858" lon="12.3819234"><ele>266.2</ele><time>2026-04-29T10:11:58.45Z</time></trkpt><trkpt lat="43.9701855" lon="12.3818601"><ele>267.0</ele><time>2026-04-29T10:11:59.45Z</time></trkpt><trkpt lat="43.9702871" lon="12.3817941"><ele>268.6</ele><time>2026-04-29T10:12:00.449Z</time></trkpt><trkpt lat="43.9703901" lon="12.381732"><ele>270.2</ele><time>2026-04-29T10:12:01.45Z</time></trkpt><trkpt lat="43.9704935" lon="12.3816748"><ele>271.8</ele><time>2026-04-29T10:12:02.449Z</time></trkpt><trkpt lat="43.9705856" lon="12.3816258"><ele>273.4</ele><time>2026-04-29T10:12:03.449Z</time></trkpt><trkpt lat="43.9706676" lon="12.3815796"><ele>275.0</ele><time>2026-04-29T10:12:04.45Z</time></trkpt><trkpt lat="43.9707374" lon="12.3815414"><ele>277.2</ele><time>2026-04-29T10:12:05.449Z</time></trkpt><trkpt lat="43.9708583" lon="12.381522"><ele>279.4</ele><time>2026-04-29T10:12:07.449Z</time></trkpt><trkpt lat="43.9709322" lon="12.3815311"><ele>281.6</ele><time>2026-04-29T10:12:08.449Z</time></trkpt><trkpt lat="43.9710107" lon="12.3815203"><ele>283.8</ele><time>2026-04-29T10:12:09.45Z</time></trkpt><trkpt lat="43.9710979" lon="12.381514"><ele>286.0</ele><time>2026-04-29T10:12:10.45Z</time></trkpt><trkpt lat="43.9711934" lon="12.3815181"><ele>286.0</ele><time>2026-04-29T10:12:11.449Z</time></trkpt><trkpt lat="43.9712902" lon="12.3815263"><ele>286.0</ele><time>2026-04-29T10:12:12.45Z</time></trkpt><trkpt lat="43.9713882" lon="12.3815325"><ele>286.0</ele><time>2026-04-29T10:12:13.449Z</time></trkpt><trkpt lat="43.9714881" lon="12.381538"><ele>286.0</ele><time>2026-04-29T10:12:14.449Z</time></trkpt><trkpt lat="43.9715905" lon="12.381539"><ele>286.0</ele><time>2026-04-29T10:12:15.449Z</time></trkpt><trkpt lat="43.9716884" lon="12.3815385"><ele>288.0</ele><time>2026-04-29T10:12:16.449Z</time></trkpt><trkpt lat="43.9717822" lon="12.3815402"><ele>290.0</ele><time>2026-04-29T10:12:17.449Z</time></trkpt><trkpt lat="43.9718645" lon="12.3815413"><ele>292.0</ele><time>2026-04-29T10:12:18.449Z</time></trkpt><trkpt lat="43.9719395" lon="12.3815394"><ele>294.0</ele><time>2026-04-29T10:12:19.449Z</time></trkpt><trkpt lat="43.9720089" lon="12.3815342"><ele>296.0</ele><time>2026-04-29T10:12:20.45Z</time></trkpt><trkpt lat="43.972129" lon="12.381565"><ele>298.0</ele><time>2026-04-29T10:12:22.449Z</time></trkpt><trkpt lat="43.972198" lon="12.381602"><ele>298.0</ele><time>2026-04-29T10:12:23.449Z</time></trkpt><trkpt lat="43.9722745" lon="12.3816352"><ele>298.0</ele><time>2026-04-29T10:12:24.449Z</time></trkpt><trkpt lat="43.9723528" lon="12.3816673"><ele>298.0</ele><time>2026-04-29T10:12:25.449Z</time></trkpt><trkpt lat="43.9724344" lon="12.3816977"><ele>298.0</ele><time>2026-04-29T10:12:26.449Z</time></trkpt><trkpt lat="43.9725145" lon="12.3817225"><ele>298.0</ele><time>2026-04-29T10:12:27.449Z</time></trkpt><trkpt lat="43.9725857" lon="12.3817428"><ele>298.0</ele><time>2026-04-29T10:12:28.45Z</time></trkpt><trkpt lat="43.9727067" lon="12.3817514"><ele>299.66666666666663</ele><time>2026-04-29T10:12:30.449Z</time></trkpt><trkpt lat="43.9728104" lon="12.3817545"><ele>301.3333333333333</ele><time>2026-04-29T10:12:32.449Z</time></trkpt><trkpt lat="43.9729193" lon="12.3817569"><ele>303.0</ele><time>2026-04-29T10:12:34.449Z</time></trkpt><trkpt lat="43.9729862" lon="12.3817633"><ele>304.6666666666667</ele><time>2026-04-29T10:12:35.449Z</time></trkpt><trkpt lat="43.973058" lon="12.3817693"><ele>306.33333333333337</ele><time>2026-04-29T10:12:36.449Z</time></trkpt><trkpt lat="43.9731377" lon="12.3817739"><ele>308.0</ele><time>2026-04-29T10:12:37.449Z</time></trkpt><trkpt lat="43.9732163" lon="12.3817722"><ele>308.0</ele><time>2026-04-29T10:12:38.449Z</time></trkpt><trkpt lat="43.9733006" lon="12.3817555"><ele>308.0</ele><time>2026-04-29T10:12:39.449Z</time></trkpt><trkpt lat="43.9733907" lon="12.381733"><ele>308.0</ele><time>2026-04-29T10:12:40.45Z</time></trkpt><trkpt lat="43.9734788" lon="12.3817091"><ele>308.0</ele><time>2026-04-29T10:12:41.449Z</time></trkpt><trkpt lat="43.973556" lon="12.3816726"><ele>308.0</ele><time>2026-04-29T10:12:42.449Z</time></trkpt><trkpt lat="43.9736199" lon="12.3816259"><ele>308.0</ele><time>2026-04-29T10:12:43.449Z</time></trkpt><trkpt lat="43.9736774" lon="12.3815677"><ele>307.33333333333337</ele><time>2026-04-29T10:12:44.449Z</time></trkpt><trkpt lat="43.9737212" lon="12.3815039"><ele>306.6666666666667</ele><time>2026-04-29T10:12:45.449Z</time></trkpt><trkpt lat="43.9737558" lon="12.3814212"><ele>306.0</ele><time>2026-04-29T10:12:46.448Z</time></trkpt><trkpt lat="43.9738041" lon="12.3813127"><ele>305.3333333333333</ele><time>2026-04-29T10:12:47.448Z</time></trkpt><trkpt lat="43.9738636" lon="12.3812015"><ele>304.66666666666663</ele><time>2026-04-29T10:12:48.448Z</time></trkpt><trkpt lat="43.9739313" lon="12.3810782"><ele>304.0</ele><time>2026-04-29T10:12:49.448Z</time></trkpt><trkpt lat="43.9739908" lon="12.3809456"><ele>307.4</ele><time>2026-04-29T10:12:50.448Z</time></trkpt><trkpt lat="43.9740293" lon="12.3808142"><ele>310.79999999999995</ele><time>2026-04-29T10:12:51.448Z</time></trkpt><trkpt lat="43.9740559" lon="12.3807062"><ele>314.20000000000005</ele><time>2026-04-29T10:12:52.448Z</time></trkpt><trkpt lat="43.974088" lon="12.3806044"><ele>317.6</ele><time>2026-04-29T10:12:53.448Z</time></trkpt><trkpt lat="43.9741362" lon="12.3805006"><ele>321.0</ele><time>2026-04-29T10:12:54.449Z</time></trkpt><trkpt lat="43.9742068" lon="12.3804009"><ele>327.25</ele><time>2026-04-29T10:12:55.448Z</time></trkpt><trkpt lat="43.9742867" lon="12.3802841"><ele>333.5</ele><time>2026-04-29T10:12:56.449Z</time></trkpt><trkpt lat="43.9743671" lon="12.3801567"><ele>339.75</ele><time>2026-04-29T10:12:57.449Z</time></trkpt><trkpt lat="43.9744385" lon="12.3800286"><ele>346.0</ele><time>2026-04-29T10:12:58.448Z</time></trkpt><trkpt lat="43.974508" lon="12.3799159"><ele>346.0</ele><time>2026-04-29T10:12:59.449Z</time></trkpt><trkpt lat="43.9745763" lon="12.3798058"><ele>346.0</ele><time>2026-04-29T10:13:00.448Z</time></trkpt><trkpt lat="43.9746322" lon="12.3796996"><ele>346.0</ele><time>2026-04-29T10:13:01.448Z</time></trkpt><trkpt lat="43.9746829" lon="12.3796019"><ele>346.0</ele><time>2026-04-29T10:13:02.448Z</time></trkpt><trkpt lat="43.9747344" lon="12.3795196"><ele>346.0</ele><time>2026-04-29T10:13:03.448Z</time></trkpt><trkpt lat="43.9748008" lon="12.3794481"><ele>346.0</ele><time>2026-04-29T10:13:04.448Z</time></trkpt><trkpt lat="43.9748735" lon="12.379385"><ele>346.5</ele><time>2026-04-29T10:13:05.448Z</time></trkpt><trkpt lat="43.9749533" lon="12.3793388"><ele>347.0</ele><time>2026-04-29T10:13:06.448Z</time></trkpt><trkpt lat="43.9750334" lon="12.3793278"><ele>347.5</ele><time>2026-04-29T10:13:07.448Z</time></trkpt><trkpt lat="43.9751119" lon="12.3793514"><ele>348.0</ele><time>2026-04-29T10:13:08.448Z</time></trkpt><trkpt lat="43.9751776" lon="12.3793832"><ele>348.5</ele><time>2026-04-29T10:13:09.448Z</time></trkpt><trkpt lat="43.9752416" lon="12.3794249"><ele>349.0</ele><time>2026-04-29T10:13:11.448Z</time></trkpt><trkpt lat="43.9752318" lon="12.3793317"><ele>349.0</ele><time>2026-04-29T10:13:15.448Z</time></trkpt><trkpt lat="43.9751752" lon="12.3792595"><ele>349.0</ele><time>2026-04-29T10:13:16.448Z</time></trkpt><trkpt lat="43.9751129" lon="12.3791676"><ele>349.0</ele><time>2026-04-29T10:13:17.448Z</time></trkpt><trkpt lat="43.9750486" lon="12.3790637"><ele>349.0</ele><time>2026-04-29T10:13:18.448Z</time></trkpt><trkpt lat="43.9749815" lon="12.3789401"><ele>349.0</ele><time>2026-04-29T10:13:19.448Z</time></trkpt><trkpt lat="43.9749033" lon="12.3788094"><ele>349.5</ele><time>2026-04-29T10:13:20.448Z</time></trkpt><trkpt lat="43.974835" lon="12.3786705"><ele>350.0</ele><time>2026-04-29T10:13:21.448Z</time></trkpt><trkpt lat="43.9747668" lon="12.3785347"><ele>350.5</ele><time>2026-04-29T10:13:22.448Z</time></trkpt><trkpt lat="43.9747006" lon="12.3784079"><ele>351.0</ele><time>2026-04-29T10:13:23.449Z</time></trkpt><trkpt lat="43.974643" lon="12.3782934"><ele>351.0</ele><time>2026-04-29T10:13:24.448Z</time></trkpt><trkpt lat="43.9745898" lon="12.3781892"><ele>351.0</ele><time>2026-04-29T10:13:25.448Z</time></trkpt><trkpt lat="43.9745291" lon="12.3781029"><ele>351.0</ele><time>2026-04-29T10:13:26.448Z</time></trkpt><trkpt lat="43.974457" lon="12.3780262"><ele>351.0</ele><time>2026-04-29T10:13:27.448Z</time></trkpt><trkpt lat="43.97438" lon="12.3779396"><ele>351.0</ele><time>2026-04-29T10:13:28.448Z</time></trkpt><trkpt lat="43.9743063" lon="12.3778385"><ele>350.0</ele><time>2026-04-29T10:13:29.448Z</time></trkpt><trkpt lat="43.9742469" lon="12.3777407"><ele>349.0</ele><time>2026-04-29T10:13:30.449Z</time></trkpt><trkpt lat="43.9742023" lon="12.3776298"><ele>348.0</ele><time>2026-04-29T10:13:31.449Z</time></trkpt><trkpt lat="43.9741708" lon="12.377515"><ele>347.0</ele><time>2026-04-29T10:13:32.448Z</time></trkpt><trkpt lat="43.974155" lon="12.3773904"><ele>346.0</ele><time>2026-04-29T10:13:33.448Z</time></trkpt><trkpt lat="43.9741582" lon="12.3772573"><ele>344.20000000000005</ele><time>2026-04-29T10:13:34.448Z</time></trkpt><trkpt lat="43.9741833" lon="12.3771167"><ele>342.40000000000003</ele><time>2026-04-29T10:13:35.448Z</time></trkpt><trkpt lat="43.9742193" lon="12.3769735"><ele>340.6</ele><time>2026-04-29T10:13:36.448Z</time></trkpt><trkpt lat="43.9742449" lon="12.3768311"><ele>338.8</ele><time>2026-04-29T10:13:37.448Z</time></trkpt><trkpt lat="43.9742517" lon="12.376682"><ele>337.0</ele><time>2026-04-29T10:13:38.448Z</time></trkpt><trkpt lat="43.9742245" lon="12.3765237"><ele>337.0</ele><time>2026-04-29T10:13:39.448Z</time></trkpt><trkpt lat="43.9741861" lon="12.3763593"><ele>337.0</ele><time>2026-04-29T10:13:40.448Z</time></trkpt><trkpt lat="43.9741416" lon="12.3761968"><ele>337.0</ele><time>2026-04-29T10:13:41.448Z</time></trkpt><trkpt lat="43.9740965" lon="12.3760203"><ele>337.0</ele><time>2026-04-29T10:13:42.448Z</time></trkpt><trkpt lat="43.9740478" lon="12.375838"><ele>337.0</ele><time>2026-04-29T10:13:43.448Z</time></trkpt><trkpt lat="43.9739954" lon="12.3756606"><ele>337.0</ele><time>2026-04-29T10:13:44.448Z</time></trkpt><trkpt lat="43.9739418" lon="12.3754817"><ele>337.0</ele><time>2026-04-29T10:13:45.448Z</time></trkpt><trkpt lat="43.9738906" lon="12.3753026"><ele>337.0</ele><time>2026-04-29T10:13:46.449Z</time></trkpt><trkpt lat="43.9738487" lon="12.3751164"><ele>337.0</ele><time>2026-04-29T10:13:47.449Z</time></trkpt><trkpt lat="43.9738121" lon="12.374928"><ele>337.0</ele><time>2026-04-29T10:13:48.448Z</time></trkpt><trkpt lat="43.9737673" lon="12.3747431"><ele>337.0</ele><time>2026-04-29T10:13:49.448Z</time></trkpt><trkpt lat="43.9737218" lon="12.3745551"><ele>337.0</ele><time>2026-04-29T10:13:50.448Z</time></trkpt><trkpt lat="43.9736705" lon="12.3743718"><ele>337.0</ele><time>2026-04-29T10:13:51.448Z</time></trkpt><trkpt lat="43.9736095" lon="12.3741971"><ele>337.0</ele><time>2026-04-29T10:13:52.448Z</time></trkpt><trkpt lat="43.9735426" lon="12.374031"><ele>337.0</ele><time>2026-04-29T10:13:53.448Z</time></trkpt><trkpt lat="43.9734666" lon="12.3738753"><ele>337.0</ele><time>2026-04-29T10:13:54.448Z</time></trkpt><trkpt lat="43.9733848" lon="12.373713"><ele>336.0</ele><time>2026-04-29T10:13:55.449Z</time></trkpt><trkpt lat="43.9733058" lon="12.3735531"><ele>335.0</ele><time>2026-04-29T10:13:56.448Z</time></trkpt><trkpt lat="43.9732213" lon="12.3733868"><ele>334.0</ele><time>2026-04-29T10:13:57.448Z</time></trkpt><trkpt lat="43.9731363" lon="12.3732118"><ele>333.0</ele><time>2026-04-29T10:13:58.448Z</time></trkpt><trkpt lat="43.9730554" lon="12.3730306"><ele>329.6666666666667</ele><time>2026-04-29T10:13:59.448Z</time></trkpt><trkpt lat="43.9729781" lon="12.3728353"><ele>326.33333333333337</ele><time>2026-04-29T10:14:00.449Z</time></trkpt><trkpt lat="43.9729021" lon="12.3726265"><ele>323.0</ele><time>2026-04-29T10:14:01.448Z</time></trkpt><trkpt lat="43.9728232" lon="12.3724214"><ele>323.0</ele><time>2026-04-29T10:14:02.448Z</time></trkpt><trkpt lat="43.9727401" lon="12.3722192"><ele>323.0</ele><time>2026-04-29T10:14:03.448Z</time></trkpt><trkpt lat="43.9726534" lon="12.3720201"><ele>323.0</ele><time>2026-04-29T10:14:04.449Z</time></trkpt><trkpt lat="43.9725639" lon="12.3718369"><ele>324.25</ele><time>2026-04-29T10:14:05.448Z</time></trkpt><trkpt lat="43.972488" lon="12.3716561"><ele>325.5</ele><time>2026-04-29T10:14:06.448Z</time></trkpt><trkpt lat="43.9724308" lon="12.3714812"><ele>326.75</ele><time>2026-04-29T10:14:07.448Z</time></trkpt><trkpt lat="43.9723819" lon="12.371297"><ele>328.0</ele><time>2026-04-29T10:14:08.448Z</time></trkpt><trkpt lat="43.9723553" lon="12.3711029"><ele>328.0</ele><time>2026-04-29T10:14:09.448Z</time></trkpt><trkpt lat="43.9723411" lon="12.3708923"><ele>328.0</ele><time>2026-04-29T10:14:10.448Z</time></trkpt><trkpt lat="43.9723335" lon="12.3706672"><ele>328.0</ele><time>2026-04-29T10:14:11.448Z</time></trkpt><trkpt lat="43.9723187" lon="12.3704475"><ele>329.0</ele><time>2026-04-29T10:14:12.449Z</time></trkpt><trkpt lat="43.9722905" lon="12.3702304"><ele>330.0</ele><time>2026-04-29T10:14:13.448Z</time></trkpt><trkpt lat="43.9722458" lon="12.3700161"><ele>331.0</ele><time>2026-04-29T10:14:14.448Z</time></trkpt><trkpt lat="43.9721975" lon="12.369809"><ele>332.0</ele><time>2026-04-29T10:14:15.448Z</time></trkpt><trkpt lat="43.9721445" lon="12.3696099"><ele>333.0</ele><time>2026-04-29T10:14:16.448Z</time></trkpt><trkpt lat="43.9720932" lon="12.3694196"><ele>334.0</ele><time>2026-04-29T10:14:17.448Z</time></trkpt><trkpt lat="43.9720509" lon="12.3692414"><ele>335.0</ele><time>2026-04-29T10:14:18.448Z</time></trkpt><trkpt lat="43.9720136" lon="12.369075"><ele>335.0</ele><time>2026-04-29T10:14:19.448Z</time></trkpt><trkpt lat="43.9719908" lon="12.3689239"><ele>335.0</ele><time>2026-04-29T10:14:20.448Z</time></trkpt><trkpt lat="43.9719778" lon="12.3687868"><ele>335.0</ele><time>2026-04-29T10:14:21.448Z</time></trkpt><trkpt lat="43.9719861" lon="12.368669"><ele>335.0</ele><time>2026-04-29T10:14:22.448Z</time></trkpt><trkpt lat="43.9720205" lon="12.3685686"><ele>335.0</ele><time>2026-04-29T10:14:23.449Z</time></trkpt><trkpt lat="43.9720653" lon="12.3684728"><ele>335.83333333333337</ele><time>2026-04-29T10:14:24.448Z</time></trkpt><trkpt lat="43.9720946" lon="12.3683724"><ele>336.6666666666667</ele><time>2026-04-29T10:14:25.448Z</time></trkpt><trkpt lat="43.9721031" lon="12.3682636"><ele>337.5</ele><time>2026-04-29T10:14:26.449Z</time></trkpt><trkpt lat="43.9720951" lon="12.3681491"><ele>338.3333333333333</ele><time>2026-04-29T10:14:27.449Z</time></trkpt><trkpt lat="43.9720721" lon="12.3680276"><ele>339.16666666666663</ele><time>2026-04-29T10:14:28.449Z</time></trkpt><trkpt lat="43.972031" lon="12.3678991"><ele>340.0</ele><time>2026-04-29T10:14:29.448Z</time></trkpt><trkpt lat="43.971979" lon="12.3677674"><ele>340.0</ele><time>2026-04-29T10:14:30.448Z</time></trkpt><trkpt lat="43.9719222" lon="12.367648"><ele>340.0</ele><time>2026-04-29T10:14:31.448Z</time></trkpt><trkpt lat="43.971867" lon="12.3675417"><ele>340.0</ele><time>2026-04-29T10:14:32.448Z</time></trkpt><trkpt lat="43.9718288" lon="12.3674521"><ele>340.0</ele><time>2026-04-29T10:14:33.448Z</time></trkpt><trkpt lat="43.9718075" lon="12.3673607"><ele>340.0</ele><time>2026-04-29T10:14:34.448Z</time></trkpt><trkpt lat="43.9718072" lon="12.3672566"><ele>340.0</ele><time>2026-04-29T10:14:35.448Z</time></trkpt><trkpt lat="43.971825" lon="12.3671637"><ele>339.5</ele><time>2026-04-29T10:14:36.448Z</time></trkpt><trkpt lat="43.9718587" lon="12.3670694"><ele>339.0</ele><time>2026-04-29T10:14:37.448Z</time></trkpt><trkpt lat="43.9718966" lon="12.3669733"><ele>338.5</ele><time>2026-04-29T10:14:38.448Z</time></trkpt><trkpt lat="43.9719336" lon="12.3668765"><ele>338.0</ele><time>2026-04-29T10:14:39.448Z</time></trkpt><trkpt lat="43.9719608" lon="12.3667704"><ele>337.5</ele><time>2026-04-29T10:14:40.448Z</time></trkpt><trkpt lat="43.9719781" lon="12.3666444"><ele>337.0</ele><time>2026-04-29T10:14:41.448Z</time></trkpt><trkpt lat="43.9719804" lon="12.3664997"><ele>337.0</ele><time>2026-04-29T10:14:42.448Z</time></trkpt><trkpt lat="43.9719747" lon="12.3663511"><ele>337.0</ele><time>2026-04-29T10:14:43.448Z</time></trkpt><trkpt lat="43.9719568" lon="12.3662123"><ele>337.0</ele><time>2026-04-29T10:14:44.448Z</time></trkpt><trkpt lat="43.9719329" lon="12.366101"><ele>337.0</ele><time>2026-04-29T10:14:45.448Z</time></trkpt><trkpt lat="43.9719039" lon="12.3659988"><ele>337.0</ele><time>2026-04-29T10:14:46.448Z</time></trkpt><trkpt lat="43.9718669" lon="12.3659119"><ele>337.0</ele><time>2026-04-29T10:14:47.448Z</time></trkpt><trkpt lat="43.9718293" lon="12.3658196"><ele>337.0</ele><time>2026-04-29T10:14:48.448Z</time></trkpt><trkpt lat="43.9717824" lon="12.3657237"><ele>337.0</ele><time>2026-04-29T10:14:49.448Z</time></trkpt><trkpt lat="43.971715" lon="12.3656412"><ele>337.0</ele><time>2026-04-29T10:14:50.448Z</time></trkpt><trkpt lat="43.9716336" lon="12.365562"><ele>337.0</ele><time>2026-04-29T10:14:51.448Z</time></trkpt><trkpt lat="43.9715446" lon="12.3654708"><ele>337.0</ele><time>2026-04-29T10:14:52.448Z</time></trkpt><trkpt lat="43.9714475" lon="12.3653879"><ele>337.6</ele><time>2026-04-29T10:14:53.448Z</time></trkpt><trkpt lat="43.9713496" lon="12.3653106"><ele>338.20000000000005</ele><time>2026-04-29T10:14:54.449Z</time></trkpt><trkpt lat="43.9712565" lon="12.3652444"><ele>338.8</ele><time>2026-04-29T10:14:55.448Z</time></trkpt><trkpt lat="43.9711707" lon="12.3651858"><ele>339.4</ele><time>2026-04-29T10:14:56.448Z</time></trkpt><trkpt lat="43.9710874" lon="12.3651211"><ele>340.0</ele><time>2026-04-29T10:14:57.448Z</time></trkpt><trkpt lat="43.971007" lon="12.3650418"><ele>340.0</ele><time>2026-04-29T10:14:58.448Z</time></trkpt><trkpt lat="43.9709294" lon="12.3649336"><ele>340.0</ele><time>2026-04-29T10:14:59.448Z</time></trkpt><trkpt lat="43.9708631" lon="12.3648205"><ele>340.0</ele><time>2026-04-29T10:15:00.448Z</time></trkpt><trkpt lat="43.9708023" lon="12.3647122"><ele>340.0</ele><time>2026-04-29T10:15:01.448Z</time></trkpt><trkpt lat="43.9707452" lon="12.3646118"><ele>340.0</ele><time>2026-04-29T10:15:02.448Z</time></trkpt><trkpt lat="43.9706896" lon="12.3645127"><ele>338.0</ele><time>2026-04-29T10:15:03.448Z</time></trkpt><trkpt lat="43.970634" lon="12.3644219"><ele>336.0</ele><time>2026-04-29T10:15:04.448Z</time></trkpt><trkpt lat="43.9705674" lon="12.3643349"><ele>334.0</ele><time>2026-04-29T10:15:05.448Z</time></trkpt><trkpt lat="43.9704886" lon="12.364251"><ele>332.0</ele><time>2026-04-29T10:15:06.448Z</time></trkpt><trkpt lat="43.9703972" lon="12.364179"><ele>330.0</ele><time>2026-04-29T10:15:07.448Z</time></trkpt><trkpt lat="43.9703133" lon="12.364133"><ele>330.0</ele><time>2026-04-29T10:15:08.448Z</time></trkpt><trkpt lat="43.9702379" lon="12.3641141"><ele>330.0</ele><time>2026-04-29T10:15:09.448Z</time></trkpt><trkpt lat="43.9701682" lon="12.3640982"><ele>330.0</ele><time>2026-04-29T10:15:10.448Z</time></trkpt><trkpt lat="43.9701081" lon="12.3640654"><ele>330.0</ele><time>2026-04-29T10:15:11.449Z</time></trkpt><trkpt lat="43.9700402" lon="12.3640126"><ele>330.0</ele><time>2026-04-29T10:15:12.448Z</time></trkpt><trkpt lat="43.9699618" lon="12.3639327"><ele>330.0</ele><time>2026-04-29T10:15:13.448Z</time></trkpt><trkpt lat="43.9698777" lon="12.3638309"><ele>329.4</ele><time>2026-04-29T10:15:14.448Z</time></trkpt><trkpt lat="43.9697983" lon="12.3637311"><ele>328.8</ele><time>2026-04-29T10:15:15.448Z</time></trkpt><trkpt lat="43.9697198" lon="12.3636424"><ele>328.20000000000005</ele><time>2026-04-29T10:15:16.448Z</time></trkpt><trkpt lat="43.9696501" lon="12.3635643"><ele>327.6</ele><time>2026-04-29T10:15:17.448Z</time></trkpt><trkpt lat="43.9695855" lon="12.363495"><ele>327.0</ele><time>2026-04-29T10:15:18.448Z</time></trkpt><trkpt lat="43.9695162" lon="12.3634402"><ele>327.0</ele><time>2026-04-29T10:15:19.448Z</time></trkpt><trkpt lat="43.9694387" lon="12.3633918"><ele>327.0</ele><time>2026-04-29T10:15:20.449Z</time></trkpt><trkpt lat="43.9693484" lon="12.3633569"><ele>327.0</ele><time>2026-04-29T10:15:21.448Z</time></trkpt><trkpt lat="43.9692611" lon="12.3633302"><ele>327.0</ele><time>2026-04-29T10:15:22.448Z</time></trkpt><trkpt lat="43.9691747" lon="12.3633097"><ele>327.0</ele><time>2026-04-29T10:15:23.448Z</time></trkpt><trkpt lat="43.9690908" lon="12.3633145"><ele>327.0</ele><time>2026-04-29T10:15:24.448Z</time></trkpt><trkpt lat="43.969017" lon="12.3633363"><ele>325.8</ele><time>2026-04-29T10:15:25.448Z</time></trkpt><trkpt lat="43.968946" lon="12.363352"><ele>324.6</ele><time>2026-04-29T10:15:26.448Z</time></trkpt><trkpt lat="43.9688356" lon="12.3633173"><ele>323.40000000000003</ele><time>2026-04-29T10:15:28.448Z</time></trkpt><trkpt lat="43.9687585" lon="12.3632105"><ele>322.20000000000005</ele><time>2026-04-29T10:15:30.448Z</time></trkpt><trkpt lat="43.9687201" lon="12.3630251"><ele>321.0</ele><time>2026-04-29T10:15:32.448Z</time></trkpt><trkpt lat="43.9687002" lon="12.3628881"><ele>321.0</ele><time>2026-04-29T10:15:33.448Z</time></trkpt><trkpt lat="43.9686754" lon="12.362742"><ele>321.0</ele><time>2026-04-29T10:15:34.448Z</time></trkpt><trkpt lat="43.9686448" lon="12.3625708"><ele>321.0</ele><time>2026-04-29T10:15:35.448Z</time></trkpt><trkpt lat="43.9686119" lon="12.3623951"><ele>321.0</ele><time>2026-04-29T10:15:36.448Z</time></trkpt><trkpt lat="43.968586" lon="12.3622236"><ele>319.8</ele><time>2026-04-29T10:15:37.448Z</time></trkpt><trkpt lat="43.968566" lon="12.3620631"><ele>318.6</ele><time>2026-04-29T10:15:38.448Z</time></trkpt><trkpt lat="43.9685481" lon="12.3619186"><ele>317.4</ele><time>2026-04-29T10:15:39.448Z</time></trkpt><trkpt lat="43.9685237" lon="12.3617847"><ele>316.2</ele><time>2026-04-29T10:15:40.448Z</time></trkpt><trkpt lat="43.9684963" lon="12.3616461"><ele>315.0</ele><time>2026-04-29T10:15:41.448Z</time></trkpt><trkpt lat="43.968464" lon="12.361506"><ele>312.0</ele><time>2026-04-29T10:15:42.448Z</time></trkpt><trkpt lat="43.9684325" lon="12.3613533"><ele>309.0</ele><time>2026-04-29T10:15:43.448Z</time></trkpt><trkpt lat="43.968398" lon="12.3612016"><ele>306.0</ele><time>2026-04-29T10:15:44.448Z</time></trkpt><trkpt lat="43.9683619" lon="12.3610612"><ele>303.0</ele><time>2026-04-29T10:15:45.448Z</time></trkpt><trkpt lat="43.9683205" lon="12.3609326"><ele>300.0</ele><time>2026-04-29T10:15:46.448Z</time></trkpt><trkpt lat="43.9682698" lon="12.3608182"><ele>299.4</ele><time>2026-04-29T10:15:47.449Z</time></trkpt><trkpt lat="43.968217" lon="12.3606994"><ele>298.8</ele><time>2026-04-29T10:15:48.448Z</time></trkpt><trkpt lat="43.9681586" lon="12.3605891"><ele>298.2</ele><time>2026-04-29T10:15:49.448Z</time></trkpt><trkpt lat="43.9681008" lon="12.3604842"><ele>297.6</ele><time>2026-04-29T10:15:50.448Z</time></trkpt><trkpt lat="43.9680332" lon="12.3603925"><ele>297.0</ele><time>2026-04-29T10:15:51.448Z</time></trkpt><trkpt lat="43.967953" lon="12.3603033"><ele>294.0</ele><time>2026-04-29T10:15:52.448Z</time></trkpt><trkpt lat="43.967864" lon="12.3602174"><ele>291.0</ele><time>2026-04-29T10:15:53.448Z</time></trkpt><trkpt lat="43.967764" lon="12.3601276"><ele>288.0</ele><time>2026-04-29T10:15:54.448Z</time></trkpt><trkpt lat="43.9676609" lon="12.3600352"><ele>285.0</ele><time>2026-04-29T10:15:55.448Z</time></trkpt><trkpt lat="43.9675518" lon="12.3599403"><ele>286.2</ele><time>2026-04-29T10:15:56.448Z</time></trkpt><trkpt lat="43.9674365" lon="12.3598429"><ele>287.4</ele><time>2026-04-29T10:15:57.448Z</time></trkpt><trkpt lat="43.9673304" lon="12.3597542"><ele>288.6</ele><time>2026-04-29T10:15:58.448Z</time></trkpt><trkpt lat="43.9672456" lon="12.3596807"><ele>289.8</ele><time>2026-04-29T10:15:59.448Z</time></trkpt><trkpt lat="43.9671728" lon="12.3596301"><ele>291.0</ele><time>2026-04-29T10:16:00.448Z</time></trkpt><trkpt lat="43.9671076" lon="12.359595"><ele>291.0</ele><time>2026-04-29T10:16:01.448Z</time></trkpt><trkpt lat="43.9669935" lon="12.3595837"><ele>291.0</ele><time>2026-04-29T10:16:03.448Z</time></trkpt><trkpt lat="43.96693" lon="12.3597109"><ele>291.0</ele><time>2026-04-29T10:16:05.448Z</time></trkpt><trkpt lat="43.9669205" lon="12.3598162"><ele>291.0</ele><time>2026-04-29T10:16:06.448Z</time></trkpt><trkpt lat="43.9669037" lon="12.359917"><ele>291.0</ele><time>2026-04-29T10:16:07.448Z</time></trkpt><trkpt lat="43.9668648" lon="12.3599961"><ele>291.0</ele><time>2026-04-29T10:16:08.448Z</time></trkpt><trkpt lat="43.9668065" lon="12.3600413"><ele>291.0</ele><time>2026-04-29T10:16:09.448Z</time></trkpt><trkpt lat="43.9667312" lon="12.3600631"><ele>291.0</ele><time>2026-04-29T10:16:10.448Z</time></trkpt><trkpt lat="43.9666407" lon="12.3600602"><ele>291.0</ele><time>2026-04-29T10:16:11.448Z</time></trkpt><trkpt lat="43.966543" lon="12.3600453"><ele>291.0</ele><time>2026-04-29T10:16:12.449Z</time></trkpt><trkpt lat="43.966437" lon="12.3600219"><ele>291.0</ele><time>2026-04-29T10:16:13.448Z</time></trkpt><trkpt lat="43.9663221" lon="12.3599862"><ele>294.25</ele><time>2026-04-29T10:16:14.448Z</time></trkpt><trkpt lat="43.9661989" lon="12.3599352"><ele>297.5</ele><time>2026-04-29T10:16:15.449Z</time></trkpt><trkpt lat="43.9660811" lon="12.3598805"><ele>300.75</ele><time>2026-04-29T10:16:16.448Z</time></trkpt><trkpt lat="43.9659665" lon="12.359825"><ele>304.0</ele><time>2026-04-29T10:16:17.448Z</time></trkpt><trkpt lat="43.9658493" lon="12.3597779"><ele>305.4</ele><time>2026-04-29T10:16:18.448Z</time></trkpt><trkpt lat="43.9657285" lon="12.3597499"><ele>306.79999999999995</ele><time>2026-04-29T10:16:19.448Z</time></trkpt><trkpt lat="43.9656159" lon="12.3597296"><ele>308.20000000000005</ele><time>2026-04-29T10:16:20.449Z</time></trkpt><trkpt lat="43.9655153" lon="12.3597093"><ele>309.6</ele><time>2026-04-29T10:16:21.448Z</time></trkpt><trkpt lat="43.9654294" lon="12.3596761"><ele>311.0</ele><time>2026-04-29T10:16:22.448Z</time></trkpt><trkpt lat="43.9653577" lon="12.3596219"><ele>312.0</ele><time>2026-04-29T10:16:23.448Z</time></trkpt><trkpt lat="43.9653066" lon="12.3595544"><ele>313.0</ele><time>2026-04-29T10:16:24.449Z</time></trkpt><trkpt lat="43.9652689" lon="12.3594658"><ele>314.0</ele><time>2026-04-29T10:16:25.448Z</time></trkpt><trkpt lat="43.9652393" lon="12.3593487"><ele>315.0</ele><time>2026-04-29T10:16:26.448Z</time></trkpt><trkpt lat="43.9652158" lon="12.3592047"><ele>316.0</ele><time>2026-04-29T10:16:27.448Z</time></trkpt><trkpt lat="43.9651861" lon="12.3590503"><ele>316.0</ele><time>2026-04-29T10:16:28.448Z</time></trkpt><trkpt lat="43.9651556" lon="12.3588943"><ele>316.0</ele><time>2026-04-29T10:16:29.448Z</time></trkpt><trkpt lat="43.9651252" lon="12.3587355"><ele>316.0</ele><time>2026-04-29T10:16:30.448Z</time></trkpt><trkpt lat="43.965093" lon="12.3585762"><ele>316.0</ele><time>2026-04-29T10:16:31.448Z</time></trkpt><trkpt lat="43.965063" lon="12.3584057"><ele>317.25</ele><time>2026-04-29T10:16:32.448Z</time></trkpt><trkpt lat="43.96503" lon="12.3582267"><ele>318.5</ele><time>2026-04-29T10:16:33.448Z</time></trkpt><trkpt lat="43.9649931" lon="12.358053"><ele>319.75</ele><time>2026-04-29T10:16:34.448Z</time></trkpt><trkpt lat="43.9649591" lon="12.3578941"><ele>321.0</ele><time>2026-04-29T10:16:35.449Z</time></trkpt><trkpt lat="43.9649202" lon="12.3577589"><ele>325.4</ele><time>2026-04-29T10:16:36.448Z</time></trkpt><trkpt lat="43.9648772" lon="12.3576451"><ele>329.8</ele><time>2026-04-29T10:16:37.448Z</time></trkpt><trkpt lat="43.9648261" lon="12.3575496"><ele>334.2</ele><time>2026-04-29T10:16:38.448Z</time></trkpt><trkpt lat="43.9647597" lon="12.357442"><ele>338.59999999999997</ele><time>2026-04-29T10:16:39.448Z</time></trkpt><trkpt lat="43.964686" lon="12.3573285"><ele>343.0</ele><time>2026-04-29T10:16:40.448Z</time></trkpt><trkpt lat="43.9646152" lon="12.3572099"><ele>342.59999999999997</ele><time>2026-04-29T10:16:41.448Z</time></trkpt><trkpt lat="43.9645432" lon="12.3570945"><ele>342.2</ele><time>2026-04-29T10:16:42.448Z</time></trkpt><trkpt lat="43.9644804" lon="12.3569727"><ele>341.8</ele><time>2026-04-29T10:16:43.449Z</time></trkpt><trkpt lat="43.9644242" lon="12.3568447"><ele>341.4</ele><time>2026-04-29T10:16:44.448Z</time></trkpt><trkpt lat="43.9643693" lon="12.3567166"><ele>341.0</ele><time>2026-04-29T10:16:45.448Z</time></trkpt><trkpt lat="43.9643178" lon="12.3566023"><ele>341.0</ele><time>2026-04-29T10:16:46.448Z</time></trkpt><trkpt lat="43.9642636" lon="12.3565067"><ele>341.0</ele><time>2026-04-29T10:16:47.448Z</time></trkpt><trkpt lat="43.9642011" lon="12.3564131"><ele>341.0</ele><time>2026-04-29T10:16:48.448Z</time></trkpt><trkpt lat="43.9641236" lon="12.3563191"><ele>341.0</ele><time>2026-04-29T10:16:49.448Z</time></trkpt><trkpt lat="43.9640359" lon="12.3562223"><ele>341.0</ele><time>2026-04-29T10:16:50.448Z</time></trkpt><trkpt lat="43.9639395" lon="12.356136"><ele>338.25</ele><time>2026-04-29T10:16:51.448Z</time></trkpt><trkpt lat="43.963838" lon="12.3560556"><ele>335.5</ele><time>2026-04-29T10:16:52.448Z</time></trkpt><trkpt lat="43.9637289" lon="12.3559883"><ele>332.75</ele><time>2026-04-29T10:16:53.448Z</time></trkpt><trkpt lat="43.9636185" lon="12.3559166"><ele>330.0</ele><time>2026-04-29T10:16:54.448Z</time></trkpt><trkpt lat="43.9635117" lon="12.3558384"><ele>330.0</ele><time>2026-04-29T10:16:55.448Z</time></trkpt><trkpt lat="43.9634257" lon="12.3557547"><ele>330.0</ele><time>2026-04-29T10:16:56.448Z</time></trkpt><trkpt lat="43.9633613" lon="12.3556655"><ele>330.0</ele><time>2026-04-29T10:16:57.448Z</time></trkpt><trkpt lat="43.9633104" lon="12.3555657"><ele>330.0</ele><time>2026-04-29T10:16:58.448Z</time></trkpt><trkpt lat="43.963268" lon="12.3554622"><ele>330.0</ele><time>2026-04-29T10:16:59.449Z</time></trkpt><trkpt lat="43.9632202" lon="12.3553706"><ele>331.8</ele><time>2026-04-29T10:17:00.448Z</time></trkpt><trkpt lat="43.9631634" lon="12.3552875"><ele>333.6</ele><time>2026-04-29T10:17:01.448Z</time></trkpt><trkpt lat="43.9630941" lon="12.3552212"><ele>335.4</ele><time>2026-04-29T10:17:02.448Z</time></trkpt><trkpt lat="43.9630127" lon="12.3551704"><ele>337.2</ele><time>2026-04-29T10:17:03.448Z</time></trkpt><trkpt lat="43.9629154" lon="12.3551199"><ele>339.0</ele><time>2026-04-29T10:17:04.448Z</time></trkpt><trkpt lat="43.9628098" lon="12.3550673"><ele>339.0</ele><time>2026-04-29T10:17:05.448Z</time></trkpt><trkpt lat="43.9627078" lon="12.3550031"><ele>339.0</ele><time>2026-04-29T10:17:06.448Z</time></trkpt><trkpt lat="43.9626171" lon="12.354926"><ele>339.0</ele><time>2026-04-29T10:17:07.448Z</time></trkpt><trkpt lat="43.9625338" lon="12.3548413"><ele>339.0</ele><time>2026-04-29T10:17:08.448Z</time></trkpt><trkpt lat="43.9624628" lon="12.3547643"><ele>339.0</ele><time>2026-04-29T10:17:09.448Z</time></trkpt><trkpt lat="43.9624007" lon="12.3547068"><ele>340.0</ele><time>2026-04-29T10:17:10.449Z</time></trkpt><trkpt lat="43.9623387" lon="12.3546689"><ele>341.0</ele><time>2026-04-29T10:17:11.448Z</time></trkpt><trkpt lat="43.962276" lon="12.3546578"><ele>342.0</ele><time>2026-04-29T10:17:12.448Z</time></trkpt><trkpt lat="43.9622087" lon="12.35467"><ele>343.0</ele><time>2026-04-29T10:17:13.448Z</time></trkpt><trkpt lat="43.9621327" lon="12.3546959"><ele>344.0</ele><time>2026-04-29T10:17:14.448Z</time></trkpt><trkpt lat="43.9620423" lon="12.3547396"><ele>345.0</ele><time>2026-04-29T10:17:15.448Z</time></trkpt><trkpt lat="43.9619468" lon="12.3547969"><ele>347.6</ele><time>2026-04-29T10:17:16.448Z</time></trkpt><trkpt lat="43.9618526" lon="12.3548641"><ele>350.2</ele><time>2026-04-29T10:17:17.448Z</time></trkpt><trkpt lat="43.961764" lon="12.3549413"><ele>352.79999999999995</ele><time>2026-04-29T10:17:18.448Z</time></trkpt><trkpt lat="43.9616822" lon="12.3550119"><ele>355.4</ele><time>2026-04-29T10:17:19.448Z</time></trkpt><trkpt lat="43.9616048" lon="12.3550713"><ele>358.0</ele><time>2026-04-29T10:17:20.448Z</time></trkpt><trkpt lat="43.9615243" lon="12.3551146"><ele>360.0</ele><time>2026-04-29T10:17:21.449Z</time></trkpt><trkpt lat="43.961444" lon="12.3551393"><ele>362.0</ele><time>2026-04-29T10:17:22.448Z</time></trkpt><trkpt lat="43.9613674" lon="12.3551494"><ele>364.0</ele><time>2026-04-29T10:17:23.448Z</time></trkpt><trkpt lat="43.961297" lon="12.3551409"><ele>366.0</ele><time>2026-04-29T10:17:24.449Z</time></trkpt><trkpt lat="43.9612263" lon="12.3551165"><ele>368.0</ele><time>2026-04-29T10:17:25.448Z</time></trkpt><trkpt lat="43.9611575" lon="12.3550687"><ele>370.0</ele><time>2026-04-29T10:17:26.448Z</time></trkpt><trkpt lat="43.9610876" lon="12.3549973"><ele>370.0</ele><time>2026-04-29T10:17:27.448Z</time></trkpt><trkpt lat="43.9610168" lon="12.3549079"><ele>370.0</ele><time>2026-04-29T10:17:28.448Z</time></trkpt><trkpt lat="43.9609492" lon="12.3548235"><ele>370.0</ele><time>2026-04-29T10:17:29.448Z</time></trkpt><trkpt lat="43.9609003" lon="12.3547352"><ele>370.0</ele><time>2026-04-29T10:17:30.448Z</time></trkpt><trkpt lat="43.9608644" lon="12.3546416"><ele>370.0</ele><time>2026-04-29T10:17:31.448Z</time></trkpt><trkpt lat="43.9608355" lon="12.354538"><ele>370.0</ele><time>2026-04-29T10:17:32.448Z</time></trkpt><trkpt lat="43.9608092" lon="12.3544062"><ele>372.25</ele><time>2026-04-29T10:17:33.448Z</time></trkpt><trkpt lat="43.9607786" lon="12.3542561"><ele>374.5</ele><time>2026-04-29T10:17:34.448Z</time></trkpt><trkpt lat="43.9607395" lon="12.354098"><ele>376.75</ele><time>2026-04-29T10:17:35.448Z</time></trkpt><trkpt lat="43.9606933" lon="12.3539338"><ele>379.0</ele><time>2026-04-29T10:17:36.448Z</time></trkpt><trkpt lat="43.9606489" lon="12.3537826"><ele>379.0</ele><time>2026-04-29T10:17:37.448Z</time></trkpt><trkpt lat="43.9606122" lon="12.3536389"><ele>379.0</ele><time>2026-04-29T10:17:38.448Z</time></trkpt><trkpt lat="43.9605818" lon="12.3535074"><ele>379.0</ele><time>2026-04-29T10:17:39.448Z</time></trkpt><trkpt lat="43.9605529" lon="12.3533962"><ele>379.0</ele><time>2026-04-29T10:17:40.448Z</time></trkpt><trkpt lat="43.9605214" lon="12.3533113"><ele>379.0</ele><time>2026-04-29T10:17:41.448Z</time></trkpt><trkpt lat="43.960476" lon="12.3532377"><ele>379.0</ele><time>2026-04-29T10:17:42.448Z</time></trkpt><trkpt lat="43.9604125" lon="12.3531685"><ele>379.00000000000006</ele><time>2026-04-29T10:17:43.448Z</time></trkpt><trkpt lat="43.960346" lon="12.353111"><ele>379.0</ele><time>2026-04-29T10:17:44.449Z</time></trkpt><trkpt lat="43.960279" lon="12.3530689"><ele>379.0</ele><time>2026-04-29T10:17:45.448Z</time></trkpt><trkpt lat="43.9602164" lon="12.3530476"><ele>379.0</ele><time>2026-04-29T10:17:46.448Z</time></trkpt><trkpt lat="43.9601519" lon="12.3530239"><ele>379.0</ele><time>2026-04-29T10:17:47.448Z</time></trkpt><trkpt lat="43.9600747" lon="12.3530037"><ele>379.00000000000006</ele><time>2026-04-29T10:17:48.448Z</time></trkpt><trkpt lat="43.9599934" lon="12.3529875"><ele>379.0</ele><time>2026-04-29T10:17:49.448Z</time></trkpt><trkpt lat="43.9599178" lon="12.3529708"><ele>380.16666666666663</ele><time>2026-04-29T10:17:50.448Z</time></trkpt><trkpt lat="43.9598483" lon="12.3529612"><ele>381.3333333333333</ele><time>2026-04-29T10:17:51.448Z</time></trkpt><trkpt lat="43.9597837" lon="12.3529462"><ele>382.5</ele><time>2026-04-29T10:17:52.448Z</time></trkpt><trkpt lat="43.9597223" lon="12.3529223"><ele>383.66666666666663</ele><time>2026-04-29T10:17:53.448Z</time></trkpt><trkpt lat="43.9596056" lon="12.3528715"><ele>384.8333333333333</ele><time>2026-04-29T10:17:55.448Z</time></trkpt><trkpt lat="43.9594973" lon="12.3528059"><ele>386.0</ele><time>2026-04-29T10:17:57.448Z</time></trkpt><trkpt lat="43.9593938" lon="12.3527347"><ele>386.0</ele><time>2026-04-29T10:17:59.448Z</time></trkpt><trkpt lat="43.9592966" lon="12.3526626"><ele>386.0</ele><time>2026-04-29T10:18:01.448Z</time></trkpt><trkpt lat="43.9591988" lon="12.3525871"><ele>386.0</ele><time>2026-04-29T10:18:03.448Z</time></trkpt><trkpt lat="43.9591505" lon="12.3525214"><ele>386.0</ele><time>2026-04-29T10:18:04.448Z</time></trkpt><trkpt lat="43.9590915" lon="12.3524428"><ele>386.0</ele><time>2026-04-29T10:18:05.448Z</time></trkpt><trkpt lat="43.9590291" lon="12.3523576"><ele>384.66666666666663</ele><time>2026-04-29T10:18:06.448Z</time></trkpt><trkpt lat="43.9589733" lon="12.3522688"><ele>383.3333333333333</ele><time>2026-04-29T10:18:07.449Z</time></trkpt><trkpt lat="43.9589248" lon="12.352188"><ele>382.0</ele><time>2026-04-29T10:18:08.448Z</time></trkpt><trkpt lat="43.9588814" lon="12.3521114"><ele>380.66666666666663</ele><time>2026-04-29T10:18:09.449Z</time></trkpt><trkpt lat="43.9588421" lon="12.3520376"><ele>379.3333333333333</ele><time>2026-04-29T10:18:10.448Z</time></trkpt><trkpt lat="43.9587572" lon="12.3519126"><ele>378.0</ele><time>2026-04-29T10:18:12.448Z</time></trkpt><trkpt lat="43.9586997" lon="12.3518701"><ele>377.3333333333333</ele><time>2026-04-29T10:18:13.448Z</time></trkpt><trkpt lat="43.9586322" lon="12.351846"><ele>376.6666666666667</ele><time>2026-04-29T10:18:14.449Z</time></trkpt><trkpt lat="43.9585673" lon="12.3518335"><ele>376.0</ele><time>2026-04-29T10:18:15.448Z</time></trkpt><trkpt lat="43.9584911" lon="12.3518389"><ele>375.33333333333337</ele><time>2026-04-29T10:18:16.448Z</time></trkpt><trkpt lat="43.9584026" lon="12.3518454"><ele>374.6666666666667</ele><time>2026-04-29T10:18:17.448Z</time></trkpt><trkpt lat="43.9583168" lon="12.3518494"><ele>374.0</ele><time>2026-04-29T10:18:18.449Z</time></trkpt><trkpt lat="43.9582401" lon="12.3518375"><ele>372.6666666666667</ele><time>2026-04-29T10:18:19.448Z</time></trkpt><trkpt lat="43.9581682" lon="12.351805"><ele>371.33333333333337</ele><time>2026-04-29T10:18:20.448Z</time></trkpt><trkpt lat="43.958091" lon="12.3517541"><ele>370.0</ele><time>2026-04-29T10:18:21.448Z</time></trkpt><trkpt lat="43.9580141" lon="12.3516966"><ele>368.6666666666667</ele><time>2026-04-29T10:18:22.448Z</time></trkpt><trkpt lat="43.9579303" lon="12.3516381"><ele>367.3333333333333</ele><time>2026-04-29T10:18:23.448Z</time></trkpt><trkpt lat="43.9578466" lon="12.351592"><ele>366.0</ele><time>2026-04-29T10:18:24.448Z</time></trkpt><trkpt lat="43.9577695" lon="12.3515598"><ele>366.0</ele><time>2026-04-29T10:18:25.448Z</time></trkpt><trkpt lat="43.9576923" lon="12.3515389"><ele>366.0</ele><time>2026-04-29T10:18:26.448Z</time></trkpt><trkpt lat="43.9576143" lon="12.3515339"><ele>366.0</ele><time>2026-04-29T10:18:27.449Z</time></trkpt><trkpt lat="43.9575318" lon="12.3515388"><ele>366.0</ele><time>2026-04-29T10:18:28.448Z</time></trkpt><trkpt lat="43.9574578" lon="12.3515498"><ele>366.0</ele><time>2026-04-29T10:18:29.448Z</time></trkpt><trkpt lat="43.9573896" lon="12.3515688"><ele>366.0</ele><time>2026-04-29T10:18:30.448Z</time></trkpt><trkpt lat="43.957294" lon="12.3516167"><ele>366.6666666666667</ele><time>2026-04-29T10:18:32.448Z</time></trkpt><trkpt lat="43.9572233" lon="12.3516789"><ele>367.3333333333333</ele><time>2026-04-29T10:18:34.448Z</time></trkpt><trkpt lat="43.9571369" lon="12.351737"><ele>368.0</ele><time>2026-04-29T10:18:36.448Z</time></trkpt><trkpt lat="43.9570554" lon="12.3517462"><ele>368.66666666666663</ele><time>2026-04-29T10:18:38.448Z</time></trkpt><trkpt lat="43.9569843" lon="12.3517337"><ele>369.3333333333333</ele><time>2026-04-29T10:18:40.448Z</time></trkpt><trkpt lat="43.9569201" lon="12.3517028"><ele>370.0</ele><time>2026-04-29T10:18:42.448Z</time></trkpt><trkpt lat="43.9568515" lon="12.3516801"><ele>370.0</ele><time>2026-04-29T10:18:44.448Z</time></trkpt><trkpt lat="43.9567886" lon="12.3516609"><ele>370.0</ele><time>2026-04-29T10:18:46.448Z</time></trkpt><trkpt lat="43.9566989" lon="12.3516144"><ele>370.0</ele><time>2026-04-29T10:18:49.448Z</time></trkpt><trkpt lat="43.9566253" lon="12.3515574"><ele>370.0</ele><time>2026-04-29T10:18:51.448Z</time></trkpt><trkpt lat="43.9565655" lon="12.3515092"><ele>370.0</ele><time>2026-04-29T10:18:53.448Z</time></trkpt><trkpt lat="43.956513" lon="12.3514506"><ele>370.0</ele><time>2026-04-29T10:18:55.449Z</time></trkpt><trkpt lat="43.9564526" lon="12.3513816"><ele>366.6</ele><time>2026-04-29T10:18:57.448Z</time></trkpt><trkpt lat="43.9563494" lon="12.3513241"><ele>363.2</ele><time>2026-04-29T10:18:59.448Z</time></trkpt><trkpt lat="43.956284" lon="12.3513159"><ele>359.79999999999995</ele><time>2026-04-29T10:19:00.448Z</time></trkpt><trkpt lat="43.9562173" lon="12.3513169"><ele>356.4</ele><time>2026-04-29T10:19:01.448Z</time></trkpt><trkpt lat="43.9560974" lon="12.3513208"><ele>353.0</ele><time>2026-04-29T10:19:03.448Z</time></trkpt><trkpt lat="43.9559915" lon="12.3513136"><ele>353.0</ele><time>2026-04-29T10:19:05.448Z</time></trkpt><trkpt lat="43.9558932" lon="12.3512838"><ele>353.0</ele><time>2026-04-29T10:19:07.448Z</time></trkpt><trkpt lat="43.9557922" lon="12.3512407"><ele>353.0</ele><time>2026-04-29T10:19:09.448Z</time></trkpt><trkpt lat="43.9556979" lon="12.3511839"><ele>353.0</ele><time>2026-04-29T10:19:11.448Z</time></trkpt><trkpt lat="43.9556098" lon="12.3511403"><ele>353.0</ele><time>2026-04-29T10:19:13.448Z</time></trkpt><trkpt lat="43.9555411" lon="12.3510765"><ele>351.33333333333337</ele><time>2026-04-29T10:19:15.448Z</time></trkpt><trkpt lat="43.955467" lon="12.3510408"><ele>349.6666666666667</ele><time>2026-04-29T10:19:17.449Z</time></trkpt><trkpt lat="43.9553979" lon="12.3510506"><ele>348.0</ele><time>2026-04-29T10:19:19.448Z</time></trkpt><trkpt lat="43.9553111" lon="12.3510997"><ele>346.3333333333333</ele><time>2026-04-29T10:19:22.448Z</time></trkpt><trkpt lat="43.9552394" lon="12.3511175"><ele>344.66666666666663</ele><time>2026-04-29T10:19:24.448Z</time></trkpt><trkpt lat="43.9551529" lon="12.351131"><ele>343.0</ele><time>2026-04-29T10:19:26.449Z</time></trkpt><trkpt lat="43.9550593" lon="12.3511253"><ele>340.59999999999997</ele><time>2026-04-29T10:19:28.448Z</time></trkpt><trkpt lat="43.9549521" lon="12.3511212"><ele>338.2</ele><time>2026-04-29T10:19:30.448Z</time></trkpt><trkpt lat="43.9548326" lon="12.3510862"><ele>335.8</ele><time>2026-04-29T10:19:32.448Z</time></trkpt><trkpt lat="43.9547227" lon="12.3510658"><ele>333.4</ele><time>2026-04-29T10:19:34.448Z</time></trkpt><trkpt lat="43.9546266" lon="12.3510462"><ele>331.0</ele><time>2026-04-29T10:19:36.448Z</time></trkpt><trkpt lat="43.9545401" lon="12.3510105"><ele>331.0</ele><time>2026-04-29T10:19:38.448Z</time></trkpt><trkpt lat="43.9544671" lon="12.3509912"><ele>331.0</ele><time>2026-04-29T10:19:40.448Z</time></trkpt><trkpt lat="43.9543893" lon="12.3509897"><ele>331.0</ele><time>2026-04-29T10:19:42.448Z</time></trkpt><trkpt lat="43.9543203" lon="12.3509919"><ele>331.0</ele><time>2026-04-29T10:19:44.448Z</time></trkpt><trkpt lat="43.9542146" lon="12.3509968"><ele>331.0</ele><time>2026-04-29T10:19:51.449Z</time></trkpt><trkpt lat="43.9541286" lon="12.3510392"><ele>331.0</ele><time>2026-04-29T10:19:55.448Z</time></trkpt><trkpt lat="43.954065" lon="12.3510717"><ele>328.42857142857144</ele><time>2026-04-29T10:19:57.448Z</time></trkpt><trkpt lat="43.9539828" lon="12.3510814"><ele>325.85714285714283</ele><time>2026-04-29T10:20:00.449Z</time></trkpt><trkpt lat="43.9539089" lon="12.3511065"><ele>323.2857142857143</ele><time>2026-04-29T10:20:03.449Z</time></trkpt><trkpt lat="43.9538492" lon="12.3510701"><ele>320.7142857142857</ele><time>2026-04-29T10:20:07.448Z</time></trkpt><trkpt lat="43.9538788" lon="12.3509843"><ele>318.14285714285717</ele><time>2026-04-29T10:20:11.448Z</time></trkpt><trkpt lat="43.9539244" lon="12.3509139"><ele>315.57142857142856</ele><time>2026-04-29T10:20:13.448Z</time></trkpt><trkpt lat="43.9539677" lon="12.3508316"><ele>313.0</ele><time>2026-04-29T10:20:15.448Z</time></trkpt><trkpt lat="43.9540091" lon="12.3507259"><ele>313.0</ele><time>2026-04-29T10:20:17.448Z</time></trkpt><trkpt lat="43.9540407" lon="12.3506295"><ele>313.0</ele><time>2026-04-29T10:20:19.448Z</time></trkpt><trkpt lat="43.9540762" lon="12.3505285"><ele>313.0</ele><time>2026-04-29T10:20:21.448Z</time></trkpt><trkpt lat="43.9541138" lon="12.3504314"><ele>313.0</ele><time>2026-04-29T10:20:23.449Z</time></trkpt><trkpt lat="43.9541516" lon="12.3503466"><ele>313.0</ele><time>2026-04-29T10:20:25.448Z</time></trkpt><trkpt lat="43.9541916" lon="12.3502637"><ele>313.0</ele><time>2026-04-29T10:20:27.448Z</time></trkpt><trkpt lat="43.9542204" lon="12.3501689"><ele>314.0</ele><time>2026-04-29T10:20:29.448Z</time></trkpt><trkpt lat="43.954255" lon="12.3500807"><ele>315.0</ele><time>2026-04-29T10:20:31.448Z</time></trkpt><trkpt lat="43.9542969" lon="12.34998"><ele>316.0</ele><time>2026-04-29T10:20:33.449Z</time></trkpt><trkpt lat="43.9543345" lon="12.3498976"><ele>317.0</ele><time>2026-04-29T10:20:35.448Z</time></trkpt><trkpt lat="43.954377" lon="12.3498161"><ele>318.0</ele><time>2026-04-29T10:20:37.449Z</time></trkpt><trkpt lat="43.9544286" lon="12.3497104"><ele>319.0</ele><time>2026-04-29T10:20:39.449Z</time></trkpt><trkpt lat="43.9544763" lon="12.3495932"><ele>315.4</ele><time>2026-04-29T10:20:41.448Z</time></trkpt><trkpt lat="43.9545272" lon="12.3494789"><ele>311.79999999999995</ele><time>2026-04-29T10:20:43.448Z</time></trkpt><trkpt lat="43.9545854" lon="12.3493686"><ele>308.20000000000005</ele><time>2026-04-29T10:20:45.448Z</time></trkpt><trkpt lat="43.9546396" lon="12.3492597"><ele>304.6</ele><time>2026-04-29T10:20:47.448Z</time></trkpt><trkpt lat="43.9546791" lon="12.3491532"><ele>301.0</ele><time>2026-04-29T10:20:49.448Z</time></trkpt><trkpt lat="43.9547228" lon="12.3490422"><ele>301.0</ele><time>2026-04-29T10:20:51.448Z</time></trkpt><trkpt lat="43.9547623" lon="12.3489222"><ele>301.0</ele><time>2026-04-29T10:20:53.448Z</time></trkpt><trkpt lat="43.9547915" lon="12.348816"><ele>301.0</ele><time>2026-04-29T10:20:55.449Z</time></trkpt><trkpt lat="43.9548268" lon="12.3487143"><ele>301.0</ele><time>2026-04-29T10:20:58.448Z</time></trkpt><trkpt lat="43.9548825" lon="12.3486436"><ele>301.0</ele><time>2026-04-29T10:21:01.448Z</time></trkpt><trkpt lat="43.9549418" lon="12.3485945"><ele>301.0</ele><time>2026-04-29T10:21:03.448Z</time></trkpt><trkpt lat="43.9550157" lon="12.3485146"><ele>301.5</ele><time>2026-04-29T10:21:05.448Z</time></trkpt><trkpt lat="43.9550659" lon="12.3484014"><ele>302.0</ele><time>2026-04-29T10:21:07.448Z</time></trkpt><trkpt lat="43.9550633" lon="12.3483084"><ele>302.5</ele><time>2026-04-29T10:21:09.448Z</time></trkpt><trkpt lat="43.9549871" lon="12.3482418"><ele>303.0</ele><time>2026-04-29T10:21:11.448Z</time></trkpt><trkpt lat="43.9548935" lon="12.3482142"><ele>303.5</ele><time>2026-04-29T10:21:13.448Z</time></trkpt><trkpt lat="43.954831" lon="12.3481956"><ele>304.0</ele><time>2026-04-29T10:21:15.448Z</time></trkpt><trkpt lat="43.9547495" lon="12.3481832"><ele>301.16666666666663</ele><time>2026-04-29T10:21:17.448Z</time></trkpt><trkpt lat="43.9546672" lon="12.3481621"><ele>298.3333333333333</ele><time>2026-04-29T10:21:19.448Z</time></trkpt><trkpt lat="43.9546036" lon="12.3481322"><ele>295.5</ele><time>2026-04-29T10:21:21.448Z</time></trkpt><trkpt lat="43.9545374" lon="12.3480869"><ele>292.6666666666667</ele><time>2026-04-29T10:21:23.449Z</time></trkpt><trkpt lat="43.9544994" lon="12.3479853"><ele>289.83333333333337</ele><time>2026-04-29T10:21:26.448Z</time></trkpt><trkpt lat="43.9545143" lon="12.3478986"><ele>287.0</ele><time>2026-04-29T10:21:28.448Z</time></trkpt><trkpt lat="43.9545315" lon="12.3477765"><ele>286.5</ele><time>2026-04-29T10:21:31.448Z</time></trkpt><trkpt lat="43.9545369" lon="12.3476536"><ele>286.0</ele><time>2026-04-29T10:21:34.448Z</time></trkpt><trkpt lat="43.9545558" lon="12.3475396"><ele>285.5</ele><time>2026-04-29T10:21:48.448Z</time></trkpt><trkpt lat="43.9545601" lon="12.3474357"><ele>285.0</ele><time>2026-04-29T10:21:51.449Z</time></trkpt><trkpt lat="43.9545538" lon="12.3473263"><ele>284.5</ele><time>2026-04-29T10:21:54.448Z</time></trkpt><trkpt lat="43.9545571" lon="12.3472063"><ele>284.0</ele><time>2026-04-29T10:21:57.448Z</time></trkpt><trkpt lat="43.9545528" lon="12.3470998"><ele>280.33333333333337</ele><time>2026-04-29T10:22:00.448Z</time></trkpt><trkpt lat="43.9544944" lon="12.347031"><ele>276.6666666666667</ele><time>2026-04-29T10:22:03.448Z</time></trkpt><trkpt lat="43.9544005" lon="12.3470252"><ele>273.0</ele><time>2026-04-29T10:22:06.448Z</time></trkpt><trkpt lat="43.9543381" lon="12.3470386"><ele>269.3333333333333</ele><time>2026-04-29T10:22:08.448Z</time></trkpt><trkpt lat="43.9542646" lon="12.3470731"><ele>265.66666666666663</ele><time>2026-04-29T10:22:11.448Z</time></trkpt><trkpt lat="43.9541834" lon="12.3470541"><ele>262.0</ele><time>2026-04-29T10:22:14.448Z</time></trkpt><trkpt lat="43.9541076" lon="12.347016"><ele>258.5</ele><time>2026-04-29T10:22:17.448Z</time></trkpt><trkpt lat="43.9540238" lon="12.3470014"><ele>255.0</ele><time>2026-04-29T10:22:20.449Z</time></trkpt><trkpt lat="43.9539532" lon="12.3469989"><ele>251.5</ele><time>2026-04-29T10:22:23.448Z</time></trkpt><trkpt lat="43.9538837" lon="12.3469786"><ele>248.0</ele><time>2026-04-29T10:22:26.448Z</time></trkpt><trkpt lat="43.9538041" lon="12.3469385"><ele>244.49999999999997</ele><time>2026-04-29T10:22:29.448Z</time></trkpt><trkpt lat="43.9537323" lon="12.3468913"><ele>241.0</ele><time>2026-04-29T10:22:32.448Z</time></trkpt><trkpt lat="43.9536602" lon="12.3468479"><ele>240.99999999999997</ele><time>2026-04-29T10:22:35.448Z</time></trkpt><trkpt lat="43.9535878" lon="12.3468325"><ele>241.0</ele><time>2026-04-29T10:22:38.448Z</time></trkpt><trkpt lat="43.9534928" lon="12.3468312"><ele>241.0</ele><time>2026-04-29T10:22:41.448Z</time></trkpt><trkpt lat="43.9534189" lon="12.3468627"><ele>241.0</ele><time>2026-04-29T10:22:43.448Z</time></trkpt><trkpt lat="43.9533478" lon="12.3469327"><ele>240.99999999999997</ele><time>2026-04-29T10:22:46.449Z</time></trkpt><trkpt lat="43.953277" lon="12.3469995"><ele>241.0</ele><time>2026-04-29T10:22:49.448Z</time></trkpt><trkpt lat="43.9531979" lon="12.3470344"><ele>238.49999999999997</ele><time>2026-04-29T10:22:52.447Z</time></trkpt><trkpt lat="43.9531117" lon="12.3470202"><ele>236.0</ele><time>2026-04-29T10:22:55.448Z</time></trkpt><trkpt lat="43.9530281" lon="12.3470163"><ele>233.5</ele><time>2026-04-29T10:22:58.447Z</time></trkpt><trkpt lat="43.9529458" lon="12.3470007"><ele>231.0</ele><time>2026-04-29T10:23:01.447Z</time></trkpt><trkpt lat="43.9528585" lon="12.3469833"><ele>228.49999999999997</ele><time>2026-04-29T10:23:04.447Z</time></trkpt><trkpt lat="43.9527904" lon="12.3469752"><ele>226.0</ele><time>2026-04-29T10:23:06.447Z</time></trkpt><trkpt lat="43.9527268" lon="12.3469672"><ele>225.99999999999997</ele><time>2026-04-29T10:23:08.447Z</time></trkpt><trkpt lat="43.9526343" lon="12.3469787"><ele>226.0</ele><time>2026-04-29T10:23:11.447Z</time></trkpt><trkpt lat="43.9525471" lon="12.3469967"><ele>226.0</ele><time>2026-04-29T10:23:14.447Z</time></trkpt><trkpt lat="43.9524795" lon="12.3470117"><ele>226.0</ele><time>2026-04-29T10:23:16.447Z</time></trkpt><trkpt lat="43.952397" lon="12.3470493"><ele>225.99999999999997</ele><time>2026-04-29T10:23:19.447Z</time></trkpt><trkpt lat="43.9523277" lon="12.3471081"><ele>226.0</ele><time>2026-04-29T10:23:22.447Z</time></trkpt><trkpt lat="43.9522783" lon="12.3471644"><ele>225.83333333333331</ele><time>2026-04-29T10:23:24.447Z</time></trkpt><trkpt lat="43.952205" lon="12.3472187"><ele>225.66666666666666</ele><time>2026-04-29T10:23:27.447Z</time></trkpt><trkpt lat="43.9521141" lon="12.3472537"><ele>225.5</ele><time>2026-04-29T10:23:30.447Z</time></trkpt><trkpt lat="43.9520342" lon="12.3473054"><ele>225.33333333333331</ele><time>2026-04-29T10:23:33.447Z</time></trkpt><trkpt lat="43.9519786" lon="12.3473654"><ele>225.16666666666666</ele><time>2026-04-29T10:23:35.447Z</time></trkpt><trkpt lat="43.9519572" lon="12.3474853"><ele>225.0</ele><time>2026-04-29T10:23:38.447Z</time></trkpt><trkpt lat="43.9519787" lon="12.3476164"><ele>225.0</ele><time>2026-04-29T10:23:40.448Z</time></trkpt><trkpt lat="43.9520099" lon="12.3477622"><ele>225.0</ele><time>2026-04-29T10:23:42.447Z</time></trkpt><trkpt lat="43.9520805" lon="12.3478858"><ele>225.0</ele><time>2026-04-29T10:23:44.447Z</time></trkpt><trkpt lat="43.9521818" lon="12.3479619"><ele>225.0</ele><time>2026-04-29T10:23:46.447Z</time></trkpt><trkpt lat="43.95225" lon="12.347982"><ele>225.0</ele><time>2026-04-29T10:23:47.447Z</time></trkpt><trkpt lat="43.9523235" lon="12.3479937"><ele>225.0</ele><time>2026-04-29T10:23:48.448Z</time></trkpt><trkpt lat="43.9523969" lon="12.3479914"><ele>225.0</ele><time>2026-04-29T10:23:49.447Z</time></trkpt><trkpt lat="43.9524774" lon="12.3479827"><ele>225.0</ele><time>2026-04-29T10:23:50.447Z</time></trkpt><trkpt lat="43.9525579" lon="12.3479722"><ele>225.0</ele><time>2026-04-29T10:23:51.447Z</time></trkpt><trkpt lat="43.952631" lon="12.3479665"><ele>225.0</ele><time>2026-04-29T10:23:52.447Z</time></trkpt><trkpt lat="43.9527359" lon="12.3479619"><ele>225.0</ele><time>2026-04-29T10:23:54.447Z</time></trkpt><trkpt lat="43.9528319" lon="12.347996"><ele>225.66666666666666</ele><time>2026-04-29T10:23:56.447Z</time></trkpt><trkpt lat="43.9529083" lon="12.3480638"><ele>226.33333333333331</ele><time>2026-04-29T10:23:58.448Z</time></trkpt><trkpt lat="43.9529367" lon="12.3481859"><ele>227.0</ele><time>2026-04-29T10:24:00.448Z</time></trkpt><trkpt lat="43.9528984" lon="12.3483023"><ele>227.66666666666666</ele><time>2026-04-29T10:24:02.447Z</time></trkpt><trkpt lat="43.9528262" lon="12.3483722"><ele>228.33333333333331</ele><time>2026-04-29T10:24:04.447Z</time></trkpt><trkpt lat="43.9527668" lon="12.348427"><ele>229.0</ele><time>2026-04-29T10:24:06.447Z</time></trkpt><trkpt lat="43.952689" lon="12.3484888"><ele>228.99999999999997</ele><time>2026-04-29T10:24:09.447Z</time></trkpt><trkpt lat="43.9526149" lon="12.3485192"><ele>229.0</ele><time>2026-04-29T10:24:11.448Z</time></trkpt><trkpt lat="43.9525439" lon="12.34857"><ele>229.0</ele><time>2026-04-29T10:24:14.447Z</time></trkpt><trkpt lat="43.9524724" lon="12.3485838"><ele>229.0</ele><time>2026-04-29T10:24:17.447Z</time></trkpt><trkpt lat="43.9524987" lon="12.3484969"><ele>228.99999999999997</ele><time>2026-04-29T10:24:23.447Z</time></trkpt><trkpt lat="43.952602" lon="12.348482"><ele>229.0</ele><time>2026-04-29T10:24:25.448Z</time></trkpt><trkpt lat="43.9527068" lon="12.3484648"><ele>228.99999999999997</ele><time>2026-04-29T10:24:27.447Z</time></trkpt><trkpt lat="43.9528039" lon="12.3484278"><ele>229.0</ele><time>2026-04-29T10:24:29.447Z</time></trkpt><trkpt lat="43.9528953" lon="12.3483762"><ele>229.0</ele><time>2026-04-29T10:24:31.447Z</time></trkpt><trkpt lat="43.9529546" lon="12.3483206"><ele>229.0</ele><time>2026-04-29T10:24:33.447Z</time></trkpt><trkpt lat="43.952971" lon="12.3482297"><ele>228.99999999999997</ele><time>2026-04-29T10:24:35.447Z</time></trkpt><trkpt lat="43.9529405" lon="12.3481347"><ele>229.0</ele><time>2026-04-29T10:24:37.447Z</time></trkpt><trkpt lat="43.9528576" lon="12.3480638"><ele>228.99999999999997</ele><time>2026-04-29T10:24:40.447Z</time></trkpt><trkpt lat="43.952792" lon="12.3480678"><ele>229.0</ele><time>2026-04-29T10:24:42.447Z</time></trkpt><trkpt lat="43.9527137" lon="12.3481027"><ele>229.0</ele><time>2026-04-29T10:24:44.448Z</time></trkpt><trkpt lat="43.9526353" lon="12.3481384"><ele>229.0</ele><time>2026-04-29T10:24:46.447Z</time></trkpt><trkpt lat="43.952561" lon="12.348184"><ele>228.99999999999997</ele><time>2026-04-29T10:24:48.447Z</time></trkpt><trkpt lat="43.9524907" lon="12.3482369"><ele>229.0</ele><time>2026-04-29T10:24:50.447Z</time></trkpt><trkpt lat="43.952431" lon="12.3482961"><ele>226.83333333333331</ele><time>2026-04-29T10:24:52.447Z</time></trkpt><trkpt lat="43.9523675" lon="12.3483674"><ele>224.66666666666666</ele><time>2026-04-29T10:24:54.447Z</time></trkpt><trkpt lat="43.9523064" lon="12.3484504"><ele>222.5</ele><time>2026-04-29T10:24:56.447Z</time></trkpt><trkpt lat="43.9522439" lon="12.3485346"><ele>220.33333333333331</ele><time>2026-04-29T10:24:58.447Z</time></trkpt><trkpt lat="43.9521902" lon="12.3486103"><ele>218.16666666666666</ele><time>2026-04-29T10:25:00.448Z</time></trkpt><trkpt lat="43.9521346" lon="12.3486878"><ele>216.0</ele><time>2026-04-29T10:25:02.447Z</time></trkpt><trkpt lat="43.9520785" lon="12.3487723"><ele>216.0</ele><time>2026-04-29T10:25:04.447Z</time></trkpt><trkpt lat="43.9520236" lon="12.3488512"><ele>216.0</ele><time>2026-04-29T10:25:06.447Z</time></trkpt><trkpt lat="43.9519667" lon="12.3489313"><ele>216.0</ele><time>2026-04-29T10:25:08.447Z</time></trkpt><trkpt lat="43.9519089" lon="12.3490082"><ele>216.0</ele><time>2026-04-29T10:25:10.447Z</time></trkpt><trkpt lat="43.9518535" lon="12.3490831"><ele>216.0</ele><time>2026-04-29T10:25:12.447Z</time></trkpt><trkpt lat="43.9517946" lon="12.3491666"><ele>216.0</ele><time>2026-04-29T10:25:14.447Z</time></trkpt><trkpt lat="43.9517336" lon="12.3492358"><ele>214.0</ele><time>2026-04-29T10:25:16.447Z</time></trkpt><trkpt lat="43.9516813" lon="12.3492853"><ele>212.0</ele><time>2026-04-29T10:25:18.447Z</time></trkpt><trkpt lat="43.9516039" lon="12.349352"><ele>210.0</ele><time>2026-04-29T10:25:21.447Z</time></trkpt><trkpt lat="43.9515344" lon="12.3493748"><ele>208.0</ele><time>2026-04-29T10:25:24.447Z</time></trkpt><trkpt lat="43.9514709" lon="12.349397"><ele>206.0</ele><time>2026-04-29T10:25:26.448Z</time></trkpt><trkpt lat="43.9514027" lon="12.3494436"><ele>204.0</ele><time>2026-04-29T10:25:28.447Z</time></trkpt><trkpt lat="43.9513448" lon="12.3495308"><ele>204.0</ele><time>2026-04-29T10:25:31.447Z</time></trkpt><trkpt lat="43.9513101" lon="12.3496047"><ele>204.0</ele><time>2026-04-29T10:25:34.447Z</time></trkpt><trkpt lat="43.9512756" lon="12.3497073"><ele>204.0</ele><time>2026-04-29T10:27:02.448Z</time></trkpt><trkpt lat="43.9512245" lon="12.3498582"><ele>204.0</ele><time>2026-04-29T10:27:04.447Z</time></trkpt><trkpt lat="43.9511759" lon="12.3499965"><ele>204.0</ele><time>2026-04-29T10:27:06.447Z</time></trkpt><trkpt lat="43.9511218" lon="12.3501333"><ele>203.0</ele><time>2026-04-29T10:27:08.447Z</time></trkpt><trkpt lat="43.9510821" lon="12.3502571"><ele>202.0</ele><time>2026-04-29T10:27:10.447Z</time></trkpt><trkpt lat="43.9510756" lon="12.3503773"><ele>201.0</ele><time>2026-04-29T10:27:12.448Z</time></trkpt><trkpt lat="43.9510909" lon="12.3504943"><ele>200.0</ele><time>2026-04-29T10:27:14.447Z</time></trkpt><trkpt lat="43.951132" lon="12.3505985"><ele>199.0</ele><time>2026-04-29T10:27:16.447Z</time></trkpt><trkpt lat="43.9511933" lon="12.3506705"><ele>198.0</ele><time>2026-04-29T10:27:18.447Z</time></trkpt><trkpt lat="43.9512664" lon="12.3506984"><ele>198.0</ele><time>2026-04-29T10:27:20.447Z</time></trkpt><trkpt lat="43.9513454" lon="12.3507093"><ele>198.0</ele><time>2026-04-29T10:27:22.447Z</time></trkpt><trkpt lat="43.9514184" lon="12.3507102"><ele>198.0</ele><time>2026-04-29T10:27:24.447Z</time></trkpt><trkpt lat="43.9514893" lon="12.3507119"><ele>198.0</ele><time>2026-04-29T10:27:26.447Z</time></trkpt><trkpt lat="43.9515621" lon="12.3507622"><ele>198.0</ele><time>2026-04-29T10:27:28.447Z</time></trkpt><trkpt lat="43.951604" lon="12.3508581"><ele>198.0</ele><time>2026-04-29T10:27:30.447Z</time></trkpt><trkpt lat="43.9516238" lon="12.3510023"><ele>198.0</ele><time>2026-04-29T10:27:32.447Z</time></trkpt><trkpt lat="43.9515943" lon="12.35114"><ele>198.0</ele><time>2026-04-29T10:27:34.447Z</time></trkpt><trkpt lat="43.9515291" lon="12.3512856"><ele>198.0</ele><time>2026-04-29T10:27:36.447Z</time></trkpt><trkpt lat="43.951488" lon="12.3513597"><ele>198.0</ele><time>2026-04-29T10:27:37.447Z</time></trkpt><trkpt lat="43.9514456" lon="12.351435"><ele>198.0</ele><time>2026-04-29T10:27:38.447Z</time></trkpt><trkpt lat="43.9514045" lon="12.3515186"><ele>198.0</ele><time>2026-04-29T10:27:39.447Z</time></trkpt><trkpt lat="43.9513652" lon="12.3516043"><ele>200.71428571428572</ele><time>2026-04-29T10:27:40.447Z</time></trkpt><trkpt lat="43.9513253" lon="12.3516878"><ele>203.42857142857142</ele><time>2026-04-29T10:27:41.447Z</time></trkpt><trkpt lat="43.9512888" lon="12.3517705"><ele>206.14285714285714</ele><time>2026-04-29T10:27:42.447Z</time></trkpt><trkpt lat="43.9512484" lon="12.3518549"><ele>208.85714285714286</ele><time>2026-04-29T10:27:43.447Z</time></trkpt><trkpt lat="43.9512087" lon="12.3519392"><ele>211.57142857142856</ele><time>2026-04-29T10:27:44.447Z</time></trkpt><trkpt lat="43.9511661" lon="12.3520225"><ele>214.28571428571428</ele><time>2026-04-29T10:27:45.447Z</time></trkpt><trkpt lat="43.9511222" lon="12.3521087"><ele>217.0</ele><time>2026-04-29T10:27:46.447Z</time></trkpt><trkpt lat="43.9510797" lon="12.352186"><ele>216.16666666666666</ele><time>2026-04-29T10:27:47.447Z</time></trkpt><trkpt lat="43.9510329" lon="12.3522687"><ele>215.33333333333331</ele><time>2026-04-29T10:27:48.447Z</time></trkpt><trkpt lat="43.9509819" lon="12.3523454"><ele>214.5</ele><time>2026-04-29T10:27:49.447Z</time></trkpt><trkpt lat="43.9508706" lon="12.3523691"><ele>213.66666666666669</ele><time>2026-04-29T10:27:50.447Z</time></trkpt><trkpt lat="43.9508421" lon="12.3524904"><ele>212.83333333333334</ele><time>2026-04-29T10:27:52.447Z</time></trkpt><trkpt lat="43.9507996" lon="12.3525609"><ele>212.0</ele><time>2026-04-29T10:27:54.447Z</time></trkpt><trkpt lat="43.9507405" lon="12.3526463"><ele>203.8</ele><time>2026-04-29T10:27:57.447Z</time></trkpt><trkpt lat="43.9506674" lon="12.3527065"><ele>195.6</ele><time>2026-04-29T10:28:15.447Z</time></trkpt><trkpt lat="43.950591" lon="12.3526519"><ele>187.4</ele><time>2026-04-29T10:28:16.447Z</time></trkpt><trkpt lat="43.9505054" lon="12.3525845"><ele>179.20000000000002</ele><time>2026-04-29T10:28:17.447Z</time></trkpt><trkpt lat="43.950408" lon="12.352512"><ele>171.0</ele><time>2026-04-29T10:28:18.447Z</time></trkpt><trkpt lat="43.9503258" lon="12.352458"><ele>171.0</ele><time>2026-04-29T10:28:19.448Z</time></trkpt><trkpt lat="43.9502609" lon="12.3524193"><ele>171.0</ele><time>2026-04-29T10:28:20.447Z</time></trkpt><trkpt lat="43.9501526" lon="12.3524174"><ele>171.0</ele><time>2026-04-29T10:28:24.447Z</time></trkpt><trkpt lat="43.9500519" lon="12.3523658"><ele>171.0</ele><time>2026-04-29T10:28:26.447Z</time></trkpt><trkpt lat="43.9499711" lon="12.3523214"><ele>171.0</ele><time>2026-04-29T10:28:28.447Z</time></trkpt><trkpt lat="43.9498855" lon="12.3522804"><ele>169.66666666666666</ele><time>2026-04-29T10:28:30.447Z</time></trkpt><trkpt lat="43.9497978" lon="12.3522611"><ele>168.33333333333334</ele><time>2026-04-29T10:28:32.447Z</time></trkpt><trkpt lat="43.949747" lon="12.3521644"><ele>167.0</ele><time>2026-04-29T10:28:35.447Z</time></trkpt><trkpt lat="43.9497085" lon="12.352086"><ele>165.66666666666669</ele><time>2026-04-29T10:28:40.447Z</time></trkpt><trkpt lat="43.9496327" lon="12.3520525"><ele>164.33333333333334</ele><time>2026-04-29T10:28:44.447Z</time></trkpt><trkpt lat="43.9495725" lon="12.3521214"><ele>163.0</ele><time>2026-04-29T10:28:47.447Z</time></trkpt><trkpt lat="43.9495219" lon="12.352181"><ele>162.83333333333334</ele><time>2026-04-29T10:28:48.447Z</time></trkpt><trkpt lat="43.9494218" lon="12.3522271"><ele>162.66666666666669</ele><time>2026-04-29T10:28:50.447Z</time></trkpt><trkpt lat="43.9493553" lon="12.3522445"><ele>162.5</ele><time>2026-04-29T10:28:51.448Z</time></trkpt><trkpt lat="43.9492863" lon="12.3522753"><ele>162.33333333333334</ele><time>2026-04-29T10:28:52.447Z</time></trkpt><trkpt lat="43.9492138" lon="12.3523325"><ele>162.16666666666666</ele><time>2026-04-29T10:28:53.447Z</time></trkpt><trkpt lat="43.9491292" lon="12.3523985"><ele>162.0</ele><time>2026-04-29T10:28:54.447Z</time></trkpt><trkpt lat="43.9490389" lon="12.3524607"><ele>160.66666666666666</ele><time>2026-04-29T10:28:55.447Z</time></trkpt><trkpt lat="43.9489528" lon="12.3525076"><ele>159.33333333333334</ele><time>2026-04-29T10:28:56.447Z</time></trkpt><trkpt lat="43.9488711" lon="12.3525527"><ele>158.0</ele><time>2026-04-29T10:28:57.447Z</time></trkpt><trkpt lat="43.9487926" lon="12.3525995"><ele>156.66666666666669</ele><time>2026-04-29T10:28:58.447Z</time></trkpt><trkpt lat="43.94872" lon="12.3526362"><ele>155.33333333333334</ele><time>2026-04-29T10:28:59.447Z</time></trkpt><trkpt lat="43.9486502" lon="12.3526727"><ele>154.0</ele><time>2026-04-29T10:29:00.447Z</time></trkpt><trkpt lat="43.9485783" lon="12.352712"><ele>154.0</ele><time>2026-04-29T10:29:01.447Z</time></trkpt><trkpt lat="43.9485011" lon="12.3527469"><ele>154.0</ele><time>2026-04-29T10:29:02.447Z</time></trkpt><trkpt lat="43.9484189" lon="12.3527731"><ele>154.0</ele><time>2026-04-29T10:29:03.447Z</time></trkpt><trkpt lat="43.9483315" lon="12.3528071"><ele>154.0</ele><time>2026-04-29T10:29:04.447Z</time></trkpt><trkpt lat="43.9482377" lon="12.3528499"><ele>154.0</ele><time>2026-04-29T10:29:05.447Z</time></trkpt><trkpt lat="43.948144" lon="12.3528909"><ele>153.8</ele><time>2026-04-29T10:29:06.447Z</time></trkpt><trkpt lat="43.9480471" lon="12.3529242"><ele>153.60000000000002</ele><time>2026-04-29T10:29:07.447Z</time></trkpt><trkpt lat="43.9479505" lon="12.3529632"><ele>153.4</ele><time>2026-04-29T10:29:08.447Z</time></trkpt><trkpt lat="43.9478632" lon="12.3530119"><ele>153.20000000000002</ele><time>2026-04-29T10:29:09.447Z</time></trkpt><trkpt lat="43.9477821" lon="12.3530534"><ele>153.0</ele><time>2026-04-29T10:29:10.447Z</time></trkpt><trkpt lat="43.9477109" lon="12.3530899"><ele>152.5</ele><time>2026-04-29T10:29:11.447Z</time></trkpt><trkpt lat="43.9476386" lon="12.3531247"><ele>152.0</ele><time>2026-04-29T10:29:12.447Z</time></trkpt><trkpt lat="43.9475652" lon="12.3531611"><ele>151.5</ele><time>2026-04-29T10:29:13.447Z</time></trkpt><trkpt lat="43.9474894" lon="12.353207"><ele>151.0</ele><time>2026-04-29T10:29:14.447Z</time></trkpt><trkpt lat="43.9474114" lon="12.353258"><ele>150.5</ele><time>2026-04-29T10:29:15.447Z</time></trkpt><trkpt lat="43.9473276" lon="12.3533159"><ele>150.0</ele><time>2026-04-29T10:29:16.447Z</time></trkpt><trkpt lat="43.9472394" lon="12.3533743"><ele>150.0</ele><time>2026-04-29T10:29:17.447Z</time></trkpt><trkpt lat="43.947158" lon="12.3534187"><ele>150.0</ele><time>2026-04-29T10:29:18.447Z</time></trkpt><trkpt lat="43.9470814" lon="12.3534597"><ele>150.0</ele><time>2026-04-29T10:29:19.447Z</time></trkpt><trkpt lat="43.9470214" lon="12.3535079"><ele>150.0</ele><time>2026-04-29T10:29:20.447Z</time></trkpt><trkpt lat="43.9469284" lon="12.3536243"><ele>150.0</ele><time>2026-04-29T10:29:22.447Z</time></trkpt><trkpt lat="43.9468607" lon="12.3537161"><ele>149.99999999999997</ele><time>2026-04-29T10:29:24.447Z</time></trkpt><trkpt lat="43.9468057" lon="12.3537841"><ele>150.0</ele><time>2026-04-29T10:29:26.447Z</time></trkpt><trkpt lat="43.9467469" lon="12.3537459"><ele>150.0</ele><time>2026-04-29T10:29:31.447Z</time></trkpt><trkpt lat="43.9467808" lon="12.3536678"><ele>150.0</ele><time>2026-04-29T10:29:33.447Z</time></trkpt><trkpt lat="43.9468378" lon="12.3536199"><ele>150.0</ele><time>2026-04-29T10:29:34.447Z</time></trkpt><trkpt lat="43.9469051" lon="12.3535773"><ele>149.99999999999997</ele><time>2026-04-29T10:29:35.447Z</time></trkpt><trkpt lat="43.9469888" lon="12.3535283"><ele>150.0</ele><time>2026-04-29T10:29:36.447Z</time></trkpt><trkpt lat="43.9470779" lon="12.3534765"><ele>150.0</ele><time>2026-04-29T10:29:37.447Z</time></trkpt><trkpt lat="43.947173" lon="12.3534154"><ele>150.0</ele><time>2026-04-29T10:29:38.447Z</time></trkpt><trkpt lat="43.9472721" lon="12.3533573"><ele>150.0</ele><time>2026-04-29T10:29:39.447Z</time></trkpt><trkpt lat="43.9473718" lon="12.3532961"><ele>150.0</ele><time>2026-04-29T10:29:40.447Z</time></trkpt><trkpt lat="43.9474748" lon="12.3532372"><ele>150.0</ele><time>2026-04-29T10:29:41.447Z</time></trkpt><trkpt lat="43.9475752" lon="12.3531828"><ele>149.8</ele><time>2026-04-29T10:29:42.447Z</time></trkpt><trkpt lat="43.9476716" lon="12.3531293"><ele>149.6</ele><time>2026-04-29T10:29:43.447Z</time></trkpt><trkpt lat="43.9477573" lon="12.3530828"><ele>149.4</ele><time>2026-04-29T10:29:44.448Z</time></trkpt><trkpt lat="43.9478389" lon="12.353039"><ele>149.2</ele><time>2026-04-29T10:29:45.447Z</time></trkpt><trkpt lat="43.9479224" lon="12.3529961"><ele>149.0</ele><time>2026-04-29T10:29:46.447Z</time></trkpt><trkpt lat="43.9480117" lon="12.3529715"><ele>149.66666666666666</ele><time>2026-04-29T10:29:47.447Z</time></trkpt><trkpt lat="43.9481017" lon="12.3529388"><ele>150.33333333333331</ele><time>2026-04-29T10:29:48.447Z</time></trkpt><trkpt lat="43.9481893" lon="12.3529036"><ele>151.0</ele><time>2026-04-29T10:29:49.447Z</time></trkpt><trkpt lat="43.9482791" lon="12.3528644"><ele>151.66666666666666</ele><time>2026-04-29T10:29:50.447Z</time></trkpt><trkpt lat="43.9483635" lon="12.352826"><ele>152.33333333333334</ele><time>2026-04-29T10:29:51.447Z</time></trkpt><trkpt lat="43.9484402" lon="12.352786"><ele>153.0</ele><time>2026-04-29T10:29:52.447Z</time></trkpt><trkpt lat="43.9485432" lon="12.3527257"><ele>153.0</ele><time>2026-04-29T10:29:54.447Z</time></trkpt><trkpt lat="43.9485792" lon="12.3526458"><ele>153.0</ele><time>2026-04-29T10:29:56.447Z</time></trkpt><trkpt lat="43.9485143" lon="12.3525401"><ele>153.0</ele><time>2026-04-29T10:29:59.447Z</time></trkpt><trkpt lat="43.9484429" lon="12.3525054"><ele>153.0</ele><time>2026-04-29T10:30:00.447Z</time></trkpt><trkpt lat="43.9483646" lon="12.3524802"><ele>153.0</ele><time>2026-04-29T10:30:01.447Z</time></trkpt><trkpt lat="43.9482762" lon="12.3524376"><ele>153.0</ele><time>2026-04-29T10:30:02.448Z</time></trkpt><trkpt lat="43.9481804" lon="12.352383"><ele>153.0</ele><time>2026-04-29T10:30:03.448Z</time></trkpt><trkpt lat="43.9480702" lon="12.3523317"><ele>153.0</ele><time>2026-04-29T10:30:04.447Z</time></trkpt><trkpt lat="43.9479505" lon="12.3522773"><ele>153.0</ele><time>2026-04-29T10:30:05.448Z</time></trkpt><trkpt lat="43.9478231" lon="12.3522248"><ele>153.0</ele><time>2026-04-29T10:30:06.448Z</time></trkpt><trkpt lat="43.947695" lon="12.3521716"><ele>154.20000000000002</ele><time>2026-04-29T10:30:07.448Z</time></trkpt><trkpt lat="43.9475755" lon="12.3521271"><ele>155.4</ele><time>2026-04-29T10:30:08.447Z</time></trkpt><trkpt lat="43.9474757" lon="12.3520875"><ele>156.60000000000002</ele><time>2026-04-29T10:30:09.448Z</time></trkpt><trkpt lat="43.9473886" lon="12.3520453"><ele>157.8</ele><time>2026-04-29T10:30:10.447Z</time></trkpt><trkpt lat="43.947302" lon="12.3519898"><ele>159.0</ele><time>2026-04-29T10:30:11.447Z</time></trkpt><trkpt lat="43.947208" lon="12.3519339"><ele>159.2</ele><time>2026-04-29T10:30:12.447Z</time></trkpt><trkpt lat="43.9471115" lon="12.3518771"><ele>159.4</ele><time>2026-04-29T10:30:13.447Z</time></trkpt><trkpt lat="43.9470107" lon="12.3518231"><ele>159.6</ele><time>2026-04-29T10:30:14.447Z</time></trkpt><trkpt lat="43.9469072" lon="12.351768"><ele>159.8</ele><time>2026-04-29T10:30:15.447Z</time></trkpt><trkpt lat="43.9468038" lon="12.3517121"><ele>160.0</ele><time>2026-04-29T10:30:16.447Z</time></trkpt><trkpt lat="43.9466917" lon="12.3516467"><ele>159.0</ele><time>2026-04-29T10:30:17.447Z</time></trkpt><trkpt lat="43.9465684" lon="12.3515774"><ele>158.0</ele><time>2026-04-29T10:30:18.447Z</time></trkpt><trkpt lat="43.9464374" lon="12.3515142"><ele>157.0</ele><time>2026-04-29T10:30:19.447Z</time></trkpt><trkpt lat="43.9463087" lon="12.3514661"><ele>156.0</ele><time>2026-04-29T10:30:20.447Z</time></trkpt><trkpt lat="43.9461811" lon="12.351429"><ele>156.0</ele><time>2026-04-29T10:30:21.448Z</time></trkpt><trkpt lat="43.9460595" lon="12.3513915"><ele>156.0</ele><time>2026-04-29T10:30:22.447Z</time></trkpt><trkpt lat="43.9459342" lon="12.3513465"><ele>156.0</ele><time>2026-04-29T10:30:23.447Z</time></trkpt><trkpt lat="43.9458067" lon="12.3513097"><ele>156.0</ele><time>2026-04-29T10:30:24.447Z</time></trkpt><trkpt lat="43.9456812" lon="12.3512715"><ele>157.0</ele><time>2026-04-29T10:30:25.447Z</time></trkpt><trkpt lat="43.9455636" lon="12.351231"><ele>158.0</ele><time>2026-04-29T10:30:26.447Z</time></trkpt><trkpt lat="43.9454627" lon="12.3511948"><ele>159.0</ele><time>2026-04-29T10:30:27.447Z</time></trkpt><trkpt lat="43.9453789" lon="12.3511653"><ele>160.0</ele><time>2026-04-29T10:30:28.447Z</time></trkpt><trkpt lat="43.9453032" lon="12.3511355"><ele>161.0</ele><time>2026-04-29T10:30:29.447Z</time></trkpt><trkpt lat="43.9452347" lon="12.351111"><ele>161.0</ele><time>2026-04-29T10:30:30.447Z</time></trkpt><trkpt lat="43.9451713" lon="12.351088"><ele>161.0</ele><time>2026-04-29T10:30:31.447Z</time></trkpt><trkpt lat="43.9451122" lon="12.3510478"><ele>161.0</ele><time>2026-04-29T10:30:32.447Z</time></trkpt><trkpt lat="43.9450123" lon="12.3510054"><ele>161.0</ele><time>2026-04-29T10:30:34.448Z</time></trkpt><trkpt lat="43.9449218" lon="12.3510079"><ele>161.0</ele><time>2026-04-29T10:30:36.447Z</time></trkpt><trkpt lat="43.9448605" lon="12.3509696"><ele>161.0</ele><time>2026-04-29T10:30:39.447Z</time></trkpt><trkpt lat="43.9448552" lon="12.3508647"><ele>160.66666666666666</ele><time>2026-04-29T10:31:21.447Z</time></trkpt><trkpt lat="43.944849" lon="12.3507715"><ele>160.33333333333331</ele><time>2026-04-29T10:31:22.448Z</time></trkpt><trkpt lat="43.94485" lon="12.3506617"><ele>160.0</ele><time>2026-04-29T10:31:23.447Z</time></trkpt><trkpt lat="43.9448534" lon="12.3505415"><ele>159.66666666666666</ele><time>2026-04-29T10:31:24.447Z</time></trkpt><trkpt lat="43.944863" lon="12.3504305"><ele>159.33333333333334</ele><time>2026-04-29T10:31:25.447Z</time></trkpt><trkpt lat="43.9448836" lon="12.350318"><ele>159.0</ele><time>2026-04-29T10:31:26.447Z</time></trkpt><trkpt lat="43.9449052" lon="12.3502126"><ele>160.66666666666666</ele><time>2026-04-29T10:31:27.447Z</time></trkpt><trkpt lat="43.9449217" lon="12.3501203"><ele>162.33333333333334</ele><time>2026-04-29T10:31:28.447Z</time></trkpt><trkpt lat="43.9449059" lon="12.3499725"><ele>164.0</ele><time>2026-04-29T10:31:30.447Z</time></trkpt><trkpt lat="43.9448144" lon="12.3498678"><ele>165.66666666666669</ele><time>2026-04-29T10:31:32.447Z</time></trkpt><trkpt lat="43.9447442" lon="12.3498364"><ele>167.33333333333334</ele><time>2026-04-29T10:31:33.447Z</time></trkpt><trkpt lat="43.9446653" lon="12.3498162"><ele>169.0</ele><time>2026-04-29T10:31:34.447Z</time></trkpt><trkpt lat="43.9445897" lon="12.3498034"><ele>169.0</ele><time>2026-04-29T10:31:35.448Z</time></trkpt><trkpt lat="43.9445174" lon="12.3497846"><ele>169.0</ele><time>2026-04-29T10:31:36.448Z</time></trkpt><trkpt lat="43.9444426" lon="12.3497575"><ele>169.0</ele><time>2026-04-29T10:31:37.447Z</time></trkpt><trkpt lat="43.9443604" lon="12.3497264"><ele>169.0</ele><time>2026-04-29T10:31:38.447Z</time></trkpt><trkpt lat="43.944272" lon="12.3496947"><ele>169.0</ele><time>2026-04-29T10:31:39.447Z</time></trkpt><trkpt lat="43.9441877" lon="12.3496716"><ele>169.0</ele><time>2026-04-29T10:31:40.447Z</time></trkpt><trkpt lat="43.9441068" lon="12.3496515"><ele>171.83333333333334</ele><time>2026-04-29T10:31:41.447Z</time></trkpt><trkpt lat="43.9440284" lon="12.3496379"><ele>174.66666666666669</ele><time>2026-04-29T10:31:42.447Z</time></trkpt><trkpt lat="43.9439587" lon="12.3496079"><ele>177.5</ele><time>2026-04-29T10:31:43.447Z</time></trkpt><trkpt lat="43.9438987" lon="12.3495627"><ele>180.33333333333334</ele><time>2026-04-29T10:31:44.448Z</time></trkpt><trkpt lat="43.9438332" lon="12.3494992"><ele>183.16666666666666</ele><time>2026-04-29T10:31:45.447Z</time></trkpt><trkpt lat="43.9437713" lon="12.3494306"><ele>186.0</ele><time>2026-04-29T10:31:46.447Z</time></trkpt><trkpt lat="43.9437101" lon="12.3493557"><ele>186.0</ele><time>2026-04-29T10:31:47.447Z</time></trkpt><trkpt lat="43.9436413" lon="12.3492802"><ele>186.0</ele><time>2026-04-29T10:31:48.447Z</time></trkpt><trkpt lat="43.9435747" lon="12.3491871"><ele>186.0</ele><time>2026-04-29T10:31:49.447Z</time></trkpt><trkpt lat="43.943512" lon="12.3490973"><ele>186.0</ele><time>2026-04-29T10:31:50.447Z</time></trkpt><trkpt lat="43.9434585" lon="12.3490098"><ele>186.0</ele><time>2026-04-29T10:31:51.447Z</time></trkpt><trkpt lat="43.9433784" lon="12.3488928"><ele>187.5</ele><time>2026-04-29T10:31:53.447Z</time></trkpt><trkpt lat="43.943303" lon="12.348811"><ele>189.0</ele><time>2026-04-29T10:31:55.448Z</time></trkpt><trkpt lat="43.9432104" lon="12.3487853"><ele>190.5</ele><time>2026-04-29T10:31:57.448Z</time></trkpt><trkpt lat="43.9431392" lon="12.3487522"><ele>192.0</ele><time>2026-04-29T10:31:58.447Z</time></trkpt><trkpt lat="43.943056" lon="12.3487086"><ele>193.5</ele><time>2026-04-29T10:31:59.447Z</time></trkpt><trkpt lat="43.9429738" lon="12.348664"><ele>195.0</ele><time>2026-04-29T10:32:00.448Z</time></trkpt><trkpt lat="43.9428911" lon="12.3486204"><ele>195.0</ele><time>2026-04-29T10:32:01.447Z</time></trkpt><trkpt lat="43.942811" lon="12.3485794"><ele>195.0</ele><time>2026-04-29T10:32:02.447Z</time></trkpt><trkpt lat="43.942725" lon="12.348539"><ele>195.0</ele><time>2026-04-29T10:32:03.447Z</time></trkpt><trkpt lat="43.9426434" lon="12.3485052"><ele>195.0</ele><time>2026-04-29T10:32:04.447Z</time></trkpt><trkpt lat="43.9425766" lon="12.3484713"><ele>195.0</ele><time>2026-04-29T10:32:05.448Z</time></trkpt><trkpt lat="43.9425176" lon="12.3484212"><ele>195.0</ele><time>2026-04-29T10:32:06.447Z</time></trkpt><trkpt lat="43.9424546" lon="12.3483444"><ele>194.5</ele><time>2026-04-29T10:32:07.447Z</time></trkpt><trkpt lat="43.9423998" lon="12.348266"><ele>194.0</ele><time>2026-04-29T10:32:08.447Z</time></trkpt><trkpt lat="43.9423523" lon="12.3481803"><ele>193.5</ele><time>2026-04-29T10:32:09.447Z</time></trkpt><trkpt lat="43.9423133" lon="12.3481035"><ele>193.0</ele><time>2026-04-29T10:32:10.447Z</time></trkpt><trkpt lat="43.9422215" lon="12.3479928"><ele>192.5</ele><time>2026-04-29T10:32:12.448Z</time></trkpt><trkpt lat="43.9421626" lon="12.3479608"><ele>192.0</ele><time>2026-04-29T10:32:13.447Z</time></trkpt><trkpt lat="43.942091" lon="12.3479551"><ele>193.5</ele><time>2026-04-29T10:32:14.447Z</time></trkpt><trkpt lat="43.9420099" lon="12.3479431"><ele>195.0</ele><time>2026-04-29T10:32:15.447Z</time></trkpt><trkpt lat="43.9419312" lon="12.3479214"><ele>196.5</ele><time>2026-04-29T10:32:16.447Z</time></trkpt><trkpt lat="43.9418555" lon="12.347895"><ele>198.0</ele><time>2026-04-29T10:32:17.447Z</time></trkpt><trkpt lat="43.9417873" lon="12.3478621"><ele>199.5</ele><time>2026-04-29T10:32:18.447Z</time></trkpt><trkpt lat="43.941721" lon="12.3478379"><ele>201.0</ele><time>2026-04-29T10:32:19.447Z</time></trkpt><trkpt lat="43.9416436" lon="12.3478257"><ele>201.0</ele><time>2026-04-29T10:32:20.447Z</time></trkpt><trkpt lat="43.9415631" lon="12.347819"><ele>201.0</ele><time>2026-04-29T10:32:21.447Z</time></trkpt><trkpt lat="43.9414859" lon="12.3478063"><ele>201.0</ele><time>2026-04-29T10:32:22.448Z</time></trkpt><trkpt lat="43.9414176" lon="12.3477966"><ele>201.0</ele><time>2026-04-29T10:32:23.447Z</time></trkpt><trkpt lat="43.9413023" lon="12.3477649"><ele>201.0</ele><time>2026-04-29T10:32:25.447Z</time></trkpt><trkpt lat="43.9412433" lon="12.3477204"><ele>201.0</ele><time>2026-04-29T10:32:26.447Z</time></trkpt><trkpt lat="43.9411692" lon="12.3475804"><ele>201.0</ele><time>2026-04-29T10:32:28.447Z</time></trkpt><trkpt lat="43.9411498" lon="12.3474918"><ele>201.0</ele><time>2026-04-29T10:32:29.447Z</time></trkpt><trkpt lat="43.941136" lon="12.3474028"><ele>201.0</ele><time>2026-04-29T10:32:30.447Z</time></trkpt><trkpt lat="43.9411354" lon="12.3473082"><ele>201.0</ele><time>2026-04-29T10:32:31.447Z</time></trkpt><trkpt lat="43.9411308" lon="12.3471376"><ele>201.0</ele><time>2026-04-29T10:32:33.447Z</time></trkpt><trkpt lat="43.9411156" lon="12.3470449"><ele>201.0</ele><time>2026-04-29T10:32:34.447Z</time></trkpt><trkpt lat="43.9410898" lon="12.3469535"><ele>200.60000000000002</ele><time>2026-04-29T10:32:35.447Z</time></trkpt><trkpt lat="43.9410132" lon="12.3468296"><ele>200.2</ele><time>2026-04-29T10:32:37.447Z</time></trkpt><trkpt lat="43.9409039" lon="12.3467583"><ele>199.8</ele><time>2026-04-29T10:32:39.447Z</time></trkpt><trkpt lat="43.9408422" lon="12.3467155"><ele>199.39999999999998</ele><time>2026-04-29T10:32:40.447Z</time></trkpt><trkpt lat="43.9407791" lon="12.3466601"><ele>199.0</ele><time>2026-04-29T10:32:41.447Z</time></trkpt><trkpt lat="43.940716" lon="12.3466005"><ele>199.0</ele><time>2026-04-29T10:32:42.447Z</time></trkpt></trkseg><trkseg><trkpt lat="43.9383582" lon="12.3468618"><ele>172.0</ele><time>2026-04-29T11:31:25.479Z</time></trkpt><trkpt lat="43.9384108" lon="12.3468032"><ele>173.0</ele><time>2026-04-29T11:31:27.478Z</time></trkpt><trkpt lat="43.938466" lon="12.3467551"><ele>174.0</ele><time>2026-04-29T11:31:28.478Z</time></trkpt><trkpt lat="43.9386004" lon="12.3467332"><ele>175.0</ele><time>2026-04-29T11:31:30.478Z</time></trkpt><trkpt lat="43.9386903" lon="12.3467653"><ele>176.0</ele><time>2026-04-29T11:31:31.478Z</time></trkpt><trkpt lat="43.9387864" lon="12.3468174"><ele>176.0</ele><time>2026-04-29T11:31:32.478Z</time></trkpt><trkpt lat="43.9388808" lon="12.3468904"><ele>176.0</ele><time>2026-04-29T11:31:33.478Z</time></trkpt><trkpt lat="43.9389763" lon="12.3469944"><ele>176.0</ele><time>2026-04-29T11:31:34.478Z</time></trkpt><trkpt lat="43.9390635" lon="12.3471226"><ele>176.0</ele><time>2026-04-29T11:31:35.478Z</time></trkpt><trkpt lat="43.9391373" lon="12.3472536"><ele>176.16666666666666</ele><time>2026-04-29T11:31:36.478Z</time></trkpt><trkpt lat="43.9391906" lon="12.3473659"><ele>176.33333333333331</ele><time>2026-04-29T11:31:37.478Z</time></trkpt><trkpt lat="43.9392342" lon="12.3474628"><ele>176.5</ele><time>2026-04-29T11:31:38.478Z</time></trkpt><trkpt lat="43.9392792" lon="12.3475414"><ele>176.66666666666666</ele><time>2026-04-29T11:31:39.478Z</time></trkpt><trkpt lat="43.9393283" lon="12.3476064"><ele>176.83333333333334</ele><time>2026-04-29T11:31:40.478Z</time></trkpt><trkpt lat="43.939386" lon="12.3476459"><ele>177.0</ele><time>2026-04-29T11:31:41.478Z</time></trkpt><trkpt lat="43.939458" lon="12.3476759"><ele>177.0</ele><time>2026-04-29T11:31:42.478Z</time></trkpt><trkpt lat="43.9395381" lon="12.3477018"><ele>177.0</ele><time>2026-04-29T11:31:43.478Z</time></trkpt><trkpt lat="43.9396083" lon="12.3477437"><ele>177.0</ele><time>2026-04-29T11:31:44.479Z</time></trkpt><trkpt lat="43.9396592" lon="12.347807"><ele>177.0</ele><time>2026-04-29T11:31:45.477Z</time></trkpt><trkpt lat="43.9397069" lon="12.347868"><ele>177.0</ele><time>2026-04-29T11:31:46.477Z</time></trkpt><trkpt lat="43.9397816" lon="12.3479449"><ele>177.0</ele><time>2026-04-29T11:31:48.477Z</time></trkpt><trkpt lat="43.9398657" lon="12.3479081"><ele>177.0</ele><time>2026-04-29T11:31:50.477Z</time></trkpt><trkpt lat="43.9399545" lon="12.3478557"><ele>177.0</ele><time>2026-04-29T11:31:52.477Z</time></trkpt><trkpt lat="43.9400727" lon="12.3478772"><ele>177.0</ele><time>2026-04-29T11:31:54.477Z</time></trkpt><trkpt lat="43.9401366" lon="12.3479129"><ele>177.0</ele><time>2026-04-29T11:31:55.477Z</time></trkpt><trkpt lat="43.9402421" lon="12.3479963"><ele>177.0</ele><time>2026-04-29T11:31:57.477Z</time></trkpt><trkpt lat="43.9403176" lon="12.3481138"><ele>177.16666666666666</ele><time>2026-04-29T11:31:59.477Z</time></trkpt><trkpt lat="43.9403338" lon="12.3482002"><ele>177.33333333333334</ele><time>2026-04-29T11:32:00.477Z</time></trkpt><trkpt lat="43.9403412" lon="12.3482982"><ele>177.5</ele><time>2026-04-29T11:32:01.477Z</time></trkpt><trkpt lat="43.9403439" lon="12.3484144"><ele>177.66666666666669</ele><time>2026-04-29T11:32:02.477Z</time></trkpt><trkpt lat="43.9403498" lon="12.3485308"><ele>177.83333333333334</ele><time>2026-04-29T11:32:03.477Z</time></trkpt><trkpt lat="43.940358" lon="12.3486383"><ele>178.0</ele><time>2026-04-29T11:32:04.477Z</time></trkpt><trkpt lat="43.9403715" lon="12.3487437"><ele>178.0</ele><time>2026-04-29T11:32:05.477Z</time></trkpt><trkpt lat="43.9403869" lon="12.3488596"><ele>178.0</ele><time>2026-04-29T11:32:06.477Z</time></trkpt><trkpt lat="43.9404018" lon="12.3489796"><ele>178.0</ele><time>2026-04-29T11:32:07.477Z</time></trkpt><trkpt lat="43.9404171" lon="12.3491001"><ele>178.0</ele><time>2026-04-29T11:32:08.477Z</time></trkpt><trkpt lat="43.9404372" lon="12.349225"><ele>178.0</ele><time>2026-04-29T11:32:09.477Z</time></trkpt><trkpt lat="43.9404593" lon="12.349335"><ele>178.0</ele><time>2026-04-29T11:32:10.478Z</time></trkpt><trkpt lat="43.9404786" lon="12.349423"><ele>176.5</ele><time>2026-04-29T11:32:11.478Z</time></trkpt><trkpt lat="43.9405022" lon="12.3495091"><ele>175.0</ele><time>2026-04-29T11:32:12.477Z</time></trkpt><trkpt lat="43.940535" lon="12.3495999"><ele>173.5</ele><time>2026-04-29T11:32:13.478Z</time></trkpt><trkpt lat="43.940573" lon="12.3496866"><ele>172.0</ele><time>2026-04-29T11:32:14.477Z</time></trkpt><trkpt lat="43.9406258" lon="12.3497582"><ele>170.5</ele><time>2026-04-29T11:32:15.477Z</time></trkpt><trkpt lat="43.9406934" lon="12.3498153"><ele>169.0</ele><time>2026-04-29T11:32:16.477Z</time></trkpt><trkpt lat="43.940778" lon="12.3498632"><ele>168.0</ele><time>2026-04-29T11:32:17.477Z</time></trkpt><trkpt lat="43.9408815" lon="12.3499125"><ele>167.0</ele><time>2026-04-29T11:32:18.477Z</time></trkpt><trkpt lat="43.9409975" lon="12.3499691"><ele>166.0</ele><time>2026-04-29T11:32:19.477Z</time></trkpt><trkpt lat="43.9411091" lon="12.3500325"><ele>165.0</ele><time>2026-04-29T11:32:20.477Z</time></trkpt><trkpt lat="43.9412149" lon="12.3500964"><ele>165.0</ele><time>2026-04-29T11:32:21.478Z</time></trkpt><trkpt lat="43.9413163" lon="12.35015"><ele>165.0</ele><time>2026-04-29T11:32:22.477Z</time></trkpt><trkpt lat="43.9414113" lon="12.3502001"><ele>165.0</ele><time>2026-04-29T11:32:23.477Z</time></trkpt><trkpt lat="43.9415003" lon="12.3502469"><ele>165.0</ele><time>2026-04-29T11:32:24.477Z</time></trkpt><trkpt lat="43.9415824" lon="12.3502856"><ele>165.0</ele><time>2026-04-29T11:32:25.477Z</time></trkpt><trkpt lat="43.9416608" lon="12.3503248"><ele>165.4</ele><time>2026-04-29T11:32:26.477Z</time></trkpt><trkpt lat="43.9417375" lon="12.3503541"><ele>165.8</ele><time>2026-04-29T11:32:27.477Z</time></trkpt><trkpt lat="43.9418199" lon="12.3503836"><ele>166.2</ele><time>2026-04-29T11:32:28.477Z</time></trkpt><trkpt lat="43.9419213" lon="12.3503937"><ele>166.6</ele><time>2026-04-29T11:32:29.477Z</time></trkpt><trkpt lat="43.9420476" lon="12.350415"><ele>167.0</ele><time>2026-04-29T11:32:30.477Z</time></trkpt><trkpt lat="43.9421817" lon="12.3504377"><ele>167.0</ele><time>2026-04-29T11:32:31.477Z</time></trkpt><trkpt lat="43.9422989" lon="12.3504695"><ele>167.0</ele><time>2026-04-29T11:32:32.477Z</time></trkpt><trkpt lat="43.9424046" lon="12.3505021"><ele>167.0</ele><time>2026-04-29T11:32:33.477Z</time></trkpt><trkpt lat="43.9425141" lon="12.3505344"><ele>167.0</ele><time>2026-04-29T11:32:34.477Z</time></trkpt><trkpt lat="43.9426273" lon="12.3505707"><ele>165.2</ele><time>2026-04-29T11:32:35.477Z</time></trkpt><trkpt lat="43.9427402" lon="12.3506092"><ele>163.39999999999998</ele><time>2026-04-29T11:32:36.477Z</time></trkpt><trkpt lat="43.9428503" lon="12.3506449"><ele>161.60000000000002</ele><time>2026-04-29T11:32:37.477Z</time></trkpt><trkpt lat="43.9429532" lon="12.3506832"><ele>159.8</ele><time>2026-04-29T11:32:38.477Z</time></trkpt><trkpt lat="43.9430403" lon="12.3507159"><ele>158.0</ele><time>2026-04-29T11:32:39.478Z</time></trkpt><trkpt lat="43.9431187" lon="12.350739"><ele>158.0</ele><time>2026-04-29T11:32:40.478Z</time></trkpt><trkpt lat="43.9431814" lon="12.3507721"><ele>158.0</ele><time>2026-04-29T11:32:41.477Z</time></trkpt><trkpt lat="43.9432627" lon="12.3509"><ele>158.0</ele><time>2026-04-29T11:32:43.477Z</time></trkpt><trkpt lat="43.9433106" lon="12.3509765"><ele>158.0</ele><time>2026-04-29T11:32:44.477Z</time></trkpt><trkpt lat="43.9433617" lon="12.3510494"><ele>158.0</ele><time>2026-04-29T11:32:45.477Z</time></trkpt><trkpt lat="43.9434198" lon="12.351118"><ele>158.0</ele><time>2026-04-29T11:32:46.477Z</time></trkpt><trkpt lat="43.9434912" lon="12.3512012"><ele>157.83333333333331</ele><time>2026-04-29T11:32:47.477Z</time></trkpt><trkpt lat="43.9435714" lon="12.3512921"><ele>157.66666666666666</ele><time>2026-04-29T11:32:48.478Z</time></trkpt><trkpt lat="43.9436448" lon="12.351368"><ele>157.5</ele><time>2026-04-29T11:32:49.477Z</time></trkpt><trkpt lat="43.9437121" lon="12.3514294"><ele>157.33333333333334</ele><time>2026-04-29T11:32:50.477Z</time></trkpt><trkpt lat="43.9437817" lon="12.3514753"><ele>157.16666666666669</ele><time>2026-04-29T11:32:51.477Z</time></trkpt><trkpt lat="43.9438463" lon="12.3515136"><ele>157.0</ele><time>2026-04-29T11:32:52.477Z</time></trkpt><trkpt lat="43.9439053" lon="12.3515454"><ele>156.4</ele><time>2026-04-29T11:32:53.477Z</time></trkpt><trkpt lat="43.9440116" lon="12.3515833"><ele>155.79999999999998</ele><time>2026-04-29T11:32:55.477Z</time></trkpt><trkpt lat="43.9441084" lon="12.3516189"><ele>155.2</ele><time>2026-04-29T11:32:57.477Z</time></trkpt><trkpt lat="43.944211" lon="12.3517231"><ele>154.6</ele><time>2026-04-29T11:32:59.478Z</time></trkpt><trkpt lat="43.9442791" lon="12.3517953"><ele>154.0</ele><time>2026-04-29T11:33:00.477Z</time></trkpt><trkpt lat="43.944357" lon="12.351857"><ele>154.0</ele><time>2026-04-29T11:33:01.477Z</time></trkpt><trkpt lat="43.9444329" lon="12.3519113"><ele>154.0</ele><time>2026-04-29T11:33:02.477Z</time></trkpt><trkpt lat="43.9445152" lon="12.3519658"><ele>154.0</ele><time>2026-04-29T11:33:03.477Z</time></trkpt><trkpt lat="43.9445992" lon="12.3520245"><ele>154.0</ele><time>2026-04-29T11:33:04.477Z</time></trkpt><trkpt lat="43.9446896" lon="12.3520799"><ele>154.0</ele><time>2026-04-29T11:33:05.477Z</time></trkpt><trkpt lat="43.9447826" lon="12.3521425"><ele>154.0</ele><time>2026-04-29T11:33:06.477Z</time></trkpt><trkpt lat="43.9448644" lon="12.3522043"><ele>154.0</ele><time>2026-04-29T11:33:07.477Z</time></trkpt><trkpt lat="43.9449527" lon="12.3522628"><ele>154.0</ele><time>2026-04-29T11:33:08.477Z</time></trkpt><trkpt lat="43.9450476" lon="12.3523213"><ele>154.0</ele><time>2026-04-29T11:33:09.477Z</time></trkpt><trkpt lat="43.9451534" lon="12.3523788"><ele>154.0</ele><time>2026-04-29T11:33:10.477Z</time></trkpt><trkpt lat="43.9452516" lon="12.3524317"><ele>153.4</ele><time>2026-04-29T11:33:11.477Z</time></trkpt><trkpt lat="43.9453447" lon="12.35249"><ele>152.8</ele><time>2026-04-29T11:33:12.477Z</time></trkpt><trkpt lat="43.9454384" lon="12.3525539"><ele>152.2</ele><time>2026-04-29T11:33:13.477Z</time></trkpt><trkpt lat="43.9455359" lon="12.3526291"><ele>151.6</ele><time>2026-04-29T11:33:14.477Z</time></trkpt><trkpt lat="43.9456391" lon="12.3526983"><ele>151.0</ele><time>2026-04-29T11:33:15.477Z</time></trkpt><trkpt lat="43.9457453" lon="12.3527678"><ele>151.0</ele><time>2026-04-29T11:33:16.477Z</time></trkpt><trkpt lat="43.945851" lon="12.3528396"><ele>151.0</ele><time>2026-04-29T11:33:17.477Z</time></trkpt><trkpt lat="43.9459588" lon="12.3529232"><ele>151.0</ele><time>2026-04-29T11:33:18.477Z</time></trkpt><trkpt lat="43.946078" lon="12.3530146"><ele>151.0</ele><time>2026-04-29T11:33:19.477Z</time></trkpt><trkpt lat="43.9461934" lon="12.3530987"><ele>151.2</ele><time>2026-04-29T11:33:20.477Z</time></trkpt><trkpt lat="43.946304" lon="12.3531804"><ele>151.39999999999998</ele><time>2026-04-29T11:33:21.477Z</time></trkpt><trkpt lat="43.9463997" lon="12.353259"><ele>151.6</ele><time>2026-04-29T11:33:22.478Z</time></trkpt><trkpt lat="43.9464877" lon="12.3533342"><ele>151.79999999999998</ele><time>2026-04-29T11:33:23.477Z</time></trkpt><trkpt lat="43.9465627" lon="12.3534005"><ele>152.0</ele><time>2026-04-29T11:33:24.477Z</time></trkpt><trkpt lat="43.9466312" lon="12.3534552"><ele>152.0</ele><time>2026-04-29T11:33:25.477Z</time></trkpt><trkpt lat="43.9466832" lon="12.353505"><ele>152.0</ele><time>2026-04-29T11:33:26.477Z</time></trkpt><trkpt lat="43.9467671" lon="12.3535884"><ele>152.0</ele><time>2026-04-29T11:33:28.477Z</time></trkpt><trkpt lat="43.9468782" lon="12.3536122"><ele>152.0</ele><time>2026-04-29T11:33:30.477Z</time></trkpt><trkpt lat="43.9469582" lon="12.3535815"><ele>152.0</ele><time>2026-04-29T11:33:31.478Z</time></trkpt><trkpt lat="43.9470553" lon="12.3535188"><ele>151.33333333333331</ele><time>2026-04-29T11:33:32.477Z</time></trkpt><trkpt lat="43.9471755" lon="12.3534303"><ele>150.66666666666666</ele><time>2026-04-29T11:33:33.477Z</time></trkpt><trkpt lat="43.9473091" lon="12.3533341"><ele>150.0</ele><time>2026-04-29T11:33:34.478Z</time></trkpt><trkpt lat="43.9474688" lon="12.3532379"><ele>149.66666666666666</ele><time>2026-04-29T11:33:35.477Z</time></trkpt><trkpt lat="43.947644" lon="12.3531403"><ele>149.33333333333331</ele><time>2026-04-29T11:33:36.477Z</time></trkpt><trkpt lat="43.947823" lon="12.353046"><ele>149.0</ele><time>2026-04-29T11:33:37.477Z</time></trkpt><trkpt lat="43.9479929" lon="12.3529711"><ele>150.0</ele><time>2026-04-29T11:33:38.477Z</time></trkpt><trkpt lat="43.948138" lon="12.3529104"><ele>151.0</ele><time>2026-04-29T11:33:39.477Z</time></trkpt><trkpt lat="43.9482661" lon="12.3528613"><ele>152.0</ele><time>2026-04-29T11:33:40.477Z</time></trkpt><trkpt lat="43.948374" lon="12.3528098"><ele>153.0</ele><time>2026-04-29T11:33:41.477Z</time></trkpt><trkpt lat="43.9484614" lon="12.3527772"><ele>153.0</ele><time>2026-04-29T11:33:42.477Z</time></trkpt><trkpt lat="43.9485644" lon="12.3527149"><ele>153.0</ele><time>2026-04-29T11:33:44.477Z</time></trkpt><trkpt lat="43.948587" lon="12.352613"><ele>153.0</ele><time>2026-04-29T11:33:47.477Z</time></trkpt><trkpt lat="43.9485083" lon="12.352536"><ele>153.0</ele><time>2026-04-29T11:33:49.478Z</time></trkpt><trkpt lat="43.9484303" lon="12.3525004"><ele>153.0</ele><time>2026-04-29T11:33:50.477Z</time></trkpt><trkpt lat="43.948342" lon="12.3524811"><ele>153.0</ele><time>2026-04-29T11:33:51.477Z</time></trkpt><trkpt lat="43.9482507" lon="12.3524361"><ele>153.0</ele><time>2026-04-29T11:33:52.477Z</time></trkpt><trkpt lat="43.9481577" lon="12.3523866"><ele>153.0</ele><time>2026-04-29T11:33:53.477Z</time></trkpt><trkpt lat="43.9480613" lon="12.3523417"><ele>153.0</ele><time>2026-04-29T11:33:54.477Z</time></trkpt><trkpt lat="43.9479657" lon="12.3523001"><ele>153.0</ele><time>2026-04-29T11:33:55.477Z</time></trkpt><trkpt lat="43.9478662" lon="12.3522567"><ele>153.0</ele><time>2026-04-29T11:33:56.477Z</time></trkpt><trkpt lat="43.9477628" lon="12.3522078"><ele>153.0</ele><time>2026-04-29T11:33:57.477Z</time></trkpt><trkpt lat="43.9476588" lon="12.3521638"><ele>153.0</ele><time>2026-04-29T11:33:58.477Z</time></trkpt><trkpt lat="43.9475569" lon="12.3521277"><ele>153.0</ele><time>2026-04-29T11:33:59.477Z</time></trkpt><trkpt lat="43.947471" lon="12.3520906"><ele>153.0</ele><time>2026-04-29T11:34:00.477Z</time></trkpt><trkpt lat="43.9473918" lon="12.3520536"><ele>154.4</ele><time>2026-04-29T11:34:01.477Z</time></trkpt><trkpt lat="43.9473082" lon="12.3520022"><ele>155.8</ele><time>2026-04-29T11:34:02.478Z</time></trkpt><trkpt lat="43.9472242" lon="12.3519479"><ele>157.2</ele><time>2026-04-29T11:34:03.477Z</time></trkpt><trkpt lat="43.9471362" lon="12.3518945"><ele>158.6</ele><time>2026-04-29T11:34:04.477Z</time></trkpt><trkpt lat="43.9470507" lon="12.3518427"><ele>160.0</ele><time>2026-04-29T11:34:05.477Z</time></trkpt><trkpt lat="43.946967" lon="12.3517977"><ele>160.0</ele><time>2026-04-29T11:34:06.477Z</time></trkpt><trkpt lat="43.9468833" lon="12.3517476"><ele>160.0</ele><time>2026-04-29T11:34:07.477Z</time></trkpt><trkpt lat="43.9468013" lon="12.351698"><ele>160.0</ele><time>2026-04-29T11:34:08.477Z</time></trkpt><trkpt lat="43.9467142" lon="12.351651"><ele>160.0</ele><time>2026-04-29T11:34:09.477Z</time></trkpt><trkpt lat="43.946613" lon="12.3516032"><ele>160.0</ele><time>2026-04-29T11:34:10.478Z</time></trkpt><trkpt lat="43.9464977" lon="12.3515496"><ele>159.0</ele><time>2026-04-29T11:34:11.477Z</time></trkpt><trkpt lat="43.9463732" lon="12.3515008"><ele>158.0</ele><time>2026-04-29T11:34:12.477Z</time></trkpt><trkpt lat="43.9462481" lon="12.3514556"><ele>157.0</ele><time>2026-04-29T11:34:13.477Z</time></trkpt><trkpt lat="43.9461169" lon="12.3514133"><ele>156.0</ele><time>2026-04-29T11:34:14.477Z</time></trkpt><trkpt lat="43.9459952" lon="12.3513731"><ele>157.25</ele><time>2026-04-29T11:34:15.477Z</time></trkpt><trkpt lat="43.9458837" lon="12.351332"><ele>158.5</ele><time>2026-04-29T11:34:16.477Z</time></trkpt><trkpt lat="43.9457713" lon="12.3512957"><ele>159.75</ele><time>2026-04-29T11:34:17.477Z</time></trkpt><trkpt lat="43.9456587" lon="12.351265"><ele>161.0</ele><time>2026-04-29T11:34:18.477Z</time></trkpt><trkpt lat="43.9455495" lon="12.3512313"><ele>161.0</ele><time>2026-04-29T11:34:19.477Z</time></trkpt><trkpt lat="43.9454567" lon="12.3511964"><ele>161.0</ele><time>2026-04-29T11:34:20.478Z</time></trkpt><trkpt lat="43.9453723" lon="12.3511672"><ele>161.0</ele><time>2026-04-29T11:34:21.477Z</time></trkpt><trkpt lat="43.9452962" lon="12.351144"><ele>161.0</ele><time>2026-04-29T11:34:22.477Z</time></trkpt><trkpt lat="43.9452291" lon="12.3511141"><ele>161.0</ele><time>2026-04-29T11:34:23.477Z</time></trkpt><trkpt lat="43.9451671" lon="12.3510833"><ele>161.0</ele><time>2026-04-29T11:34:24.477Z</time></trkpt><trkpt lat="43.9450978" lon="12.3510544"><ele>160.66666666666666</ele><time>2026-04-29T11:34:25.477Z</time></trkpt><trkpt lat="43.9450294" lon="12.3510346"><ele>160.33333333333331</ele><time>2026-04-29T11:34:26.477Z</time></trkpt><trkpt lat="43.9449641" lon="12.3510139"><ele>160.0</ele><time>2026-04-29T11:34:27.477Z</time></trkpt><trkpt lat="43.944878" lon="12.3509794"><ele>159.66666666666666</ele><time>2026-04-29T11:34:29.477Z</time></trkpt><trkpt lat="43.9448502" lon="12.3508324"><ele>159.33333333333334</ele><time>2026-04-29T11:34:31.477Z</time></trkpt><trkpt lat="43.9448515" lon="12.3507102"><ele>159.0</ele><time>2026-04-29T11:34:32.477Z</time></trkpt><trkpt lat="43.9448599" lon="12.3505727"><ele>160.66666666666666</ele><time>2026-04-29T11:34:33.477Z</time></trkpt><trkpt lat="43.944868" lon="12.350449"><ele>162.33333333333334</ele><time>2026-04-29T11:34:34.477Z</time></trkpt><trkpt lat="43.9448919" lon="12.3503229"><ele>164.0</ele><time>2026-04-29T11:34:35.477Z</time></trkpt><trkpt lat="43.9449136" lon="12.3502045"><ele>165.66666666666669</ele><time>2026-04-29T11:34:36.477Z</time></trkpt><trkpt lat="43.9449268" lon="12.3501027"><ele>167.33333333333334</ele><time>2026-04-29T11:34:37.477Z</time></trkpt><trkpt lat="43.9449204" lon="12.3499671"><ele>169.0</ele><time>2026-04-29T11:34:39.477Z</time></trkpt><trkpt lat="43.9448409" lon="12.349878"><ele>169.0</ele><time>2026-04-29T11:34:41.478Z</time></trkpt><trkpt lat="43.9447759" lon="12.3498502"><ele>169.0</ele><time>2026-04-29T11:34:42.477Z</time></trkpt><trkpt lat="43.9447027" lon="12.3498319"><ele>169.0</ele><time>2026-04-29T11:34:43.477Z</time></trkpt><trkpt lat="43.9446213" lon="12.3498111"><ele>169.0</ele><time>2026-04-29T11:34:44.477Z</time></trkpt><trkpt lat="43.9445303" lon="12.3497904"><ele>169.0</ele><time>2026-04-29T11:34:45.477Z</time></trkpt><trkpt lat="43.9444413" lon="12.3497598"><ele>169.0</ele><time>2026-04-29T11:34:46.477Z</time></trkpt><trkpt lat="43.9443517" lon="12.3497204"><ele>171.39999999999998</ele><time>2026-04-29T11:34:47.477Z</time></trkpt><trkpt lat="43.9442644" lon="12.3496871"><ele>173.8</ele><time>2026-04-29T11:34:48.477Z</time></trkpt><trkpt lat="43.9441712" lon="12.3496607"><ele>176.2</ele><time>2026-04-29T11:34:49.477Z</time></trkpt><trkpt lat="43.9440885" lon="12.3496452"><ele>178.60000000000002</ele><time>2026-04-29T11:34:50.478Z</time></trkpt><trkpt lat="43.9440171" lon="12.3496359"><ele>181.0</ele><time>2026-04-29T11:34:51.477Z</time></trkpt><trkpt lat="43.9439097" lon="12.349562"><ele>182.0</ele><time>2026-04-29T11:34:53.477Z</time></trkpt><trkpt lat="43.9438231" lon="12.3494536"><ele>183.0</ele><time>2026-04-29T11:34:55.477Z</time></trkpt><trkpt lat="43.9437711" lon="12.3493913"><ele>184.0</ele><time>2026-04-29T11:34:56.478Z</time></trkpt><trkpt lat="43.9437033" lon="12.3493214"><ele>185.0</ele><time>2026-04-29T11:34:57.477Z</time></trkpt><trkpt lat="43.9436293" lon="12.3492444"><ele>186.0</ele><time>2026-04-29T11:34:58.477Z</time></trkpt><trkpt lat="43.943558" lon="12.3491593"><ele>186.0</ele><time>2026-04-29T11:34:59.477Z</time></trkpt><trkpt lat="43.9434982" lon="12.3490784"><ele>186.0</ele><time>2026-04-29T11:35:00.477Z</time></trkpt><trkpt lat="43.9434523" lon="12.3490085"><ele>186.0</ele><time>2026-04-29T11:35:01.477Z</time></trkpt><trkpt lat="43.9433671" lon="12.3488885"><ele>186.0</ele><time>2026-04-29T11:35:03.477Z</time></trkpt><trkpt lat="43.9432529" lon="12.3488067"><ele>186.0</ele><time>2026-04-29T11:35:05.477Z</time></trkpt><trkpt lat="43.943184" lon="12.3487893"><ele>187.5</ele><time>2026-04-29T11:35:06.477Z</time></trkpt><trkpt lat="43.9431139" lon="12.3487612"><ele>189.0</ele><time>2026-04-29T11:35:07.477Z</time></trkpt><trkpt lat="43.9430458" lon="12.3487181"><ele>190.5</ele><time>2026-04-29T11:35:08.477Z</time></trkpt><trkpt lat="43.9429688" lon="12.3486654"><ele>192.0</ele><time>2026-04-29T11:35:09.477Z</time></trkpt><trkpt lat="43.9428867" lon="12.3486147"><ele>193.5</ele><time>2026-04-29T11:35:10.477Z</time></trkpt><trkpt lat="43.9428025" lon="12.3485729"><ele>195.0</ele><time>2026-04-29T11:35:11.477Z</time></trkpt><trkpt lat="43.9427186" lon="12.3485358"><ele>195.0</ele><time>2026-04-29T11:35:12.477Z</time></trkpt><trkpt lat="43.942643" lon="12.348505"><ele>195.0</ele><time>2026-04-29T11:35:13.477Z</time></trkpt><trkpt lat="43.9425811" lon="12.3484731"><ele>195.0</ele><time>2026-04-29T11:35:14.478Z</time></trkpt><trkpt lat="43.942479" lon="12.3483726"><ele>195.0</ele><time>2026-04-29T11:35:16.477Z</time></trkpt><trkpt lat="43.9424308" lon="12.348293"><ele>195.0</ele><time>2026-04-29T11:35:17.478Z</time></trkpt><trkpt lat="43.9423921" lon="12.3482115"><ele>195.0</ele><time>2026-04-29T11:35:18.477Z</time></trkpt><trkpt lat="43.9423464" lon="12.3481314"><ele>194.5</ele><time>2026-04-29T11:35:19.477Z</time></trkpt><trkpt lat="43.9423015" lon="12.348065"><ele>194.0</ele><time>2026-04-29T11:35:20.477Z</time></trkpt><trkpt lat="43.9422105" lon="12.3479844"><ele>193.5</ele><time>2026-04-29T11:35:22.477Z</time></trkpt><trkpt lat="43.9421452" lon="12.3479644"><ele>193.0</ele><time>2026-04-29T11:35:23.477Z</time></trkpt><trkpt lat="43.9420779" lon="12.3479556"><ele>192.5</ele><time>2026-04-29T11:35:24.477Z</time></trkpt><trkpt lat="43.9420051" lon="12.3479376"><ele>192.0</ele><time>2026-04-29T11:35:25.477Z</time></trkpt><trkpt lat="43.9419324" lon="12.347916"><ele>193.28571428571428</ele><time>2026-04-29T11:35:26.477Z</time></trkpt><trkpt lat="43.9418615" lon="12.3478924"><ele>194.57142857142856</ele><time>2026-04-29T11:35:27.477Z</time></trkpt><trkpt lat="43.9417929" lon="12.3478611"><ele>195.85714285714283</ele><time>2026-04-29T11:35:28.477Z</time></trkpt><trkpt lat="43.9417271" lon="12.3478489"><ele>197.14285714285714</ele><time>2026-04-29T11:35:29.477Z</time></trkpt><trkpt lat="43.9416638" lon="12.3478384"><ele>198.42857142857144</ele><time>2026-04-29T11:35:30.477Z</time></trkpt><trkpt lat="43.941592" lon="12.3478302"><ele>199.7142857142857</ele><time>2026-04-29T11:35:31.478Z</time></trkpt><trkpt lat="43.9415147" lon="12.3478216"><ele>201.0</ele><time>2026-04-29T11:35:32.477Z</time></trkpt><trkpt lat="43.9414436" lon="12.3478096"><ele>201.0</ele><time>2026-04-29T11:35:33.477Z</time></trkpt><trkpt lat="43.94133" lon="12.347774"><ele>201.0</ele><time>2026-04-29T11:35:35.477Z</time></trkpt><trkpt lat="43.9412345" lon="12.3477216"><ele>201.0</ele><time>2026-04-29T11:35:37.477Z</time></trkpt><trkpt lat="43.9411658" lon="12.347578"><ele>201.0</ele><time>2026-04-29T11:35:39.477Z</time></trkpt><trkpt lat="43.9411428" lon="12.3474963"><ele>201.0</ele><time>2026-04-29T11:35:40.477Z</time></trkpt><trkpt lat="43.9411277" lon="12.3473273"><ele>201.0</ele><time>2026-04-29T11:35:42.478Z</time></trkpt><trkpt lat="43.941132" lon="12.3472382"><ele>201.0</ele><time>2026-04-29T11:35:43.477Z</time></trkpt><trkpt lat="43.9411236" lon="12.347089"><ele>201.0</ele><time>2026-04-29T11:35:45.477Z</time></trkpt><trkpt lat="43.9411053" lon="12.3469989"><ele>201.0</ele><time>2026-04-29T11:35:46.477Z</time></trkpt><trkpt lat="43.9410809" lon="12.3469181"><ele>201.0</ele><time>2026-04-29T11:35:47.477Z</time></trkpt><trkpt lat="43.9409975" lon="12.3468067"><ele>201.0</ele><time>2026-04-29T11:35:49.478Z</time></trkpt><trkpt lat="43.9409314" lon="12.3467742"><ele>200.7142857142857</ele><time>2026-04-29T11:35:50.477Z</time></trkpt><trkpt lat="43.940865" lon="12.3467344"><ele>200.42857142857144</ele><time>2026-04-29T11:35:51.478Z</time></trkpt><trkpt lat="43.94081" lon="12.3466873"><ele>200.14285714285714</ele><time>2026-04-29T11:35:52.477Z</time></trkpt><trkpt lat="43.9407501" lon="12.3466357"><ele>199.85714285714283</ele><time>2026-04-29T11:35:53.477Z</time></trkpt><trkpt lat="43.9406887" lon="12.3465861"><ele>199.57142857142856</ele><time>2026-04-29T11:35:54.477Z</time></trkpt><trkpt lat="43.9406325" lon="12.3465316"><ele>199.28571428571428</ele><time>2026-04-29T11:35:55.477Z</time></trkpt><trkpt lat="43.9405708" lon="12.3464995"><ele>199.0</ele><time>2026-04-29T11:35:56.477Z</time></trkpt><trkpt lat="43.9405027" lon="12.3464889"><ele>198.99999999999997</ele><time>2026-04-29T11:35:57.477Z</time></trkpt><trkpt lat="43.9404307" lon="12.3465045"><ele>199.0</ele><time>2026-04-29T11:35:58.477Z</time></trkpt><trkpt lat="43.9403645" lon="12.3465223"><ele>199.0</ele><time>2026-04-29T11:35:59.477Z</time></trkpt><trkpt lat="43.9402407" lon="12.3465057"><ele>199.0</ele><time>2026-04-29T11:36:01.477Z</time></trkpt><trkpt lat="43.9401679" lon="12.3464653"><ele>198.99999999999997</ele><time>2026-04-29T11:36:02.477Z</time></trkpt><trkpt lat="43.9401023" lon="12.3464198"><ele>199.0</ele><time>2026-04-29T11:36:03.477Z</time></trkpt><trkpt lat="43.9400398" lon="12.3463763"><ele>199.83333333333331</ele><time>2026-04-29T11:36:04.477Z</time></trkpt><trkpt lat="43.9399836" lon="12.3463339"><ele>200.66666666666666</ele><time>2026-04-29T11:36:05.477Z</time></trkpt><trkpt lat="43.9399363" lon="12.3462644"><ele>201.5</ele><time>2026-04-29T11:36:06.477Z</time></trkpt><trkpt lat="43.9398921" lon="12.3461784"><ele>202.33333333333331</ele><time>2026-04-29T11:36:07.477Z</time></trkpt><trkpt lat="43.9398421" lon="12.3460762"><ele>203.16666666666666</ele><time>2026-04-29T11:36:08.477Z</time></trkpt><trkpt lat="43.9397771" lon="12.3459824"><ele>204.0</ele><time>2026-04-29T11:36:09.478Z</time></trkpt><trkpt lat="43.9397019" lon="12.3458929"><ele>204.0</ele><time>2026-04-29T11:36:10.477Z</time></trkpt><trkpt lat="43.9396167" lon="12.3457913"><ele>204.0</ele><time>2026-04-29T11:36:11.477Z</time></trkpt><trkpt lat="43.9395212" lon="12.3456797"><ele>204.0</ele><time>2026-04-29T11:36:12.478Z</time></trkpt><trkpt lat="43.9394201" lon="12.3455671"><ele>204.0</ele><time>2026-04-29T11:36:13.477Z</time></trkpt><trkpt lat="43.9393311" lon="12.3454652"><ele>202.85714285714286</ele><time>2026-04-29T11:36:14.477Z</time></trkpt><trkpt lat="43.9392577" lon="12.3453775"><ele>201.71428571428572</ele><time>2026-04-29T11:36:15.477Z</time></trkpt><trkpt lat="43.9391968" lon="12.3453062"><ele>200.57142857142856</ele><time>2026-04-29T11:36:16.477Z</time></trkpt><trkpt lat="43.9391432" lon="12.3452505"><ele>199.42857142857144</ele><time>2026-04-29T11:36:17.478Z</time></trkpt><trkpt lat="43.9390852" lon="12.3452115"><ele>198.28571428571428</ele><time>2026-04-29T11:36:18.477Z</time></trkpt><trkpt lat="43.9390236" lon="12.3451791"><ele>197.14285714285714</ele><time>2026-04-29T11:36:19.477Z</time></trkpt><trkpt lat="43.9389627" lon="12.3451519"><ele>196.0</ele><time>2026-04-29T11:36:20.477Z</time></trkpt><trkpt lat="43.9388515" lon="12.345107"><ele>196.0</ele><time>2026-04-29T11:36:22.477Z</time></trkpt><trkpt lat="43.9387245" lon="12.3450609"><ele>196.0</ele><time>2026-04-29T11:36:24.477Z</time></trkpt><trkpt lat="43.9386604" lon="12.3450463"><ele>196.0</ele><time>2026-04-29T11:36:25.477Z</time></trkpt><trkpt lat="43.9385539" lon="12.3450047"><ele>196.0</ele><time>2026-04-29T11:36:27.477Z</time></trkpt><trkpt lat="43.9384314" lon="12.3449598"><ele>196.0</ele><time>2026-04-29T11:36:29.477Z</time></trkpt><trkpt lat="43.9383647" lon="12.3449496"><ele>194.99999999999997</ele><time>2026-04-29T11:36:30.477Z</time></trkpt><trkpt lat="43.9382953" lon="12.3449487"><ele>194.0</ele><time>2026-04-29T11:36:31.477Z</time></trkpt><trkpt lat="43.9382283" lon="12.344947"><ele>193.0</ele><time>2026-04-29T11:36:32.477Z</time></trkpt><trkpt lat="43.9381194" lon="12.3449144"><ele>192.0</ele><time>2026-04-29T11:36:34.477Z</time></trkpt><trkpt lat="43.9380206" lon="12.3448729"><ele>191.0</ele><time>2026-04-29T11:36:36.477Z</time></trkpt><trkpt lat="43.9379325" lon="12.3448442"><ele>190.0</ele><time>2026-04-29T11:36:38.477Z</time></trkpt><trkpt lat="43.9378098" lon="12.3448962"><ele>190.0</ele><time>2026-04-29T11:36:40.477Z</time></trkpt><trkpt lat="43.9377275" lon="12.3449355"><ele>190.0</ele><time>2026-04-29T11:36:41.477Z</time></trkpt><trkpt lat="43.9376366" lon="12.3449503"><ele>190.0</ele><time>2026-04-29T11:36:42.477Z</time></trkpt><trkpt lat="43.9375451" lon="12.3449403"><ele>190.0</ele><time>2026-04-29T11:36:43.477Z</time></trkpt><trkpt lat="43.9374568" lon="12.3448849"><ele>190.0</ele><time>2026-04-29T11:36:44.477Z</time></trkpt><trkpt lat="43.9373694" lon="12.3447874"><ele>193.0</ele><time>2026-04-29T11:36:45.477Z</time></trkpt><trkpt lat="43.9372637" lon="12.3446505"><ele>196.0</ele><time>2026-04-29T11:36:46.477Z</time></trkpt><trkpt lat="43.9371471" lon="12.3445061"><ele>199.0</ele><time>2026-04-29T11:36:47.477Z</time></trkpt><trkpt lat="43.9370326" lon="12.3443711"><ele>199.0</ele><time>2026-04-29T11:36:48.477Z</time></trkpt><trkpt lat="43.9369217" lon="12.3442464"><ele>199.0</ele><time>2026-04-29T11:36:49.477Z</time></trkpt><trkpt lat="43.936817" lon="12.3441405"><ele>199.0</ele><time>2026-04-29T11:36:50.477Z</time></trkpt><trkpt lat="43.9367247" lon="12.3440533"><ele>199.0</ele><time>2026-04-29T11:36:51.477Z</time></trkpt><trkpt lat="43.936648" lon="12.3439715"><ele>198.39999999999998</ele><time>2026-04-29T11:36:52.477Z</time></trkpt><trkpt lat="43.9365749" lon="12.3438918"><ele>197.8</ele><time>2026-04-29T11:36:53.477Z</time></trkpt><trkpt lat="43.9365056" lon="12.3438064"><ele>197.2</ele><time>2026-04-29T11:36:54.477Z</time></trkpt><trkpt lat="43.9364352" lon="12.3437139"><ele>196.60000000000002</ele><time>2026-04-29T11:36:55.477Z</time></trkpt><trkpt lat="43.9363668" lon="12.3436123"><ele>196.0</ele><time>2026-04-29T11:36:56.477Z</time></trkpt><trkpt lat="43.9363089" lon="12.3435004"><ele>195.99999999999997</ele><time>2026-04-29T11:36:57.477Z</time></trkpt><trkpt lat="43.9362558" lon="12.3433909"><ele>196.0</ele><time>2026-04-29T11:36:58.477Z</time></trkpt><trkpt lat="43.9362089" lon="12.3432904"><ele>196.0</ele><time>2026-04-29T11:36:59.477Z</time></trkpt><trkpt lat="43.9361672" lon="12.3432021"><ele>196.0</ele><time>2026-04-29T11:37:00.477Z</time></trkpt><trkpt lat="43.9361311" lon="12.3431236"><ele>195.99999999999997</ele><time>2026-04-29T11:37:01.477Z</time></trkpt><trkpt lat="43.9360958" lon="12.3430498"><ele>196.0</ele><time>2026-04-29T11:37:02.478Z</time></trkpt><trkpt lat="43.936045" lon="12.3429457"><ele>195.99999999999997</ele><time>2026-04-29T11:37:04.477Z</time></trkpt><trkpt lat="43.9359353" lon="12.3429364"><ele>196.0</ele><time>2026-04-29T11:37:07.477Z</time></trkpt><trkpt lat="43.9358656" lon="12.3429457"><ele>196.0</ele><time>2026-04-29T11:37:08.477Z</time></trkpt><trkpt lat="43.9357971" lon="12.3429043"><ele>196.0</ele><time>2026-04-29T11:37:09.478Z</time></trkpt><trkpt lat="43.9357442" lon="12.3428419"><ele>195.99999999999997</ele><time>2026-04-29T11:37:10.477Z</time></trkpt><trkpt lat="43.9357024" lon="12.3427539"><ele>196.0</ele><time>2026-04-29T11:37:12.477Z</time></trkpt><trkpt lat="43.9356151" lon="12.3427247"><ele>193.4</ele><time>2026-04-29T11:37:14.477Z</time></trkpt><trkpt lat="43.9355477" lon="12.3427595"><ele>190.8</ele><time>2026-04-29T11:37:15.477Z</time></trkpt><trkpt lat="43.935461" lon="12.3428326"><ele>188.20000000000002</ele><time>2026-04-29T11:37:16.477Z</time></trkpt><trkpt lat="43.9353507" lon="12.3429081"><ele>185.60000000000002</ele><time>2026-04-29T11:37:17.477Z</time></trkpt><trkpt lat="43.9352174" lon="12.3429993"><ele>183.0</ele><time>2026-04-29T11:37:18.477Z</time></trkpt><trkpt lat="43.9350681" lon="12.3430995"><ele>182.2</ele><time>2026-04-29T11:37:19.478Z</time></trkpt><trkpt lat="43.9349365" lon="12.3431781"><ele>181.4</ele><time>2026-04-29T11:37:20.477Z</time></trkpt><trkpt lat="43.9348437" lon="12.3432324"><ele>180.6</ele><time>2026-04-29T11:37:21.477Z</time></trkpt><trkpt lat="43.9347721" lon="12.3432575"><ele>179.79999999999998</ele><time>2026-04-29T11:37:22.477Z</time></trkpt><trkpt lat="43.9346592" lon="12.34325"><ele>179.0</ele><time>2026-04-29T11:37:24.477Z</time></trkpt><trkpt lat="43.9345792" lon="12.3431462"><ele>179.0</ele><time>2026-04-29T11:37:26.477Z</time></trkpt><trkpt lat="43.9345459" lon="12.3430709"><ele>179.0</ele><time>2026-04-29T11:37:27.477Z</time></trkpt><trkpt lat="43.934441" lon="12.3429946"><ele>179.0</ele><time>2026-04-29T11:37:29.477Z</time></trkpt><trkpt lat="43.934373" lon="12.3429927"><ele>179.0</ele><time>2026-04-29T11:37:30.478Z</time></trkpt><trkpt lat="43.9343026" lon="12.3430193"><ele>179.0</ele><time>2026-04-29T11:37:31.477Z</time></trkpt><trkpt lat="43.9342269" lon="12.3430695"><ele>179.0</ele><time>2026-04-29T11:37:32.478Z</time></trkpt><trkpt lat="43.9341453" lon="12.3431531"><ele>180.39999999999998</ele><time>2026-04-29T11:37:33.477Z</time></trkpt><trkpt lat="43.9340675" lon="12.3432518"><ele>181.8</ele><time>2026-04-29T11:37:34.477Z</time></trkpt><trkpt lat="43.933994" lon="12.3433333"><ele>183.2</ele><time>2026-04-29T11:37:35.477Z</time></trkpt><trkpt lat="43.9339162" lon="12.3434011"><ele>184.60000000000002</ele><time>2026-04-29T11:37:36.478Z</time></trkpt><trkpt lat="43.9338245" lon="12.3434495"><ele>186.0</ele><time>2026-04-29T11:37:37.477Z</time></trkpt><trkpt lat="43.9337138" lon="12.3434682"><ele>186.0</ele><time>2026-04-29T11:37:38.477Z</time></trkpt><trkpt lat="43.9335883" lon="12.3434616"><ele>186.0</ele><time>2026-04-29T11:37:39.477Z</time></trkpt><trkpt lat="43.9334631" lon="12.343444"><ele>186.0</ele><time>2026-04-29T11:37:40.477Z</time></trkpt><trkpt lat="43.9333382" lon="12.3434023"><ele>186.0</ele><time>2026-04-29T11:37:41.478Z</time></trkpt><trkpt lat="43.9332105" lon="12.3433295"><ele>185.75</ele><time>2026-04-29T11:37:42.478Z</time></trkpt><trkpt lat="43.9330795" lon="12.3432579"><ele>185.5</ele><time>2026-04-29T11:37:43.477Z</time></trkpt><trkpt lat="43.9329542" lon="12.3431884"><ele>185.25</ele><time>2026-04-29T11:37:44.477Z</time></trkpt><trkpt lat="43.9328439" lon="12.3431262"><ele>185.0</ele><time>2026-04-29T11:37:45.477Z</time></trkpt><trkpt lat="43.9327469" lon="12.3430856"><ele>185.0</ele><time>2026-04-29T11:37:46.478Z</time></trkpt><trkpt lat="43.9326668" lon="12.3430735"><ele>185.0</ele><time>2026-04-29T11:37:47.477Z</time></trkpt><trkpt lat="43.9325876" lon="12.3430874"><ele>185.0</ele><time>2026-04-29T11:37:48.477Z</time></trkpt><trkpt lat="43.9325166" lon="12.3431097"><ele>185.0</ele><time>2026-04-29T11:37:49.477Z</time></trkpt><trkpt lat="43.932385" lon="12.3430737"><ele>185.0</ele><time>2026-04-29T11:37:51.477Z</time></trkpt><trkpt lat="43.932298" lon="12.3429868"><ele>183.75</ele><time>2026-04-29T11:37:52.477Z</time></trkpt><trkpt lat="43.9322006" lon="12.3428768"><ele>182.5</ele><time>2026-04-29T11:37:53.477Z</time></trkpt><trkpt lat="43.9320935" lon="12.3427688"><ele>181.25</ele><time>2026-04-29T11:37:54.477Z</time></trkpt><trkpt lat="43.931981" lon="12.342663"><ele>180.0</ele><time>2026-04-29T11:37:55.477Z</time></trkpt><trkpt lat="43.931878" lon="12.3425677"><ele>180.0</ele><time>2026-04-29T11:37:56.477Z</time></trkpt><trkpt lat="43.9317896" lon="12.3424818"><ele>180.0</ele><time>2026-04-29T11:37:57.477Z</time></trkpt><trkpt lat="43.9317163" lon="12.3424137"><ele>180.0</ele><time>2026-04-29T11:37:58.477Z</time></trkpt><trkpt lat="43.9316609" lon="12.3423655"><ele>180.0</ele><time>2026-04-29T11:37:59.477Z</time></trkpt><trkpt lat="43.9315918" lon="12.3423222"><ele>180.0</ele><time>2026-04-29T11:38:00.477Z</time></trkpt><trkpt lat="43.9315079" lon="12.3422784"><ele>180.0</ele><time>2026-04-29T11:38:01.477Z</time></trkpt><trkpt lat="43.9314164" lon="12.3422637"><ele>179.6</ele><time>2026-04-29T11:38:02.477Z</time></trkpt><trkpt lat="43.9313213" lon="12.3422408"><ele>179.2</ele><time>2026-04-29T11:38:03.477Z</time></trkpt><trkpt lat="43.9312277" lon="12.3421865"><ele>178.8</ele><time>2026-04-29T11:38:04.477Z</time></trkpt><trkpt lat="43.9311299" lon="12.3420996"><ele>178.4</ele><time>2026-04-29T11:38:05.477Z</time></trkpt><trkpt lat="43.9310367" lon="12.3420042"><ele>178.0</ele><time>2026-04-29T11:38:06.477Z</time></trkpt><trkpt lat="43.9309355" lon="12.3419047"><ele>179.75</ele><time>2026-04-29T11:38:07.477Z</time></trkpt><trkpt lat="43.9308316" lon="12.3418103"><ele>181.5</ele><time>2026-04-29T11:38:08.478Z</time></trkpt><trkpt lat="43.9307259" lon="12.3417174"><ele>183.25</ele><time>2026-04-29T11:38:09.477Z</time></trkpt><trkpt lat="43.9306215" lon="12.3416302"><ele>185.0</ele><time>2026-04-29T11:38:10.477Z</time></trkpt><trkpt lat="43.9305279" lon="12.3415426"><ele>185.0</ele><time>2026-04-29T11:38:11.477Z</time></trkpt><trkpt lat="43.9304398" lon="12.3414593"><ele>185.0</ele><time>2026-04-29T11:38:12.477Z</time></trkpt><trkpt lat="43.9303635" lon="12.3413813"><ele>185.0</ele><time>2026-04-29T11:38:13.477Z</time></trkpt><trkpt lat="43.930299" lon="12.3413053"><ele>185.0</ele><time>2026-04-29T11:38:14.477Z</time></trkpt><trkpt lat="43.9302539" lon="12.3412229"><ele>185.0</ele><time>2026-04-29T11:38:15.477Z</time></trkpt><trkpt lat="43.9302166" lon="12.3411268"><ele>185.0</ele><time>2026-04-29T11:38:16.477Z</time></trkpt><trkpt lat="43.930184" lon="12.3410386"><ele>185.2</ele><time>2026-04-29T11:38:17.477Z</time></trkpt><trkpt lat="43.9300993" lon="12.34093"><ele>185.4</ele><time>2026-04-29T11:38:19.477Z</time></trkpt><trkpt lat="43.9300326" lon="12.3408988"><ele>185.60000000000002</ele><time>2026-04-29T11:38:20.477Z</time></trkpt><trkpt lat="43.929953" lon="12.340864"><ele>185.8</ele><time>2026-04-29T11:38:21.477Z</time></trkpt><trkpt lat="43.9298784" lon="12.3408013"><ele>186.0</ele><time>2026-04-29T11:38:22.477Z</time></trkpt><trkpt lat="43.9298099" lon="12.3406962"><ele>186.0</ele><time>2026-04-29T11:38:23.477Z</time></trkpt><trkpt lat="43.9297441" lon="12.340573"><ele>186.0</ele><time>2026-04-29T11:38:24.477Z</time></trkpt><trkpt lat="43.9296751" lon="12.3404402"><ele>186.0</ele><time>2026-04-29T11:38:25.477Z</time></trkpt><trkpt lat="43.9296032" lon="12.3403169"><ele>186.0</ele><time>2026-04-29T11:38:26.477Z</time></trkpt><trkpt lat="43.9295279" lon="12.3401966"><ele>186.25</ele><time>2026-04-29T11:38:27.477Z</time></trkpt><trkpt lat="43.9294443" lon="12.3400858"><ele>186.5</ele><time>2026-04-29T11:38:28.477Z</time></trkpt><trkpt lat="43.929348" lon="12.339975"><ele>186.75</ele><time>2026-04-29T11:38:29.477Z</time></trkpt><trkpt lat="43.9292424" lon="12.339861"><ele>187.0</ele><time>2026-04-29T11:38:30.477Z</time></trkpt><trkpt lat="43.929139" lon="12.3397423"><ele>185.5</ele><time>2026-04-29T11:38:31.478Z</time></trkpt><trkpt lat="43.9290411" lon="12.3396286"><ele>184.0</ele><time>2026-04-29T11:38:32.477Z</time></trkpt><trkpt lat="43.9289467" lon="12.3395291"><ele>182.5</ele><time>2026-04-29T11:38:33.477Z</time></trkpt><trkpt lat="43.9288458" lon="12.339439"><ele>181.0</ele><time>2026-04-29T11:38:34.477Z</time></trkpt><trkpt lat="43.928745" lon="12.3393364"><ele>181.0</ele><time>2026-04-29T11:38:35.478Z</time></trkpt><trkpt lat="43.9286549" lon="12.3392197"><ele>181.0</ele><time>2026-04-29T11:38:36.477Z</time></trkpt><trkpt lat="43.9285712" lon="12.3390888"><ele>181.0</ele><time>2026-04-29T11:38:37.477Z</time></trkpt><trkpt lat="43.9284966" lon="12.3389676"><ele>181.0</ele><time>2026-04-29T11:38:38.477Z</time></trkpt><trkpt lat="43.9284284" lon="12.338864"><ele>182.20000000000002</ele><time>2026-04-29T11:38:39.477Z</time></trkpt><trkpt lat="43.9283568" lon="12.3387743"><ele>183.4</ele><time>2026-04-29T11:38:40.477Z</time></trkpt><trkpt lat="43.9282704" lon="12.3386827"><ele>184.6</ele><time>2026-04-29T11:38:41.477Z</time></trkpt><trkpt lat="43.9281743" lon="12.3385912"><ele>185.8</ele><time>2026-04-29T11:38:42.478Z</time></trkpt><trkpt lat="43.9280883" lon="12.338483"><ele>187.0</ele><time>2026-04-29T11:38:43.477Z</time></trkpt><trkpt lat="43.9280185" lon="12.3383886"><ele>187.0</ele><time>2026-04-29T11:38:44.477Z</time></trkpt><trkpt lat="43.9279664" lon="12.3383057"><ele>187.0</ele><time>2026-04-29T11:38:45.477Z</time></trkpt><trkpt lat="43.9278734" lon="12.3382235"><ele>187.0</ele><time>2026-04-29T11:38:47.477Z</time></trkpt><trkpt lat="43.927803" lon="12.3382259"><ele>187.0</ele><time>2026-04-29T11:38:48.477Z</time></trkpt><trkpt lat="43.9277128" lon="12.3382496"><ele>187.0</ele><time>2026-04-29T11:38:49.477Z</time></trkpt><trkpt lat="43.9276123" lon="12.33829"><ele>190.0</ele><time>2026-04-29T11:38:50.477Z</time></trkpt><trkpt lat="43.9275106" lon="12.3383267"><ele>193.0</ele><time>2026-04-29T11:38:51.477Z</time></trkpt><trkpt lat="43.9273994" lon="12.3383579"><ele>196.0</ele><time>2026-04-29T11:38:52.477Z</time></trkpt><trkpt lat="43.9272837" lon="12.3383807"><ele>199.0</ele><time>2026-04-29T11:38:53.477Z</time></trkpt><trkpt lat="43.927186" lon="12.3384053"><ele>202.0</ele><time>2026-04-29T11:38:54.477Z</time></trkpt><trkpt lat="43.9270984" lon="12.3384354"><ele>202.0</ele><time>2026-04-29T11:38:55.477Z</time></trkpt><trkpt lat="43.9270239" lon="12.3384812"><ele>202.0</ele><time>2026-04-29T11:38:56.477Z</time></trkpt><trkpt lat="43.9269577" lon="12.3385481"><ele>202.0</ele><time>2026-04-29T11:38:57.477Z</time></trkpt><trkpt lat="43.926889" lon="12.3386438"><ele>202.0</ele><time>2026-04-29T11:38:58.477Z</time></trkpt><trkpt lat="43.9268182" lon="12.338749"><ele>202.0</ele><time>2026-04-29T11:38:59.477Z</time></trkpt><trkpt lat="43.9267437" lon="12.3388583"><ele>203.83333333333331</ele><time>2026-04-29T11:39:00.477Z</time></trkpt><trkpt lat="43.9266789" lon="12.3389509"><ele>205.66666666666666</ele><time>2026-04-29T11:39:01.477Z</time></trkpt><trkpt lat="43.9266237" lon="12.3390189"><ele>207.5</ele><time>2026-04-29T11:39:02.477Z</time></trkpt><trkpt lat="43.9265686" lon="12.3390808"><ele>209.33333333333331</ele><time>2026-04-29T11:39:03.477Z</time></trkpt><trkpt lat="43.9265013" lon="12.3391418"><ele>211.16666666666666</ele><time>2026-04-29T11:39:04.477Z</time></trkpt><trkpt lat="43.9264318" lon="12.3391919"><ele>213.0</ele><time>2026-04-29T11:39:05.477Z</time></trkpt><trkpt lat="43.9263651" lon="12.3392323"><ele>213.0</ele><time>2026-04-29T11:39:06.477Z</time></trkpt><trkpt lat="43.9263039" lon="12.3392659"><ele>213.0</ele><time>2026-04-29T11:39:07.477Z</time></trkpt><trkpt lat="43.9261871" lon="12.3392816"><ele>213.0</ele><time>2026-04-29T11:39:09.477Z</time></trkpt><trkpt lat="43.9260723" lon="12.3392219"><ele>213.0</ele><time>2026-04-29T11:39:11.477Z</time></trkpt><trkpt lat="43.9260217" lon="12.3391657"><ele>213.0</ele><time>2026-04-29T11:39:12.478Z</time></trkpt><trkpt lat="43.9259743" lon="12.3390087"><ele>213.0</ele><time>2026-04-29T11:39:14.478Z</time></trkpt><trkpt lat="43.9259752" lon="12.3388977"><ele>213.0</ele><time>2026-04-29T11:39:15.477Z</time></trkpt><trkpt lat="43.9260044" lon="12.3387878"><ele>213.0</ele><time>2026-04-29T11:39:16.477Z</time></trkpt><trkpt lat="43.9260575" lon="12.3387035"><ele>213.0</ele><time>2026-04-29T11:39:17.477Z</time></trkpt><trkpt lat="43.9261287" lon="12.3386256"><ele>213.0</ele><time>2026-04-29T11:39:18.477Z</time></trkpt><trkpt lat="43.9261995" lon="12.3385668"><ele>213.0</ele><time>2026-04-29T11:39:19.478Z</time></trkpt><trkpt lat="43.9262711" lon="12.3385039"><ele>212.60000000000002</ele><time>2026-04-29T11:39:20.477Z</time></trkpt><trkpt lat="43.9263456" lon="12.3384392"><ele>212.20000000000002</ele><time>2026-04-29T11:39:21.477Z</time></trkpt><trkpt lat="43.9264163" lon="12.3383592"><ele>211.8</ele><time>2026-04-29T11:39:22.477Z</time></trkpt><trkpt lat="43.9264851" lon="12.3382745"><ele>211.4</ele><time>2026-04-29T11:39:23.478Z</time></trkpt><trkpt lat="43.9265512" lon="12.3381838"><ele>211.0</ele><time>2026-04-29T11:39:24.477Z</time></trkpt><trkpt lat="43.9266284" lon="12.3380905"><ele>212.60000000000002</ele><time>2026-04-29T11:39:25.477Z</time></trkpt><trkpt lat="43.9267165" lon="12.3379923"><ele>214.2</ele><time>2026-04-29T11:39:26.477Z</time></trkpt><trkpt lat="43.9268015" lon="12.3379052"><ele>215.79999999999998</ele><time>2026-04-29T11:39:27.477Z</time></trkpt><trkpt lat="43.9268734" lon="12.3378352"><ele>217.39999999999998</ele><time>2026-04-29T11:39:28.477Z</time></trkpt><trkpt lat="43.9269288" lon="12.3377644"><ele>219.0</ele><time>2026-04-29T11:39:29.477Z</time></trkpt><trkpt lat="43.9269764" lon="12.3376939"><ele>214.25</ele><time>2026-04-29T11:39:30.478Z</time></trkpt><trkpt lat="43.9270206" lon="12.3375513"><ele>209.5</ele><time>2026-04-29T11:39:32.478Z</time></trkpt><trkpt lat="43.9269854" lon="12.3374203"><ele>204.75</ele><time>2026-04-29T11:39:34.477Z</time></trkpt><trkpt lat="43.9268675" lon="12.3373513"><ele>200.0</ele><time>2026-04-29T11:39:36.477Z</time></trkpt><trkpt lat="43.9267528" lon="12.3373692"><ele>203.16666666666669</ele><time>2026-04-29T11:39:38.477Z</time></trkpt><trkpt lat="43.926685" lon="12.3375157"><ele>206.33333333333334</ele><time>2026-04-29T11:39:40.477Z</time></trkpt><trkpt lat="43.9266665" lon="12.3376206"><ele>209.5</ele><time>2026-04-29T11:39:41.477Z</time></trkpt><trkpt lat="43.9266436" lon="12.3377167"><ele>212.66666666666669</ele><time>2026-04-29T11:39:42.477Z</time></trkpt><trkpt lat="43.9266086" lon="12.3378032"><ele>215.83333333333334</ele><time>2026-04-29T11:39:43.477Z</time></trkpt><trkpt lat="43.9265504" lon="12.3378839"><ele>219.0</ele><time>2026-04-29T11:39:44.477Z</time></trkpt><trkpt lat="43.9264762" lon="12.3379513"><ele>219.0</ele><time>2026-04-29T11:39:45.477Z</time></trkpt><trkpt lat="43.9263965" lon="12.3380021"><ele>219.0</ele><time>2026-04-29T11:39:46.477Z</time></trkpt><trkpt lat="43.9263141" lon="12.338045"><ele>219.0</ele><time>2026-04-29T11:39:47.477Z</time></trkpt><trkpt lat="43.9262314" lon="12.3380702"><ele>219.0</ele><time>2026-04-29T11:39:48.477Z</time></trkpt><trkpt lat="43.9261496" lon="12.338084"><ele>219.0</ele><time>2026-04-29T11:39:49.477Z</time></trkpt><trkpt lat="43.9260643" lon="12.338086"><ele>219.0</ele><time>2026-04-29T11:39:50.477Z</time></trkpt><trkpt lat="43.9259752" lon="12.3380808"><ele>220.39999999999998</ele><time>2026-04-29T11:39:51.477Z</time></trkpt><trkpt lat="43.9258838" lon="12.338081"><ele>221.79999999999998</ele><time>2026-04-29T11:39:52.477Z</time></trkpt><trkpt lat="43.9257838" lon="12.3380851"><ele>223.20000000000002</ele><time>2026-04-29T11:39:53.477Z</time></trkpt><trkpt lat="43.9256795" lon="12.3380915"><ele>224.60000000000002</ele><time>2026-04-29T11:39:54.477Z</time></trkpt><trkpt lat="43.925589" lon="12.3381052"><ele>226.0</ele><time>2026-04-29T11:39:55.477Z</time></trkpt><trkpt lat="43.9255135" lon="12.3381403"><ele>226.0</ele><time>2026-04-29T11:39:56.477Z</time></trkpt><trkpt lat="43.9254445" lon="12.3381938"><ele>226.0</ele><time>2026-04-29T11:39:57.477Z</time></trkpt><trkpt lat="43.9253854" lon="12.3382537"><ele>226.0</ele><time>2026-04-29T11:39:58.477Z</time></trkpt><trkpt lat="43.9253304" lon="12.3383152"><ele>226.0</ele><time>2026-04-29T11:39:59.478Z</time></trkpt><trkpt lat="43.9252747" lon="12.3383737"><ele>226.0</ele><time>2026-04-29T11:40:00.477Z</time></trkpt><trkpt lat="43.9252156" lon="12.3384269"><ele>226.0</ele><time>2026-04-29T11:40:01.477Z</time></trkpt><trkpt lat="43.9251465" lon="12.3384712"><ele>226.0</ele><time>2026-04-29T11:40:02.477Z</time></trkpt><trkpt lat="43.9250748" lon="12.3384965"><ele>229.4</ele><time>2026-04-29T11:40:03.477Z</time></trkpt><trkpt lat="43.9249726" lon="12.3385125"><ele>232.8</ele><time>2026-04-29T11:40:05.477Z</time></trkpt><trkpt lat="43.9248862" lon="12.3384619"><ele>236.20000000000002</ele><time>2026-04-29T11:40:07.477Z</time></trkpt><trkpt lat="43.9248286" lon="12.3383396"><ele>239.60000000000002</ele><time>2026-04-29T11:40:09.477Z</time></trkpt><trkpt lat="43.924808" lon="12.3381737"><ele>243.0</ele><time>2026-04-29T11:40:11.477Z</time></trkpt><trkpt lat="43.9247937" lon="12.3380835"><ele>242.8</ele><time>2026-04-29T11:40:12.477Z</time></trkpt><trkpt lat="43.9247428" lon="12.3379307"><ele>242.60000000000002</ele><time>2026-04-29T11:40:14.477Z</time></trkpt><trkpt lat="43.9246488" lon="12.3378351"><ele>242.39999999999998</ele><time>2026-04-29T11:40:16.477Z</time></trkpt><trkpt lat="43.924577" lon="12.337798"><ele>242.2</ele><time>2026-04-29T11:40:17.477Z</time></trkpt><trkpt lat="43.9244922" lon="12.3377527"><ele>242.0</ele><time>2026-04-29T11:40:18.478Z</time></trkpt><trkpt lat="43.9244185" lon="12.3377267"><ele>242.00000000000003</ele><time>2026-04-29T11:40:19.477Z</time></trkpt><trkpt lat="43.9243002" lon="12.3377381"><ele>242.0</ele><time>2026-04-29T11:40:21.477Z</time></trkpt><trkpt lat="43.9242386" lon="12.3377865"><ele>242.0</ele><time>2026-04-29T11:40:22.478Z</time></trkpt><trkpt lat="43.9241741" lon="12.3378599"><ele>242.0</ele><time>2026-04-29T11:40:23.477Z</time></trkpt><trkpt lat="43.9241158" lon="12.3379372"><ele>242.00000000000003</ele><time>2026-04-29T11:40:24.477Z</time></trkpt><trkpt lat="43.9240768" lon="12.3380184"><ele>242.0</ele><time>2026-04-29T11:40:25.477Z</time></trkpt><trkpt lat="43.9240503" lon="12.3381128"><ele>245.16666666666669</ele><time>2026-04-29T11:40:26.477Z</time></trkpt><trkpt lat="43.9240305" lon="12.338224"><ele>248.33333333333334</ele><time>2026-04-29T11:40:27.477Z</time></trkpt><trkpt lat="43.924023" lon="12.338349"><ele>251.5</ele><time>2026-04-29T11:40:28.477Z</time></trkpt><trkpt lat="43.9240195" lon="12.3384752"><ele>254.66666666666669</ele><time>2026-04-29T11:40:29.477Z</time></trkpt><trkpt lat="43.9240237" lon="12.3385951"><ele>257.8333333333333</ele><time>2026-04-29T11:40:30.477Z</time></trkpt><trkpt lat="43.9240324" lon="12.3387058"><ele>261.0</ele><time>2026-04-29T11:40:31.477Z</time></trkpt><trkpt lat="43.9240479" lon="12.3388027"><ele>261.5</ele><time>2026-04-29T11:40:32.477Z</time></trkpt><trkpt lat="43.9240685" lon="12.3388884"><ele>262.0</ele><time>2026-04-29T11:40:33.477Z</time></trkpt><trkpt lat="43.9240857" lon="12.3390042"><ele>262.5</ele><time>2026-04-29T11:40:35.477Z</time></trkpt><trkpt lat="43.9240359" lon="12.3390878"><ele>263.0</ele><time>2026-04-29T11:40:38.477Z</time></trkpt><trkpt lat="43.9239287" lon="12.3390367"><ele>263.5</ele><time>2026-04-29T11:40:40.477Z</time></trkpt><trkpt lat="43.9238476" lon="12.3390046"><ele>264.0</ele><time>2026-04-29T11:40:41.477Z</time></trkpt><trkpt lat="43.9237641" lon="12.3389737"><ele>264.0</ele><time>2026-04-29T11:40:42.478Z</time></trkpt><trkpt lat="43.923683" lon="12.3389462"><ele>264.0</ele><time>2026-04-29T11:40:43.477Z</time></trkpt><trkpt lat="43.9236123" lon="12.3389026"><ele>264.0</ele><time>2026-04-29T11:40:44.477Z</time></trkpt><trkpt lat="43.9235491" lon="12.3388336"><ele>264.0</ele><time>2026-04-29T11:40:45.477Z</time></trkpt><trkpt lat="43.9234882" lon="12.3387421"><ele>264.0</ele><time>2026-04-29T11:40:46.478Z</time></trkpt><trkpt lat="43.9234288" lon="12.3386571"><ele>264.0</ele><time>2026-04-29T11:40:47.476Z</time></trkpt><trkpt lat="43.9233737" lon="12.3386029"><ele>266.1666666666667</ele><time>2026-04-29T11:40:48.476Z</time></trkpt><trkpt lat="43.923259" lon="12.3385614"><ele>268.3333333333333</ele><time>2026-04-29T11:40:50.476Z</time></trkpt><trkpt lat="43.9231905" lon="12.3385763"><ele>270.5</ele><time>2026-04-29T11:40:51.476Z</time></trkpt><trkpt lat="43.9231147" lon="12.3386051"><ele>272.66666666666663</ele><time>2026-04-29T11:40:52.476Z</time></trkpt><trkpt lat="43.9230477" lon="12.3386252"><ele>274.8333333333333</ele><time>2026-04-29T11:40:53.476Z</time></trkpt><trkpt lat="43.9229845" lon="12.3386187"><ele>277.0</ele><time>2026-04-29T11:40:54.476Z</time></trkpt><trkpt lat="43.9229113" lon="12.3385804"><ele>277.0</ele><time>2026-04-29T11:40:55.476Z</time></trkpt><trkpt lat="43.9228275" lon="12.3385295"><ele>277.0</ele><time>2026-04-29T11:40:56.476Z</time></trkpt><trkpt lat="43.9227385" lon="12.3384809"><ele>277.0</ele><time>2026-04-29T11:40:57.476Z</time></trkpt><trkpt lat="43.9226458" lon="12.3384186"><ele>277.0</ele><time>2026-04-29T11:40:58.476Z</time></trkpt><trkpt lat="43.9225607" lon="12.3383425"><ele>277.0</ele><time>2026-04-29T11:40:59.476Z</time></trkpt><trkpt lat="43.9224826" lon="12.3382752"><ele>278.0</ele><time>2026-04-29T11:41:00.476Z</time></trkpt><trkpt lat="43.922412" lon="12.3382214"><ele>279.0</ele><time>2026-04-29T11:41:01.477Z</time></trkpt><trkpt lat="43.9223334" lon="12.3381772"><ele>280.0</ele><time>2026-04-29T11:41:02.476Z</time></trkpt><trkpt lat="43.9222493" lon="12.3381229"><ele>281.0</ele><time>2026-04-29T11:41:03.476Z</time></trkpt><trkpt lat="43.9221726" lon="12.3380621"><ele>282.0</ele><time>2026-04-29T11:41:04.476Z</time></trkpt><trkpt lat="43.922121" lon="12.3379784"><ele>283.0</ele><time>2026-04-29T11:41:05.477Z</time></trkpt><trkpt lat="43.9220761" lon="12.3378936"><ele>283.0</ele><time>2026-04-29T11:41:06.476Z</time></trkpt><trkpt lat="43.9220339" lon="12.3378177"><ele>283.0</ele><time>2026-04-29T11:41:07.476Z</time></trkpt><trkpt lat="43.9219808" lon="12.3377642"><ele>283.0</ele><time>2026-04-29T11:41:08.476Z</time></trkpt><trkpt lat="43.9218725" lon="12.3377289"><ele>283.0</ele><time>2026-04-29T11:41:10.476Z</time></trkpt><trkpt lat="43.9217952" lon="12.3377602"><ele>283.0</ele><time>2026-04-29T11:41:12.476Z</time></trkpt><trkpt lat="43.9217565" lon="12.3378549"><ele>283.0</ele><time>2026-04-29T11:41:14.476Z</time></trkpt><trkpt lat="43.9217889" lon="12.3380158"><ele>284.8</ele><time>2026-04-29T11:41:16.476Z</time></trkpt><trkpt lat="43.9218176" lon="12.338111"><ele>286.6</ele><time>2026-04-29T11:41:17.476Z</time></trkpt><trkpt lat="43.9218385" lon="12.3381968"><ele>288.4</ele><time>2026-04-29T11:41:18.476Z</time></trkpt><trkpt lat="43.921857" lon="12.338361"><ele>290.2</ele><time>2026-04-29T11:41:20.476Z</time></trkpt><trkpt lat="43.9218057" lon="12.3385117"><ele>292.0</ele><time>2026-04-29T11:41:22.477Z</time></trkpt><trkpt lat="43.9217008" lon="12.338598"><ele>294.4</ele><time>2026-04-29T11:41:24.476Z</time></trkpt><trkpt lat="43.9215926" lon="12.3385392"><ele>296.79999999999995</ele><time>2026-04-29T11:41:26.476Z</time></trkpt><trkpt lat="43.9215467" lon="12.3384749"><ele>299.2</ele><time>2026-04-29T11:41:27.476Z</time></trkpt><trkpt lat="43.9215059" lon="12.3384027"><ele>301.59999999999997</ele><time>2026-04-29T11:41:28.476Z</time></trkpt><trkpt lat="43.9214344" lon="12.3382871"><ele>304.0</ele><time>2026-04-29T11:41:30.476Z</time></trkpt><trkpt lat="43.9213282" lon="12.338272"><ele>304.0</ele><time>2026-04-29T11:41:32.476Z</time></trkpt><trkpt lat="43.921262" lon="12.3382973"><ele>304.0</ele><time>2026-04-29T11:41:33.476Z</time></trkpt><trkpt lat="43.9211997" lon="12.3383213"><ele>304.0</ele><time>2026-04-29T11:41:34.476Z</time></trkpt><trkpt lat="43.9211365" lon="12.3383198"><ele>304.0</ele><time>2026-04-29T11:41:35.476Z</time></trkpt><trkpt lat="43.9210146" lon="12.338271"><ele>304.0</ele><time>2026-04-29T11:41:37.476Z</time></trkpt><trkpt lat="43.9209413" lon="12.3382383"><ele>304.0</ele><time>2026-04-29T11:41:38.477Z</time></trkpt><trkpt lat="43.9208769" lon="12.3382246"><ele>306.66666666666663</ele><time>2026-04-29T11:41:39.476Z</time></trkpt><trkpt lat="43.9208075" lon="12.3382299"><ele>309.3333333333333</ele><time>2026-04-29T11:41:40.476Z</time></trkpt><trkpt lat="43.9207337" lon="12.3382709"><ele>312.0</ele><time>2026-04-29T11:41:41.476Z</time></trkpt><trkpt lat="43.9206554" lon="12.3383338"><ele>314.6666666666667</ele><time>2026-04-29T11:41:42.476Z</time></trkpt><trkpt lat="43.9205785" lon="12.3384038"><ele>317.33333333333337</ele><time>2026-04-29T11:41:43.476Z</time></trkpt><trkpt lat="43.9205045" lon="12.338481"><ele>320.0</ele><time>2026-04-29T11:41:44.476Z</time></trkpt><trkpt lat="43.9204272" lon="12.3385651"><ele>320.0</ele><time>2026-04-29T11:41:45.477Z</time></trkpt><trkpt lat="43.9203545" lon="12.3386455"><ele>320.0</ele><time>2026-04-29T11:41:46.477Z</time></trkpt><trkpt lat="43.920298" lon="12.3387162"><ele>320.0</ele><time>2026-04-29T11:41:47.477Z</time></trkpt><trkpt lat="43.9202501" lon="12.338779"><ele>320.0</ele><time>2026-04-29T11:41:48.476Z</time></trkpt><trkpt lat="43.9201999" lon="12.3388434"><ele>320.0</ele><time>2026-04-29T11:41:49.476Z</time></trkpt><trkpt lat="43.9201479" lon="12.3389137"><ele>320.0</ele><time>2026-04-29T11:41:50.476Z</time></trkpt><trkpt lat="43.9200923" lon="12.3389972"><ele>321.5</ele><time>2026-04-29T11:41:51.476Z</time></trkpt><trkpt lat="43.9200339" lon="12.3390795"><ele>323.0</ele><time>2026-04-29T11:41:52.476Z</time></trkpt><trkpt lat="43.9199697" lon="12.3391691"><ele>324.5</ele><time>2026-04-29T11:41:53.476Z</time></trkpt><trkpt lat="43.9199058" lon="12.3392553"><ele>326.0</ele><time>2026-04-29T11:41:54.476Z</time></trkpt><trkpt lat="43.9198453" lon="12.339332"><ele>327.5</ele><time>2026-04-29T11:41:55.476Z</time></trkpt><trkpt lat="43.9197949" lon="12.3394089"><ele>329.0</ele><time>2026-04-29T11:41:56.476Z</time></trkpt><trkpt lat="43.9197492" lon="12.3394829"><ele>329.0</ele><time>2026-04-29T11:41:57.476Z</time></trkpt><trkpt lat="43.9197013" lon="12.3395509"><ele>329.0</ele><time>2026-04-29T11:41:58.477Z</time></trkpt><trkpt lat="43.9196512" lon="12.3396154"><ele>329.0</ele><time>2026-04-29T11:41:59.476Z</time></trkpt><trkpt lat="43.9195996" lon="12.3396784"><ele>329.0</ele><time>2026-04-29T11:42:00.476Z</time></trkpt><trkpt lat="43.9195483" lon="12.3397399"><ele>329.0</ele><time>2026-04-29T11:42:01.476Z</time></trkpt><trkpt lat="43.9194928" lon="12.3398064"><ele>329.0</ele><time>2026-04-29T11:42:02.476Z</time></trkpt><trkpt lat="43.9194372" lon="12.3398798"><ele>329.0</ele><time>2026-04-29T11:42:03.476Z</time></trkpt><trkpt lat="43.9193757" lon="12.33995"><ele>329.33333333333337</ele><time>2026-04-29T11:42:04.476Z</time></trkpt><trkpt lat="43.9193131" lon="12.3400177"><ele>329.6666666666667</ele><time>2026-04-29T11:42:05.476Z</time></trkpt><trkpt lat="43.9192421" lon="12.3400812"><ele>330.0</ele><time>2026-04-29T11:42:06.476Z</time></trkpt><trkpt lat="43.9191644" lon="12.3401438"><ele>330.3333333333333</ele><time>2026-04-29T11:42:07.476Z</time></trkpt><trkpt lat="43.9190836" lon="12.3401989"><ele>330.66666666666663</ele><time>2026-04-29T11:42:08.476Z</time></trkpt><trkpt lat="43.9189988" lon="12.3402533"><ele>331.0</ele><time>2026-04-29T11:42:09.476Z</time></trkpt><trkpt lat="43.9189139" lon="12.3403034"><ele>331.0</ele><time>2026-04-29T11:42:10.476Z</time></trkpt><trkpt lat="43.9188215" lon="12.3403462"><ele>331.0</ele><time>2026-04-29T11:42:11.476Z</time></trkpt><trkpt lat="43.9187313" lon="12.3403825"><ele>331.0</ele><time>2026-04-29T11:42:12.476Z</time></trkpt><trkpt lat="43.9186477" lon="12.3404161"><ele>331.0</ele><time>2026-04-29T11:42:13.476Z</time></trkpt><trkpt lat="43.918568" lon="12.3404554"><ele>331.0</ele><time>2026-04-29T11:42:14.476Z</time></trkpt><trkpt lat="43.9184886" lon="12.3404991"><ele>331.0</ele><time>2026-04-29T11:42:15.477Z</time></trkpt><trkpt lat="43.9184055" lon="12.3405539"><ele>331.66666666666663</ele><time>2026-04-29T11:42:16.476Z</time></trkpt><trkpt lat="43.9183296" lon="12.3406068"><ele>332.3333333333333</ele><time>2026-04-29T11:42:17.476Z</time></trkpt><trkpt lat="43.9182617" lon="12.3406655"><ele>333.0</ele><time>2026-04-29T11:42:18.476Z</time></trkpt><trkpt lat="43.918196" lon="12.3407338"><ele>333.6666666666667</ele><time>2026-04-29T11:42:19.476Z</time></trkpt><trkpt lat="43.9181273" lon="12.3408125"><ele>334.33333333333337</ele><time>2026-04-29T11:42:20.476Z</time></trkpt><trkpt lat="43.9180542" lon="12.3408998"><ele>335.0</ele><time>2026-04-29T11:42:21.476Z</time></trkpt><trkpt lat="43.9179845" lon="12.3409882"><ele>335.0</ele><time>2026-04-29T11:42:22.476Z</time></trkpt><trkpt lat="43.9179172" lon="12.3410857"><ele>335.0</ele><time>2026-04-29T11:42:23.477Z</time></trkpt><trkpt lat="43.9178507" lon="12.341191"><ele>335.0</ele><time>2026-04-29T11:42:24.476Z</time></trkpt><trkpt lat="43.9177821" lon="12.341288"><ele>335.0</ele><time>2026-04-29T11:42:25.476Z</time></trkpt><trkpt lat="43.9177077" lon="12.3413774"><ele>335.0</ele><time>2026-04-29T11:42:26.476Z</time></trkpt><trkpt lat="43.9176343" lon="12.3414644"><ele>338.2</ele><time>2026-04-29T11:42:27.476Z</time></trkpt><trkpt lat="43.917562" lon="12.3415498"><ele>341.4</ele><time>2026-04-29T11:42:28.476Z</time></trkpt><trkpt lat="43.9174876" lon="12.3416467"><ele>344.6</ele><time>2026-04-29T11:42:29.476Z</time></trkpt><trkpt lat="43.9174144" lon="12.3417534"><ele>347.8</ele><time>2026-04-29T11:42:30.476Z</time></trkpt><trkpt lat="43.9173321" lon="12.3418671"><ele>351.0</ele><time>2026-04-29T11:42:31.476Z</time></trkpt><trkpt lat="43.9172414" lon="12.3419832"><ele>351.0</ele><time>2026-04-29T11:42:32.476Z</time></trkpt><trkpt lat="43.9171425" lon="12.342096"><ele>351.0</ele><time>2026-04-29T11:42:33.476Z</time></trkpt><trkpt lat="43.9170372" lon="12.3422075"><ele>351.0</ele><time>2026-04-29T11:42:34.476Z</time></trkpt><trkpt lat="43.9169358" lon="12.3423097"><ele>351.0</ele><time>2026-04-29T11:42:35.477Z</time></trkpt><trkpt lat="43.9168377" lon="12.3424078"><ele>351.0</ele><time>2026-04-29T11:42:36.476Z</time></trkpt><trkpt lat="43.9167427" lon="12.3425108"><ele>351.0</ele><time>2026-04-29T11:42:37.476Z</time></trkpt><trkpt lat="43.916651" lon="12.3426113"><ele>351.0</ele><time>2026-04-29T11:42:38.476Z</time></trkpt><trkpt lat="43.9165606" lon="12.3427095"><ele>351.0</ele><time>2026-04-29T11:42:39.476Z</time></trkpt><trkpt lat="43.9164732" lon="12.3428055"><ele>351.6</ele><time>2026-04-29T11:42:40.476Z</time></trkpt><trkpt lat="43.916386" lon="12.342899"><ele>352.20000000000005</ele><time>2026-04-29T11:42:41.476Z</time></trkpt><trkpt lat="43.9163" lon="12.3429958"><ele>352.79999999999995</ele><time>2026-04-29T11:42:42.476Z</time></trkpt><trkpt lat="43.9162152" lon="12.3430976"><ele>353.4</ele><time>2026-04-29T11:42:43.476Z</time></trkpt><trkpt lat="43.9161322" lon="12.3432078"><ele>354.0</ele><time>2026-04-29T11:42:44.476Z</time></trkpt><trkpt lat="43.9160512" lon="12.3433244"><ele>354.0</ele><time>2026-04-29T11:42:45.476Z</time></trkpt><trkpt lat="43.9159701" lon="12.3434433"><ele>354.0</ele><time>2026-04-29T11:42:46.476Z</time></trkpt><trkpt lat="43.9158904" lon="12.3435622"><ele>354.0</ele><time>2026-04-29T11:42:47.476Z</time></trkpt><trkpt lat="43.9158129" lon="12.3436887"><ele>354.0</ele><time>2026-04-29T11:42:48.476Z</time></trkpt><trkpt lat="43.9157392" lon="12.3438154"><ele>355.79999999999995</ele><time>2026-04-29T11:42:49.476Z</time></trkpt><trkpt lat="43.9156743" lon="12.3439298"><ele>357.59999999999997</ele><time>2026-04-29T11:42:50.476Z</time></trkpt><trkpt lat="43.9156117" lon="12.3440429"><ele>359.4</ele><time>2026-04-29T11:42:51.476Z</time></trkpt><trkpt lat="43.9155482" lon="12.3441643"><ele>361.2</ele><time>2026-04-29T11:42:52.476Z</time></trkpt><trkpt lat="43.9154837" lon="12.3442986"><ele>363.0</ele><time>2026-04-29T11:42:53.476Z</time></trkpt><trkpt lat="43.9154114" lon="12.3444314"><ele>363.0</ele><time>2026-04-29T11:42:54.476Z</time></trkpt><trkpt lat="43.9153274" lon="12.3445575"><ele>363.0</ele><time>2026-04-29T11:42:55.476Z</time></trkpt><trkpt lat="43.9152358" lon="12.3446776"><ele>363.0</ele><time>2026-04-29T11:42:56.476Z</time></trkpt><trkpt lat="43.9151435" lon="12.3448002"><ele>363.0</ele><time>2026-04-29T11:42:57.476Z</time></trkpt><trkpt lat="43.9150529" lon="12.3449239"><ele>363.79999999999995</ele><time>2026-04-29T11:42:58.476Z</time></trkpt><trkpt lat="43.9149692" lon="12.3450424"><ele>364.6</ele><time>2026-04-29T11:42:59.476Z</time></trkpt><trkpt lat="43.9148944" lon="12.3451506"><ele>365.4</ele><time>2026-04-29T11:43:00.476Z</time></trkpt><trkpt lat="43.9148323" lon="12.3452584"><ele>366.20000000000005</ele><time>2026-04-29T11:43:01.476Z</time></trkpt><trkpt lat="43.9147724" lon="12.3453728"><ele>367.0</ele><time>2026-04-29T11:43:02.476Z</time></trkpt><trkpt lat="43.9147184" lon="12.3454911"><ele>367.0</ele><time>2026-04-29T11:43:03.477Z</time></trkpt><trkpt lat="43.9146747" lon="12.3456012"><ele>367.0</ele><time>2026-04-29T11:43:04.476Z</time></trkpt><trkpt lat="43.9146238" lon="12.3456944"><ele>367.0</ele><time>2026-04-29T11:43:05.476Z</time></trkpt><trkpt lat="43.9145708" lon="12.3457804"><ele>367.0</ele><time>2026-04-29T11:43:06.476Z</time></trkpt><trkpt lat="43.9145157" lon="12.3458464"><ele>367.0</ele><time>2026-04-29T11:43:07.476Z</time></trkpt><trkpt lat="43.9144633" lon="12.3459018"><ele>367.0</ele><time>2026-04-29T11:43:08.476Z</time></trkpt><trkpt lat="43.9144067" lon="12.3459598"><ele>367.0</ele><time>2026-04-29T11:43:09.477Z</time></trkpt><trkpt lat="43.9143422" lon="12.3460205"><ele>367.0</ele><time>2026-04-29T11:43:10.476Z</time></trkpt><trkpt lat="43.9142717" lon="12.3460791"><ele>367.0</ele><time>2026-04-29T11:43:11.476Z</time></trkpt><trkpt lat="43.9142062" lon="12.3461331"><ele>367.0</ele><time>2026-04-29T11:43:12.476Z</time></trkpt><trkpt lat="43.9141446" lon="12.3461762"><ele>367.0</ele><time>2026-04-29T11:43:13.476Z</time></trkpt><trkpt lat="43.9140513" lon="12.3462353"><ele>367.0</ele><time>2026-04-29T11:43:15.476Z</time></trkpt><trkpt lat="43.9139771" lon="12.3462769"><ele>368.66666666666663</ele><time>2026-04-29T11:43:17.476Z</time></trkpt><trkpt lat="43.9139123" lon="12.3463084"><ele>370.3333333333333</ele><time>2026-04-29T11:43:19.476Z</time></trkpt><trkpt lat="43.9138448" lon="12.3463362"><ele>372.0</ele><time>2026-04-29T11:43:21.476Z</time></trkpt><trkpt lat="43.9137624" lon="12.3463472"><ele>373.6666666666667</ele><time>2026-04-29T11:43:23.476Z</time></trkpt><trkpt lat="43.9136845" lon="12.3463457"><ele>375.33333333333337</ele><time>2026-04-29T11:43:25.476Z</time></trkpt><trkpt lat="43.913612" lon="12.346329"><ele>377.0</ele><time>2026-04-29T11:43:27.476Z</time></trkpt><trkpt lat="43.9135354" lon="12.3462952"><ele>377.0</ele><time>2026-04-29T11:43:29.477Z</time></trkpt><trkpt lat="43.9134496" lon="12.3462611"><ele>377.0</ele><time>2026-04-29T11:43:31.476Z</time></trkpt><trkpt lat="43.9133295" lon="12.3462816"><ele>377.0</ele><time>2026-04-29T11:43:33.476Z</time></trkpt><trkpt lat="43.9132709" lon="12.3463218"><ele>377.0</ele><time>2026-04-29T11:43:34.476Z</time></trkpt><trkpt lat="43.913213" lon="12.346367"><ele>377.0</ele><time>2026-04-29T11:43:35.476Z</time></trkpt><trkpt lat="43.9131512" lon="12.346434"><ele>377.0</ele><time>2026-04-29T11:43:36.476Z</time></trkpt><trkpt lat="43.9130697" lon="12.3465349"><ele>380.40000000000003</ele><time>2026-04-29T11:43:37.476Z</time></trkpt><trkpt lat="43.9129843" lon="12.346639"><ele>383.8</ele><time>2026-04-29T11:43:38.476Z</time></trkpt><trkpt lat="43.9129043" lon="12.3467329"><ele>387.2</ele><time>2026-04-29T11:43:39.476Z</time></trkpt><trkpt lat="43.9128345" lon="12.3468176"><ele>390.6</ele><time>2026-04-29T11:43:40.476Z</time></trkpt><trkpt lat="43.9127503" lon="12.3468914"><ele>394.0</ele><time>2026-04-29T11:43:42.476Z</time></trkpt><trkpt lat="43.9126912" lon="12.3468394"><ele>394.00000000000006</ele><time>2026-04-29T11:43:44.476Z</time></trkpt><trkpt lat="43.9126772" lon="12.3466905"><ele>394.0</ele><time>2026-04-29T11:43:46.476Z</time></trkpt><trkpt lat="43.9126934" lon="12.3466014"><ele>394.0</ele><time>2026-04-29T11:43:47.476Z</time></trkpt><trkpt lat="43.9126847" lon="12.346472"><ele>394.0</ele><time>2026-04-29T11:43:49.476Z</time></trkpt><trkpt lat="43.9125898" lon="12.3464267"><ele>394.00000000000006</ele><time>2026-04-29T11:43:51.476Z</time></trkpt><trkpt lat="43.9125138" lon="12.3464269"><ele>394.0</ele><time>2026-04-29T11:43:52.476Z</time></trkpt><trkpt lat="43.9124269" lon="12.3464463"><ele>397.6</ele><time>2026-04-29T11:43:53.476Z</time></trkpt><trkpt lat="43.9123395" lon="12.3464772"><ele>401.2</ele><time>2026-04-29T11:43:54.476Z</time></trkpt><trkpt lat="43.9122566" lon="12.3465201"><ele>404.8</ele><time>2026-04-29T11:43:55.476Z</time></trkpt><trkpt lat="43.9121969" lon="12.3465733"><ele>408.40000000000003</ele><time>2026-04-29T11:43:56.476Z</time></trkpt><trkpt lat="43.9121274" lon="12.3467203"><ele>412.0</ele><time>2026-04-29T11:43:58.476Z</time></trkpt><trkpt lat="43.9121059" lon="12.3468315"><ele>412.0</ele><time>2026-04-29T11:43:59.476Z</time></trkpt><trkpt lat="43.9120882" lon="12.3469553"><ele>412.0</ele><time>2026-04-29T11:44:00.476Z</time></trkpt><trkpt lat="43.9120618" lon="12.3470752"><ele>412.0</ele><time>2026-04-29T11:44:01.476Z</time></trkpt><trkpt lat="43.9120215" lon="12.347186"><ele>412.0</ele><time>2026-04-29T11:44:02.477Z</time></trkpt><trkpt lat="43.9119694" lon="12.347291"><ele>412.0</ele><time>2026-04-29T11:44:03.476Z</time></trkpt><trkpt lat="43.9119108" lon="12.3473993"><ele>412.40000000000003</ele><time>2026-04-29T11:44:04.476Z</time></trkpt><trkpt lat="43.911858" lon="12.3475188"><ele>412.8</ele><time>2026-04-29T11:44:05.476Z</time></trkpt><trkpt lat="43.9117991" lon="12.3476482"><ele>413.2</ele><time>2026-04-29T11:44:06.477Z</time></trkpt><trkpt lat="43.911733" lon="12.3477761"><ele>413.6</ele><time>2026-04-29T11:44:07.476Z</time></trkpt><trkpt lat="43.91167" lon="12.3478927"><ele>414.0</ele><time>2026-04-29T11:44:08.476Z</time></trkpt><trkpt lat="43.9116035" lon="12.3479917"><ele>416.6666666666667</ele><time>2026-04-29T11:44:09.477Z</time></trkpt><trkpt lat="43.9115346" lon="12.3480607"><ele>419.33333333333337</ele><time>2026-04-29T11:44:10.477Z</time></trkpt><trkpt lat="43.9114632" lon="12.3480932"><ele>422.0</ele><time>2026-04-29T11:44:11.476Z</time></trkpt><trkpt lat="43.9113776" lon="12.348112"><ele>424.6666666666667</ele><time>2026-04-29T11:44:12.476Z</time></trkpt><trkpt lat="43.9112806" lon="12.348118"><ele>427.33333333333337</ele><time>2026-04-29T11:44:13.476Z</time></trkpt><trkpt lat="43.9112013" lon="12.3481166"><ele>430.0</ele><time>2026-04-29T11:44:14.476Z</time></trkpt><trkpt lat="43.9111317" lon="12.3481407"><ele>430.0</ele><time>2026-04-29T11:44:15.476Z</time></trkpt><trkpt lat="43.9110612" lon="12.3482145"><ele>430.0</ele><time>2026-04-29T11:44:16.476Z</time></trkpt><trkpt lat="43.9109873" lon="12.3483013"><ele>430.0</ele><time>2026-04-29T11:44:17.476Z</time></trkpt><trkpt lat="43.9109174" lon="12.3483936"><ele>430.0</ele><time>2026-04-29T11:44:18.476Z</time></trkpt><trkpt lat="43.910847" lon="12.3484944"><ele>430.0</ele><time>2026-04-29T11:44:19.476Z</time></trkpt><trkpt lat="43.9107741" lon="12.3486032"><ele>432.4</ele><time>2026-04-29T11:44:20.476Z</time></trkpt><trkpt lat="43.9106974" lon="12.3487112"><ele>434.8</ele><time>2026-04-29T11:44:21.476Z</time></trkpt><trkpt lat="43.9106145" lon="12.348818"><ele>437.20000000000005</ele><time>2026-04-29T11:44:22.476Z</time></trkpt><trkpt lat="43.9105252" lon="12.3489192"><ele>439.6</ele><time>2026-04-29T11:44:23.476Z</time></trkpt><trkpt lat="43.910446" lon="12.3490016"><ele>442.0</ele><time>2026-04-29T11:44:24.477Z</time></trkpt><trkpt lat="43.9103756" lon="12.349065"><ele>442.0</ele><time>2026-04-29T11:44:25.476Z</time></trkpt><trkpt lat="43.91031" lon="12.349154"><ele>442.00000000000006</ele><time>2026-04-29T11:44:26.477Z</time></trkpt><trkpt lat="43.9102378" lon="12.3492458"><ele>442.00000000000006</ele><time>2026-04-29T11:44:27.476Z</time></trkpt><trkpt lat="43.9101581" lon="12.3493397"><ele>442.0</ele><time>2026-04-29T11:44:28.476Z</time></trkpt><trkpt lat="43.9100647" lon="12.3494057"><ele>442.0</ele><time>2026-04-29T11:44:29.476Z</time></trkpt><trkpt lat="43.909973" lon="12.3494423"><ele>443.6</ele><time>2026-04-29T11:44:30.476Z</time></trkpt><trkpt lat="43.9098833" lon="12.3494559"><ele>445.20000000000005</ele><time>2026-04-29T11:44:31.476Z</time></trkpt><trkpt lat="43.909786" lon="12.3494575"><ele>446.8</ele><time>2026-04-29T11:44:32.476Z</time></trkpt><trkpt lat="43.9096843" lon="12.3494319"><ele>448.4</ele><time>2026-04-29T11:44:33.476Z</time></trkpt><trkpt lat="43.9095849" lon="12.3493907"><ele>450.0</ele><time>2026-04-29T11:44:34.476Z</time></trkpt><trkpt lat="43.909485" lon="12.3493561"><ele>450.0</ele><time>2026-04-29T11:44:35.477Z</time></trkpt><trkpt lat="43.9093903" lon="12.3493247"><ele>450.0</ele><time>2026-04-29T11:44:36.476Z</time></trkpt><trkpt lat="43.9092925" lon="12.3493154"><ele>450.0</ele><time>2026-04-29T11:44:37.476Z</time></trkpt><trkpt lat="43.9091796" lon="12.3493288"><ele>450.0</ele><time>2026-04-29T11:44:38.476Z</time></trkpt><trkpt lat="43.9090573" lon="12.3493501"><ele>450.0</ele><time>2026-04-29T11:44:39.476Z</time></trkpt><trkpt lat="43.9089348" lon="12.3493721"><ele>451.25</ele><time>2026-04-29T11:44:40.476Z</time></trkpt><trkpt lat="43.9088215" lon="12.3493925"><ele>452.5</ele><time>2026-04-29T11:44:41.476Z</time></trkpt><trkpt lat="43.9087081" lon="12.3493969"><ele>453.75</ele><time>2026-04-29T11:44:42.476Z</time></trkpt><trkpt lat="43.9085983" lon="12.3493909"><ele>455.0</ele><time>2026-04-29T11:44:43.476Z</time></trkpt><trkpt lat="43.9084838" lon="12.3493792"><ele>456.8</ele><time>2026-04-29T11:44:44.476Z</time></trkpt><trkpt lat="43.9083715" lon="12.3493671"><ele>458.6</ele><time>2026-04-29T11:44:45.476Z</time></trkpt><trkpt lat="43.9082626" lon="12.3493468"><ele>460.4</ele><time>2026-04-29T11:44:46.476Z</time></trkpt><trkpt lat="43.9081572" lon="12.3493169"><ele>462.2</ele><time>2026-04-29T11:44:47.476Z</time></trkpt><trkpt lat="43.9080555" lon="12.3492598"><ele>464.0</ele><time>2026-04-29T11:44:48.476Z</time></trkpt><trkpt lat="43.9079568" lon="12.349175"><ele>464.0</ele><time>2026-04-29T11:44:49.477Z</time></trkpt><trkpt lat="43.9078539" lon="12.3490778"><ele>464.0</ele><time>2026-04-29T11:44:50.476Z</time></trkpt><trkpt lat="43.9077508" lon="12.3489884"><ele>464.0</ele><time>2026-04-29T11:44:51.476Z</time></trkpt><trkpt lat="43.9076549" lon="12.3488877"><ele>464.0</ele><time>2026-04-29T11:44:52.476Z</time></trkpt><trkpt lat="43.9075618" lon="12.3487638"><ele>464.0</ele><time>2026-04-29T11:44:53.476Z</time></trkpt><trkpt lat="43.907474" lon="12.3486259"><ele>464.0</ele><time>2026-04-29T11:44:54.476Z</time></trkpt><trkpt lat="43.90739" lon="12.3484897"><ele>464.0</ele><time>2026-04-29T11:44:55.476Z</time></trkpt><trkpt lat="43.9073245" lon="12.3483705"><ele>464.0</ele><time>2026-04-29T11:44:56.477Z</time></trkpt><trkpt lat="43.9072587" lon="12.3482688"><ele>464.0</ele><time>2026-04-29T11:44:57.476Z</time></trkpt><trkpt lat="43.9071865" lon="12.3481917"><ele>464.0</ele><time>2026-04-29T11:44:58.476Z</time></trkpt><trkpt lat="43.9071077" lon="12.3481259"><ele>464.0</ele><time>2026-04-29T11:44:59.476Z</time></trkpt><trkpt lat="43.907018" lon="12.3480808"><ele>464.0</ele><time>2026-04-29T11:45:00.476Z</time></trkpt><trkpt lat="43.9069071" lon="12.3480667"><ele>464.0</ele><time>2026-04-29T11:45:01.476Z</time></trkpt><trkpt lat="43.9067827" lon="12.3480587"><ele>463.75</ele><time>2026-04-29T11:45:02.476Z</time></trkpt><trkpt lat="43.9066527" lon="12.3480449"><ele>463.5</ele><time>2026-04-29T11:45:03.476Z</time></trkpt><trkpt lat="43.906522" lon="12.3480279"><ele>463.25</ele><time>2026-04-29T11:45:04.476Z</time></trkpt><trkpt lat="43.9064047" lon="12.3480034"><ele>463.0</ele><time>2026-04-29T11:45:05.476Z</time></trkpt><trkpt lat="43.9062955" lon="12.347974"><ele>463.0</ele><time>2026-04-29T11:45:06.476Z</time></trkpt><trkpt lat="43.9061837" lon="12.3479346"><ele>463.0</ele><time>2026-04-29T11:45:07.476Z</time></trkpt><trkpt lat="43.9060716" lon="12.3478626"><ele>463.0</ele><time>2026-04-29T11:45:08.476Z</time></trkpt><trkpt lat="43.9059721" lon="12.3477471"><ele>463.0</ele><time>2026-04-29T11:45:09.476Z</time></trkpt><trkpt lat="43.9058768" lon="12.347617"><ele>463.5</ele><time>2026-04-29T11:45:10.476Z</time></trkpt><trkpt lat="43.9057941" lon="12.3474763"><ele>464.0</ele><time>2026-04-29T11:45:11.476Z</time></trkpt><trkpt lat="43.9057099" lon="12.3473465"><ele>464.5</ele><time>2026-04-29T11:45:12.476Z</time></trkpt><trkpt lat="43.9056223" lon="12.3472298"><ele>465.0</ele><time>2026-04-29T11:45:13.476Z</time></trkpt><trkpt lat="43.9055238" lon="12.3471339"><ele>465.0</ele><time>2026-04-29T11:45:14.476Z</time></trkpt><trkpt lat="43.9054086" lon="12.347052"><ele>465.0</ele><time>2026-04-29T11:45:15.476Z</time></trkpt><trkpt lat="43.905275" lon="12.3469652"><ele>465.0</ele><time>2026-04-29T11:45:16.476Z</time></trkpt><trkpt lat="43.9051424" lon="12.3468682"><ele>465.0</ele><time>2026-04-29T11:45:17.476Z</time></trkpt><trkpt lat="43.9050279" lon="12.3467722"><ele>468.6</ele><time>2026-04-29T11:45:18.476Z</time></trkpt><trkpt lat="43.9049357" lon="12.346691"><ele>472.2</ele><time>2026-04-29T11:45:19.476Z</time></trkpt><trkpt lat="43.9048534" lon="12.3466331"><ele>475.79999999999995</ele><time>2026-04-29T11:45:20.476Z</time></trkpt><trkpt lat="43.9047702" lon="12.3465884"><ele>479.4</ele><time>2026-04-29T11:45:21.476Z</time></trkpt><trkpt lat="43.9046774" lon="12.3465602"><ele>483.0</ele><time>2026-04-29T11:45:22.476Z</time></trkpt><trkpt lat="43.9045863" lon="12.3465647"><ele>483.0</ele><time>2026-04-29T11:45:23.476Z</time></trkpt><trkpt lat="43.9044844" lon="12.3466207"><ele>483.0</ele><time>2026-04-29T11:45:24.476Z</time></trkpt><trkpt lat="43.9043851" lon="12.3467076"><ele>483.0</ele><time>2026-04-29T11:45:25.477Z</time></trkpt><trkpt lat="43.9042926" lon="12.3468432"><ele>483.0</ele><time>2026-04-29T11:45:26.476Z</time></trkpt><trkpt lat="43.9042045" lon="12.3469967"><ele>488.0</ele><time>2026-04-29T11:45:27.476Z</time></trkpt><trkpt lat="43.9041191" lon="12.34717"><ele>493.0</ele><time>2026-04-29T11:45:28.477Z</time></trkpt><trkpt lat="43.9040282" lon="12.3473588"><ele>498.0</ele><time>2026-04-29T11:45:29.476Z</time></trkpt><trkpt lat="43.9039469" lon="12.3475275"><ele>498.79999999999995</ele><time>2026-04-29T11:45:30.476Z</time></trkpt><trkpt lat="43.9038757" lon="12.3476667"><ele>499.59999999999997</ele><time>2026-04-29T11:45:31.476Z</time></trkpt><trkpt lat="43.9037977" lon="12.3477862"><ele>500.40000000000003</ele><time>2026-04-29T11:45:32.476Z</time></trkpt><trkpt lat="43.9037241" lon="12.3478613"><ele>501.20000000000005</ele><time>2026-04-29T11:45:33.476Z</time></trkpt><trkpt lat="43.9036565" lon="12.3479031"><ele>502.0</ele><time>2026-04-29T11:45:34.476Z</time></trkpt><trkpt lat="43.9035666" lon="12.3479031"><ele>503.20000000000005</ele><time>2026-04-29T11:45:36.477Z</time></trkpt><trkpt lat="43.9035202" lon="12.3480571"><ele>504.40000000000003</ele><time>2026-04-29T11:45:39.476Z</time></trkpt><trkpt lat="43.9035316" lon="12.3481953"><ele>505.59999999999997</ele><time>2026-04-29T11:45:40.476Z</time></trkpt><trkpt lat="43.9035536" lon="12.3483366"><ele>506.79999999999995</ele><time>2026-04-29T11:45:41.476Z</time></trkpt><trkpt lat="43.9035885" lon="12.3484749"><ele>508.0</ele><time>2026-04-29T11:45:42.477Z</time></trkpt><trkpt lat="43.9036295" lon="12.348614"><ele>508.0</ele><time>2026-04-29T11:45:43.476Z</time></trkpt><trkpt lat="43.9036646" lon="12.3487569"><ele>507.99999999999994</ele><time>2026-04-29T11:45:44.476Z</time></trkpt><trkpt lat="43.9036958" lon="12.348894"><ele>507.99999999999994</ele><time>2026-04-29T11:45:45.476Z</time></trkpt><trkpt lat="43.9037202" lon="12.3490207"><ele>508.0</ele><time>2026-04-29T11:45:46.476Z</time></trkpt><trkpt lat="43.9037615" lon="12.3491311"><ele>508.0</ele><time>2026-04-29T11:45:47.476Z</time></trkpt><trkpt lat="43.9038185" lon="12.3492301"><ele>510.4</ele><time>2026-04-29T11:45:48.476Z</time></trkpt><trkpt lat="43.903882" lon="12.3493226"><ele>512.8</ele><time>2026-04-29T11:45:49.476Z</time></trkpt><trkpt lat="43.9039446" lon="12.3494117"><ele>515.2</ele><time>2026-04-29T11:45:50.476Z</time></trkpt><trkpt lat="43.9040052" lon="12.3495103"><ele>517.6</ele><time>2026-04-29T11:45:51.476Z</time></trkpt><trkpt lat="43.9040497" lon="12.3496201"><ele>520.0</ele><time>2026-04-29T11:45:52.477Z</time></trkpt><trkpt lat="43.9040883" lon="12.3497463"><ele>521.0</ele><time>2026-04-29T11:45:53.476Z</time></trkpt><trkpt lat="43.9041273" lon="12.3498706"><ele>522.0</ele><time>2026-04-29T11:45:54.476Z</time></trkpt><trkpt lat="43.9041735" lon="12.3499833"><ele>523.0</ele><time>2026-04-29T11:45:55.476Z</time></trkpt><trkpt lat="43.9042273" lon="12.3500931"><ele>524.0</ele><time>2026-04-29T11:45:56.476Z</time></trkpt><trkpt lat="43.9042949" lon="12.3501967"><ele>525.0</ele><time>2026-04-29T11:45:57.476Z</time></trkpt><trkpt lat="43.9043663" lon="12.3502887"><ele>525.0</ele><time>2026-04-29T11:45:58.476Z</time></trkpt><trkpt lat="43.9044532" lon="12.3503619"><ele>525.0</ele><time>2026-04-29T11:45:59.476Z</time></trkpt><trkpt lat="43.9045789" lon="12.350415"><ele>525.0</ele><time>2026-04-29T11:46:00.476Z</time></trkpt><trkpt lat="43.9046965" lon="12.3504648"><ele>525.0</ele><time>2026-04-29T11:46:01.476Z</time></trkpt><trkpt lat="43.9048209" lon="12.3505105"><ele>523.8</ele><time>2026-04-29T11:46:02.476Z</time></trkpt><trkpt lat="43.9049433" lon="12.3505478"><ele>522.6</ele><time>2026-04-29T11:46:03.477Z</time></trkpt><trkpt lat="43.9050591" lon="12.3505821"><ele>521.4</ele><time>2026-04-29T11:46:04.477Z</time></trkpt><trkpt lat="43.9051578" lon="12.3506056"><ele>520.2</ele><time>2026-04-29T11:46:05.476Z</time></trkpt><trkpt lat="43.90524" lon="12.3506311"><ele>519.0</ele><time>2026-04-29T11:46:06.477Z</time></trkpt><trkpt lat="43.9053086" lon="12.3506628"><ele>519.0</ele><time>2026-04-29T11:46:07.476Z</time></trkpt><trkpt lat="43.9053697" lon="12.3507223"><ele>519.0</ele><time>2026-04-29T11:46:08.476Z</time></trkpt><trkpt lat="43.905434" lon="12.3508192"><ele>519.0</ele><time>2026-04-29T11:46:09.476Z</time></trkpt><trkpt lat="43.9054993" lon="12.3509314"><ele>519.0</ele><time>2026-04-29T11:46:10.476Z</time></trkpt><trkpt lat="43.9055627" lon="12.3510491"><ele>519.0</ele><time>2026-04-29T11:46:11.476Z</time></trkpt><trkpt lat="43.9056225" lon="12.3511677"><ele>519.0</ele><time>2026-04-29T11:46:12.476Z</time></trkpt><trkpt lat="43.9056783" lon="12.351304"><ele>519.0</ele><time>2026-04-29T11:46:13.476Z</time></trkpt><trkpt lat="43.9057316" lon="12.3514533"><ele>519.0</ele><time>2026-04-29T11:46:14.476Z</time></trkpt><trkpt lat="43.9057779" lon="12.3515924"><ele>519.0</ele><time>2026-04-29T11:46:15.476Z</time></trkpt><trkpt lat="43.9058116" lon="12.3517233"><ele>519.0</ele><time>2026-04-29T11:46:16.476Z</time></trkpt><trkpt lat="43.9058506" lon="12.3518388"><ele>519.0</ele><time>2026-04-29T11:46:17.476Z</time></trkpt><trkpt lat="43.9059023" lon="12.3519557"><ele>519.0</ele><time>2026-04-29T11:46:18.476Z</time></trkpt><trkpt lat="43.9059618" lon="12.3520694"><ele>519.0</ele><time>2026-04-29T11:46:19.477Z</time></trkpt><trkpt lat="43.9060269" lon="12.3521841"><ele>519.0</ele><time>2026-04-29T11:46:20.476Z</time></trkpt><trkpt lat="43.9060956" lon="12.3522961"><ele>519.0</ele><time>2026-04-29T11:46:21.476Z</time></trkpt><trkpt lat="43.9061644" lon="12.352409"><ele>519.0</ele><time>2026-04-29T11:46:22.476Z</time></trkpt><trkpt lat="43.9062304" lon="12.3525238"><ele>519.0</ele><time>2026-04-29T11:46:23.476Z</time></trkpt><trkpt lat="43.9063078" lon="12.3526267"><ele>519.0</ele><time>2026-04-29T11:46:24.476Z</time></trkpt><trkpt lat="43.9063845" lon="12.3527145"><ele>519.0</ele><time>2026-04-29T11:46:25.476Z</time></trkpt><trkpt lat="43.9064524" lon="12.3527833"><ele>519.0</ele><time>2026-04-29T11:46:26.476Z</time></trkpt><trkpt lat="43.9065152" lon="12.352841"><ele>519.0</ele><time>2026-04-29T11:46:27.476Z</time></trkpt><trkpt lat="43.9066092" lon="12.3528942"><ele>519.0</ele><time>2026-04-29T11:46:29.476Z</time></trkpt><trkpt lat="43.906682" lon="12.3528855"><ele>519.0</ele><time>2026-04-29T11:46:30.476Z</time></trkpt><trkpt lat="43.9067559" lon="12.3528877"><ele>519.0</ele><time>2026-04-29T11:46:31.476Z</time></trkpt><trkpt lat="43.9068712" lon="12.3529285"><ele>519.0</ele><time>2026-04-29T11:46:33.476Z</time></trkpt><trkpt lat="43.9070007" lon="12.352953"><ele>517.2</ele><time>2026-04-29T11:46:35.476Z</time></trkpt><trkpt lat="43.9070878" lon="12.35294"><ele>515.4</ele><time>2026-04-29T11:46:36.476Z</time></trkpt><trkpt lat="43.9071847" lon="12.352925"><ele>513.6</ele><time>2026-04-29T11:46:37.476Z</time></trkpt><trkpt lat="43.9072896" lon="12.3529181"><ele>511.8</ele><time>2026-04-29T11:46:38.476Z</time></trkpt><trkpt lat="43.9073999" lon="12.352918"><ele>510.0</ele><time>2026-04-29T11:46:39.476Z</time></trkpt><trkpt lat="43.9075152" lon="12.3529165"><ele>507.6</ele><time>2026-04-29T11:46:40.476Z</time></trkpt><trkpt lat="43.9076296" lon="12.3529072"><ele>505.2</ele><time>2026-04-29T11:46:41.476Z</time></trkpt><trkpt lat="43.9077436" lon="12.3528927"><ele>502.79999999999995</ele><time>2026-04-29T11:46:42.476Z</time></trkpt><trkpt lat="43.9078467" lon="12.3528811"><ele>500.4</ele><time>2026-04-29T11:46:43.476Z</time></trkpt><trkpt lat="43.9079368" lon="12.3528652"><ele>498.0</ele><time>2026-04-29T11:46:44.476Z</time></trkpt><trkpt lat="43.9080191" lon="12.3528473"><ele>498.0</ele><time>2026-04-29T11:46:45.476Z</time></trkpt><trkpt lat="43.9080851" lon="12.3528249"><ele>498.0</ele><time>2026-04-29T11:46:46.476Z</time></trkpt><trkpt lat="43.9081813" lon="12.3528042"><ele>498.0</ele><time>2026-04-29T11:46:48.476Z</time></trkpt><trkpt lat="43.9082579" lon="12.3528042"><ele>498.0</ele><time>2026-04-29T11:46:50.476Z</time></trkpt><trkpt lat="43.908346" lon="12.3528094"><ele>498.0</ele><time>2026-04-29T11:46:52.476Z</time></trkpt><trkpt lat="43.9084425" lon="12.3528307"><ele>498.0</ele><time>2026-04-29T11:46:54.476Z</time></trkpt><trkpt lat="43.9085565" lon="12.3528772"><ele>496.0</ele><time>2026-04-29T11:46:56.476Z</time></trkpt><trkpt lat="43.9086205" lon="12.3529075"><ele>494.0</ele><time>2026-04-29T11:46:57.477Z</time></trkpt><trkpt lat="43.9086907" lon="12.3529294"><ele>492.0</ele><time>2026-04-29T11:46:58.476Z</time></trkpt><trkpt lat="43.9087659" lon="12.3529432"><ele>490.0</ele><time>2026-04-29T11:46:59.476Z</time></trkpt><trkpt lat="43.9088323" lon="12.3529549"><ele>488.0</ele><time>2026-04-29T11:47:00.476Z</time></trkpt><trkpt lat="43.90895" lon="12.3529839"><ele>486.0</ele><time>2026-04-29T11:47:02.476Z</time></trkpt><trkpt lat="43.909008" lon="12.3530198"><ele>487.6666666666667</ele><time>2026-04-29T11:47:03.476Z</time></trkpt><trkpt lat="43.9090701" lon="12.3530748"><ele>489.33333333333337</ele><time>2026-04-29T11:47:04.476Z</time></trkpt><trkpt lat="43.9091377" lon="12.3531403"><ele>491.0</ele><time>2026-04-29T11:47:05.476Z</time></trkpt><trkpt lat="43.9092018" lon="12.3532301"><ele>492.6666666666667</ele><time>2026-04-29T11:47:06.476Z</time></trkpt><trkpt lat="43.9092666" lon="12.3533294"><ele>494.33333333333337</ele><time>2026-04-29T11:47:07.476Z</time></trkpt><trkpt lat="43.9093325" lon="12.353431"><ele>496.0</ele><time>2026-04-29T11:47:08.476Z</time></trkpt><trkpt lat="43.9094067" lon="12.3535363"><ele>496.0</ele><time>2026-04-29T11:47:09.476Z</time></trkpt><trkpt lat="43.9094825" lon="12.3536493"><ele>496.0</ele><time>2026-04-29T11:47:10.476Z</time></trkpt><trkpt lat="43.9095669" lon="12.3537534"><ele>496.0</ele><time>2026-04-29T11:47:11.476Z</time></trkpt><trkpt lat="43.9096508" lon="12.3538577"><ele>496.0</ele><time>2026-04-29T11:47:12.476Z</time></trkpt><trkpt lat="43.909729" lon="12.3539412"><ele>496.0</ele><time>2026-04-29T11:47:13.476Z</time></trkpt><trkpt lat="43.9097941" lon="12.3540204"><ele>497.8571428571429</ele><time>2026-04-29T11:47:14.476Z</time></trkpt><trkpt lat="43.9098529" lon="12.3540883"><ele>499.7142857142858</ele><time>2026-04-29T11:47:15.476Z</time></trkpt><trkpt lat="43.9099061" lon="12.354151"><ele>501.57142857142856</ele><time>2026-04-29T11:47:16.476Z</time></trkpt><trkpt lat="43.9099534" lon="12.3542141"><ele>503.42857142857144</ele><time>2026-04-29T11:47:17.476Z</time></trkpt><trkpt lat="43.9100101" lon="12.3542634"><ele>505.2857142857143</ele><time>2026-04-29T11:47:18.476Z</time></trkpt><trkpt lat="43.9100706" lon="12.3543085"><ele>507.1428571428571</ele><time>2026-04-29T11:47:19.477Z</time></trkpt><trkpt lat="43.9101411" lon="12.354342"><ele>508.99999999999994</ele><time>2026-04-29T11:47:20.476Z</time></trkpt><trkpt lat="43.9102341" lon="12.3543529"><ele>509.0</ele><time>2026-04-29T11:47:21.476Z</time></trkpt><trkpt lat="43.9103308" lon="12.354361"><ele>509.0</ele><time>2026-04-29T11:47:22.476Z</time></trkpt><trkpt lat="43.9104328" lon="12.3543639"><ele>509.0</ele><time>2026-04-29T11:47:23.476Z</time></trkpt><trkpt lat="43.9105527" lon="12.3543533"><ele>509.0</ele><time>2026-04-29T11:47:24.476Z</time></trkpt><trkpt lat="43.910675" lon="12.3543415"><ele>509.0</ele><time>2026-04-29T11:47:25.476Z</time></trkpt><trkpt lat="43.9107819" lon="12.3543182"><ele>508.99999999999994</ele><time>2026-04-29T11:47:26.477Z</time></trkpt><trkpt lat="43.9108561" lon="12.3543047"><ele>509.0</ele><time>2026-04-29T11:47:27.477Z</time></trkpt><trkpt lat="43.9109568" lon="12.3543236"><ele>509.0</ele><time>2026-04-29T11:47:29.476Z</time></trkpt><trkpt lat="43.9110139" lon="12.3543679"><ele>509.0</ele><time>2026-04-29T11:47:30.476Z</time></trkpt><trkpt lat="43.9110713" lon="12.3544193"><ele>508.99999999999994</ele><time>2026-04-29T11:47:31.476Z</time></trkpt><trkpt lat="43.9111272" lon="12.354474"><ele>509.0</ele><time>2026-04-29T11:47:32.476Z</time></trkpt><trkpt lat="43.9111825" lon="12.3545584"><ele>507.99999999999994</ele><time>2026-04-29T11:47:33.477Z</time></trkpt><trkpt lat="43.9112335" lon="12.3546549"><ele>507.0</ele><time>2026-04-29T11:47:34.476Z</time></trkpt><trkpt lat="43.9112776" lon="12.3547599"><ele>506.0</ele><time>2026-04-29T11:47:35.477Z</time></trkpt><trkpt lat="43.9113168" lon="12.354855"><ele>505.0</ele><time>2026-04-29T11:47:36.476Z</time></trkpt><trkpt lat="43.9113513" lon="12.3549422"><ele>503.99999999999994</ele><time>2026-04-29T11:47:37.476Z</time></trkpt><trkpt lat="43.9113844" lon="12.3550168"><ele>503.0</ele><time>2026-04-29T11:47:38.476Z</time></trkpt><trkpt lat="43.9114249" lon="12.3550906"><ele>502.99999999999994</ele><time>2026-04-29T11:47:39.476Z</time></trkpt><trkpt lat="43.911473" lon="12.3551775"><ele>503.0</ele><time>2026-04-29T11:47:40.476Z</time></trkpt><trkpt lat="43.9115256" lon="12.3552642"><ele>503.0</ele><time>2026-04-29T11:47:41.476Z</time></trkpt><trkpt lat="43.9115703" lon="12.3553468"><ele>503.0</ele><time>2026-04-29T11:47:42.476Z</time></trkpt><trkpt lat="43.9116229" lon="12.3554459"><ele>502.99999999999994</ele><time>2026-04-29T11:47:43.476Z</time></trkpt><trkpt lat="43.9116673" lon="12.3555464"><ele>503.0</ele><time>2026-04-29T11:47:44.476Z</time></trkpt><trkpt lat="43.9117153" lon="12.3556439"><ele>503.66666666666663</ele><time>2026-04-29T11:47:45.476Z</time></trkpt><trkpt lat="43.9117598" lon="12.3557352"><ele>504.3333333333333</ele><time>2026-04-29T11:47:46.476Z</time></trkpt><trkpt lat="43.9118024" lon="12.355819"><ele>505.0</ele><time>2026-04-29T11:47:47.476Z</time></trkpt><trkpt lat="43.911846" lon="12.3558941"><ele>505.66666666666663</ele><time>2026-04-29T11:47:48.476Z</time></trkpt><trkpt lat="43.9119014" lon="12.3560468"><ele>506.3333333333333</ele><time>2026-04-29T11:47:50.476Z</time></trkpt><trkpt lat="43.9119241" lon="12.3561401"><ele>507.0</ele><time>2026-04-29T11:47:51.477Z</time></trkpt><trkpt lat="43.9119551" lon="12.3562321"><ele>507.0</ele><time>2026-04-29T11:47:52.477Z</time></trkpt><trkpt lat="43.9119964" lon="12.3563118"><ele>507.00000000000006</ele><time>2026-04-29T11:47:53.476Z</time></trkpt><trkpt lat="43.9120824" lon="12.3564231"><ele>507.00000000000006</ele><time>2026-04-29T11:47:55.477Z</time></trkpt><trkpt lat="43.9121459" lon="12.3565125"><ele>507.0</ele><time>2026-04-29T11:47:57.476Z</time></trkpt><trkpt lat="43.9122211" lon="12.3565597"><ele>507.0</ele><time>2026-04-29T11:48:00.476Z</time></trkpt><trkpt lat="43.9123156" lon="12.3564988"><ele>507.0</ele><time>2026-04-29T11:48:03.476Z</time></trkpt><trkpt lat="43.9123914" lon="12.3564314"><ele>507.0</ele><time>2026-04-29T11:48:05.476Z</time></trkpt><trkpt lat="43.9124608" lon="12.356389"><ele>507.0</ele><time>2026-04-29T11:48:07.476Z</time></trkpt><trkpt lat="43.9125217" lon="12.3563598"><ele>507.0</ele><time>2026-04-29T11:48:09.476Z</time></trkpt><trkpt lat="43.9126043" lon="12.3563281"><ele>507.0</ele><time>2026-04-29T11:48:11.476Z</time></trkpt><trkpt lat="43.912723" lon="12.3562697"><ele>507.0</ele><time>2026-04-29T11:48:13.477Z</time></trkpt><trkpt lat="43.9127922" lon="12.3562293"><ele>507.0</ele><time>2026-04-29T11:48:14.476Z</time></trkpt><trkpt lat="43.9128638" lon="12.3561811"><ele>507.0</ele><time>2026-04-29T11:48:15.476Z</time></trkpt><trkpt lat="43.9129395" lon="12.3561259"><ele>507.0</ele><time>2026-04-29T11:48:16.476Z</time></trkpt><trkpt lat="43.913019" lon="12.3560746"><ele>507.0</ele><time>2026-04-29T11:48:17.476Z</time></trkpt><trkpt lat="43.9130982" lon="12.3560267"><ele>507.0</ele><time>2026-04-29T11:48:18.476Z</time></trkpt><trkpt lat="43.913167" lon="12.355971"><ele>507.0</ele><time>2026-04-29T11:48:19.476Z</time></trkpt><trkpt lat="43.9132269" lon="12.3559241"><ele>507.0</ele><time>2026-04-29T11:48:20.476Z</time></trkpt><trkpt lat="43.9133192" lon="12.3558501"><ele>507.00000000000006</ele><time>2026-04-29T11:48:22.476Z</time></trkpt><trkpt lat="43.913427" lon="12.3558381"><ele>507.00000000000006</ele><time>2026-04-29T11:48:24.476Z</time></trkpt><trkpt lat="43.9135418" lon="12.3558727"><ele>507.0</ele><time>2026-04-29T11:48:26.476Z</time></trkpt><trkpt lat="43.9136073" lon="12.3559206"><ele>507.0</ele><time>2026-04-29T11:48:27.476Z</time></trkpt><trkpt lat="43.9136756" lon="12.3559764"><ele>501.40000000000003</ele><time>2026-04-29T11:48:28.476Z</time></trkpt><trkpt lat="43.9137471" lon="12.3560414"><ele>495.80000000000007</ele><time>2026-04-29T11:48:29.476Z</time></trkpt><trkpt lat="43.9138293" lon="12.356112"><ele>490.2</ele><time>2026-04-29T11:48:30.476Z</time></trkpt><trkpt lat="43.9139127" lon="12.3561854"><ele>484.6</ele><time>2026-04-29T11:48:31.476Z</time></trkpt><trkpt lat="43.9140019" lon="12.3562596"><ele>479.0</ele><time>2026-04-29T11:48:32.476Z</time></trkpt><trkpt lat="43.9140882" lon="12.3563305"><ele>479.2</ele><time>2026-04-29T11:48:33.476Z</time></trkpt><trkpt lat="43.9141788" lon="12.3564099"><ele>479.4</ele><time>2026-04-29T11:48:34.476Z</time></trkpt><trkpt lat="43.9142656" lon="12.3564876"><ele>479.6</ele><time>2026-04-29T11:48:35.476Z</time></trkpt><trkpt lat="43.9143477" lon="12.3565753"><ele>479.8</ele><time>2026-04-29T11:48:36.476Z</time></trkpt><trkpt lat="43.9144349" lon="12.3566654"><ele>480.0</ele><time>2026-04-29T11:48:37.476Z</time></trkpt><trkpt lat="43.9145153" lon="12.3567585"><ele>480.0</ele><time>2026-04-29T11:48:38.476Z</time></trkpt><trkpt lat="43.9145993" lon="12.3568431"><ele>480.0</ele><time>2026-04-29T11:48:39.476Z</time></trkpt><trkpt lat="43.9146919" lon="12.3569278"><ele>480.0</ele><time>2026-04-29T11:48:40.476Z</time></trkpt><trkpt lat="43.9147955" lon="12.3570134"><ele>480.0</ele><time>2026-04-29T11:48:41.476Z</time></trkpt><trkpt lat="43.9149005" lon="12.3570987"><ele>480.0</ele><time>2026-04-29T11:48:42.476Z</time></trkpt><trkpt lat="43.9149987" lon="12.3571783"><ele>480.0</ele><time>2026-04-29T11:48:43.477Z</time></trkpt><trkpt lat="43.9150891" lon="12.357252"><ele>480.0</ele><time>2026-04-29T11:48:44.476Z</time></trkpt><trkpt lat="43.9151735" lon="12.3573124"><ele>480.0</ele><time>2026-04-29T11:48:45.476Z</time></trkpt><trkpt lat="43.9152524" lon="12.3573626"><ele>480.0</ele><time>2026-04-29T11:48:46.476Z</time></trkpt><trkpt lat="43.9153298" lon="12.3574039"><ele>483.2</ele><time>2026-04-29T11:48:47.476Z</time></trkpt><trkpt lat="43.9154188" lon="12.3574192"><ele>486.4</ele><time>2026-04-29T11:48:48.476Z</time></trkpt><trkpt lat="43.915523" lon="12.3574197"><ele>489.6</ele><time>2026-04-29T11:48:49.476Z</time></trkpt><trkpt lat="43.9156378" lon="12.3574076"><ele>492.8</ele><time>2026-04-29T11:48:50.476Z</time></trkpt><trkpt lat="43.9157488" lon="12.3573853"><ele>496.0</ele><time>2026-04-29T11:48:51.476Z</time></trkpt><trkpt lat="43.9158547" lon="12.3573541"><ele>493.20000000000005</ele><time>2026-04-29T11:48:52.476Z</time></trkpt><trkpt lat="43.9159537" lon="12.3573135"><ele>490.40000000000003</ele><time>2026-04-29T11:48:53.477Z</time></trkpt><trkpt lat="43.9160437" lon="12.3572714"><ele>487.6</ele><time>2026-04-29T11:48:54.476Z</time></trkpt><trkpt lat="43.9161326" lon="12.3572373"><ele>484.8</ele><time>2026-04-29T11:48:55.476Z</time></trkpt><trkpt lat="43.9162192" lon="12.3572147"><ele>482.0</ele><time>2026-04-29T11:48:56.476Z</time></trkpt><trkpt lat="43.9162977" lon="12.3572066"><ele>481.99999999999994</ele><time>2026-04-29T11:48:57.476Z</time></trkpt><trkpt lat="43.9163797" lon="12.3572083"><ele>482.0</ele><time>2026-04-29T11:48:58.476Z</time></trkpt><trkpt lat="43.9164569" lon="12.3572254"><ele>482.0</ele><time>2026-04-29T11:48:59.476Z</time></trkpt><trkpt lat="43.9165295" lon="12.3572712"><ele>482.0</ele><time>2026-04-29T11:49:00.476Z</time></trkpt><trkpt lat="43.9166023" lon="12.3573485"><ele>481.99999999999994</ele><time>2026-04-29T11:49:01.476Z</time></trkpt><trkpt lat="43.9166779" lon="12.3574419"><ele>482.0</ele><time>2026-04-29T11:49:02.476Z</time></trkpt><trkpt lat="43.9167532" lon="12.3575325"><ele>483.6</ele><time>2026-04-29T11:49:03.477Z</time></trkpt><trkpt lat="43.9168142" lon="12.3576152"><ele>485.20000000000005</ele><time>2026-04-29T11:49:04.476Z</time></trkpt><trkpt lat="43.9168679" lon="12.357715"><ele>486.8</ele><time>2026-04-29T11:49:05.476Z</time></trkpt><trkpt lat="43.9169156" lon="12.3578213"><ele>488.4</ele><time>2026-04-29T11:49:06.476Z</time></trkpt><trkpt lat="43.9169566" lon="12.357934"><ele>490.0</ele><time>2026-04-29T11:49:07.476Z</time></trkpt><trkpt lat="43.917" lon="12.3580497"><ele>490.0</ele><time>2026-04-29T11:49:08.476Z</time></trkpt><trkpt lat="43.9170481" lon="12.3581535"><ele>490.0</ele><time>2026-04-29T11:49:09.476Z</time></trkpt><trkpt lat="43.9171165" lon="12.358227"><ele>490.0</ele><time>2026-04-29T11:49:10.476Z</time></trkpt><trkpt lat="43.9172004" lon="12.3582745"><ele>490.0</ele><time>2026-04-29T11:49:11.476Z</time></trkpt><trkpt lat="43.9172959" lon="12.3582822"><ele>490.0</ele><time>2026-04-29T11:49:12.476Z</time></trkpt><trkpt lat="43.9173943" lon="12.358275"><ele>490.0</ele><time>2026-04-29T11:49:13.476Z</time></trkpt><trkpt lat="43.9175018" lon="12.3582466"><ele>490.0</ele><time>2026-04-29T11:49:14.476Z</time></trkpt><trkpt lat="43.917608" lon="12.3581886"><ele>490.0</ele><time>2026-04-29T11:49:15.477Z</time></trkpt><trkpt lat="43.9176976" lon="12.3581207"><ele>490.0</ele><time>2026-04-29T11:49:16.476Z</time></trkpt><trkpt lat="43.9177851" lon="12.3580723"><ele>490.0</ele><time>2026-04-29T11:49:17.476Z</time></trkpt><trkpt lat="43.9178638" lon="12.3580533"><ele>488.83333333333337</ele><time>2026-04-29T11:49:18.476Z</time></trkpt><trkpt lat="43.9179489" lon="12.3580497"><ele>487.6666666666667</ele><time>2026-04-29T11:49:19.476Z</time></trkpt><trkpt lat="43.9180315" lon="12.3580699"><ele>486.5</ele><time>2026-04-29T11:49:20.476Z</time></trkpt><trkpt lat="43.9181045" lon="12.3581033"><ele>485.33333333333337</ele><time>2026-04-29T11:49:21.476Z</time></trkpt><trkpt lat="43.9181803" lon="12.3581661"><ele>484.1666666666667</ele><time>2026-04-29T11:49:22.476Z</time></trkpt><trkpt lat="43.9182654" lon="12.3582702"><ele>483.0</ele><time>2026-04-29T11:49:23.476Z</time></trkpt><trkpt lat="43.9183604" lon="12.3583744"><ele>477.25</ele><time>2026-04-29T11:49:24.476Z</time></trkpt><trkpt lat="43.9184557" lon="12.3584818"><ele>471.5</ele><time>2026-04-29T11:49:25.476Z</time></trkpt><trkpt lat="43.9185556" lon="12.3585914"><ele>465.75</ele><time>2026-04-29T11:49:26.476Z</time></trkpt><trkpt lat="43.9186432" lon="12.3586897"><ele>460.0</ele><time>2026-04-29T11:49:27.476Z</time></trkpt><trkpt lat="43.9187249" lon="12.3587677"><ele>460.0</ele><time>2026-04-29T11:49:28.476Z</time></trkpt><trkpt lat="43.9188012" lon="12.3588455"><ele>460.0</ele><time>2026-04-29T11:49:29.476Z</time></trkpt><trkpt lat="43.9188735" lon="12.3588977"><ele>460.0</ele><time>2026-04-29T11:49:30.476Z</time></trkpt><trkpt lat="43.91895" lon="12.3589312"><ele>460.0</ele><time>2026-04-29T11:49:31.476Z</time></trkpt><trkpt lat="43.9190413" lon="12.3589368"><ele>460.0</ele><time>2026-04-29T11:49:32.476Z</time></trkpt><trkpt lat="43.919168" lon="12.3589115"><ele>461.0</ele><time>2026-04-29T11:49:33.476Z</time></trkpt><trkpt lat="43.919302" lon="12.3588899"><ele>462.0</ele><time>2026-04-29T11:49:34.476Z</time></trkpt><trkpt lat="43.9194353" lon="12.3588658"><ele>463.0</ele><time>2026-04-29T11:49:35.476Z</time></trkpt><trkpt lat="43.9195631" lon="12.358843"><ele>464.0</ele><time>2026-04-29T11:49:36.476Z</time></trkpt><trkpt lat="43.919687" lon="12.3588108"><ele>461.75</ele><time>2026-04-29T11:49:37.476Z</time></trkpt><trkpt lat="43.9198099" lon="12.3587706"><ele>459.5</ele><time>2026-04-29T11:49:38.476Z</time></trkpt><trkpt lat="43.9199325" lon="12.3587174"><ele>457.25</ele><time>2026-04-29T11:49:39.476Z</time></trkpt><trkpt lat="43.9200507" lon="12.3586698"><ele>455.0</ele><time>2026-04-29T11:49:40.476Z</time></trkpt><trkpt lat="43.9201599" lon="12.3586162"><ele>453.6</ele><time>2026-04-29T11:49:41.476Z</time></trkpt><trkpt lat="43.9202566" lon="12.3585508"><ele>452.2</ele><time>2026-04-29T11:49:42.476Z</time></trkpt><trkpt lat="43.9203472" lon="12.3584848"><ele>450.79999999999995</ele><time>2026-04-29T11:49:43.476Z</time></trkpt><trkpt lat="43.9204216" lon="12.3584266"><ele>449.4</ele><time>2026-04-29T11:49:44.476Z</time></trkpt><trkpt lat="43.920487" lon="12.3584028"><ele>448.0</ele><time>2026-04-29T11:49:45.476Z</time></trkpt><trkpt lat="43.9205737" lon="12.3584515"><ele>448.0</ele><time>2026-04-29T11:49:47.477Z</time></trkpt><trkpt lat="43.920571" lon="12.3586198"><ele>448.0</ele><time>2026-04-29T11:49:49.477Z</time></trkpt><trkpt lat="43.9205216" lon="12.3587293"><ele>448.0</ele><time>2026-04-29T11:49:50.476Z</time></trkpt><trkpt lat="43.9204664" lon="12.3588844"><ele>448.0</ele><time>2026-04-29T11:49:51.476Z</time></trkpt><trkpt lat="43.920417" lon="12.3590488"><ele>447.0</ele><time>2026-04-29T11:49:52.476Z</time></trkpt><trkpt lat="43.9203746" lon="12.3592088"><ele>445.99999999999994</ele><time>2026-04-29T11:49:53.476Z</time></trkpt><trkpt lat="43.9203328" lon="12.3593523"><ele>444.99999999999994</ele><time>2026-04-29T11:49:54.476Z</time></trkpt><trkpt lat="43.9202998" lon="12.359478"><ele>444.0</ele><time>2026-04-29T11:49:55.476Z</time></trkpt><trkpt lat="43.9202863" lon="12.3595973"><ele>443.0</ele><time>2026-04-29T11:49:56.476Z</time></trkpt><trkpt lat="43.9202975" lon="12.3597086"><ele>444.8333333333333</ele><time>2026-04-29T11:49:57.476Z</time></trkpt><trkpt lat="43.9203298" lon="12.3597952"><ele>446.66666666666663</ele><time>2026-04-29T11:49:58.476Z</time></trkpt><trkpt lat="43.9203817" lon="12.3598555"><ele>448.5</ele><time>2026-04-29T11:49:59.476Z</time></trkpt><trkpt lat="43.9204542" lon="12.3598859"><ele>450.33333333333337</ele><time>2026-04-29T11:50:00.476Z</time></trkpt><trkpt lat="43.9205432" lon="12.35992"><ele>452.1666666666667</ele><time>2026-04-29T11:50:01.476Z</time></trkpt><trkpt lat="43.9206455" lon="12.3599529"><ele>454.0</ele><time>2026-04-29T11:50:02.476Z</time></trkpt><trkpt lat="43.9207592" lon="12.35999"><ele>454.0</ele><time>2026-04-29T11:50:03.476Z</time></trkpt><trkpt lat="43.9208856" lon="12.3600163"><ele>454.0</ele><time>2026-04-29T11:50:04.476Z</time></trkpt><trkpt lat="43.9210175" lon="12.3600239"><ele>454.0</ele><time>2026-04-29T11:50:05.477Z</time></trkpt><trkpt lat="43.9211339" lon="12.3600314"><ele>454.0</ele><time>2026-04-29T11:50:06.476Z</time></trkpt><trkpt lat="43.9212336" lon="12.3600563"><ele>454.6</ele><time>2026-04-29T11:50:07.476Z</time></trkpt><trkpt lat="43.9213129" lon="12.3601053"><ele>455.2</ele><time>2026-04-29T11:50:08.476Z</time></trkpt><trkpt lat="43.921381" lon="12.3601889"><ele>455.80000000000007</ele><time>2026-04-29T11:50:09.476Z</time></trkpt><trkpt lat="43.9214499" lon="12.3603112"><ele>456.40000000000003</ele><time>2026-04-29T11:50:10.476Z</time></trkpt><trkpt lat="43.9215255" lon="12.3604597"><ele>457.0</ele><time>2026-04-29T11:50:11.476Z</time></trkpt><trkpt lat="43.9216034" lon="12.3605951"><ele>457.0</ele><time>2026-04-29T11:50:12.476Z</time></trkpt><trkpt lat="43.9216783" lon="12.3607035"><ele>457.00000000000006</ele><time>2026-04-29T11:50:13.476Z</time></trkpt><trkpt lat="43.9217578" lon="12.3607972"><ele>457.00000000000006</ele><time>2026-04-29T11:50:14.477Z</time></trkpt><trkpt lat="43.9218396" lon="12.3608759"><ele>457.0</ele><time>2026-04-29T11:50:15.476Z</time></trkpt><trkpt lat="43.9219274" lon="12.3609318"><ele>457.0</ele><time>2026-04-29T11:50:16.476Z</time></trkpt><trkpt lat="43.9220276" lon="12.3609544"><ele>454.8</ele><time>2026-04-29T11:50:17.476Z</time></trkpt><trkpt lat="43.922138" lon="12.3609331"><ele>452.6</ele><time>2026-04-29T11:50:18.476Z</time></trkpt><trkpt lat="43.9222288" lon="12.3608929"><ele>450.40000000000003</ele><time>2026-04-29T11:50:19.476Z</time></trkpt><trkpt lat="43.922312" lon="12.3608502"><ele>448.20000000000005</ele><time>2026-04-29T11:50:20.476Z</time></trkpt><trkpt lat="43.9224012" lon="12.3608537"><ele>446.0</ele><time>2026-04-29T11:50:21.476Z</time></trkpt><trkpt lat="43.922481" lon="12.3608789"><ele>445.99999999999994</ele><time>2026-04-29T11:50:22.476Z</time></trkpt><trkpt lat="43.9225636" lon="12.3609203"><ele>446.0</ele><time>2026-04-29T11:50:23.476Z</time></trkpt><trkpt lat="43.9226556" lon="12.3609519"><ele>446.0</ele><time>2026-04-29T11:50:24.476Z</time></trkpt><trkpt lat="43.922738" lon="12.3609631"><ele>446.0</ele><time>2026-04-29T11:50:25.476Z</time></trkpt><trkpt lat="43.9228206" lon="12.3609761"><ele>445.99999999999994</ele><time>2026-04-29T11:50:26.477Z</time></trkpt><trkpt lat="43.922905" lon="12.361012"><ele>446.0</ele><time>2026-04-29T11:50:27.476Z</time></trkpt><trkpt lat="43.9230071" lon="12.3610726"><ele>443.0</ele><time>2026-04-29T11:50:28.476Z</time></trkpt><trkpt lat="43.9231137" lon="12.3611416"><ele>440.0</ele><time>2026-04-29T11:50:29.476Z</time></trkpt><trkpt lat="43.9232178" lon="12.3611977"><ele>437.0</ele><time>2026-04-29T11:50:30.476Z</time></trkpt><trkpt lat="43.9233181" lon="12.3612386"><ele>434.0</ele><time>2026-04-29T11:50:31.476Z</time></trkpt><trkpt lat="43.9234154" lon="12.3612652"><ele>431.0</ele><time>2026-04-29T11:50:32.477Z</time></trkpt><trkpt lat="43.9235223" lon="12.3612791"><ele>427.6</ele><time>2026-04-29T11:50:33.476Z</time></trkpt><trkpt lat="43.9236286" lon="12.3612814"><ele>424.20000000000005</ele><time>2026-04-29T11:50:34.476Z</time></trkpt><trkpt lat="43.9237382" lon="12.3612798"><ele>420.79999999999995</ele><time>2026-04-29T11:50:35.477Z</time></trkpt><trkpt lat="43.923844" lon="12.3612666"><ele>417.4</ele><time>2026-04-29T11:50:36.477Z</time></trkpt><trkpt lat="43.9239368" lon="12.361263"><ele>414.0</ele><time>2026-04-29T11:50:37.476Z</time></trkpt><trkpt lat="43.9240299" lon="12.3612652"><ele>414.0</ele><time>2026-04-29T11:50:38.476Z</time></trkpt><trkpt lat="43.9241348" lon="12.3612896"><ele>414.0</ele><time>2026-04-29T11:50:39.476Z</time></trkpt><trkpt lat="43.924236" lon="12.3613355"><ele>414.0</ele><time>2026-04-29T11:50:40.476Z</time></trkpt><trkpt lat="43.924338" lon="12.3613773"><ele>414.0</ele><time>2026-04-29T11:50:41.477Z</time></trkpt><trkpt lat="43.9244562" lon="12.361405"><ele>414.0</ele><time>2026-04-29T11:50:42.476Z</time></trkpt><trkpt lat="43.9245776" lon="12.3614134"><ele>418.6</ele><time>2026-04-29T11:50:43.475Z</time></trkpt><trkpt lat="43.9246912" lon="12.3614228"><ele>423.2</ele><time>2026-04-29T11:50:44.475Z</time></trkpt><trkpt lat="43.9247907" lon="12.3614363"><ele>427.80000000000007</ele><time>2026-04-29T11:50:45.476Z</time></trkpt><trkpt lat="43.9248978" lon="12.3614785"><ele>432.40000000000003</ele><time>2026-04-29T11:50:46.475Z</time></trkpt><trkpt lat="43.9249995" lon="12.3615301"><ele>437.0</ele><time>2026-04-29T11:50:47.475Z</time></trkpt><trkpt lat="43.9251018" lon="12.3615911"><ele>438.40000000000003</ele><time>2026-04-29T11:50:48.475Z</time></trkpt><trkpt lat="43.9251971" lon="12.3616417"><ele>439.80000000000007</ele><time>2026-04-29T11:50:49.475Z</time></trkpt><trkpt lat="43.925282" lon="12.3616725"><ele>441.2</ele><time>2026-04-29T11:50:50.475Z</time></trkpt><trkpt lat="43.925372" lon="12.361662"><ele>442.6</ele><time>2026-04-29T11:50:51.475Z</time></trkpt><trkpt lat="43.9254546" lon="12.3616168"><ele>444.0</ele><time>2026-04-29T11:50:52.475Z</time></trkpt><trkpt lat="43.9255281" lon="12.3615305"><ele>444.0</ele><time>2026-04-29T11:50:53.475Z</time></trkpt><trkpt lat="43.9255839" lon="12.3614104"><ele>444.0</ele><time>2026-04-29T11:50:54.476Z</time></trkpt><trkpt lat="43.9256216" lon="12.3612833"><ele>444.0</ele><time>2026-04-29T11:50:55.475Z</time></trkpt><trkpt lat="43.9256463" lon="12.3611669"><ele>444.0</ele><time>2026-04-29T11:50:56.475Z</time></trkpt><trkpt lat="43.9256641" lon="12.361082"><ele>444.0</ele><time>2026-04-29T11:50:57.475Z</time></trkpt><trkpt lat="43.9257739" lon="12.3610679"><ele>437.75</ele><time>2026-04-29T11:50:59.475Z</time></trkpt><trkpt lat="43.9258631" lon="12.3610951"><ele>431.5</ele><time>2026-04-29T11:51:00.475Z</time></trkpt><trkpt lat="43.9259723" lon="12.3611419"><ele>425.25</ele><time>2026-04-29T11:51:01.475Z</time></trkpt><trkpt lat="43.9260993" lon="12.3612159"><ele>419.0</ele><time>2026-04-29T11:51:02.475Z</time></trkpt><trkpt lat="43.9262317" lon="12.3612927"><ele>418.25</ele><time>2026-04-29T11:51:03.475Z</time></trkpt><trkpt lat="43.9263623" lon="12.3613564"><ele>417.5</ele><time>2026-04-29T11:51:04.475Z</time></trkpt><trkpt lat="43.9264769" lon="12.3614134"><ele>416.75</ele><time>2026-04-29T11:51:05.475Z</time></trkpt><trkpt lat="43.9265806" lon="12.3614639"><ele>416.0</ele><time>2026-04-29T11:51:06.475Z</time></trkpt><trkpt lat="43.9266745" lon="12.3615152"><ele>418.0</ele><time>2026-04-29T11:51:07.475Z</time></trkpt><trkpt lat="43.9267641" lon="12.3615814"><ele>420.0</ele><time>2026-04-29T11:51:08.475Z</time></trkpt><trkpt lat="43.9268449" lon="12.3616587"><ele>422.0</ele><time>2026-04-29T11:51:09.475Z</time></trkpt><trkpt lat="43.9269201" lon="12.3617295"><ele>424.0</ele><time>2026-04-29T11:51:10.475Z</time></trkpt><trkpt lat="43.9269896" lon="12.3617978"><ele>426.0</ele><time>2026-04-29T11:51:11.475Z</time></trkpt><trkpt lat="43.9270622" lon="12.3618591"><ele>426.0</ele><time>2026-04-29T11:51:12.475Z</time></trkpt><trkpt lat="43.9271406" lon="12.3619192"><ele>426.0</ele><time>2026-04-29T11:51:13.475Z</time></trkpt><trkpt lat="43.9272273" lon="12.3619717"><ele>426.0</ele><time>2026-04-29T11:51:14.475Z</time></trkpt><trkpt lat="43.9273186" lon="12.3620161"><ele>426.0</ele><time>2026-04-29T11:51:15.475Z</time></trkpt><trkpt lat="43.9274093" lon="12.362049"><ele>426.0</ele><time>2026-04-29T11:51:16.475Z</time></trkpt><trkpt lat="43.9275038" lon="12.3620696"><ele>426.8</ele><time>2026-04-29T11:51:17.475Z</time></trkpt><trkpt lat="43.927601" lon="12.3620598"><ele>427.6</ele><time>2026-04-29T11:51:18.476Z</time></trkpt><trkpt lat="43.9277022" lon="12.3620279"><ele>428.4</ele><time>2026-04-29T11:51:19.476Z</time></trkpt><trkpt lat="43.9277953" lon="12.3619739"><ele>429.2</ele><time>2026-04-29T11:51:20.475Z</time></trkpt><trkpt lat="43.9278826" lon="12.3619054"><ele>430.0</ele><time>2026-04-29T11:51:21.475Z</time></trkpt><trkpt lat="43.927956" lon="12.3618142"><ele>430.00000000000006</ele><time>2026-04-29T11:51:22.476Z</time></trkpt><trkpt lat="43.9280238" lon="12.3617261"><ele>430.0</ele><time>2026-04-29T11:51:23.475Z</time></trkpt><trkpt lat="43.9280811" lon="12.3616417"><ele>430.0</ele><time>2026-04-29T11:51:24.476Z</time></trkpt><trkpt lat="43.9281425" lon="12.361573"><ele>430.0</ele><time>2026-04-29T11:51:25.475Z</time></trkpt><trkpt lat="43.9282175" lon="12.3615242"><ele>430.00000000000006</ele><time>2026-04-29T11:51:26.475Z</time></trkpt><trkpt lat="43.9283051" lon="12.3614829"><ele>430.0</ele><time>2026-04-29T11:51:27.475Z</time></trkpt><trkpt lat="43.9283961" lon="12.3614426"><ele>429.8</ele><time>2026-04-29T11:51:28.475Z</time></trkpt><trkpt lat="43.9284803" lon="12.3613819"><ele>429.6</ele><time>2026-04-29T11:51:29.475Z</time></trkpt><trkpt lat="43.9285567" lon="12.3612974"><ele>429.4</ele><time>2026-04-29T11:51:30.475Z</time></trkpt><trkpt lat="43.9286243" lon="12.3611764"><ele>429.2</ele><time>2026-04-29T11:51:31.475Z</time></trkpt><trkpt lat="43.9286901" lon="12.3610448"><ele>429.0</ele><time>2026-04-29T11:51:32.475Z</time></trkpt><trkpt lat="43.9287441" lon="12.3609093"><ele>426.79999999999995</ele><time>2026-04-29T11:51:33.476Z</time></trkpt><trkpt lat="43.9287915" lon="12.3607778"><ele>424.59999999999997</ele><time>2026-04-29T11:51:34.475Z</time></trkpt><trkpt lat="43.928839" lon="12.3606658"><ele>422.4</ele><time>2026-04-29T11:51:35.475Z</time></trkpt><trkpt lat="43.9288953" lon="12.3605709"><ele>420.2</ele><time>2026-04-29T11:51:36.475Z</time></trkpt><trkpt lat="43.9289613" lon="12.3604875"><ele>418.0</ele><time>2026-04-29T11:51:37.476Z</time></trkpt><trkpt lat="43.9290312" lon="12.3604101"><ele>415.83333333333337</ele><time>2026-04-29T11:51:38.475Z</time></trkpt><trkpt lat="43.9290992" lon="12.3603462"><ele>413.6666666666667</ele><time>2026-04-29T11:51:39.475Z</time></trkpt><trkpt lat="43.9291692" lon="12.3603049"><ele>411.5</ele><time>2026-04-29T11:51:40.475Z</time></trkpt><trkpt lat="43.9292528" lon="12.3602823"><ele>409.33333333333337</ele><time>2026-04-29T11:51:41.475Z</time></trkpt><trkpt lat="43.9293519" lon="12.3602576"><ele>407.1666666666667</ele><time>2026-04-29T11:51:42.475Z</time></trkpt><trkpt lat="43.9294453" lon="12.3602139"><ele>405.0</ele><time>2026-04-29T11:51:43.475Z</time></trkpt><trkpt lat="43.9295317" lon="12.3601602"><ele>405.0</ele><time>2026-04-29T11:51:44.475Z</time></trkpt><trkpt lat="43.92961" lon="12.3600832"><ele>405.0</ele><time>2026-04-29T11:51:45.476Z</time></trkpt><trkpt lat="43.9296814" lon="12.3599631"><ele>405.0</ele><time>2026-04-29T11:51:46.476Z</time></trkpt><trkpt lat="43.9297403" lon="12.3598265"><ele>405.0</ele><time>2026-04-29T11:51:47.475Z</time></trkpt><trkpt lat="43.9297997" lon="12.3597034"><ele>405.0</ele><time>2026-04-29T11:51:48.475Z</time></trkpt><trkpt lat="43.9298639" lon="12.3595792"><ele>401.0</ele><time>2026-04-29T11:51:49.475Z</time></trkpt><trkpt lat="43.9299426" lon="12.3594561"><ele>397.0</ele><time>2026-04-29T11:51:50.475Z</time></trkpt><trkpt lat="43.9300224" lon="12.359328"><ele>393.0</ele><time>2026-04-29T11:51:51.476Z</time></trkpt><trkpt lat="43.9300937" lon="12.3591962"><ele>389.0</ele><time>2026-04-29T11:51:52.476Z</time></trkpt><trkpt lat="43.9301626" lon="12.3590674"><ele>388.3333333333333</ele><time>2026-04-29T11:51:53.475Z</time></trkpt><trkpt lat="43.9302159" lon="12.3589554"><ele>387.66666666666663</ele><time>2026-04-29T11:51:54.475Z</time></trkpt><trkpt lat="43.9302691" lon="12.3588655"><ele>387.0</ele><time>2026-04-29T11:51:55.475Z</time></trkpt><trkpt lat="43.9303431" lon="12.358795"><ele>386.33333333333337</ele><time>2026-04-29T11:51:56.475Z</time></trkpt><trkpt lat="43.9304234" lon="12.3587469"><ele>385.6666666666667</ele><time>2026-04-29T11:51:57.475Z</time></trkpt><trkpt lat="43.9305066" lon="12.358704"><ele>385.0</ele><time>2026-04-29T11:51:58.475Z</time></trkpt><trkpt lat="43.930593" lon="12.3586574"><ele>385.0</ele><time>2026-04-29T11:51:59.475Z</time></trkpt><trkpt lat="43.9306748" lon="12.3585821"><ele>385.0</ele><time>2026-04-29T11:52:00.475Z</time></trkpt><trkpt lat="43.9307544" lon="12.3584825"><ele>385.0</ele><time>2026-04-29T11:52:01.475Z</time></trkpt><trkpt lat="43.9308325" lon="12.3583888"><ele>385.0</ele><time>2026-04-29T11:52:02.475Z</time></trkpt><trkpt lat="43.9308969" lon="12.3582883"><ele>385.0</ele><time>2026-04-29T11:52:03.475Z</time></trkpt><trkpt lat="43.9309551" lon="12.3581971"><ele>382.6</ele><time>2026-04-29T11:52:04.475Z</time></trkpt><trkpt lat="43.9310047" lon="12.3581171"><ele>380.2</ele><time>2026-04-29T11:52:05.475Z</time></trkpt><trkpt lat="43.9310744" lon="12.3580262"><ele>377.79999999999995</ele><time>2026-04-29T11:52:07.475Z</time></trkpt><trkpt lat="43.931112" lon="12.3581459"><ele>375.4</ele><time>2026-04-29T11:52:10.475Z</time></trkpt><trkpt lat="43.9310518" lon="12.3583279"><ele>373.0</ele><time>2026-04-29T11:52:12.475Z</time></trkpt><trkpt lat="43.9310029" lon="12.3584418"><ele>368.2</ele><time>2026-04-29T11:52:13.475Z</time></trkpt><trkpt lat="43.9309647" lon="12.3585634"><ele>363.4</ele><time>2026-04-29T11:52:14.475Z</time></trkpt><trkpt lat="43.9309501" lon="12.358704"><ele>358.59999999999997</ele><time>2026-04-29T11:52:15.476Z</time></trkpt><trkpt lat="43.9309441" lon="12.3588502"><ele>353.79999999999995</ele><time>2026-04-29T11:52:16.475Z</time></trkpt><trkpt lat="43.9309584" lon="12.3589891"><ele>349.0</ele><time>2026-04-29T11:52:17.475Z</time></trkpt><trkpt lat="43.9309741" lon="12.3591201"><ele>347.16666666666663</ele><time>2026-04-29T11:52:18.475Z</time></trkpt><trkpt lat="43.9309924" lon="12.359243"><ele>345.3333333333333</ele><time>2026-04-29T11:52:19.475Z</time></trkpt><trkpt lat="43.9310132" lon="12.3593513"><ele>343.5</ele><time>2026-04-29T11:52:20.476Z</time></trkpt><trkpt lat="43.9310354" lon="12.3594448"><ele>341.6666666666667</ele><time>2026-04-29T11:52:21.475Z</time></trkpt><trkpt lat="43.9311041" lon="12.3595271"><ele>339.83333333333337</ele><time>2026-04-29T11:52:23.475Z</time></trkpt><trkpt lat="43.9311733" lon="12.359449"><ele>338.0</ele><time>2026-04-29T11:52:25.475Z</time></trkpt><trkpt lat="43.931182" lon="12.359353"><ele>338.0</ele><time>2026-04-29T11:52:26.475Z</time></trkpt><trkpt lat="43.9311689" lon="12.3592369"><ele>338.0</ele><time>2026-04-29T11:52:27.475Z</time></trkpt><trkpt lat="43.9311599" lon="12.3591057"><ele>338.0</ele><time>2026-04-29T11:52:28.475Z</time></trkpt><trkpt lat="43.9311578" lon="12.3589721"><ele>338.0</ele><time>2026-04-29T11:52:29.475Z</time></trkpt><trkpt lat="43.9311615" lon="12.3588335"><ele>338.0</ele><time>2026-04-29T11:52:30.476Z</time></trkpt><trkpt lat="43.931176" lon="12.3586908"><ele>339.83333333333337</ele><time>2026-04-29T11:52:31.475Z</time></trkpt><trkpt lat="43.9312035" lon="12.358552"><ele>341.6666666666667</ele><time>2026-04-29T11:52:32.475Z</time></trkpt><trkpt lat="43.9312453" lon="12.3584351"><ele>343.5</ele><time>2026-04-29T11:52:33.476Z</time></trkpt><trkpt lat="43.9312915" lon="12.3583309"><ele>345.3333333333333</ele><time>2026-04-29T11:52:34.475Z</time></trkpt><trkpt lat="43.9313444" lon="12.3582415"><ele>347.16666666666663</ele><time>2026-04-29T11:52:35.475Z</time></trkpt><trkpt lat="43.9314008" lon="12.3581731"><ele>349.0</ele><time>2026-04-29T11:52:36.475Z</time></trkpt><trkpt lat="43.9314636" lon="12.3581138"><ele>349.0</ele><time>2026-04-29T11:52:37.475Z</time></trkpt><trkpt lat="43.9315293" lon="12.3580671"><ele>349.0</ele><time>2026-04-29T11:52:38.475Z</time></trkpt><trkpt lat="43.9315995" lon="12.3580289"><ele>349.0</ele><time>2026-04-29T11:52:39.475Z</time></trkpt><trkpt lat="43.9316656" lon="12.3580047"><ele>349.0</ele><time>2026-04-29T11:52:40.475Z</time></trkpt><trkpt lat="43.9317624" lon="12.3579976"><ele>349.0</ele><time>2026-04-29T11:52:42.475Z</time></trkpt><trkpt lat="43.9317878" lon="12.3581075"><ele>349.0</ele><time>2026-04-29T11:52:45.475Z</time></trkpt><trkpt lat="43.9316894" lon="12.3582064"><ele>349.0</ele><time>2026-04-29T11:52:47.475Z</time></trkpt><trkpt lat="43.9316265" lon="12.3582541"><ele>349.0</ele><time>2026-04-29T11:52:48.475Z</time></trkpt><trkpt lat="43.9315719" lon="12.3583151"><ele>349.0</ele><time>2026-04-29T11:52:49.475Z</time></trkpt><trkpt lat="43.9315245" lon="12.3583976"><ele>349.0</ele><time>2026-04-29T11:52:50.475Z</time></trkpt><trkpt lat="43.9314927" lon="12.3585054"><ele>349.0</ele><time>2026-04-29T11:52:51.475Z</time></trkpt><trkpt lat="43.9314727" lon="12.3586339"><ele>349.0</ele><time>2026-04-29T11:52:52.475Z</time></trkpt><trkpt lat="43.9314622" lon="12.3587753"><ele>346.79999999999995</ele><time>2026-04-29T11:52:53.475Z</time></trkpt><trkpt lat="43.9314604" lon="12.3589156"><ele>344.59999999999997</ele><time>2026-04-29T11:52:54.475Z</time></trkpt><trkpt lat="43.9314563" lon="12.3590517"><ele>342.4</ele><time>2026-04-29T11:52:55.476Z</time></trkpt><trkpt lat="43.9314455" lon="12.3591822"><ele>340.2</ele><time>2026-04-29T11:52:56.475Z</time></trkpt><trkpt lat="43.9314318" lon="12.3592994"><ele>338.0</ele><time>2026-04-29T11:52:57.475Z</time></trkpt><trkpt lat="43.9314203" lon="12.3594151"><ele>338.0</ele><time>2026-04-29T11:52:58.476Z</time></trkpt><trkpt lat="43.9314086" lon="12.3595228"><ele>338.0</ele><time>2026-04-29T11:52:59.476Z</time></trkpt><trkpt lat="43.9314121" lon="12.3596207"><ele>338.0</ele><time>2026-04-29T11:53:00.475Z</time></trkpt><trkpt lat="43.9314466" lon="12.3597029"><ele>338.0</ele><time>2026-04-29T11:53:01.475Z</time></trkpt><trkpt lat="43.9315112" lon="12.359774"><ele>338.0</ele><time>2026-04-29T11:53:02.476Z</time></trkpt><trkpt lat="43.9315968" lon="12.3598306"><ele>338.0</ele><time>2026-04-29T11:53:03.475Z</time></trkpt><trkpt lat="43.9316979" lon="12.3598771"><ele>333.75</ele><time>2026-04-29T11:53:04.475Z</time></trkpt><trkpt lat="43.9318071" lon="12.3599055"><ele>329.5</ele><time>2026-04-29T11:53:05.476Z</time></trkpt><trkpt lat="43.9319256" lon="12.359924"><ele>325.25</ele><time>2026-04-29T11:53:06.475Z</time></trkpt><trkpt lat="43.9320454" lon="12.3599387"><ele>321.0</ele><time>2026-04-29T11:53:07.475Z</time></trkpt><trkpt lat="43.9321563" lon="12.3599628"><ele>321.0</ele><time>2026-04-29T11:53:08.475Z</time></trkpt><trkpt lat="43.9322629" lon="12.359993"><ele>321.0</ele><time>2026-04-29T11:53:09.475Z</time></trkpt><trkpt lat="43.9323615" lon="12.3600348"><ele>321.0</ele><time>2026-04-29T11:53:10.476Z</time></trkpt><trkpt lat="43.9324658" lon="12.3600966"><ele>321.0</ele><time>2026-04-29T11:53:11.475Z</time></trkpt><trkpt lat="43.9325774" lon="12.360167"><ele>321.0</ele><time>2026-04-29T11:53:12.475Z</time></trkpt><trkpt lat="43.9326979" lon="12.3602386"><ele>318.75</ele><time>2026-04-29T11:53:13.475Z</time></trkpt><trkpt lat="43.9328137" lon="12.3603123"><ele>316.5</ele><time>2026-04-29T11:53:14.475Z</time></trkpt><trkpt lat="43.9329368" lon="12.3603885"><ele>314.25</ele><time>2026-04-29T11:53:15.475Z</time></trkpt><trkpt lat="43.9330623" lon="12.3604643"><ele>312.0</ele><time>2026-04-29T11:53:16.475Z</time></trkpt><trkpt lat="43.9331846" lon="12.3605362"><ele>312.0</ele><time>2026-04-29T11:53:17.475Z</time></trkpt><trkpt lat="43.9333025" lon="12.360602"><ele>312.0</ele><time>2026-04-29T11:53:18.475Z</time></trkpt><trkpt lat="43.9334166" lon="12.36067"><ele>312.0</ele><time>2026-04-29T11:53:19.476Z</time></trkpt><trkpt lat="43.9335328" lon="12.3607421"><ele>312.0</ele><time>2026-04-29T11:53:20.475Z</time></trkpt><trkpt lat="43.9336489" lon="12.3608123"><ele>309.75</ele><time>2026-04-29T11:53:21.475Z</time></trkpt><trkpt lat="43.9337637" lon="12.3608825"><ele>307.5</ele><time>2026-04-29T11:53:22.475Z</time></trkpt><trkpt lat="43.9338744" lon="12.3609438"><ele>305.25</ele><time>2026-04-29T11:53:23.475Z</time></trkpt><trkpt lat="43.9339836" lon="12.3609996"><ele>303.0</ele><time>2026-04-29T11:53:24.475Z</time></trkpt><trkpt lat="43.9341073" lon="12.361038"><ele>301.75</ele><time>2026-04-29T11:53:25.476Z</time></trkpt><trkpt lat="43.9342434" lon="12.3610522"><ele>300.5</ele><time>2026-04-29T11:53:26.476Z</time></trkpt><trkpt lat="43.9343751" lon="12.3610678"><ele>299.25</ele><time>2026-04-29T11:53:27.475Z</time></trkpt><trkpt lat="43.9345054" lon="12.3610845"><ele>298.0</ele><time>2026-04-29T11:53:28.476Z</time></trkpt><trkpt lat="43.9346317" lon="12.3610987"><ele>298.0</ele><time>2026-04-29T11:53:29.475Z</time></trkpt><trkpt lat="43.934742" lon="12.3611301"><ele>298.0</ele><time>2026-04-29T11:53:30.475Z</time></trkpt><trkpt lat="43.9348229" lon="12.36117"><ele>298.0</ele><time>2026-04-29T11:53:31.475Z</time></trkpt><trkpt lat="43.9348846" lon="12.3612366"><ele>298.0</ele><time>2026-04-29T11:53:32.475Z</time></trkpt><trkpt lat="43.9349482" lon="12.3613196"><ele>298.0</ele><time>2026-04-29T11:53:33.475Z</time></trkpt><trkpt lat="43.9350051" lon="12.3614018"><ele>298.0</ele><time>2026-04-29T11:53:34.475Z</time></trkpt><trkpt lat="43.9350689" lon="12.3614426"><ele>297.6</ele><time>2026-04-29T11:53:35.475Z</time></trkpt><trkpt lat="43.9351478" lon="12.361445"><ele>297.20000000000005</ele><time>2026-04-29T11:53:36.475Z</time></trkpt><trkpt lat="43.9352303" lon="12.3613943"><ele>296.8</ele><time>2026-04-29T11:53:37.475Z</time></trkpt><trkpt lat="43.9353213" lon="12.3613141"><ele>296.40000000000003</ele><time>2026-04-29T11:53:38.475Z</time></trkpt><trkpt lat="43.9354115" lon="12.3612021"><ele>296.0</ele><time>2026-04-29T11:53:39.475Z</time></trkpt><trkpt lat="43.9355216" lon="12.3610884"><ele>294.33333333333337</ele><time>2026-04-29T11:53:40.475Z</time></trkpt><trkpt lat="43.9356472" lon="12.3609704"><ele>292.6666666666667</ele><time>2026-04-29T11:53:41.475Z</time></trkpt><trkpt lat="43.9357693" lon="12.3608439"><ele>291.0</ele><time>2026-04-29T11:53:42.475Z</time></trkpt><trkpt lat="43.9358847" lon="12.3607177"><ele>288.75</ele><time>2026-04-29T11:53:43.475Z</time></trkpt><trkpt lat="43.9359924" lon="12.360583"><ele>286.5</ele><time>2026-04-29T11:53:44.475Z</time></trkpt><trkpt lat="43.9360922" lon="12.3604494"><ele>284.25</ele><time>2026-04-29T11:53:45.475Z</time></trkpt><trkpt lat="43.9361865" lon="12.3603189"><ele>282.0</ele><time>2026-04-29T11:53:46.475Z</time></trkpt><trkpt lat="43.9362743" lon="12.3601797"><ele>280.75</ele><time>2026-04-29T11:53:47.475Z</time></trkpt><trkpt lat="43.9363486" lon="12.3600354"><ele>279.5</ele><time>2026-04-29T11:53:48.475Z</time></trkpt><trkpt lat="43.9364199" lon="12.3598938"><ele>278.25</ele><time>2026-04-29T11:53:49.475Z</time></trkpt><trkpt lat="43.9364931" lon="12.3597522"><ele>277.0</ele><time>2026-04-29T11:53:50.475Z</time></trkpt><trkpt lat="43.9365651" lon="12.3596133"><ele>275.25</ele><time>2026-04-29T11:53:51.475Z</time></trkpt><trkpt lat="43.9366445" lon="12.3594765"><ele>273.5</ele><time>2026-04-29T11:53:52.475Z</time></trkpt><trkpt lat="43.9367255" lon="12.3593388"><ele>271.75</ele><time>2026-04-29T11:53:53.475Z</time></trkpt><trkpt lat="43.9368077" lon="12.3592045"><ele>270.0</ele><time>2026-04-29T11:53:54.475Z</time></trkpt><trkpt lat="43.9368886" lon="12.3590679"><ele>268.4</ele><time>2026-04-29T11:53:55.475Z</time></trkpt><trkpt lat="43.9369636" lon="12.3589367"><ele>266.8</ele><time>2026-04-29T11:53:56.475Z</time></trkpt><trkpt lat="43.9370307" lon="12.3588089"><ele>265.2</ele><time>2026-04-29T11:53:57.475Z</time></trkpt><trkpt lat="43.9370954" lon="12.3586875"><ele>263.6</ele><time>2026-04-29T11:53:58.475Z</time></trkpt><trkpt lat="43.9371582" lon="12.3585693"><ele>262.0</ele><time>2026-04-29T11:53:59.475Z</time></trkpt><trkpt lat="43.9372121" lon="12.3584692"><ele>261.2</ele><time>2026-04-29T11:54:00.475Z</time></trkpt><trkpt lat="43.9372591" lon="12.3583969"><ele>260.4</ele><time>2026-04-29T11:54:01.475Z</time></trkpt><trkpt lat="43.9373603" lon="12.3583932"><ele>259.6</ele><time>2026-04-29T11:54:03.475Z</time></trkpt><trkpt lat="43.9374192" lon="12.3584574"><ele>258.8</ele><time>2026-04-29T11:54:04.475Z</time></trkpt><trkpt lat="43.9374901" lon="12.3585605"><ele>258.0</ele><time>2026-04-29T11:54:05.475Z</time></trkpt><trkpt lat="43.9375601" lon="12.3586908"><ele>256.0</ele><time>2026-04-29T11:54:06.475Z</time></trkpt><trkpt lat="43.9376194" lon="12.358834"><ele>254.0</ele><time>2026-04-29T11:54:07.475Z</time></trkpt><trkpt lat="43.9376685" lon="12.3589776"><ele>252.0</ele><time>2026-04-29T11:54:08.475Z</time></trkpt><trkpt lat="43.9377025" lon="12.3591297"><ele>250.0</ele><time>2026-04-29T11:54:09.475Z</time></trkpt><trkpt lat="43.9377258" lon="12.3592853"><ele>250.0</ele><time>2026-04-29T11:54:10.475Z</time></trkpt><trkpt lat="43.9377549" lon="12.359415"><ele>250.0</ele><time>2026-04-29T11:54:11.475Z</time></trkpt><trkpt lat="43.9378045" lon="12.3595051"><ele>250.0</ele><time>2026-04-29T11:54:12.475Z</time></trkpt><trkpt lat="43.9378795" lon="12.3595683"><ele>250.0</ele><time>2026-04-29T11:54:13.475Z</time></trkpt><trkpt lat="43.9379718" lon="12.3596145"><ele>250.0</ele><time>2026-04-29T11:54:14.475Z</time></trkpt><trkpt lat="43.9380927" lon="12.3596689"><ele>250.75</ele><time>2026-04-29T11:54:15.475Z</time></trkpt><trkpt lat="43.9382178" lon="12.3597215"><ele>251.5</ele><time>2026-04-29T11:54:16.475Z</time></trkpt><trkpt lat="43.938332" lon="12.3597706"><ele>252.25</ele><time>2026-04-29T11:54:17.475Z</time></trkpt><trkpt lat="43.938435" lon="12.3598312"><ele>253.0</ele><time>2026-04-29T11:54:18.475Z</time></trkpt><trkpt lat="43.9385372" lon="12.3599005"><ele>253.0</ele><time>2026-04-29T11:54:19.475Z</time></trkpt><trkpt lat="43.9386368" lon="12.3599777"><ele>253.0</ele><time>2026-04-29T11:54:20.475Z</time></trkpt><trkpt lat="43.9387329" lon="12.360062"><ele>253.0</ele><time>2026-04-29T11:54:21.475Z</time></trkpt><trkpt lat="43.938828" lon="12.3601388"><ele>253.0</ele><time>2026-04-29T11:54:22.475Z</time></trkpt><trkpt lat="43.9389122" lon="12.3602175"><ele>253.0</ele><time>2026-04-29T11:54:23.475Z</time></trkpt><trkpt lat="43.9389915" lon="12.3602947"><ele>253.0</ele><time>2026-04-29T11:54:24.475Z</time></trkpt><trkpt lat="43.9390708" lon="12.3603676"><ele>253.0</ele><time>2026-04-29T11:54:25.475Z</time></trkpt><trkpt lat="43.9391527" lon="12.3604383"><ele>253.0</ele><time>2026-04-29T11:54:26.475Z</time></trkpt><trkpt lat="43.9392353" lon="12.3604929"><ele>253.0</ele><time>2026-04-29T11:54:27.475Z</time></trkpt><trkpt lat="43.939315" lon="12.3605037"><ele>253.0</ele><time>2026-04-29T11:54:28.475Z</time></trkpt><trkpt lat="43.9394077" lon="12.3604739"><ele>250.0</ele><time>2026-04-29T11:54:29.475Z</time></trkpt><trkpt lat="43.93951" lon="12.3604298"><ele>247.0</ele><time>2026-04-29T11:54:30.475Z</time></trkpt><trkpt lat="43.939618" lon="12.3603883"><ele>244.0</ele><time>2026-04-29T11:54:31.475Z</time></trkpt><trkpt lat="43.9397319" lon="12.3603708"><ele>241.0</ele><time>2026-04-29T11:54:32.475Z</time></trkpt><trkpt lat="43.9398437" lon="12.3603466"><ele>238.0</ele><time>2026-04-29T11:54:33.475Z</time></trkpt><trkpt lat="43.939955" lon="12.3603179"><ele>234.60000000000002</ele><time>2026-04-29T11:54:34.476Z</time></trkpt><trkpt lat="43.9400636" lon="12.3602928"><ele>231.20000000000002</ele><time>2026-04-29T11:54:35.475Z</time></trkpt><trkpt lat="43.9401632" lon="12.3602893"><ele>227.8</ele><time>2026-04-29T11:54:36.475Z</time></trkpt><trkpt lat="43.9402722" lon="12.360308"><ele>224.4</ele><time>2026-04-29T11:54:37.476Z</time></trkpt><trkpt lat="43.9403824" lon="12.3603479"><ele>221.0</ele><time>2026-04-29T11:54:38.475Z</time></trkpt><trkpt lat="43.9404972" lon="12.3603883"><ele>221.0</ele><time>2026-04-29T11:54:39.475Z</time></trkpt><trkpt lat="43.9406053" lon="12.3604325"><ele>221.00000000000003</ele><time>2026-04-29T11:54:40.475Z</time></trkpt><trkpt lat="43.9407004" lon="12.3604904"><ele>221.00000000000003</ele><time>2026-04-29T11:54:41.475Z</time></trkpt><trkpt lat="43.9407863" lon="12.3605603"><ele>221.0</ele><time>2026-04-29T11:54:42.475Z</time></trkpt><trkpt lat="43.9408723" lon="12.360639"><ele>221.0</ele><time>2026-04-29T11:54:43.475Z</time></trkpt><trkpt lat="43.9409673" lon="12.3607389"><ele>219.5</ele><time>2026-04-29T11:54:44.475Z</time></trkpt><trkpt lat="43.9410728" lon="12.3608426"><ele>218.0</ele><time>2026-04-29T11:54:45.475Z</time></trkpt><trkpt lat="43.9411802" lon="12.3609322"><ele>216.5</ele><time>2026-04-29T11:54:46.476Z</time></trkpt><trkpt lat="43.9412894" lon="12.3610152"><ele>215.0</ele><time>2026-04-29T11:54:47.476Z</time></trkpt><trkpt lat="43.9413942" lon="12.3610928"><ele>215.0</ele><time>2026-04-29T11:54:48.476Z</time></trkpt><trkpt lat="43.9415045" lon="12.3611654"><ele>215.0</ele><time>2026-04-29T11:54:49.475Z</time></trkpt><trkpt lat="43.9416222" lon="12.361227"><ele>215.0</ele><time>2026-04-29T11:54:50.475Z</time></trkpt><trkpt lat="43.9417481" lon="12.3612762"><ele>215.0</ele><time>2026-04-29T11:54:51.475Z</time></trkpt><trkpt lat="43.9418689" lon="12.3613359"><ele>214.0</ele><time>2026-04-29T11:54:52.475Z</time></trkpt><trkpt lat="43.941975" lon="12.3614018"><ele>213.0</ele><time>2026-04-29T11:54:53.475Z</time></trkpt><trkpt lat="43.9420761" lon="12.3614706"><ele>212.0</ele><time>2026-04-29T11:54:54.475Z</time></trkpt><trkpt lat="43.9421747" lon="12.361529"><ele>211.0</ele><time>2026-04-29T11:54:55.475Z</time></trkpt><trkpt lat="43.9422829" lon="12.3615675"><ele>210.0</ele><time>2026-04-29T11:54:56.475Z</time></trkpt><trkpt lat="43.9424031" lon="12.3615891"><ele>210.0</ele><time>2026-04-29T11:54:57.476Z</time></trkpt><trkpt lat="43.9425216" lon="12.3616093"><ele>210.0</ele><time>2026-04-29T11:54:58.476Z</time></trkpt><trkpt lat="43.9426313" lon="12.3616262"><ele>210.0</ele><time>2026-04-29T11:54:59.475Z</time></trkpt><trkpt lat="43.9427434" lon="12.3616411"><ele>210.0</ele><time>2026-04-29T11:55:00.475Z</time></trkpt><trkpt lat="43.9428494" lon="12.3616503"><ele>210.0</ele><time>2026-04-29T11:55:01.475Z</time></trkpt><trkpt lat="43.9429462" lon="12.3616715"><ele>208.2</ele><time>2026-04-29T11:55:02.475Z</time></trkpt><trkpt lat="43.9430372" lon="12.3617115"><ele>206.4</ele><time>2026-04-29T11:55:03.475Z</time></trkpt><trkpt lat="43.9431215" lon="12.3617705"><ele>204.60000000000002</ele><time>2026-04-29T11:55:04.475Z</time></trkpt><trkpt lat="43.9431998" lon="12.3618337"><ele>202.8</ele><time>2026-04-29T11:55:05.475Z</time></trkpt><trkpt lat="43.9432839" lon="12.3618801"><ele>201.0</ele><time>2026-04-29T11:55:06.475Z</time></trkpt><trkpt lat="43.943384" lon="12.3619126"><ele>199.0</ele><time>2026-04-29T11:55:07.475Z</time></trkpt><trkpt lat="43.9434924" lon="12.3619242"><ele>197.0</ele><time>2026-04-29T11:55:08.475Z</time></trkpt><trkpt lat="43.9436" lon="12.3619335"><ele>195.0</ele><time>2026-04-29T11:55:09.475Z</time></trkpt><trkpt lat="43.9437033" lon="12.3619523"><ele>193.0</ele><time>2026-04-29T11:55:10.475Z</time></trkpt><trkpt lat="43.943805" lon="12.3619595"><ele>191.0</ele><time>2026-04-29T11:55:11.476Z</time></trkpt><trkpt lat="43.9439034" lon="12.3619579"><ele>191.0</ele><time>2026-04-29T11:55:12.475Z</time></trkpt><trkpt lat="43.9439955" lon="12.3619384"><ele>191.0</ele><time>2026-04-29T11:55:13.475Z</time></trkpt><trkpt lat="43.9440864" lon="12.3619108"><ele>191.0</ele><time>2026-04-29T11:55:14.475Z</time></trkpt><trkpt lat="43.9441672" lon="12.3618767"><ele>191.0</ele><time>2026-04-29T11:55:15.475Z</time></trkpt><trkpt lat="43.9442498" lon="12.3618434"><ele>191.0</ele><time>2026-04-29T11:55:16.475Z</time></trkpt><trkpt lat="43.9443291" lon="12.361827"><ele>191.0</ele><time>2026-04-29T11:55:17.475Z</time></trkpt><trkpt lat="43.9444106" lon="12.3618269"><ele>189.4</ele><time>2026-04-29T11:55:18.475Z</time></trkpt><trkpt lat="43.9444969" lon="12.3618429"><ele>187.8</ele><time>2026-04-29T11:55:19.476Z</time></trkpt><trkpt lat="43.9445829" lon="12.3618714"><ele>186.20000000000002</ele><time>2026-04-29T11:55:20.475Z</time></trkpt><trkpt lat="43.9446712" lon="12.3619041"><ele>184.60000000000002</ele><time>2026-04-29T11:55:21.475Z</time></trkpt><trkpt lat="43.9447667" lon="12.3619299"><ele>183.0</ele><time>2026-04-29T11:55:22.475Z</time></trkpt><trkpt lat="43.9448592" lon="12.3619576"><ele>183.0</ele><time>2026-04-29T11:55:23.475Z</time></trkpt><trkpt lat="43.9449484" lon="12.3619916"><ele>183.0</ele><time>2026-04-29T11:55:24.475Z</time></trkpt><trkpt lat="43.9450382" lon="12.3620354"><ele>183.0</ele><time>2026-04-29T11:55:25.476Z</time></trkpt><trkpt lat="43.9451198" lon="12.3620822"><ele>183.0</ele><time>2026-04-29T11:55:26.475Z</time></trkpt><trkpt lat="43.945192" lon="12.3621406"><ele>183.0</ele><time>2026-04-29T11:55:27.475Z</time></trkpt><trkpt lat="43.9452613" lon="12.3622209"><ele>182.25</ele><time>2026-04-29T11:55:28.475Z</time></trkpt><trkpt lat="43.9453268" lon="12.3623353"><ele>181.5</ele><time>2026-04-29T11:55:29.476Z</time></trkpt><trkpt lat="43.9453946" lon="12.3624726"><ele>180.75</ele><time>2026-04-29T11:55:30.475Z</time></trkpt><trkpt lat="43.9454652" lon="12.3626247"><ele>180.0</ele><time>2026-04-29T11:55:31.475Z</time></trkpt><trkpt lat="43.9455329" lon="12.3627795"><ele>180.0</ele><time>2026-04-29T11:55:32.476Z</time></trkpt><trkpt lat="43.9455959" lon="12.362919"><ele>180.0</ele><time>2026-04-29T11:55:33.475Z</time></trkpt><trkpt lat="43.9456622" lon="12.3630512"><ele>180.0</ele><time>2026-04-29T11:55:34.475Z</time></trkpt><trkpt lat="43.9457334" lon="12.3631759"><ele>180.0</ele><time>2026-04-29T11:55:35.475Z</time></trkpt><trkpt lat="43.9458096" lon="12.3632969"><ele>179.4</ele><time>2026-04-29T11:55:36.476Z</time></trkpt><trkpt lat="43.9458945" lon="12.3634105"><ele>178.8</ele><time>2026-04-29T11:55:37.476Z</time></trkpt><trkpt lat="43.9459782" lon="12.3635072"><ele>178.2</ele><time>2026-04-29T11:55:38.475Z</time></trkpt><trkpt lat="43.9460601" lon="12.3636012"><ele>177.6</ele><time>2026-04-29T11:55:39.475Z</time></trkpt><trkpt lat="43.94614" lon="12.3636882"><ele>177.0</ele><time>2026-04-29T11:55:40.475Z</time></trkpt><trkpt lat="43.946216" lon="12.3637696"><ele>177.0</ele><time>2026-04-29T11:55:41.475Z</time></trkpt><trkpt lat="43.9462876" lon="12.3638419"><ele>177.0</ele><time>2026-04-29T11:55:42.475Z</time></trkpt><trkpt lat="43.946356" lon="12.3639113"><ele>177.0</ele><time>2026-04-29T11:55:43.475Z</time></trkpt><trkpt lat="43.94642" lon="12.3639794"><ele>177.0</ele><time>2026-04-29T11:55:44.475Z</time></trkpt><trkpt lat="43.9464802" lon="12.3640476"><ele>177.0</ele><time>2026-04-29T11:55:45.475Z</time></trkpt><trkpt lat="43.9465412" lon="12.3641096"><ele>177.0</ele><time>2026-04-29T11:55:46.475Z</time></trkpt><trkpt lat="43.9466016" lon="12.3641719"><ele>177.16666666666666</ele><time>2026-04-29T11:55:47.475Z</time></trkpt><trkpt lat="43.9466629" lon="12.3642329"><ele>177.33333333333334</ele><time>2026-04-29T11:55:48.475Z</time></trkpt><trkpt lat="43.9467202" lon="12.3642986"><ele>177.5</ele><time>2026-04-29T11:55:49.475Z</time></trkpt><trkpt lat="43.9467814" lon="12.3643694"><ele>177.66666666666669</ele><time>2026-04-29T11:55:50.475Z</time></trkpt><trkpt lat="43.946846" lon="12.3644366"><ele>177.83333333333334</ele><time>2026-04-29T11:55:51.475Z</time></trkpt><trkpt lat="43.9469085" lon="12.3644998"><ele>178.0</ele><time>2026-04-29T11:55:52.475Z</time></trkpt><trkpt lat="43.9469712" lon="12.3645568"><ele>177.60000000000002</ele><time>2026-04-29T11:55:53.475Z</time></trkpt><trkpt lat="43.9470404" lon="12.3646153"><ele>177.20000000000002</ele><time>2026-04-29T11:55:54.475Z</time></trkpt><trkpt lat="43.9471173" lon="12.3646768"><ele>176.8</ele><time>2026-04-29T11:55:55.476Z</time></trkpt><trkpt lat="43.9472014" lon="12.3647301"><ele>176.4</ele><time>2026-04-29T11:55:56.475Z</time></trkpt><trkpt lat="43.9472913" lon="12.3647954"><ele>176.0</ele><time>2026-04-29T11:55:57.475Z</time></trkpt><trkpt lat="43.9473829" lon="12.3648583"><ele>176.0</ele><time>2026-04-29T11:55:58.476Z</time></trkpt><trkpt lat="43.9474744" lon="12.3649178"><ele>176.0</ele><time>2026-04-29T11:55:59.475Z</time></trkpt><trkpt lat="43.9475607" lon="12.3649706"><ele>176.0</ele><time>2026-04-29T11:56:00.475Z</time></trkpt><trkpt lat="43.9476379" lon="12.3650215"><ele>176.0</ele><time>2026-04-29T11:56:01.475Z</time></trkpt><trkpt lat="43.9477021" lon="12.365068"><ele>176.0</ele><time>2026-04-29T11:56:02.475Z</time></trkpt><trkpt lat="43.9477672" lon="12.3651116"><ele>176.0</ele><time>2026-04-29T11:56:03.476Z</time></trkpt><trkpt lat="43.9478383" lon="12.3651654"><ele>174.8</ele><time>2026-04-29T11:56:05.475Z</time></trkpt><trkpt lat="43.9478877" lon="12.3652277"><ele>173.60000000000002</ele><time>2026-04-29T11:56:17.475Z</time></trkpt><trkpt lat="43.9478779" lon="12.3653426"><ele>172.4</ele><time>2026-04-29T11:56:20.475Z</time></trkpt><trkpt lat="43.9477568" lon="12.3654291"><ele>171.2</ele><time>2026-04-29T11:56:22.476Z</time></trkpt><trkpt lat="43.9476691" lon="12.3654464"><ele>170.0</ele><time>2026-04-29T11:56:23.475Z</time></trkpt><trkpt lat="43.9475693" lon="12.3654619"><ele>170.0</ele><time>2026-04-29T11:56:24.475Z</time></trkpt><trkpt lat="43.9474517" lon="12.365481"><ele>170.0</ele><time>2026-04-29T11:56:25.475Z</time></trkpt><trkpt lat="43.9473255" lon="12.3654976"><ele>170.0</ele><time>2026-04-29T11:56:26.475Z</time></trkpt><trkpt lat="43.9471907" lon="12.3655177"><ele>170.0</ele><time>2026-04-29T11:56:27.475Z</time></trkpt><trkpt lat="43.9470519" lon="12.365542"><ele>170.0</ele><time>2026-04-29T11:56:28.476Z</time></trkpt><trkpt lat="43.9469101" lon="12.3655821"><ele>170.0</ele><time>2026-04-29T11:56:29.475Z</time></trkpt><trkpt lat="43.9467642" lon="12.365646"><ele>170.0</ele><time>2026-04-29T11:56:30.475Z</time></trkpt><trkpt lat="43.9466266" lon="12.3657431"><ele>171.33333333333331</ele><time>2026-04-29T11:56:31.475Z</time></trkpt><trkpt lat="43.9465002" lon="12.3658527"><ele>172.66666666666666</ele><time>2026-04-29T11:56:32.475Z</time></trkpt><trkpt lat="43.9463732" lon="12.3659695"><ele>174.0</ele><time>2026-04-29T11:56:33.475Z</time></trkpt><trkpt lat="43.9462505" lon="12.3660877"><ele>174.0</ele><time>2026-04-29T11:56:34.475Z</time></trkpt><trkpt lat="43.9461267" lon="12.3662066"><ele>174.0</ele><time>2026-04-29T11:56:35.475Z</time></trkpt><trkpt lat="43.9460008" lon="12.3663268"><ele>174.0</ele><time>2026-04-29T11:56:36.475Z</time></trkpt><trkpt lat="43.9458765" lon="12.3664482"><ele>174.5</ele><time>2026-04-29T11:56:37.476Z</time></trkpt><trkpt lat="43.9457523" lon="12.366568"><ele>175.0</ele><time>2026-04-29T11:56:38.475Z</time></trkpt><trkpt lat="43.9456319" lon="12.3666848"><ele>175.5</ele><time>2026-04-29T11:56:39.475Z</time></trkpt><trkpt lat="43.94552" lon="12.3668095"><ele>176.0</ele><time>2026-04-29T11:56:40.475Z</time></trkpt><trkpt lat="43.9454153" lon="12.3669506"><ele>176.0</ele><time>2026-04-29T11:56:41.475Z</time></trkpt><trkpt lat="43.9453209" lon="12.3671126"><ele>176.0</ele><time>2026-04-29T11:56:42.475Z</time></trkpt><trkpt lat="43.9452338" lon="12.3672967"><ele>176.0</ele><time>2026-04-29T11:56:43.476Z</time></trkpt><trkpt lat="43.9451504" lon="12.367484"><ele>175.66666666666666</ele><time>2026-04-29T11:56:44.475Z</time></trkpt><trkpt lat="43.9450692" lon="12.3676767"><ele>175.33333333333334</ele><time>2026-04-29T11:56:45.475Z</time></trkpt><trkpt lat="43.944991" lon="12.3678687"><ele>175.0</ele><time>2026-04-29T11:56:46.476Z</time></trkpt><trkpt lat="43.9449178" lon="12.3680519"><ele>175.0</ele><time>2026-04-29T11:56:47.475Z</time></trkpt><trkpt lat="43.9448458" lon="12.3682322"><ele>175.0</ele><time>2026-04-29T11:56:48.475Z</time></trkpt><trkpt lat="43.9447689" lon="12.368402"><ele>175.0</ele><time>2026-04-29T11:56:49.475Z</time></trkpt><trkpt lat="43.9446908" lon="12.3685733"><ele>175.0</ele><time>2026-04-29T11:56:50.475Z</time></trkpt><trkpt lat="43.9445968" lon="12.3687485"><ele>173.33333333333334</ele><time>2026-04-29T11:56:51.476Z</time></trkpt><trkpt lat="43.9444849" lon="12.3689217"><ele>171.66666666666666</ele><time>2026-04-29T11:56:52.475Z</time></trkpt><trkpt lat="43.9443565" lon="12.3690945"><ele>170.0</ele><time>2026-04-29T11:56:53.475Z</time></trkpt><trkpt lat="43.9442217" lon="12.3692709"><ele>170.0</ele><time>2026-04-29T11:56:54.476Z</time></trkpt><trkpt lat="43.9440818" lon="12.369446"><ele>170.0</ele><time>2026-04-29T11:56:55.475Z</time></trkpt><trkpt lat="43.9439419" lon="12.369625"><ele>170.0</ele><time>2026-04-29T11:56:56.476Z</time></trkpt><trkpt lat="43.9437993" lon="12.3698072"><ele>170.0</ele><time>2026-04-29T11:56:57.475Z</time></trkpt><trkpt lat="43.9436574" lon="12.3699844"><ele>170.0</ele><time>2026-04-29T11:56:58.475Z</time></trkpt><trkpt lat="43.9435179" lon="12.3701654"><ele>170.0</ele><time>2026-04-29T11:56:59.475Z</time></trkpt><trkpt lat="43.9433778" lon="12.3703418"><ele>171.66666666666666</ele><time>2026-04-29T11:57:00.475Z</time></trkpt><trkpt lat="43.9432353" lon="12.3705162"><ele>173.33333333333334</ele><time>2026-04-29T11:57:01.475Z</time></trkpt><trkpt lat="43.9430946" lon="12.3706896"><ele>175.0</ele><time>2026-04-29T11:57:02.475Z</time></trkpt><trkpt lat="43.9429501" lon="12.3708618"><ele>175.0</ele><time>2026-04-29T11:57:03.475Z</time></trkpt><trkpt lat="43.9428077" lon="12.3710258"><ele>175.0</ele><time>2026-04-29T11:57:04.475Z</time></trkpt><trkpt lat="43.9426751" lon="12.3711781"><ele>175.0</ele><time>2026-04-29T11:57:05.475Z</time></trkpt><trkpt lat="43.9425485" lon="12.371313"><ele>175.25</ele><time>2026-04-29T11:57:06.475Z</time></trkpt><trkpt lat="43.9424268" lon="12.371436"><ele>175.5</ele><time>2026-04-29T11:57:07.475Z</time></trkpt><trkpt lat="43.9423086" lon="12.3715328"><ele>175.75</ele><time>2026-04-29T11:57:08.475Z</time></trkpt><trkpt lat="43.9421749" lon="12.3716036"><ele>176.0</ele><time>2026-04-29T11:57:09.475Z</time></trkpt><trkpt lat="43.9420299" lon="12.3716463"><ele>176.0</ele><time>2026-04-29T11:57:10.475Z</time></trkpt><trkpt lat="43.9418789" lon="12.3716725"><ele>176.0</ele><time>2026-04-29T11:57:11.475Z</time></trkpt><trkpt lat="43.9417266" lon="12.371704"><ele>176.0</ele><time>2026-04-29T11:57:12.475Z</time></trkpt><trkpt lat="43.9415872" lon="12.3717557"><ele>177.66666666666666</ele><time>2026-04-29T11:57:13.475Z</time></trkpt><trkpt lat="43.9414617" lon="12.3718504"><ele>179.33333333333334</ele><time>2026-04-29T11:57:14.475Z</time></trkpt><trkpt lat="43.9413464" lon="12.3719891"><ele>181.0</ele><time>2026-04-29T11:57:15.475Z</time></trkpt><trkpt lat="43.9412407" lon="12.3721599"><ele>179.66666666666669</ele><time>2026-04-29T11:57:16.475Z</time></trkpt><trkpt lat="43.9411354" lon="12.3723489"><ele>178.33333333333334</ele><time>2026-04-29T11:57:17.475Z</time></trkpt><trkpt lat="43.9410319" lon="12.3725448"><ele>177.0</ele><time>2026-04-29T11:57:18.475Z</time></trkpt><trkpt lat="43.9409384" lon="12.3727512"><ele>177.66666666666666</ele><time>2026-04-29T11:57:19.475Z</time></trkpt><trkpt lat="43.9408521" lon="12.3729736"><ele>178.33333333333331</ele><time>2026-04-29T11:57:20.475Z</time></trkpt><trkpt lat="43.9407803" lon="12.3732118"><ele>179.0</ele><time>2026-04-29T11:57:21.475Z</time></trkpt><trkpt lat="43.9407247" lon="12.3734622"><ele>179.0</ele><time>2026-04-29T11:57:22.475Z</time></trkpt><trkpt lat="43.9406732" lon="12.373725"><ele>179.0</ele><time>2026-04-29T11:57:23.475Z</time></trkpt><trkpt lat="43.9406144" lon="12.3739911"><ele>179.0</ele><time>2026-04-29T11:57:24.475Z</time></trkpt><trkpt lat="43.9405541" lon="12.3742581"><ele>179.0</ele><time>2026-04-29T11:57:25.475Z</time></trkpt><trkpt lat="43.9404966" lon="12.3745254"><ele>179.0</ele><time>2026-04-29T11:57:26.475Z</time></trkpt><trkpt lat="43.940441" lon="12.3747893"><ele>179.0</ele><time>2026-04-29T11:57:27.475Z</time></trkpt><trkpt lat="43.940387" lon="12.3750478"><ele>179.0</ele><time>2026-04-29T11:57:28.475Z</time></trkpt><trkpt lat="43.9403389" lon="12.3753004"><ele>179.0</ele><time>2026-04-29T11:57:29.475Z</time></trkpt><trkpt lat="43.9402922" lon="12.3755376"><ele>179.0</ele><time>2026-04-29T11:57:30.475Z</time></trkpt><trkpt lat="43.9402457" lon="12.3757581"><ele>179.66666666666666</ele><time>2026-04-29T11:57:31.475Z</time></trkpt><trkpt lat="43.940194" lon="12.3759689"><ele>180.33333333333334</ele><time>2026-04-29T11:57:32.475Z</time></trkpt><trkpt lat="43.9401409" lon="12.3761659"><ele>181.0</ele><time>2026-04-29T11:57:33.475Z</time></trkpt><trkpt lat="43.9400653" lon="12.3763482"><ele>184.66666666666669</ele><time>2026-04-29T11:57:34.475Z</time></trkpt><trkpt lat="43.9399649" lon="12.3765145"><ele>188.33333333333334</ele><time>2026-04-29T11:57:35.475Z</time></trkpt><trkpt lat="43.9398376" lon="12.3766782"><ele>192.0</ele><time>2026-04-29T11:57:36.475Z</time></trkpt><trkpt lat="43.9397048" lon="12.3768291"><ele>192.0</ele><time>2026-04-29T11:57:37.476Z</time></trkpt><trkpt lat="43.9395735" lon="12.376969"><ele>192.0</ele><time>2026-04-29T11:57:38.475Z</time></trkpt><trkpt lat="43.9394372" lon="12.377085"><ele>192.0</ele><time>2026-04-29T11:57:39.476Z</time></trkpt><trkpt lat="43.939293" lon="12.3771797"><ele>192.0</ele><time>2026-04-29T11:57:40.475Z</time></trkpt><trkpt lat="43.9391308" lon="12.3772589"><ele>192.0</ele><time>2026-04-29T11:57:41.475Z</time></trkpt><trkpt lat="43.9389618" lon="12.3773417"><ele>192.0</ele><time>2026-04-29T11:57:42.475Z</time></trkpt><trkpt lat="43.9387827" lon="12.3774226"><ele>192.0</ele><time>2026-04-29T11:57:43.475Z</time></trkpt><trkpt lat="43.9386027" lon="12.3775103"><ele>192.0</ele><time>2026-04-29T11:57:44.475Z</time></trkpt><trkpt lat="43.9384171" lon="12.3775966"><ele>192.0</ele><time>2026-04-29T11:57:45.475Z</time></trkpt><trkpt lat="43.9382357" lon="12.3776862"><ele>195.66666666666669</ele><time>2026-04-29T11:57:46.475Z</time></trkpt><trkpt lat="43.9380562" lon="12.3777737"><ele>199.33333333333334</ele><time>2026-04-29T11:57:47.475Z</time></trkpt><trkpt lat="43.9378787" lon="12.3778627"><ele>203.0</ele><time>2026-04-29T11:57:48.475Z</time></trkpt><trkpt lat="43.9377042" lon="12.3779619"><ele>201.33333333333334</ele><time>2026-04-29T11:57:49.475Z</time></trkpt><trkpt lat="43.937536" lon="12.3780686"><ele>199.66666666666669</ele><time>2026-04-29T11:57:50.475Z</time></trkpt><trkpt lat="43.9373688" lon="12.3781864"><ele>198.0</ele><time>2026-04-29T11:57:51.475Z</time></trkpt><trkpt lat="43.9372088" lon="12.3783003"><ele>198.0</ele><time>2026-04-29T11:57:52.475Z</time></trkpt><trkpt lat="43.937058" lon="12.3784115"><ele>198.0</ele><time>2026-04-29T11:57:53.475Z</time></trkpt><trkpt lat="43.9369202" lon="12.3785161"><ele>198.0</ele><time>2026-04-29T11:57:54.475Z</time></trkpt><trkpt lat="43.9367928" lon="12.3786092"><ele>198.0</ele><time>2026-04-29T11:57:55.475Z</time></trkpt><trkpt lat="43.9366736" lon="12.3786955"><ele>198.0</ele><time>2026-04-29T11:57:56.475Z</time></trkpt><trkpt lat="43.9365673" lon="12.3787801"><ele>198.0</ele><time>2026-04-29T11:57:57.475Z</time></trkpt><trkpt lat="43.9364623" lon="12.3788601"><ele>198.0</ele><time>2026-04-29T11:57:58.475Z</time></trkpt><trkpt lat="43.9363603" lon="12.3789318"><ele>198.0</ele><time>2026-04-29T11:57:59.476Z</time></trkpt><trkpt lat="43.9362696" lon="12.3789886"><ele>198.0</ele><time>2026-04-29T11:58:00.475Z</time></trkpt><trkpt lat="43.9361823" lon="12.3790421"><ele>198.0</ele><time>2026-04-29T11:58:01.475Z</time></trkpt><trkpt lat="43.9361017" lon="12.3790984"><ele>198.0</ele><time>2026-04-29T11:58:02.475Z</time></trkpt><trkpt lat="43.9360349" lon="12.379162"><ele>198.0</ele><time>2026-04-29T11:58:03.475Z</time></trkpt><trkpt lat="43.9359766" lon="12.3792293"><ele>198.0</ele><time>2026-04-29T11:58:04.475Z</time></trkpt><trkpt lat="43.9359192" lon="12.3792989"><ele>198.5</ele><time>2026-04-29T11:58:05.475Z</time></trkpt><trkpt lat="43.9358585" lon="12.3793627"><ele>199.0</ele><time>2026-04-29T11:58:06.475Z</time></trkpt><trkpt lat="43.9357977" lon="12.3794172"><ele>199.5</ele><time>2026-04-29T11:58:07.475Z</time></trkpt><trkpt lat="43.9356923" lon="12.3794833"><ele>200.0</ele><time>2026-04-29T11:58:09.475Z</time></trkpt><trkpt lat="43.9356153" lon="12.3795228"><ele>200.5</ele><time>2026-04-29T11:58:11.475Z</time></trkpt><trkpt lat="43.9355537" lon="12.3795583"><ele>201.0</ele><time>2026-04-29T11:58:14.475Z</time></trkpt><trkpt lat="43.9356219" lon="12.3795443"><ele>201.0</ele><time>2026-04-29T11:58:20.475Z</time></trkpt><trkpt lat="43.93568" lon="12.3794896"><ele>201.0</ele><time>2026-04-29T11:58:21.475Z</time></trkpt><trkpt lat="43.9357548" lon="12.3794365"><ele>201.0</ele><time>2026-04-29T11:58:22.475Z</time></trkpt><trkpt lat="43.935839" lon="12.3793806"><ele>201.0</ele><time>2026-04-29T11:58:23.475Z</time></trkpt><trkpt lat="43.9359064" lon="12.3793283"><ele>201.0</ele><time>2026-04-29T11:58:24.475Z</time></trkpt><trkpt lat="43.9359886" lon="12.3792429"><ele>201.0</ele><time>2026-04-29T11:58:26.475Z</time></trkpt><trkpt lat="43.9359974" lon="12.37914"><ele>201.0</ele><time>2026-04-29T11:58:29.475Z</time></trkpt><trkpt lat="43.9358876" lon="12.3791183"><ele>201.0</ele><time>2026-04-29T11:58:31.476Z</time></trkpt><trkpt lat="43.935799" lon="12.3791381"><ele>201.0</ele><time>2026-04-29T11:58:32.475Z</time></trkpt><trkpt lat="43.9356767" lon="12.3791932"><ele>201.0</ele><time>2026-04-29T11:58:33.475Z</time></trkpt><trkpt lat="43.9355348" lon="12.3792442"><ele>201.0</ele><time>2026-04-29T11:58:34.475Z</time></trkpt><trkpt lat="43.9353631" lon="12.3793022"><ele>201.0</ele><time>2026-04-29T11:58:35.476Z</time></trkpt><trkpt lat="43.9351793" lon="12.3793618"><ele>201.0</ele><time>2026-04-29T11:58:36.475Z</time></trkpt><trkpt lat="43.934989" lon="12.3794196"><ele>202.66666666666669</ele><time>2026-04-29T11:58:37.475Z</time></trkpt><trkpt lat="43.9348063" lon="12.3794677"><ele>204.33333333333334</ele><time>2026-04-29T11:58:38.475Z</time></trkpt><trkpt lat="43.9346319" lon="12.3795003"><ele>206.0</ele><time>2026-04-29T11:58:39.475Z</time></trkpt><trkpt lat="43.9344646" lon="12.3795102"><ele>206.0</ele><time>2026-04-29T11:58:40.475Z</time></trkpt><trkpt lat="43.9342902" lon="12.3795005"><ele>206.0</ele><time>2026-04-29T11:58:41.475Z</time></trkpt><trkpt lat="43.9341066" lon="12.3794771"><ele>206.0</ele><time>2026-04-29T11:58:42.475Z</time></trkpt><trkpt lat="43.9339178" lon="12.3794452"><ele>207.0</ele><time>2026-04-29T11:58:43.475Z</time></trkpt><trkpt lat="43.9337233" lon="12.3794174"><ele>208.0</ele><time>2026-04-29T11:58:44.475Z</time></trkpt><trkpt lat="43.9335186" lon="12.3793919"><ele>209.0</ele><time>2026-04-29T11:58:45.475Z</time></trkpt><trkpt lat="43.9333109" lon="12.3793651"><ele>209.33333333333334</ele><time>2026-04-29T11:58:46.475Z</time></trkpt><trkpt lat="43.9331088" lon="12.379338"><ele>209.66666666666669</ele><time>2026-04-29T11:58:47.475Z</time></trkpt><trkpt lat="43.932922" lon="12.3793211"><ele>210.0</ele><time>2026-04-29T11:58:48.476Z</time></trkpt><trkpt lat="43.9327392" lon="12.3793097"><ele>210.0</ele><time>2026-04-29T11:58:49.475Z</time></trkpt><trkpt lat="43.9325574" lon="12.3793113"><ele>210.0</ele><time>2026-04-29T11:58:50.475Z</time></trkpt><trkpt lat="43.9323723" lon="12.3793283"><ele>210.0</ele><time>2026-04-29T11:58:51.475Z</time></trkpt><trkpt lat="43.9321939" lon="12.3793548"><ele>209.33333333333331</ele><time>2026-04-29T11:58:52.475Z</time></trkpt><trkpt lat="43.9320276" lon="12.3793788"><ele>208.66666666666666</ele><time>2026-04-29T11:58:53.475Z</time></trkpt><trkpt lat="43.931866" lon="12.3793898"><ele>208.0</ele><time>2026-04-29T11:58:54.475Z</time></trkpt><trkpt lat="43.9317015" lon="12.379377"><ele>208.0</ele><time>2026-04-29T11:58:55.475Z</time></trkpt><trkpt lat="43.93153" lon="12.3793289"><ele>208.0</ele><time>2026-04-29T11:58:56.475Z</time></trkpt><trkpt lat="43.9313485" lon="12.3792504"><ele>208.0</ele><time>2026-04-29T11:58:57.475Z</time></trkpt><trkpt lat="43.9311669" lon="12.3791608"><ele>208.0</ele><time>2026-04-29T11:58:58.475Z</time></trkpt><trkpt lat="43.9309833" lon="12.3790772"><ele>208.0</ele><time>2026-04-29T11:58:59.475Z</time></trkpt><trkpt lat="43.930795" lon="12.3790137"><ele>208.0</ele><time>2026-04-29T11:59:00.475Z</time></trkpt><trkpt lat="43.9306072" lon="12.3789643"><ele>210.0</ele><time>2026-04-29T11:59:01.475Z</time></trkpt><trkpt lat="43.9304315" lon="12.3789283"><ele>212.0</ele><time>2026-04-29T11:59:02.475Z</time></trkpt><trkpt lat="43.9302721" lon="12.3789174"><ele>214.0</ele><time>2026-04-29T11:59:03.475Z</time></trkpt><trkpt lat="43.9301219" lon="12.3789405"><ele>216.66666666666666</ele><time>2026-04-29T11:59:04.475Z</time></trkpt><trkpt lat="43.9299761" lon="12.3790024"><ele>219.33333333333331</ele><time>2026-04-29T11:59:05.475Z</time></trkpt><trkpt lat="43.9298365" lon="12.3791057"><ele>222.0</ele><time>2026-04-29T11:59:06.475Z</time></trkpt><trkpt lat="43.929703" lon="12.3792308"><ele>222.0</ele><time>2026-04-29T11:59:07.476Z</time></trkpt><trkpt lat="43.9295695" lon="12.3793553"><ele>222.0</ele><time>2026-04-29T11:59:08.475Z</time></trkpt><trkpt lat="43.9294341" lon="12.3794573"><ele>222.0</ele><time>2026-04-29T11:59:09.475Z</time></trkpt><trkpt lat="43.92929" lon="12.3795404"><ele>220.66666666666669</ele><time>2026-04-29T11:59:10.475Z</time></trkpt><trkpt lat="43.9291312" lon="12.3796073"><ele>219.33333333333334</ele><time>2026-04-29T11:59:11.475Z</time></trkpt><trkpt lat="43.9289682" lon="12.379677"><ele>218.0</ele><time>2026-04-29T11:59:12.475Z</time></trkpt><trkpt lat="43.928805" lon="12.3797469"><ele>218.0</ele><time>2026-04-29T11:59:13.475Z</time></trkpt><trkpt lat="43.9286428" lon="12.3798256"><ele>218.0</ele><time>2026-04-29T11:59:14.475Z</time></trkpt><trkpt lat="43.9284816" lon="12.3799131"><ele>218.0</ele><time>2026-04-29T11:59:15.475Z</time></trkpt><trkpt lat="43.9283195" lon="12.3800037"><ele>221.0</ele><time>2026-04-29T11:59:16.475Z</time></trkpt><trkpt lat="43.92816" lon="12.380079"><ele>224.0</ele><time>2026-04-29T11:59:17.475Z</time></trkpt><trkpt lat="43.9280181" lon="12.3801509"><ele>227.0</ele><time>2026-04-29T11:59:18.475Z</time></trkpt><trkpt lat="43.9278903" lon="12.3802169"><ele>227.0</ele><time>2026-04-29T11:59:19.475Z</time></trkpt><trkpt lat="43.9277547" lon="12.3802748"><ele>227.0</ele><time>2026-04-29T11:59:20.475Z</time></trkpt><trkpt lat="43.9276303" lon="12.3803187"><ele>227.0</ele><time>2026-04-29T11:59:21.476Z</time></trkpt><trkpt lat="43.9275032" lon="12.3803416"><ele>227.0</ele><time>2026-04-29T11:59:22.475Z</time></trkpt><trkpt lat="43.9273683" lon="12.3803249"><ele>229.0</ele><time>2026-04-29T11:59:23.475Z</time></trkpt><trkpt lat="43.9272228" lon="12.3802608"><ele>231.0</ele><time>2026-04-29T11:59:24.475Z</time></trkpt><trkpt lat="43.927064" lon="12.3801666"><ele>233.0</ele><time>2026-04-29T11:59:25.475Z</time></trkpt><trkpt lat="43.9268984" lon="12.380076"><ele>233.0</ele><time>2026-04-29T11:59:26.475Z</time></trkpt><trkpt lat="43.926733" lon="12.3799968"><ele>233.0</ele><time>2026-04-29T11:59:27.475Z</time></trkpt><trkpt lat="43.9265722" lon="12.3799197"><ele>233.0</ele><time>2026-04-29T11:59:28.475Z</time></trkpt><trkpt lat="43.9264145" lon="12.3798421"><ele>232.33333333333334</ele><time>2026-04-29T11:59:29.475Z</time></trkpt><trkpt lat="43.9262602" lon="12.379766"><ele>231.66666666666669</ele><time>2026-04-29T11:59:30.475Z</time></trkpt><trkpt lat="43.9261135" lon="12.3796947"><ele>231.0</ele><time>2026-04-29T11:59:31.475Z</time></trkpt><trkpt lat="43.9259736" lon="12.379635"><ele>232.33333333333331</ele><time>2026-04-29T11:59:32.475Z</time></trkpt><trkpt lat="43.9258255" lon="12.3795994"><ele>233.66666666666666</ele><time>2026-04-29T11:59:33.475Z</time></trkpt><trkpt lat="43.9256748" lon="12.3795812"><ele>235.0</ele><time>2026-04-29T11:59:34.475Z</time></trkpt><trkpt lat="43.9255194" lon="12.3795849"><ele>235.0</ele><time>2026-04-29T11:59:35.475Z</time></trkpt><trkpt lat="43.9253611" lon="12.3795987"><ele>235.0</ele><time>2026-04-29T11:59:36.475Z</time></trkpt><trkpt lat="43.9252059" lon="12.3796174"><ele>235.0</ele><time>2026-04-29T11:59:37.475Z</time></trkpt><trkpt lat="43.9250538" lon="12.3796531"><ele>233.33333333333331</ele><time>2026-04-29T11:59:38.475Z</time></trkpt><trkpt lat="43.9249008" lon="12.3797166"><ele>231.66666666666669</ele><time>2026-04-29T11:59:39.475Z</time></trkpt><trkpt lat="43.9247466" lon="12.3798138"><ele>230.0</ele><time>2026-04-29T11:59:40.476Z</time></trkpt><trkpt lat="43.9245926" lon="12.3799281"><ele>230.0</ele><time>2026-04-29T11:59:41.475Z</time></trkpt><trkpt lat="43.9244422" lon="12.3800329"><ele>230.0</ele><time>2026-04-29T11:59:42.475Z</time></trkpt><trkpt lat="43.924303" lon="12.380122"><ele>230.0</ele><time>2026-04-29T11:59:43.475Z</time></trkpt><trkpt lat="43.9241811" lon="12.3801896"><ele>231.5</ele><time>2026-04-29T11:59:44.476Z</time></trkpt><trkpt lat="43.9240641" lon="12.3802175"><ele>233.0</ele><time>2026-04-29T11:59:45.475Z</time></trkpt><trkpt lat="43.9239428" lon="12.3802039"><ele>234.5</ele><time>2026-04-29T11:59:46.475Z</time></trkpt><trkpt lat="43.9238216" lon="12.3801502"><ele>236.0</ele><time>2026-04-29T11:59:47.475Z</time></trkpt><trkpt lat="43.923706" lon="12.3800561"><ele>236.0</ele><time>2026-04-29T11:59:48.475Z</time></trkpt><trkpt lat="43.9235954" lon="12.379927"><ele>236.0</ele><time>2026-04-29T11:59:49.476Z</time></trkpt><trkpt lat="43.9234945" lon="12.3797712"><ele>236.0</ele><time>2026-04-29T11:59:50.475Z</time></trkpt><trkpt lat="43.9233977" lon="12.3796097"><ele>236.0</ele><time>2026-04-29T11:59:51.476Z</time></trkpt><trkpt lat="43.9232996" lon="12.3794427"><ele>237.25</ele><time>2026-04-29T11:59:52.475Z</time></trkpt><trkpt lat="43.9231951" lon="12.3792938"><ele>238.5</ele><time>2026-04-29T11:59:53.475Z</time></trkpt><trkpt lat="43.923077" lon="12.3791824"><ele>239.75</ele><time>2026-04-29T11:59:54.475Z</time></trkpt><trkpt lat="43.9229453" lon="12.3790935"><ele>241.0</ele><time>2026-04-29T11:59:55.475Z</time></trkpt><trkpt lat="43.922801" lon="12.3790134"><ele>241.0</ele><time>2026-04-29T11:59:56.475Z</time></trkpt><trkpt lat="43.9226418" lon="12.3789288"><ele>241.0</ele><time>2026-04-29T11:59:57.475Z</time></trkpt><trkpt lat="43.9224736" lon="12.3788361"><ele>241.0</ele><time>2026-04-29T11:59:58.475Z</time></trkpt><trkpt lat="43.9223044" lon="12.3787331"><ele>243.66666666666666</ele><time>2026-04-29T11:59:59.475Z</time></trkpt><trkpt lat="43.9221413" lon="12.3786188"><ele>246.33333333333331</ele><time>2026-04-29T12:00:00.475Z</time></trkpt><trkpt lat="43.9219818" lon="12.3785031"><ele>249.0</ele><time>2026-04-29T12:00:01.475Z</time></trkpt><trkpt lat="43.9218326" lon="12.3784001"><ele>247.66666666666669</ele><time>2026-04-29T12:00:02.475Z</time></trkpt><trkpt lat="43.9216859" lon="12.3783153"><ele>246.33333333333334</ele><time>2026-04-29T12:00:03.476Z</time></trkpt><trkpt lat="43.921544" lon="12.3782374"><ele>245.0</ele><time>2026-04-29T12:00:04.475Z</time></trkpt><trkpt lat="43.9213976" lon="12.3781866"><ele>245.0</ele><time>2026-04-29T12:00:05.476Z</time></trkpt><trkpt lat="43.9212442" lon="12.378166"><ele>245.0</ele><time>2026-04-29T12:00:06.475Z</time></trkpt><trkpt lat="43.9210887" lon="12.3781693"><ele>245.0</ele><time>2026-04-29T12:00:07.475Z</time></trkpt><trkpt lat="43.920934" lon="12.3781833"><ele>245.0</ele><time>2026-04-29T12:00:08.475Z</time></trkpt><trkpt lat="43.9207778" lon="12.378217"><ele>245.0</ele><time>2026-04-29T12:00:09.475Z</time></trkpt><trkpt lat="43.9206287" lon="12.3782746"><ele>245.0</ele><time>2026-04-29T12:00:10.475Z</time></trkpt><trkpt lat="43.920493" lon="12.3783437"><ele>245.0</ele><time>2026-04-29T12:00:11.475Z</time></trkpt><trkpt lat="43.9203739" lon="12.3784252"><ele>245.0</ele><time>2026-04-29T12:00:12.475Z</time></trkpt><trkpt lat="43.920265" lon="12.3785084"><ele>245.0</ele><time>2026-04-29T12:00:13.475Z</time></trkpt><trkpt lat="43.9201745" lon="12.3785996"><ele>245.0</ele><time>2026-04-29T12:00:14.475Z</time></trkpt><trkpt lat="43.9201029" lon="12.3786974"><ele>246.5</ele><time>2026-04-29T12:00:15.475Z</time></trkpt><trkpt lat="43.9200367" lon="12.3788124"><ele>248.0</ele><time>2026-04-29T12:00:16.475Z</time></trkpt><trkpt lat="43.9199601" lon="12.3789354"><ele>249.5</ele><time>2026-04-29T12:00:17.475Z</time></trkpt><trkpt lat="43.9198806" lon="12.3790614"><ele>251.0</ele><time>2026-04-29T12:00:18.475Z</time></trkpt><trkpt lat="43.9198054" lon="12.3791821"><ele>248.60000000000002</ele><time>2026-04-29T12:00:19.476Z</time></trkpt><trkpt lat="43.9197306" lon="12.3792977"><ele>246.20000000000002</ele><time>2026-04-29T12:00:20.475Z</time></trkpt><trkpt lat="43.9196583" lon="12.3794045"><ele>243.79999999999998</ele><time>2026-04-29T12:00:21.475Z</time></trkpt><trkpt lat="43.9195799" lon="12.3794951"><ele>241.39999999999998</ele><time>2026-04-29T12:00:22.475Z</time></trkpt><trkpt lat="43.919506" lon="12.3795745"><ele>239.0</ele><time>2026-04-29T12:00:23.475Z</time></trkpt><trkpt lat="43.9194475" lon="12.3796654"><ele>237.0</ele><time>2026-04-29T12:00:24.475Z</time></trkpt><trkpt lat="43.9194078" lon="12.3797916"><ele>235.0</ele><time>2026-04-29T12:00:25.476Z</time></trkpt><trkpt lat="43.9193915" lon="12.3799568"><ele>233.0</ele><time>2026-04-29T12:00:26.475Z</time></trkpt><trkpt lat="43.9193891" lon="12.3801489"><ele>231.0</ele><time>2026-04-29T12:00:27.475Z</time></trkpt><trkpt lat="43.919387" lon="12.3803455"><ele>229.33333333333331</ele><time>2026-04-29T12:00:28.475Z</time></trkpt><trkpt lat="43.9193874" lon="12.3805531"><ele>227.66666666666666</ele><time>2026-04-29T12:00:29.475Z</time></trkpt><trkpt lat="43.9193799" lon="12.3807744"><ele>226.0</ele><time>2026-04-29T12:00:30.475Z</time></trkpt><trkpt lat="43.9193713" lon="12.3809932"><ele>226.0</ele><time>2026-04-29T12:00:31.476Z</time></trkpt><trkpt lat="43.9193635" lon="12.3811947"><ele>226.0</ele><time>2026-04-29T12:00:32.475Z</time></trkpt><trkpt lat="43.9193601" lon="12.3813706"><ele>226.0</ele><time>2026-04-29T12:00:33.475Z</time></trkpt><trkpt lat="43.919356" lon="12.3815279"><ele>226.0</ele><time>2026-04-29T12:00:34.475Z</time></trkpt><trkpt lat="43.9193521" lon="12.381673"><ele>226.66666666666666</ele><time>2026-04-29T12:00:35.475Z</time></trkpt><trkpt lat="43.9193547" lon="12.3817993"><ele>227.33333333333331</ele><time>2026-04-29T12:00:36.475Z</time></trkpt><trkpt lat="43.9193809" lon="12.3819158"><ele>228.0</ele><time>2026-04-29T12:00:37.475Z</time></trkpt><trkpt lat="43.9194298" lon="12.3820072"><ele>228.66666666666669</ele><time>2026-04-29T12:00:38.475Z</time></trkpt><trkpt lat="43.9195038" lon="12.3820624"><ele>229.33333333333334</ele><time>2026-04-29T12:00:39.475Z</time></trkpt><trkpt lat="43.9195889" lon="12.3820814"><ele>230.0</ele><time>2026-04-29T12:00:40.475Z</time></trkpt><trkpt lat="43.9196852" lon="12.382061"><ele>230.0</ele><time>2026-04-29T12:00:41.475Z</time></trkpt><trkpt lat="43.9197897" lon="12.382008"><ele>230.0</ele><time>2026-04-29T12:00:42.475Z</time></trkpt><trkpt lat="43.9199038" lon="12.3819592"><ele>230.0</ele><time>2026-04-29T12:00:43.476Z</time></trkpt><trkpt lat="43.9200322" lon="12.3819198"><ele>230.0</ele><time>2026-04-29T12:00:44.475Z</time></trkpt><trkpt lat="43.9201724" lon="12.3818978"><ele>229.25</ele><time>2026-04-29T12:00:45.475Z</time></trkpt><trkpt lat="43.9203146" lon="12.3818878"><ele>228.5</ele><time>2026-04-29T12:00:46.476Z</time></trkpt><trkpt lat="43.9204541" lon="12.3818868"><ele>227.75</ele><time>2026-04-29T12:00:47.475Z</time></trkpt><trkpt lat="43.9205827" lon="12.3818947"><ele>227.0</ele><time>2026-04-29T12:00:48.475Z</time></trkpt><trkpt lat="43.9207065" lon="12.3819077"><ele>227.0</ele><time>2026-04-29T12:00:49.475Z</time></trkpt><trkpt lat="43.9208361" lon="12.3819237"><ele>227.0</ele><time>2026-04-29T12:00:50.475Z</time></trkpt><trkpt lat="43.9209661" lon="12.3819482"><ele>227.0</ele><time>2026-04-29T12:00:51.475Z</time></trkpt><trkpt lat="43.9210994" lon="12.3819836"><ele>227.0</ele><time>2026-04-29T12:00:52.475Z</time></trkpt><trkpt lat="43.9212375" lon="12.3820277"><ele>226.0</ele><time>2026-04-29T12:00:53.475Z</time></trkpt><trkpt lat="43.9213782" lon="12.3820749"><ele>225.0</ele><time>2026-04-29T12:00:54.475Z</time></trkpt><trkpt lat="43.9215175" lon="12.3821215"><ele>224.0</ele><time>2026-04-29T12:00:55.475Z</time></trkpt><trkpt lat="43.9216533" lon="12.3821662"><ele>223.0</ele><time>2026-04-29T12:00:56.476Z</time></trkpt><trkpt lat="43.9217881" lon="12.38221"><ele>223.0</ele><time>2026-04-29T12:00:57.475Z</time></trkpt><trkpt lat="43.9219228" lon="12.3822518"><ele>223.0</ele><time>2026-04-29T12:00:58.475Z</time></trkpt><trkpt lat="43.9220598" lon="12.3822893"><ele>223.0</ele><time>2026-04-29T12:00:59.475Z</time></trkpt><trkpt lat="43.9221988" lon="12.3823367"><ele>223.0</ele><time>2026-04-29T12:01:00.475Z</time></trkpt><trkpt lat="43.9223324" lon="12.3823812"><ele>223.0</ele><time>2026-04-29T12:01:01.476Z</time></trkpt><trkpt lat="43.9224623" lon="12.3824276"><ele>223.0</ele><time>2026-04-29T12:01:02.475Z</time></trkpt><trkpt lat="43.9225933" lon="12.3824721"><ele>223.0</ele><time>2026-04-29T12:01:03.475Z</time></trkpt><trkpt lat="43.9227294" lon="12.3825136"><ele>223.0</ele><time>2026-04-29T12:01:04.475Z</time></trkpt><trkpt lat="43.9228705" lon="12.3825661"><ele>221.66666666666666</ele><time>2026-04-29T12:01:05.475Z</time></trkpt><trkpt lat="43.9230223" lon="12.3826142"><ele>220.33333333333331</ele><time>2026-04-29T12:01:06.475Z</time></trkpt><trkpt lat="43.9231777" lon="12.3826725"><ele>219.0</ele><time>2026-04-29T12:01:07.475Z</time></trkpt><trkpt lat="43.9233328" lon="12.3827252"><ele>218.33333333333331</ele><time>2026-04-29T12:01:08.476Z</time></trkpt><trkpt lat="43.9234846" lon="12.3827709"><ele>217.66666666666666</ele><time>2026-04-29T12:01:09.475Z</time></trkpt><trkpt lat="43.9236403" lon="12.3828107"><ele>217.0</ele><time>2026-04-29T12:01:10.475Z</time></trkpt><trkpt lat="43.923807" lon="12.3828532"><ele>217.0</ele><time>2026-04-29T12:01:11.475Z</time></trkpt><trkpt lat="43.9239758" lon="12.3828888"><ele>217.0</ele><time>2026-04-29T12:01:12.475Z</time></trkpt><trkpt lat="43.9241456" lon="12.3829226"><ele>217.0</ele><time>2026-04-29T12:01:13.475Z</time></trkpt><trkpt lat="43.9243174" lon="12.3829514"><ele>216.0</ele><time>2026-04-29T12:01:14.475Z</time></trkpt><trkpt lat="43.9244809" lon="12.382976"><ele>215.0</ele><time>2026-04-29T12:01:15.475Z</time></trkpt><trkpt lat="43.9246321" lon="12.3830012"><ele>214.0</ele><time>2026-04-29T12:01:16.475Z</time></trkpt><trkpt lat="43.9247765" lon="12.3830225"><ele>215.0</ele><time>2026-04-29T12:01:17.475Z</time></trkpt><trkpt lat="43.9249159" lon="12.3830426"><ele>216.0</ele><time>2026-04-29T12:01:18.475Z</time></trkpt><trkpt lat="43.9250608" lon="12.3830669"><ele>217.0</ele><time>2026-04-29T12:01:19.475Z</time></trkpt><trkpt lat="43.9252042" lon="12.3830894"><ele>218.0</ele><time>2026-04-29T12:01:20.476Z</time></trkpt><trkpt lat="43.9253494" lon="12.3831102"><ele>218.0</ele><time>2026-04-29T12:01:21.475Z</time></trkpt><trkpt lat="43.9254935" lon="12.3831331"><ele>218.0</ele><time>2026-04-29T12:01:22.475Z</time></trkpt><trkpt lat="43.925637" lon="12.3831621"><ele>218.0</ele><time>2026-04-29T12:01:23.475Z</time></trkpt><trkpt lat="43.925779" lon="12.3831924"><ele>218.0</ele><time>2026-04-29T12:01:24.475Z</time></trkpt><trkpt lat="43.9259199" lon="12.3832272"><ele>219.0</ele><time>2026-04-29T12:01:25.475Z</time></trkpt><trkpt lat="43.926058" lon="12.383261"><ele>220.0</ele><time>2026-04-29T12:01:26.475Z</time></trkpt><trkpt lat="43.9261899" lon="12.3832926"><ele>221.0</ele><time>2026-04-29T12:01:27.475Z</time></trkpt><trkpt lat="43.9263199" lon="12.3833237"><ele>222.0</ele><time>2026-04-29T12:01:28.475Z</time></trkpt><trkpt lat="43.9264457" lon="12.383354"><ele>222.0</ele><time>2026-04-29T12:01:29.475Z</time></trkpt><trkpt lat="43.92657" lon="12.3833902"><ele>222.0</ele><time>2026-04-29T12:01:30.475Z</time></trkpt><trkpt lat="43.9266905" lon="12.3834293"><ele>222.0</ele><time>2026-04-29T12:01:31.475Z</time></trkpt><trkpt lat="43.9268134" lon="12.3834784"><ele>222.0</ele><time>2026-04-29T12:01:32.475Z</time></trkpt><trkpt lat="43.9269374" lon="12.3835339"><ele>221.75</ele><time>2026-04-29T12:01:33.475Z</time></trkpt><trkpt lat="43.9270582" lon="12.3835841"><ele>221.5</ele><time>2026-04-29T12:01:34.475Z</time></trkpt><trkpt lat="43.9271728" lon="12.3836229"><ele>221.25</ele><time>2026-04-29T12:01:35.475Z</time></trkpt><trkpt lat="43.9272827" lon="12.3836461"><ele>221.0</ele><time>2026-04-29T12:01:36.475Z</time></trkpt><trkpt lat="43.9273819" lon="12.3836619"><ele>221.00000000000003</ele><time>2026-04-29T12:01:37.475Z</time></trkpt><trkpt lat="43.9274767" lon="12.3836714"><ele>221.0</ele><time>2026-04-29T12:01:38.475Z</time></trkpt><trkpt lat="43.9275629" lon="12.3836816"><ele>221.0</ele><time>2026-04-29T12:01:39.476Z</time></trkpt><trkpt lat="43.9276478" lon="12.383693"><ele>221.0</ele><time>2026-04-29T12:01:40.475Z</time></trkpt><trkpt lat="43.9277322" lon="12.383704"><ele>221.00000000000003</ele><time>2026-04-29T12:01:41.475Z</time></trkpt><trkpt lat="43.9278138" lon="12.3837139"><ele>221.0</ele><time>2026-04-29T12:01:42.475Z</time></trkpt><trkpt lat="43.9278916" lon="12.383724"><ele>221.66666666666669</ele><time>2026-04-29T12:01:43.475Z</time></trkpt><trkpt lat="43.9279663" lon="12.3837329"><ele>222.33333333333334</ele><time>2026-04-29T12:01:44.475Z</time></trkpt><trkpt lat="43.9280424" lon="12.3837396"><ele>223.0</ele><time>2026-04-29T12:01:45.475Z</time></trkpt><trkpt lat="43.9281238" lon="12.3837383"><ele>223.66666666666669</ele><time>2026-04-29T12:01:46.475Z</time></trkpt><trkpt lat="43.928206" lon="12.3837306"><ele>224.33333333333334</ele><time>2026-04-29T12:01:47.475Z</time></trkpt><trkpt lat="43.9282909" lon="12.3837196"><ele>225.0</ele><time>2026-04-29T12:01:48.475Z</time></trkpt><trkpt lat="43.9283814" lon="12.3836942"><ele>224.8</ele><time>2026-04-29T12:01:49.476Z</time></trkpt><trkpt lat="43.9284701" lon="12.3836459"><ele>224.6</ele><time>2026-04-29T12:01:50.475Z</time></trkpt><trkpt lat="43.9285532" lon="12.3835848"><ele>224.39999999999998</ele><time>2026-04-29T12:01:51.475Z</time></trkpt><trkpt lat="43.9286306" lon="12.3835141"><ele>224.2</ele><time>2026-04-29T12:01:52.475Z</time></trkpt><trkpt lat="43.9286999" lon="12.3834292"><ele>224.0</ele><time>2026-04-29T12:01:53.475Z</time></trkpt><trkpt lat="43.9287624" lon="12.3833441"><ele>224.0</ele><time>2026-04-29T12:01:54.475Z</time></trkpt><trkpt lat="43.9288327" lon="12.3832697"><ele>223.99999999999997</ele><time>2026-04-29T12:01:55.475Z</time></trkpt><trkpt lat="43.9289146" lon="12.3832095"><ele>223.99999999999997</ele><time>2026-04-29T12:01:56.475Z</time></trkpt><trkpt lat="43.9290035" lon="12.3831627"><ele>224.0</ele><time>2026-04-29T12:01:57.475Z</time></trkpt><trkpt lat="43.9290987" lon="12.3831327"><ele>224.0</ele><time>2026-04-29T12:01:58.475Z</time></trkpt><trkpt lat="43.9292082" lon="12.3831149"><ele>223.25</ele><time>2026-04-29T12:01:59.475Z</time></trkpt><trkpt lat="43.9293258" lon="12.3830972"><ele>222.5</ele><time>2026-04-29T12:02:00.476Z</time></trkpt><trkpt lat="43.9294423" lon="12.3830803"><ele>221.75</ele><time>2026-04-29T12:02:01.475Z</time></trkpt><trkpt lat="43.9295635" lon="12.3830639"><ele>221.0</ele><time>2026-04-29T12:02:02.475Z</time></trkpt><trkpt lat="43.9296917" lon="12.383045"><ele>221.0</ele><time>2026-04-29T12:02:03.475Z</time></trkpt><trkpt lat="43.9298175" lon="12.3830319"><ele>221.0</ele><time>2026-04-29T12:02:04.476Z</time></trkpt><trkpt lat="43.9299368" lon="12.383017"><ele>221.0</ele><time>2026-04-29T12:02:05.475Z</time></trkpt><trkpt lat="43.9300467" lon="12.3830055"><ele>221.0</ele><time>2026-04-29T12:02:06.475Z</time></trkpt><trkpt lat="43.9301448" lon="12.3829954"><ele>221.0</ele><time>2026-04-29T12:02:07.475Z</time></trkpt><trkpt lat="43.930239" lon="12.3829882"><ele>221.00000000000003</ele><time>2026-04-29T12:02:08.475Z</time></trkpt><trkpt lat="43.9303314" lon="12.3829894"><ele>221.00000000000003</ele><time>2026-04-29T12:02:09.475Z</time></trkpt><trkpt lat="43.93042" lon="12.3829993"><ele>221.0</ele><time>2026-04-29T12:02:10.475Z</time></trkpt><trkpt lat="43.930506" lon="12.3830264"><ele>221.0</ele><time>2026-04-29T12:02:11.475Z</time></trkpt><trkpt lat="43.9305975" lon="12.3830833"><ele>221.0</ele><time>2026-04-29T12:02:12.475Z</time></trkpt><trkpt lat="43.9306909" lon="12.383159"><ele>221.00000000000003</ele><time>2026-04-29T12:02:13.475Z</time></trkpt><trkpt lat="43.9307852" lon="12.3832464"><ele>221.00000000000003</ele><time>2026-04-29T12:02:14.476Z</time></trkpt><trkpt lat="43.9308732" lon="12.3833417"><ele>221.0</ele><time>2026-04-29T12:02:15.475Z</time></trkpt><trkpt lat="43.93095" lon="12.3834371"><ele>221.0</ele><time>2026-04-29T12:02:16.475Z</time></trkpt><trkpt lat="43.9310231" lon="12.3835264"><ele>219.16666666666669</ele><time>2026-04-29T12:02:17.475Z</time></trkpt><trkpt lat="43.9310994" lon="12.3836017"><ele>217.33333333333334</ele><time>2026-04-29T12:02:18.475Z</time></trkpt><trkpt lat="43.9311714" lon="12.3836613"><ele>215.5</ele><time>2026-04-29T12:02:19.475Z</time></trkpt><trkpt lat="43.9312417" lon="12.3836994"><ele>213.66666666666669</ele><time>2026-04-29T12:02:20.475Z</time></trkpt><trkpt lat="43.9313116" lon="12.383716"><ele>211.83333333333334</ele><time>2026-04-29T12:02:21.475Z</time></trkpt><trkpt lat="43.9313806" lon="12.3837016"><ele>210.0</ele><time>2026-04-29T12:02:22.475Z</time></trkpt><trkpt lat="43.9314502" lon="12.3836702"><ele>210.0</ele><time>2026-04-29T12:02:23.475Z</time></trkpt><trkpt lat="43.9315031" lon="12.3836147"><ele>210.0</ele><time>2026-04-29T12:02:24.475Z</time></trkpt><trkpt lat="43.9315478" lon="12.3835489"><ele>210.0</ele><time>2026-04-29T12:02:25.475Z</time></trkpt><trkpt lat="43.9315835" lon="12.3834634"><ele>210.0</ele><time>2026-04-29T12:02:26.475Z</time></trkpt><trkpt lat="43.9316213" lon="12.3833469"><ele>210.0</ele><time>2026-04-29T12:02:27.475Z</time></trkpt><trkpt lat="43.9316673" lon="12.3832138"><ele>210.0</ele><time>2026-04-29T12:02:28.475Z</time></trkpt><trkpt lat="43.9317142" lon="12.3830636"><ele>207.5</ele><time>2026-04-29T12:02:29.475Z</time></trkpt><trkpt lat="43.9317619" lon="12.3829081"><ele>205.0</ele><time>2026-04-29T12:02:30.475Z</time></trkpt><trkpt lat="43.9318038" lon="12.3827556"><ele>202.5</ele><time>2026-04-29T12:02:31.475Z</time></trkpt><trkpt lat="43.9318451" lon="12.3826015"><ele>200.0</ele><time>2026-04-29T12:02:32.475Z</time></trkpt><trkpt lat="43.9318842" lon="12.3824494"><ele>200.0</ele><time>2026-04-29T12:02:33.475Z</time></trkpt><trkpt lat="43.9319242" lon="12.3822974"><ele>200.0</ele><time>2026-04-29T12:02:34.475Z</time></trkpt><trkpt lat="43.9319656" lon="12.382137"><ele>200.0</ele><time>2026-04-29T12:02:35.475Z</time></trkpt><trkpt lat="43.9320109" lon="12.3819786"><ele>200.0</ele><time>2026-04-29T12:02:36.475Z</time></trkpt><trkpt lat="43.932053" lon="12.3818393"><ele>200.2</ele><time>2026-04-29T12:02:37.474Z</time></trkpt><trkpt lat="43.9320875" lon="12.3817166"><ele>200.4</ele><time>2026-04-29T12:02:38.474Z</time></trkpt><trkpt lat="43.9321142" lon="12.3816164"><ele>200.60000000000002</ele><time>2026-04-29T12:02:39.474Z</time></trkpt><trkpt lat="43.9321375" lon="12.381528"><ele>200.8</ele><time>2026-04-29T12:02:40.474Z</time></trkpt><trkpt lat="43.9321992" lon="12.3814118"><ele>201.0</ele><time>2026-04-29T12:02:42.474Z</time></trkpt><trkpt lat="43.9323243" lon="12.381358"><ele>201.0</ele><time>2026-04-29T12:02:44.474Z</time></trkpt><trkpt lat="43.932399" lon="12.3813517"><ele>201.0</ele><time>2026-04-29T12:02:45.474Z</time></trkpt><trkpt lat="43.9324907" lon="12.3813553"><ele>201.0</ele><time>2026-04-29T12:02:46.474Z</time></trkpt><trkpt lat="43.932598" lon="12.381371"><ele>201.0</ele><time>2026-04-29T12:02:47.474Z</time></trkpt><trkpt lat="43.9327131" lon="12.3813883"><ele>201.0</ele><time>2026-04-29T12:02:48.474Z</time></trkpt><trkpt lat="43.9328364" lon="12.3814025"><ele>200.0</ele><time>2026-04-29T12:02:49.474Z</time></trkpt><trkpt lat="43.9329548" lon="12.3814141"><ele>199.0</ele><time>2026-04-29T12:02:50.474Z</time></trkpt><trkpt lat="43.9330657" lon="12.3814156"><ele>198.0</ele><time>2026-04-29T12:02:51.474Z</time></trkpt><trkpt lat="43.9331756" lon="12.3814059"><ele>197.0</ele><time>2026-04-29T12:02:52.474Z</time></trkpt><trkpt lat="43.9332837" lon="12.3813766"><ele>196.39999999999998</ele><time>2026-04-29T12:02:53.474Z</time></trkpt><trkpt lat="43.9333921" lon="12.3813423"><ele>195.79999999999998</ele><time>2026-04-29T12:02:54.474Z</time></trkpt><trkpt lat="43.9334925" lon="12.3813012"><ele>195.2</ele><time>2026-04-29T12:02:55.474Z</time></trkpt><trkpt lat="43.9335814" lon="12.3812533"><ele>194.6</ele><time>2026-04-29T12:02:56.474Z</time></trkpt><trkpt lat="43.9336658" lon="12.3811871"><ele>194.0</ele><time>2026-04-29T12:02:57.474Z</time></trkpt><trkpt lat="43.9337534" lon="12.3811251"><ele>194.00000000000003</ele><time>2026-04-29T12:02:58.474Z</time></trkpt><trkpt lat="43.9338403" lon="12.3810826"><ele>194.0</ele><time>2026-04-29T12:02:59.474Z</time></trkpt><trkpt lat="43.9339346" lon="12.3810591"><ele>194.0</ele><time>2026-04-29T12:03:00.474Z</time></trkpt><trkpt lat="43.9340171" lon="12.3810652"><ele>194.0</ele><time>2026-04-29T12:03:01.474Z</time></trkpt><trkpt lat="43.934088" lon="12.381095"><ele>194.00000000000003</ele><time>2026-04-29T12:03:02.474Z</time></trkpt><trkpt lat="43.9341626" lon="12.3811393"><ele>194.0</ele><time>2026-04-29T12:03:03.474Z</time></trkpt><trkpt lat="43.9342464" lon="12.3811906"><ele>194.0</ele><time>2026-04-29T12:03:04.474Z</time></trkpt><trkpt lat="43.9343346" lon="12.3812352"><ele>194.0</ele><time>2026-04-29T12:03:05.474Z</time></trkpt><trkpt lat="43.9344255" lon="12.3812751"><ele>194.0</ele><time>2026-04-29T12:03:06.474Z</time></trkpt><trkpt lat="43.9345171" lon="12.3813202"><ele>194.0</ele><time>2026-04-29T12:03:07.474Z</time></trkpt><trkpt lat="43.9346151" lon="12.3813692"><ele>194.0</ele><time>2026-04-29T12:03:08.474Z</time></trkpt><trkpt lat="43.9347086" lon="12.3814178"><ele>194.00000000000003</ele><time>2026-04-29T12:03:09.474Z</time></trkpt><trkpt lat="43.9347964" lon="12.3814534"><ele>194.0</ele><time>2026-04-29T12:03:10.474Z</time></trkpt><trkpt lat="43.9348784" lon="12.3814937"><ele>194.0</ele><time>2026-04-29T12:03:11.475Z</time></trkpt><trkpt lat="43.9349528" lon="12.3815257"><ele>194.0</ele><time>2026-04-29T12:03:12.475Z</time></trkpt><trkpt lat="43.9350242" lon="12.3815599"><ele>194.00000000000003</ele><time>2026-04-29T12:03:13.474Z</time></trkpt><trkpt lat="43.9350883" lon="12.3815917"><ele>194.0</ele><time>2026-04-29T12:03:14.474Z</time></trkpt><trkpt lat="43.935186" lon="12.3816599"><ele>193.50000000000003</ele><time>2026-04-29T12:03:16.474Z</time></trkpt><trkpt lat="43.9352323" lon="12.3817547"><ele>193.0</ele><time>2026-04-29T12:03:18.475Z</time></trkpt><trkpt lat="43.9352264" lon="12.3819129"><ele>192.5</ele><time>2026-04-29T12:03:20.474Z</time></trkpt><trkpt lat="43.9352104" lon="12.3820161"><ele>192.0</ele><time>2026-04-29T12:03:21.474Z</time></trkpt><trkpt lat="43.9351894" lon="12.3821211"><ele>191.5</ele><time>2026-04-29T12:03:22.475Z</time></trkpt><trkpt lat="43.9351723" lon="12.3822388"><ele>191.0</ele><time>2026-04-29T12:03:23.474Z</time></trkpt><trkpt lat="43.9351556" lon="12.3823494"><ele>191.0</ele><time>2026-04-29T12:03:24.474Z</time></trkpt><trkpt lat="43.9351344" lon="12.3824457"><ele>191.0</ele><time>2026-04-29T12:03:25.474Z</time></trkpt><trkpt lat="43.9351082" lon="12.3825287"><ele>191.0</ele><time>2026-04-29T12:03:26.474Z</time></trkpt><trkpt lat="43.9350625" lon="12.3826151"><ele>191.0</ele><time>2026-04-29T12:03:27.474Z</time></trkpt><trkpt lat="43.9349966" lon="12.3826958"><ele>191.0</ele><time>2026-04-29T12:03:28.474Z</time></trkpt><trkpt lat="43.9349241" lon="12.3827533"><ele>191.0</ele><time>2026-04-29T12:03:29.475Z</time></trkpt><trkpt lat="43.9348487" lon="12.3828078"><ele>192.16666666666666</ele><time>2026-04-29T12:03:30.475Z</time></trkpt><trkpt lat="43.9347777" lon="12.3828609"><ele>193.33333333333331</ele><time>2026-04-29T12:03:31.474Z</time></trkpt><trkpt lat="43.9347217" lon="12.3829192"><ele>194.5</ele><time>2026-04-29T12:03:32.474Z</time></trkpt><trkpt lat="43.9346529" lon="12.3830686"><ele>195.66666666666666</ele><time>2026-04-29T12:03:34.474Z</time></trkpt><trkpt lat="43.934634" lon="12.3831721"><ele>196.83333333333334</ele><time>2026-04-29T12:03:35.475Z</time></trkpt><trkpt lat="43.9346157" lon="12.383287"><ele>198.0</ele><time>2026-04-29T12:03:36.474Z</time></trkpt><trkpt lat="43.9345925" lon="12.3834011"><ele>198.8</ele><time>2026-04-29T12:03:37.474Z</time></trkpt><trkpt lat="43.934562" lon="12.3835185"><ele>199.60000000000002</ele><time>2026-04-29T12:03:38.474Z</time></trkpt><trkpt lat="43.9345165" lon="12.3836283"><ele>200.39999999999998</ele><time>2026-04-29T12:03:39.474Z</time></trkpt><trkpt lat="43.934468" lon="12.3837379"><ele>201.2</ele><time>2026-04-29T12:03:40.475Z</time></trkpt><trkpt lat="43.9344239" lon="12.3838438"><ele>202.0</ele><time>2026-04-29T12:03:41.474Z</time></trkpt><trkpt lat="43.9343771" lon="12.3839501"><ele>203.83333333333331</ele><time>2026-04-29T12:03:42.474Z</time></trkpt><trkpt lat="43.9343343" lon="12.384052"><ele>205.66666666666666</ele><time>2026-04-29T12:03:43.474Z</time></trkpt><trkpt lat="43.9342935" lon="12.3841585"><ele>207.5</ele><time>2026-04-29T12:03:44.474Z</time></trkpt><trkpt lat="43.9342542" lon="12.3842672"><ele>209.33333333333331</ele><time>2026-04-29T12:03:45.474Z</time></trkpt><trkpt lat="43.9342228" lon="12.3843792"><ele>211.16666666666666</ele><time>2026-04-29T12:03:46.474Z</time></trkpt><trkpt lat="43.9341952" lon="12.3844863"><ele>213.0</ele><time>2026-04-29T12:03:47.474Z</time></trkpt><trkpt lat="43.9341643" lon="12.3845794"><ele>213.0</ele><time>2026-04-29T12:03:48.475Z</time></trkpt><trkpt lat="43.9341325" lon="12.3846593"><ele>213.0</ele><time>2026-04-29T12:03:49.475Z</time></trkpt><trkpt lat="43.9341003" lon="12.3847413"><ele>213.0</ele><time>2026-04-29T12:03:50.475Z</time></trkpt><trkpt lat="43.9340766" lon="12.3848381"><ele>213.0</ele><time>2026-04-29T12:03:51.474Z</time></trkpt><trkpt lat="43.9340516" lon="12.3849352"><ele>213.0</ele><time>2026-04-29T12:03:52.474Z</time></trkpt><trkpt lat="43.9340428" lon="12.3850334"><ele>213.0</ele><time>2026-04-29T12:03:53.474Z</time></trkpt><trkpt lat="43.9340316" lon="12.3851811"><ele>213.83333333333334</ele><time>2026-04-29T12:03:55.474Z</time></trkpt><trkpt lat="43.9340406" lon="12.3853071"><ele>214.66666666666669</ele><time>2026-04-29T12:03:57.474Z</time></trkpt><trkpt lat="43.9340704" lon="12.385422"><ele>215.5</ele><time>2026-04-29T12:04:00.474Z</time></trkpt><trkpt lat="43.9341424" lon="12.3854243"><ele>216.33333333333334</ele><time>2026-04-29T12:04:03.474Z</time></trkpt><trkpt lat="43.934156" lon="12.3853149"><ele>217.16666666666669</ele><time>2026-04-29T12:04:06.474Z</time></trkpt><trkpt lat="43.9341232" lon="12.3852255"><ele>218.0</ele><time>2026-04-29T12:04:08.474Z</time></trkpt><trkpt lat="43.9340725" lon="12.3851237"><ele>218.00000000000003</ele><time>2026-04-29T12:04:10.474Z</time></trkpt><trkpt lat="43.9340626" lon="12.3850125"><ele>218.0</ele><time>2026-04-29T12:04:12.474Z</time></trkpt><trkpt lat="43.9340765" lon="12.3848756"><ele>218.0</ele><time>2026-04-29T12:04:14.475Z</time></trkpt><trkpt lat="43.9340935" lon="12.3847814"><ele>218.0</ele><time>2026-04-29T12:04:16.474Z</time></trkpt><trkpt lat="43.9340011" lon="12.3847867"><ele>218.00000000000003</ele><time>2026-04-29T12:04:21.474Z</time></trkpt><trkpt lat="43.9339485" lon="12.3848498"><ele>218.0</ele><time>2026-04-29T12:04:22.474Z</time></trkpt><trkpt lat="43.9339037" lon="12.3849317"><ele>218.0</ele><time>2026-04-29T12:04:23.474Z</time></trkpt><trkpt lat="43.9338586" lon="12.3850309"><ele>218.0</ele><time>2026-04-29T12:04:24.475Z</time></trkpt><trkpt lat="43.9338025" lon="12.3851465"><ele>218.0</ele><time>2026-04-29T12:04:25.474Z</time></trkpt><trkpt lat="43.9337385" lon="12.3852739"><ele>218.0</ele><time>2026-04-29T12:04:26.474Z</time></trkpt><trkpt lat="43.9336757" lon="12.3853942"><ele>218.0</ele><time>2026-04-29T12:04:27.474Z</time></trkpt><trkpt lat="43.9336236" lon="12.3855096"><ele>219.00000000000003</ele><time>2026-04-29T12:04:28.474Z</time></trkpt><trkpt lat="43.9335774" lon="12.385617"><ele>220.0</ele><time>2026-04-29T12:04:29.474Z</time></trkpt><trkpt lat="43.9335337" lon="12.3857325"><ele>221.0</ele><time>2026-04-29T12:04:30.474Z</time></trkpt><trkpt lat="43.9334938" lon="12.3858428"><ele>222.0</ele><time>2026-04-29T12:04:31.474Z</time></trkpt><trkpt lat="43.9334728" lon="12.3859474"><ele>223.00000000000003</ele><time>2026-04-29T12:04:32.474Z</time></trkpt><trkpt lat="43.933453" lon="12.3860629"><ele>224.0</ele><time>2026-04-29T12:04:33.474Z</time></trkpt><trkpt lat="43.93343" lon="12.3861991"><ele>224.0</ele><time>2026-04-29T12:04:34.475Z</time></trkpt><trkpt lat="43.9334074" lon="12.3863418"><ele>223.99999999999997</ele><time>2026-04-29T12:04:35.475Z</time></trkpt><trkpt lat="43.9333861" lon="12.3864865"><ele>223.99999999999997</ele><time>2026-04-29T12:04:36.474Z</time></trkpt><trkpt lat="43.9333668" lon="12.3866302"><ele>224.0</ele><time>2026-04-29T12:04:37.474Z</time></trkpt><trkpt lat="43.9333542" lon="12.3867596"><ele>224.0</ele><time>2026-04-29T12:04:38.474Z</time></trkpt><trkpt lat="43.9333427" lon="12.3868656"><ele>225.42857142857144</ele><time>2026-04-29T12:04:39.475Z</time></trkpt><trkpt lat="43.933327" lon="12.3869528"><ele>226.85714285714286</ele><time>2026-04-29T12:04:40.474Z</time></trkpt><trkpt lat="43.9332971" lon="12.387034"><ele>228.28571428571428</ele><time>2026-04-29T12:04:41.474Z</time></trkpt><trkpt lat="43.9332557" lon="12.3871103"><ele>229.71428571428572</ele><time>2026-04-29T12:04:42.475Z</time></trkpt><trkpt lat="43.9332015" lon="12.3871879"><ele>231.14285714285717</ele><time>2026-04-29T12:04:43.474Z</time></trkpt><trkpt lat="43.9331336" lon="12.3872523"><ele>232.57142857142858</ele><time>2026-04-29T12:04:44.475Z</time></trkpt><trkpt lat="43.933055" lon="12.3872977"><ele>234.0</ele><time>2026-04-29T12:04:45.474Z</time></trkpt><trkpt lat="43.9329758" lon="12.3873402"><ele>234.5</ele><time>2026-04-29T12:04:46.474Z</time></trkpt><trkpt lat="43.9328973" lon="12.3873867"><ele>235.0</ele><time>2026-04-29T12:04:47.475Z</time></trkpt><trkpt lat="43.9328245" lon="12.3874345"><ele>235.5</ele><time>2026-04-29T12:04:48.474Z</time></trkpt><trkpt lat="43.932761" lon="12.3874781"><ele>236.0</ele><time>2026-04-29T12:04:49.474Z</time></trkpt><trkpt lat="43.9327" lon="12.3875108"><ele>236.5</ele><time>2026-04-29T12:04:50.474Z</time></trkpt><trkpt lat="43.9326262" lon="12.3875336"><ele>237.0</ele><time>2026-04-29T12:04:51.474Z</time></trkpt><trkpt lat="43.9325457" lon="12.38755"><ele>237.8</ele><time>2026-04-29T12:04:52.472Z</time></trkpt><trkpt lat="43.9324529" lon="12.387561"><ele>238.6</ele><time>2026-04-29T12:04:53.474Z</time></trkpt><trkpt lat="43.9323537" lon="12.3875774"><ele>239.40000000000003</ele><time>2026-04-29T12:04:54.475Z</time></trkpt><trkpt lat="43.9322482" lon="12.387594"><ele>240.20000000000002</ele><time>2026-04-29T12:04:55.474Z</time></trkpt><trkpt lat="43.9321429" lon="12.387608"><ele>241.0</ele><time>2026-04-29T12:04:56.474Z</time></trkpt><trkpt lat="43.9320351" lon="12.3876184"><ele>241.0</ele><time>2026-04-29T12:04:57.474Z</time></trkpt><trkpt lat="43.9319279" lon="12.3876362"><ele>241.00000000000003</ele><time>2026-04-29T12:04:58.475Z</time></trkpt><trkpt lat="43.9318226" lon="12.3876478"><ele>241.00000000000003</ele><time>2026-04-29T12:04:59.474Z</time></trkpt><trkpt lat="43.93172" lon="12.3876504"><ele>241.0</ele><time>2026-04-29T12:05:00.474Z</time></trkpt><trkpt lat="43.9316171" lon="12.3876461"><ele>241.0</ele><time>2026-04-29T12:05:01.474Z</time></trkpt><trkpt lat="43.9315224" lon="12.3876413"><ele>242.83333333333331</ele><time>2026-04-29T12:05:02.474Z</time></trkpt><trkpt lat="43.9314378" lon="12.3876267"><ele>244.66666666666666</ele><time>2026-04-29T12:05:03.474Z</time></trkpt><trkpt lat="43.9313676" lon="12.387607"><ele>246.5</ele><time>2026-04-29T12:05:04.474Z</time></trkpt><trkpt lat="43.9312918" lon="12.387589"><ele>248.33333333333331</ele><time>2026-04-29T12:05:05.474Z</time></trkpt><trkpt lat="43.9312033" lon="12.3875685"><ele>250.16666666666666</ele><time>2026-04-29T12:05:06.474Z</time></trkpt><trkpt lat="43.9311033" lon="12.3875437"><ele>252.0</ele><time>2026-04-29T12:05:07.475Z</time></trkpt><trkpt lat="43.9309977" lon="12.3875119"><ele>252.0</ele><time>2026-04-29T12:05:08.474Z</time></trkpt><trkpt lat="43.9308921" lon="12.387479"><ele>252.0</ele><time>2026-04-29T12:05:09.474Z</time></trkpt><trkpt lat="43.930785" lon="12.3874443"><ele>252.0</ele><time>2026-04-29T12:05:10.474Z</time></trkpt><trkpt lat="43.9306745" lon="12.3874069"><ele>252.0</ele><time>2026-04-29T12:05:11.475Z</time></trkpt><trkpt lat="43.9305766" lon="12.3873681"><ele>252.0</ele><time>2026-04-29T12:05:12.475Z</time></trkpt><trkpt lat="43.9304974" lon="12.3873359"><ele>252.39999999999998</ele><time>2026-04-29T12:05:13.474Z</time></trkpt><trkpt lat="43.9304231" lon="12.3873046"><ele>252.79999999999998</ele><time>2026-04-29T12:05:14.474Z</time></trkpt><trkpt lat="43.9303391" lon="12.3872751"><ele>253.2</ele><time>2026-04-29T12:05:15.474Z</time></trkpt><trkpt lat="43.9302415" lon="12.3872505"><ele>253.6</ele><time>2026-04-29T12:05:16.475Z</time></trkpt><trkpt lat="43.9301356" lon="12.3872316"><ele>254.0</ele><time>2026-04-29T12:05:17.474Z</time></trkpt><trkpt lat="43.9300305" lon="12.3871971"><ele>254.2</ele><time>2026-04-29T12:05:18.474Z</time></trkpt><trkpt lat="43.9299288" lon="12.387156"><ele>254.39999999999998</ele><time>2026-04-29T12:05:19.474Z</time></trkpt><trkpt lat="43.9298283" lon="12.3871209"><ele>254.6</ele><time>2026-04-29T12:05:20.474Z</time></trkpt><trkpt lat="43.929733" lon="12.3870924"><ele>254.8</ele><time>2026-04-29T12:05:21.474Z</time></trkpt><trkpt lat="43.929643" lon="12.3870885"><ele>255.0</ele><time>2026-04-29T12:05:22.474Z</time></trkpt><trkpt lat="43.9295604" lon="12.3871035"><ele>255.0</ele><time>2026-04-29T12:05:23.474Z</time></trkpt><trkpt lat="43.9294911" lon="12.3871331"><ele>255.0</ele><time>2026-04-29T12:05:24.474Z</time></trkpt><trkpt lat="43.9293984" lon="12.387195"><ele>255.0</ele><time>2026-04-29T12:05:26.474Z</time></trkpt><trkpt lat="43.9293451" lon="12.3872805"><ele>255.0</ele><time>2026-04-29T12:05:28.474Z</time></trkpt><trkpt lat="43.9293031" lon="12.3874119"><ele>255.0</ele><time>2026-04-29T12:05:30.474Z</time></trkpt><trkpt lat="43.929286" lon="12.3875084"><ele>255.0</ele><time>2026-04-29T12:05:31.474Z</time></trkpt><trkpt lat="43.9292724" lon="12.3876062"><ele>256.5</ele><time>2026-04-29T12:05:32.474Z</time></trkpt><trkpt lat="43.9292597" lon="12.3877051"><ele>258.0</ele><time>2026-04-29T12:05:33.474Z</time></trkpt><trkpt lat="43.9292521" lon="12.3878114"><ele>259.5</ele><time>2026-04-29T12:05:34.474Z</time></trkpt><trkpt lat="43.9292546" lon="12.3879291"><ele>261.0</ele><time>2026-04-29T12:05:35.474Z</time></trkpt><trkpt lat="43.9292598" lon="12.3880395"><ele>262.5</ele><time>2026-04-29T12:05:36.474Z</time></trkpt><trkpt lat="43.9292692" lon="12.388152"><ele>264.0</ele><time>2026-04-29T12:05:37.475Z</time></trkpt><trkpt lat="43.9292752" lon="12.3882647"><ele>265.5</ele><time>2026-04-29T12:05:38.474Z</time></trkpt><trkpt lat="43.9292803" lon="12.3883704"><ele>267.0</ele><time>2026-04-29T12:05:39.474Z</time></trkpt><trkpt lat="43.9292842" lon="12.388458"><ele>268.5</ele><time>2026-04-29T12:05:40.474Z</time></trkpt><trkpt lat="43.9292837" lon="12.3885544"><ele>270.0</ele><time>2026-04-29T12:05:42.474Z</time></trkpt><trkpt lat="43.9292961" lon="12.3886725"><ele>271.5</ele><time>2026-04-29T12:05:54.475Z</time></trkpt><trkpt lat="43.9293033" lon="12.3888465"><ele>273.0</ele><time>2026-04-29T12:05:56.475Z</time></trkpt><trkpt lat="43.9292968" lon="12.3889473"><ele>274.5</ele><time>2026-04-29T12:05:57.474Z</time></trkpt><trkpt lat="43.9292892" lon="12.3890362"><ele>276.0</ele><time>2026-04-29T12:05:58.474Z</time></trkpt><trkpt lat="43.9292754" lon="12.3891893"><ele>277.5</ele><time>2026-04-29T12:06:00.474Z</time></trkpt><trkpt lat="43.9292715" lon="12.38933"><ele>279.0</ele><time>2026-04-29T12:06:02.474Z</time></trkpt><trkpt lat="43.9292688" lon="12.3894588"><ele>280.5</ele><time>2026-04-29T12:06:04.474Z</time></trkpt><trkpt lat="43.92926" lon="12.389555"><ele>282.0</ele><time>2026-04-29T12:06:06.475Z</time></trkpt><trkpt lat="43.9292871" lon="12.389636"><ele>282.0</ele><time>2026-04-29T12:06:09.474Z</time></trkpt><trkpt lat="43.9293694" lon="12.3896069"><ele>282.0</ele><time>2026-04-29T12:06:24.474Z</time></trkpt><trkpt lat="43.929365" lon="12.3895033"><ele>282.0</ele><time>2026-04-29T12:06:27.474Z</time></trkpt><trkpt lat="43.9293191" lon="12.3894083"><ele>282.0</ele><time>2026-04-29T12:06:30.474Z</time></trkpt><trkpt lat="43.9292973" lon="12.3892745"><ele>282.0</ele><time>2026-04-29T12:06:33.474Z</time></trkpt><trkpt lat="43.9292938" lon="12.3891803"><ele>282.0</ele><time>2026-04-29T12:06:35.475Z</time></trkpt><trkpt lat="43.9292832" lon="12.3890571"><ele>282.0</ele><time>2026-04-29T12:06:38.743Z</time></trkpt><trkpt lat="43.9292885" lon="12.3888611"><ele>282.0</ele><time>2026-04-29T12:06:43.516Z</time></trkpt><trkpt lat="43.9292847" lon="12.38873"><ele>282.0</ele><time>2026-04-29T12:06:46.535Z</time></trkpt><trkpt lat="43.9292708" lon="12.3885729"><ele>282.0</ele><time>2026-04-29T12:06:48.404Z</time></trkpt><trkpt lat="43.9292901" lon="12.3884416"><ele>282.0</ele><time>2026-04-29T12:06:50.563Z</time></trkpt><trkpt lat="43.9292949" lon="12.3883449"><ele>280.2</ele><time>2026-04-29T12:06:52.578Z</time></trkpt><trkpt lat="43.9292825" lon="12.3882347"><ele>278.4</ele><time>2026-04-29T12:06:54.593Z</time></trkpt><trkpt lat="43.929272" lon="12.3881113"><ele>276.6</ele><time>2026-04-29T12:06:56.605Z</time></trkpt><trkpt lat="43.9292742" lon="12.3879801"><ele>274.8</ele><time>2026-04-29T12:06:58.474Z</time></trkpt><trkpt lat="43.9292806" lon="12.3878401"><ele>273.0</ele><time>2026-04-29T12:07:00.474Z</time></trkpt><trkpt lat="43.9292881" lon="12.3876865"><ele>271.2</ele><time>2026-04-29T12:07:02.474Z</time></trkpt><trkpt lat="43.929305" lon="12.387529"><ele>269.4</ele><time>2026-04-29T12:07:04.474Z</time></trkpt><trkpt lat="43.9293342" lon="12.3873677"><ele>267.59999999999997</ele><time>2026-04-29T12:07:06.474Z</time></trkpt><trkpt lat="43.9293841" lon="12.387234"><ele>265.8</ele><time>2026-04-29T12:07:08.474Z</time></trkpt><trkpt lat="43.9294611" lon="12.3871659"><ele>264.0</ele><time>2026-04-29T12:07:10.474Z</time></trkpt><trkpt lat="43.929556" lon="12.3871292"><ele>264.0</ele><time>2026-04-29T12:07:12.474Z</time></trkpt><trkpt lat="43.9296291" lon="12.3871167"><ele>264.0</ele><time>2026-04-29T12:07:13.474Z</time></trkpt><trkpt lat="43.9297017" lon="12.3871139"><ele>264.0</ele><time>2026-04-29T12:07:14.474Z</time></trkpt><trkpt lat="43.9297775" lon="12.3871171"><ele>264.0</ele><time>2026-04-29T12:07:15.474Z</time></trkpt><trkpt lat="43.9298656" lon="12.3871399"><ele>264.0</ele><time>2026-04-29T12:07:16.474Z</time></trkpt><trkpt lat="43.9299577" lon="12.3871739"><ele>264.0</ele><time>2026-04-29T12:07:17.474Z</time></trkpt><trkpt lat="43.930049" lon="12.3872141"><ele>262.0</ele><time>2026-04-29T12:07:18.474Z</time></trkpt><trkpt lat="43.9301459" lon="12.3872513"><ele>260.0</ele><time>2026-04-29T12:07:19.474Z</time></trkpt><trkpt lat="43.9302413" lon="12.3872635"><ele>258.0</ele><time>2026-04-29T12:07:20.474Z</time></trkpt><trkpt lat="43.9303317" lon="12.3872791"><ele>256.0</ele><time>2026-04-29T12:07:21.474Z</time></trkpt><trkpt lat="43.9304179" lon="12.3872955"><ele>254.0</ele><time>2026-04-29T12:07:22.474Z</time></trkpt><trkpt lat="43.9305038" lon="12.3873233"><ele>254.0</ele><time>2026-04-29T12:07:23.475Z</time></trkpt><trkpt lat="43.9305869" lon="12.3873627"><ele>253.99999999999997</ele><time>2026-04-29T12:07:24.474Z</time></trkpt><trkpt lat="43.9306746" lon="12.3874052"><ele>253.99999999999997</ele><time>2026-04-29T12:07:25.475Z</time></trkpt><trkpt lat="43.9307779" lon="12.3874406"><ele>254.0</ele><time>2026-04-29T12:07:26.474Z</time></trkpt><trkpt lat="43.9308821" lon="12.3874733"><ele>254.0</ele><time>2026-04-29T12:07:27.474Z</time></trkpt><trkpt lat="43.9309833" lon="12.3875003"><ele>253.66666666666669</ele><time>2026-04-29T12:07:28.474Z</time></trkpt><trkpt lat="43.9310825" lon="12.3875295"><ele>253.33333333333334</ele><time>2026-04-29T12:07:29.474Z</time></trkpt><trkpt lat="43.9311751" lon="12.3875579"><ele>253.0</ele><time>2026-04-29T12:07:30.474Z</time></trkpt><trkpt lat="43.931257" lon="12.3875757"><ele>252.66666666666669</ele><time>2026-04-29T12:07:31.474Z</time></trkpt><trkpt lat="43.9313353" lon="12.3875953"><ele>252.33333333333334</ele><time>2026-04-29T12:07:32.474Z</time></trkpt><trkpt lat="43.9314077" lon="12.3876181"><ele>252.0</ele><time>2026-04-29T12:07:33.474Z</time></trkpt><trkpt lat="43.9314738" lon="12.3876372"><ele>252.0</ele><time>2026-04-29T12:07:34.475Z</time></trkpt><trkpt lat="43.9315457" lon="12.3876458"><ele>252.0</ele><time>2026-04-29T12:07:35.474Z</time></trkpt><trkpt lat="43.9316268" lon="12.3876501"><ele>252.0</ele><time>2026-04-29T12:07:36.474Z</time></trkpt><trkpt lat="43.931706" lon="12.3876439"><ele>252.0</ele><time>2026-04-29T12:07:37.474Z</time></trkpt><trkpt lat="43.9317854" lon="12.3876478"><ele>252.0</ele><time>2026-04-29T12:07:38.474Z</time></trkpt><trkpt lat="43.9318628" lon="12.3876428"><ele>252.0</ele><time>2026-04-29T12:07:39.474Z</time></trkpt><trkpt lat="43.9319415" lon="12.3876345"><ele>250.16666666666666</ele><time>2026-04-29T12:07:40.474Z</time></trkpt><trkpt lat="43.9320198" lon="12.3876186"><ele>248.33333333333331</ele><time>2026-04-29T12:07:41.474Z</time></trkpt><trkpt lat="43.932101" lon="12.3876029"><ele>246.5</ele><time>2026-04-29T12:07:42.475Z</time></trkpt><trkpt lat="43.9321774" lon="12.3875893"><ele>244.66666666666666</ele><time>2026-04-29T12:07:43.474Z</time></trkpt><trkpt lat="43.9322589" lon="12.3875777"><ele>242.83333333333331</ele><time>2026-04-29T12:07:44.474Z</time></trkpt><trkpt lat="43.9323389" lon="12.3875663"><ele>241.0</ele><time>2026-04-29T12:07:45.474Z</time></trkpt><trkpt lat="43.9324145" lon="12.3875546"><ele>241.0</ele><time>2026-04-29T12:07:46.474Z</time></trkpt><trkpt lat="43.9324871" lon="12.3875408"><ele>241.00000000000003</ele><time>2026-04-29T12:07:47.474Z</time></trkpt><trkpt lat="43.932562" lon="12.387528"><ele>241.0</ele><time>2026-04-29T12:07:48.474Z</time></trkpt><trkpt lat="43.9326336" lon="12.3875104"><ele>241.0</ele><time>2026-04-29T12:07:49.474Z</time></trkpt><trkpt lat="43.9327015" lon="12.3874908"><ele>241.00000000000003</ele><time>2026-04-29T12:07:50.473Z</time></trkpt><trkpt lat="43.9327662" lon="12.3874625"><ele>241.0</ele><time>2026-04-29T12:07:51.474Z</time></trkpt><trkpt lat="43.9328239" lon="12.3874231"><ele>241.0</ele><time>2026-04-29T12:07:52.474Z</time></trkpt><trkpt lat="43.932885" lon="12.3873817"><ele>240.33333333333331</ele><time>2026-04-29T12:07:53.474Z</time></trkpt><trkpt lat="43.9329466" lon="12.3873435"><ele>239.66666666666666</ele><time>2026-04-29T12:07:54.474Z</time></trkpt><trkpt lat="43.9330049" lon="12.3873065"><ele>239.0</ele><time>2026-04-29T12:07:55.474Z</time></trkpt><trkpt lat="43.9330638" lon="12.3872736"><ele>238.33333333333331</ele><time>2026-04-29T12:07:56.474Z</time></trkpt><trkpt lat="43.9331742" lon="12.3872098"><ele>237.66666666666666</ele><time>2026-04-29T12:07:58.474Z</time></trkpt><trkpt lat="43.933268" lon="12.3870938"><ele>237.0</ele><time>2026-04-29T12:08:00.474Z</time></trkpt><trkpt lat="43.9333281" lon="12.3869343"><ele>236.5</ele><time>2026-04-29T12:08:02.475Z</time></trkpt><trkpt lat="43.9333507" lon="12.3868281"><ele>236.0</ele><time>2026-04-29T12:08:03.474Z</time></trkpt><trkpt lat="43.9333623" lon="12.386709"><ele>235.5</ele><time>2026-04-29T12:08:04.474Z</time></trkpt><trkpt lat="43.9333757" lon="12.3865927"><ele>235.0</ele><time>2026-04-29T12:08:05.474Z</time></trkpt><trkpt lat="43.933395" lon="12.386482"><ele>234.5</ele><time>2026-04-29T12:08:06.474Z</time></trkpt><trkpt lat="43.9334124" lon="12.3863663"><ele>234.0</ele><time>2026-04-29T12:08:07.474Z</time></trkpt><trkpt lat="43.9334348" lon="12.3862493"><ele>232.57142857142858</ele><time>2026-04-29T12:08:08.474Z</time></trkpt><trkpt lat="43.9334567" lon="12.3861371"><ele>231.14285714285717</ele><time>2026-04-29T12:08:09.474Z</time></trkpt><trkpt lat="43.9334726" lon="12.3860324"><ele>229.71428571428572</ele><time>2026-04-29T12:08:10.474Z</time></trkpt><trkpt lat="43.9334878" lon="12.385933"><ele>228.28571428571428</ele><time>2026-04-29T12:08:11.474Z</time></trkpt><trkpt lat="43.9335054" lon="12.3858386"><ele>226.85714285714286</ele><time>2026-04-29T12:08:12.474Z</time></trkpt><trkpt lat="43.9335241" lon="12.3857518"><ele>225.42857142857144</ele><time>2026-04-29T12:08:13.474Z</time></trkpt><trkpt lat="43.9335473" lon="12.3856659"><ele>224.0</ele><time>2026-04-29T12:08:14.474Z</time></trkpt><trkpt lat="43.9335728" lon="12.3855857"><ele>223.14285714285714</ele><time>2026-04-29T12:08:15.474Z</time></trkpt><trkpt lat="43.9336138" lon="12.3855062"><ele>222.28571428571428</ele><time>2026-04-29T12:08:16.474Z</time></trkpt><trkpt lat="43.933656" lon="12.3854257"><ele>221.42857142857144</ele><time>2026-04-29T12:08:17.474Z</time></trkpt><trkpt lat="43.9337005" lon="12.3853414"><ele>220.57142857142856</ele><time>2026-04-29T12:08:18.474Z</time></trkpt><trkpt lat="43.9337458" lon="12.3852554"><ele>219.71428571428572</ele><time>2026-04-29T12:08:19.474Z</time></trkpt><trkpt lat="43.9337844" lon="12.3851716"><ele>218.85714285714286</ele><time>2026-04-29T12:08:20.474Z</time></trkpt><trkpt lat="43.9338237" lon="12.3850862"><ele>218.0</ele><time>2026-04-29T12:08:21.474Z</time></trkpt><trkpt lat="43.9338699" lon="12.3849997"><ele>218.0</ele><time>2026-04-29T12:08:22.474Z</time></trkpt><trkpt lat="43.9339141" lon="12.3849154"><ele>218.0</ele><time>2026-04-29T12:08:23.474Z</time></trkpt><trkpt lat="43.9339593" lon="12.3848369"><ele>218.0</ele><time>2026-04-29T12:08:24.474Z</time></trkpt><trkpt lat="43.9340094" lon="12.3847608"><ele>218.0</ele><time>2026-04-29T12:08:25.474Z</time></trkpt><trkpt lat="43.9340588" lon="12.384683"><ele>218.0</ele><time>2026-04-29T12:08:26.474Z</time></trkpt><trkpt lat="43.9341113" lon="12.3846137"><ele>218.0</ele><time>2026-04-29T12:08:27.474Z</time></trkpt><trkpt lat="43.9341533" lon="12.3845369"><ele>218.0</ele><time>2026-04-29T12:08:28.474Z</time></trkpt><trkpt lat="43.9341889" lon="12.3844355"><ele>217.50000000000003</ele><time>2026-04-29T12:08:29.474Z</time></trkpt><trkpt lat="43.9342248" lon="12.3843198"><ele>217.0</ele><time>2026-04-29T12:08:30.474Z</time></trkpt><trkpt lat="43.9342631" lon="12.384207"><ele>216.5</ele><time>2026-04-29T12:08:31.474Z</time></trkpt><trkpt lat="43.9343009" lon="12.3841032"><ele>216.0</ele><time>2026-04-29T12:08:32.474Z</time></trkpt><trkpt lat="43.9343462" lon="12.3839983"><ele>215.50000000000003</ele><time>2026-04-29T12:08:33.474Z</time></trkpt><trkpt lat="43.9343913" lon="12.3838935"><ele>215.0</ele><time>2026-04-29T12:08:34.474Z</time></trkpt><trkpt lat="43.9344409" lon="12.3837898"><ele>212.83333333333334</ele><time>2026-04-29T12:08:35.474Z</time></trkpt><trkpt lat="43.9344883" lon="12.3836874"><ele>210.66666666666669</ele><time>2026-04-29T12:08:36.474Z</time></trkpt><trkpt lat="43.9345355" lon="12.3835917"><ele>208.5</ele><time>2026-04-29T12:08:37.474Z</time></trkpt><trkpt lat="43.9345725" lon="12.3835002"><ele>206.33333333333331</ele><time>2026-04-29T12:08:38.474Z</time></trkpt><trkpt lat="43.934599" lon="12.383402"><ele>204.16666666666666</ele><time>2026-04-29T12:08:39.474Z</time></trkpt><trkpt lat="43.934623" lon="12.3833093"><ele>202.0</ele><time>2026-04-29T12:08:40.474Z</time></trkpt><trkpt lat="43.9346376" lon="12.3832124"><ele>202.0</ele><time>2026-04-29T12:08:41.474Z</time></trkpt><trkpt lat="43.9346587" lon="12.3831217"><ele>202.0</ele><time>2026-04-29T12:08:42.474Z</time></trkpt><trkpt lat="43.9346792" lon="12.3830301"><ele>202.0</ele><time>2026-04-29T12:08:43.474Z</time></trkpt><trkpt lat="43.9347077" lon="12.3829482"><ele>202.0</ele><time>2026-04-29T12:08:44.474Z</time></trkpt><trkpt lat="43.9347485" lon="12.3828803"><ele>202.0</ele><time>2026-04-29T12:08:45.474Z</time></trkpt><trkpt lat="43.9348035" lon="12.3828174"><ele>202.0</ele><time>2026-04-29T12:08:46.474Z</time></trkpt><trkpt lat="43.9348679" lon="12.3827639"><ele>202.0</ele><time>2026-04-29T12:08:47.474Z</time></trkpt><trkpt lat="43.9349384" lon="12.3827089"><ele>201.33333333333331</ele><time>2026-04-29T12:08:48.474Z</time></trkpt><trkpt lat="43.935004" lon="12.3826509"><ele>200.66666666666666</ele><time>2026-04-29T12:08:49.474Z</time></trkpt><trkpt lat="43.9350565" lon="12.3825844"><ele>200.0</ele><time>2026-04-29T12:08:50.474Z</time></trkpt><trkpt lat="43.9350969" lon="12.3825104"><ele>199.33333333333331</ele><time>2026-04-29T12:08:51.474Z</time></trkpt><trkpt lat="43.9351284" lon="12.3824228"><ele>198.66666666666666</ele><time>2026-04-29T12:08:52.474Z</time></trkpt><trkpt lat="43.9351559" lon="12.3822996"><ele>198.0</ele><time>2026-04-29T12:08:53.474Z</time></trkpt><trkpt lat="43.9351763" lon="12.3821836"><ele>196.66666666666666</ele><time>2026-04-29T12:08:54.475Z</time></trkpt><trkpt lat="43.93519" lon="12.382082"><ele>195.33333333333334</ele><time>2026-04-29T12:08:55.474Z</time></trkpt><trkpt lat="43.9352032" lon="12.3819937"><ele>194.0</ele><time>2026-04-29T12:08:56.475Z</time></trkpt><trkpt lat="43.9352261" lon="12.3818583"><ele>192.66666666666669</ele><time>2026-04-29T12:08:58.474Z</time></trkpt><trkpt lat="43.9352489" lon="12.3817277"><ele>191.33333333333334</ele><time>2026-04-29T12:09:00.474Z</time></trkpt><trkpt lat="43.9352695" lon="12.3816146"><ele>190.0</ele><time>2026-04-29T12:09:02.474Z</time></trkpt><trkpt lat="43.9352897" lon="12.3815026"><ele>190.0</ele><time>2026-04-29T12:09:05.474Z</time></trkpt><trkpt lat="43.935325" lon="12.3813868"><ele>190.0</ele><time>2026-04-29T12:09:08.474Z</time></trkpt><trkpt lat="43.9353522" lon="12.381304"><ele>190.0</ele><time>2026-04-29T12:09:10.474Z</time></trkpt><trkpt lat="43.9353837" lon="12.3811999"><ele>190.0</ele><time>2026-04-29T12:09:13.474Z</time></trkpt><trkpt lat="43.9354394" lon="12.3812465"><ele>190.0</ele><time>2026-04-29T12:10:58.474Z</time></trkpt><trkpt lat="43.9355043" lon="12.3812649"><ele>190.0</ele><time>2026-04-29T12:11:03.474Z</time></trkpt><trkpt lat="43.9355572" lon="12.3813263"><ele>190.0</ele><time>2026-04-29T12:11:06.474Z</time></trkpt><trkpt lat="43.9356376" lon="12.381353"><ele>190.0</ele><time>2026-04-29T12:11:11.474Z</time></trkpt><trkpt lat="43.9357063" lon="12.3813885"><ele>190.0</ele><time>2026-04-29T12:11:15.474Z</time></trkpt><trkpt lat="43.9357606" lon="12.3814505"><ele>190.0</ele><time>2026-04-29T12:11:19.474Z</time></trkpt><trkpt lat="43.9358063" lon="12.3815383"><ele>190.0</ele><time>2026-04-29T12:16:24.473Z</time></trkpt><trkpt lat="43.9358467" lon="12.381621"><ele>190.0</ele><time>2026-04-29T12:16:27.473Z</time></trkpt><trkpt lat="43.935908" lon="12.3816818"><ele>190.0</ele><time>2026-04-29T12:16:30.473Z</time></trkpt><trkpt lat="43.9359648" lon="12.381737"><ele>190.0</ele><time>2026-04-29T12:16:32.473Z</time></trkpt><trkpt lat="43.9360344" lon="12.3818322"><ele>189.83333333333334</ele><time>2026-04-29T12:16:34.473Z</time></trkpt><trkpt lat="43.9361087" lon="12.3819231"><ele>189.66666666666669</ele><time>2026-04-29T12:16:36.473Z</time></trkpt><trkpt lat="43.9361679" lon="12.3819852"><ele>189.5</ele><time>2026-04-29T12:16:38.473Z</time></trkpt><trkpt lat="43.9362393" lon="12.3820499"><ele>189.33333333333334</ele><time>2026-04-29T12:16:41.473Z</time></trkpt><trkpt lat="43.9363008" lon="12.3821453"><ele>189.16666666666666</ele><time>2026-04-29T12:16:44.473Z</time></trkpt><trkpt lat="43.9363721" lon="12.3822164"><ele>189.0</ele><time>2026-04-29T12:16:47.473Z</time></trkpt><trkpt lat="43.9364515" lon="12.3822667"><ele>189.0</ele><time>2026-04-29T12:16:50.473Z</time></trkpt><trkpt lat="43.9365177" lon="12.3822826"><ele>189.0</ele><time>2026-04-29T12:17:04.473Z</time></trkpt><trkpt lat="43.9365861" lon="12.3822717"><ele>189.0</ele><time>2026-04-29T12:17:09.474Z</time></trkpt><trkpt lat="43.9366519" lon="12.3822866"><ele>189.0</ele><time>2026-04-29T12:17:13.474Z</time></trkpt><trkpt lat="43.9367404" lon="12.3822939"><ele>189.0</ele><time>2026-04-29T12:17:16.473Z</time></trkpt><trkpt lat="43.9368251" lon="12.3822934"><ele>189.0</ele><time>2026-04-29T12:17:19.473Z</time></trkpt><trkpt lat="43.9368959" lon="12.3822634"><ele>189.0</ele><time>2026-04-29T12:17:22.473Z</time></trkpt><trkpt lat="43.9369701" lon="12.3822495"><ele>189.0</ele><time>2026-04-29T12:17:26.474Z</time></trkpt><trkpt lat="43.9370541" lon="12.382256"><ele>189.0</ele><time>2026-04-29T12:17:29.473Z</time></trkpt><trkpt lat="43.9371269" lon="12.3822923"><ele>189.0</ele><time>2026-04-29T12:17:32.473Z</time></trkpt><trkpt lat="43.9371975" lon="12.3823278"><ele>189.0</ele><time>2026-04-29T12:17:36.473Z</time></trkpt><trkpt lat="43.9372521" lon="12.382382"><ele>189.0</ele><time>2026-04-29T12:17:39.474Z</time></trkpt><trkpt lat="43.9373126" lon="12.3824546"><ele>189.0</ele><time>2026-04-29T12:17:42.473Z</time></trkpt><trkpt lat="43.9373616" lon="12.3825345"><ele>189.0</ele><time>2026-04-29T12:17:45.473Z</time></trkpt><trkpt lat="43.9374133" lon="12.3826094"><ele>189.0</ele><time>2026-04-29T12:17:48.474Z</time></trkpt><trkpt lat="43.9374696" lon="12.3826688"><ele>189.0</ele><time>2026-04-29T12:17:51.473Z</time></trkpt><trkpt lat="43.9375287" lon="12.3827169"><ele>189.0</ele><time>2026-04-29T12:17:54.473Z</time></trkpt><trkpt lat="43.9375823" lon="12.382774"><ele>189.0</ele><time>2026-04-29T12:17:57.473Z</time></trkpt><trkpt lat="43.937651" lon="12.3828357"><ele>189.0</ele><time>2026-04-29T12:18:00.473Z</time></trkpt><trkpt lat="43.9377261" lon="12.382885"><ele>188.66666666666666</ele><time>2026-04-29T12:18:03.473Z</time></trkpt><trkpt lat="43.9378001" lon="12.3829244"><ele>188.33333333333334</ele><time>2026-04-29T12:18:06.473Z</time></trkpt><trkpt lat="43.9378848" lon="12.3829728"><ele>188.0</ele><time>2026-04-29T12:18:09.473Z</time></trkpt><trkpt lat="43.9379508" lon="12.3830052"><ele>187.66666666666669</ele><time>2026-04-29T12:18:11.473Z</time></trkpt><trkpt lat="43.9380204" lon="12.3830338"><ele>187.33333333333334</ele><time>2026-04-29T12:18:13.473Z</time></trkpt><trkpt lat="43.9381047" lon="12.3830454"><ele>187.0</ele><time>2026-04-29T12:18:15.473Z</time></trkpt><trkpt lat="43.938187" lon="12.3830657"><ele>188.0</ele><time>2026-04-29T12:18:17.473Z</time></trkpt><trkpt lat="43.9382657" lon="12.3830685"><ele>189.0</ele><time>2026-04-29T12:18:19.473Z</time></trkpt><trkpt lat="43.9383371" lon="12.3830612"><ele>190.0</ele><time>2026-04-29T12:18:21.473Z</time></trkpt><trkpt lat="43.9384142" lon="12.3830483"><ele>191.0</ele><time>2026-04-29T12:18:23.473Z</time></trkpt><trkpt lat="43.938495" lon="12.3830233"><ele>191.99999999999997</ele><time>2026-04-29T12:18:25.473Z</time></trkpt><trkpt lat="43.9385715" lon="12.3829901"><ele>193.0</ele><time>2026-04-29T12:18:28.473Z</time></trkpt><trkpt lat="43.9386285" lon="12.3829241"><ele>192.99999999999997</ele><time>2026-04-29T12:18:32.473Z</time></trkpt><trkpt lat="43.9386324" lon="12.3828104"><ele>193.0</ele><time>2026-04-29T12:18:35.473Z</time></trkpt><trkpt lat="43.9385979" lon="12.3827283"><ele>193.0</ele><time>2026-04-29T12:18:38.473Z</time></trkpt><trkpt lat="43.9385619" lon="12.3826434"><ele>193.0</ele><time>2026-04-29T12:18:55.473Z</time></trkpt><trkpt lat="43.9385978" lon="12.3825208"><ele>192.99999999999997</ele><time>2026-04-29T12:18:59.473Z</time></trkpt><trkpt lat="43.9386412" lon="12.3824324"><ele>193.0</ele><time>2026-04-29T12:19:02.474Z</time></trkpt><trkpt lat="43.9387453" lon="12.3824281"><ele>192.99999999999997</ele><time>2026-04-29T12:19:19.473Z</time></trkpt><trkpt lat="43.9388107" lon="12.3824203"><ele>193.0</ele><time>2026-04-29T12:19:22.473Z</time></trkpt><trkpt lat="43.9388769" lon="12.382357"><ele>193.0</ele><time>2026-04-29T12:19:38.473Z</time></trkpt><trkpt lat="43.9389294" lon="12.3822639"><ele>193.0</ele><time>2026-04-29T12:19:40.473Z</time></trkpt><trkpt lat="43.9389505" lon="12.382161"><ele>192.99999999999997</ele><time>2026-04-29T12:19:44.473Z</time></trkpt><trkpt lat="43.9389659" lon="12.3820748"><ele>193.0</ele><time>2026-04-29T12:19:53.473Z</time></trkpt><trkpt lat="43.9390442" lon="12.3820484"><ele>192.49999999999997</ele><time>2026-04-29T12:19:57.473Z</time></trkpt><trkpt lat="43.9391072" lon="12.3820277"><ele>192.0</ele><time>2026-04-29T12:20:01.473Z</time></trkpt><trkpt lat="43.9391705" lon="12.3819911"><ele>191.5</ele><time>2026-04-29T12:20:16.473Z</time></trkpt><trkpt lat="43.9392386" lon="12.3819338"><ele>191.0</ele><time>2026-04-29T12:20:22.473Z</time></trkpt><trkpt lat="43.9393016" lon="12.3819342"><ele>190.5</ele><time>2026-04-29T12:20:24.474Z</time></trkpt><trkpt lat="43.9393857" lon="12.3819401"><ele>190.0</ele><time>2026-04-29T12:20:27.473Z</time></trkpt><trkpt lat="43.9394883" lon="12.3819267"><ele>190.0</ele><time>2026-04-29T12:20:30.473Z</time></trkpt><trkpt lat="43.9395683" lon="12.3819199"><ele>190.0</ele><time>2026-04-29T12:20:32.473Z</time></trkpt><trkpt lat="43.9396377" lon="12.3819052"><ele>190.0</ele><time>2026-04-29T12:20:34.473Z</time></trkpt><trkpt lat="43.9396988" lon="12.3818721"><ele>190.0</ele><time>2026-04-29T12:20:36.473Z</time></trkpt><trkpt lat="43.9397656" lon="12.3818288"><ele>190.0</ele><time>2026-04-29T12:20:38.473Z</time></trkpt><trkpt lat="43.9398244" lon="12.3817843"><ele>190.0</ele><time>2026-04-29T12:20:40.473Z</time></trkpt><trkpt lat="43.9398843" lon="12.381746"><ele>190.0</ele><time>2026-04-29T12:20:42.473Z</time></trkpt><trkpt lat="43.9399489" lon="12.3817039"><ele>190.0</ele><time>2026-04-29T12:20:44.473Z</time></trkpt><trkpt lat="43.9400058" lon="12.3816586"><ele>190.0</ele><time>2026-04-29T12:20:46.474Z</time></trkpt><trkpt lat="43.9400788" lon="12.3815981"><ele>190.0</ele><time>2026-04-29T12:20:49.473Z</time></trkpt><trkpt lat="43.9401343" lon="12.3815233"><ele>190.0</ele><time>2026-04-29T12:20:52.473Z</time></trkpt><trkpt lat="43.9401875" lon="12.381427"><ele>190.0</ele><time>2026-04-29T12:20:55.474Z</time></trkpt><trkpt lat="43.9402364" lon="12.3813646"><ele>190.0</ele><time>2026-04-29T12:20:57.473Z</time></trkpt><trkpt lat="43.9402953" lon="12.3813281"><ele>190.0</ele><time>2026-04-29T12:20:59.473Z</time></trkpt><trkpt lat="43.9403673" lon="12.3812561"><ele>189.16666666666669</ele><time>2026-04-29T12:21:02.473Z</time></trkpt><trkpt lat="43.9404122" lon="12.381187"><ele>188.33333333333334</ele><time>2026-04-29T12:21:04.473Z</time></trkpt><trkpt lat="43.9404448" lon="12.3811109"><ele>187.5</ele><time>2026-04-29T12:21:07.473Z</time></trkpt><trkpt lat="43.9404772" lon="12.3809816"><ele>186.66666666666666</ele><time>2026-04-29T12:21:25.472Z</time></trkpt><trkpt lat="43.9404964" lon="12.3808803"><ele>185.83333333333331</ele><time>2026-04-29T12:21:28.472Z</time></trkpt><trkpt lat="43.9405209" lon="12.3807783"><ele>185.0</ele><time>2026-04-29T12:21:34.472Z</time></trkpt><trkpt lat="43.9406004" lon="12.3806824"><ele>185.0</ele><time>2026-04-29T12:21:44.472Z</time></trkpt><trkpt lat="43.9406734" lon="12.3806161"><ele>185.0</ele><time>2026-04-29T12:21:46.472Z</time></trkpt><trkpt lat="43.9407624" lon="12.3805352"><ele>185.0</ele><time>2026-04-29T12:21:48.472Z</time></trkpt><trkpt lat="43.9408057" lon="12.3804695"><ele>185.0</ele><time>2026-04-29T12:21:50.472Z</time></trkpt><trkpt lat="43.9408214" lon="12.3803716"><ele>185.0</ele><time>2026-04-29T12:21:53.472Z</time></trkpt><trkpt lat="43.9407993" lon="12.380287"><ele>185.0</ele><time>2026-04-29T12:21:55.472Z</time></trkpt><trkpt lat="43.9407701" lon="12.3801796"><ele>184.83333333333331</ele><time>2026-04-29T12:21:58.472Z</time></trkpt><trkpt lat="43.9408385" lon="12.3800802"><ele>184.66666666666666</ele><time>2026-04-29T12:22:13.472Z</time></trkpt><trkpt lat="43.9409062" lon="12.3800331"><ele>184.5</ele><time>2026-04-29T12:22:18.472Z</time></trkpt><trkpt lat="43.9409607" lon="12.3799399"><ele>184.33333333333334</ele><time>2026-04-29T12:22:21.472Z</time></trkpt><trkpt lat="43.9409804" lon="12.3798375"><ele>184.16666666666669</ele><time>2026-04-29T12:22:23.472Z</time></trkpt><trkpt lat="43.9409955" lon="12.3797179"><ele>184.0</ele><time>2026-04-29T12:22:25.472Z</time></trkpt><trkpt lat="43.9410256" lon="12.3796361"><ele>183.14285714285714</ele><time>2026-04-29T12:22:27.472Z</time></trkpt><trkpt lat="43.9410563" lon="12.3795597"><ele>182.28571428571428</ele><time>2026-04-29T12:22:29.473Z</time></trkpt><trkpt lat="43.9410889" lon="12.3794848"><ele>181.42857142857142</ele><time>2026-04-29T12:22:32.473Z</time></trkpt><trkpt lat="43.9411584" lon="12.3794411"><ele>180.57142857142856</ele><time>2026-04-29T12:22:35.472Z</time></trkpt><trkpt lat="43.9412237" lon="12.3793943"><ele>179.71428571428572</ele><time>2026-04-29T12:22:38.472Z</time></trkpt><trkpt lat="43.941293" lon="12.3793077"><ele>178.85714285714283</ele><time>2026-04-29T12:22:41.472Z</time></trkpt><trkpt lat="43.9413515" lon="12.3792508"><ele>178.0</ele><time>2026-04-29T12:22:43.472Z</time></trkpt><trkpt lat="43.9414438" lon="12.3792222"><ele>178.0</ele><time>2026-04-29T12:22:46.472Z</time></trkpt><trkpt lat="43.9415374" lon="12.3791863"><ele>178.0</ele><time>2026-04-29T12:22:49.472Z</time></trkpt><trkpt lat="43.9416213" lon="12.3791411"><ele>178.0</ele><time>2026-04-29T12:22:52.473Z</time></trkpt><trkpt lat="43.9416711" lon="12.3790846"><ele>178.0</ele><time>2026-04-29T12:22:54.472Z</time></trkpt><trkpt lat="43.9417206" lon="12.379009"><ele>178.0</ele><time>2026-04-29T12:22:56.472Z</time></trkpt><trkpt lat="43.9417697" lon="12.37893"><ele>178.0</ele><time>2026-04-29T12:22:58.472Z</time></trkpt><trkpt lat="43.9418189" lon="12.3788481"><ele>177.83333333333334</ele><time>2026-04-29T12:23:00.472Z</time></trkpt><trkpt lat="43.9418667" lon="12.3787448"><ele>177.66666666666669</ele><time>2026-04-29T12:23:02.472Z</time></trkpt><trkpt lat="43.9419188" lon="12.3786588"><ele>177.5</ele><time>2026-04-29T12:23:04.472Z</time></trkpt><trkpt lat="43.9419587" lon="12.3785825"><ele>177.33333333333334</ele><time>2026-04-29T12:23:06.472Z</time></trkpt><trkpt lat="43.9420125" lon="12.3785218"><ele>177.16666666666666</ele><time>2026-04-29T12:23:08.472Z</time></trkpt><trkpt lat="43.9420659" lon="12.3784736"><ele>177.0</ele><time>2026-04-29T12:23:10.472Z</time></trkpt><trkpt lat="43.9421234" lon="12.3783866"><ele>177.0</ele><time>2026-04-29T12:23:13.472Z</time></trkpt><trkpt lat="43.9422023" lon="12.3783946"><ele>177.0</ele><time>2026-04-29T12:23:17.473Z</time></trkpt><trkpt lat="43.9422857" lon="12.3784901"><ele>177.0</ele><time>2026-04-29T12:23:19.472Z</time></trkpt><trkpt lat="43.9423287" lon="12.378556"><ele>177.0</ele><time>2026-04-29T12:23:20.473Z</time></trkpt><trkpt lat="43.9423715" lon="12.3786267"><ele>177.0</ele><time>2026-04-29T12:23:21.472Z</time></trkpt><trkpt lat="43.9424136" lon="12.378711"><ele>177.0</ele><time>2026-04-29T12:23:22.472Z</time></trkpt><trkpt lat="43.9424462" lon="12.3787965"><ele>177.8</ele><time>2026-04-29T12:23:23.472Z</time></trkpt><trkpt lat="43.942492" lon="12.3789478"><ele>178.6</ele><time>2026-04-29T12:23:25.472Z</time></trkpt><trkpt lat="43.9425442" lon="12.3790861"><ele>179.4</ele><time>2026-04-29T12:23:27.472Z</time></trkpt><trkpt lat="43.9425809" lon="12.3791931"><ele>180.20000000000002</ele><time>2026-04-29T12:23:29.472Z</time></trkpt><trkpt lat="43.9426697" lon="12.3791604"><ele>181.0</ele><time>2026-04-29T12:23:32.472Z</time></trkpt><trkpt lat="43.9427214" lon="12.3790906"><ele>180.8</ele><time>2026-04-29T12:23:33.472Z</time></trkpt><trkpt lat="43.9427867" lon="12.3790061"><ele>180.60000000000002</ele><time>2026-04-29T12:23:34.472Z</time></trkpt><trkpt lat="43.94284" lon="12.3789298"><ele>180.4</ele><time>2026-04-29T12:23:35.472Z</time></trkpt><trkpt lat="43.9428887" lon="12.3788597"><ele>180.2</ele><time>2026-04-29T12:23:36.472Z</time></trkpt><trkpt lat="43.9429718" lon="12.3787499"><ele>180.0</ele><time>2026-04-29T12:23:38.472Z</time></trkpt><trkpt lat="43.9430427" lon="12.378633"><ele>180.0</ele><time>2026-04-29T12:23:40.472Z</time></trkpt><trkpt lat="43.9431109" lon="12.3785278"><ele>180.0</ele><time>2026-04-29T12:23:42.472Z</time></trkpt><trkpt lat="43.9431878" lon="12.3784278"><ele>180.0</ele><time>2026-04-29T12:23:44.472Z</time></trkpt><trkpt lat="43.9432538" lon="12.3783298"><ele>180.0</ele><time>2026-04-29T12:23:46.472Z</time></trkpt><trkpt lat="43.9433198" lon="12.3782346"><ele>180.0</ele><time>2026-04-29T12:23:48.472Z</time></trkpt><trkpt lat="43.9433943" lon="12.3781312"><ele>179.6</ele><time>2026-04-29T12:23:50.472Z</time></trkpt><trkpt lat="43.9434532" lon="12.3780324"><ele>179.2</ele><time>2026-04-29T12:23:52.472Z</time></trkpt><trkpt lat="43.9435192" lon="12.3779137"><ele>178.8</ele><time>2026-04-29T12:23:54.472Z</time></trkpt><trkpt lat="43.9435894" lon="12.3777644"><ele>178.4</ele><time>2026-04-29T12:23:56.472Z</time></trkpt><trkpt lat="43.9436255" lon="12.3776837"><ele>178.0</ele><time>2026-04-29T12:23:57.472Z</time></trkpt><trkpt lat="43.9436803" lon="12.3775438"><ele>178.0</ele><time>2026-04-29T12:23:59.472Z</time></trkpt><trkpt lat="43.9437297" lon="12.3774098"><ele>178.0</ele><time>2026-04-29T12:24:01.472Z</time></trkpt><trkpt lat="43.9437792" lon="12.3773054"><ele>178.0</ele><time>2026-04-29T12:24:03.473Z</time></trkpt><trkpt lat="43.9438331" lon="12.3772099"><ele>178.0</ele><time>2026-04-29T12:24:05.472Z</time></trkpt><trkpt lat="43.9439111" lon="12.3771393"><ele>178.0</ele><time>2026-04-29T12:24:08.472Z</time></trkpt><trkpt lat="43.943979" lon="12.3770354"><ele>177.2</ele><time>2026-04-29T12:24:11.472Z</time></trkpt><trkpt lat="43.9440306" lon="12.3769124"><ele>176.4</ele><time>2026-04-29T12:24:13.472Z</time></trkpt><trkpt lat="43.9440815" lon="12.3767834"><ele>175.6</ele><time>2026-04-29T12:24:15.472Z</time></trkpt><trkpt lat="43.9441304" lon="12.3766674"><ele>174.79999999999998</ele><time>2026-04-29T12:24:17.472Z</time></trkpt><trkpt lat="43.944168" lon="12.3765457"><ele>174.0</ele><time>2026-04-29T12:24:19.472Z</time></trkpt><trkpt lat="43.9441975" lon="12.3764298"><ele>173.79999999999998</ele><time>2026-04-29T12:24:21.472Z</time></trkpt><trkpt lat="43.944226" lon="12.3763291"><ele>173.6</ele><time>2026-04-29T12:24:23.472Z</time></trkpt><trkpt lat="43.9442571" lon="12.3762218"><ele>173.4</ele><time>2026-04-29T12:24:25.472Z</time></trkpt><trkpt lat="43.9443057" lon="12.3760928"><ele>173.2</ele><time>2026-04-29T12:24:27.472Z</time></trkpt><trkpt lat="43.9443775" lon="12.3759742"><ele>173.0</ele><time>2026-04-29T12:24:29.472Z</time></trkpt><trkpt lat="43.9444458" lon="12.3758934"><ele>173.0</ele><time>2026-04-29T12:24:31.472Z</time></trkpt><trkpt lat="43.9445187" lon="12.3757939"><ele>173.0</ele><time>2026-04-29T12:24:33.472Z</time></trkpt><trkpt lat="43.9445948" lon="12.3756781"><ele>173.0</ele><time>2026-04-29T12:24:35.473Z</time></trkpt><trkpt lat="43.9446623" lon="12.3755824"><ele>173.0</ele><time>2026-04-29T12:24:37.472Z</time></trkpt><trkpt lat="43.9447245" lon="12.3755261"><ele>173.0</ele><time>2026-04-29T12:24:39.472Z</time></trkpt><trkpt lat="43.9447608" lon="12.3754355"><ele>172.60000000000002</ele><time>2026-04-29T12:24:41.472Z</time></trkpt><trkpt lat="43.944767" lon="12.3753309"><ele>172.20000000000002</ele><time>2026-04-29T12:24:43.472Z</time></trkpt><trkpt lat="43.9447894" lon="12.3752467"><ele>171.8</ele><time>2026-04-29T12:24:45.472Z</time></trkpt><trkpt lat="43.944846" lon="12.3751615"><ele>171.4</ele><time>2026-04-29T12:24:47.472Z</time></trkpt><trkpt lat="43.9449272" lon="12.3750484"><ele>171.0</ele><time>2026-04-29T12:24:49.472Z</time></trkpt><trkpt lat="43.9450066" lon="12.374919"><ele>171.16666666666666</ele><time>2026-04-29T12:24:51.472Z</time></trkpt><trkpt lat="43.9450481" lon="12.3748494"><ele>171.33333333333334</ele><time>2026-04-29T12:24:52.472Z</time></trkpt><trkpt lat="43.9450855" lon="12.3747785"><ele>171.5</ele><time>2026-04-29T12:24:53.472Z</time></trkpt><trkpt lat="43.945119" lon="12.3746985"><ele>171.66666666666669</ele><time>2026-04-29T12:24:54.472Z</time></trkpt><trkpt lat="43.9451463" lon="12.374616"><ele>171.83333333333334</ele><time>2026-04-29T12:24:55.472Z</time></trkpt><trkpt lat="43.9451971" lon="12.3744663"><ele>172.0</ele><time>2026-04-29T12:24:57.472Z</time></trkpt><trkpt lat="43.9452577" lon="12.3743183"><ele>172.0</ele><time>2026-04-29T12:24:59.473Z</time></trkpt><trkpt lat="43.9452953" lon="12.3742458"><ele>172.0</ele><time>2026-04-29T12:25:00.472Z</time></trkpt><trkpt lat="43.9453806" lon="12.3741194"><ele>172.0</ele><time>2026-04-29T12:25:02.472Z</time></trkpt><trkpt lat="43.9454482" lon="12.3740092"><ele>172.0</ele><time>2026-04-29T12:25:04.472Z</time></trkpt><trkpt lat="43.945513" lon="12.3739187"><ele>172.0</ele><time>2026-04-29T12:25:06.472Z</time></trkpt><trkpt lat="43.945591" lon="12.3738273"><ele>171.8</ele><time>2026-04-29T12:25:08.472Z</time></trkpt><trkpt lat="43.9456547" lon="12.3737098"><ele>171.6</ele><time>2026-04-29T12:25:10.472Z</time></trkpt><trkpt lat="43.9457012" lon="12.3735513"><ele>171.4</ele><time>2026-04-29T12:25:12.472Z</time></trkpt><trkpt lat="43.9457233" lon="12.3734025"><ele>171.20000000000002</ele><time>2026-04-29T12:25:14.472Z</time></trkpt><trkpt lat="43.945728" lon="12.3732829"><ele>171.0</ele><time>2026-04-29T12:25:16.472Z</time></trkpt><trkpt lat="43.9457337" lon="12.3731897"><ele>171.0</ele><time>2026-04-29T12:25:18.472Z</time></trkpt><trkpt lat="43.9457674" lon="12.3730739"><ele>171.0</ele><time>2026-04-29T12:25:21.472Z</time></trkpt><trkpt lat="43.9458087" lon="12.3729924"><ele>171.0</ele><time>2026-04-29T12:25:24.472Z</time></trkpt><trkpt lat="43.945856" lon="12.3729114"><ele>171.0</ele><time>2026-04-29T12:25:27.473Z</time></trkpt><trkpt lat="43.9458974" lon="12.3728282"><ele>171.0</ele><time>2026-04-29T12:25:29.472Z</time></trkpt><trkpt lat="43.9459494" lon="12.3727444"><ele>171.0</ele><time>2026-04-29T12:25:31.472Z</time></trkpt><trkpt lat="43.9460047" lon="12.3726475"><ele>170.20000000000002</ele><time>2026-04-29T12:25:33.473Z</time></trkpt><trkpt lat="43.9460752" lon="12.3725092"><ele>169.4</ele><time>2026-04-29T12:25:35.472Z</time></trkpt><trkpt lat="43.9461168" lon="12.3724384"><ele>168.6</ele><time>2026-04-29T12:25:36.472Z</time></trkpt><trkpt lat="43.9461874" lon="12.3723145"><ele>167.8</ele><time>2026-04-29T12:25:38.472Z</time></trkpt><trkpt lat="43.9462583" lon="12.3722178"><ele>167.0</ele><time>2026-04-29T12:25:40.472Z</time></trkpt><trkpt lat="43.9463294" lon="12.3721378"><ele>166.66666666666666</ele><time>2026-04-29T12:25:42.472Z</time></trkpt><trkpt lat="43.9463967" lon="12.3720686"><ele>166.33333333333331</ele><time>2026-04-29T12:25:44.472Z</time></trkpt><trkpt lat="43.9464445" lon="12.37199"><ele>166.0</ele><time>2026-04-29T12:25:46.472Z</time></trkpt><trkpt lat="43.946507" lon="12.3719312"><ele>165.66666666666666</ele><time>2026-04-29T12:25:48.472Z</time></trkpt><trkpt lat="43.9465954" lon="12.3718576"><ele>165.33333333333334</ele><time>2026-04-29T12:25:50.472Z</time></trkpt><trkpt lat="43.9466723" lon="12.3717571"><ele>165.0</ele><time>2026-04-29T12:25:52.473Z</time></trkpt><trkpt lat="43.9467686" lon="12.37165"><ele>165.0</ele><time>2026-04-29T12:25:54.473Z</time></trkpt><trkpt lat="43.9468292" lon="12.3715995"><ele>165.0</ele><time>2026-04-29T12:25:55.472Z</time></trkpt><trkpt lat="43.9468882" lon="12.3715545"><ele>165.0</ele><time>2026-04-29T12:25:56.472Z</time></trkpt><trkpt lat="43.9469465" lon="12.3715157"><ele>165.0</ele><time>2026-04-29T12:25:57.472Z</time></trkpt><trkpt lat="43.9470486" lon="12.3714101"><ele>165.0</ele><time>2026-04-29T12:25:59.472Z</time></trkpt><trkpt lat="43.947097" lon="12.3713344"><ele>165.0</ele><time>2026-04-29T12:26:00.472Z</time></trkpt><trkpt lat="43.9471448" lon="12.3712666"><ele>164.0</ele><time>2026-04-29T12:26:01.472Z</time></trkpt><trkpt lat="43.9471915" lon="12.3712073"><ele>163.0</ele><time>2026-04-29T12:26:02.472Z</time></trkpt><trkpt lat="43.9472868" lon="12.3711131"><ele>162.0</ele><time>2026-04-29T12:26:04.472Z</time></trkpt><trkpt lat="43.9473743" lon="12.3710346"><ele>161.0</ele><time>2026-04-29T12:26:06.472Z</time></trkpt><trkpt lat="43.9474645" lon="12.3709558"><ele>160.0</ele><time>2026-04-29T12:26:08.472Z</time></trkpt><trkpt lat="43.9475286" lon="12.3708815"><ele>160.0</ele><time>2026-04-29T12:26:10.472Z</time></trkpt><trkpt lat="43.9475917" lon="12.3708701"><ele>160.0</ele><time>2026-04-29T12:26:12.472Z</time></trkpt><trkpt lat="43.9476584" lon="12.3708552"><ele>160.0</ele><time>2026-04-29T12:26:14.472Z</time></trkpt><trkpt lat="43.9476965" lon="12.3707514"><ele>160.0</ele><time>2026-04-29T12:26:18.472Z</time></trkpt><trkpt lat="43.9477131" lon="12.3706451"><ele>160.0</ele><time>2026-04-29T12:26:20.472Z</time></trkpt><trkpt lat="43.9477365" lon="12.3704938"><ele>160.0</ele><time>2026-04-29T12:26:22.472Z</time></trkpt><trkpt lat="43.9477638" lon="12.3703455"><ele>160.0</ele><time>2026-04-29T12:26:24.472Z</time></trkpt><trkpt lat="43.9478034" lon="12.3702372"><ele>160.0</ele><time>2026-04-29T12:26:26.472Z</time></trkpt><trkpt lat="43.9478632" lon="12.3701322"><ele>160.0</ele><time>2026-04-29T12:26:28.472Z</time></trkpt><trkpt lat="43.9479315" lon="12.3700085"><ele>160.0</ele><time>2026-04-29T12:26:30.472Z</time></trkpt><trkpt lat="43.9479927" lon="12.3698982"><ele>160.0</ele><time>2026-04-29T12:26:32.472Z</time></trkpt><trkpt lat="43.9480306" lon="12.3697794"><ele>160.16666666666669</ele><time>2026-04-29T12:26:34.472Z</time></trkpt><trkpt lat="43.9481173" lon="12.3696794"><ele>160.33333333333334</ele><time>2026-04-29T12:26:36.472Z</time></trkpt><trkpt lat="43.9481791" lon="12.3696414"><ele>160.5</ele><time>2026-04-29T12:26:37.472Z</time></trkpt><trkpt lat="43.9482491" lon="12.3696098"><ele>160.66666666666666</ele><time>2026-04-29T12:26:38.472Z</time></trkpt><trkpt lat="43.9483155" lon="12.3695774"><ele>160.83333333333331</ele><time>2026-04-29T12:26:39.472Z</time></trkpt><trkpt lat="43.9483844" lon="12.3695392"><ele>161.0</ele><time>2026-04-29T12:26:40.472Z</time></trkpt><trkpt lat="43.9484465" lon="12.3695046"><ele>162.8</ele><time>2026-04-29T12:26:41.472Z</time></trkpt><trkpt lat="43.9485579" lon="12.3694368"><ele>164.60000000000002</ele><time>2026-04-29T12:26:43.472Z</time></trkpt><trkpt lat="43.9486744" lon="12.3693634"><ele>166.4</ele><time>2026-04-29T12:26:45.472Z</time></trkpt><trkpt lat="43.9487349" lon="12.3693229"><ele>168.2</ele><time>2026-04-29T12:26:46.472Z</time></trkpt><trkpt lat="43.948804" lon="12.3692842"><ele>170.0</ele><time>2026-04-29T12:26:47.473Z</time></trkpt><trkpt lat="43.9488752" lon="12.3692483"><ele>170.0</ele><time>2026-04-29T12:26:48.472Z</time></trkpt><trkpt lat="43.9489435" lon="12.3692132"><ele>170.0</ele><time>2026-04-29T12:26:49.472Z</time></trkpt><trkpt lat="43.9490085" lon="12.3691937"><ele>170.0</ele><time>2026-04-29T12:26:50.472Z</time></trkpt><trkpt lat="43.9490741" lon="12.3691821"><ele>170.0</ele><time>2026-04-29T12:26:51.472Z</time></trkpt><trkpt lat="43.9491984" lon="12.369179"><ele>170.0</ele><time>2026-04-29T12:26:53.472Z</time></trkpt><trkpt lat="43.9492994" lon="12.3691704"><ele>170.0</ele><time>2026-04-29T12:26:55.472Z</time></trkpt><trkpt lat="43.9493821" lon="12.3690783"><ele>170.33333333333331</ele><time>2026-04-29T12:26:57.472Z</time></trkpt><trkpt lat="43.9494423" lon="12.3689447"><ele>170.66666666666666</ele><time>2026-04-29T12:27:04.472Z</time></trkpt><trkpt lat="43.9494572" lon="12.3688463"><ele>171.0</ele><time>2026-04-29T12:27:07.472Z</time></trkpt><trkpt lat="43.9493904" lon="12.3688278"><ele>171.33333333333334</ele><time>2026-04-29T12:27:11.472Z</time></trkpt><trkpt lat="43.9493446" lon="12.3689365"><ele>171.66666666666669</ele><time>2026-04-29T12:27:18.472Z</time></trkpt><trkpt lat="43.9493893" lon="12.3688224"><ele>172.0</ele><time>2026-04-29T12:30:46.471Z</time></trkpt><trkpt lat="43.9494703" lon="12.3687647"><ele>172.0</ele><time>2026-04-29T12:30:48.471Z</time></trkpt><trkpt lat="43.9495536" lon="12.3687058"><ele>172.0</ele><time>2026-04-29T12:30:50.471Z</time></trkpt><trkpt lat="43.9496803" lon="12.3686784"><ele>172.0</ele><time>2026-04-29T12:30:52.471Z</time></trkpt><trkpt lat="43.949762" lon="12.3686853"><ele>172.0</ele><time>2026-04-29T12:30:53.471Z</time></trkpt><trkpt lat="43.9498568" lon="12.3686856"><ele>172.0</ele><time>2026-04-29T12:30:54.472Z</time></trkpt><trkpt lat="43.9499608" lon="12.3686615"><ele>172.25</ele><time>2026-04-29T12:30:55.471Z</time></trkpt><trkpt lat="43.9500825" lon="12.3686205"><ele>172.5</ele><time>2026-04-29T12:30:56.471Z</time></trkpt><trkpt lat="43.9502099" lon="12.3685796"><ele>172.75</ele><time>2026-04-29T12:30:57.471Z</time></trkpt><trkpt lat="43.9503358" lon="12.3685523"><ele>173.0</ele><time>2026-04-29T12:30:58.471Z</time></trkpt><trkpt lat="43.9504633" lon="12.3685246"><ele>173.0</ele><time>2026-04-29T12:30:59.471Z</time></trkpt><trkpt lat="43.9505894" lon="12.3684886"><ele>173.0</ele><time>2026-04-29T12:31:00.471Z</time></trkpt><trkpt lat="43.950709" lon="12.3684582"><ele>173.0</ele><time>2026-04-29T12:31:01.472Z</time></trkpt><trkpt lat="43.9508275" lon="12.3684369"><ele>173.0</ele><time>2026-04-29T12:31:02.471Z</time></trkpt><trkpt lat="43.9509438" lon="12.3684209"><ele>172.0</ele><time>2026-04-29T12:31:03.471Z</time></trkpt><trkpt lat="43.9510599" lon="12.3684064"><ele>171.0</ele><time>2026-04-29T12:31:04.471Z</time></trkpt><trkpt lat="43.9511705" lon="12.3684077"><ele>170.0</ele><time>2026-04-29T12:31:05.471Z</time></trkpt><trkpt lat="43.9512685" lon="12.3684207"><ele>169.0</ele><time>2026-04-29T12:31:06.472Z</time></trkpt><trkpt lat="43.9513531" lon="12.3684346"><ele>168.0</ele><time>2026-04-29T12:31:07.471Z</time></trkpt><trkpt lat="43.9514287" lon="12.3684496"><ele>168.0</ele><time>2026-04-29T12:31:08.471Z</time></trkpt><trkpt lat="43.9515037" lon="12.368468"><ele>168.0</ele><time>2026-04-29T12:31:09.471Z</time></trkpt><trkpt lat="43.9515822" lon="12.368489"><ele>168.0</ele><time>2026-04-29T12:31:10.471Z</time></trkpt><trkpt lat="43.9516649" lon="12.3685192"><ele>168.0</ele><time>2026-04-29T12:31:11.471Z</time></trkpt><trkpt lat="43.9517517" lon="12.3685596"><ele>168.0</ele><time>2026-04-29T12:31:12.471Z</time></trkpt><trkpt lat="43.951842" lon="12.3686162"><ele>168.0</ele><time>2026-04-29T12:31:13.471Z</time></trkpt><trkpt lat="43.9519249" lon="12.3686889"><ele>167.75</ele><time>2026-04-29T12:31:14.471Z</time></trkpt><trkpt lat="43.9520077" lon="12.368777"><ele>167.5</ele><time>2026-04-29T12:31:15.471Z</time></trkpt><trkpt lat="43.9520791" lon="12.3689041"><ele>167.25</ele><time>2026-04-29T12:31:16.471Z</time></trkpt><trkpt lat="43.952152" lon="12.3690563"><ele>167.0</ele><time>2026-04-29T12:31:17.471Z</time></trkpt><trkpt lat="43.9522215" lon="12.3692164"><ele>167.0</ele><time>2026-04-29T12:31:18.471Z</time></trkpt><trkpt lat="43.9522935" lon="12.3693806"><ele>167.0</ele><time>2026-04-29T12:31:19.471Z</time></trkpt><trkpt lat="43.9523644" lon="12.36956"><ele>167.0</ele><time>2026-04-29T12:31:20.472Z</time></trkpt><trkpt lat="43.9524356" lon="12.369752"><ele>167.0</ele><time>2026-04-29T12:31:21.471Z</time></trkpt><trkpt lat="43.9525023" lon="12.3699522"><ele>166.0</ele><time>2026-04-29T12:31:22.471Z</time></trkpt><trkpt lat="43.9525661" lon="12.3701551"><ele>165.0</ele><time>2026-04-29T12:31:23.472Z</time></trkpt><trkpt lat="43.952628" lon="12.3703594"><ele>164.0</ele><time>2026-04-29T12:31:24.471Z</time></trkpt><trkpt lat="43.9526881" lon="12.3705583"><ele>164.0</ele><time>2026-04-29T12:31:25.471Z</time></trkpt><trkpt lat="43.952743" lon="12.3707559"><ele>164.0</ele><time>2026-04-29T12:31:26.472Z</time></trkpt><trkpt lat="43.9527986" lon="12.3709477"><ele>164.0</ele><time>2026-04-29T12:31:27.472Z</time></trkpt><trkpt lat="43.9528534" lon="12.3711403"><ele>164.0</ele><time>2026-04-29T12:31:28.471Z</time></trkpt><trkpt lat="43.9529091" lon="12.3713341"><ele>164.0</ele><time>2026-04-29T12:31:29.471Z</time></trkpt><trkpt lat="43.9529662" lon="12.3715267"><ele>164.0</ele><time>2026-04-29T12:31:30.471Z</time></trkpt><trkpt lat="43.9530231" lon="12.3717203"><ele>164.0</ele><time>2026-04-29T12:31:31.471Z</time></trkpt><trkpt lat="43.9530774" lon="12.3719081"><ele>164.0</ele><time>2026-04-29T12:31:32.471Z</time></trkpt><trkpt lat="43.9531308" lon="12.3720937"><ele>164.0</ele><time>2026-04-29T12:31:33.471Z</time></trkpt><trkpt lat="43.9531833" lon="12.3722771"><ele>164.0</ele><time>2026-04-29T12:31:34.471Z</time></trkpt><trkpt lat="43.9532307" lon="12.372446"><ele>164.2</ele><time>2026-04-29T12:31:35.472Z</time></trkpt><trkpt lat="43.953267" lon="12.3725953"><ele>164.39999999999998</ele><time>2026-04-29T12:31:36.471Z</time></trkpt><trkpt lat="43.9532891" lon="12.3727389"><ele>164.6</ele><time>2026-04-29T12:31:37.471Z</time></trkpt><trkpt lat="43.953301" lon="12.3728729"><ele>164.8</ele><time>2026-04-29T12:31:38.471Z</time></trkpt><trkpt lat="43.953315" lon="12.3729996"><ele>165.0</ele><time>2026-04-29T12:31:39.471Z</time></trkpt><trkpt lat="43.9533496" lon="12.3731099"><ele>164.0</ele><time>2026-04-29T12:31:40.471Z</time></trkpt><trkpt lat="43.9534063" lon="12.3732315"><ele>163.0</ele><time>2026-04-29T12:31:41.471Z</time></trkpt><trkpt lat="43.9534743" lon="12.3733682"><ele>162.0</ele><time>2026-04-29T12:31:42.472Z</time></trkpt><trkpt lat="43.9535432" lon="12.373526"><ele>161.0</ele><time>2026-04-29T12:31:43.471Z</time></trkpt><trkpt lat="43.9536023" lon="12.3737089"><ele>161.25</ele><time>2026-04-29T12:31:44.471Z</time></trkpt><trkpt lat="43.9536575" lon="12.3739001"><ele>161.5</ele><time>2026-04-29T12:31:45.471Z</time></trkpt><trkpt lat="43.9537074" lon="12.3740909"><ele>161.75</ele><time>2026-04-29T12:31:46.472Z</time></trkpt><trkpt lat="43.9537627" lon="12.3742829"><ele>162.0</ele><time>2026-04-29T12:31:47.471Z</time></trkpt><trkpt lat="43.9538176" lon="12.3744831"><ele>162.0</ele><time>2026-04-29T12:31:48.472Z</time></trkpt><trkpt lat="43.9538773" lon="12.3746826"><ele>162.0</ele><time>2026-04-29T12:31:49.472Z</time></trkpt><trkpt lat="43.9539382" lon="12.3748828"><ele>162.0</ele><time>2026-04-29T12:31:50.471Z</time></trkpt><trkpt lat="43.9539981" lon="12.3750862"><ele>162.33333333333334</ele><time>2026-04-29T12:31:51.471Z</time></trkpt><trkpt lat="43.9540597" lon="12.3752934"><ele>162.66666666666669</ele><time>2026-04-29T12:31:52.471Z</time></trkpt><trkpt lat="43.9541211" lon="12.3755026"><ele>163.0</ele><time>2026-04-29T12:31:53.472Z</time></trkpt><trkpt lat="43.9541819" lon="12.37571"><ele>161.5</ele><time>2026-04-29T12:31:54.471Z</time></trkpt><trkpt lat="43.9542414" lon="12.3759115"><ele>160.0</ele><time>2026-04-29T12:31:55.471Z</time></trkpt><trkpt lat="43.9542938" lon="12.3761044"><ele>158.5</ele><time>2026-04-29T12:31:56.471Z</time></trkpt><trkpt lat="43.9543474" lon="12.376284"><ele>157.0</ele><time>2026-04-29T12:31:57.471Z</time></trkpt><trkpt lat="43.9544061" lon="12.3764532"><ele>157.0</ele><time>2026-04-29T12:31:58.471Z</time></trkpt><trkpt lat="43.9544683" lon="12.3766224"><ele>157.0</ele><time>2026-04-29T12:31:59.471Z</time></trkpt><trkpt lat="43.9545344" lon="12.376802"><ele>157.0</ele><time>2026-04-29T12:32:00.471Z</time></trkpt><trkpt lat="43.9546061" lon="12.3769861"><ele>157.0</ele><time>2026-04-29T12:32:01.471Z</time></trkpt><trkpt lat="43.9546836" lon="12.3771768"><ele>158.33333333333334</ele><time>2026-04-29T12:32:02.471Z</time></trkpt><trkpt lat="43.9547638" lon="12.3773751"><ele>159.66666666666666</ele><time>2026-04-29T12:32:03.471Z</time></trkpt><trkpt lat="43.9548439" lon="12.3775761"><ele>161.0</ele><time>2026-04-29T12:32:04.471Z</time></trkpt><trkpt lat="43.9549211" lon="12.3777705"><ele>161.0</ele><time>2026-04-29T12:32:05.471Z</time></trkpt><trkpt lat="43.954991" lon="12.3779595"><ele>161.0</ele><time>2026-04-29T12:32:06.471Z</time></trkpt><trkpt lat="43.9550648" lon="12.378142"><ele>161.0</ele><time>2026-04-29T12:32:07.471Z</time></trkpt><trkpt lat="43.9551404" lon="12.3783258"><ele>158.33333333333331</ele><time>2026-04-29T12:32:08.471Z</time></trkpt><trkpt lat="43.9552187" lon="12.3785115"><ele>155.66666666666666</ele><time>2026-04-29T12:32:09.471Z</time></trkpt><trkpt lat="43.9552959" lon="12.378701"><ele>153.0</ele><time>2026-04-29T12:32:10.471Z</time></trkpt><trkpt lat="43.9553764" lon="12.3788958"><ele>153.0</ele><time>2026-04-29T12:32:11.471Z</time></trkpt><trkpt lat="43.9554576" lon="12.3790891"><ele>153.0</ele><time>2026-04-29T12:32:12.471Z</time></trkpt><trkpt lat="43.9555388" lon="12.3792889"><ele>153.0</ele><time>2026-04-29T12:32:13.471Z</time></trkpt><trkpt lat="43.9556209" lon="12.3794837"><ele>153.0</ele><time>2026-04-29T12:32:14.471Z</time></trkpt><trkpt lat="43.9557014" lon="12.3796819"><ele>153.0</ele><time>2026-04-29T12:32:15.471Z</time></trkpt><trkpt lat="43.9557833" lon="12.37988"><ele>153.0</ele><time>2026-04-29T12:32:16.471Z</time></trkpt><trkpt lat="43.9558647" lon="12.3800783"><ele>151.0</ele><time>2026-04-29T12:32:17.471Z</time></trkpt><trkpt lat="43.9559472" lon="12.3802758"><ele>149.0</ele><time>2026-04-29T12:32:18.471Z</time></trkpt><trkpt lat="43.95603" lon="12.3804761"><ele>147.0</ele><time>2026-04-29T12:32:19.471Z</time></trkpt><trkpt lat="43.956111" lon="12.3806763"><ele>147.0</ele><time>2026-04-29T12:32:20.471Z</time></trkpt><trkpt lat="43.9561943" lon="12.3808706"><ele>147.0</ele><time>2026-04-29T12:32:21.471Z</time></trkpt><trkpt lat="43.9562784" lon="12.3810703"><ele>147.0</ele><time>2026-04-29T12:32:22.471Z</time></trkpt><trkpt lat="43.9563642" lon="12.381272"><ele>148.66666666666666</ele><time>2026-04-29T12:32:23.471Z</time></trkpt><trkpt lat="43.9564509" lon="12.3814788"><ele>150.33333333333331</ele><time>2026-04-29T12:32:24.471Z</time></trkpt><trkpt lat="43.9565363" lon="12.3816824"><ele>152.0</ele><time>2026-04-29T12:32:25.472Z</time></trkpt><trkpt lat="43.9566246" lon="12.3818873"><ele>148.0</ele><time>2026-04-29T12:32:26.471Z</time></trkpt><trkpt lat="43.9567123" lon="12.3820986"><ele>144.0</ele><time>2026-04-29T12:32:27.471Z</time></trkpt><trkpt lat="43.9567986" lon="12.3823094"><ele>140.0</ele><time>2026-04-29T12:32:28.471Z</time></trkpt><trkpt lat="43.9568885" lon="12.3825172"><ele>140.0</ele><time>2026-04-29T12:32:29.471Z</time></trkpt><trkpt lat="43.9569741" lon="12.382724"><ele>140.0</ele><time>2026-04-29T12:32:30.472Z</time></trkpt><trkpt lat="43.9570563" lon="12.3829318"><ele>140.0</ele><time>2026-04-29T12:32:31.471Z</time></trkpt><trkpt lat="43.9571367" lon="12.3831364"><ele>142.33333333333331</ele><time>2026-04-29T12:32:32.471Z</time></trkpt><trkpt lat="43.9572177" lon="12.3833357"><ele>144.66666666666666</ele><time>2026-04-29T12:32:33.471Z</time></trkpt><trkpt lat="43.9572985" lon="12.3835296"><ele>147.0</ele><time>2026-04-29T12:32:34.471Z</time></trkpt><trkpt lat="43.95738" lon="12.38372"><ele>148.0</ele><time>2026-04-29T12:32:35.471Z</time></trkpt><trkpt lat="43.9574591" lon="12.383913"><ele>149.0</ele><time>2026-04-29T12:32:36.471Z</time></trkpt><trkpt lat="43.9575359" lon="12.384108"><ele>150.0</ele><time>2026-04-29T12:32:37.471Z</time></trkpt><trkpt lat="43.9576098" lon="12.3843091"><ele>144.66666666666666</ele><time>2026-04-29T12:32:38.471Z</time></trkpt><trkpt lat="43.9576791" lon="12.3845167"><ele>139.33333333333331</ele><time>2026-04-29T12:32:39.471Z</time></trkpt><trkpt lat="43.9577346" lon="12.3847344"><ele>134.0</ele><time>2026-04-29T12:32:40.471Z</time></trkpt><trkpt lat="43.9577802" lon="12.3849568"><ele>134.33333333333331</ele><time>2026-04-29T12:32:41.471Z</time></trkpt><trkpt lat="43.9578165" lon="12.3851836"><ele>134.66666666666666</ele><time>2026-04-29T12:32:42.471Z</time></trkpt><trkpt lat="43.9578411" lon="12.3854137"><ele>135.0</ele><time>2026-04-29T12:32:43.471Z</time></trkpt><trkpt lat="43.957855" lon="12.3856528"><ele>135.0</ele><time>2026-04-29T12:32:44.471Z</time></trkpt><trkpt lat="43.9578571" lon="12.3858917"><ele>135.0</ele><time>2026-04-29T12:32:45.471Z</time></trkpt><trkpt lat="43.9578449" lon="12.3861258"><ele>135.0</ele><time>2026-04-29T12:32:46.471Z</time></trkpt><trkpt lat="43.9578179" lon="12.3863588"><ele>134.66666666666666</ele><time>2026-04-29T12:32:47.471Z</time></trkpt><trkpt lat="43.9577818" lon="12.3865939"><ele>134.33333333333331</ele><time>2026-04-29T12:32:48.471Z</time></trkpt><trkpt lat="43.9577289" lon="12.3868224"><ele>134.0</ele><time>2026-04-29T12:32:49.471Z</time></trkpt><trkpt lat="43.9576638" lon="12.3870515"><ele>135.33333333333331</ele><time>2026-04-29T12:32:50.471Z</time></trkpt><trkpt lat="43.9575978" lon="12.3872763"><ele>136.66666666666666</ele><time>2026-04-29T12:32:51.471Z</time></trkpt><trkpt lat="43.9575373" lon="12.387504"><ele>138.0</ele><time>2026-04-29T12:32:52.471Z</time></trkpt><trkpt lat="43.9574751" lon="12.3877264"><ele>138.0</ele><time>2026-04-29T12:32:53.471Z</time></trkpt><trkpt lat="43.9574167" lon="12.3879506"><ele>138.0</ele><time>2026-04-29T12:32:54.471Z</time></trkpt><trkpt lat="43.9573541" lon="12.3881742"><ele>138.0</ele><time>2026-04-29T12:32:55.471Z</time></trkpt><trkpt lat="43.9572921" lon="12.3884004"><ele>136.66666666666666</ele><time>2026-04-29T12:32:56.471Z</time></trkpt><trkpt lat="43.9572319" lon="12.3886288"><ele>135.33333333333331</ele><time>2026-04-29T12:32:57.471Z</time></trkpt><trkpt lat="43.9571703" lon="12.3888593"><ele>134.0</ele><time>2026-04-29T12:32:58.471Z</time></trkpt><trkpt lat="43.9571115" lon="12.3890909"><ele>133.0</ele><time>2026-04-29T12:32:59.471Z</time></trkpt><trkpt lat="43.95706" lon="12.3893249"><ele>132.0</ele><time>2026-04-29T12:33:00.471Z</time></trkpt><trkpt lat="43.9570185" lon="12.3895658"><ele>131.0</ele><time>2026-04-29T12:33:01.471Z</time></trkpt><trkpt lat="43.9569833" lon="12.3898055"><ele>131.0</ele><time>2026-04-29T12:33:02.472Z</time></trkpt><trkpt lat="43.9569582" lon="12.3900435"><ele>131.0</ele><time>2026-04-29T12:33:03.471Z</time></trkpt><trkpt lat="43.9569391" lon="12.3902811"><ele>131.0</ele><time>2026-04-29T12:33:04.471Z</time></trkpt><trkpt lat="43.9569271" lon="12.3905166"><ele>130.66666666666666</ele><time>2026-04-29T12:33:05.471Z</time></trkpt><trkpt lat="43.9569297" lon="12.3907503"><ele>130.33333333333334</ele><time>2026-04-29T12:33:06.471Z</time></trkpt><trkpt lat="43.9569359" lon="12.3909825"><ele>130.0</ele><time>2026-04-29T12:33:07.471Z</time></trkpt><trkpt lat="43.9569503" lon="12.3912168"><ele>130.0</ele><time>2026-04-29T12:33:08.471Z</time></trkpt><trkpt lat="43.9569734" lon="12.3914474"><ele>130.0</ele><time>2026-04-29T12:33:09.471Z</time></trkpt><trkpt lat="43.9570068" lon="12.3916787"><ele>130.0</ele><time>2026-04-29T12:33:10.471Z</time></trkpt><trkpt lat="43.9570487" lon="12.3919027"><ele>130.0</ele><time>2026-04-29T12:33:11.472Z</time></trkpt><trkpt lat="43.9570995" lon="12.3921284"><ele>130.0</ele><time>2026-04-29T12:33:12.471Z</time></trkpt><trkpt lat="43.9571607" lon="12.3923516"><ele>130.0</ele><time>2026-04-29T12:33:13.471Z</time></trkpt><trkpt lat="43.9572241" lon="12.3925744"><ele>130.33333333333334</ele><time>2026-04-29T12:33:14.471Z</time></trkpt><trkpt lat="43.9572918" lon="12.3927956"><ele>130.66666666666666</ele><time>2026-04-29T12:33:15.471Z</time></trkpt><trkpt lat="43.9573648" lon="12.3930076"><ele>131.0</ele><time>2026-04-29T12:33:16.471Z</time></trkpt><trkpt lat="43.957435" lon="12.393221"><ele>130.0</ele><time>2026-04-29T12:33:17.471Z</time></trkpt><trkpt lat="43.957508" lon="12.393431"><ele>129.0</ele><time>2026-04-29T12:33:18.472Z</time></trkpt><trkpt lat="43.9575852" lon="12.3936397"><ele>128.0</ele><time>2026-04-29T12:33:19.471Z</time></trkpt><trkpt lat="43.9576634" lon="12.393845"><ele>128.0</ele><time>2026-04-29T12:33:20.471Z</time></trkpt><trkpt lat="43.9577396" lon="12.394058"><ele>128.0</ele><time>2026-04-29T12:33:21.471Z</time></trkpt><trkpt lat="43.957818" lon="12.3942734"><ele>128.0</ele><time>2026-04-29T12:33:22.471Z</time></trkpt><trkpt lat="43.957895" lon="12.394489"><ele>129.33333333333331</ele><time>2026-04-29T12:33:23.471Z</time></trkpt><trkpt lat="43.9579721" lon="12.3947127"><ele>130.66666666666666</ele><time>2026-04-29T12:33:24.471Z</time></trkpt><trkpt lat="43.9580509" lon="12.3949314"><ele>132.0</ele><time>2026-04-29T12:33:25.471Z</time></trkpt><trkpt lat="43.9581308" lon="12.3951577"><ele>132.0</ele><time>2026-04-29T12:33:26.471Z</time></trkpt><trkpt lat="43.958212" lon="12.3953815"><ele>132.0</ele><time>2026-04-29T12:33:27.471Z</time></trkpt><trkpt lat="43.9582945" lon="12.3956074"><ele>132.0</ele><time>2026-04-29T12:33:28.471Z</time></trkpt><trkpt lat="43.9583759" lon="12.3958314"><ele>131.33333333333334</ele><time>2026-04-29T12:33:29.471Z</time></trkpt><trkpt lat="43.9584563" lon="12.3960506"><ele>130.66666666666669</ele><time>2026-04-29T12:33:30.471Z</time></trkpt><trkpt lat="43.9585373" lon="12.3962665"><ele>130.0</ele><time>2026-04-29T12:33:31.472Z</time></trkpt><trkpt lat="43.9586161" lon="12.3964862"><ele>130.0</ele><time>2026-04-29T12:33:32.471Z</time></trkpt><trkpt lat="43.9586948" lon="12.3967067"><ele>130.0</ele><time>2026-04-29T12:33:33.472Z</time></trkpt><trkpt lat="43.9587748" lon="12.3969281"><ele>130.0</ele><time>2026-04-29T12:33:34.471Z</time></trkpt><trkpt lat="43.9588533" lon="12.3971557"><ele>132.33333333333334</ele><time>2026-04-29T12:33:35.471Z</time></trkpt><trkpt lat="43.9589323" lon="12.3973785"><ele>134.66666666666666</ele><time>2026-04-29T12:33:36.471Z</time></trkpt><trkpt lat="43.9590164" lon="12.3975937"><ele>137.0</ele><time>2026-04-29T12:33:37.471Z</time></trkpt><trkpt lat="43.9591102" lon="12.3978055"><ele>135.33333333333331</ele><time>2026-04-29T12:33:38.471Z</time></trkpt><trkpt lat="43.9592014" lon="12.3980082"><ele>133.66666666666666</ele><time>2026-04-29T12:33:39.472Z</time></trkpt><trkpt lat="43.9592954" lon="12.3982119"><ele>132.0</ele><time>2026-04-29T12:33:40.471Z</time></trkpt><trkpt lat="43.9593889" lon="12.3984025"><ele>132.0</ele><time>2026-04-29T12:33:41.471Z</time></trkpt><trkpt lat="43.9594842" lon="12.3985855"><ele>132.0</ele><time>2026-04-29T12:33:42.471Z</time></trkpt><trkpt lat="43.9595806" lon="12.3987638"><ele>132.0</ele><time>2026-04-29T12:33:43.471Z</time></trkpt><trkpt lat="43.9596767" lon="12.3989411"><ele>129.66666666666666</ele><time>2026-04-29T12:33:44.471Z</time></trkpt><trkpt lat="43.9597684" lon="12.3991147"><ele>127.33333333333333</ele><time>2026-04-29T12:33:45.471Z</time></trkpt><trkpt lat="43.95986" lon="12.3992873"><ele>125.0</ele><time>2026-04-29T12:33:46.471Z</time></trkpt><trkpt lat="43.9599538" lon="12.3994605"><ele>125.0</ele><time>2026-04-29T12:33:47.471Z</time></trkpt><trkpt lat="43.9600499" lon="12.39964"><ele>125.0</ele><time>2026-04-29T12:33:48.471Z</time></trkpt><trkpt lat="43.9601458" lon="12.3998297"><ele>125.0</ele><time>2026-04-29T12:33:49.471Z</time></trkpt><trkpt lat="43.9602452" lon="12.400013"><ele>125.0</ele><time>2026-04-29T12:33:50.471Z</time></trkpt><trkpt lat="43.9603438" lon="12.4002015"><ele>125.0</ele><time>2026-04-29T12:33:51.471Z</time></trkpt><trkpt lat="43.9604422" lon="12.4003833"><ele>125.0</ele><time>2026-04-29T12:33:52.471Z</time></trkpt><trkpt lat="43.9605331" lon="12.4005576"><ele>124.5</ele><time>2026-04-29T12:33:53.472Z</time></trkpt><trkpt lat="43.9606296" lon="12.4007236"><ele>124.0</ele><time>2026-04-29T12:33:54.472Z</time></trkpt><trkpt lat="43.9607296" lon="12.4008773"><ele>123.5</ele><time>2026-04-29T12:33:55.471Z</time></trkpt><trkpt lat="43.9608252" lon="12.4010207"><ele>123.0</ele><time>2026-04-29T12:33:56.471Z</time></trkpt><trkpt lat="43.9609157" lon="12.4011421"><ele>123.0</ele><time>2026-04-29T12:33:57.471Z</time></trkpt><trkpt lat="43.9610074" lon="12.4012505"><ele>123.00000000000001</ele><time>2026-04-29T12:33:58.471Z</time></trkpt><trkpt lat="43.9610895" lon="12.4013429"><ele>123.00000000000001</ele><time>2026-04-29T12:33:59.471Z</time></trkpt><trkpt lat="43.9611568" lon="12.4014142"><ele>123.0</ele><time>2026-04-29T12:34:00.471Z</time></trkpt><trkpt lat="43.9612079" lon="12.4014748"><ele>123.0</ele><time>2026-04-29T12:34:01.471Z</time></trkpt><trkpt lat="43.9612707" lon="12.4015986"><ele>124.33333333333333</ele><time>2026-04-29T12:34:03.471Z</time></trkpt><trkpt lat="43.9612641" lon="12.4017504"><ele>125.66666666666666</ele><time>2026-04-29T12:34:05.471Z</time></trkpt><trkpt lat="43.9612213" lon="12.4018157"><ele>127.0</ele><time>2026-04-29T12:34:06.471Z</time></trkpt><trkpt lat="43.9611539" lon="12.4018597"><ele>128.33333333333331</ele><time>2026-04-29T12:34:07.471Z</time></trkpt><trkpt lat="43.9610652" lon="12.4018979"><ele>129.66666666666666</ele><time>2026-04-29T12:34:08.472Z</time></trkpt><trkpt lat="43.9609693" lon="12.4019338"><ele>131.0</ele><time>2026-04-29T12:34:09.472Z</time></trkpt><trkpt lat="43.9608639" lon="12.4019737"><ele>131.25</ele><time>2026-04-29T12:34:10.471Z</time></trkpt><trkpt lat="43.960752" lon="12.4020173"><ele>131.5</ele><time>2026-04-29T12:34:11.472Z</time></trkpt><trkpt lat="43.9606354" lon="12.40207"><ele>131.75</ele><time>2026-04-29T12:34:12.471Z</time></trkpt><trkpt lat="43.9605119" lon="12.402116"><ele>132.0</ele><time>2026-04-29T12:34:13.472Z</time></trkpt><trkpt lat="43.9603845" lon="12.4021555"><ele>131.5</ele><time>2026-04-29T12:34:14.471Z</time></trkpt><trkpt lat="43.9602542" lon="12.402174"><ele>131.0</ele><time>2026-04-29T12:34:15.471Z</time></trkpt><trkpt lat="43.9601211" lon="12.4021838"><ele>130.5</ele><time>2026-04-29T12:34:16.471Z</time></trkpt><trkpt lat="43.9599932" lon="12.4021753"><ele>130.0</ele><time>2026-04-29T12:34:17.471Z</time></trkpt><trkpt lat="43.9598786" lon="12.4021564"><ele>130.0</ele><time>2026-04-29T12:34:18.471Z</time></trkpt><trkpt lat="43.9597746" lon="12.4021291"><ele>130.0</ele><time>2026-04-29T12:34:19.471Z</time></trkpt><trkpt lat="43.9596779" lon="12.4020876"><ele>130.0</ele><time>2026-04-29T12:34:20.471Z</time></trkpt><trkpt lat="43.9595834" lon="12.4020411"><ele>130.0</ele><time>2026-04-29T12:34:21.471Z</time></trkpt><trkpt lat="43.9594928" lon="12.4019833"><ele>130.0</ele><time>2026-04-29T12:34:22.471Z</time></trkpt><trkpt lat="43.9594098" lon="12.4019509"><ele>130.0</ele><time>2026-04-29T12:34:23.471Z</time></trkpt><trkpt lat="43.9593379" lon="12.401956"><ele>130.0</ele><time>2026-04-29T12:34:24.471Z</time></trkpt><trkpt lat="43.9592705" lon="12.40201"><ele>130.0</ele><time>2026-04-29T12:34:25.471Z</time></trkpt><trkpt lat="43.9592155" lon="12.4021028"><ele>130.0</ele><time>2026-04-29T12:34:26.471Z</time></trkpt><trkpt lat="43.9591701" lon="12.4022128"><ele>130.0</ele><time>2026-04-29T12:34:27.471Z</time></trkpt><trkpt lat="43.9591315" lon="12.4023544"><ele>130.0</ele><time>2026-04-29T12:34:28.471Z</time></trkpt><trkpt lat="43.9590841" lon="12.4025169"><ele>130.75</ele><time>2026-04-29T12:34:29.471Z</time></trkpt><trkpt lat="43.9590375" lon="12.4026828"><ele>131.5</ele><time>2026-04-29T12:34:30.471Z</time></trkpt><trkpt lat="43.9589916" lon="12.402842"><ele>132.25</ele><time>2026-04-29T12:34:31.471Z</time></trkpt><trkpt lat="43.9589434" lon="12.4030024"><ele>133.0</ele><time>2026-04-29T12:34:32.471Z</time></trkpt><trkpt lat="43.9588923" lon="12.4031556"><ele>134.5</ele><time>2026-04-29T12:34:33.471Z</time></trkpt><trkpt lat="43.9588417" lon="12.4033029"><ele>136.0</ele><time>2026-04-29T12:34:34.471Z</time></trkpt><trkpt lat="43.9587849" lon="12.4034503"><ele>137.5</ele><time>2026-04-29T12:34:35.471Z</time></trkpt><trkpt lat="43.9587284" lon="12.4035964"><ele>139.0</ele><time>2026-04-29T12:34:36.471Z</time></trkpt><trkpt lat="43.95866" lon="12.403739"><ele>140.5</ele><time>2026-04-29T12:34:37.471Z</time></trkpt><trkpt lat="43.9585856" lon="12.4038806"><ele>142.0</ele><time>2026-04-29T12:34:38.471Z</time></trkpt><trkpt lat="43.9585034" lon="12.4040061"><ele>143.5</ele><time>2026-04-29T12:34:39.471Z</time></trkpt><trkpt lat="43.9584076" lon="12.4041317"><ele>145.0</ele><time>2026-04-29T12:34:40.471Z</time></trkpt><trkpt lat="43.9583091" lon="12.4042503"><ele>141.75</ele><time>2026-04-29T12:34:41.472Z</time></trkpt><trkpt lat="43.9582008" lon="12.4043665"><ele>138.5</ele><time>2026-04-29T12:34:42.471Z</time></trkpt><trkpt lat="43.9580854" lon="12.4044722"><ele>135.25</ele><time>2026-04-29T12:34:43.471Z</time></trkpt><trkpt lat="43.9579586" lon="12.404569"><ele>132.0</ele><time>2026-04-29T12:34:44.471Z</time></trkpt><trkpt lat="43.9578212" lon="12.4046532"><ele>132.0</ele><time>2026-04-29T12:34:45.471Z</time></trkpt><trkpt lat="43.957682" lon="12.4047265"><ele>132.0</ele><time>2026-04-29T12:34:46.471Z</time></trkpt><trkpt lat="43.9575402" lon="12.4047823"><ele>132.0</ele><time>2026-04-29T12:34:47.472Z</time></trkpt><trkpt lat="43.9574036" lon="12.4048271"><ele>132.0</ele><time>2026-04-29T12:34:48.471Z</time></trkpt><trkpt lat="43.9572804" lon="12.4048528"><ele>132.0</ele><time>2026-04-29T12:34:49.471Z</time></trkpt><trkpt lat="43.9571597" lon="12.4048789"><ele>132.0</ele><time>2026-04-29T12:34:50.471Z</time></trkpt><trkpt lat="43.9570365" lon="12.4049051"><ele>132.0</ele><time>2026-04-29T12:34:51.471Z</time></trkpt><trkpt lat="43.9569162" lon="12.4049318"><ele>132.0</ele><time>2026-04-29T12:34:52.471Z</time></trkpt><trkpt lat="43.9568051" lon="12.4049504"><ele>132.0</ele><time>2026-04-29T12:34:53.472Z</time></trkpt><trkpt lat="43.9567057" lon="12.4049631"><ele>132.0</ele><time>2026-04-29T12:34:54.471Z</time></trkpt><trkpt lat="43.9566147" lon="12.4049727"><ele>132.0</ele><time>2026-04-29T12:34:55.471Z</time></trkpt><trkpt lat="43.9565304" lon="12.4049867"><ele>132.0</ele><time>2026-04-29T12:34:56.471Z</time></trkpt><trkpt lat="43.9564536" lon="12.4049983"><ele>132.0</ele><time>2026-04-29T12:34:57.471Z</time></trkpt><trkpt lat="43.9563778" lon="12.4050095"><ele>132.0</ele><time>2026-04-29T12:34:58.471Z</time></trkpt><trkpt lat="43.9563029" lon="12.4050249"><ele>132.2</ele><time>2026-04-29T12:34:59.471Z</time></trkpt><trkpt lat="43.9562215" lon="12.4050357"><ele>132.39999999999998</ele><time>2026-04-29T12:35:00.471Z</time></trkpt><trkpt lat="43.956139" lon="12.4050466"><ele>132.60000000000002</ele><time>2026-04-29T12:35:01.471Z</time></trkpt><trkpt lat="43.9560479" lon="12.405062"><ele>132.8</ele><time>2026-04-29T12:35:02.471Z</time></trkpt><trkpt lat="43.9559525" lon="12.4050781"><ele>133.0</ele><time>2026-04-29T12:35:03.471Z</time></trkpt><trkpt lat="43.9558473" lon="12.4050941"><ele>133.4</ele><time>2026-04-29T12:35:04.47Z</time></trkpt><trkpt lat="43.9557374" lon="12.4051144"><ele>133.8</ele><time>2026-04-29T12:35:05.471Z</time></trkpt><trkpt lat="43.9556311" lon="12.4051305"><ele>134.2</ele><time>2026-04-29T12:35:06.471Z</time></trkpt><trkpt lat="43.9555244" lon="12.4051423"><ele>134.6</ele><time>2026-04-29T12:35:07.471Z</time></trkpt><trkpt lat="43.9554169" lon="12.4051634"><ele>135.0</ele><time>2026-04-29T12:35:08.471Z</time></trkpt><trkpt lat="43.9553111" lon="12.405185"><ele>135.0</ele><time>2026-04-29T12:35:09.471Z</time></trkpt><trkpt lat="43.9552046" lon="12.4052004"><ele>135.0</ele><time>2026-04-29T12:35:10.471Z</time></trkpt><trkpt lat="43.9550981" lon="12.4052158"><ele>135.0</ele><time>2026-04-29T12:35:11.471Z</time></trkpt><trkpt lat="43.9549954" lon="12.4052313"><ele>135.0</ele><time>2026-04-29T12:35:12.471Z</time></trkpt><trkpt lat="43.9548988" lon="12.4052457"><ele>135.0</ele><time>2026-04-29T12:35:13.472Z</time></trkpt><trkpt lat="43.9548133" lon="12.4052636"><ele>135.5</ele><time>2026-04-29T12:35:14.471Z</time></trkpt><trkpt lat="43.9547387" lon="12.4052769"><ele>136.0</ele><time>2026-04-29T12:35:15.47Z</time></trkpt><trkpt lat="43.9546721" lon="12.4053093"><ele>136.5</ele><time>2026-04-29T12:35:16.47Z</time></trkpt><trkpt lat="43.9546167" lon="12.4053756"><ele>137.0</ele><time>2026-04-29T12:35:17.47Z</time></trkpt><trkpt lat="43.9545702" lon="12.4054884"><ele>137.5</ele><time>2026-04-29T12:35:18.47Z</time></trkpt><trkpt lat="43.9545342" lon="12.4056502"><ele>138.0</ele><time>2026-04-29T12:35:19.47Z</time></trkpt><trkpt lat="43.9544964" lon="12.4058279"><ele>138.0</ele><time>2026-04-29T12:35:20.47Z</time></trkpt><trkpt lat="43.9544525" lon="12.4060206"><ele>138.0</ele><time>2026-04-29T12:35:21.47Z</time></trkpt><trkpt lat="43.9544006" lon="12.4062192"><ele>138.0</ele><time>2026-04-29T12:35:22.47Z</time></trkpt><trkpt lat="43.9543484" lon="12.4064075"><ele>138.0</ele><time>2026-04-29T12:35:23.47Z</time></trkpt><trkpt lat="43.9542851" lon="12.406583"><ele>138.25</ele><time>2026-04-29T12:35:24.47Z</time></trkpt><trkpt lat="43.9542209" lon="12.406743"><ele>138.5</ele><time>2026-04-29T12:35:25.47Z</time></trkpt><trkpt lat="43.9541513" lon="12.4068992"><ele>138.75</ele><time>2026-04-29T12:35:26.47Z</time></trkpt><trkpt lat="43.9540758" lon="12.4070569"><ele>139.0</ele><time>2026-04-29T12:35:27.47Z</time></trkpt><trkpt lat="43.9540006" lon="12.4072169"><ele>140.0</ele><time>2026-04-29T12:35:28.47Z</time></trkpt><trkpt lat="43.9539118" lon="12.4073679"><ele>141.0</ele><time>2026-04-29T12:35:29.47Z</time></trkpt><trkpt lat="43.9538184" lon="12.4075005"><ele>142.0</ele><time>2026-04-29T12:35:30.47Z</time></trkpt><trkpt lat="43.9537377" lon="12.4076309"><ele>143.0</ele><time>2026-04-29T12:35:31.47Z</time></trkpt><trkpt lat="43.953667" lon="12.407774"><ele>143.0</ele><time>2026-04-29T12:35:32.47Z</time></trkpt><trkpt lat="43.9536089" lon="12.4079422"><ele>143.0</ele><time>2026-04-29T12:35:33.47Z</time></trkpt><trkpt lat="43.9535574" lon="12.4081108"><ele>143.0</ele><time>2026-04-29T12:35:34.471Z</time></trkpt><trkpt lat="43.9535087" lon="12.4082703"><ele>143.0</ele><time>2026-04-29T12:35:35.47Z</time></trkpt><trkpt lat="43.9534612" lon="12.4084234"><ele>143.25</ele><time>2026-04-29T12:35:36.47Z</time></trkpt><trkpt lat="43.9534281" lon="12.4085776"><ele>143.5</ele><time>2026-04-29T12:35:37.47Z</time></trkpt><trkpt lat="43.9534029" lon="12.4087372"><ele>143.75</ele><time>2026-04-29T12:35:38.47Z</time></trkpt><trkpt lat="43.9533854" lon="12.4088982"><ele>144.0</ele><time>2026-04-29T12:35:39.47Z</time></trkpt><trkpt lat="43.953367" lon="12.4090582"><ele>144.0</ele><time>2026-04-29T12:35:40.47Z</time></trkpt><trkpt lat="43.9533528" lon="12.409207"><ele>144.0</ele><time>2026-04-29T12:35:41.47Z</time></trkpt><trkpt lat="43.9533432" lon="12.4093466"><ele>144.0</ele><time>2026-04-29T12:35:42.47Z</time></trkpt><trkpt lat="43.9533325" lon="12.4094853"><ele>144.0</ele><time>2026-04-29T12:35:43.47Z</time></trkpt><trkpt lat="43.9533141" lon="12.4096331"><ele>144.0</ele><time>2026-04-29T12:35:44.47Z</time></trkpt><trkpt lat="43.9532981" lon="12.4097771"><ele>144.8</ele><time>2026-04-29T12:35:45.47Z</time></trkpt><trkpt lat="43.9532788" lon="12.4099256"><ele>145.60000000000002</ele><time>2026-04-29T12:35:46.47Z</time></trkpt><trkpt lat="43.9532596" lon="12.4100676"><ele>146.4</ele><time>2026-04-29T12:35:47.47Z</time></trkpt><trkpt lat="43.9532191" lon="12.4102068"><ele>147.20000000000002</ele><time>2026-04-29T12:35:48.47Z</time></trkpt><trkpt lat="43.9531614" lon="12.4103421"><ele>148.0</ele><time>2026-04-29T12:35:49.47Z</time></trkpt><trkpt lat="43.9530937" lon="12.4104902"><ele>149.25</ele><time>2026-04-29T12:35:50.47Z</time></trkpt><trkpt lat="43.9530272" lon="12.4106453"><ele>150.5</ele><time>2026-04-29T12:35:51.47Z</time></trkpt><trkpt lat="43.952963" lon="12.4107907"><ele>151.75</ele><time>2026-04-29T12:35:52.47Z</time></trkpt><trkpt lat="43.9529066" lon="12.4109202"><ele>153.0</ele><time>2026-04-29T12:35:53.47Z</time></trkpt><trkpt lat="43.9528558" lon="12.4110318"><ele>153.0</ele><time>2026-04-29T12:35:54.47Z</time></trkpt><trkpt lat="43.9528098" lon="12.41112"><ele>153.0</ele><time>2026-04-29T12:35:55.47Z</time></trkpt><trkpt lat="43.9527589" lon="12.4112041"><ele>153.0</ele><time>2026-04-29T12:35:56.47Z</time></trkpt><trkpt lat="43.9527062" lon="12.4112911"><ele>153.0</ele><time>2026-04-29T12:35:57.47Z</time></trkpt><trkpt lat="43.952641" lon="12.4113817"><ele>153.0</ele><time>2026-04-29T12:35:58.471Z</time></trkpt><trkpt lat="43.9525725" lon="12.4114734"><ele>153.0</ele><time>2026-04-29T12:35:59.471Z</time></trkpt><trkpt lat="43.9525134" lon="12.4115574"><ele>152.6</ele><time>2026-04-29T12:36:00.471Z</time></trkpt><trkpt lat="43.9524753" lon="12.4116605"><ele>152.20000000000002</ele><time>2026-04-29T12:36:01.47Z</time></trkpt><trkpt lat="43.9524677" lon="12.4117833"><ele>151.8</ele><time>2026-04-29T12:36:02.47Z</time></trkpt><trkpt lat="43.9524863" lon="12.4119127"><ele>151.4</ele><time>2026-04-29T12:36:03.47Z</time></trkpt><trkpt lat="43.952526" lon="12.4120572"><ele>151.0</ele><time>2026-04-29T12:36:04.47Z</time></trkpt><trkpt lat="43.9525768" lon="12.4122027"><ele>153.75</ele><time>2026-04-29T12:36:05.47Z</time></trkpt><trkpt lat="43.952633" lon="12.4123538"><ele>156.5</ele><time>2026-04-29T12:36:06.47Z</time></trkpt><trkpt lat="43.9526887" lon="12.4125054"><ele>159.25</ele><time>2026-04-29T12:36:07.47Z</time></trkpt><trkpt lat="43.9527355" lon="12.4126421"><ele>162.0</ele><time>2026-04-29T12:36:08.471Z</time></trkpt><trkpt lat="43.952772" lon="12.4127664"><ele>162.0</ele><time>2026-04-29T12:36:09.47Z</time></trkpt><trkpt lat="43.9527908" lon="12.4128912"><ele>162.0</ele><time>2026-04-29T12:36:10.47Z</time></trkpt><trkpt lat="43.9527887" lon="12.4130321"><ele>162.0</ele><time>2026-04-29T12:36:11.47Z</time></trkpt><trkpt lat="43.9527791" lon="12.4131912"><ele>162.0</ele><time>2026-04-29T12:36:12.47Z</time></trkpt><trkpt lat="43.9527673" lon="12.4133529"><ele>162.0</ele><time>2026-04-29T12:36:13.47Z</time></trkpt><trkpt lat="43.9527638" lon="12.4135079"><ele>162.16666666666666</ele><time>2026-04-29T12:36:14.47Z</time></trkpt><trkpt lat="43.9527623" lon="12.4136411"><ele>162.33333333333334</ele><time>2026-04-29T12:36:15.47Z</time></trkpt><trkpt lat="43.9527623" lon="12.4137641"><ele>162.5</ele><time>2026-04-29T12:36:16.47Z</time></trkpt><trkpt lat="43.9527716" lon="12.4138727"><ele>162.66666666666669</ele><time>2026-04-29T12:36:17.471Z</time></trkpt><trkpt lat="43.9528049" lon="12.4139674"><ele>162.83333333333334</ele><time>2026-04-29T12:36:18.47Z</time></trkpt><trkpt lat="43.9528602" lon="12.4140436"><ele>163.0</ele><time>2026-04-29T12:36:19.47Z</time></trkpt><trkpt lat="43.9529347" lon="12.4140897"><ele>162.5</ele><time>2026-04-29T12:36:20.47Z</time></trkpt><trkpt lat="43.9530226" lon="12.4141155"><ele>162.0</ele><time>2026-04-29T12:36:21.47Z</time></trkpt><trkpt lat="43.9531031" lon="12.4141501"><ele>161.5</ele><time>2026-04-29T12:36:22.471Z</time></trkpt><trkpt lat="43.9531681" lon="12.4141954"><ele>161.0</ele><time>2026-04-29T12:36:23.47Z</time></trkpt><trkpt lat="43.9532357" lon="12.4143252"><ele>160.5</ele><time>2026-04-29T12:36:25.47Z</time></trkpt><trkpt lat="43.9532303" lon="12.4144126"><ele>160.0</ele><time>2026-04-29T12:36:26.47Z</time></trkpt><trkpt lat="43.9532079" lon="12.4145126"><ele>160.0</ele><time>2026-04-29T12:36:27.47Z</time></trkpt><trkpt lat="43.9531781" lon="12.4146423"><ele>160.0</ele><time>2026-04-29T12:36:28.47Z</time></trkpt><trkpt lat="43.9531578" lon="12.414793"><ele>160.0</ele><time>2026-04-29T12:36:29.47Z</time></trkpt><trkpt lat="43.9531477" lon="12.4149451"><ele>160.0</ele><time>2026-04-29T12:36:30.47Z</time></trkpt><trkpt lat="43.9531457" lon="12.4150902"><ele>160.0</ele><time>2026-04-29T12:36:31.471Z</time></trkpt><trkpt lat="43.9531477" lon="12.4152178"><ele>160.33333333333334</ele><time>2026-04-29T12:36:32.47Z</time></trkpt><trkpt lat="43.9531461" lon="12.4153373"><ele>160.66666666666669</ele><time>2026-04-29T12:36:33.47Z</time></trkpt><trkpt lat="43.9531521" lon="12.4154533"><ele>161.0</ele><time>2026-04-29T12:36:34.47Z</time></trkpt><trkpt lat="43.9531762" lon="12.4155742"><ele>161.33333333333334</ele><time>2026-04-29T12:36:35.47Z</time></trkpt><trkpt lat="43.953205" lon="12.4156999"><ele>161.66666666666666</ele><time>2026-04-29T12:36:36.47Z</time></trkpt><trkpt lat="43.9532342" lon="12.4158185"><ele>162.0</ele><time>2026-04-29T12:36:37.47Z</time></trkpt><trkpt lat="43.9532487" lon="12.4159257"><ele>163.0</ele><time>2026-04-29T12:36:38.47Z</time></trkpt><trkpt lat="43.9532428" lon="12.4160351"><ele>164.0</ele><time>2026-04-29T12:36:39.47Z</time></trkpt><trkpt lat="43.9532077" lon="12.4161309"><ele>165.0</ele><time>2026-04-29T12:36:40.47Z</time></trkpt><trkpt lat="43.9531515" lon="12.4162158"><ele>166.0</ele><time>2026-04-29T12:36:41.47Z</time></trkpt><trkpt lat="43.9530786" lon="12.4163028"><ele>167.0</ele><time>2026-04-29T12:36:42.471Z</time></trkpt><trkpt lat="43.9530096" lon="12.4163904"><ele>168.0</ele><time>2026-04-29T12:36:43.47Z</time></trkpt><trkpt lat="43.952964" lon="12.4164717"><ele>169.4</ele><time>2026-04-29T12:36:44.47Z</time></trkpt><trkpt lat="43.9529328" lon="12.416565"><ele>170.8</ele><time>2026-04-29T12:36:45.47Z</time></trkpt><trkpt lat="43.9529019" lon="12.416682"><ele>172.2</ele><time>2026-04-29T12:36:46.47Z</time></trkpt><trkpt lat="43.9528672" lon="12.4168136"><ele>173.6</ele><time>2026-04-29T12:36:47.47Z</time></trkpt><trkpt lat="43.9528206" lon="12.416949"><ele>175.0</ele><time>2026-04-29T12:36:48.47Z</time></trkpt><trkpt lat="43.9527659" lon="12.4170905"><ele>175.25</ele><time>2026-04-29T12:36:49.47Z</time></trkpt><trkpt lat="43.952701" lon="12.4172332"><ele>175.5</ele><time>2026-04-29T12:36:50.47Z</time></trkpt><trkpt lat="43.9526323" lon="12.417369"><ele>175.75</ele><time>2026-04-29T12:36:51.47Z</time></trkpt><trkpt lat="43.9525639" lon="12.4175051"><ele>176.0</ele><time>2026-04-29T12:36:52.47Z</time></trkpt><trkpt lat="43.9525019" lon="12.4176431"><ele>176.0</ele><time>2026-04-29T12:36:53.47Z</time></trkpt><trkpt lat="43.9524391" lon="12.4177911"><ele>176.0</ele><time>2026-04-29T12:36:54.47Z</time></trkpt><trkpt lat="43.9523748" lon="12.4179386"><ele>176.0</ele><time>2026-04-29T12:36:55.47Z</time></trkpt><trkpt lat="43.9523131" lon="12.4180862"><ele>176.0</ele><time>2026-04-29T12:36:56.47Z</time></trkpt><trkpt lat="43.9522551" lon="12.4182371"><ele>177.0</ele><time>2026-04-29T12:36:57.47Z</time></trkpt><trkpt lat="43.952202" lon="12.4184006"><ele>178.0</ele><time>2026-04-29T12:36:58.47Z</time></trkpt><trkpt lat="43.95215" lon="12.4185754"><ele>179.0</ele><time>2026-04-29T12:36:59.47Z</time></trkpt><trkpt lat="43.9520992" lon="12.4187531"><ele>180.0</ele><time>2026-04-29T12:37:00.47Z</time></trkpt><trkpt lat="43.9520522" lon="12.4189194"><ele>181.0</ele><time>2026-04-29T12:37:01.47Z</time></trkpt><trkpt lat="43.9520119" lon="12.4190732"><ele>182.0</ele><time>2026-04-29T12:37:02.47Z</time></trkpt><trkpt lat="43.9519732" lon="12.4192277"><ele>183.0</ele><time>2026-04-29T12:37:03.47Z</time></trkpt><trkpt lat="43.951942" lon="12.4193778"><ele>184.0</ele><time>2026-04-29T12:37:04.47Z</time></trkpt><trkpt lat="43.9519086" lon="12.419519"><ele>184.0</ele><time>2026-04-29T12:37:05.471Z</time></trkpt><trkpt lat="43.9518655" lon="12.4196475"><ele>184.0</ele><time>2026-04-29T12:37:06.47Z</time></trkpt><trkpt lat="43.9518077" lon="12.4197628"><ele>184.0</ele><time>2026-04-29T12:37:07.47Z</time></trkpt><trkpt lat="43.9517449" lon="12.4198764"><ele>184.0</ele><time>2026-04-29T12:37:08.47Z</time></trkpt><trkpt lat="43.9516705" lon="12.4199753"><ele>184.0</ele><time>2026-04-29T12:37:09.47Z</time></trkpt><trkpt lat="43.9515845" lon="12.420062"><ele>184.0</ele><time>2026-04-29T12:37:10.47Z</time></trkpt><trkpt lat="43.9514997" lon="12.4201389"><ele>184.0</ele><time>2026-04-29T12:37:11.47Z</time></trkpt><trkpt lat="43.9514259" lon="12.4202178"><ele>184.0</ele><time>2026-04-29T12:37:12.47Z</time></trkpt><trkpt lat="43.9513646" lon="12.4203123"><ele>184.0</ele><time>2026-04-29T12:37:13.47Z</time></trkpt><trkpt lat="43.9513165" lon="12.4204211"><ele>184.0</ele><time>2026-04-29T12:37:14.47Z</time></trkpt><trkpt lat="43.9512809" lon="12.4205504"><ele>185.5</ele><time>2026-04-29T12:37:15.47Z</time></trkpt><trkpt lat="43.9512583" lon="12.4207018"><ele>187.0</ele><time>2026-04-29T12:37:16.47Z</time></trkpt><trkpt lat="43.9512452" lon="12.4208712"><ele>188.5</ele><time>2026-04-29T12:37:17.47Z</time></trkpt><trkpt lat="43.9512373" lon="12.4210389"><ele>190.0</ele><time>2026-04-29T12:37:18.47Z</time></trkpt><trkpt lat="43.9512364" lon="12.4211912"><ele>190.6</ele><time>2026-04-29T12:37:19.47Z</time></trkpt><trkpt lat="43.9512449" lon="12.4213407"><ele>191.2</ele><time>2026-04-29T12:37:20.47Z</time></trkpt><trkpt lat="43.9512705" lon="12.4214867"><ele>191.8</ele><time>2026-04-29T12:37:21.47Z</time></trkpt><trkpt lat="43.9513092" lon="12.4216357"><ele>192.4</ele><time>2026-04-29T12:37:22.471Z</time></trkpt><trkpt lat="43.9513508" lon="12.4217819"><ele>193.0</ele><time>2026-04-29T12:37:23.47Z</time></trkpt><trkpt lat="43.9513861" lon="12.4219303"><ele>193.0</ele><time>2026-04-29T12:37:24.47Z</time></trkpt><trkpt lat="43.9514183" lon="12.4220708"><ele>193.0</ele><time>2026-04-29T12:37:25.47Z</time></trkpt><trkpt lat="43.9514556" lon="12.422199"><ele>193.0</ele><time>2026-04-29T12:37:26.471Z</time></trkpt><trkpt lat="43.9515074" lon="12.4223202"><ele>193.0</ele><time>2026-04-29T12:37:27.47Z</time></trkpt><trkpt lat="43.9515737" lon="12.422427"><ele>193.0</ele><time>2026-04-29T12:37:28.471Z</time></trkpt><trkpt lat="43.9516496" lon="12.422517"><ele>196.2</ele><time>2026-04-29T12:37:29.47Z</time></trkpt><trkpt lat="43.9517348" lon="12.4226012"><ele>199.4</ele><time>2026-04-29T12:37:30.47Z</time></trkpt><trkpt lat="43.9518309" lon="12.4226776"><ele>202.6</ele><time>2026-04-29T12:37:31.471Z</time></trkpt><trkpt lat="43.9519355" lon="12.4227465"><ele>205.79999999999998</ele><time>2026-04-29T12:37:32.47Z</time></trkpt><trkpt lat="43.9520418" lon="12.4228056"><ele>209.0</ele><time>2026-04-29T12:37:33.471Z</time></trkpt><trkpt lat="43.9521435" lon="12.4228526"><ele>209.0</ele><time>2026-04-29T12:37:34.47Z</time></trkpt><trkpt lat="43.9522431" lon="12.4228845"><ele>209.0</ele><time>2026-04-29T12:37:35.47Z</time></trkpt><trkpt lat="43.9523458" lon="12.422895"><ele>209.0</ele><time>2026-04-29T12:37:36.47Z</time></trkpt><trkpt lat="43.9524497" lon="12.4228857"><ele>209.0</ele><time>2026-04-29T12:37:37.471Z</time></trkpt><trkpt lat="43.952541" lon="12.4228715"><ele>209.0</ele><time>2026-04-29T12:37:38.47Z</time></trkpt><trkpt lat="43.9526235" lon="12.4228746"><ele>211.39999999999998</ele><time>2026-04-29T12:37:39.47Z</time></trkpt><trkpt lat="43.9526993" lon="12.4229105"><ele>213.8</ele><time>2026-04-29T12:37:40.47Z</time></trkpt><trkpt lat="43.9527774" lon="12.4229819"><ele>216.20000000000002</ele><time>2026-04-29T12:37:41.47Z</time></trkpt><trkpt lat="43.952862" lon="12.4230814"><ele>218.60000000000002</ele><time>2026-04-29T12:37:42.47Z</time></trkpt><trkpt lat="43.9529475" lon="12.4231789"><ele>221.0</ele><time>2026-04-29T12:37:43.47Z</time></trkpt><trkpt lat="43.9530286" lon="12.4232558"><ele>221.00000000000003</ele><time>2026-04-29T12:37:44.47Z</time></trkpt><trkpt lat="43.9531033" lon="12.4233192"><ele>221.0</ele><time>2026-04-29T12:37:45.471Z</time></trkpt><trkpt lat="43.9531685" lon="12.4233827"><ele>221.0</ele><time>2026-04-29T12:37:46.47Z</time></trkpt><trkpt lat="43.9532187" lon="12.4234646"><ele>221.0</ele><time>2026-04-29T12:37:47.47Z</time></trkpt><trkpt lat="43.9532446" lon="12.4235682"><ele>221.00000000000003</ele><time>2026-04-29T12:37:48.47Z</time></trkpt><trkpt lat="43.9532564" lon="12.4236835"><ele>221.0</ele><time>2026-04-29T12:37:49.471Z</time></trkpt><trkpt lat="43.9532576" lon="12.4238201"><ele>221.33333333333334</ele><time>2026-04-29T12:37:50.47Z</time></trkpt><trkpt lat="43.9532581" lon="12.4239495"><ele>221.66666666666669</ele><time>2026-04-29T12:37:51.47Z</time></trkpt><trkpt lat="43.953255" lon="12.4240583"><ele>222.0</ele><time>2026-04-29T12:37:52.47Z</time></trkpt><trkpt lat="43.9532409" lon="12.4241524"><ele>222.33333333333331</ele><time>2026-04-29T12:37:53.47Z</time></trkpt><trkpt lat="43.9532074" lon="12.4242307"><ele>222.66666666666666</ele><time>2026-04-29T12:37:54.47Z</time></trkpt><trkpt lat="43.9531537" lon="12.4242942"><ele>223.0</ele><time>2026-04-29T12:37:55.47Z</time></trkpt><trkpt lat="43.9530833" lon="12.4243433"><ele>223.0</ele><time>2026-04-29T12:37:56.47Z</time></trkpt><trkpt lat="43.9529842" lon="12.4243909"><ele>223.0</ele><time>2026-04-29T12:37:57.47Z</time></trkpt><trkpt lat="43.9528653" lon="12.4244418"><ele>223.0</ele><time>2026-04-29T12:37:58.47Z</time></trkpt><trkpt lat="43.9527474" lon="12.4244915"><ele>223.0</ele><time>2026-04-29T12:37:59.47Z</time></trkpt><trkpt lat="43.9526432" lon="12.4245355"><ele>222.99999999999997</ele><time>2026-04-29T12:38:00.471Z</time></trkpt><trkpt lat="43.9525493" lon="12.4245798"><ele>223.0</ele><time>2026-04-29T12:38:01.47Z</time></trkpt><trkpt lat="43.9524715" lon="12.4246346"><ele>223.0</ele><time>2026-04-29T12:38:02.47Z</time></trkpt><trkpt lat="43.9524033" lon="12.4247107"><ele>223.0</ele><time>2026-04-29T12:38:03.47Z</time></trkpt><trkpt lat="43.9523476" lon="12.4248003"><ele>222.99999999999997</ele><time>2026-04-29T12:38:04.47Z</time></trkpt><trkpt lat="43.952304" lon="12.4249071"><ele>223.0</ele><time>2026-04-29T12:38:05.47Z</time></trkpt><trkpt lat="43.9522696" lon="12.4250246"><ele>224.2</ele><time>2026-04-29T12:38:06.47Z</time></trkpt><trkpt lat="43.9522443" lon="12.4251434"><ele>225.4</ele><time>2026-04-29T12:38:07.47Z</time></trkpt><trkpt lat="43.9522258" lon="12.4252689"><ele>226.59999999999997</ele><time>2026-04-29T12:38:08.47Z</time></trkpt><trkpt lat="43.9522141" lon="12.4254056"><ele>227.79999999999998</ele><time>2026-04-29T12:38:09.471Z</time></trkpt><trkpt lat="43.9522042" lon="12.4255545"><ele>229.0</ele><time>2026-04-29T12:38:10.47Z</time></trkpt><trkpt lat="43.9521956" lon="12.4257075"><ele>231.0</ele><time>2026-04-29T12:38:11.47Z</time></trkpt><trkpt lat="43.9521902" lon="12.4258593"><ele>232.99999999999997</ele><time>2026-04-29T12:38:12.47Z</time></trkpt><trkpt lat="43.9521848" lon="12.4260119"><ele>234.99999999999997</ele><time>2026-04-29T12:38:13.47Z</time></trkpt><trkpt lat="43.9521766" lon="12.4261611"><ele>237.0</ele><time>2026-04-29T12:38:14.47Z</time></trkpt><trkpt lat="43.9521644" lon="12.4263044"><ele>239.0</ele><time>2026-04-29T12:38:15.47Z</time></trkpt><trkpt lat="43.9521479" lon="12.4264386"><ele>241.33333333333334</ele><time>2026-04-29T12:38:16.47Z</time></trkpt><trkpt lat="43.9521206" lon="12.4265677"><ele>243.66666666666669</ele><time>2026-04-29T12:38:17.47Z</time></trkpt><trkpt lat="43.9520898" lon="12.4266949"><ele>246.0</ele><time>2026-04-29T12:38:18.47Z</time></trkpt><trkpt lat="43.9520617" lon="12.426814"><ele>248.33333333333331</ele><time>2026-04-29T12:38:19.47Z</time></trkpt><trkpt lat="43.9520337" lon="12.4269095"><ele>250.66666666666666</ele><time>2026-04-29T12:38:20.47Z</time></trkpt><trkpt lat="43.9520023" lon="12.4269933"><ele>253.0</ele><time>2026-04-29T12:38:21.471Z</time></trkpt><trkpt lat="43.9519604" lon="12.4270765"><ele>253.60000000000002</ele><time>2026-04-29T12:38:22.47Z</time></trkpt><trkpt lat="43.9519005" lon="12.4271602"><ele>254.20000000000002</ele><time>2026-04-29T12:38:23.47Z</time></trkpt><trkpt lat="43.9518301" lon="12.4272312"><ele>254.8</ele><time>2026-04-29T12:38:24.47Z</time></trkpt><trkpt lat="43.9517531" lon="12.4272924"><ele>255.4</ele><time>2026-04-29T12:38:25.47Z</time></trkpt><trkpt lat="43.9516506" lon="12.4273202"><ele>256.0</ele><time>2026-04-29T12:38:26.471Z</time></trkpt><trkpt lat="43.9515389" lon="12.4273271"><ele>256.0</ele><time>2026-04-29T12:38:27.47Z</time></trkpt><trkpt lat="43.9514243" lon="12.4273353"><ele>256.0</ele><time>2026-04-29T12:38:28.471Z</time></trkpt><trkpt lat="43.951305" lon="12.4273379"><ele>256.0</ele><time>2026-04-29T12:38:29.47Z</time></trkpt><trkpt lat="43.9511889" lon="12.4273281"><ele>256.0</ele><time>2026-04-29T12:38:30.47Z</time></trkpt><trkpt lat="43.9510769" lon="12.4273092"><ele>256.0</ele><time>2026-04-29T12:38:31.471Z</time></trkpt><trkpt lat="43.9509703" lon="12.427295"><ele>256.0</ele><time>2026-04-29T12:38:32.47Z</time></trkpt><trkpt lat="43.9508724" lon="12.4272943"><ele>256.0</ele><time>2026-04-29T12:38:33.47Z</time></trkpt><trkpt lat="43.9507802" lon="12.4273066"><ele>256.0</ele><time>2026-04-29T12:38:34.471Z</time></trkpt><trkpt lat="43.9506853" lon="12.4273318"><ele>256.0</ele><time>2026-04-29T12:38:35.47Z</time></trkpt><trkpt lat="43.9505819" lon="12.4273639"><ele>257.40000000000003</ele><time>2026-04-29T12:38:36.47Z</time></trkpt><trkpt lat="43.9504729" lon="12.4273905"><ele>258.8</ele><time>2026-04-29T12:38:37.471Z</time></trkpt><trkpt lat="43.9503677" lon="12.4274041"><ele>260.20000000000005</ele><time>2026-04-29T12:38:38.47Z</time></trkpt><trkpt lat="43.9502748" lon="12.4274057"><ele>261.6</ele><time>2026-04-29T12:38:39.47Z</time></trkpt><trkpt lat="43.9501955" lon="12.4274103"><ele>263.0</ele><time>2026-04-29T12:38:40.47Z</time></trkpt><trkpt lat="43.9501224" lon="12.4274179"><ele>263.0</ele><time>2026-04-29T12:38:41.47Z</time></trkpt><trkpt lat="43.9500522" lon="12.4274394"><ele>263.0</ele><time>2026-04-29T12:38:42.47Z</time></trkpt><trkpt lat="43.9499867" lon="12.4274815"><ele>263.0</ele><time>2026-04-29T12:38:43.47Z</time></trkpt><trkpt lat="43.9499191" lon="12.4275428"><ele>263.0</ele><time>2026-04-29T12:38:44.47Z</time></trkpt><trkpt lat="43.9498504" lon="12.4276136"><ele>263.0</ele><time>2026-04-29T12:38:45.47Z</time></trkpt><trkpt lat="43.9497845" lon="12.4276788"><ele>263.0</ele><time>2026-04-29T12:38:46.47Z</time></trkpt><trkpt lat="43.9497219" lon="12.4277319"><ele>263.33333333333337</ele><time>2026-04-29T12:38:47.47Z</time></trkpt><trkpt lat="43.9496555" lon="12.4277661"><ele>263.6666666666667</ele><time>2026-04-29T12:38:48.47Z</time></trkpt><trkpt lat="43.9495754" lon="12.4277731"><ele>264.0</ele><time>2026-04-29T12:38:49.47Z</time></trkpt><trkpt lat="43.9494908" lon="12.4277553"><ele>264.3333333333333</ele><time>2026-04-29T12:38:50.47Z</time></trkpt><trkpt lat="43.9494057" lon="12.427711"><ele>264.66666666666663</ele><time>2026-04-29T12:38:51.47Z</time></trkpt><trkpt lat="43.9493226" lon="12.4276466"><ele>265.0</ele><time>2026-04-29T12:38:52.47Z</time></trkpt><trkpt lat="43.9492509" lon="12.4275623"><ele>267.0</ele><time>2026-04-29T12:38:53.47Z</time></trkpt><trkpt lat="43.9491856" lon="12.4274665"><ele>269.0</ele><time>2026-04-29T12:38:54.47Z</time></trkpt><trkpt lat="43.9491316" lon="12.4273898"><ele>271.0</ele><time>2026-04-29T12:38:55.47Z</time></trkpt><trkpt lat="43.9490645" lon="12.4272695"><ele>273.0</ele><time>2026-04-29T12:38:57.47Z</time></trkpt><trkpt lat="43.9490541" lon="12.427123"><ele>275.0</ele><time>2026-04-29T12:38:59.47Z</time></trkpt><trkpt lat="43.9490725" lon="12.4270174"><ele>275.0</ele><time>2026-04-29T12:39:00.47Z</time></trkpt><trkpt lat="43.9490958" lon="12.4269011"><ele>275.0</ele><time>2026-04-29T12:39:01.47Z</time></trkpt><trkpt lat="43.9491206" lon="12.4267704"><ele>275.0</ele><time>2026-04-29T12:39:02.47Z</time></trkpt><trkpt lat="43.9491459" lon="12.4266343"><ele>275.0</ele><time>2026-04-29T12:39:03.47Z</time></trkpt><trkpt lat="43.9491712" lon="12.4264964"><ele>275.0</ele><time>2026-04-29T12:39:04.47Z</time></trkpt><trkpt lat="43.949197" lon="12.4263648"><ele>275.6666666666667</ele><time>2026-04-29T12:39:05.47Z</time></trkpt><trkpt lat="43.9492234" lon="12.4262409"><ele>276.33333333333337</ele><time>2026-04-29T12:39:06.47Z</time></trkpt><trkpt lat="43.9492465" lon="12.4261279"><ele>277.0</ele><time>2026-04-29T12:39:07.471Z</time></trkpt><trkpt lat="43.9492647" lon="12.4260306"><ele>277.6666666666667</ele><time>2026-04-29T12:39:08.47Z</time></trkpt><trkpt lat="43.9492621" lon="12.4258933"><ele>278.3333333333333</ele><time>2026-04-29T12:39:10.47Z</time></trkpt><trkpt lat="43.9491792" lon="12.4258182"><ele>279.0</ele><time>2026-04-29T12:39:12.47Z</time></trkpt><trkpt lat="43.9491167" lon="12.4258052"><ele>279.0</ele><time>2026-04-29T12:39:13.47Z</time></trkpt><trkpt lat="43.9490513" lon="12.4258235"><ele>279.0</ele><time>2026-04-29T12:39:14.47Z</time></trkpt><trkpt lat="43.9489841" lon="12.4258786"><ele>279.0</ele><time>2026-04-29T12:39:15.47Z</time></trkpt><trkpt lat="43.9489293" lon="12.425942"><ele>279.0</ele><time>2026-04-29T12:39:16.47Z</time></trkpt><trkpt lat="43.948873" lon="12.4259925"><ele>279.0</ele><time>2026-04-29T12:39:17.47Z</time></trkpt><trkpt lat="43.948775" lon="12.426063"><ele>279.0</ele><time>2026-04-29T12:39:19.47Z</time></trkpt><trkpt lat="43.9487271" lon="12.4261324"><ele>279.0</ele><time>2026-04-29T12:39:21.47Z</time></trkpt><trkpt lat="43.9488028" lon="12.4261047"><ele>279.0</ele><time>2026-04-29T12:39:25.47Z</time></trkpt><trkpt lat="43.9488788" lon="12.4259618"><ele>279.0</ele><time>2026-04-29T12:42:34.47Z</time></trkpt><trkpt lat="43.9489315" lon="12.4259073"><ele>279.0</ele><time>2026-04-29T12:42:35.47Z</time></trkpt><trkpt lat="43.9489922" lon="12.4258701"><ele>279.0</ele><time>2026-04-29T12:42:36.47Z</time></trkpt><trkpt lat="43.9490884" lon="12.4258456"><ele>279.0</ele><time>2026-04-29T12:42:38.471Z</time></trkpt><trkpt lat="43.9491842" lon="12.4258931"><ele>278.3333333333333</ele><time>2026-04-29T12:42:40.47Z</time></trkpt><trkpt lat="43.9492564" lon="12.4259802"><ele>277.6666666666667</ele><time>2026-04-29T12:42:42.471Z</time></trkpt><trkpt lat="43.9492607" lon="12.4260699"><ele>277.0</ele><time>2026-04-29T12:42:43.47Z</time></trkpt><trkpt lat="43.9492428" lon="12.4261779"><ele>276.33333333333337</ele><time>2026-04-29T12:42:44.47Z</time></trkpt><trkpt lat="43.9492279" lon="12.4262828"><ele>275.6666666666667</ele><time>2026-04-29T12:42:45.47Z</time></trkpt><trkpt lat="43.9492078" lon="12.426383"><ele>275.0</ele><time>2026-04-29T12:42:46.47Z</time></trkpt><trkpt lat="43.9491695" lon="12.4265418"><ele>275.0</ele><time>2026-04-29T12:42:48.471Z</time></trkpt><trkpt lat="43.9491396" lon="12.4266791"><ele>275.0</ele><time>2026-04-29T12:42:50.47Z</time></trkpt><trkpt lat="43.9491083" lon="12.4268003"><ele>275.0</ele><time>2026-04-29T12:42:52.47Z</time></trkpt><trkpt lat="43.9490787" lon="12.4269402"><ele>275.0</ele><time>2026-04-29T12:42:54.47Z</time></trkpt><trkpt lat="43.9490474" lon="12.4271101"><ele>275.0</ele><time>2026-04-29T12:42:56.47Z</time></trkpt><trkpt lat="43.9490414" lon="12.4271997"><ele>275.2</ele><time>2026-04-29T12:42:57.47Z</time></trkpt><trkpt lat="43.9490828" lon="12.4273546"><ele>275.4</ele><time>2026-04-29T12:42:59.469Z</time></trkpt><trkpt lat="43.9491306" lon="12.4274167"><ele>275.6</ele><time>2026-04-29T12:43:00.47Z</time></trkpt><trkpt lat="43.9492265" lon="12.4275307"><ele>275.8</ele><time>2026-04-29T12:43:02.47Z</time></trkpt><trkpt lat="43.9493163" lon="12.4276497"><ele>276.0</ele><time>2026-04-29T12:43:04.469Z</time></trkpt><trkpt lat="43.949414" lon="12.4277383"><ele>273.8</ele><time>2026-04-29T12:43:06.469Z</time></trkpt><trkpt lat="43.9495325" lon="12.4277814"><ele>271.6</ele><time>2026-04-29T12:43:08.469Z</time></trkpt><trkpt lat="43.9495981" lon="12.4277917"><ele>269.4</ele><time>2026-04-29T12:43:09.469Z</time></trkpt><trkpt lat="43.9497162" lon="12.4277447"><ele>267.2</ele><time>2026-04-29T12:43:11.47Z</time></trkpt><trkpt lat="43.9498202" lon="12.4276647"><ele>265.0</ele><time>2026-04-29T12:43:13.469Z</time></trkpt><trkpt lat="43.949917" lon="12.4275665"><ele>265.0</ele><time>2026-04-29T12:43:15.469Z</time></trkpt><trkpt lat="43.9500103" lon="12.4274792"><ele>265.0</ele><time>2026-04-29T12:43:17.47Z</time></trkpt><trkpt lat="43.9501136" lon="12.4274318"><ele>265.0</ele><time>2026-04-29T12:43:19.469Z</time></trkpt><trkpt lat="43.9502227" lon="12.4274069"><ele>265.0</ele><time>2026-04-29T12:43:21.469Z</time></trkpt><trkpt lat="43.9502878" lon="12.4273997"><ele>265.0</ele><time>2026-04-29T12:43:22.469Z</time></trkpt><trkpt lat="43.9503579" lon="12.4273959"><ele>264.66666666666663</ele><time>2026-04-29T12:43:23.469Z</time></trkpt><trkpt lat="43.9504351" lon="12.4273991"><ele>264.3333333333333</ele><time>2026-04-29T12:43:24.469Z</time></trkpt><trkpt lat="43.950509" lon="12.4273971"><ele>264.0</ele><time>2026-04-29T12:43:25.469Z</time></trkpt><trkpt lat="43.9505877" lon="12.4273799"><ele>263.6666666666667</ele><time>2026-04-29T12:43:26.469Z</time></trkpt><trkpt lat="43.9506705" lon="12.4273527"><ele>263.33333333333337</ele><time>2026-04-29T12:43:27.469Z</time></trkpt><trkpt lat="43.9507555" lon="12.4273204"><ele>263.0</ele><time>2026-04-29T12:43:28.469Z</time></trkpt><trkpt lat="43.9508456" lon="12.4273064"><ele>261.83333333333337</ele><time>2026-04-29T12:43:29.469Z</time></trkpt><trkpt lat="43.9509332" lon="12.427301"><ele>260.6666666666667</ele><time>2026-04-29T12:43:30.469Z</time></trkpt><trkpt lat="43.9510202" lon="12.4273078"><ele>259.5</ele><time>2026-04-29T12:43:31.47Z</time></trkpt><trkpt lat="43.9511109" lon="12.4273235"><ele>258.3333333333333</ele><time>2026-04-29T12:43:32.469Z</time></trkpt><trkpt lat="43.9511936" lon="12.4273436"><ele>257.16666666666663</ele><time>2026-04-29T12:43:33.469Z</time></trkpt><trkpt lat="43.9512771" lon="12.4273478"><ele>256.0</ele><time>2026-04-29T12:43:34.469Z</time></trkpt><trkpt lat="43.951357" lon="12.4273389"><ele>255.99999999999997</ele><time>2026-04-29T12:43:35.469Z</time></trkpt><trkpt lat="43.9514343" lon="12.4273252"><ele>256.0</ele><time>2026-04-29T12:43:36.469Z</time></trkpt><trkpt lat="43.9515133" lon="12.4273084"><ele>256.0</ele><time>2026-04-29T12:43:37.47Z</time></trkpt><trkpt lat="43.9515919" lon="12.4272981"><ele>256.0</ele><time>2026-04-29T12:43:38.469Z</time></trkpt><trkpt lat="43.9516717" lon="12.427288"><ele>255.99999999999997</ele><time>2026-04-29T12:43:39.469Z</time></trkpt><trkpt lat="43.951748" lon="12.427266"><ele>256.0</ele><time>2026-04-29T12:43:40.469Z</time></trkpt><trkpt lat="43.9518202" lon="12.4272303"><ele>255.49999999999997</ele><time>2026-04-29T12:43:41.469Z</time></trkpt><trkpt lat="43.951883" lon="12.4271791"><ele>255.0</ele><time>2026-04-29T12:43:42.47Z</time></trkpt><trkpt lat="43.9519325" lon="12.4271072"><ele>254.5</ele><time>2026-04-29T12:43:43.469Z</time></trkpt><trkpt lat="43.9519744" lon="12.4270392"><ele>254.0</ele><time>2026-04-29T12:43:44.469Z</time></trkpt><trkpt lat="43.9520345" lon="12.4269032"><ele>253.49999999999997</ele><time>2026-04-29T12:43:46.469Z</time></trkpt><trkpt lat="43.9520632" lon="12.4268205"><ele>253.0</ele><time>2026-04-29T12:43:47.469Z</time></trkpt><trkpt lat="43.952092" lon="12.4267222"><ele>252.99999999999997</ele><time>2026-04-29T12:43:48.469Z</time></trkpt><trkpt lat="43.9521165" lon="12.4266279"><ele>253.0</ele><time>2026-04-29T12:43:49.469Z</time></trkpt><trkpt lat="43.9521443" lon="12.4265412"><ele>253.0</ele><time>2026-04-29T12:43:50.469Z</time></trkpt><trkpt lat="43.9521798" lon="12.4263858"><ele>253.0</ele><time>2026-04-29T12:43:52.469Z</time></trkpt><trkpt lat="43.9521945" lon="12.4262566"><ele>252.99999999999997</ele><time>2026-04-29T12:43:54.469Z</time></trkpt><trkpt lat="43.9521996" lon="12.4261237"><ele>253.0</ele><time>2026-04-29T12:43:56.469Z</time></trkpt><trkpt lat="43.9522109" lon="12.4259777"><ele>250.2</ele><time>2026-04-29T12:43:58.469Z</time></trkpt><trkpt lat="43.9522214" lon="12.4258346"><ele>247.4</ele><time>2026-04-29T12:44:00.47Z</time></trkpt><trkpt lat="43.952229" lon="12.425697"><ele>244.59999999999997</ele><time>2026-04-29T12:44:02.469Z</time></trkpt><trkpt lat="43.9522361" lon="12.4255682"><ele>241.79999999999998</ele><time>2026-04-29T12:44:04.469Z</time></trkpt><trkpt lat="43.9522456" lon="12.425442"><ele>239.0</ele><time>2026-04-29T12:44:06.469Z</time></trkpt><trkpt lat="43.952261" lon="12.4253125"><ele>237.0</ele><time>2026-04-29T12:44:08.469Z</time></trkpt><trkpt lat="43.9522708" lon="12.4251753"><ele>234.99999999999997</ele><time>2026-04-29T12:44:10.469Z</time></trkpt><trkpt lat="43.9522845" lon="12.4250365"><ele>232.99999999999997</ele><time>2026-04-29T12:44:12.469Z</time></trkpt><trkpt lat="43.9523212" lon="12.424904"><ele>231.0</ele><time>2026-04-29T12:44:14.469Z</time></trkpt><trkpt lat="43.9523716" lon="12.4247909"><ele>229.0</ele><time>2026-04-29T12:44:16.469Z</time></trkpt><trkpt lat="43.9524349" lon="12.4246948"><ele>227.99999999999997</ele><time>2026-04-29T12:44:18.469Z</time></trkpt><trkpt lat="43.9525081" lon="12.4246293"><ele>227.0</ele><time>2026-04-29T12:44:20.469Z</time></trkpt><trkpt lat="43.9525791" lon="12.4245703"><ele>226.0</ele><time>2026-04-29T12:44:22.469Z</time></trkpt><trkpt lat="43.9526435" lon="12.4245385"><ele>225.0</ele><time>2026-04-29T12:44:24.469Z</time></trkpt><trkpt lat="43.9527359" lon="12.424496"><ele>223.99999999999997</ele><time>2026-04-29T12:44:27.469Z</time></trkpt><trkpt lat="43.9528083" lon="12.4244586"><ele>223.0</ele><time>2026-04-29T12:44:29.469Z</time></trkpt><trkpt lat="43.9528715" lon="12.4244153"><ele>222.99999999999997</ele><time>2026-04-29T12:44:31.47Z</time></trkpt><trkpt lat="43.9529552" lon="12.4243807"><ele>223.0</ele><time>2026-04-29T12:44:34.469Z</time></trkpt><trkpt lat="43.9530418" lon="12.4243457"><ele>223.0</ele><time>2026-04-29T12:44:37.469Z</time></trkpt><trkpt lat="43.9531175" lon="12.4242925"><ele>223.0</ele><time>2026-04-29T12:44:40.469Z</time></trkpt><trkpt lat="43.9531882" lon="12.4242402"><ele>222.99999999999997</ele><time>2026-04-29T12:44:43.469Z</time></trkpt><trkpt lat="43.9532443" lon="12.4241875"><ele>223.0</ele><time>2026-04-29T12:44:48.469Z</time></trkpt><trkpt lat="43.9532842" lon="12.4242941"><ele>222.99999999999997</ele><time>2026-04-29T12:44:52.469Z</time></trkpt><trkpt lat="43.9532864" lon="12.4244306"><ele>223.0</ele><time>2026-04-29T12:44:54.469Z</time></trkpt><trkpt lat="43.9532841" lon="12.4245189"><ele>223.0</ele><time>2026-04-29T12:44:55.47Z</time></trkpt><trkpt lat="43.9532738" lon="12.4246089"><ele>223.0</ele><time>2026-04-29T12:44:56.469Z</time></trkpt><trkpt lat="43.9532655" lon="12.4247075"><ele>222.99999999999997</ele><time>2026-04-29T12:44:57.469Z</time></trkpt><trkpt lat="43.9532567" lon="12.424806"><ele>223.0</ele><time>2026-04-29T12:44:58.469Z</time></trkpt><trkpt lat="43.9532512" lon="12.4249764"><ele>223.99999999999997</ele><time>2026-04-29T12:45:00.469Z</time></trkpt><trkpt lat="43.9532558" lon="12.4250671"><ele>225.0</ele><time>2026-04-29T12:45:01.469Z</time></trkpt><trkpt lat="43.953267" lon="12.425159"><ele>226.0</ele><time>2026-04-29T12:45:02.469Z</time></trkpt><trkpt lat="43.9532785" lon="12.4252577"><ele>227.0</ele><time>2026-04-29T12:45:03.469Z</time></trkpt><trkpt lat="43.9532882" lon="12.4253479"><ele>227.99999999999997</ele><time>2026-04-29T12:45:04.469Z</time></trkpt><trkpt lat="43.9533149" lon="12.4255173"><ele>229.0</ele><time>2026-04-29T12:45:06.469Z</time></trkpt><trkpt lat="43.9533263" lon="12.4256038"><ele>231.33333333333331</ele><time>2026-04-29T12:45:07.469Z</time></trkpt><trkpt lat="43.9533546" lon="12.4257511"><ele>233.66666666666666</ele><time>2026-04-29T12:45:09.469Z</time></trkpt><trkpt lat="43.9534065" lon="12.4258156"><ele>236.0</ele><time>2026-04-29T12:45:11.469Z</time></trkpt><trkpt lat="43.9534947" lon="12.4258006"><ele>238.33333333333331</ele><time>2026-04-29T12:45:14.469Z</time></trkpt><trkpt lat="43.953546" lon="12.4257209"><ele>240.66666666666666</ele><time>2026-04-29T12:45:17.469Z</time></trkpt><trkpt lat="43.9535876" lon="12.4256449"><ele>243.0</ele><time>2026-04-29T12:45:20.469Z</time></trkpt><trkpt lat="43.9536513" lon="12.4255951"><ele>243.8</ele><time>2026-04-29T12:45:24.469Z</time></trkpt><trkpt lat="43.9537019" lon="12.425513"><ele>244.60000000000002</ele><time>2026-04-29T12:45:28.469Z</time></trkpt><trkpt lat="43.9537362" lon="12.4253892"><ele>245.39999999999998</ele><time>2026-04-29T12:45:30.469Z</time></trkpt><trkpt lat="43.9537793" lon="12.4252568"><ele>246.2</ele><time>2026-04-29T12:45:32.469Z</time></trkpt><trkpt lat="43.9538112" lon="12.4251398"><ele>247.0</ele><time>2026-04-29T12:45:34.469Z</time></trkpt><trkpt lat="43.9538505" lon="12.4250173"><ele>246.99999999999997</ele><time>2026-04-29T12:45:36.469Z</time></trkpt><trkpt lat="43.9538827" lon="12.4248902"><ele>247.0</ele><time>2026-04-29T12:45:38.469Z</time></trkpt><trkpt lat="43.953944" lon="12.4247774"><ele>247.0</ele><time>2026-04-29T12:45:40.47Z</time></trkpt><trkpt lat="43.9540213" lon="12.4246943"><ele>247.0</ele><time>2026-04-29T12:45:42.469Z</time></trkpt><trkpt lat="43.954064" lon="12.4246241"><ele>246.99999999999997</ele><time>2026-04-29T12:45:44.469Z</time></trkpt><trkpt lat="43.9540147" lon="12.4247082"><ele>247.0</ele><time>2026-04-29T12:45:58.47Z</time></trkpt><trkpt lat="43.9539608" lon="12.424754"><ele>246.99999999999997</ele><time>2026-04-29T12:46:00.469Z</time></trkpt><trkpt lat="43.9538979" lon="12.4248312"><ele>247.0</ele><time>2026-04-29T12:46:02.469Z</time></trkpt><trkpt lat="43.953867" lon="12.4249588"><ele>247.0</ele><time>2026-04-29T12:46:04.47Z</time></trkpt><trkpt lat="43.9538345" lon="12.4250798"><ele>247.0</ele><time>2026-04-29T12:46:06.469Z</time></trkpt><trkpt lat="43.9537949" lon="12.425158"><ele>246.99999999999997</ele><time>2026-04-29T12:46:08.469Z</time></trkpt><trkpt lat="43.9537683" lon="12.4252692"><ele>247.0</ele><time>2026-04-29T12:46:10.469Z</time></trkpt><trkpt lat="43.9537415" lon="12.4253744"><ele>247.16666666666666</ele><time>2026-04-29T12:46:12.469Z</time></trkpt><trkpt lat="43.9536996" lon="12.4254789"><ele>247.33333333333331</ele><time>2026-04-29T12:46:14.469Z</time></trkpt><trkpt lat="43.9536463" lon="12.4255783"><ele>247.5</ele><time>2026-04-29T12:46:16.469Z</time></trkpt><trkpt lat="43.9535979" lon="12.42567"><ele>247.66666666666669</ele><time>2026-04-29T12:46:18.469Z</time></trkpt><trkpt lat="43.9535525" lon="12.4257359"><ele>247.83333333333334</ele><time>2026-04-29T12:46:20.469Z</time></trkpt><trkpt lat="43.9534922" lon="12.4258081"><ele>248.0</ele><time>2026-04-29T12:46:22.469Z</time></trkpt><trkpt lat="43.9534069" lon="12.4258187"><ele>247.2857142857143</ele><time>2026-04-29T12:46:25.469Z</time></trkpt><trkpt lat="43.9533477" lon="12.4257729"><ele>246.5714285714286</ele><time>2026-04-29T12:46:28.469Z</time></trkpt><trkpt lat="43.9533208" lon="12.4256705"><ele>245.85714285714286</ele><time>2026-04-29T12:46:31.469Z</time></trkpt><trkpt lat="43.9533114" lon="12.4255782"><ele>245.14285714285717</ele><time>2026-04-29T12:46:33.469Z</time></trkpt><trkpt lat="43.9532994" lon="12.4254727"><ele>244.42857142857144</ele><time>2026-04-29T12:46:35.469Z</time></trkpt><trkpt lat="43.9532905" lon="12.4253709"><ele>243.71428571428572</ele><time>2026-04-29T12:46:37.469Z</time></trkpt><trkpt lat="43.9532747" lon="12.4252796"><ele>243.0</ele><time>2026-04-29T12:46:39.469Z</time></trkpt><trkpt lat="43.9532619" lon="12.4251782"><ele>241.0</ele><time>2026-04-29T12:46:41.47Z</time></trkpt><trkpt lat="43.9532588" lon="12.4250787"><ele>239.0</ele><time>2026-04-29T12:46:43.469Z</time></trkpt><trkpt lat="43.9532503" lon="12.4249883"><ele>237.0</ele><time>2026-04-29T12:46:45.469Z</time></trkpt><trkpt lat="43.9532523" lon="12.4248976"><ele>235.0</ele><time>2026-04-29T12:46:47.469Z</time></trkpt><trkpt lat="43.9532535" lon="12.4248026"><ele>233.0</ele><time>2026-04-29T12:46:49.469Z</time></trkpt><trkpt lat="43.9532587" lon="12.4247121"><ele>231.0</ele><time>2026-04-29T12:46:51.469Z</time></trkpt><trkpt lat="43.953262" lon="12.4246196"><ele>229.0</ele><time>2026-04-29T12:46:53.469Z</time></trkpt><trkpt lat="43.9532688" lon="12.4245325"><ele>227.99999999999997</ele><time>2026-04-29T12:46:55.469Z</time></trkpt><trkpt lat="43.9532655" lon="12.4244068"><ele>227.0</ele><time>2026-04-29T12:46:58.469Z</time></trkpt><trkpt lat="43.9532683" lon="12.4243108"><ele>226.0</ele><time>2026-04-29T12:47:00.469Z</time></trkpt><trkpt lat="43.9532486" lon="12.4241996"><ele>225.0</ele><time>2026-04-29T12:47:03.469Z</time></trkpt><trkpt lat="43.9531484" lon="12.424254"><ele>223.99999999999997</ele><time>2026-04-29T12:47:07.469Z</time></trkpt><trkpt lat="43.9530942" lon="12.4243009"><ele>223.0</ele><time>2026-04-29T12:47:08.469Z</time></trkpt><trkpt lat="43.9530345" lon="12.4243334"><ele>223.0</ele><time>2026-04-29T12:47:09.469Z</time></trkpt><trkpt lat="43.9529731" lon="12.4243637"><ele>223.0</ele><time>2026-04-29T12:47:10.469Z</time></trkpt><trkpt lat="43.9529116" lon="12.4243979"><ele>223.0</ele><time>2026-04-29T12:47:11.469Z</time></trkpt><trkpt lat="43.95284" lon="12.4244302"><ele>223.0</ele><time>2026-04-29T12:47:12.469Z</time></trkpt><trkpt lat="43.9527639" lon="12.4244653"><ele>223.0</ele><time>2026-04-29T12:47:13.469Z</time></trkpt><trkpt lat="43.9526862" lon="12.4245003"><ele>223.0</ele><time>2026-04-29T12:47:14.469Z</time></trkpt><trkpt lat="43.9526109" lon="12.4245344"><ele>223.0</ele><time>2026-04-29T12:47:15.469Z</time></trkpt><trkpt lat="43.9525445" lon="12.4245688"><ele>222.66666666666666</ele><time>2026-04-29T12:47:16.469Z</time></trkpt><trkpt lat="43.9524781" lon="12.4246129"><ele>222.33333333333331</ele><time>2026-04-29T12:47:17.469Z</time></trkpt><trkpt lat="43.9524203" lon="12.4246747"><ele>222.0</ele><time>2026-04-29T12:47:18.469Z</time></trkpt><trkpt lat="43.9523653" lon="12.4247422"><ele>221.66666666666669</ele><time>2026-04-29T12:47:19.469Z</time></trkpt><trkpt lat="43.9523178" lon="12.4248298"><ele>221.33333333333334</ele><time>2026-04-29T12:47:20.469Z</time></trkpt><trkpt lat="43.9522838" lon="12.4249388"><ele>221.0</ele><time>2026-04-29T12:47:21.469Z</time></trkpt><trkpt lat="43.9522619" lon="12.4250584"><ele>222.60000000000002</ele><time>2026-04-29T12:47:22.469Z</time></trkpt><trkpt lat="43.9522444" lon="12.4251945"><ele>224.20000000000002</ele><time>2026-04-29T12:47:23.469Z</time></trkpt><trkpt lat="43.952229" lon="12.4253234"><ele>225.79999999999998</ele><time>2026-04-29T12:47:24.469Z</time></trkpt><trkpt lat="43.952219" lon="12.4254475"><ele>227.39999999999998</ele><time>2026-04-29T12:47:25.469Z</time></trkpt><trkpt lat="43.9522053" lon="12.4255658"><ele>229.0</ele><time>2026-04-29T12:47:26.469Z</time></trkpt><trkpt lat="43.9521924" lon="12.4256849"><ele>230.66666666666666</ele><time>2026-04-29T12:47:27.469Z</time></trkpt><trkpt lat="43.9521875" lon="12.425807"><ele>232.33333333333331</ele><time>2026-04-29T12:47:28.47Z</time></trkpt><trkpt lat="43.9521845" lon="12.425929"><ele>234.0</ele><time>2026-04-29T12:47:29.469Z</time></trkpt><trkpt lat="43.9521768" lon="12.4260504"><ele>235.66666666666669</ele><time>2026-04-29T12:47:30.469Z</time></trkpt><trkpt lat="43.9521751" lon="12.4261738"><ele>237.33333333333334</ele><time>2026-04-29T12:47:31.469Z</time></trkpt><trkpt lat="43.9521703" lon="12.4262941"><ele>239.0</ele><time>2026-04-29T12:47:32.469Z</time></trkpt><trkpt lat="43.9521553" lon="12.4264121"><ele>241.33333333333334</ele><time>2026-04-29T12:47:33.469Z</time></trkpt><trkpt lat="43.9521295" lon="12.4265253"><ele>243.66666666666669</ele><time>2026-04-29T12:47:34.469Z</time></trkpt><trkpt lat="43.9521068" lon="12.4266283"><ele>246.0</ele><time>2026-04-29T12:47:35.469Z</time></trkpt><trkpt lat="43.9520668" lon="12.4267649"><ele>248.33333333333331</ele><time>2026-04-29T12:47:37.469Z</time></trkpt><trkpt lat="43.9520241" lon="12.4268614"><ele>250.66666666666666</ele><time>2026-04-29T12:47:40.469Z</time></trkpt><trkpt lat="43.9520772" lon="12.4269591"><ele>253.0</ele><time>2026-04-29T12:47:52.469Z</time></trkpt><trkpt lat="43.9522028" lon="12.4269991"><ele>252.99999999999997</ele><time>2026-04-29T12:47:54.469Z</time></trkpt><trkpt lat="43.9522665" lon="12.4270143"><ele>253.0</ele><time>2026-04-29T12:47:55.469Z</time></trkpt><trkpt lat="43.9523471" lon="12.4270735"><ele>253.0</ele><time>2026-04-29T12:47:57.469Z</time></trkpt><trkpt lat="43.9523942" lon="12.4272229"><ele>253.0</ele><time>2026-04-29T12:47:59.469Z</time></trkpt><trkpt lat="43.9524331" lon="12.427312"><ele>252.99999999999997</ele><time>2026-04-29T12:48:00.469Z</time></trkpt><trkpt lat="43.9524779" lon="12.4273929"><ele>253.0</ele><time>2026-04-29T12:48:01.469Z</time></trkpt><trkpt lat="43.9525308" lon="12.4274762"><ele>255.66666666666666</ele><time>2026-04-29T12:48:02.469Z</time></trkpt><trkpt lat="43.9525899" lon="12.4275607"><ele>258.3333333333333</ele><time>2026-04-29T12:48:03.47Z</time></trkpt><trkpt lat="43.9526429" lon="12.4276381"><ele>261.0</ele><time>2026-04-29T12:48:04.469Z</time></trkpt><trkpt lat="43.9526938" lon="12.4277132"><ele>263.6666666666667</ele><time>2026-04-29T12:48:05.469Z</time></trkpt><trkpt lat="43.9527487" lon="12.4277861"><ele>266.33333333333337</ele><time>2026-04-29T12:48:06.47Z</time></trkpt><trkpt lat="43.9528021" lon="12.4278628"><ele>269.0</ele><time>2026-04-29T12:48:07.469Z</time></trkpt><trkpt lat="43.9528517" lon="12.4279472"><ele>270.0</ele><time>2026-04-29T12:48:08.469Z</time></trkpt><trkpt lat="43.952908" lon="12.428028"><ele>271.0</ele><time>2026-04-29T12:48:09.469Z</time></trkpt><trkpt lat="43.9529598" lon="12.4281052"><ele>272.0</ele><time>2026-04-29T12:48:10.469Z</time></trkpt><trkpt lat="43.953013" lon="12.4281875"><ele>273.0</ele><time>2026-04-29T12:48:11.469Z</time></trkpt><trkpt lat="43.9530648" lon="12.4282628"><ele>274.0</ele><time>2026-04-29T12:48:12.469Z</time></trkpt><trkpt lat="43.9531132" lon="12.4283367"><ele>275.0</ele><time>2026-04-29T12:48:13.469Z</time></trkpt><trkpt lat="43.9531647" lon="12.4284219"><ele>275.0</ele><time>2026-04-29T12:48:14.469Z</time></trkpt><trkpt lat="43.9532176" lon="12.4285067"><ele>275.0</ele><time>2026-04-29T12:48:15.469Z</time></trkpt><trkpt lat="43.9532729" lon="12.4285948"><ele>275.0</ele><time>2026-04-29T12:48:16.469Z</time></trkpt><trkpt lat="43.9533357" lon="12.4286859"><ele>275.0</ele><time>2026-04-29T12:48:17.47Z</time></trkpt><trkpt lat="43.9534003" lon="12.4287768"><ele>275.0</ele><time>2026-04-29T12:48:18.469Z</time></trkpt><trkpt lat="43.9534663" lon="12.4288684"><ele>275.0</ele><time>2026-04-29T12:48:19.47Z</time></trkpt><trkpt lat="43.9535398" lon="12.4289645"><ele>279.5</ele><time>2026-04-29T12:48:20.469Z</time></trkpt><trkpt lat="43.9536262" lon="12.4290694"><ele>284.0</ele><time>2026-04-29T12:48:21.469Z</time></trkpt><trkpt lat="43.9537235" lon="12.4291928"><ele>288.5</ele><time>2026-04-29T12:48:22.469Z</time></trkpt><trkpt lat="43.9538361" lon="12.4293243"><ele>293.0</ele><time>2026-04-29T12:48:23.469Z</time></trkpt><trkpt lat="43.9539526" lon="12.4294581"><ele>293.0</ele><time>2026-04-29T12:48:24.469Z</time></trkpt><trkpt lat="43.9540648" lon="12.4295987"><ele>293.0</ele><time>2026-04-29T12:48:25.469Z</time></trkpt><trkpt lat="43.9541657" lon="12.4297208"><ele>293.0</ele><time>2026-04-29T12:48:26.47Z</time></trkpt><trkpt lat="43.9542496" lon="12.4298168"><ele>293.0</ele><time>2026-04-29T12:48:27.469Z</time></trkpt><trkpt lat="43.9543261" lon="12.4299112"><ele>296.33333333333337</ele><time>2026-04-29T12:48:28.469Z</time></trkpt><trkpt lat="43.9543943" lon="12.4300072"><ele>299.6666666666667</ele><time>2026-04-29T12:48:29.469Z</time></trkpt><trkpt lat="43.9544587" lon="12.4301078"><ele>303.0</ele><time>2026-04-29T12:48:30.469Z</time></trkpt><trkpt lat="43.95451" lon="12.4301724"><ele>306.3333333333333</ele><time>2026-04-29T12:48:31.469Z</time></trkpt><trkpt lat="43.9545685" lon="12.4302233"><ele>309.66666666666663</ele><time>2026-04-29T12:48:33.469Z</time></trkpt><trkpt lat="43.9546648" lon="12.4301744"><ele>313.0</ele><time>2026-04-29T12:48:36.47Z</time></trkpt><trkpt lat="43.9547217" lon="12.4301203"><ele>313.0</ele><time>2026-04-29T12:48:37.469Z</time></trkpt><trkpt lat="43.9547856" lon="12.4300622"><ele>313.0</ele><time>2026-04-29T12:48:38.469Z</time></trkpt><trkpt lat="43.9548523" lon="12.4299945"><ele>313.0</ele><time>2026-04-29T12:48:39.469Z</time></trkpt><trkpt lat="43.9549225" lon="12.4299165"><ele>313.0</ele><time>2026-04-29T12:48:40.469Z</time></trkpt><trkpt lat="43.9549918" lon="12.4298374"><ele>313.0</ele><time>2026-04-29T12:48:41.469Z</time></trkpt><trkpt lat="43.955056" lon="12.4297584"><ele>313.0</ele><time>2026-04-29T12:48:42.469Z</time></trkpt><trkpt lat="43.9551117" lon="12.4296882"><ele>313.1428571428571</ele><time>2026-04-29T12:48:43.469Z</time></trkpt><trkpt lat="43.9551656" lon="12.4296276"><ele>313.2857142857143</ele><time>2026-04-29T12:48:44.469Z</time></trkpt><trkpt lat="43.9552213" lon="12.4295815"><ele>313.42857142857144</ele><time>2026-04-29T12:48:45.469Z</time></trkpt><trkpt lat="43.9552766" lon="12.4295254"><ele>313.57142857142856</ele><time>2026-04-29T12:48:46.469Z</time></trkpt><trkpt lat="43.9553408" lon="12.4294831"><ele>313.7142857142857</ele><time>2026-04-29T12:48:47.469Z</time></trkpt><trkpt lat="43.955405" lon="12.4294471"><ele>313.85714285714283</ele><time>2026-04-29T12:48:48.469Z</time></trkpt><trkpt lat="43.9554724" lon="12.4294193"><ele>314.0</ele><time>2026-04-29T12:48:49.469Z</time></trkpt><trkpt lat="43.9555452" lon="12.4293905"><ele>314.0</ele><time>2026-04-29T12:48:50.469Z</time></trkpt><trkpt lat="43.9556212" lon="12.4293558"><ele>314.0</ele><time>2026-04-29T12:48:51.469Z</time></trkpt><trkpt lat="43.9556964" lon="12.4293017"><ele>314.0</ele><time>2026-04-29T12:48:52.469Z</time></trkpt><trkpt lat="43.9557579" lon="12.4292639"><ele>314.0</ele><time>2026-04-29T12:48:53.469Z</time></trkpt><trkpt lat="43.9558601" lon="12.429261"><ele>314.0</ele><time>2026-04-29T12:48:55.469Z</time></trkpt><trkpt lat="43.955935" lon="12.4293971"><ele>315.2</ele><time>2026-04-29T12:48:57.469Z</time></trkpt><trkpt lat="43.9559771" lon="12.4295094"><ele>316.4</ele><time>2026-04-29T12:48:58.469Z</time></trkpt><trkpt lat="43.9560188" lon="12.4296309"><ele>317.6</ele><time>2026-04-29T12:48:59.469Z</time></trkpt><trkpt lat="43.9560612" lon="12.4297498"><ele>318.8</ele><time>2026-04-29T12:49:00.469Z</time></trkpt><trkpt lat="43.9561065" lon="12.4298668"><ele>320.0</ele><time>2026-04-29T12:49:01.469Z</time></trkpt><trkpt lat="43.9561549" lon="12.4299841"><ele>323.2</ele><time>2026-04-29T12:49:02.47Z</time></trkpt><trkpt lat="43.9562073" lon="12.4300974"><ele>326.4</ele><time>2026-04-29T12:49:03.469Z</time></trkpt><trkpt lat="43.9562624" lon="12.4301998"><ele>329.6</ele><time>2026-04-29T12:49:04.469Z</time></trkpt><trkpt lat="43.9563293" lon="12.4302841"><ele>332.8</ele><time>2026-04-29T12:49:05.469Z</time></trkpt><trkpt lat="43.9564114" lon="12.4303497"><ele>336.0</ele><time>2026-04-29T12:49:06.469Z</time></trkpt><trkpt lat="43.9565018" lon="12.4303989"><ele>336.0</ele><time>2026-04-29T12:49:07.469Z</time></trkpt><trkpt lat="43.9565997" lon="12.4304194"><ele>336.0</ele><time>2026-04-29T12:49:08.469Z</time></trkpt><trkpt lat="43.9567045" lon="12.4304288"><ele>336.0</ele><time>2026-04-29T12:49:09.469Z</time></trkpt><trkpt lat="43.956807" lon="12.4304251"><ele>336.0</ele><time>2026-04-29T12:49:10.469Z</time></trkpt><trkpt lat="43.9569043" lon="12.4304185"><ele>336.0</ele><time>2026-04-29T12:49:11.469Z</time></trkpt><trkpt lat="43.9570024" lon="12.4304191"><ele>338.20000000000005</ele><time>2026-04-29T12:49:12.47Z</time></trkpt><trkpt lat="43.9570996" lon="12.4304316"><ele>340.40000000000003</ele><time>2026-04-29T12:49:13.47Z</time></trkpt><trkpt lat="43.9571849" lon="12.4304708"><ele>342.6</ele><time>2026-04-29T12:49:14.469Z</time></trkpt><trkpt lat="43.9572645" lon="12.4305155"><ele>344.8</ele><time>2026-04-29T12:49:15.469Z</time></trkpt><trkpt lat="43.9573488" lon="12.4305717"><ele>347.0</ele><time>2026-04-29T12:49:16.469Z</time></trkpt><trkpt lat="43.9574236" lon="12.4306308"><ele>348.5</ele><time>2026-04-29T12:49:17.469Z</time></trkpt><trkpt lat="43.9574784" lon="12.4307004"><ele>350.0</ele><time>2026-04-29T12:49:18.469Z</time></trkpt><trkpt lat="43.9575103" lon="12.4307781"><ele>351.5</ele><time>2026-04-29T12:49:19.469Z</time></trkpt><trkpt lat="43.9575208" lon="12.4308687"><ele>353.0</ele><time>2026-04-29T12:49:20.469Z</time></trkpt><trkpt lat="43.9575116" lon="12.4310038"><ele>354.5</ele><time>2026-04-29T12:49:22.469Z</time></trkpt><trkpt lat="43.9575731" lon="12.430957"><ele>356.0</ele><time>2026-04-29T12:49:27.469Z</time></trkpt><trkpt lat="43.9576146" lon="12.4307812"><ele>355.6666666666667</ele><time>2026-04-29T12:49:29.47Z</time></trkpt><trkpt lat="43.9576489" lon="12.4306791"><ele>355.33333333333337</ele><time>2026-04-29T12:49:30.47Z</time></trkpt><trkpt lat="43.9576978" lon="12.4305813"><ele>355.0</ele><time>2026-04-29T12:49:31.469Z</time></trkpt><trkpt lat="43.9577478" lon="12.4304825"><ele>354.6666666666667</ele><time>2026-04-29T12:49:32.469Z</time></trkpt><trkpt lat="43.9577979" lon="12.430387"><ele>354.3333333333333</ele><time>2026-04-29T12:49:33.469Z</time></trkpt><trkpt lat="43.9578475" lon="12.4303142"><ele>354.0</ele><time>2026-04-29T12:49:34.469Z</time></trkpt><trkpt lat="43.9578968" lon="12.4302501"><ele>354.0</ele><time>2026-04-29T12:49:35.469Z</time></trkpt><trkpt lat="43.9579466" lon="12.4301952"><ele>354.0</ele><time>2026-04-29T12:49:36.47Z</time></trkpt><trkpt lat="43.9580009" lon="12.4301436"><ele>354.0</ele><time>2026-04-29T12:49:37.469Z</time></trkpt><trkpt lat="43.9580631" lon="12.4301012"><ele>354.0</ele><time>2026-04-29T12:49:38.469Z</time></trkpt><trkpt lat="43.9581323" lon="12.430063"><ele>354.0</ele><time>2026-04-29T12:49:39.47Z</time></trkpt><trkpt lat="43.958207" lon="12.4300327"><ele>354.0</ele><time>2026-04-29T12:49:40.47Z</time></trkpt><trkpt lat="43.9582869" lon="12.4300044"><ele>354.0</ele><time>2026-04-29T12:49:41.469Z</time></trkpt><trkpt lat="43.9583688" lon="12.4299944"><ele>354.1666666666667</ele><time>2026-04-29T12:49:42.469Z</time></trkpt><trkpt lat="43.9584526" lon="12.429997"><ele>354.3333333333333</ele><time>2026-04-29T12:49:43.469Z</time></trkpt><trkpt lat="43.9585357" lon="12.4300054"><ele>354.5</ele><time>2026-04-29T12:49:44.469Z</time></trkpt><trkpt lat="43.9586125" lon="12.4300172"><ele>354.66666666666663</ele><time>2026-04-29T12:49:45.469Z</time></trkpt><trkpt lat="43.9586866" lon="12.4300277"><ele>354.8333333333333</ele><time>2026-04-29T12:49:46.469Z</time></trkpt><trkpt lat="43.958813" lon="12.4300277"><ele>355.0</ele><time>2026-04-29T12:49:48.47Z</time></trkpt><trkpt lat="43.9589261" lon="12.429985"><ele>355.0</ele><time>2026-04-29T12:49:50.47Z</time></trkpt><trkpt lat="43.9590095" lon="12.4298956"><ele>355.0</ele><time>2026-04-29T12:49:52.469Z</time></trkpt><trkpt lat="43.9590638" lon="12.4297597"><ele>355.0</ele><time>2026-04-29T12:49:54.47Z</time></trkpt><trkpt lat="43.9590966" lon="12.4295919"><ele>355.0</ele><time>2026-04-29T12:49:56.469Z</time></trkpt><trkpt lat="43.959101" lon="12.4294989"><ele>355.0</ele><time>2026-04-29T12:49:57.47Z</time></trkpt><trkpt lat="43.9590922" lon="12.4293956"><ele>353.3333333333333</ele><time>2026-04-29T12:49:58.469Z</time></trkpt><trkpt lat="43.9590794" lon="12.4292896"><ele>351.66666666666663</ele><time>2026-04-29T12:49:59.469Z</time></trkpt><trkpt lat="43.9590512" lon="12.4291878"><ele>350.0</ele><time>2026-04-29T12:50:00.469Z</time></trkpt><trkpt lat="43.959023" lon="12.4290894"><ele>348.3333333333333</ele><time>2026-04-29T12:50:01.469Z</time></trkpt><trkpt lat="43.9589774" lon="12.4289998"><ele>346.6666666666667</ele><time>2026-04-29T12:50:02.469Z</time></trkpt><trkpt lat="43.9589284" lon="12.4289196"><ele>345.0</ele><time>2026-04-29T12:50:03.469Z</time></trkpt><trkpt lat="43.958876" lon="12.4288507"><ele>344.2</ele><time>2026-04-29T12:50:04.469Z</time></trkpt><trkpt lat="43.9588261" lon="12.4287876"><ele>343.4</ele><time>2026-04-29T12:50:05.469Z</time></trkpt><trkpt lat="43.9587504" lon="12.4286576"><ele>342.6</ele><time>2026-04-29T12:50:07.469Z</time></trkpt><trkpt lat="43.9587466" lon="12.4285155"><ele>341.8</ele><time>2026-04-29T12:50:09.469Z</time></trkpt><trkpt lat="43.9588113" lon="12.4283974"><ele>341.0</ele><time>2026-04-29T12:50:11.469Z</time></trkpt><trkpt lat="43.9588677" lon="12.4283494"><ele>341.0</ele><time>2026-04-29T12:50:12.469Z</time></trkpt><trkpt lat="43.9589336" lon="12.4283306"><ele>341.0</ele><time>2026-04-29T12:50:13.469Z</time></trkpt><trkpt lat="43.9590066" lon="12.4283347"><ele>341.0</ele><time>2026-04-29T12:50:14.469Z</time></trkpt><trkpt lat="43.9590789" lon="12.4283608"><ele>341.0</ele><time>2026-04-29T12:50:15.47Z</time></trkpt><trkpt lat="43.9591594" lon="12.4284361"><ele>341.0</ele><time>2026-04-29T12:50:16.469Z</time></trkpt><trkpt lat="43.9592291" lon="12.4285291"><ele>341.0</ele><time>2026-04-29T12:50:17.469Z</time></trkpt><trkpt lat="43.959282" lon="12.4286426"><ele>340.33333333333337</ele><time>2026-04-29T12:50:18.469Z</time></trkpt><trkpt lat="43.959326" lon="12.4287753"><ele>339.6666666666667</ele><time>2026-04-29T12:50:19.469Z</time></trkpt><trkpt lat="43.9593664" lon="12.4289023"><ele>339.0</ele><time>2026-04-29T12:50:20.469Z</time></trkpt><trkpt lat="43.9594033" lon="12.4290149"><ele>338.3333333333333</ele><time>2026-04-29T12:50:21.469Z</time></trkpt><trkpt lat="43.9594343" lon="12.4291197"><ele>337.66666666666663</ele><time>2026-04-29T12:50:22.47Z</time></trkpt><trkpt lat="43.9594614" lon="12.4292141"><ele>337.0</ele><time>2026-04-29T12:50:23.469Z</time></trkpt><trkpt lat="43.9595378" lon="12.4293356"><ele>337.0</ele><time>2026-04-29T12:50:25.469Z</time></trkpt><trkpt lat="43.9596598" lon="12.4293512"><ele>337.0</ele><time>2026-04-29T12:50:27.469Z</time></trkpt><trkpt lat="43.9597145" lon="12.429307"><ele>337.0</ele><time>2026-04-29T12:50:28.469Z</time></trkpt><trkpt lat="43.9597502" lon="12.4292319"><ele>337.0</ele><time>2026-04-29T12:50:29.469Z</time></trkpt><trkpt lat="43.9597771" lon="12.429131"><ele>337.0</ele><time>2026-04-29T12:50:30.469Z</time></trkpt><trkpt lat="43.9597745" lon="12.4290233"><ele>337.0</ele><time>2026-04-29T12:50:31.47Z</time></trkpt><trkpt lat="43.9597502" lon="12.4288806"><ele>334.75</ele><time>2026-04-29T12:50:32.469Z</time></trkpt><trkpt lat="43.9597079" lon="12.4287165"><ele>332.5</ele><time>2026-04-29T12:50:33.469Z</time></trkpt><trkpt lat="43.9596725" lon="12.4285518"><ele>330.25</ele><time>2026-04-29T12:50:34.469Z</time></trkpt><trkpt lat="43.9596371" lon="12.4283983"><ele>328.0</ele><time>2026-04-29T12:50:35.469Z</time></trkpt><trkpt lat="43.9595994" lon="12.4282464"><ele>328.0</ele><time>2026-04-29T12:50:36.469Z</time></trkpt><trkpt lat="43.9595621" lon="12.4281037"><ele>328.0</ele><time>2026-04-29T12:50:37.469Z</time></trkpt><trkpt lat="43.9595162" lon="12.4279724"><ele>328.0</ele><time>2026-04-29T12:50:38.469Z</time></trkpt><trkpt lat="43.9594678" lon="12.4278584"><ele>328.0</ele><time>2026-04-29T12:50:39.469Z</time></trkpt><trkpt lat="43.9594239" lon="12.4277476"><ele>328.0</ele><time>2026-04-29T12:50:40.469Z</time></trkpt><trkpt lat="43.9593762" lon="12.4276511"><ele>328.2</ele><time>2026-04-29T12:50:41.47Z</time></trkpt><trkpt lat="43.959325" lon="12.4275657"><ele>328.4</ele><time>2026-04-29T12:50:42.469Z</time></trkpt><trkpt lat="43.9592617" lon="12.4274842"><ele>328.59999999999997</ele><time>2026-04-29T12:50:43.469Z</time></trkpt><trkpt lat="43.9591834" lon="12.4274107"><ele>328.79999999999995</ele><time>2026-04-29T12:50:44.469Z</time></trkpt><trkpt lat="43.9590921" lon="12.4273521"><ele>329.0</ele><time>2026-04-29T12:50:45.469Z</time></trkpt><trkpt lat="43.958991" lon="12.4273187"><ele>329.0</ele><time>2026-04-29T12:50:46.469Z</time></trkpt><trkpt lat="43.9588854" lon="12.4273087"><ele>329.0</ele><time>2026-04-29T12:50:47.469Z</time></trkpt><trkpt lat="43.9587818" lon="12.4272996"><ele>329.0</ele><time>2026-04-29T12:50:48.469Z</time></trkpt><trkpt lat="43.9586808" lon="12.4273151"><ele>329.0</ele><time>2026-04-29T12:50:49.469Z</time></trkpt><trkpt lat="43.9585916" lon="12.4273413"><ele>329.0</ele><time>2026-04-29T12:50:50.469Z</time></trkpt><trkpt lat="43.9585041" lon="12.4273846"><ele>329.0</ele><time>2026-04-29T12:50:51.469Z</time></trkpt><trkpt lat="43.9584255" lon="12.4274405"><ele>329.0</ele><time>2026-04-29T12:50:52.469Z</time></trkpt><trkpt lat="43.9583565" lon="12.4274746"><ele>329.0</ele><time>2026-04-29T12:50:53.469Z</time></trkpt><trkpt lat="43.9582415" lon="12.4274576"><ele>329.0</ele><time>2026-04-29T12:50:55.47Z</time></trkpt><trkpt lat="43.9581805" lon="12.42732"><ele>329.0</ele><time>2026-04-29T12:50:57.469Z</time></trkpt><trkpt lat="43.9582281" lon="12.4271552"><ele>326.59999999999997</ele><time>2026-04-29T12:50:59.469Z</time></trkpt><trkpt lat="43.958297" lon="12.427108"><ele>324.2</ele><time>2026-04-29T12:51:00.469Z</time></trkpt><trkpt lat="43.9583707" lon="12.4270818"><ele>321.79999999999995</ele><time>2026-04-29T12:51:01.469Z</time></trkpt><trkpt lat="43.9584384" lon="12.4270469"><ele>319.4</ele><time>2026-04-29T12:51:02.47Z</time></trkpt><trkpt lat="43.9584886" lon="12.4269072"><ele>317.0</ele><time>2026-04-29T12:51:04.469Z</time></trkpt><trkpt lat="43.9584381" lon="12.4267642"><ele>317.0</ele><time>2026-04-29T12:51:06.47Z</time></trkpt><trkpt lat="43.9583078" lon="12.4267576"><ele>317.0</ele><time>2026-04-29T12:51:08.469Z</time></trkpt><trkpt lat="43.9582269" lon="12.4267895"><ele>317.0</ele><time>2026-04-29T12:51:09.47Z</time></trkpt><trkpt lat="43.9581373" lon="12.4268393"><ele>317.0</ele><time>2026-04-29T12:51:10.469Z</time></trkpt><trkpt lat="43.9580507" lon="12.4268938"><ele>317.0</ele><time>2026-04-29T12:51:11.469Z</time></trkpt><trkpt lat="43.9579746" lon="12.4269532"><ele>317.0</ele><time>2026-04-29T12:51:12.469Z</time></trkpt><trkpt lat="43.957902" lon="12.4269981"><ele>317.0</ele><time>2026-04-29T12:51:13.469Z</time></trkpt><trkpt lat="43.9578295" lon="12.4270357"><ele>317.0</ele><time>2026-04-29T12:51:14.469Z</time></trkpt><trkpt lat="43.9577592" lon="12.4270605"><ele>317.0</ele><time>2026-04-29T12:51:15.469Z</time></trkpt><trkpt lat="43.9576955" lon="12.4270786"><ele>317.0</ele><time>2026-04-29T12:51:16.47Z</time></trkpt><trkpt lat="43.9576305" lon="12.4270748"><ele>317.0</ele><time>2026-04-29T12:51:17.469Z</time></trkpt><trkpt lat="43.9575688" lon="12.427052"><ele>317.0</ele><time>2026-04-29T12:51:18.469Z</time></trkpt><trkpt lat="43.9575015" lon="12.4270105"><ele>315.83333333333337</ele><time>2026-04-29T12:51:19.47Z</time></trkpt><trkpt lat="43.9574325" lon="12.4269402"><ele>314.6666666666667</ele><time>2026-04-29T12:51:20.469Z</time></trkpt><trkpt lat="43.9573732" lon="12.4268336"><ele>313.5</ele><time>2026-04-29T12:51:21.469Z</time></trkpt><trkpt lat="43.9573182" lon="12.4267315"><ele>312.3333333333333</ele><time>2026-04-29T12:51:22.469Z</time></trkpt><trkpt lat="43.9572688" lon="12.4266328"><ele>311.16666666666663</ele><time>2026-04-29T12:51:23.468Z</time></trkpt><trkpt lat="43.9572226" lon="12.4265424"><ele>310.0</ele><time>2026-04-29T12:51:24.468Z</time></trkpt><trkpt lat="43.9571774" lon="12.4264634"><ele>310.0</ele><time>2026-04-29T12:51:25.468Z</time></trkpt><trkpt lat="43.9571376" lon="12.4263876"><ele>310.0</ele><time>2026-04-29T12:51:26.469Z</time></trkpt><trkpt lat="43.9570965" lon="12.4263082"><ele>310.0</ele><time>2026-04-29T12:51:27.468Z</time></trkpt><trkpt lat="43.9570611" lon="12.4262174"><ele>310.0</ele><time>2026-04-29T12:51:28.468Z</time></trkpt><trkpt lat="43.9570435" lon="12.4261112"><ele>310.0</ele><time>2026-04-29T12:51:29.468Z</time></trkpt><trkpt lat="43.9570439" lon="12.4259869"><ele>310.0</ele><time>2026-04-29T12:51:30.468Z</time></trkpt><trkpt lat="43.9570465" lon="12.4258581"><ele>308.6</ele><time>2026-04-29T12:51:31.468Z</time></trkpt><trkpt lat="43.9570606" lon="12.4257227"><ele>307.2</ele><time>2026-04-29T12:51:32.468Z</time></trkpt><trkpt lat="43.9570779" lon="12.4255817"><ele>305.8</ele><time>2026-04-29T12:51:33.468Z</time></trkpt><trkpt lat="43.9570958" lon="12.4254359"><ele>304.4</ele><time>2026-04-29T12:51:34.468Z</time></trkpt><trkpt lat="43.9571155" lon="12.4252795"><ele>303.0</ele><time>2026-04-29T12:51:35.469Z</time></trkpt><trkpt lat="43.9571331" lon="12.4251217"><ele>303.0</ele><time>2026-04-29T12:51:36.468Z</time></trkpt><trkpt lat="43.9571524" lon="12.4249681"><ele>303.0</ele><time>2026-04-29T12:51:37.468Z</time></trkpt><trkpt lat="43.957172" lon="12.4248146"><ele>303.0</ele><time>2026-04-29T12:51:38.468Z</time></trkpt><trkpt lat="43.9571966" lon="12.4246638"><ele>303.0</ele><time>2026-04-29T12:51:39.468Z</time></trkpt><trkpt lat="43.9572265" lon="12.4245136"><ele>303.0</ele><time>2026-04-29T12:51:40.469Z</time></trkpt><trkpt lat="43.9572644" lon="12.4243615"><ele>304.0</ele><time>2026-04-29T12:51:41.468Z</time></trkpt><trkpt lat="43.957301" lon="12.4242128"><ele>305.0</ele><time>2026-04-29T12:51:42.468Z</time></trkpt><trkpt lat="43.9573369" lon="12.4240606"><ele>306.0</ele><time>2026-04-29T12:51:43.468Z</time></trkpt><trkpt lat="43.9573705" lon="12.4239034"><ele>307.0</ele><time>2026-04-29T12:51:44.468Z</time></trkpt><trkpt lat="43.9574025" lon="12.4237524"><ele>307.2</ele><time>2026-04-29T12:51:45.468Z</time></trkpt><trkpt lat="43.9574333" lon="12.4236119"><ele>307.4</ele><time>2026-04-29T12:51:46.468Z</time></trkpt><trkpt lat="43.9574672" lon="12.423479"><ele>307.6</ele><time>2026-04-29T12:51:47.468Z</time></trkpt><trkpt lat="43.9574991" lon="12.423342"><ele>307.8</ele><time>2026-04-29T12:51:48.468Z</time></trkpt><trkpt lat="43.9575287" lon="12.4231893"><ele>308.0</ele><time>2026-04-29T12:51:49.468Z</time></trkpt><trkpt lat="43.9575536" lon="12.4230215"><ele>306.75</ele><time>2026-04-29T12:51:50.468Z</time></trkpt><trkpt lat="43.9575751" lon="12.4228469"><ele>305.5</ele><time>2026-04-29T12:51:51.469Z</time></trkpt><trkpt lat="43.9575904" lon="12.4226755"><ele>304.25</ele><time>2026-04-29T12:51:52.468Z</time></trkpt><trkpt lat="43.957605" lon="12.4225104"><ele>303.0</ele><time>2026-04-29T12:51:53.468Z</time></trkpt><trkpt lat="43.9576188" lon="12.4223589"><ele>303.0</ele><time>2026-04-29T12:51:54.468Z</time></trkpt><trkpt lat="43.9576362" lon="12.4222139"><ele>303.0</ele><time>2026-04-29T12:51:55.468Z</time></trkpt><trkpt lat="43.9576578" lon="12.4220708"><ele>303.0</ele><time>2026-04-29T12:51:56.468Z</time></trkpt><trkpt lat="43.9576778" lon="12.4219212"><ele>303.0</ele><time>2026-04-29T12:51:57.468Z</time></trkpt><trkpt lat="43.9576958" lon="12.4217648"><ele>303.0</ele><time>2026-04-29T12:51:58.468Z</time></trkpt><trkpt lat="43.9577168" lon="12.4216016"><ele>303.0</ele><time>2026-04-29T12:51:59.468Z</time></trkpt><trkpt lat="43.9577365" lon="12.4214395"><ele>303.0</ele><time>2026-04-29T12:52:00.468Z</time></trkpt><trkpt lat="43.9577502" lon="12.4212794"><ele>303.0</ele><time>2026-04-29T12:52:01.468Z</time></trkpt><trkpt lat="43.9577658" lon="12.4211183"><ele>303.0</ele><time>2026-04-29T12:52:02.468Z</time></trkpt><trkpt lat="43.9577733" lon="12.4209593"><ele>303.0</ele><time>2026-04-29T12:52:03.468Z</time></trkpt><trkpt lat="43.9577732" lon="12.4207964"><ele>303.0</ele><time>2026-04-29T12:52:04.468Z</time></trkpt><trkpt lat="43.9577664" lon="12.4206402"><ele>303.0</ele><time>2026-04-29T12:52:05.468Z</time></trkpt><trkpt lat="43.9577601" lon="12.4204954"><ele>303.0</ele><time>2026-04-29T12:52:06.468Z</time></trkpt><trkpt lat="43.9577558" lon="12.4203586"><ele>303.0</ele><time>2026-04-29T12:52:07.468Z</time></trkpt><trkpt lat="43.9577584" lon="12.4202316"><ele>302.5</ele><time>2026-04-29T12:52:08.469Z</time></trkpt><trkpt lat="43.9577733" lon="12.4201058"><ele>302.0</ele><time>2026-04-29T12:52:09.468Z</time></trkpt><trkpt lat="43.9577959" lon="12.4199836"><ele>301.5</ele><time>2026-04-29T12:52:10.468Z</time></trkpt><trkpt lat="43.9578241" lon="12.4198662"><ele>301.0</ele><time>2026-04-29T12:52:11.468Z</time></trkpt><trkpt lat="43.9578598" lon="12.4197589"><ele>300.5</ele><time>2026-04-29T12:52:12.468Z</time></trkpt><trkpt lat="43.9579045" lon="12.4196596"><ele>300.0</ele><time>2026-04-29T12:52:13.468Z</time></trkpt><trkpt lat="43.9579424" lon="12.4195659"><ele>300.0</ele><time>2026-04-29T12:52:14.468Z</time></trkpt><trkpt lat="43.9579763" lon="12.4194632"><ele>300.0</ele><time>2026-04-29T12:52:15.468Z</time></trkpt><trkpt lat="43.9580097" lon="12.4193525"><ele>300.0</ele><time>2026-04-29T12:52:16.468Z</time></trkpt><trkpt lat="43.9580415" lon="12.4192381"><ele>300.0</ele><time>2026-04-29T12:52:17.469Z</time></trkpt><trkpt lat="43.9580719" lon="12.4191462"><ele>300.0</ele><time>2026-04-29T12:52:18.468Z</time></trkpt><trkpt lat="43.9580983" lon="12.4190546"><ele>300.0</ele><time>2026-04-29T12:52:19.468Z</time></trkpt><trkpt lat="43.9581436" lon="12.4189077"><ele>300.2</ele><time>2026-04-29T12:52:21.468Z</time></trkpt><trkpt lat="43.9581972" lon="12.4187758"><ele>300.4</ele><time>2026-04-29T12:52:23.468Z</time></trkpt><trkpt lat="43.9582695" lon="12.4186738"><ele>300.6</ele><time>2026-04-29T12:52:25.468Z</time></trkpt><trkpt lat="43.9583823" lon="12.4186303"><ele>300.8</ele><time>2026-04-29T12:52:27.468Z</time></trkpt><trkpt lat="43.9584502" lon="12.4186183"><ele>301.0</ele><time>2026-04-29T12:52:28.468Z</time></trkpt><trkpt lat="43.9585161" lon="12.418606"><ele>299.85714285714283</ele><time>2026-04-29T12:52:29.468Z</time></trkpt><trkpt lat="43.9585799" lon="12.418593"><ele>298.7142857142857</ele><time>2026-04-29T12:52:30.468Z</time></trkpt><trkpt lat="43.958644" lon="12.4185837"><ele>297.57142857142856</ele><time>2026-04-29T12:52:31.468Z</time></trkpt><trkpt lat="43.9587088" lon="12.4185609"><ele>296.42857142857144</ele><time>2026-04-29T12:52:32.468Z</time></trkpt><trkpt lat="43.9587727" lon="12.4185259"><ele>295.2857142857143</ele><time>2026-04-29T12:52:33.468Z</time></trkpt><trkpt lat="43.9588416" lon="12.4184986"><ele>294.1428571428571</ele><time>2026-04-29T12:52:34.468Z</time></trkpt><trkpt lat="43.9589132" lon="12.4184862"><ele>293.0</ele><time>2026-04-29T12:52:35.468Z</time></trkpt><trkpt lat="43.9589768" lon="12.4184716"><ele>292.99999999999994</ele><time>2026-04-29T12:52:36.468Z</time></trkpt><trkpt lat="43.959049" lon="12.4184483"><ele>293.0</ele><time>2026-04-29T12:52:37.468Z</time></trkpt><trkpt lat="43.9591209" lon="12.4184167"><ele>293.0</ele><time>2026-04-29T12:52:38.468Z</time></trkpt><trkpt lat="43.9591881" lon="12.4183695"><ele>293.0</ele><time>2026-04-29T12:52:39.468Z</time></trkpt><trkpt lat="43.9592457" lon="12.4183091"><ele>293.0</ele><time>2026-04-29T12:52:40.468Z</time></trkpt><trkpt lat="43.9593024" lon="12.4182381"><ele>292.99999999999994</ele><time>2026-04-29T12:52:41.468Z</time></trkpt><trkpt lat="43.9593598" lon="12.4181693"><ele>293.0</ele><time>2026-04-29T12:52:42.468Z</time></trkpt><trkpt lat="43.9594139" lon="12.4180885"><ele>290.83333333333337</ele><time>2026-04-29T12:52:43.468Z</time></trkpt><trkpt lat="43.9594482" lon="12.4179936"><ele>288.6666666666667</ele><time>2026-04-29T12:52:44.468Z</time></trkpt><trkpt lat="43.9594816" lon="12.417891"><ele>286.5</ele><time>2026-04-29T12:52:45.468Z</time></trkpt><trkpt lat="43.9595141" lon="12.4177858"><ele>284.3333333333333</ele><time>2026-04-29T12:52:46.468Z</time></trkpt><trkpt lat="43.9595421" lon="12.4176879"><ele>282.16666666666663</ele><time>2026-04-29T12:52:47.468Z</time></trkpt><trkpt lat="43.9595741" lon="12.4175968"><ele>280.0</ele><time>2026-04-29T12:52:48.468Z</time></trkpt><trkpt lat="43.9596016" lon="12.4175092"><ele>280.0</ele><time>2026-04-29T12:52:49.468Z</time></trkpt><trkpt lat="43.9596386" lon="12.41743"><ele>280.0</ele><time>2026-04-29T12:52:50.468Z</time></trkpt><trkpt lat="43.9596886" lon="12.4173662"><ele>280.0</ele><time>2026-04-29T12:52:51.468Z</time></trkpt><trkpt lat="43.9597431" lon="12.4172992"><ele>280.0</ele><time>2026-04-29T12:52:52.469Z</time></trkpt><trkpt lat="43.9598047" lon="12.4172379"><ele>280.0</ele><time>2026-04-29T12:52:53.468Z</time></trkpt><trkpt lat="43.9598678" lon="12.4171643"><ele>280.0</ele><time>2026-04-29T12:52:54.468Z</time></trkpt><trkpt lat="43.9599303" lon="12.4170904"><ele>280.0</ele><time>2026-04-29T12:52:55.468Z</time></trkpt><trkpt lat="43.9599833" lon="12.4170072"><ele>279.3333333333333</ele><time>2026-04-29T12:52:56.468Z</time></trkpt><trkpt lat="43.9600307" lon="12.4169217"><ele>278.66666666666663</ele><time>2026-04-29T12:52:57.468Z</time></trkpt><trkpt lat="43.9600685" lon="12.4168441"><ele>278.0</ele><time>2026-04-29T12:52:58.468Z</time></trkpt><trkpt lat="43.9601046" lon="12.4167712"><ele>277.3333333333333</ele><time>2026-04-29T12:52:59.468Z</time></trkpt><trkpt lat="43.9601648" lon="12.4166471"><ele>276.6666666666667</ele><time>2026-04-29T12:53:01.468Z</time></trkpt><trkpt lat="43.9601862" lon="12.4165122"><ele>276.0</ele><time>2026-04-29T12:53:03.468Z</time></trkpt><trkpt lat="43.960177" lon="12.4163314"><ele>274.7142857142857</ele><time>2026-04-29T12:53:05.468Z</time></trkpt><trkpt lat="43.9601504" lon="12.4162308"><ele>273.42857142857144</ele><time>2026-04-29T12:53:06.468Z</time></trkpt><trkpt lat="43.9601206" lon="12.4161333"><ele>272.14285714285717</ele><time>2026-04-29T12:53:07.468Z</time></trkpt><trkpt lat="43.9600918" lon="12.4160387"><ele>270.8571428571429</ele><time>2026-04-29T12:53:08.468Z</time></trkpt><trkpt lat="43.9600706" lon="12.4159467"><ele>269.57142857142856</ele><time>2026-04-29T12:53:09.468Z</time></trkpt><trkpt lat="43.9600496" lon="12.4158515"><ele>268.28571428571433</ele><time>2026-04-29T12:53:10.468Z</time></trkpt><trkpt lat="43.9600359" lon="12.4157599"><ele>267.0</ele><time>2026-04-29T12:53:11.468Z</time></trkpt><trkpt lat="43.9600013" lon="12.4155941"><ele>264.5</ele><time>2026-04-29T12:53:13.469Z</time></trkpt><trkpt lat="43.9599673" lon="12.4154419"><ele>262.0</ele><time>2026-04-29T12:53:15.468Z</time></trkpt><trkpt lat="43.9599456" lon="12.4152927"><ele>259.5</ele><time>2026-04-29T12:53:17.468Z</time></trkpt><trkpt lat="43.9599359" lon="12.4151329"><ele>257.0</ele><time>2026-04-29T12:53:19.468Z</time></trkpt><trkpt lat="43.9599552" lon="12.41496"><ele>257.0</ele><time>2026-04-29T12:53:21.468Z</time></trkpt><trkpt lat="43.9599838" lon="12.4148664"><ele>257.0</ele><time>2026-04-29T12:53:22.468Z</time></trkpt><trkpt lat="43.9600227" lon="12.4147815"><ele>257.0</ele><time>2026-04-29T12:53:23.469Z</time></trkpt><trkpt lat="43.9600731" lon="12.4147043"><ele>257.0</ele><time>2026-04-29T12:53:24.468Z</time></trkpt><trkpt lat="43.9601187" lon="12.4146332"><ele>257.0</ele><time>2026-04-29T12:53:25.468Z</time></trkpt><trkpt lat="43.9601664" lon="12.4145586"><ele>257.0</ele><time>2026-04-29T12:53:26.468Z</time></trkpt><trkpt lat="43.9602134" lon="12.4144818"><ele>257.0</ele><time>2026-04-29T12:53:27.468Z</time></trkpt><trkpt lat="43.9602613" lon="12.4144135"><ele>252.8</ele><time>2026-04-29T12:53:28.469Z</time></trkpt><trkpt lat="43.9603014" lon="12.4143333"><ele>248.6</ele><time>2026-04-29T12:53:29.468Z</time></trkpt><trkpt lat="43.9603451" lon="12.4141805"><ele>244.40000000000003</ele><time>2026-04-29T12:53:31.468Z</time></trkpt><trkpt lat="43.9603545" lon="12.4140182"><ele>240.20000000000002</ele><time>2026-04-29T12:53:33.468Z</time></trkpt><trkpt lat="43.9603506" lon="12.4139278"><ele>236.0</ele><time>2026-04-29T12:53:34.468Z</time></trkpt><trkpt lat="43.9603692" lon="12.4137784"><ele>234.8</ele><time>2026-04-29T12:53:36.468Z</time></trkpt><trkpt lat="43.9604099" lon="12.4136745"><ele>233.60000000000002</ele><time>2026-04-29T12:53:37.469Z</time></trkpt><trkpt lat="43.9604593" lon="12.4135611"><ele>232.4</ele><time>2026-04-29T12:53:38.468Z</time></trkpt><trkpt lat="43.9605024" lon="12.4134269"><ele>231.2</ele><time>2026-04-29T12:53:39.468Z</time></trkpt><trkpt lat="43.96054" lon="12.4132801"><ele>230.0</ele><time>2026-04-29T12:53:40.469Z</time></trkpt><trkpt lat="43.9605722" lon="12.4131448"><ele>230.00000000000003</ele><time>2026-04-29T12:53:41.468Z</time></trkpt><trkpt lat="43.9606023" lon="12.4130155"><ele>230.0</ele><time>2026-04-29T12:53:42.468Z</time></trkpt><trkpt lat="43.9606396" lon="12.4128967"><ele>230.0</ele><time>2026-04-29T12:53:43.468Z</time></trkpt><trkpt lat="43.9606787" lon="12.4127907"><ele>230.0</ele><time>2026-04-29T12:53:44.468Z</time></trkpt><trkpt lat="43.9607081" lon="12.41269"><ele>230.00000000000003</ele><time>2026-04-29T12:53:45.468Z</time></trkpt><trkpt lat="43.9607247" lon="12.412578"><ele>230.0</ele><time>2026-04-29T12:53:46.468Z</time></trkpt><trkpt lat="43.9607335" lon="12.4124609"><ele>229.57142857142856</ele><time>2026-04-29T12:53:47.468Z</time></trkpt><trkpt lat="43.9607374" lon="12.4123427"><ele>229.14285714285714</ele><time>2026-04-29T12:53:48.468Z</time></trkpt><trkpt lat="43.9607389" lon="12.4122375"><ele>228.71428571428572</ele><time>2026-04-29T12:53:49.468Z</time></trkpt><trkpt lat="43.9607375" lon="12.4121488"><ele>228.28571428571428</ele><time>2026-04-29T12:53:50.468Z</time></trkpt><trkpt lat="43.9607398" lon="12.4120532"><ele>227.8571428571429</ele><time>2026-04-29T12:53:51.468Z</time></trkpt><trkpt lat="43.9607425" lon="12.4119485"><ele>227.42857142857144</ele><time>2026-04-29T12:53:52.468Z</time></trkpt><trkpt lat="43.9607516" lon="12.4118423"><ele>227.0</ele><time>2026-04-29T12:53:53.468Z</time></trkpt><trkpt lat="43.9607753" lon="12.4117346"><ele>226.66666666666669</ele><time>2026-04-29T12:53:54.468Z</time></trkpt><trkpt lat="43.9608066" lon="12.4116282"><ele>226.33333333333334</ele><time>2026-04-29T12:53:55.468Z</time></trkpt><trkpt lat="43.9608409" lon="12.4115191"><ele>226.0</ele><time>2026-04-29T12:53:56.468Z</time></trkpt><trkpt lat="43.9608797" lon="12.4114242"><ele>225.66666666666669</ele><time>2026-04-29T12:53:57.468Z</time></trkpt><trkpt lat="43.9609191" lon="12.4113422"><ele>225.33333333333334</ele><time>2026-04-29T12:53:58.468Z</time></trkpt><trkpt lat="43.9609701" lon="12.4111957"><ele>225.0</ele><time>2026-04-29T12:54:00.468Z</time></trkpt><trkpt lat="43.9609743" lon="12.4111071"><ele>221.83333333333334</ele><time>2026-04-29T12:54:01.469Z</time></trkpt><trkpt lat="43.9609644" lon="12.4110134"><ele>218.66666666666669</ele><time>2026-04-29T12:54:02.468Z</time></trkpt><trkpt lat="43.9609582" lon="12.4109109"><ele>215.5</ele><time>2026-04-29T12:54:03.468Z</time></trkpt><trkpt lat="43.9609479" lon="12.4108165"><ele>212.33333333333334</ele><time>2026-04-29T12:54:04.468Z</time></trkpt><trkpt lat="43.9609407" lon="12.4106583"><ele>209.16666666666669</ele><time>2026-04-29T12:54:06.468Z</time></trkpt><trkpt lat="43.9609485" lon="12.410498"><ele>206.0</ele><time>2026-04-29T12:54:08.468Z</time></trkpt><trkpt lat="43.960958" lon="12.410405"><ele>205.57142857142856</ele><time>2026-04-29T12:54:09.468Z</time></trkpt><trkpt lat="43.9609666" lon="12.4103069"><ele>205.14285714285714</ele><time>2026-04-29T12:54:10.468Z</time></trkpt><trkpt lat="43.9609787" lon="12.4102094"><ele>204.71428571428572</ele><time>2026-04-29T12:54:11.469Z</time></trkpt><trkpt lat="43.9609968" lon="12.4101128"><ele>204.28571428571428</ele><time>2026-04-29T12:54:12.468Z</time></trkpt><trkpt lat="43.9610144" lon="12.4100235"><ele>203.85714285714286</ele><time>2026-04-29T12:54:13.468Z</time></trkpt><trkpt lat="43.9610309" lon="12.4099314"><ele>203.42857142857142</ele><time>2026-04-29T12:54:14.468Z</time></trkpt><trkpt lat="43.9610408" lon="12.4098414"><ele>203.0</ele><time>2026-04-29T12:54:15.468Z</time></trkpt><trkpt lat="43.9610365" lon="12.4097521"><ele>202.57142857142858</ele><time>2026-04-29T12:54:16.468Z</time></trkpt><trkpt lat="43.9610362" lon="12.4096573"><ele>202.14285714285714</ele><time>2026-04-29T12:54:17.468Z</time></trkpt><trkpt lat="43.9610326" lon="12.4095596"><ele>201.71428571428572</ele><time>2026-04-29T12:54:18.469Z</time></trkpt><trkpt lat="43.9610248" lon="12.4094556"><ele>201.28571428571428</ele><time>2026-04-29T12:54:19.468Z</time></trkpt><trkpt lat="43.9610087" lon="12.4093506"><ele>200.85714285714286</ele><time>2026-04-29T12:54:20.468Z</time></trkpt><trkpt lat="43.960989" lon="12.4092493"><ele>200.42857142857144</ele><time>2026-04-29T12:54:21.468Z</time></trkpt><trkpt lat="43.9609744" lon="12.4091502"><ele>200.0</ele><time>2026-04-29T12:54:22.469Z</time></trkpt><trkpt lat="43.9609644" lon="12.4090561"><ele>200.0</ele><time>2026-04-29T12:54:23.468Z</time></trkpt><trkpt lat="43.9609516" lon="12.4088948"><ele>200.0</ele><time>2026-04-29T12:54:25.468Z</time></trkpt><trkpt lat="43.9609353" lon="12.4087446"><ele>200.0</ele><time>2026-04-29T12:54:27.468Z</time></trkpt><trkpt lat="43.9609069" lon="12.4086225"><ele>200.0</ele><time>2026-04-29T12:54:29.468Z</time></trkpt><trkpt lat="43.9608544" lon="12.4085152"><ele>200.0</ele><time>2026-04-29T12:54:31.468Z</time></trkpt><trkpt lat="43.9607939" lon="12.4084022"><ele>198.25</ele><time>2026-04-29T12:54:33.468Z</time></trkpt><trkpt lat="43.9607452" lon="12.4082611"><ele>196.5</ele><time>2026-04-29T12:54:35.468Z</time></trkpt><trkpt lat="43.9607053" lon="12.4081069"><ele>194.75</ele><time>2026-04-29T12:54:37.469Z</time></trkpt><trkpt lat="43.9606661" lon="12.4079623"><ele>193.0</ele><time>2026-04-29T12:54:39.468Z</time></trkpt><trkpt lat="43.9606625" lon="12.4078117"><ele>191.0</ele><time>2026-04-29T12:54:41.468Z</time></trkpt><trkpt lat="43.9606736" lon="12.4076409"><ele>189.0</ele><time>2026-04-29T12:54:43.468Z</time></trkpt><trkpt lat="43.9606704" lon="12.4074817"><ele>187.0</ele><time>2026-04-29T12:54:45.468Z</time></trkpt><trkpt lat="43.9606384" lon="12.4073086"><ele>185.0</ele><time>2026-04-29T12:54:47.468Z</time></trkpt><trkpt lat="43.960627" lon="12.4072126"><ele>183.0</ele><time>2026-04-29T12:54:48.468Z</time></trkpt><trkpt lat="43.9606163" lon="12.4071227"><ele>181.2</ele><time>2026-04-29T12:54:49.468Z</time></trkpt><trkpt lat="43.960606" lon="12.4069501"><ele>179.4</ele><time>2026-04-29T12:54:51.468Z</time></trkpt><trkpt lat="43.9606095" lon="12.4068588"><ele>177.6</ele><time>2026-04-29T12:54:52.468Z</time></trkpt><trkpt lat="43.9606446" lon="12.4067052"><ele>175.79999999999998</ele><time>2026-04-29T12:54:54.468Z</time></trkpt><trkpt lat="43.9606982" lon="12.4065692"><ele>174.0</ele><time>2026-04-29T12:54:56.468Z</time></trkpt><trkpt lat="43.9607603" lon="12.4064502"><ele>172.6</ele><time>2026-04-29T12:54:58.468Z</time></trkpt><trkpt lat="43.9608057" lon="12.4063156"><ele>171.2</ele><time>2026-04-29T12:55:00.468Z</time></trkpt><trkpt lat="43.9608347" lon="12.4061663"><ele>169.79999999999998</ele><time>2026-04-29T12:55:02.468Z</time></trkpt><trkpt lat="43.9608369" lon="12.4060353"><ele>168.39999999999998</ele><time>2026-04-29T12:55:04.468Z</time></trkpt><trkpt lat="43.9608331" lon="12.4059012"><ele>167.0</ele><time>2026-04-29T12:55:06.468Z</time></trkpt><trkpt lat="43.9608399" lon="12.4057626"><ele>167.0</ele><time>2026-04-29T12:55:08.468Z</time></trkpt><trkpt lat="43.9608479" lon="12.4055998"><ele>167.0</ele><time>2026-04-29T12:55:10.468Z</time></trkpt><trkpt lat="43.9608484" lon="12.4054944"><ele>167.0</ele><time>2026-04-29T12:55:11.468Z</time></trkpt><trkpt lat="43.9608518" lon="12.4053806"><ele>167.0</ele><time>2026-04-29T12:55:12.468Z</time></trkpt><trkpt lat="43.9608539" lon="12.4052745"><ele>167.0</ele><time>2026-04-29T12:55:13.469Z</time></trkpt><trkpt lat="43.9608613" lon="12.4051763"><ele>167.0</ele><time>2026-04-29T12:55:14.468Z</time></trkpt><trkpt lat="43.9608692" lon="12.4050875"><ele>164.79999999999998</ele><time>2026-04-29T12:55:15.468Z</time></trkpt><trkpt lat="43.9608805" lon="12.4050004"><ele>162.6</ele><time>2026-04-29T12:55:16.468Z</time></trkpt><trkpt lat="43.9608893" lon="12.4048465"><ele>160.39999999999998</ele><time>2026-04-29T12:55:18.468Z</time></trkpt><trkpt lat="43.960902" lon="12.4046803"><ele>158.2</ele><time>2026-04-29T12:55:20.468Z</time></trkpt><trkpt lat="43.9609005" lon="12.4045287"><ele>156.0</ele><time>2026-04-29T12:55:22.468Z</time></trkpt><trkpt lat="43.9608944" lon="12.4043717"><ele>155.0</ele><time>2026-04-29T12:55:24.468Z</time></trkpt><trkpt lat="43.9608787" lon="12.4042123"><ele>154.0</ele><time>2026-04-29T12:55:26.469Z</time></trkpt><trkpt lat="43.9608772" lon="12.4040366"><ele>153.0</ele><time>2026-04-29T12:55:28.468Z</time></trkpt><trkpt lat="43.9608835" lon="12.4039402"><ele>152.0</ele><time>2026-04-29T12:55:29.468Z</time></trkpt><trkpt lat="43.9608902" lon="12.4038532"><ele>151.0</ele><time>2026-04-29T12:55:30.468Z</time></trkpt><trkpt lat="43.9609022" lon="12.4036792"><ele>149.66666666666669</ele><time>2026-04-29T12:55:32.468Z</time></trkpt><trkpt lat="43.960909" lon="12.4035772"><ele>148.33333333333334</ele><time>2026-04-29T12:55:33.468Z</time></trkpt><trkpt lat="43.9609154" lon="12.4034819"><ele>147.0</ele><time>2026-04-29T12:55:34.468Z</time></trkpt><trkpt lat="43.9609467" lon="12.4033127"><ele>145.66666666666666</ele><time>2026-04-29T12:55:36.468Z</time></trkpt><trkpt lat="43.9609569" lon="12.4032217"><ele>144.33333333333331</ele><time>2026-04-29T12:55:37.469Z</time></trkpt><trkpt lat="43.9609554" lon="12.403119"><ele>143.0</ele><time>2026-04-29T12:55:38.468Z</time></trkpt><trkpt lat="43.9609479" lon="12.4030128"><ele>142.16666666666666</ele><time>2026-04-29T12:55:39.468Z</time></trkpt><trkpt lat="43.9609364" lon="12.4029007"><ele>141.33333333333331</ele><time>2026-04-29T12:55:40.468Z</time></trkpt><trkpt lat="43.9609349" lon="12.402797"><ele>140.5</ele><time>2026-04-29T12:55:41.468Z</time></trkpt><trkpt lat="43.9609395" lon="12.4027025"><ele>139.66666666666666</ele><time>2026-04-29T12:55:42.468Z</time></trkpt><trkpt lat="43.9609466" lon="12.4026118"><ele>138.83333333333334</ele><time>2026-04-29T12:55:43.468Z</time></trkpt><trkpt lat="43.9609596" lon="12.402525"><ele>138.0</ele><time>2026-04-29T12:55:44.468Z</time></trkpt><trkpt lat="43.9609818" lon="12.4023541"><ele>138.0</ele><time>2026-04-29T12:55:46.468Z</time></trkpt><trkpt lat="43.9609858" lon="12.4021987"><ele>138.0</ele><time>2026-04-29T12:55:48.468Z</time></trkpt><trkpt lat="43.9609761" lon="12.4020628"><ele>138.0</ele><time>2026-04-29T12:55:50.468Z</time></trkpt><trkpt lat="43.9610201" lon="12.4019844"><ele>138.0</ele><time>2026-04-29T12:55:52.468Z</time></trkpt><trkpt lat="43.9611384" lon="12.4019001"><ele>138.0</ele><time>2026-04-29T12:55:54.468Z</time></trkpt><trkpt lat="43.9612204" lon="12.4018841"><ele>136.6</ele><time>2026-04-29T12:55:55.469Z</time></trkpt><trkpt lat="43.961306" lon="12.4018859"><ele>135.20000000000002</ele><time>2026-04-29T12:55:56.468Z</time></trkpt><trkpt lat="43.9614143" lon="12.4019061"><ele>133.8</ele><time>2026-04-29T12:55:57.468Z</time></trkpt><trkpt lat="43.9615255" lon="12.4019384"><ele>132.4</ele><time>2026-04-29T12:55:58.468Z</time></trkpt><trkpt lat="43.9616387" lon="12.4019846"><ele>131.0</ele><time>2026-04-29T12:55:59.468Z</time></trkpt><trkpt lat="43.9617581" lon="12.4020484"><ele>130.5</ele><time>2026-04-29T12:56:00.468Z</time></trkpt><trkpt lat="43.9618829" lon="12.4021191"><ele>130.0</ele><time>2026-04-29T12:56:01.468Z</time></trkpt><trkpt lat="43.9619964" lon="12.4021935"><ele>129.5</ele><time>2026-04-29T12:56:02.468Z</time></trkpt><trkpt lat="43.9620942" lon="12.4022564"><ele>129.0</ele><time>2026-04-29T12:56:03.468Z</time></trkpt><trkpt lat="43.962186" lon="12.4023211"><ele>129.0</ele><time>2026-04-29T12:56:04.468Z</time></trkpt><trkpt lat="43.9622767" lon="12.4023793"><ele>129.0</ele><time>2026-04-29T12:56:05.468Z</time></trkpt><trkpt lat="43.9623682" lon="12.402433"><ele>129.0</ele><time>2026-04-29T12:56:06.468Z</time></trkpt><trkpt lat="43.9624545" lon="12.402491"><ele>129.0</ele><time>2026-04-29T12:56:07.468Z</time></trkpt><trkpt lat="43.9625476" lon="12.4025491"><ele>129.0</ele><time>2026-04-29T12:56:08.469Z</time></trkpt><trkpt lat="43.9626451" lon="12.4026063"><ele>129.0</ele><time>2026-04-29T12:56:09.468Z</time></trkpt><trkpt lat="43.9627449" lon="12.4026638"><ele>129.0</ele><time>2026-04-29T12:56:10.468Z</time></trkpt><trkpt lat="43.9628434" lon="12.4027218"><ele>129.0</ele><time>2026-04-29T12:56:11.468Z</time></trkpt><trkpt lat="43.9629437" lon="12.4027814"><ele>129.0</ele><time>2026-04-29T12:56:12.468Z</time></trkpt><trkpt lat="43.9630465" lon="12.4028444"><ele>129.0</ele><time>2026-04-29T12:56:13.468Z</time></trkpt><trkpt lat="43.9631419" lon="12.4029249"><ele>129.0</ele><time>2026-04-29T12:56:14.468Z</time></trkpt><trkpt lat="43.963239" lon="12.4030186"><ele>129.0</ele><time>2026-04-29T12:56:15.468Z</time></trkpt><trkpt lat="43.9633284" lon="12.4031281"><ele>129.0</ele><time>2026-04-29T12:56:16.468Z</time></trkpt><trkpt lat="43.9634071" lon="12.4032641"><ele>129.0</ele><time>2026-04-29T12:56:17.468Z</time></trkpt><trkpt lat="43.9634879" lon="12.403406"><ele>129.0</ele><time>2026-04-29T12:56:18.468Z</time></trkpt><trkpt lat="43.9635765" lon="12.4035541"><ele>129.0</ele><time>2026-04-29T12:56:19.468Z</time></trkpt><trkpt lat="43.9636604" lon="12.4037013"><ele>129.0</ele><time>2026-04-29T12:56:20.468Z</time></trkpt><trkpt lat="43.9637458" lon="12.4038471"><ele>129.0</ele><time>2026-04-29T12:56:21.468Z</time></trkpt><trkpt lat="43.963833" lon="12.4040029"><ele>129.75</ele><time>2026-04-29T12:56:22.468Z</time></trkpt><trkpt lat="43.9639201" lon="12.4041545"><ele>130.5</ele><time>2026-04-29T12:56:23.468Z</time></trkpt><trkpt lat="43.9640042" lon="12.4043058"><ele>131.25</ele><time>2026-04-29T12:56:24.469Z</time></trkpt><trkpt lat="43.9640849" lon="12.4044454"><ele>132.0</ele><time>2026-04-29T12:56:25.468Z</time></trkpt><trkpt lat="43.9641599" lon="12.4045818"><ele>130.25</ele><time>2026-04-29T12:56:26.468Z</time></trkpt><trkpt lat="43.964232" lon="12.404715"><ele>128.5</ele><time>2026-04-29T12:56:27.468Z</time></trkpt><trkpt lat="43.964303" lon="12.4048526"><ele>126.75</ele><time>2026-04-29T12:56:28.468Z</time></trkpt><trkpt lat="43.9643828" lon="12.4049943"><ele>125.0</ele><time>2026-04-29T12:56:29.468Z</time></trkpt><trkpt lat="43.9644675" lon="12.4051355"><ele>125.0</ele><time>2026-04-29T12:56:30.468Z</time></trkpt><trkpt lat="43.9645483" lon="12.4052783"><ele>125.0</ele><time>2026-04-29T12:56:31.468Z</time></trkpt><trkpt lat="43.9646321" lon="12.4054095"><ele>125.0</ele><time>2026-04-29T12:56:32.468Z</time></trkpt><trkpt lat="43.9647102" lon="12.4055391"><ele>125.0</ele><time>2026-04-29T12:56:33.468Z</time></trkpt><trkpt lat="43.9647917" lon="12.4056662"><ele>124.75</ele><time>2026-04-29T12:56:34.468Z</time></trkpt><trkpt lat="43.9648813" lon="12.4057757"><ele>124.5</ele><time>2026-04-29T12:56:35.468Z</time></trkpt><trkpt lat="43.9649743" lon="12.405881"><ele>124.25</ele><time>2026-04-29T12:56:36.468Z</time></trkpt><trkpt lat="43.9650727" lon="12.4059863"><ele>124.0</ele><time>2026-04-29T12:56:37.468Z</time></trkpt><trkpt lat="43.9651753" lon="12.4060923"><ele>124.0</ele><time>2026-04-29T12:56:38.468Z</time></trkpt><trkpt lat="43.9652773" lon="12.4062071"><ele>124.0</ele><time>2026-04-29T12:56:39.468Z</time></trkpt><trkpt lat="43.9653787" lon="12.4063246"><ele>124.0</ele><time>2026-04-29T12:56:40.468Z</time></trkpt><trkpt lat="43.9654811" lon="12.4064531"><ele>124.0</ele><time>2026-04-29T12:56:41.468Z</time></trkpt><trkpt lat="43.9655874" lon="12.4065745"><ele>125.25</ele><time>2026-04-29T12:56:42.469Z</time></trkpt><trkpt lat="43.9656905" lon="12.4066954"><ele>126.5</ele><time>2026-04-29T12:56:43.468Z</time></trkpt><trkpt lat="43.9657943" lon="12.4068155"><ele>127.75</ele><time>2026-04-29T12:56:44.468Z</time></trkpt><trkpt lat="43.9658905" lon="12.4069309"><ele>129.0</ele><time>2026-04-29T12:56:45.468Z</time></trkpt><trkpt lat="43.9659775" lon="12.4070417"><ele>127.5</ele><time>2026-04-29T12:56:46.468Z</time></trkpt><trkpt lat="43.9660637" lon="12.4071595"><ele>126.0</ele><time>2026-04-29T12:56:47.468Z</time></trkpt><trkpt lat="43.96614" lon="12.4073019"><ele>124.5</ele><time>2026-04-29T12:56:48.468Z</time></trkpt><trkpt lat="43.9662002" lon="12.4074682"><ele>123.0</ele><time>2026-04-29T12:56:49.468Z</time></trkpt><trkpt lat="43.9662353" lon="12.4076448"><ele>123.0</ele><time>2026-04-29T12:56:50.468Z</time></trkpt><trkpt lat="43.9662543" lon="12.4078324"><ele>123.0</ele><time>2026-04-29T12:56:51.468Z</time></trkpt><trkpt lat="43.9662684" lon="12.4080313"><ele>123.0</ele><time>2026-04-29T12:56:52.468Z</time></trkpt><trkpt lat="43.9662783" lon="12.4082456"><ele>123.0</ele><time>2026-04-29T12:56:53.468Z</time></trkpt><trkpt lat="43.9662835" lon="12.4084611"><ele>123.33333333333334</ele><time>2026-04-29T12:56:54.469Z</time></trkpt><trkpt lat="43.9662916" lon="12.408684"><ele>123.66666666666667</ele><time>2026-04-29T12:56:55.468Z</time></trkpt><trkpt lat="43.9663039" lon="12.4089121"><ele>124.0</ele><time>2026-04-29T12:56:56.468Z</time></trkpt><trkpt lat="43.9663135" lon="12.4091379"><ele>123.66666666666667</ele><time>2026-04-29T12:56:57.468Z</time></trkpt><trkpt lat="43.9663282" lon="12.4093624"><ele>123.33333333333334</ele><time>2026-04-29T12:56:58.468Z</time></trkpt><trkpt lat="43.9663407" lon="12.4095794"><ele>123.0</ele><time>2026-04-29T12:56:59.468Z</time></trkpt><trkpt lat="43.9663514" lon="12.4097793"><ele>123.0</ele><time>2026-04-29T12:57:00.468Z</time></trkpt><trkpt lat="43.9663617" lon="12.4099748"><ele>123.0</ele><time>2026-04-29T12:57:01.469Z</time></trkpt><trkpt lat="43.9663755" lon="12.4101699"><ele>123.0</ele><time>2026-04-29T12:57:02.469Z</time></trkpt><trkpt lat="43.9663924" lon="12.4103608"><ele>123.0</ele><time>2026-04-29T12:57:03.468Z</time></trkpt><trkpt lat="43.9664034" lon="12.410542"><ele>123.5</ele><time>2026-04-29T12:57:04.468Z</time></trkpt><trkpt lat="43.9664146" lon="12.4107084"><ele>124.0</ele><time>2026-04-29T12:57:05.468Z</time></trkpt><trkpt lat="43.9664326" lon="12.4108645"><ele>124.5</ele><time>2026-04-29T12:57:06.469Z</time></trkpt><trkpt lat="43.9664578" lon="12.411017"><ele>125.0</ele><time>2026-04-29T12:57:07.468Z</time></trkpt><trkpt lat="43.96649" lon="12.4111547"><ele>125.0</ele><time>2026-04-29T12:57:08.468Z</time></trkpt><trkpt lat="43.9665351" lon="12.4112839"><ele>125.0</ele><time>2026-04-29T12:57:09.468Z</time></trkpt><trkpt lat="43.9665944" lon="12.4113926"><ele>125.0</ele><time>2026-04-29T12:57:10.468Z</time></trkpt><trkpt lat="43.9666825" lon="12.4114852"><ele>125.0</ele><time>2026-04-29T12:57:11.468Z</time></trkpt><trkpt lat="43.9667857" lon="12.4115621"><ele>125.0</ele><time>2026-04-29T12:57:12.468Z</time></trkpt><trkpt lat="43.9669082" lon="12.4116325"><ele>125.0</ele><time>2026-04-29T12:57:13.468Z</time></trkpt><trkpt lat="43.9670435" lon="12.4116931"><ele>125.0</ele><time>2026-04-29T12:57:14.468Z</time></trkpt><trkpt lat="43.9671803" lon="12.4117431"><ele>125.0</ele><time>2026-04-29T12:57:15.468Z</time></trkpt><trkpt lat="43.9673102" lon="12.4117993"><ele>125.0</ele><time>2026-04-29T12:57:16.468Z</time></trkpt><trkpt lat="43.9674357" lon="12.4118436"><ele>124.5</ele><time>2026-04-29T12:57:17.468Z</time></trkpt><trkpt lat="43.9675548" lon="12.4118877"><ele>124.0</ele><time>2026-04-29T12:57:18.468Z</time></trkpt><trkpt lat="43.9676774" lon="12.4119319"><ele>123.5</ele><time>2026-04-29T12:57:19.469Z</time></trkpt><trkpt lat="43.9678028" lon="12.4119758"><ele>123.0</ele><time>2026-04-29T12:57:20.468Z</time></trkpt><trkpt lat="43.9679307" lon="12.4120212"><ele>123.0</ele><time>2026-04-29T12:57:21.468Z</time></trkpt><trkpt lat="43.968057" lon="12.4120674"><ele>123.0</ele><time>2026-04-29T12:57:22.468Z</time></trkpt><trkpt lat="43.9681889" lon="12.4121189"><ele>123.0</ele><time>2026-04-29T12:57:23.468Z</time></trkpt><trkpt lat="43.9683213" lon="12.4121658"><ele>123.0</ele><time>2026-04-29T12:57:24.468Z</time></trkpt><trkpt lat="43.9684564" lon="12.4122187"><ele>123.0</ele><time>2026-04-29T12:57:25.468Z</time></trkpt><trkpt lat="43.9685942" lon="12.412277"><ele>123.0</ele><time>2026-04-29T12:57:26.468Z</time></trkpt><trkpt lat="43.9687276" lon="12.4123305"><ele>123.0</ele><time>2026-04-29T12:57:27.468Z</time></trkpt><trkpt lat="43.9688584" lon="12.4123785"><ele>123.0</ele><time>2026-04-29T12:57:28.468Z</time></trkpt><trkpt lat="43.9689894" lon="12.4124214"><ele>123.0</ele><time>2026-04-29T12:57:29.468Z</time></trkpt><trkpt lat="43.9691095" lon="12.4124583"><ele>123.0</ele><time>2026-04-29T12:57:30.468Z</time></trkpt><trkpt lat="43.969224" lon="12.412498"><ele>123.0</ele><time>2026-04-29T12:57:31.468Z</time></trkpt><trkpt lat="43.9693347" lon="12.4125421"><ele>123.0</ele><time>2026-04-29T12:57:32.468Z</time></trkpt><trkpt lat="43.9694451" lon="12.4125861"><ele>122.0</ele><time>2026-04-29T12:57:33.468Z</time></trkpt><trkpt lat="43.9695575" lon="12.4126302"><ele>121.0</ele><time>2026-04-29T12:57:34.468Z</time></trkpt><trkpt lat="43.9696725" lon="12.4126704"><ele>120.0</ele><time>2026-04-29T12:57:35.468Z</time></trkpt><trkpt lat="43.9697944" lon="12.4127236"><ele>119.0</ele><time>2026-04-29T12:57:36.468Z</time></trkpt><trkpt lat="43.9699151" lon="12.4127887"><ele>119.25</ele><time>2026-04-29T12:57:37.468Z</time></trkpt><trkpt lat="43.9700278" lon="12.4128526"><ele>119.5</ele><time>2026-04-29T12:57:38.468Z</time></trkpt><trkpt lat="43.9701367" lon="12.4129109"><ele>119.75</ele><time>2026-04-29T12:57:39.468Z</time></trkpt><trkpt lat="43.9702404" lon="12.4129787"><ele>120.0</ele><time>2026-04-29T12:57:40.468Z</time></trkpt><trkpt lat="43.9703479" lon="12.413051"><ele>120.0</ele><time>2026-04-29T12:57:41.468Z</time></trkpt><trkpt lat="43.9704676" lon="12.4131298"><ele>120.0</ele><time>2026-04-29T12:57:42.468Z</time></trkpt><trkpt lat="43.9705922" lon="12.4132029"><ele>120.0</ele><time>2026-04-29T12:57:43.468Z</time></trkpt><trkpt lat="43.9707127" lon="12.4132783"><ele>120.0</ele><time>2026-04-29T12:57:44.468Z</time></trkpt><trkpt lat="43.9708308" lon="12.413354"><ele>119.5</ele><time>2026-04-29T12:57:45.468Z</time></trkpt><trkpt lat="43.9709496" lon="12.4134205"><ele>119.0</ele><time>2026-04-29T12:57:46.468Z</time></trkpt><trkpt lat="43.9710707" lon="12.4134745"><ele>118.5</ele><time>2026-04-29T12:57:47.468Z</time></trkpt><trkpt lat="43.9711951" lon="12.4135159"><ele>118.0</ele><time>2026-04-29T12:57:48.468Z</time></trkpt><trkpt lat="43.9713194" lon="12.4135449"><ele>118.0</ele><time>2026-04-29T12:57:49.468Z</time></trkpt><trkpt lat="43.9714346" lon="12.4135641"><ele>118.00000000000001</ele><time>2026-04-29T12:57:50.468Z</time></trkpt><trkpt lat="43.9715491" lon="12.4135655"><ele>118.00000000000001</ele><time>2026-04-29T12:57:51.468Z</time></trkpt><trkpt lat="43.9716563" lon="12.4135462"><ele>118.0</ele><time>2026-04-29T12:57:52.468Z</time></trkpt><trkpt lat="43.9717545" lon="12.4134975"><ele>118.0</ele><time>2026-04-29T12:57:53.468Z</time></trkpt><trkpt lat="43.9718383" lon="12.4134184"><ele>120.0</ele><time>2026-04-29T12:57:54.468Z</time></trkpt><trkpt lat="43.9719107" lon="12.4133071"><ele>122.0</ele><time>2026-04-29T12:57:55.469Z</time></trkpt><trkpt lat="43.9719693" lon="12.4131693"><ele>124.0</ele><time>2026-04-29T12:57:56.468Z</time></trkpt><trkpt lat="43.972001" lon="12.4130017"><ele>126.0</ele><time>2026-04-29T12:57:57.468Z</time></trkpt><trkpt lat="43.9720118" lon="12.4128272"><ele>126.0</ele><time>2026-04-29T12:57:58.468Z</time></trkpt><trkpt lat="43.9720238" lon="12.412671"><ele>126.0</ele><time>2026-04-29T12:57:59.468Z</time></trkpt><trkpt lat="43.9720541" lon="12.4125362"><ele>126.0</ele><time>2026-04-29T12:58:00.468Z</time></trkpt><trkpt lat="43.9720976" lon="12.4124041"><ele>126.0</ele><time>2026-04-29T12:58:01.468Z</time></trkpt><trkpt lat="43.9721464" lon="12.4122869"><ele>126.0</ele><time>2026-04-29T12:58:02.469Z</time></trkpt><trkpt lat="43.972193" lon="12.412186"><ele>126.28571428571428</ele><time>2026-04-29T12:58:03.468Z</time></trkpt><trkpt lat="43.9722273" lon="12.4121075"><ele>126.57142857142857</ele><time>2026-04-29T12:58:04.469Z</time></trkpt><trkpt lat="43.9722666" lon="12.4119932"><ele>126.85714285714286</ele><time>2026-04-29T12:58:06.468Z</time></trkpt><trkpt lat="43.9722809" lon="12.4118902"><ele>127.14285714285714</ele><time>2026-04-29T12:58:09.468Z</time></trkpt><trkpt lat="43.97234" lon="12.4118575"><ele>127.42857142857142</ele><time>2026-04-29T12:58:15.469Z</time></trkpt><trkpt lat="43.9724076" lon="12.4118453"><ele>127.71428571428571</ele><time>2026-04-29T12:58:16.468Z</time></trkpt><trkpt lat="43.9724878" lon="12.4118642"><ele>128.0</ele><time>2026-04-29T12:58:17.468Z</time></trkpt><trkpt lat="43.972569" lon="12.4119073"><ele>127.99999999999999</ele><time>2026-04-29T12:58:18.468Z</time></trkpt><trkpt lat="43.9726372" lon="12.4119384"><ele>128.0</ele><time>2026-04-29T12:58:19.468Z</time></trkpt><trkpt lat="43.9727373" lon="12.411879"><ele>128.0</ele><time>2026-04-29T12:58:21.469Z</time></trkpt><trkpt lat="43.9727851" lon="12.4117928"><ele>128.0</ele><time>2026-04-29T12:58:22.468Z</time></trkpt><trkpt lat="43.9728333" lon="12.4116909"><ele>127.99999999999999</ele><time>2026-04-29T12:58:23.468Z</time></trkpt><trkpt lat="43.9728918" lon="12.4115999"><ele>128.0</ele><time>2026-04-29T12:58:24.469Z</time></trkpt><trkpt lat="43.9729691" lon="12.4115332"><ele>128.0</ele><time>2026-04-29T12:58:25.468Z</time></trkpt><trkpt lat="43.9730654" lon="12.4114879"><ele>128.0</ele><time>2026-04-29T12:58:26.468Z</time></trkpt><trkpt lat="43.9731742" lon="12.4114605"><ele>128.0</ele><time>2026-04-29T12:58:27.468Z</time></trkpt><trkpt lat="43.9732899" lon="12.4114349"><ele>128.0</ele><time>2026-04-29T12:58:28.468Z</time></trkpt><trkpt lat="43.9734136" lon="12.4114065"><ele>129.75</ele><time>2026-04-29T12:58:29.468Z</time></trkpt><trkpt lat="43.9735417" lon="12.4113741"><ele>131.5</ele><time>2026-04-29T12:58:30.468Z</time></trkpt><trkpt lat="43.9736726" lon="12.4113398"><ele>133.25</ele><time>2026-04-29T12:58:31.468Z</time></trkpt><trkpt lat="43.9738007" lon="12.4113067"><ele>135.0</ele><time>2026-04-29T12:58:32.468Z</time></trkpt><trkpt lat="43.9739287" lon="12.411268"><ele>133.75</ele><time>2026-04-29T12:58:33.468Z</time></trkpt><trkpt lat="43.9740562" lon="12.411221"><ele>132.5</ele><time>2026-04-29T12:58:34.469Z</time></trkpt><trkpt lat="43.974177" lon="12.4111721"><ele>131.25</ele><time>2026-04-29T12:58:35.468Z</time></trkpt><trkpt lat="43.9742919" lon="12.4111286"><ele>130.0</ele><time>2026-04-29T12:58:36.468Z</time></trkpt><trkpt lat="43.9744016" lon="12.4110876"><ele>130.0</ele><time>2026-04-29T12:58:37.469Z</time></trkpt><trkpt lat="43.9745076" lon="12.4110421"><ele>130.0</ele><time>2026-04-29T12:58:38.468Z</time></trkpt><trkpt lat="43.9746052" lon="12.4109791"><ele>130.0</ele><time>2026-04-29T12:58:39.468Z</time></trkpt><trkpt lat="43.9746964" lon="12.4108911"><ele>130.0</ele><time>2026-04-29T12:58:40.468Z</time></trkpt><trkpt lat="43.9747856" lon="12.4107738"><ele>130.0</ele><time>2026-04-29T12:58:41.468Z</time></trkpt><trkpt lat="43.974869" lon="12.410641"><ele>130.0</ele><time>2026-04-29T12:58:42.468Z</time></trkpt><trkpt lat="43.9749462" lon="12.4105068"><ele>130.0</ele><time>2026-04-29T12:58:43.468Z</time></trkpt><trkpt lat="43.9750212" lon="12.4103808"><ele>130.0</ele><time>2026-04-29T12:58:44.468Z</time></trkpt><trkpt lat="43.9750884" lon="12.4102692"><ele>130.4</ele><time>2026-04-29T12:58:45.468Z</time></trkpt><trkpt lat="43.9751504" lon="12.4101721"><ele>130.8</ele><time>2026-04-29T12:58:46.468Z</time></trkpt><trkpt lat="43.9752087" lon="12.4100837"><ele>131.2</ele><time>2026-04-29T12:58:47.468Z</time></trkpt><trkpt lat="43.9752679" lon="12.4099905"><ele>131.6</ele><time>2026-04-29T12:58:48.468Z</time></trkpt><trkpt lat="43.9753383" lon="12.4099024"><ele>132.0</ele><time>2026-04-29T12:58:49.468Z</time></trkpt><trkpt lat="43.9754183" lon="12.4098058"><ele>132.0</ele><time>2026-04-29T12:58:50.468Z</time></trkpt><trkpt lat="43.9755032" lon="12.4097298"><ele>132.0</ele><time>2026-04-29T12:58:51.468Z</time></trkpt><trkpt lat="43.9755936" lon="12.4096826"><ele>132.0</ele><time>2026-04-29T12:58:52.468Z</time></trkpt><trkpt lat="43.9756891" lon="12.4096573"><ele>132.0</ele><time>2026-04-29T12:58:53.468Z</time></trkpt><trkpt lat="43.9757995" lon="12.4096551"><ele>132.0</ele><time>2026-04-29T12:58:54.469Z</time></trkpt><trkpt lat="43.9759222" lon="12.4096733"><ele>132.75</ele><time>2026-04-29T12:58:55.468Z</time></trkpt><trkpt lat="43.9760483" lon="12.4096947"><ele>133.5</ele><time>2026-04-29T12:58:56.468Z</time></trkpt><trkpt lat="43.9761828" lon="12.4097129"><ele>134.25</ele><time>2026-04-29T12:58:57.468Z</time></trkpt><trkpt lat="43.976326" lon="12.4097183"><ele>135.0</ele><time>2026-04-29T12:58:58.468Z</time></trkpt><trkpt lat="43.976473" lon="12.4097058"><ele>135.0</ele><time>2026-04-29T12:58:59.468Z</time></trkpt><trkpt lat="43.976613" lon="12.4096884"><ele>135.0</ele><time>2026-04-29T12:59:00.468Z</time></trkpt><trkpt lat="43.9767485" lon="12.4096737"><ele>135.0</ele><time>2026-04-29T12:59:01.468Z</time></trkpt><trkpt lat="43.9768846" lon="12.409654"><ele>135.0</ele><time>2026-04-29T12:59:02.468Z</time></trkpt><trkpt lat="43.9770263" lon="12.4096319"><ele>133.25</ele><time>2026-04-29T12:59:03.468Z</time></trkpt><trkpt lat="43.9771662" lon="12.4096044"><ele>131.5</ele><time>2026-04-29T12:59:04.469Z</time></trkpt><trkpt lat="43.9773034" lon="12.4095681"><ele>129.75</ele><time>2026-04-29T12:59:05.469Z</time></trkpt><trkpt lat="43.9774371" lon="12.4095263"><ele>128.0</ele><time>2026-04-29T12:59:06.468Z</time></trkpt><trkpt lat="43.9775673" lon="12.4094792"><ele>128.0</ele><time>2026-04-29T12:59:07.468Z</time></trkpt><trkpt lat="43.9776982" lon="12.409427"><ele>128.0</ele><time>2026-04-29T12:59:08.468Z</time></trkpt><trkpt lat="43.9778299" lon="12.4093765"><ele>128.0</ele><time>2026-04-29T12:59:09.468Z</time></trkpt><trkpt lat="43.9779617" lon="12.4093211"><ele>128.0</ele><time>2026-04-29T12:59:10.468Z</time></trkpt><trkpt lat="43.97809" lon="12.4092617"><ele>128.0</ele><time>2026-04-29T12:59:11.468Z</time></trkpt><trkpt lat="43.978218" lon="12.4092027"><ele>128.0</ele><time>2026-04-29T12:59:12.468Z</time></trkpt><trkpt lat="43.9783478" lon="12.4091455"><ele>128.0</ele><time>2026-04-29T12:59:13.468Z</time></trkpt><trkpt lat="43.978477" lon="12.4090858"><ele>128.0</ele><time>2026-04-29T12:59:14.468Z</time></trkpt><trkpt lat="43.9785992" lon="12.409027"><ele>128.25</ele><time>2026-04-29T12:59:15.468Z</time></trkpt><trkpt lat="43.9787211" lon="12.4089739"><ele>128.5</ele><time>2026-04-29T12:59:16.468Z</time></trkpt><trkpt lat="43.9788394" lon="12.4089265"><ele>128.75</ele><time>2026-04-29T12:59:17.468Z</time></trkpt><trkpt lat="43.9789588" lon="12.4088824"><ele>129.0</ele><time>2026-04-29T12:59:18.468Z</time></trkpt><trkpt lat="43.9790781" lon="12.408829"><ele>126.5</ele><time>2026-04-29T12:59:19.468Z</time></trkpt><trkpt lat="43.9792002" lon="12.4087777"><ele>124.0</ele><time>2026-04-29T12:59:20.468Z</time></trkpt><trkpt lat="43.9793249" lon="12.408725"><ele>121.5</ele><time>2026-04-29T12:59:21.468Z</time></trkpt><trkpt lat="43.9794543" lon="12.408672"><ele>119.0</ele><time>2026-04-29T12:59:22.469Z</time></trkpt><trkpt lat="43.979583" lon="12.4086223"><ele>119.0</ele><time>2026-04-29T12:59:23.468Z</time></trkpt><trkpt lat="43.9797141" lon="12.4085659"><ele>119.0</ele><time>2026-04-29T12:59:24.468Z</time></trkpt><trkpt lat="43.9798459" lon="12.4085058"><ele>119.0</ele><time>2026-04-29T12:59:25.468Z</time></trkpt><trkpt lat="43.9799799" lon="12.4084465"><ele>119.0</ele><time>2026-04-29T12:59:26.468Z</time></trkpt><trkpt lat="43.9801132" lon="12.4083722"><ele>119.75</ele><time>2026-04-29T12:59:27.468Z</time></trkpt><trkpt lat="43.9802419" lon="12.4082912"><ele>120.5</ele><time>2026-04-29T12:59:28.469Z</time></trkpt><trkpt lat="43.9803719" lon="12.4081995"><ele>121.25</ele><time>2026-04-29T12:59:29.469Z</time></trkpt><trkpt lat="43.9804926" lon="12.4080971"><ele>122.0</ele><time>2026-04-29T12:59:30.468Z</time></trkpt><trkpt lat="43.9806163" lon="12.4080055"><ele>120.75</ele><time>2026-04-29T12:59:31.468Z</time></trkpt><trkpt lat="43.9807261" lon="12.4079069"><ele>119.5</ele><time>2026-04-29T12:59:32.469Z</time></trkpt><trkpt lat="43.9808278" lon="12.4078085"><ele>118.25</ele><time>2026-04-29T12:59:33.468Z</time></trkpt><trkpt lat="43.9809175" lon="12.4076955"><ele>117.0</ele><time>2026-04-29T12:59:34.468Z</time></trkpt><trkpt lat="43.9809959" lon="12.407566"><ele>116.6</ele><time>2026-04-29T12:59:35.468Z</time></trkpt><trkpt lat="43.9810551" lon="12.4074392"><ele>116.19999999999999</ele><time>2026-04-29T12:59:36.468Z</time></trkpt><trkpt lat="43.9811084" lon="12.4073083"><ele>115.8</ele><time>2026-04-29T12:59:37.468Z</time></trkpt><trkpt lat="43.9811615" lon="12.4071899"><ele>115.4</ele><time>2026-04-29T12:59:38.468Z</time></trkpt><trkpt lat="43.9812202" lon="12.4070898"><ele>115.0</ele><time>2026-04-29T12:59:39.468Z</time></trkpt><trkpt lat="43.981287" lon="12.4070171"><ele>113.8</ele><time>2026-04-29T12:59:40.468Z</time></trkpt><trkpt lat="43.9813665" lon="12.4069718"><ele>112.6</ele><time>2026-04-29T12:59:41.469Z</time></trkpt><trkpt lat="43.9814556" lon="12.4069538"><ele>111.4</ele><time>2026-04-29T12:59:42.468Z</time></trkpt><trkpt lat="43.9815584" lon="12.4069656"><ele>110.2</ele><time>2026-04-29T12:59:43.468Z</time></trkpt><trkpt lat="43.9816667" lon="12.406988"><ele>109.0</ele><time>2026-04-29T12:59:44.468Z</time></trkpt><trkpt lat="43.9817796" lon="12.4070167"><ele>109.0</ele><time>2026-04-29T12:59:45.468Z</time></trkpt><trkpt lat="43.9818832" lon="12.4070516"><ele>109.0</ele><time>2026-04-29T12:59:46.469Z</time></trkpt><trkpt lat="43.9819723" lon="12.4070901"><ele>109.0</ele><time>2026-04-29T12:59:47.468Z</time></trkpt><trkpt lat="43.982049" lon="12.4071209"><ele>109.0</ele><time>2026-04-29T12:59:48.468Z</time></trkpt><trkpt lat="43.9821163" lon="12.407146"><ele>109.0</ele><time>2026-04-29T12:59:49.468Z</time></trkpt><trkpt lat="43.9822281" lon="12.4071431"><ele>109.0</ele><time>2026-04-29T12:59:51.468Z</time></trkpt><trkpt lat="43.9822911" lon="12.4070123"><ele>109.0</ele><time>2026-04-29T12:59:53.468Z</time></trkpt><trkpt lat="43.9823007" lon="12.4068947"><ele>109.0</ele><time>2026-04-29T12:59:54.468Z</time></trkpt><trkpt lat="43.9823131" lon="12.4067658"><ele>109.0</ele><time>2026-04-29T12:59:55.468Z</time></trkpt><trkpt lat="43.9823472" lon="12.4066098"><ele>109.0</ele><time>2026-04-29T12:59:56.468Z</time></trkpt><trkpt lat="43.9823975" lon="12.4064553"><ele>107.25</ele><time>2026-04-29T12:59:57.468Z</time></trkpt><trkpt lat="43.9824523" lon="12.4062945"><ele>105.5</ele><time>2026-04-29T12:59:58.468Z</time></trkpt><trkpt lat="43.9825107" lon="12.4061259"><ele>103.75</ele><time>2026-04-29T12:59:59.469Z</time></trkpt><trkpt lat="43.9825687" lon="12.4059458"><ele>102.0</ele><time>2026-04-29T13:00:00.468Z</time></trkpt><trkpt lat="43.9826258" lon="12.4057593"><ele>102.0</ele><time>2026-04-29T13:00:01.468Z</time></trkpt><trkpt lat="43.9826873" lon="12.4055709"><ele>102.0</ele><time>2026-04-29T13:00:02.468Z</time></trkpt><trkpt lat="43.9827519" lon="12.4053866"><ele>102.0</ele><time>2026-04-29T13:00:03.468Z</time></trkpt><trkpt lat="43.9828167" lon="12.4052031"><ele>102.0</ele><time>2026-04-29T13:00:04.468Z</time></trkpt><trkpt lat="43.982875" lon="12.4050092"><ele>102.0</ele><time>2026-04-29T13:00:05.468Z</time></trkpt><trkpt lat="43.9829316" lon="12.4048175"><ele>102.0</ele><time>2026-04-29T13:00:06.468Z</time></trkpt><trkpt lat="43.9829892" lon="12.4046343"><ele>102.0</ele><time>2026-04-29T13:00:07.468Z</time></trkpt><trkpt lat="43.9830513" lon="12.4044668"><ele>102.0</ele><time>2026-04-29T13:00:08.469Z</time></trkpt><trkpt lat="43.9831262" lon="12.4042969"><ele>104.25</ele><time>2026-04-29T13:00:09.468Z</time></trkpt><trkpt lat="43.9832071" lon="12.4041337"><ele>106.5</ele><time>2026-04-29T13:00:10.468Z</time></trkpt><trkpt lat="43.9833035" lon="12.4039768"><ele>108.75</ele><time>2026-04-29T13:00:11.468Z</time></trkpt><trkpt lat="43.983411" lon="12.4038235"><ele>111.0</ele><time>2026-04-29T13:00:12.468Z</time></trkpt><trkpt lat="43.9835178" lon="12.4036723"><ele>113.0</ele><time>2026-04-29T13:00:13.469Z</time></trkpt><trkpt lat="43.9836291" lon="12.4035178"><ele>115.0</ele><time>2026-04-29T13:00:14.468Z</time></trkpt><trkpt lat="43.9837448" lon="12.4033708"><ele>117.0</ele><time>2026-04-29T13:00:15.469Z</time></trkpt><trkpt lat="43.9838631" lon="12.4032433"><ele>117.0</ele><time>2026-04-29T13:00:16.468Z</time></trkpt><trkpt lat="43.9839855" lon="12.4031281"><ele>117.0</ele><time>2026-04-29T13:00:17.468Z</time></trkpt><trkpt lat="43.9841028" lon="12.4030314"><ele>117.0</ele><time>2026-04-29T13:00:18.468Z</time></trkpt><trkpt lat="43.9842193" lon="12.402969"><ele>117.0</ele><time>2026-04-29T13:00:19.468Z</time></trkpt><trkpt lat="43.9843441" lon="12.4029414"><ele>118.25</ele><time>2026-04-29T13:00:20.468Z</time></trkpt><trkpt lat="43.9844717" lon="12.4029455"><ele>119.5</ele><time>2026-04-29T13:00:21.468Z</time></trkpt><trkpt lat="43.9846117" lon="12.4029593"><ele>120.75</ele><time>2026-04-29T13:00:22.468Z</time></trkpt><trkpt lat="43.9847559" lon="12.4029671"><ele>122.0</ele><time>2026-04-29T13:00:23.469Z</time></trkpt><trkpt lat="43.9848934" lon="12.4029501"><ele>120.25</ele><time>2026-04-29T13:00:24.468Z</time></trkpt><trkpt lat="43.9850238" lon="12.4029102"><ele>118.5</ele><time>2026-04-29T13:00:25.468Z</time></trkpt><trkpt lat="43.9851537" lon="12.4028396"><ele>116.75</ele><time>2026-04-29T13:00:26.468Z</time></trkpt><trkpt lat="43.9852749" lon="12.4027446"><ele>115.0</ele><time>2026-04-29T13:00:27.468Z</time></trkpt><trkpt lat="43.9853896" lon="12.4026333"><ele>115.0</ele><time>2026-04-29T13:00:28.467Z</time></trkpt><trkpt lat="43.985499" lon="12.4025127"><ele>115.0</ele><time>2026-04-29T13:00:29.467Z</time></trkpt><trkpt lat="43.9856056" lon="12.4024127"><ele>115.0</ele><time>2026-04-29T13:00:30.467Z</time></trkpt><trkpt lat="43.9857158" lon="12.4023425"><ele>115.0</ele><time>2026-04-29T13:00:31.467Z</time></trkpt><trkpt lat="43.98583" lon="12.4022979"><ele>115.75</ele><time>2026-04-29T13:00:32.467Z</time></trkpt><trkpt lat="43.985951" lon="12.4022771"><ele>116.5</ele><time>2026-04-29T13:00:33.467Z</time></trkpt><trkpt lat="43.9860665" lon="12.4023004"><ele>117.25</ele><time>2026-04-29T13:00:34.467Z</time></trkpt><trkpt lat="43.9861809" lon="12.4023559"><ele>118.0</ele><time>2026-04-29T13:00:35.468Z</time></trkpt><trkpt lat="43.9863034" lon="12.4024356"><ele>118.0</ele><time>2026-04-29T13:00:36.467Z</time></trkpt><trkpt lat="43.986421" lon="12.4025374"><ele>118.0</ele><time>2026-04-29T13:00:37.467Z</time></trkpt><trkpt lat="43.9865441" lon="12.4026349"><ele>118.0</ele><time>2026-04-29T13:00:38.468Z</time></trkpt><trkpt lat="43.9866626" lon="12.4027111"><ele>118.0</ele><time>2026-04-29T13:00:39.467Z</time></trkpt><trkpt lat="43.98678" lon="12.4027737"><ele>117.25</ele><time>2026-04-29T13:00:40.467Z</time></trkpt><trkpt lat="43.9869011" lon="12.4028018"><ele>116.5</ele><time>2026-04-29T13:00:41.467Z</time></trkpt><trkpt lat="43.9870312" lon="12.4028149"><ele>115.75</ele><time>2026-04-29T13:00:42.468Z</time></trkpt><trkpt lat="43.9871637" lon="12.4027971"><ele>115.0</ele><time>2026-04-29T13:00:43.467Z</time></trkpt><trkpt lat="43.9873011" lon="12.4027379"><ele>115.0</ele><time>2026-04-29T13:00:44.467Z</time></trkpt><trkpt lat="43.9874336" lon="12.4026445"><ele>115.0</ele><time>2026-04-29T13:00:45.467Z</time></trkpt><trkpt lat="43.9875657" lon="12.4025338"><ele>115.0</ele><time>2026-04-29T13:00:46.468Z</time></trkpt><trkpt lat="43.9876926" lon="12.4023999"><ele>114.0</ele><time>2026-04-29T13:00:47.467Z</time></trkpt><trkpt lat="43.9878195" lon="12.4022488"><ele>113.0</ele><time>2026-04-29T13:00:48.467Z</time></trkpt><trkpt lat="43.9879364" lon="12.4020972"><ele>112.0</ele><time>2026-04-29T13:00:49.467Z</time></trkpt><trkpt lat="43.9880556" lon="12.4019508"><ele>112.0</ele><time>2026-04-29T13:00:50.467Z</time></trkpt><trkpt lat="43.9881765" lon="12.4018297"><ele>112.0</ele><time>2026-04-29T13:00:51.467Z</time></trkpt><trkpt lat="43.9882962" lon="12.4017203"><ele>112.0</ele><time>2026-04-29T13:00:52.467Z</time></trkpt><trkpt lat="43.9884195" lon="12.4016302"><ele>112.0</ele><time>2026-04-29T13:00:53.467Z</time></trkpt><trkpt lat="43.9885547" lon="12.4015749"><ele>110.33333333333334</ele><time>2026-04-29T13:00:54.467Z</time></trkpt><trkpt lat="43.9887062" lon="12.4015376"><ele>108.66666666666666</ele><time>2026-04-29T13:00:55.467Z</time></trkpt><trkpt lat="43.9888658" lon="12.4015046"><ele>107.0</ele><time>2026-04-29T13:00:56.467Z</time></trkpt><trkpt lat="43.9890291" lon="12.40146"><ele>108.33333333333333</ele><time>2026-04-29T13:00:57.467Z</time></trkpt><trkpt lat="43.9891919" lon="12.4013982"><ele>109.66666666666666</ele><time>2026-04-29T13:00:58.467Z</time></trkpt><trkpt lat="43.9893516" lon="12.4013164"><ele>111.0</ele><time>2026-04-29T13:00:59.468Z</time></trkpt><trkpt lat="43.9895107" lon="12.4012335"><ele>111.0</ele><time>2026-04-29T13:01:00.467Z</time></trkpt><trkpt lat="43.9896673" lon="12.40116"><ele>111.0</ele><time>2026-04-29T13:01:01.467Z</time></trkpt><trkpt lat="43.9898255" lon="12.4010937"><ele>111.0</ele><time>2026-04-29T13:01:02.467Z</time></trkpt><trkpt lat="43.9899845" lon="12.4010453"><ele>112.0</ele><time>2026-04-29T13:01:03.467Z</time></trkpt><trkpt lat="43.9901427" lon="12.4010141"><ele>113.0</ele><time>2026-04-29T13:01:04.468Z</time></trkpt><trkpt lat="43.9903021" lon="12.4010009"><ele>114.0</ele><time>2026-04-29T13:01:05.467Z</time></trkpt><trkpt lat="43.9904661" lon="12.4009957"><ele>114.0</ele><time>2026-04-29T13:01:06.468Z</time></trkpt><trkpt lat="43.9906288" lon="12.4010043"><ele>114.0</ele><time>2026-04-29T13:01:07.467Z</time></trkpt><trkpt lat="43.9907974" lon="12.40102"><ele>114.0</ele><time>2026-04-29T13:01:08.467Z</time></trkpt><trkpt lat="43.9909705" lon="12.4010393"><ele>114.33333333333334</ele><time>2026-04-29T13:01:09.467Z</time></trkpt><trkpt lat="43.9911468" lon="12.4010602"><ele>114.66666666666667</ele><time>2026-04-29T13:01:10.467Z</time></trkpt><trkpt lat="43.9913275" lon="12.4010762"><ele>115.0</ele><time>2026-04-29T13:01:11.467Z</time></trkpt><trkpt lat="43.9915064" lon="12.4010896"><ele>114.33333333333334</ele><time>2026-04-29T13:01:12.467Z</time></trkpt><trkpt lat="43.9916773" lon="12.4011014"><ele>113.66666666666666</ele><time>2026-04-29T13:01:13.467Z</time></trkpt><trkpt lat="43.9918451" lon="12.4011068"><ele>113.0</ele><time>2026-04-29T13:01:14.468Z</time></trkpt><trkpt lat="43.9920115" lon="12.4011188"><ele>113.0</ele><time>2026-04-29T13:01:15.467Z</time></trkpt><trkpt lat="43.9921796" lon="12.4011371"><ele>113.0</ele><time>2026-04-29T13:01:16.467Z</time></trkpt><trkpt lat="43.9923545" lon="12.4011503"><ele>113.0</ele><time>2026-04-29T13:01:17.468Z</time></trkpt><trkpt lat="43.9925234" lon="12.4011699"><ele>112.33333333333333</ele><time>2026-04-29T13:01:18.468Z</time></trkpt><trkpt lat="43.9926841" lon="12.4011871"><ele>111.66666666666666</ele><time>2026-04-29T13:01:19.467Z</time></trkpt><trkpt lat="43.9928426" lon="12.4012132"><ele>111.0</ele><time>2026-04-29T13:01:20.467Z</time></trkpt><trkpt lat="43.9929973" lon="12.40124"><ele>111.0</ele><time>2026-04-29T13:01:21.467Z</time></trkpt><trkpt lat="43.9931522" lon="12.4012604"><ele>111.0</ele><time>2026-04-29T13:01:22.468Z</time></trkpt><trkpt lat="43.9933049" lon="12.4012832"><ele>111.0</ele><time>2026-04-29T13:01:23.467Z</time></trkpt><trkpt lat="43.9934595" lon="12.4013083"><ele>108.66666666666666</ele><time>2026-04-29T13:01:24.467Z</time></trkpt><trkpt lat="43.9936063" lon="12.4013578"><ele>106.33333333333333</ele><time>2026-04-29T13:01:25.468Z</time></trkpt><trkpt lat="43.9937527" lon="12.4014307"><ele>104.0</ele><time>2026-04-29T13:01:26.467Z</time></trkpt><trkpt lat="43.9939042" lon="12.4015121"><ele>104.0</ele><time>2026-04-29T13:01:27.467Z</time></trkpt><trkpt lat="43.9940569" lon="12.401612"><ele>104.0</ele><time>2026-04-29T13:01:28.467Z</time></trkpt><trkpt lat="43.9942094" lon="12.4017131"><ele>104.0</ele><time>2026-04-29T13:01:29.468Z</time></trkpt><trkpt lat="43.9943622" lon="12.4018219"><ele>104.0</ele><time>2026-04-29T13:01:30.467Z</time></trkpt><trkpt lat="43.9945152" lon="12.4019308"><ele>104.0</ele><time>2026-04-29T13:01:31.467Z</time></trkpt><trkpt lat="43.9946692" lon="12.4020409"><ele>104.0</ele><time>2026-04-29T13:01:32.467Z</time></trkpt><trkpt lat="43.9948167" lon="12.4021418"><ele>102.66666666666666</ele><time>2026-04-29T13:01:33.467Z</time></trkpt><trkpt lat="43.994963" lon="12.4022381"><ele>101.33333333333334</ele><time>2026-04-29T13:01:34.467Z</time></trkpt><trkpt lat="43.9951004" lon="12.4023306"><ele>100.0</ele><time>2026-04-29T13:01:35.467Z</time></trkpt><trkpt lat="43.9952412" lon="12.4024184"><ele>100.0</ele><time>2026-04-29T13:01:36.467Z</time></trkpt><trkpt lat="43.9953847" lon="12.4024948"><ele>100.0</ele><time>2026-04-29T13:01:37.468Z</time></trkpt><trkpt lat="43.9955322" lon="12.4025623"><ele>100.0</ele><time>2026-04-29T13:01:38.467Z</time></trkpt><trkpt lat="43.9956907" lon="12.4026031"><ele>99.0</ele><time>2026-04-29T13:01:39.467Z</time></trkpt><trkpt lat="43.9958533" lon="12.4026243"><ele>98.0</ele><time>2026-04-29T13:01:40.467Z</time></trkpt><trkpt lat="43.9960177" lon="12.4026239"><ele>97.0</ele><time>2026-04-29T13:01:41.467Z</time></trkpt><trkpt lat="43.9961874" lon="12.4025971"><ele>97.0</ele><time>2026-04-29T13:01:42.467Z</time></trkpt><trkpt lat="43.9963543" lon="12.4025673"><ele>97.0</ele><time>2026-04-29T13:01:43.467Z</time></trkpt><trkpt lat="43.9965175" lon="12.4025471"><ele>97.0</ele><time>2026-04-29T13:01:44.467Z</time></trkpt><trkpt lat="43.9966804" lon="12.4025227"><ele>96.33333333333334</ele><time>2026-04-29T13:01:45.467Z</time></trkpt><trkpt lat="43.9968362" lon="12.4024986"><ele>95.66666666666667</ele><time>2026-04-29T13:01:46.467Z</time></trkpt><trkpt lat="43.9969964" lon="12.4024735"><ele>95.0</ele><time>2026-04-29T13:01:47.467Z</time></trkpt><trkpt lat="43.9971517" lon="12.4024534"><ele>95.0</ele><time>2026-04-29T13:01:48.467Z</time></trkpt><trkpt lat="43.997299" lon="12.4024325"><ele>95.0</ele><time>2026-04-29T13:01:49.467Z</time></trkpt><trkpt lat="43.9974387" lon="12.4024074"><ele>95.0</ele><time>2026-04-29T13:01:50.467Z</time></trkpt><trkpt lat="43.9975674" lon="12.4023873"><ele>95.0</ele><time>2026-04-29T13:01:51.467Z</time></trkpt><trkpt lat="43.9976868" lon="12.4023728"><ele>94.4</ele><time>2026-04-29T13:01:52.467Z</time></trkpt><trkpt lat="43.997797" lon="12.4023685"><ele>93.8</ele><time>2026-04-29T13:01:53.467Z</time></trkpt><trkpt lat="43.9978918" lon="12.4023798"><ele>93.19999999999999</ele><time>2026-04-29T13:01:54.467Z</time></trkpt><trkpt lat="43.9979774" lon="12.4024047"><ele>92.6</ele><time>2026-04-29T13:01:55.467Z</time></trkpt><trkpt lat="43.9980637" lon="12.4024211"><ele>92.0</ele><time>2026-04-29T13:01:56.467Z</time></trkpt><trkpt lat="43.9981497" lon="12.4024009"><ele>92.0</ele><time>2026-04-29T13:01:57.468Z</time></trkpt><trkpt lat="43.9982445" lon="12.4023545"><ele>92.0</ele><time>2026-04-29T13:01:58.467Z</time></trkpt><trkpt lat="43.9983497" lon="12.4023102"><ele>92.0</ele><time>2026-04-29T13:01:59.467Z</time></trkpt><trkpt lat="43.9984686" lon="12.4022707"><ele>92.0</ele><time>2026-04-29T13:02:00.468Z</time></trkpt><trkpt lat="43.9985995" lon="12.402237"><ele>91.75</ele><time>2026-04-29T13:02:01.467Z</time></trkpt><trkpt lat="43.9987428" lon="12.4022123"><ele>91.5</ele><time>2026-04-29T13:02:02.467Z</time></trkpt><trkpt lat="43.9988915" lon="12.4021907"><ele>91.25</ele><time>2026-04-29T13:02:03.467Z</time></trkpt><trkpt lat="43.9990408" lon="12.4021713"><ele>91.0</ele><time>2026-04-29T13:02:04.467Z</time></trkpt><trkpt lat="43.9991874" lon="12.4021528"><ele>91.66666666666666</ele><time>2026-04-29T13:02:05.467Z</time></trkpt><trkpt lat="43.9993381" lon="12.4021275"><ele>92.33333333333333</ele><time>2026-04-29T13:02:06.467Z</time></trkpt><trkpt lat="43.9994882" lon="12.4021052"><ele>93.0</ele><time>2026-04-29T13:02:07.467Z</time></trkpt><trkpt lat="43.9996425" lon="12.4020837"><ele>93.0</ele><time>2026-04-29T13:02:08.467Z</time></trkpt><trkpt lat="43.9998004" lon="12.4020647"><ele>93.0</ele><time>2026-04-29T13:02:09.467Z</time></trkpt><trkpt lat="43.9999587" lon="12.4020417"><ele>93.0</ele><time>2026-04-29T13:02:10.467Z</time></trkpt><trkpt lat="44.0001162" lon="12.4020207"><ele>93.0</ele><time>2026-04-29T13:02:11.467Z</time></trkpt><trkpt lat="44.0002724" lon="12.4019971"><ele>93.0</ele><time>2026-04-29T13:02:12.467Z</time></trkpt><trkpt lat="44.0004278" lon="12.4019731"><ele>93.0</ele><time>2026-04-29T13:02:13.467Z</time></trkpt><trkpt lat="44.0005824" lon="12.4019488"><ele>93.0</ele><time>2026-04-29T13:02:14.468Z</time></trkpt><trkpt lat="44.0007388" lon="12.4019253"><ele>93.0</ele><time>2026-04-29T13:02:15.467Z</time></trkpt><trkpt lat="44.0008913" lon="12.401901"><ele>93.0</ele><time>2026-04-29T13:02:16.467Z</time></trkpt><trkpt lat="44.0010474" lon="12.401879"><ele>92.33333333333333</ele><time>2026-04-29T13:02:17.467Z</time></trkpt><trkpt lat="44.001202" lon="12.4018557"><ele>91.66666666666666</ele><time>2026-04-29T13:02:18.467Z</time></trkpt><trkpt lat="44.0013528" lon="12.4018347"><ele>91.0</ele><time>2026-04-29T13:02:19.467Z</time></trkpt><trkpt lat="44.0015052" lon="12.4018134"><ele>91.0</ele><time>2026-04-29T13:02:20.467Z</time></trkpt><trkpt lat="44.0016612" lon="12.4017905"><ele>91.0</ele><time>2026-04-29T13:02:21.468Z</time></trkpt><trkpt lat="44.0018172" lon="12.4017711"><ele>91.0</ele><time>2026-04-29T13:02:22.467Z</time></trkpt><trkpt lat="44.0019753" lon="12.4017478"><ele>91.66666666666666</ele><time>2026-04-29T13:02:23.467Z</time></trkpt><trkpt lat="44.0021394" lon="12.4017279"><ele>92.33333333333333</ele><time>2026-04-29T13:02:24.468Z</time></trkpt><trkpt lat="44.0023053" lon="12.4017084"><ele>93.0</ele><time>2026-04-29T13:02:25.468Z</time></trkpt><trkpt lat="44.0024712" lon="12.4016854"><ele>92.66666666666667</ele><time>2026-04-29T13:02:26.467Z</time></trkpt><trkpt lat="44.0026341" lon="12.4016634"><ele>92.33333333333334</ele><time>2026-04-29T13:02:27.467Z</time></trkpt><trkpt lat="44.0028019" lon="12.4016367"><ele>92.0</ele><time>2026-04-29T13:02:28.467Z</time></trkpt><trkpt lat="44.0029649" lon="12.4016085"><ele>92.0</ele><time>2026-04-29T13:02:29.468Z</time></trkpt><trkpt lat="44.0031302" lon="12.4015829"><ele>92.0</ele><time>2026-04-29T13:02:30.467Z</time></trkpt><trkpt lat="44.0032973" lon="12.4015545"><ele>92.0</ele><time>2026-04-29T13:02:31.467Z</time></trkpt><trkpt lat="44.0034572" lon="12.4015188"><ele>91.5</ele><time>2026-04-29T13:02:32.467Z</time></trkpt><trkpt lat="44.0036129" lon="12.4014909"><ele>91.0</ele><time>2026-04-29T13:02:33.467Z</time></trkpt><trkpt lat="44.0037477" lon="12.4014755"><ele>90.5</ele><time>2026-04-29T13:02:34.468Z</time></trkpt><trkpt lat="44.0038777" lon="12.4014619"><ele>90.0</ele><time>2026-04-29T13:02:35.467Z</time></trkpt><trkpt lat="44.0039962" lon="12.4014696"><ele>90.0</ele><time>2026-04-29T13:02:36.467Z</time></trkpt><trkpt lat="44.0040958" lon="12.4015104"><ele>90.0</ele><time>2026-04-29T13:02:37.467Z</time></trkpt><trkpt lat="44.0041981" lon="12.4015721"><ele>90.0</ele><time>2026-04-29T13:02:38.468Z</time></trkpt><trkpt lat="44.0042949" lon="12.4016204"><ele>90.0</ele><time>2026-04-29T13:02:39.467Z</time></trkpt><trkpt lat="44.0043997" lon="12.401639"><ele>90.0</ele><time>2026-04-29T13:02:40.467Z</time></trkpt><trkpt lat="44.0045067" lon="12.4016271"><ele>89.75</ele><time>2026-04-29T13:02:41.467Z</time></trkpt><trkpt lat="44.004615" lon="12.4016341"><ele>89.5</ele><time>2026-04-29T13:02:42.467Z</time></trkpt><trkpt lat="44.0047347" lon="12.4016968"><ele>89.25</ele><time>2026-04-29T13:02:43.467Z</time></trkpt><trkpt lat="44.004864" lon="12.4017894"><ele>89.0</ele><time>2026-04-29T13:02:44.467Z</time></trkpt><trkpt lat="44.0049911" lon="12.4018943"><ele>89.33333333333334</ele><time>2026-04-29T13:02:45.467Z</time></trkpt><trkpt lat="44.00512" lon="12.4020042"><ele>89.66666666666667</ele><time>2026-04-29T13:02:46.467Z</time></trkpt><trkpt lat="44.0052543" lon="12.4021161"><ele>90.0</ele><time>2026-04-29T13:02:47.467Z</time></trkpt><trkpt lat="44.0053927" lon="12.402242"><ele>90.0</ele><time>2026-04-29T13:02:48.467Z</time></trkpt><trkpt lat="44.0055429" lon="12.4023815"><ele>90.0</ele><time>2026-04-29T13:02:49.467Z</time></trkpt><trkpt lat="44.0056877" lon="12.4025234"><ele>90.0</ele><time>2026-04-29T13:02:50.467Z</time></trkpt><trkpt lat="44.0058418" lon="12.4026695"><ele>90.0</ele><time>2026-04-29T13:02:51.467Z</time></trkpt><trkpt lat="44.0059966" lon="12.4028151"><ele>90.0</ele><time>2026-04-29T13:02:52.467Z</time></trkpt><trkpt lat="44.0061407" lon="12.4029543"><ele>90.0</ele><time>2026-04-29T13:02:53.468Z</time></trkpt><trkpt lat="44.0062833" lon="12.403092"><ele>89.66666666666667</ele><time>2026-04-29T13:02:54.467Z</time></trkpt><trkpt lat="44.0064268" lon="12.4032231"><ele>89.33333333333334</ele><time>2026-04-29T13:02:55.467Z</time></trkpt><trkpt lat="44.0065721" lon="12.4033571"><ele>89.0</ele><time>2026-04-29T13:02:56.468Z</time></trkpt><trkpt lat="44.0067212" lon="12.403482"><ele>89.0</ele><time>2026-04-29T13:02:57.467Z</time></trkpt><trkpt lat="44.0068715" lon="12.4036097"><ele>89.0</ele><time>2026-04-29T13:02:58.467Z</time></trkpt><trkpt lat="44.0070268" lon="12.4037248"><ele>89.0</ele><time>2026-04-29T13:02:59.468Z</time></trkpt><trkpt lat="44.0071903" lon="12.4038269"><ele>88.33333333333334</ele><time>2026-04-29T13:03:00.467Z</time></trkpt><trkpt lat="44.0073551" lon="12.4039172"><ele>87.66666666666667</ele><time>2026-04-29T13:03:01.467Z</time></trkpt><trkpt lat="44.00752" lon="12.4039974"><ele>87.0</ele><time>2026-04-29T13:03:02.467Z</time></trkpt><trkpt lat="44.0076885" lon="12.4040702"><ele>86.66666666666667</ele><time>2026-04-29T13:03:03.467Z</time></trkpt><trkpt lat="44.0078575" lon="12.404141"><ele>86.33333333333334</ele><time>2026-04-29T13:03:04.467Z</time></trkpt><trkpt lat="44.008024" lon="12.4042127"><ele>86.0</ele><time>2026-04-29T13:03:05.467Z</time></trkpt><trkpt lat="44.0081912" lon="12.4042831"><ele>86.33333333333334</ele><time>2026-04-29T13:03:06.467Z</time></trkpt><trkpt lat="44.0083553" lon="12.4043586"><ele>86.66666666666667</ele><time>2026-04-29T13:03:07.467Z</time></trkpt><trkpt lat="44.0085239" lon="12.4044255"><ele>87.0</ele><time>2026-04-29T13:03:08.467Z</time></trkpt><trkpt lat="44.0086909" lon="12.404498"><ele>87.0</ele><time>2026-04-29T13:03:09.467Z</time></trkpt><trkpt lat="44.0088588" lon="12.4045689"><ele>87.0</ele><time>2026-04-29T13:03:10.467Z</time></trkpt><trkpt lat="44.0090271" lon="12.4046399"><ele>87.0</ele><time>2026-04-29T13:03:11.467Z</time></trkpt><trkpt lat="44.0091931" lon="12.4047121"><ele>86.66666666666667</ele><time>2026-04-29T13:03:12.467Z</time></trkpt><trkpt lat="44.0093583" lon="12.4047798"><ele>86.33333333333334</ele><time>2026-04-29T13:03:13.467Z</time></trkpt><trkpt lat="44.009528" lon="12.4048525"><ele>86.0</ele><time>2026-04-29T13:03:14.468Z</time></trkpt><trkpt lat="44.0096989" lon="12.4049207"><ele>86.0</ele><time>2026-04-29T13:03:15.467Z</time></trkpt><trkpt lat="44.0098645" lon="12.4049942"><ele>86.0</ele><time>2026-04-29T13:03:16.467Z</time></trkpt><trkpt lat="44.010024" lon="12.405065"><ele>86.0</ele><time>2026-04-29T13:03:17.468Z</time></trkpt><trkpt lat="44.0101822" lon="12.405134"><ele>86.0</ele><time>2026-04-29T13:03:18.467Z</time></trkpt><trkpt lat="44.0103376" lon="12.4051964"><ele>86.0</ele><time>2026-04-29T13:03:19.468Z</time></trkpt><trkpt lat="44.0104849" lon="12.4052643"><ele>86.0</ele><time>2026-04-29T13:03:20.467Z</time></trkpt><trkpt lat="44.0106273" lon="12.4053391"><ele>86.0</ele><time>2026-04-29T13:03:21.467Z</time></trkpt><trkpt lat="44.0107734" lon="12.4054107"><ele>86.0</ele><time>2026-04-29T13:03:22.467Z</time></trkpt><trkpt lat="44.0109088" lon="12.4054977"><ele>86.0</ele><time>2026-04-29T13:03:23.467Z</time></trkpt><trkpt lat="44.0110393" lon="12.4055847"><ele>86.0</ele><time>2026-04-29T13:03:24.467Z</time></trkpt><trkpt lat="44.011163" lon="12.4056807"><ele>85.75</ele><time>2026-04-29T13:03:25.467Z</time></trkpt><trkpt lat="44.0112852" lon="12.4057837"><ele>85.5</ele><time>2026-04-29T13:03:26.467Z</time></trkpt><trkpt lat="44.0114118" lon="12.4058852"><ele>85.25</ele><time>2026-04-29T13:03:27.467Z</time></trkpt><trkpt lat="44.0115375" lon="12.4059968"><ele>85.0</ele><time>2026-04-29T13:03:28.467Z</time></trkpt><trkpt lat="44.0116644" lon="12.4061029"><ele>84.75</ele><time>2026-04-29T13:03:29.467Z</time></trkpt><trkpt lat="44.0117948" lon="12.4062059"><ele>84.5</ele><time>2026-04-29T13:03:30.467Z</time></trkpt><trkpt lat="44.0119253" lon="12.4063116"><ele>84.25</ele><time>2026-04-29T13:03:31.467Z</time></trkpt><trkpt lat="44.0120364" lon="12.4064016"><ele>84.0</ele><time>2026-04-29T13:03:32.467Z</time></trkpt><trkpt lat="44.0121314" lon="12.4064812"><ele>83.75</ele><time>2026-04-29T13:03:33.467Z</time></trkpt><trkpt lat="44.0122163" lon="12.4065518"><ele>83.5</ele><time>2026-04-29T13:03:34.467Z</time></trkpt><trkpt lat="44.012312" lon="12.4066293"><ele>83.25</ele><time>2026-04-29T13:03:35.467Z</time></trkpt><trkpt lat="44.0124241" lon="12.4067186"><ele>83.0</ele><time>2026-04-29T13:03:36.467Z</time></trkpt><trkpt lat="44.0125477" lon="12.4068178"><ele>82.66666666666667</ele><time>2026-04-29T13:03:37.467Z</time></trkpt><trkpt lat="44.0126734" lon="12.4069252"><ele>82.33333333333333</ele><time>2026-04-29T13:03:38.467Z</time></trkpt><trkpt lat="44.0128076" lon="12.4070331"><ele>82.0</ele><time>2026-04-29T13:03:39.467Z</time></trkpt><trkpt lat="44.0129423" lon="12.4071381"><ele>82.0</ele><time>2026-04-29T13:03:40.467Z</time></trkpt><trkpt lat="44.0130814" lon="12.4072501"><ele>82.0</ele><time>2026-04-29T13:03:41.467Z</time></trkpt><trkpt lat="44.0132234" lon="12.407372"><ele>82.0</ele><time>2026-04-29T13:03:42.467Z</time></trkpt><trkpt lat="44.0133656" lon="12.407492"><ele>82.0</ele><time>2026-04-29T13:03:43.467Z</time></trkpt><trkpt lat="44.0135099" lon="12.4076156"><ele>82.0</ele><time>2026-04-29T13:03:44.468Z</time></trkpt><trkpt lat="44.0136605" lon="12.4077322"><ele>82.0</ele><time>2026-04-29T13:03:45.467Z</time></trkpt><trkpt lat="44.0138063" lon="12.4078466"><ele>82.0</ele><time>2026-04-29T13:03:46.467Z</time></trkpt><trkpt lat="44.0139565" lon="12.4079624"><ele>82.0</ele><time>2026-04-29T13:03:47.467Z</time></trkpt><trkpt lat="44.0141066" lon="12.4080709"><ele>82.0</ele><time>2026-04-29T13:03:48.467Z</time></trkpt><trkpt lat="44.0142564" lon="12.4081805"><ele>81.66666666666666</ele><time>2026-04-29T13:03:49.467Z</time></trkpt><trkpt lat="44.0144089" lon="12.4082873"><ele>81.33333333333333</ele><time>2026-04-29T13:03:50.467Z</time></trkpt><trkpt lat="44.0145595" lon="12.4083928"><ele>81.0</ele><time>2026-04-29T13:03:51.467Z</time></trkpt><trkpt lat="44.0147139" lon="12.4084875"><ele>81.0</ele><time>2026-04-29T13:03:52.467Z</time></trkpt><trkpt lat="44.0148742" lon="12.4085822"><ele>81.0</ele><time>2026-04-29T13:03:53.467Z</time></trkpt><trkpt lat="44.0150356" lon="12.4086726"><ele>81.0</ele><time>2026-04-29T13:03:54.467Z</time></trkpt><trkpt lat="44.0151962" lon="12.4087581"><ele>81.0</ele><time>2026-04-29T13:03:55.467Z</time></trkpt><trkpt lat="44.0153577" lon="12.4088394"><ele>81.0</ele><time>2026-04-29T13:03:56.467Z</time></trkpt><trkpt lat="44.0155207" lon="12.4089176"><ele>81.0</ele><time>2026-04-29T13:03:57.467Z</time></trkpt><trkpt lat="44.015681" lon="12.4089945"><ele>80.66666666666667</ele><time>2026-04-29T13:03:58.467Z</time></trkpt><trkpt lat="44.0158397" lon="12.4090752"><ele>80.33333333333334</ele><time>2026-04-29T13:03:59.467Z</time></trkpt><trkpt lat="44.0159963" lon="12.4091558"><ele>80.0</ele><time>2026-04-29T13:04:00.467Z</time></trkpt><trkpt lat="44.0161564" lon="12.4092351"><ele>80.0</ele><time>2026-04-29T13:04:01.467Z</time></trkpt><trkpt lat="44.0163128" lon="12.4093096"><ele>80.0</ele><time>2026-04-29T13:04:02.467Z</time></trkpt><trkpt lat="44.0164702" lon="12.4093868"><ele>80.0</ele><time>2026-04-29T13:04:03.467Z</time></trkpt><trkpt lat="44.0166295" lon="12.4094646"><ele>79.66666666666667</ele><time>2026-04-29T13:04:04.467Z</time></trkpt><trkpt lat="44.0167886" lon="12.4095436"><ele>79.33333333333333</ele><time>2026-04-29T13:04:05.467Z</time></trkpt><trkpt lat="44.0169461" lon="12.4096222"><ele>79.0</ele><time>2026-04-29T13:04:06.468Z</time></trkpt><trkpt lat="44.0171069" lon="12.4097013"><ele>78.66666666666666</ele><time>2026-04-29T13:04:07.467Z</time></trkpt><trkpt lat="44.0172706" lon="12.4097797"><ele>78.33333333333333</ele><time>2026-04-29T13:04:08.467Z</time></trkpt><trkpt lat="44.0174347" lon="12.4098589"><ele>78.0</ele><time>2026-04-29T13:04:09.467Z</time></trkpt><trkpt lat="44.0176044" lon="12.4099435"><ele>78.0</ele><time>2026-04-29T13:04:10.467Z</time></trkpt><trkpt lat="44.0177704" lon="12.4100323"><ele>78.0</ele><time>2026-04-29T13:04:11.467Z</time></trkpt><trkpt lat="44.0179368" lon="12.4101191"><ele>78.0</ele><time>2026-04-29T13:04:12.467Z</time></trkpt><trkpt lat="44.0180981" lon="12.4102076"><ele>78.0</ele><time>2026-04-29T13:04:13.467Z</time></trkpt><trkpt lat="44.0182623" lon="12.4102868"><ele>78.0</ele><time>2026-04-29T13:04:14.467Z</time></trkpt><trkpt lat="44.0184269" lon="12.4103672"><ele>78.0</ele><time>2026-04-29T13:04:15.467Z</time></trkpt><trkpt lat="44.0185924" lon="12.4104521"><ele>78.0</ele><time>2026-04-29T13:04:16.467Z</time></trkpt><trkpt lat="44.0187563" lon="12.4105358"><ele>78.0</ele><time>2026-04-29T13:04:17.467Z</time></trkpt><trkpt lat="44.0189114" lon="12.4106103"><ele>78.0</ele><time>2026-04-29T13:04:18.467Z</time></trkpt><trkpt lat="44.0190537" lon="12.4106788"><ele>77.75</ele><time>2026-04-29T13:04:19.467Z</time></trkpt><trkpt lat="44.0191938" lon="12.4107493"><ele>77.5</ele><time>2026-04-29T13:04:20.467Z</time></trkpt><trkpt lat="44.019331" lon="12.4108161"><ele>77.25</ele><time>2026-04-29T13:04:21.467Z</time></trkpt><trkpt lat="44.0194659" lon="12.4108838"><ele>77.0</ele><time>2026-04-29T13:04:22.467Z</time></trkpt><trkpt lat="44.0195928" lon="12.4109448"><ele>77.0</ele><time>2026-04-29T13:04:23.467Z</time></trkpt><trkpt lat="44.0197042" lon="12.4110014"><ele>77.0</ele><time>2026-04-29T13:04:24.467Z</time></trkpt><trkpt lat="44.0198138" lon="12.4110546"><ele>77.0</ele><time>2026-04-29T13:04:25.468Z</time></trkpt><trkpt lat="44.0199259" lon="12.4111113"><ele>77.0</ele><time>2026-04-29T13:04:26.467Z</time></trkpt><trkpt lat="44.020047" lon="12.4111678"><ele>76.75</ele><time>2026-04-29T13:04:27.467Z</time></trkpt><trkpt lat="44.0201693" lon="12.4112284"><ele>76.5</ele><time>2026-04-29T13:04:28.467Z</time></trkpt><trkpt lat="44.0202832" lon="12.4112858"><ele>76.25</ele><time>2026-04-29T13:04:29.467Z</time></trkpt><trkpt lat="44.0203866" lon="12.4113351"><ele>76.0</ele><time>2026-04-29T13:04:30.468Z</time></trkpt><trkpt lat="44.0204762" lon="12.4113875"><ele>76.0</ele><time>2026-04-29T13:04:31.467Z</time></trkpt><trkpt lat="44.0205625" lon="12.4114276"><ele>76.0</ele><time>2026-04-29T13:04:32.467Z</time></trkpt><trkpt lat="44.0206392" lon="12.4114665"><ele>76.0</ele><time>2026-04-29T13:04:33.468Z</time></trkpt><trkpt lat="44.0207099" lon="12.4115043"><ele>76.0</ele><time>2026-04-29T13:04:34.467Z</time></trkpt><trkpt lat="44.020808" lon="12.4115571"><ele>76.0</ele><time>2026-04-29T13:04:36.467Z</time></trkpt><trkpt lat="44.0208243" lon="12.4116473"><ele>76.0</ele><time>2026-04-29T13:04:38.467Z</time></trkpt><trkpt lat="44.0207871" lon="12.411741"><ele>76.0</ele><time>2026-04-29T13:04:39.467Z</time></trkpt><trkpt lat="44.020744" lon="12.4118479"><ele>76.0</ele><time>2026-04-29T13:04:40.467Z</time></trkpt><trkpt lat="44.0206937" lon="12.4119557"><ele>76.0</ele><time>2026-04-29T13:04:41.467Z</time></trkpt><trkpt lat="44.0206394" lon="12.4120397"><ele>76.0</ele><time>2026-04-29T13:04:42.467Z</time></trkpt><trkpt lat="44.0205739" lon="12.412109"><ele>76.0</ele><time>2026-04-29T13:04:43.467Z</time></trkpt><trkpt lat="44.0205016" lon="12.4121283"><ele>76.0</ele><time>2026-04-29T13:04:44.467Z</time></trkpt><trkpt lat="44.0204153" lon="12.4121156"><ele>76.0</ele><time>2026-04-29T13:04:45.467Z</time></trkpt><trkpt lat="44.0203168" lon="12.4120945"><ele>76.0</ele><time>2026-04-29T13:04:46.468Z</time></trkpt><trkpt lat="44.0202215" lon="12.4120724"><ele>76.0</ele><time>2026-04-29T13:04:47.468Z</time></trkpt><trkpt lat="44.020133" lon="12.4120555"><ele>76.0</ele><time>2026-04-29T13:04:48.467Z</time></trkpt><trkpt lat="44.0200484" lon="12.4120487"><ele>76.0</ele><time>2026-04-29T13:04:49.467Z</time></trkpt><trkpt lat="44.0199695" lon="12.4120701"><ele>76.0</ele><time>2026-04-29T13:04:50.467Z</time></trkpt><trkpt lat="44.0198946" lon="12.4121372"><ele>76.0</ele><time>2026-04-29T13:04:51.467Z</time></trkpt><trkpt lat="44.0198268" lon="12.4122328"><ele>76.0</ele><time>2026-04-29T13:04:52.467Z</time></trkpt><trkpt lat="44.0197855" lon="12.4123308"><ele>76.0</ele><time>2026-04-29T13:04:53.467Z</time></trkpt><trkpt lat="44.0197552" lon="12.4124328"><ele>76.0</ele><time>2026-04-29T13:04:54.467Z</time></trkpt><trkpt lat="44.0197302" lon="12.4125147"><ele>76.0</ele><time>2026-04-29T13:04:55.467Z</time></trkpt><trkpt lat="44.0196876" lon="12.4126495"><ele>75.39999999999999</ele><time>2026-04-29T13:04:57.468Z</time></trkpt><trkpt lat="44.0196533" lon="12.4127365"><ele>74.8</ele><time>2026-04-29T13:04:59.467Z</time></trkpt><trkpt lat="44.0196912" lon="12.4128405"><ele>74.19999999999999</ele><time>2026-04-29T13:05:03.467Z</time></trkpt><trkpt lat="44.0198302" lon="12.4129168"><ele>73.6</ele><time>2026-04-29T13:05:05.467Z</time></trkpt><trkpt lat="44.0199195" lon="12.4129698"><ele>73.0</ele><time>2026-04-29T13:05:06.467Z</time></trkpt><trkpt lat="44.0200214" lon="12.4130265"><ele>73.0</ele><time>2026-04-29T13:05:07.467Z</time></trkpt><trkpt lat="44.0201384" lon="12.4130867"><ele>73.0</ele><time>2026-04-29T13:05:08.467Z</time></trkpt><trkpt lat="44.0202621" lon="12.4131519"><ele>73.0</ele><time>2026-04-29T13:05:09.468Z</time></trkpt><trkpt lat="44.0203896" lon="12.4132255"><ele>73.0</ele><time>2026-04-29T13:05:10.467Z</time></trkpt><trkpt lat="44.0205188" lon="12.4132925"><ele>73.0</ele><time>2026-04-29T13:05:11.467Z</time></trkpt><trkpt lat="44.0206413" lon="12.4133602"><ele>73.0</ele><time>2026-04-29T13:05:12.467Z</time></trkpt><trkpt lat="44.0207587" lon="12.4134283"><ele>73.0</ele><time>2026-04-29T13:05:13.467Z</time></trkpt><trkpt lat="44.0208645" lon="12.413501"><ele>73.0</ele><time>2026-04-29T13:05:14.467Z</time></trkpt><trkpt lat="44.020957" lon="12.4135682"><ele>73.2</ele><time>2026-04-29T13:05:15.467Z</time></trkpt><trkpt lat="44.0210497" lon="12.4136222"><ele>73.4</ele><time>2026-04-29T13:05:16.467Z</time></trkpt><trkpt lat="44.0211494" lon="12.413674"><ele>73.60000000000001</ele><time>2026-04-29T13:05:17.467Z</time></trkpt><trkpt lat="44.0212562" lon="12.4137194"><ele>73.8</ele><time>2026-04-29T13:05:18.467Z</time></trkpt><trkpt lat="44.0213679" lon="12.4137735"><ele>74.0</ele><time>2026-04-29T13:05:19.468Z</time></trkpt><trkpt lat="44.0214743" lon="12.4138424"><ele>73.8</ele><time>2026-04-29T13:05:20.468Z</time></trkpt><trkpt lat="44.0215708" lon="12.4139117"><ele>73.60000000000001</ele><time>2026-04-29T13:05:21.467Z</time></trkpt><trkpt lat="44.0216624" lon="12.4139713"><ele>73.4</ele><time>2026-04-29T13:05:22.467Z</time></trkpt><trkpt lat="44.0217616" lon="12.4140346"><ele>73.2</ele><time>2026-04-29T13:05:23.467Z</time></trkpt><trkpt lat="44.0218635" lon="12.4141066"><ele>73.0</ele><time>2026-04-29T13:05:24.467Z</time></trkpt><trkpt lat="44.0219704" lon="12.4141817"><ele>73.0</ele><time>2026-04-29T13:05:25.467Z</time></trkpt><trkpt lat="44.0220777" lon="12.4142665"><ele>73.0</ele><time>2026-04-29T13:05:26.467Z</time></trkpt><trkpt lat="44.0221814" lon="12.4143451"><ele>73.0</ele><time>2026-04-29T13:05:27.467Z</time></trkpt><trkpt lat="44.0222833" lon="12.4144126"><ele>73.0</ele><time>2026-04-29T13:05:28.468Z</time></trkpt><trkpt lat="44.0223858" lon="12.4144785"><ele>73.0</ele><time>2026-04-29T13:05:29.467Z</time></trkpt><trkpt lat="44.0224897" lon="12.41454"><ele>73.0</ele><time>2026-04-29T13:05:30.467Z</time></trkpt><trkpt lat="44.02259" lon="12.4145984"><ele>73.0</ele><time>2026-04-29T13:05:31.467Z</time></trkpt><trkpt lat="44.0226818" lon="12.4146551"><ele>73.0</ele><time>2026-04-29T13:05:32.467Z</time></trkpt><trkpt lat="44.0227692" lon="12.4147038"><ele>73.0</ele><time>2026-04-29T13:05:33.467Z</time></trkpt><trkpt lat="44.0228457" lon="12.4147426"><ele>72.66666666666666</ele><time>2026-04-29T13:05:34.467Z</time></trkpt><trkpt lat="44.0229136" lon="12.4147721"><ele>72.33333333333333</ele><time>2026-04-29T13:05:35.467Z</time></trkpt><trkpt lat="44.0230184" lon="12.414831"><ele>72.0</ele><time>2026-04-29T13:05:37.467Z</time></trkpt><trkpt lat="44.0231112" lon="12.4148521"><ele>71.66666666666667</ele><time>2026-04-29T13:05:39.467Z</time></trkpt><trkpt lat="44.0232006" lon="12.4148392"><ele>71.33333333333334</ele><time>2026-04-29T13:05:41.467Z</time></trkpt><trkpt lat="44.0232728" lon="12.4147926"><ele>71.0</ele><time>2026-04-29T13:05:43.467Z</time></trkpt><trkpt lat="44.0233553" lon="12.4147255"><ele>70.8</ele><time>2026-04-29T13:05:45.467Z</time></trkpt><trkpt lat="44.0234481" lon="12.4145973"><ele>70.6</ele><time>2026-04-29T13:05:47.467Z</time></trkpt><trkpt lat="44.0235037" lon="12.4145026"><ele>70.4</ele><time>2026-04-29T13:05:48.468Z</time></trkpt><trkpt lat="44.0235626" lon="12.4144045"><ele>70.2</ele><time>2026-04-29T13:05:49.467Z</time></trkpt><trkpt lat="44.023617" lon="12.414307"><ele>70.0</ele><time>2026-04-29T13:05:50.468Z</time></trkpt><trkpt lat="44.0236668" lon="12.4142073"><ele>70.0</ele><time>2026-04-29T13:05:51.467Z</time></trkpt><trkpt lat="44.023719" lon="12.4141158"><ele>70.0</ele><time>2026-04-29T13:05:52.467Z</time></trkpt><trkpt lat="44.0237661" lon="12.4140402"><ele>70.0</ele><time>2026-04-29T13:05:53.467Z</time></trkpt><trkpt lat="44.0238433" lon="12.4139234"><ele>70.0</ele><time>2026-04-29T13:05:55.467Z</time></trkpt><trkpt lat="44.0239245" lon="12.4138462"><ele>70.0</ele><time>2026-04-29T13:05:57.467Z</time></trkpt><trkpt lat="44.0239926" lon="12.4138268"><ele>70.0</ele><time>2026-04-29T13:05:59.467Z</time></trkpt><trkpt lat="44.0241046" lon="12.4138584"><ele>70.0</ele><time>2026-04-29T13:06:01.467Z</time></trkpt><trkpt lat="44.0241786" lon="12.4138933"><ele>70.0</ele><time>2026-04-29T13:06:02.467Z</time></trkpt><trkpt lat="44.0242739" lon="12.4139369"><ele>70.0</ele><time>2026-04-29T13:06:03.467Z</time></trkpt><trkpt lat="44.0243772" lon="12.4139848"><ele>70.0</ele><time>2026-04-29T13:06:04.468Z</time></trkpt><trkpt lat="44.0244958" lon="12.4140454"><ele>70.0</ele><time>2026-04-29T13:06:05.467Z</time></trkpt><trkpt lat="44.0246325" lon="12.4140992"><ele>70.0</ele><time>2026-04-29T13:06:06.468Z</time></trkpt><trkpt lat="44.0247764" lon="12.4141535"><ele>70.0</ele><time>2026-04-29T13:06:07.467Z</time></trkpt><trkpt lat="44.024922" lon="12.4142097"><ele>70.0</ele><time>2026-04-29T13:06:08.467Z</time></trkpt><trkpt lat="44.0250645" lon="12.4142697"><ele>70.0</ele><time>2026-04-29T13:06:09.467Z</time></trkpt><trkpt lat="44.0252143" lon="12.4143246"><ele>71.0</ele><time>2026-04-29T13:06:10.467Z</time></trkpt><trkpt lat="44.0253681" lon="12.4143899"><ele>72.0</ele><time>2026-04-29T13:06:11.467Z</time></trkpt><trkpt lat="44.0255261" lon="12.4144572"><ele>73.0</ele><time>2026-04-29T13:06:12.467Z</time></trkpt><trkpt lat="44.025685" lon="12.4145295"><ele>73.0</ele><time>2026-04-29T13:06:13.467Z</time></trkpt><trkpt lat="44.0258451" lon="12.4146074"><ele>73.0</ele><time>2026-04-29T13:06:14.467Z</time></trkpt><trkpt lat="44.0260068" lon="12.4146981"><ele>73.0</ele><time>2026-04-29T13:06:15.467Z</time></trkpt><trkpt lat="44.0261617" lon="12.4148099"><ele>73.0</ele><time>2026-04-29T13:06:16.467Z</time></trkpt><trkpt lat="44.02631" lon="12.4149282"><ele>73.0</ele><time>2026-04-29T13:06:17.467Z</time></trkpt><trkpt lat="44.0264555" lon="12.4150612"><ele>73.0</ele><time>2026-04-29T13:06:18.467Z</time></trkpt><trkpt lat="44.0265951" lon="12.415205"><ele>73.0</ele><time>2026-04-29T13:06:19.467Z</time></trkpt><trkpt lat="44.0267346" lon="12.415356"><ele>73.0</ele><time>2026-04-29T13:06:20.467Z</time></trkpt><trkpt lat="44.0268757" lon="12.4154963"><ele>73.0</ele><time>2026-04-29T13:06:21.467Z</time></trkpt><trkpt lat="44.0270154" lon="12.4156363"><ele>72.66666666666666</ele><time>2026-04-29T13:06:22.467Z</time></trkpt><trkpt lat="44.0271543" lon="12.4157781"><ele>72.33333333333333</ele><time>2026-04-29T13:06:23.467Z</time></trkpt><trkpt lat="44.027286" lon="12.4159141"><ele>72.0</ele><time>2026-04-29T13:06:24.467Z</time></trkpt><trkpt lat="44.0274183" lon="12.4160516"><ele>72.33333333333333</ele><time>2026-04-29T13:06:25.468Z</time></trkpt><trkpt lat="44.0275572" lon="12.4161779"><ele>72.66666666666666</ele><time>2026-04-29T13:06:26.467Z</time></trkpt><trkpt lat="44.0276978" lon="12.416303"><ele>73.0</ele><time>2026-04-29T13:06:27.467Z</time></trkpt><trkpt lat="44.0278381" lon="12.4164217"><ele>72.0</ele><time>2026-04-29T13:06:28.467Z</time></trkpt><trkpt lat="44.0279801" lon="12.416537"><ele>71.0</ele><time>2026-04-29T13:06:29.467Z</time></trkpt><trkpt lat="44.0281248" lon="12.416648"><ele>70.0</ele><time>2026-04-29T13:06:30.467Z</time></trkpt><trkpt lat="44.0282706" lon="12.4167536"><ele>70.33333333333333</ele><time>2026-04-29T13:06:31.467Z</time></trkpt><trkpt lat="44.0284197" lon="12.4168561"><ele>70.66666666666667</ele><time>2026-04-29T13:06:32.468Z</time></trkpt><trkpt lat="44.0285678" lon="12.4169615"><ele>71.0</ele><time>2026-04-29T13:06:33.468Z</time></trkpt><trkpt lat="44.0287208" lon="12.4170651"><ele>70.33333333333334</ele><time>2026-04-29T13:06:34.468Z</time></trkpt><trkpt lat="44.0288702" lon="12.4171666"><ele>69.66666666666667</ele><time>2026-04-29T13:06:35.467Z</time></trkpt><trkpt lat="44.0290222" lon="12.4172664"><ele>69.0</ele><time>2026-04-29T13:06:36.467Z</time></trkpt><trkpt lat="44.029174" lon="12.4173662"><ele>69.0</ele><time>2026-04-29T13:06:37.467Z</time></trkpt><trkpt lat="44.029324" lon="12.4174728"><ele>69.0</ele><time>2026-04-29T13:06:38.467Z</time></trkpt><trkpt lat="44.0294748" lon="12.4175777"><ele>69.0</ele><time>2026-04-29T13:06:39.467Z</time></trkpt><trkpt lat="44.0296172" lon="12.4176766"><ele>69.0</ele><time>2026-04-29T13:06:40.467Z</time></trkpt><trkpt lat="44.0297559" lon="12.417775"><ele>69.0</ele><time>2026-04-29T13:06:41.467Z</time></trkpt><trkpt lat="44.0298909" lon="12.4178708"><ele>69.0</ele><time>2026-04-29T13:06:42.467Z</time></trkpt><trkpt lat="44.0300233" lon="12.4179591"><ele>68.75</ele><time>2026-04-29T13:06:43.467Z</time></trkpt><trkpt lat="44.0301581" lon="12.4180433"><ele>68.5</ele><time>2026-04-29T13:06:44.467Z</time></trkpt><trkpt lat="44.030289" lon="12.4181299"><ele>68.25</ele><time>2026-04-29T13:06:45.467Z</time></trkpt><trkpt lat="44.0304231" lon="12.4182025"><ele>68.0</ele><time>2026-04-29T13:06:46.467Z</time></trkpt><trkpt lat="44.0305566" lon="12.4182744"><ele>68.0</ele><time>2026-04-29T13:06:47.467Z</time></trkpt><trkpt lat="44.0306868" lon="12.4183445"><ele>68.0</ele><time>2026-04-29T13:06:48.467Z</time></trkpt><trkpt lat="44.0308163" lon="12.4184071"><ele>68.0</ele><time>2026-04-29T13:06:49.467Z</time></trkpt><trkpt lat="44.0309442" lon="12.4184721"><ele>68.0</ele><time>2026-04-29T13:06:50.467Z</time></trkpt><trkpt lat="44.0310676" lon="12.4185337"><ele>68.5</ele><time>2026-04-29T13:06:51.467Z</time></trkpt><trkpt lat="44.031198" lon="12.4185917"><ele>69.0</ele><time>2026-04-29T13:06:52.467Z</time></trkpt><trkpt lat="44.0313274" lon="12.4186527"><ele>69.5</ele><time>2026-04-29T13:06:53.467Z</time></trkpt><trkpt lat="44.0314559" lon="12.4187114"><ele>70.0</ele><time>2026-04-29T13:06:54.468Z</time></trkpt><trkpt lat="44.0315828" lon="12.418774"><ele>69.25</ele><time>2026-04-29T13:06:55.467Z</time></trkpt><trkpt lat="44.0316993" lon="12.4188369"><ele>68.5</ele><time>2026-04-29T13:06:56.467Z</time></trkpt><trkpt lat="44.0318138" lon="12.4189035"><ele>67.75</ele><time>2026-04-29T13:06:57.468Z</time></trkpt><trkpt lat="44.0319245" lon="12.4189756"><ele>67.0</ele><time>2026-04-29T13:06:58.467Z</time></trkpt><trkpt lat="44.0320318" lon="12.4190547"><ele>67.0</ele><time>2026-04-29T13:06:59.467Z</time></trkpt><trkpt lat="44.0321376" lon="12.4191442"><ele>67.0</ele><time>2026-04-29T13:07:00.467Z</time></trkpt><trkpt lat="44.0322341" lon="12.4192309"><ele>67.0</ele><time>2026-04-29T13:07:01.467Z</time></trkpt><trkpt lat="44.0323223" lon="12.41932"><ele>67.0</ele><time>2026-04-29T13:07:02.467Z</time></trkpt><trkpt lat="44.032397" lon="12.4194092"><ele>67.0</ele><time>2026-04-29T13:07:03.467Z</time></trkpt><trkpt lat="44.0324582" lon="12.419479"><ele>67.14285714285714</ele><time>2026-04-29T13:07:04.467Z</time></trkpt><trkpt lat="44.0325077" lon="12.4195362"><ele>67.28571428571428</ele><time>2026-04-29T13:07:05.467Z</time></trkpt><trkpt lat="44.0325777" lon="12.4196226"><ele>67.42857142857142</ele><time>2026-04-29T13:07:07.467Z</time></trkpt><trkpt lat="44.0326248" lon="12.4196954"><ele>67.57142857142857</ele><time>2026-04-29T13:07:09.467Z</time></trkpt><trkpt lat="44.0326617" lon="12.4197815"><ele>67.71428571428571</ele><time>2026-04-29T13:07:12.467Z</time></trkpt><trkpt lat="44.0326836" lon="12.4198689"><ele>67.85714285714285</ele><time>2026-04-29T13:07:23.467Z</time></trkpt><trkpt lat="44.0327195" lon="12.4199605"><ele>68.0</ele><time>2026-04-29T13:07:25.467Z</time></trkpt><trkpt lat="44.0327945" lon="12.4200232"><ele>67.66666666666667</ele><time>2026-04-29T13:07:27.467Z</time></trkpt><trkpt lat="44.0329215" lon="12.4200671"><ele>67.33333333333334</ele><time>2026-04-29T13:07:29.467Z</time></trkpt><trkpt lat="44.0329891" lon="12.4201067"><ele>67.0</ele><time>2026-04-29T13:07:30.467Z</time></trkpt><trkpt lat="44.0330489" lon="12.4201542"><ele>66.66666666666667</ele><time>2026-04-29T13:07:31.467Z</time></trkpt><trkpt lat="44.0331048" lon="12.4202164"><ele>66.33333333333333</ele><time>2026-04-29T13:07:32.467Z</time></trkpt><trkpt lat="44.0331669" lon="12.420294"><ele>66.0</ele><time>2026-04-29T13:07:33.467Z</time></trkpt><trkpt lat="44.033235" lon="12.4203806"><ele>66.0</ele><time>2026-04-29T13:07:34.467Z</time></trkpt><trkpt lat="44.0333017" lon="12.4204635"><ele>66.0</ele><time>2026-04-29T13:07:35.468Z</time></trkpt><trkpt lat="44.0333726" lon="12.4205504"><ele>66.0</ele><time>2026-04-29T13:07:36.467Z</time></trkpt><trkpt lat="44.0334515" lon="12.4206434"><ele>66.0</ele><time>2026-04-29T13:07:37.467Z</time></trkpt><trkpt lat="44.0335305" lon="12.4207335"><ele>66.0</ele><time>2026-04-29T13:07:38.467Z</time></trkpt><trkpt lat="44.0336131" lon="12.4208193"><ele>65.25</ele><time>2026-04-29T13:07:39.467Z</time></trkpt><trkpt lat="44.0336979" lon="12.420913"><ele>64.5</ele><time>2026-04-29T13:07:40.467Z</time></trkpt><trkpt lat="44.0337832" lon="12.4210162"><ele>63.75</ele><time>2026-04-29T13:07:41.467Z</time></trkpt><trkpt lat="44.0338766" lon="12.4211243"><ele>63.0</ele><time>2026-04-29T13:07:42.467Z</time></trkpt><trkpt lat="44.0339725" lon="12.4212287"><ele>62.75</ele><time>2026-04-29T13:07:43.467Z</time></trkpt><trkpt lat="44.0340666" lon="12.421338"><ele>62.5</ele><time>2026-04-29T13:07:44.467Z</time></trkpt><trkpt lat="44.0341606" lon="12.4214465"><ele>62.25</ele><time>2026-04-29T13:07:45.468Z</time></trkpt><trkpt lat="44.0342551" lon="12.4215548"><ele>62.0</ele><time>2026-04-29T13:07:46.468Z</time></trkpt><trkpt lat="44.0343491" lon="12.42166"><ele>62.75</ele><time>2026-04-29T13:07:47.467Z</time></trkpt><trkpt lat="44.0344442" lon="12.4217639"><ele>63.5</ele><time>2026-04-29T13:07:48.467Z</time></trkpt><trkpt lat="44.0345359" lon="12.4218715"><ele>64.25</ele><time>2026-04-29T13:07:49.467Z</time></trkpt><trkpt lat="44.0346291" lon="12.4219787"><ele>65.0</ele><time>2026-04-29T13:07:50.467Z</time></trkpt><trkpt lat="44.0347242" lon="12.4220846"><ele>64.5</ele><time>2026-04-29T13:07:51.467Z</time></trkpt><trkpt lat="44.0348166" lon="12.422191"><ele>64.0</ele><time>2026-04-29T13:07:52.467Z</time></trkpt><trkpt lat="44.034907" lon="12.4222937"><ele>63.5</ele><time>2026-04-29T13:07:53.467Z</time></trkpt><trkpt lat="44.034996" lon="12.4223963"><ele>63.0</ele><time>2026-04-29T13:07:54.467Z</time></trkpt><trkpt lat="44.0350862" lon="12.4224973"><ele>63.0</ele><time>2026-04-29T13:07:55.467Z</time></trkpt><trkpt lat="44.0351812" lon="12.4226044"><ele>63.0</ele><time>2026-04-29T13:07:56.467Z</time></trkpt><trkpt lat="44.0352782" lon="12.4227117"><ele>63.0</ele><time>2026-04-29T13:07:57.467Z</time></trkpt><trkpt lat="44.0353794" lon="12.4228246"><ele>63.0</ele><time>2026-04-29T13:07:58.467Z</time></trkpt><trkpt lat="44.0354823" lon="12.4229373"><ele>62.75</ele><time>2026-04-29T13:07:59.467Z</time></trkpt><trkpt lat="44.0355853" lon="12.4230545"><ele>62.5</ele><time>2026-04-29T13:08:00.467Z</time></trkpt><trkpt lat="44.0356905" lon="12.4231747"><ele>62.25</ele><time>2026-04-29T13:08:01.467Z</time></trkpt><trkpt lat="44.0357943" lon="12.4232955"><ele>62.0</ele><time>2026-04-29T13:08:02.467Z</time></trkpt><trkpt lat="44.0359028" lon="12.4234182"><ele>62.0</ele><time>2026-04-29T13:08:03.467Z</time></trkpt><trkpt lat="44.0360071" lon="12.4235465"><ele>62.0</ele><time>2026-04-29T13:08:04.467Z</time></trkpt><trkpt lat="44.0361132" lon="12.4236674"><ele>62.0</ele><time>2026-04-29T13:08:05.467Z</time></trkpt><trkpt lat="44.0362223" lon="12.4237943"><ele>62.0</ele><time>2026-04-29T13:08:06.467Z</time></trkpt><trkpt lat="44.0363305" lon="12.4239232"><ele>62.0</ele><time>2026-04-29T13:08:07.467Z</time></trkpt><trkpt lat="44.0364336" lon="12.4240478"><ele>62.0</ele><time>2026-04-29T13:08:08.467Z</time></trkpt><trkpt lat="44.0365359" lon="12.4241786"><ele>62.0</ele><time>2026-04-29T13:08:09.467Z</time></trkpt><trkpt lat="44.0366349" lon="12.4243098"><ele>62.0</ele><time>2026-04-29T13:08:10.467Z</time></trkpt><trkpt lat="44.0367354" lon="12.4244413"><ele>62.0</ele><time>2026-04-29T13:08:11.467Z</time></trkpt><trkpt lat="44.0368386" lon="12.4245666"><ele>62.0</ele><time>2026-04-29T13:08:12.467Z</time></trkpt><trkpt lat="44.0369387" lon="12.4247023"><ele>62.0</ele><time>2026-04-29T13:08:13.467Z</time></trkpt><trkpt lat="44.0370374" lon="12.4248316"><ele>62.0</ele><time>2026-04-29T13:08:14.467Z</time></trkpt><trkpt lat="44.0371373" lon="12.4249597"><ele>61.5</ele><time>2026-04-29T13:08:15.467Z</time></trkpt><trkpt lat="44.0372424" lon="12.4250929"><ele>61.0</ele><time>2026-04-29T13:08:16.467Z</time></trkpt><trkpt lat="44.0373459" lon="12.4252238"><ele>60.5</ele><time>2026-04-29T13:08:17.467Z</time></trkpt><trkpt lat="44.0374486" lon="12.4253584"><ele>60.0</ele><time>2026-04-29T13:08:18.467Z</time></trkpt><trkpt lat="44.0375507" lon="12.4254941"><ele>60.0</ele><time>2026-04-29T13:08:19.467Z</time></trkpt><trkpt lat="44.0376542" lon="12.4256226"><ele>60.0</ele><time>2026-04-29T13:08:20.467Z</time></trkpt><trkpt lat="44.0377511" lon="12.4257467"><ele>60.0</ele><time>2026-04-29T13:08:21.467Z</time></trkpt><trkpt lat="44.0378434" lon="12.4258652"><ele>60.0</ele><time>2026-04-29T13:08:22.467Z</time></trkpt><trkpt lat="44.037934" lon="12.4259811"><ele>60.0</ele><time>2026-04-29T13:08:23.467Z</time></trkpt><trkpt lat="44.0380292" lon="12.426101"><ele>60.0</ele><time>2026-04-29T13:08:24.467Z</time></trkpt><trkpt lat="44.0381281" lon="12.4262268"><ele>60.0</ele><time>2026-04-29T13:08:25.466Z</time></trkpt><trkpt lat="44.0382245" lon="12.4263519"><ele>60.0</ele><time>2026-04-29T13:08:26.467Z</time></trkpt><trkpt lat="44.0383225" lon="12.4264729"><ele>59.5</ele><time>2026-04-29T13:08:27.467Z</time></trkpt><trkpt lat="44.0384168" lon="12.4265989"><ele>59.0</ele><time>2026-04-29T13:08:28.467Z</time></trkpt><trkpt lat="44.0385167" lon="12.4267266"><ele>58.5</ele><time>2026-04-29T13:08:29.467Z</time></trkpt><trkpt lat="44.0386144" lon="12.4268572"><ele>58.0</ele><time>2026-04-29T13:08:30.468Z</time></trkpt><trkpt lat="44.0387154" lon="12.4269863"><ele>58.0</ele><time>2026-04-29T13:08:31.467Z</time></trkpt><trkpt lat="44.0388163" lon="12.4271102"><ele>58.0</ele><time>2026-04-29T13:08:32.467Z</time></trkpt><trkpt lat="44.0389167" lon="12.427235"><ele>58.0</ele><time>2026-04-29T13:08:33.467Z</time></trkpt><trkpt lat="44.0390188" lon="12.4273575"><ele>58.0</ele><time>2026-04-29T13:08:34.467Z</time></trkpt><trkpt lat="44.0391197" lon="12.4274804"><ele>58.0</ele><time>2026-04-29T13:08:35.467Z</time></trkpt><trkpt lat="44.0392195" lon="12.4275921"><ele>58.0</ele><time>2026-04-29T13:08:36.467Z</time></trkpt><trkpt lat="44.0393173" lon="12.4277032"><ele>58.0</ele><time>2026-04-29T13:08:37.467Z</time></trkpt><trkpt lat="44.0394181" lon="12.4278088"><ele>58.0</ele><time>2026-04-29T13:08:38.467Z</time></trkpt><trkpt lat="44.0395151" lon="12.4279172"><ele>58.0</ele><time>2026-04-29T13:08:39.467Z</time></trkpt><trkpt lat="44.0396154" lon="12.4280253"><ele>58.0</ele><time>2026-04-29T13:08:40.467Z</time></trkpt><trkpt lat="44.0397164" lon="12.4281295"><ele>58.0</ele><time>2026-04-29T13:08:41.467Z</time></trkpt><trkpt lat="44.0398233" lon="12.4282352"><ele>58.0</ele><time>2026-04-29T13:08:42.467Z</time></trkpt><trkpt lat="44.0399306" lon="12.428336"><ele>57.5</ele><time>2026-04-29T13:08:43.467Z</time></trkpt><trkpt lat="44.0400426" lon="12.4284122"><ele>57.0</ele><time>2026-04-29T13:08:44.467Z</time></trkpt><trkpt lat="44.040164" lon="12.4284631"><ele>56.5</ele><time>2026-04-29T13:08:45.467Z</time></trkpt><trkpt lat="44.0403012" lon="12.428492"><ele>56.0</ele><time>2026-04-29T13:08:46.468Z</time></trkpt><trkpt lat="44.0404415" lon="12.4284995"><ele>56.0</ele><time>2026-04-29T13:08:47.467Z</time></trkpt><trkpt lat="44.0405795" lon="12.4285118"><ele>56.0</ele><time>2026-04-29T13:08:48.468Z</time></trkpt><trkpt lat="44.0407142" lon="12.4285312"><ele>56.0</ele><time>2026-04-29T13:08:49.467Z</time></trkpt><trkpt lat="44.0408468" lon="12.4285374"><ele>56.0</ele><time>2026-04-29T13:08:50.466Z</time></trkpt><trkpt lat="44.0409715" lon="12.4285468"><ele>56.0</ele><time>2026-04-29T13:08:51.466Z</time></trkpt><trkpt lat="44.041094" lon="12.4285573"><ele>56.0</ele><time>2026-04-29T13:08:52.466Z</time></trkpt><trkpt lat="44.0412109" lon="12.4285687"><ele>56.0</ele><time>2026-04-29T13:08:53.466Z</time></trkpt><trkpt lat="44.0413268" lon="12.428575"><ele>56.0</ele><time>2026-04-29T13:08:54.466Z</time></trkpt><trkpt lat="44.0414383" lon="12.4285812"><ele>56.0</ele><time>2026-04-29T13:08:55.466Z</time></trkpt><trkpt lat="44.0415538" lon="12.4285909"><ele>56.0</ele><time>2026-04-29T13:08:56.466Z</time></trkpt><trkpt lat="44.0416706" lon="12.4286014"><ele>56.0</ele><time>2026-04-29T13:08:57.466Z</time></trkpt><trkpt lat="44.0417914" lon="12.4286113"><ele>56.0</ele><time>2026-04-29T13:08:58.466Z</time></trkpt><trkpt lat="44.0419119" lon="12.4286236"><ele>55.75</ele><time>2026-04-29T13:08:59.466Z</time></trkpt><trkpt lat="44.0420336" lon="12.4286358"><ele>55.5</ele><time>2026-04-29T13:09:00.467Z</time></trkpt><trkpt lat="44.0421534" lon="12.4286415"><ele>55.25</ele><time>2026-04-29T13:09:01.466Z</time></trkpt><trkpt lat="44.0422695" lon="12.4286475"><ele>55.0</ele><time>2026-04-29T13:09:02.466Z</time></trkpt><trkpt lat="44.0423827" lon="12.4286523"><ele>54.75</ele><time>2026-04-29T13:09:03.466Z</time></trkpt><trkpt lat="44.0424966" lon="12.4286607"><ele>54.5</ele><time>2026-04-29T13:09:04.466Z</time></trkpt><trkpt lat="44.0426141" lon="12.4286665"><ele>54.25</ele><time>2026-04-29T13:09:05.466Z</time></trkpt><trkpt lat="44.0427375" lon="12.4286709"><ele>54.0</ele><time>2026-04-29T13:09:06.466Z</time></trkpt><trkpt lat="44.0428649" lon="12.4286725"><ele>54.0</ele><time>2026-04-29T13:09:07.466Z</time></trkpt><trkpt lat="44.0429923" lon="12.4286728"><ele>54.0</ele><time>2026-04-29T13:09:08.467Z</time></trkpt><trkpt lat="44.04313" lon="12.4286738"><ele>54.0</ele><time>2026-04-29T13:09:09.466Z</time></trkpt><trkpt lat="44.0432652" lon="12.4286843"><ele>54.0</ele><time>2026-04-29T13:09:10.466Z</time></trkpt><trkpt lat="44.0433975" lon="12.4287051"><ele>54.0</ele><time>2026-04-29T13:09:11.466Z</time></trkpt><trkpt lat="44.0435346" lon="12.4287413"><ele>54.0</ele><time>2026-04-29T13:09:12.466Z</time></trkpt><trkpt lat="44.043673" lon="12.4288012"><ele>54.0</ele><time>2026-04-29T13:09:13.466Z</time></trkpt><trkpt lat="44.043813" lon="12.4288825"><ele>54.0</ele><time>2026-04-29T13:09:14.466Z</time></trkpt><trkpt lat="44.0439488" lon="12.428968"><ele>54.0</ele><time>2026-04-29T13:09:15.466Z</time></trkpt><trkpt lat="44.0440936" lon="12.4290517"><ele>54.0</ele><time>2026-04-29T13:09:16.466Z</time></trkpt><trkpt lat="44.0442323" lon="12.4291329"><ele>54.0</ele><time>2026-04-29T13:09:17.466Z</time></trkpt><trkpt lat="44.044368" lon="12.4292136"><ele>54.0</ele><time>2026-04-29T13:09:18.467Z</time></trkpt><trkpt lat="44.0445021" lon="12.429293"><ele>54.0</ele><time>2026-04-29T13:09:19.467Z</time></trkpt><trkpt lat="44.0446359" lon="12.429373"><ele>54.0</ele><time>2026-04-29T13:09:20.466Z</time></trkpt><trkpt lat="44.0447712" lon="12.4294516"><ele>54.0</ele><time>2026-04-29T13:09:21.466Z</time></trkpt><trkpt lat="44.0449093" lon="12.4295375"><ele>54.0</ele><time>2026-04-29T13:09:22.466Z</time></trkpt><trkpt lat="44.0450498" lon="12.4296208"><ele>54.0</ele><time>2026-04-29T13:09:23.467Z</time></trkpt><trkpt lat="44.0451917" lon="12.429709"><ele>54.0</ele><time>2026-04-29T13:09:24.466Z</time></trkpt><trkpt lat="44.045337" lon="12.4297947"><ele>54.0</ele><time>2026-04-29T13:09:25.466Z</time></trkpt><trkpt lat="44.0454834" lon="12.4298789"><ele>54.0</ele><time>2026-04-29T13:09:26.466Z</time></trkpt><trkpt lat="44.0456346" lon="12.4299617"><ele>54.0</ele><time>2026-04-29T13:09:27.466Z</time></trkpt><trkpt lat="44.0457884" lon="12.43005"><ele>53.0</ele><time>2026-04-29T13:09:28.466Z</time></trkpt><trkpt lat="44.0459469" lon="12.4301415"><ele>52.0</ele><time>2026-04-29T13:09:29.466Z</time></trkpt><trkpt lat="44.0461027" lon="12.4302356"><ele>51.0</ele><time>2026-04-29T13:09:30.466Z</time></trkpt><trkpt lat="44.0462552" lon="12.4303248"><ele>51.0</ele><time>2026-04-29T13:09:31.466Z</time></trkpt><trkpt lat="44.0463994" lon="12.4304133"><ele>51.0</ele><time>2026-04-29T13:09:32.466Z</time></trkpt><trkpt lat="44.046539" lon="12.4304951"><ele>51.0</ele><time>2026-04-29T13:09:33.467Z</time></trkpt><trkpt lat="44.0466716" lon="12.4305768"><ele>50.5</ele><time>2026-04-29T13:09:34.466Z</time></trkpt><trkpt lat="44.0468017" lon="12.4306517"><ele>50.0</ele><time>2026-04-29T13:09:35.466Z</time></trkpt><trkpt lat="44.0469326" lon="12.4307263"><ele>49.5</ele><time>2026-04-29T13:09:36.466Z</time></trkpt><trkpt lat="44.0470591" lon="12.4308004"><ele>49.0</ele><time>2026-04-29T13:09:37.466Z</time></trkpt><trkpt lat="44.0471803" lon="12.4308677"><ele>49.0</ele><time>2026-04-29T13:09:38.466Z</time></trkpt><trkpt lat="44.0472865" lon="12.4309349"><ele>49.0</ele><time>2026-04-29T13:09:39.466Z</time></trkpt><trkpt lat="44.0473843" lon="12.4309933"><ele>49.0</ele><time>2026-04-29T13:09:40.466Z</time></trkpt><trkpt lat="44.0474753" lon="12.4310467"><ele>49.0</ele><time>2026-04-29T13:09:41.467Z</time></trkpt><trkpt lat="44.0475565" lon="12.4310972"><ele>49.0</ele><time>2026-04-29T13:09:42.466Z</time></trkpt><trkpt lat="44.0476344" lon="12.4311463"><ele>49.2</ele><time>2026-04-29T13:09:43.467Z</time></trkpt><trkpt lat="44.047707" lon="12.4311887"><ele>49.400000000000006</ele><time>2026-04-29T13:09:44.466Z</time></trkpt><trkpt lat="44.0477821" lon="12.431237"><ele>49.6</ele><time>2026-04-29T13:09:45.466Z</time></trkpt><trkpt lat="44.0478664" lon="12.4312844"><ele>49.8</ele><time>2026-04-29T13:09:46.466Z</time></trkpt><trkpt lat="44.0479577" lon="12.4313355"><ele>50.0</ele><time>2026-04-29T13:09:47.466Z</time></trkpt><trkpt lat="44.0480558" lon="12.4313891"><ele>50.0</ele><time>2026-04-29T13:09:48.466Z</time></trkpt><trkpt lat="44.0481572" lon="12.4314505"><ele>50.0</ele><time>2026-04-29T13:09:49.466Z</time></trkpt><trkpt lat="44.0482594" lon="12.431507"><ele>50.0</ele><time>2026-04-29T13:09:50.466Z</time></trkpt><trkpt lat="44.0483592" lon="12.4315674"><ele>50.0</ele><time>2026-04-29T13:09:51.466Z</time></trkpt><trkpt lat="44.0484563" lon="12.4316276"><ele>50.0</ele><time>2026-04-29T13:09:52.466Z</time></trkpt><trkpt lat="44.0485519" lon="12.4316903"><ele>50.0</ele><time>2026-04-29T13:09:53.466Z</time></trkpt><trkpt lat="44.0486454" lon="12.4317485"><ele>50.0</ele><time>2026-04-29T13:09:54.467Z</time></trkpt><trkpt lat="44.0487415" lon="12.4318052"><ele>50.0</ele><time>2026-04-29T13:09:55.466Z</time></trkpt><trkpt lat="44.0488453" lon="12.4318626"><ele>50.0</ele><time>2026-04-29T13:09:56.466Z</time></trkpt><trkpt lat="44.0489519" lon="12.4319232"><ele>50.0</ele><time>2026-04-29T13:09:57.466Z</time></trkpt><trkpt lat="44.0490624" lon="12.431985"><ele>50.0</ele><time>2026-04-29T13:09:58.466Z</time></trkpt><trkpt lat="44.0491778" lon="12.4320504"><ele>50.0</ele><time>2026-04-29T13:09:59.466Z</time></trkpt><trkpt lat="44.0493003" lon="12.4321203"><ele>50.0</ele><time>2026-04-29T13:10:00.466Z</time></trkpt><trkpt lat="44.0494223" lon="12.4321928"><ele>50.0</ele><time>2026-04-29T13:10:01.466Z</time></trkpt><trkpt lat="44.0495512" lon="12.4322626"><ele>49.75</ele><time>2026-04-29T13:10:02.466Z</time></trkpt><trkpt lat="44.049683" lon="12.4323422"><ele>49.5</ele><time>2026-04-29T13:10:03.467Z</time></trkpt><trkpt lat="44.0498171" lon="12.4324207"><ele>49.25</ele><time>2026-04-29T13:10:04.466Z</time></trkpt><trkpt lat="44.0499533" lon="12.4325024"><ele>49.0</ele><time>2026-04-29T13:10:05.466Z</time></trkpt><trkpt lat="44.0500914" lon="12.4325844"><ele>48.666666666666664</ele><time>2026-04-29T13:10:06.466Z</time></trkpt><trkpt lat="44.0502323" lon="12.4326664"><ele>48.33333333333333</ele><time>2026-04-29T13:10:07.466Z</time></trkpt><trkpt lat="44.0503738" lon="12.4327457"><ele>48.0</ele><time>2026-04-29T13:10:08.466Z</time></trkpt><trkpt lat="44.0505141" lon="12.4328265"><ele>48.0</ele><time>2026-04-29T13:10:09.466Z</time></trkpt><trkpt lat="44.050652" lon="12.4328988"><ele>48.0</ele><time>2026-04-29T13:10:10.466Z</time></trkpt><trkpt lat="44.0507842" lon="12.4329711"><ele>48.0</ele><time>2026-04-29T13:10:11.466Z</time></trkpt><trkpt lat="44.050916" lon="12.4330463"><ele>48.0</ele><time>2026-04-29T13:10:12.466Z</time></trkpt><trkpt lat="44.0510443" lon="12.4331226"><ele>47.5</ele><time>2026-04-29T13:10:13.466Z</time></trkpt><trkpt lat="44.0511712" lon="12.4331962"><ele>47.0</ele><time>2026-04-29T13:10:14.466Z</time></trkpt><trkpt lat="44.051299" lon="12.4332711"><ele>46.5</ele><time>2026-04-29T13:10:15.466Z</time></trkpt><trkpt lat="44.0514288" lon="12.4333498"><ele>46.0</ele><time>2026-04-29T13:10:16.466Z</time></trkpt><trkpt lat="44.0515609" lon="12.4334271"><ele>46.25</ele><time>2026-04-29T13:10:17.466Z</time></trkpt><trkpt lat="44.0516947" lon="12.4335034"><ele>46.5</ele><time>2026-04-29T13:10:18.466Z</time></trkpt><trkpt lat="44.0518272" lon="12.4335799"><ele>46.75</ele><time>2026-04-29T13:10:19.466Z</time></trkpt><trkpt lat="44.0519568" lon="12.4336505"><ele>47.0</ele><time>2026-04-29T13:10:20.467Z</time></trkpt><trkpt lat="44.0520873" lon="12.4337276"><ele>47.0</ele><time>2026-04-29T13:10:21.467Z</time></trkpt><trkpt lat="44.052222" lon="12.4338124"><ele>47.0</ele><time>2026-04-29T13:10:22.466Z</time></trkpt><trkpt lat="44.0523571" lon="12.4339117"><ele>47.0</ele><time>2026-04-29T13:10:23.466Z</time></trkpt><trkpt lat="44.0524894" lon="12.4340231"><ele>46.25</ele><time>2026-04-29T13:10:24.467Z</time></trkpt><trkpt lat="44.0526138" lon="12.4341441"><ele>45.5</ele><time>2026-04-29T13:10:25.466Z</time></trkpt><trkpt lat="44.0527296" lon="12.4342712"><ele>44.75</ele><time>2026-04-29T13:10:26.466Z</time></trkpt><trkpt lat="44.0528389" lon="12.4344047"><ele>44.0</ele><time>2026-04-29T13:10:27.466Z</time></trkpt><trkpt lat="44.0529452" lon="12.4345345"><ele>44.0</ele><time>2026-04-29T13:10:28.466Z</time></trkpt><trkpt lat="44.0530482" lon="12.4346666"><ele>44.0</ele><time>2026-04-29T13:10:29.466Z</time></trkpt><trkpt lat="44.0531499" lon="12.4347945"><ele>44.0</ele><time>2026-04-29T13:10:30.466Z</time></trkpt><trkpt lat="44.0532505" lon="12.4349209"><ele>44.0</ele><time>2026-04-29T13:10:31.466Z</time></trkpt><trkpt lat="44.0533488" lon="12.4350461"><ele>44.0</ele><time>2026-04-29T13:10:32.466Z</time></trkpt><trkpt lat="44.0534475" lon="12.4351717"><ele>44.0</ele><time>2026-04-29T13:10:33.466Z</time></trkpt><trkpt lat="44.0535451" lon="12.4352971"><ele>44.0</ele><time>2026-04-29T13:10:34.466Z</time></trkpt><trkpt lat="44.0536417" lon="12.4354167"><ele>44.0</ele><time>2026-04-29T13:10:35.466Z</time></trkpt><trkpt lat="44.0537345" lon="12.4355327"><ele>44.5</ele><time>2026-04-29T13:10:36.466Z</time></trkpt><trkpt lat="44.0538237" lon="12.435647"><ele>45.0</ele><time>2026-04-29T13:10:37.467Z</time></trkpt><trkpt lat="44.0539124" lon="12.4357595"><ele>45.5</ele><time>2026-04-29T13:10:38.466Z</time></trkpt><trkpt lat="44.0539935" lon="12.4358645"><ele>46.0</ele><time>2026-04-29T13:10:39.467Z</time></trkpt><trkpt lat="44.0540657" lon="12.4359668"><ele>46.0</ele><time>2026-04-29T13:10:40.466Z</time></trkpt><trkpt lat="44.0541314" lon="12.4360587"><ele>46.0</ele><time>2026-04-29T13:10:41.466Z</time></trkpt><trkpt lat="44.0541908" lon="12.4361441"><ele>46.0</ele><time>2026-04-29T13:10:42.467Z</time></trkpt><trkpt lat="44.0542416" lon="12.4362278"><ele>46.0</ele><time>2026-04-29T13:10:43.467Z</time></trkpt><trkpt lat="44.0542786" lon="12.4363184"><ele>46.0</ele><time>2026-04-29T13:10:44.466Z</time></trkpt><trkpt lat="44.0543035" lon="12.4364109"><ele>46.0</ele><time>2026-04-29T13:10:45.466Z</time></trkpt><trkpt lat="44.0543232" lon="12.4364954"><ele>45.8</ele><time>2026-04-29T13:10:46.466Z</time></trkpt><trkpt lat="44.0544202" lon="12.4366212"><ele>45.599999999999994</ele><time>2026-04-29T13:10:48.466Z</time></trkpt><trkpt lat="44.0545046" lon="12.4366577"><ele>45.4</ele><time>2026-04-29T13:10:49.466Z</time></trkpt><trkpt lat="44.0546015" lon="12.4366899"><ele>45.2</ele><time>2026-04-29T13:10:50.466Z</time></trkpt><trkpt lat="44.0546967" lon="12.4367438"><ele>45.0</ele><time>2026-04-29T13:10:51.466Z</time></trkpt><trkpt lat="44.0547885" lon="12.4368311"><ele>45.0</ele><time>2026-04-29T13:10:52.466Z</time></trkpt><trkpt lat="44.05488" lon="12.4369308"><ele>45.0</ele><time>2026-04-29T13:10:53.466Z</time></trkpt><trkpt lat="44.0549663" lon="12.4370362"><ele>45.0</ele><time>2026-04-29T13:10:54.466Z</time></trkpt><trkpt lat="44.0550535" lon="12.4371458"><ele>45.0</ele><time>2026-04-29T13:10:55.466Z</time></trkpt><trkpt lat="44.0551425" lon="12.4372597"><ele>44.75</ele><time>2026-04-29T13:10:56.466Z</time></trkpt><trkpt lat="44.055237" lon="12.4373758"><ele>44.5</ele><time>2026-04-29T13:10:57.466Z</time></trkpt><trkpt lat="44.055331" lon="12.4374944"><ele>44.25</ele><time>2026-04-29T13:10:58.466Z</time></trkpt><trkpt lat="44.0554291" lon="12.437616"><ele>44.0</ele><time>2026-04-29T13:10:59.467Z</time></trkpt><trkpt lat="44.0555258" lon="12.4377289"><ele>44.0</ele><time>2026-04-29T13:11:00.466Z</time></trkpt><trkpt lat="44.0556195" lon="12.4378413"><ele>44.0</ele><time>2026-04-29T13:11:01.466Z</time></trkpt><trkpt lat="44.0557096" lon="12.4379521"><ele>44.0</ele><time>2026-04-29T13:11:02.466Z</time></trkpt><trkpt lat="44.0557943" lon="12.4380611"><ele>44.0</ele><time>2026-04-29T13:11:03.466Z</time></trkpt><trkpt lat="44.0558811" lon="12.4381729"><ele>44.5</ele><time>2026-04-29T13:11:04.466Z</time></trkpt><trkpt lat="44.0559744" lon="12.4382881"><ele>45.0</ele><time>2026-04-29T13:11:05.466Z</time></trkpt><trkpt lat="44.0560684" lon="12.4384045"><ele>45.5</ele><time>2026-04-29T13:11:06.466Z</time></trkpt><trkpt lat="44.0561636" lon="12.4385212"><ele>46.0</ele><time>2026-04-29T13:11:07.466Z</time></trkpt><trkpt lat="44.0562597" lon="12.4386355"><ele>46.0</ele><time>2026-04-29T13:11:08.466Z</time></trkpt><trkpt lat="44.0563534" lon="12.4387522"><ele>46.0</ele><time>2026-04-29T13:11:09.466Z</time></trkpt><trkpt lat="44.056448" lon="12.4388704"><ele>46.0</ele><time>2026-04-29T13:11:10.466Z</time></trkpt><trkpt lat="44.0565457" lon="12.4389901"><ele>46.0</ele><time>2026-04-29T13:11:11.466Z</time></trkpt><trkpt lat="44.056643" lon="12.4391135"><ele>45.5</ele><time>2026-04-29T13:11:12.466Z</time></trkpt><trkpt lat="44.0567454" lon="12.4392397"><ele>45.0</ele><time>2026-04-29T13:11:13.467Z</time></trkpt><trkpt lat="44.0568474" lon="12.4393695"><ele>44.5</ele><time>2026-04-29T13:11:14.466Z</time></trkpt><trkpt lat="44.056948" lon="12.4394964"><ele>44.0</ele><time>2026-04-29T13:11:15.466Z</time></trkpt><trkpt lat="44.0570421" lon="12.4396198"><ele>44.25</ele><time>2026-04-29T13:11:16.466Z</time></trkpt><trkpt lat="44.0571375" lon="12.439739"><ele>44.5</ele><time>2026-04-29T13:11:17.466Z</time></trkpt><trkpt lat="44.0572353" lon="12.4398531"><ele>44.75</ele><time>2026-04-29T13:11:18.466Z</time></trkpt><trkpt lat="44.057331" lon="12.4399602"><ele>45.0</ele><time>2026-04-29T13:11:19.466Z</time></trkpt><trkpt lat="44.0574245" lon="12.4400705"><ele>44.5</ele><time>2026-04-29T13:11:20.466Z</time></trkpt><trkpt lat="44.0575151" lon="12.4401812"><ele>44.0</ele><time>2026-04-29T13:11:21.466Z</time></trkpt><trkpt lat="44.0576104" lon="12.4402932"><ele>43.5</ele><time>2026-04-29T13:11:22.466Z</time></trkpt><trkpt lat="44.0577038" lon="12.4404094"><ele>43.0</ele><time>2026-04-29T13:11:23.466Z</time></trkpt><trkpt lat="44.05779" lon="12.4405183"><ele>43.0</ele><time>2026-04-29T13:11:24.467Z</time></trkpt><trkpt lat="44.0578676" lon="12.4406132"><ele>43.0</ele><time>2026-04-29T13:11:25.466Z</time></trkpt><trkpt lat="44.057944" lon="12.4407022"><ele>43.0</ele><time>2026-04-29T13:11:26.466Z</time></trkpt><trkpt lat="44.0580166" lon="12.4407928"><ele>43.0</ele><time>2026-04-29T13:11:27.466Z</time></trkpt><trkpt lat="44.0580861" lon="12.4408835"><ele>43.0</ele><time>2026-04-29T13:11:28.466Z</time></trkpt><trkpt lat="44.0581502" lon="12.4409676"><ele>43.0</ele><time>2026-04-29T13:11:29.467Z</time></trkpt><trkpt lat="44.0582117" lon="12.4410418"><ele>43.0</ele><time>2026-04-29T13:11:30.466Z</time></trkpt><trkpt lat="44.058271" lon="12.44111"><ele>43.0</ele><time>2026-04-29T13:11:31.467Z</time></trkpt><trkpt lat="44.0583332" lon="12.4411788"><ele>43.0</ele><time>2026-04-29T13:11:32.467Z</time></trkpt><trkpt lat="44.0583864" lon="12.4412434"><ele>43.0</ele><time>2026-04-29T13:11:33.466Z</time></trkpt><trkpt lat="44.058461" lon="12.4413405"><ele>43.0</ele><time>2026-04-29T13:11:35.467Z</time></trkpt><trkpt lat="44.0584973" lon="12.441443"><ele>43.0</ele><time>2026-04-29T13:11:39.466Z</time></trkpt><trkpt lat="44.0585037" lon="12.4415861"><ele>43.0</ele><time>2026-04-29T13:11:41.467Z</time></trkpt><trkpt lat="44.0585296" lon="12.4417279"><ele>43.0</ele><time>2026-04-29T13:11:43.466Z</time></trkpt><trkpt lat="44.0586366" lon="12.4418167"><ele>43.0</ele><time>2026-04-29T13:11:45.467Z</time></trkpt><trkpt lat="44.0587171" lon="12.4418348"><ele>43.0</ele><time>2026-04-29T13:11:46.466Z</time></trkpt><trkpt lat="44.058804" lon="12.4418599"><ele>43.0</ele><time>2026-04-29T13:11:47.466Z</time></trkpt><trkpt lat="44.0588774" lon="12.4419005"><ele>43.0</ele><time>2026-04-29T13:11:48.466Z</time></trkpt><trkpt lat="44.0589462" lon="12.4419553"><ele>43.0</ele><time>2026-04-29T13:11:49.466Z</time></trkpt><trkpt lat="44.0590174" lon="12.4420224"><ele>43.0</ele><time>2026-04-29T13:11:50.466Z</time></trkpt><trkpt lat="44.059093" lon="12.4421011"><ele>43.0</ele><time>2026-04-29T13:11:51.466Z</time></trkpt><trkpt lat="44.05917" lon="12.4421885"><ele>43.0</ele><time>2026-04-29T13:11:52.466Z</time></trkpt><trkpt lat="44.0592456" lon="12.4422854"><ele>43.0</ele><time>2026-04-29T13:11:53.466Z</time></trkpt><trkpt lat="44.0593217" lon="12.4423832"><ele>43.0</ele><time>2026-04-29T13:11:54.466Z</time></trkpt><trkpt lat="44.0593953" lon="12.4424765"><ele>43.0</ele><time>2026-04-29T13:11:55.466Z</time></trkpt><trkpt lat="44.0594732" lon="12.442571"><ele>43.0</ele><time>2026-04-29T13:11:56.466Z</time></trkpt><trkpt lat="44.059555" lon="12.4426692"><ele>43.0</ele><time>2026-04-29T13:11:57.466Z</time></trkpt><trkpt lat="44.0596374" lon="12.4427698"><ele>43.0</ele><time>2026-04-29T13:11:58.466Z</time></trkpt><trkpt lat="44.0597222" lon="12.4428767"><ele>43.0</ele><time>2026-04-29T13:11:59.466Z</time></trkpt><trkpt lat="44.0598098" lon="12.4429875"><ele>43.0</ele><time>2026-04-29T13:12:00.466Z</time></trkpt><trkpt lat="44.0598991" lon="12.443097"><ele>43.0</ele><time>2026-04-29T13:12:01.466Z</time></trkpt><trkpt lat="44.059987" lon="12.4432016"><ele>42.8</ele><time>2026-04-29T13:12:02.467Z</time></trkpt><trkpt lat="44.0600721" lon="12.4433037"><ele>42.599999999999994</ele><time>2026-04-29T13:12:03.466Z</time></trkpt><trkpt lat="44.0601541" lon="12.4434055"><ele>42.400000000000006</ele><time>2026-04-29T13:12:04.466Z</time></trkpt><trkpt lat="44.0602317" lon="12.4435023"><ele>42.2</ele><time>2026-04-29T13:12:05.466Z</time></trkpt><trkpt lat="44.0603081" lon="12.4435969"><ele>42.0</ele><time>2026-04-29T13:12:06.466Z</time></trkpt><trkpt lat="44.0603826" lon="12.4436931"><ele>42.0</ele><time>2026-04-29T13:12:07.466Z</time></trkpt><trkpt lat="44.0604565" lon="12.443785"><ele>42.0</ele><time>2026-04-29T13:12:08.466Z</time></trkpt><trkpt lat="44.0605335" lon="12.4438677"><ele>42.0</ele><time>2026-04-29T13:12:09.466Z</time></trkpt><trkpt lat="44.0606081" lon="12.4439566"><ele>42.0</ele><time>2026-04-29T13:12:10.466Z</time></trkpt><trkpt lat="44.0606816" lon="12.4440387"><ele>42.0</ele><time>2026-04-29T13:12:11.466Z</time></trkpt><trkpt lat="44.0607608" lon="12.4441281"><ele>41.6</ele><time>2026-04-29T13:12:12.466Z</time></trkpt><trkpt lat="44.0608403" lon="12.4442254"><ele>41.2</ele><time>2026-04-29T13:12:13.466Z</time></trkpt><trkpt lat="44.0609193" lon="12.4443239"><ele>40.8</ele><time>2026-04-29T13:12:14.466Z</time></trkpt><trkpt lat="44.060998" lon="12.4444275"><ele>40.4</ele><time>2026-04-29T13:12:15.466Z</time></trkpt><trkpt lat="44.061077" lon="12.4445258"><ele>40.0</ele><time>2026-04-29T13:12:16.466Z</time></trkpt><trkpt lat="44.0611534" lon="12.4446236"><ele>40.0</ele><time>2026-04-29T13:12:17.466Z</time></trkpt><trkpt lat="44.0612274" lon="12.4447161"><ele>40.0</ele><time>2026-04-29T13:12:18.466Z</time></trkpt><trkpt lat="44.0612962" lon="12.4448043"><ele>40.0</ele><time>2026-04-29T13:12:19.466Z</time></trkpt><trkpt lat="44.0613628" lon="12.4448854"><ele>40.0</ele><time>2026-04-29T13:12:20.466Z</time></trkpt><trkpt lat="44.061428" lon="12.4449611"><ele>40.0</ele><time>2026-04-29T13:12:21.466Z</time></trkpt><trkpt lat="44.0614921" lon="12.4450452"><ele>40.0</ele><time>2026-04-29T13:12:22.466Z</time></trkpt><trkpt lat="44.0615521" lon="12.4451249"><ele>40.0</ele><time>2026-04-29T13:12:23.466Z</time></trkpt><trkpt lat="44.0616097" lon="12.4451981"><ele>40.0</ele><time>2026-04-29T13:12:24.466Z</time></trkpt><trkpt lat="44.0616702" lon="12.44527"><ele>40.0</ele><time>2026-04-29T13:12:25.466Z</time></trkpt><trkpt lat="44.0617308" lon="12.4453442"><ele>40.0</ele><time>2026-04-29T13:12:26.466Z</time></trkpt><trkpt lat="44.0617906" lon="12.4454215"><ele>40.0</ele><time>2026-04-29T13:12:27.466Z</time></trkpt><trkpt lat="44.0618484" lon="12.4454976"><ele>40.0</ele><time>2026-04-29T13:12:28.466Z</time></trkpt><trkpt lat="44.0619107" lon="12.445564"><ele>40.0</ele><time>2026-04-29T13:12:29.466Z</time></trkpt><trkpt lat="44.0619746" lon="12.4456362"><ele>40.0</ele><time>2026-04-29T13:12:30.466Z</time></trkpt><trkpt lat="44.0620396" lon="12.4457088"><ele>40.0</ele><time>2026-04-29T13:12:31.466Z</time></trkpt><trkpt lat="44.0621037" lon="12.4457898"><ele>40.0</ele><time>2026-04-29T13:12:32.466Z</time></trkpt><trkpt lat="44.06217" lon="12.4458717"><ele>40.0</ele><time>2026-04-29T13:12:33.466Z</time></trkpt><trkpt lat="44.0622387" lon="12.4459527"><ele>40.0</ele><time>2026-04-29T13:12:34.466Z</time></trkpt><trkpt lat="44.0623088" lon="12.4460313"><ele>40.0</ele><time>2026-04-29T13:12:35.466Z</time></trkpt><trkpt lat="44.0623746" lon="12.4461068"><ele>40.0</ele><time>2026-04-29T13:12:36.466Z</time></trkpt><trkpt lat="44.0624318" lon="12.4461793"><ele>40.0</ele><time>2026-04-29T13:12:37.466Z</time></trkpt><trkpt lat="44.0624858" lon="12.4462523"><ele>40.0</ele><time>2026-04-29T13:12:38.466Z</time></trkpt><trkpt lat="44.062548" lon="12.4463177"><ele>40.0</ele><time>2026-04-29T13:12:39.467Z</time></trkpt><trkpt lat="44.0626037" lon="12.4463816"><ele>40.16666666666667</ele><time>2026-04-29T13:12:40.466Z</time></trkpt><trkpt lat="44.0626613" lon="12.4464459"><ele>40.333333333333336</ele><time>2026-04-29T13:12:41.466Z</time></trkpt><trkpt lat="44.0627105" lon="12.4465103"><ele>40.5</ele><time>2026-04-29T13:12:42.466Z</time></trkpt><trkpt lat="44.0627986" lon="12.4466244"><ele>40.666666666666664</ele><time>2026-04-29T13:12:44.466Z</time></trkpt><trkpt lat="44.0628502" lon="12.4466839"><ele>40.83333333333333</ele><time>2026-04-29T13:12:45.466Z</time></trkpt><trkpt lat="44.0629006" lon="12.4467435"><ele>41.0</ele><time>2026-04-29T13:12:46.466Z</time></trkpt><trkpt lat="44.0629925" lon="12.4468669"><ele>41.0</ele><time>2026-04-29T13:12:48.466Z</time></trkpt><trkpt lat="44.0630757" lon="12.4469699"><ele>41.0</ele><time>2026-04-29T13:12:50.466Z</time></trkpt><trkpt lat="44.0631584" lon="12.4470843"><ele>41.0</ele><time>2026-04-29T13:12:52.467Z</time></trkpt><trkpt lat="44.0632116" lon="12.4471572"><ele>41.0</ele><time>2026-04-29T13:12:53.466Z</time></trkpt><trkpt lat="44.06327" lon="12.4472352"><ele>41.0</ele><time>2026-04-29T13:12:54.466Z</time></trkpt><trkpt lat="44.0633354" lon="12.4473037"><ele>41.0</ele><time>2026-04-29T13:12:55.466Z</time></trkpt><trkpt lat="44.0634049" lon="12.4473792"><ele>41.0</ele><time>2026-04-29T13:12:56.466Z</time></trkpt><trkpt lat="44.0634767" lon="12.4474632"><ele>41.0</ele><time>2026-04-29T13:12:57.466Z</time></trkpt><trkpt lat="44.0635408" lon="12.4475497"><ele>41.0</ele><time>2026-04-29T13:12:58.466Z</time></trkpt><trkpt lat="44.0636072" lon="12.4476268"><ele>41.0</ele><time>2026-04-29T13:12:59.467Z</time></trkpt><trkpt lat="44.0636719" lon="12.4477017"><ele>41.0</ele><time>2026-04-29T13:13:00.466Z</time></trkpt><trkpt lat="44.0637298" lon="12.4477783"><ele>41.0</ele><time>2026-04-29T13:13:01.466Z</time></trkpt><trkpt lat="44.0637862" lon="12.4478528"><ele>41.0</ele><time>2026-04-29T13:13:02.466Z</time></trkpt><trkpt lat="44.0638375" lon="12.4479139"><ele>41.0</ele><time>2026-04-29T13:13:03.466Z</time></trkpt><trkpt lat="44.0638846" lon="12.4479822"><ele>41.0</ele><time>2026-04-29T13:13:04.466Z</time></trkpt><trkpt lat="44.0639384" lon="12.4480532"><ele>41.0</ele><time>2026-04-29T13:13:05.467Z</time></trkpt><trkpt lat="44.0639963" lon="12.4481231"><ele>41.0</ele><time>2026-04-29T13:13:06.466Z</time></trkpt><trkpt lat="44.0640576" lon="12.4482076"><ele>41.0</ele><time>2026-04-29T13:13:07.466Z</time></trkpt><trkpt lat="44.0641199" lon="12.4482828"><ele>41.0</ele><time>2026-04-29T13:13:08.467Z</time></trkpt><trkpt lat="44.0641785" lon="12.4483532"><ele>41.0</ele><time>2026-04-29T13:13:09.466Z</time></trkpt><trkpt lat="44.0642382" lon="12.4484269"><ele>41.0</ele><time>2026-04-29T13:13:10.466Z</time></trkpt><trkpt lat="44.0642906" lon="12.44849"><ele>41.0</ele><time>2026-04-29T13:13:11.467Z</time></trkpt><trkpt lat="44.0643374" lon="12.4485516"><ele>41.0</ele><time>2026-04-29T13:13:12.466Z</time></trkpt><trkpt lat="44.06443" lon="12.4486541"><ele>41.0</ele><time>2026-04-29T13:13:14.466Z</time></trkpt><trkpt lat="44.0644853" lon="12.4487214"><ele>41.0</ele><time>2026-04-29T13:13:15.466Z</time></trkpt><trkpt lat="44.0645631" lon="12.4488089"><ele>41.0</ele><time>2026-04-29T13:13:16.467Z</time></trkpt><trkpt lat="44.064665" lon="12.4489313"><ele>41.0</ele><time>2026-04-29T13:13:17.466Z</time></trkpt><trkpt lat="44.0647707" lon="12.4490498"><ele>41.0</ele><time>2026-04-29T13:13:18.466Z</time></trkpt><trkpt lat="44.0648736" lon="12.4491628"><ele>40.83333333333333</ele><time>2026-04-29T13:13:19.466Z</time></trkpt><trkpt lat="44.0649599" lon="12.4492602"><ele>40.666666666666664</ele><time>2026-04-29T13:13:20.466Z</time></trkpt><trkpt lat="44.0650214" lon="12.449324"><ele>40.5</ele><time>2026-04-29T13:13:21.466Z</time></trkpt><trkpt lat="44.0650934" lon="12.4494083"><ele>40.333333333333336</ele><time>2026-04-29T13:13:23.466Z</time></trkpt><trkpt lat="44.0651361" lon="12.4494744"><ele>40.16666666666667</ele><time>2026-04-29T13:14:35.466Z</time></trkpt><trkpt lat="44.0651864" lon="12.4495285"><ele>40.0</ele><time>2026-04-29T13:14:37.466Z</time></trkpt><trkpt lat="44.0652639" lon="12.4495638"><ele>40.0</ele><time>2026-04-29T13:14:40.466Z</time></trkpt><trkpt lat="44.0653626" lon="12.4494767"><ele>40.0</ele><time>2026-04-29T13:14:42.466Z</time></trkpt><trkpt lat="44.0654056" lon="12.4493975"><ele>40.0</ele><time>2026-04-29T13:14:43.466Z</time></trkpt><trkpt lat="44.0654512" lon="12.4493107"><ele>40.0</ele><time>2026-04-29T13:14:44.466Z</time></trkpt><trkpt lat="44.0654989" lon="12.4492265"><ele>40.0</ele><time>2026-04-29T13:14:45.466Z</time></trkpt><trkpt lat="44.0655457" lon="12.449132"><ele>40.0</ele><time>2026-04-29T13:14:46.467Z</time></trkpt><trkpt lat="44.0655932" lon="12.4490318"><ele>40.0</ele><time>2026-04-29T13:14:47.466Z</time></trkpt><trkpt lat="44.0656519" lon="12.4489064"><ele>40.0</ele><time>2026-04-29T13:14:48.466Z</time></trkpt><trkpt lat="44.0657203" lon="12.4487741"><ele>40.0</ele><time>2026-04-29T13:14:49.466Z</time></trkpt><trkpt lat="44.0657838" lon="12.4486429"><ele>40.0</ele><time>2026-04-29T13:14:50.466Z</time></trkpt><trkpt lat="44.0658474" lon="12.4485039"><ele>40.25</ele><time>2026-04-29T13:14:51.466Z</time></trkpt><trkpt lat="44.065914" lon="12.4483629"><ele>40.5</ele><time>2026-04-29T13:14:52.466Z</time></trkpt><trkpt lat="44.0659761" lon="12.4482206"><ele>40.75</ele><time>2026-04-29T13:14:53.466Z</time></trkpt><trkpt lat="44.0660388" lon="12.4480804"><ele>41.0</ele><time>2026-04-29T13:14:54.466Z</time></trkpt><trkpt lat="44.0660952" lon="12.4479414"><ele>41.0</ele><time>2026-04-29T13:14:55.466Z</time></trkpt><trkpt lat="44.0661422" lon="12.4478037"><ele>41.0</ele><time>2026-04-29T13:14:56.466Z</time></trkpt><trkpt lat="44.0661909" lon="12.4476746"><ele>41.0</ele><time>2026-04-29T13:14:57.467Z</time></trkpt><trkpt lat="44.0662329" lon="12.4475517"><ele>41.0</ele><time>2026-04-29T13:14:58.466Z</time></trkpt><trkpt lat="44.0662653" lon="12.4474377"><ele>41.0</ele><time>2026-04-29T13:14:59.466Z</time></trkpt><trkpt lat="44.0662909" lon="12.4473341"><ele>41.0</ele><time>2026-04-29T13:15:00.466Z</time></trkpt><trkpt lat="44.0663155" lon="12.4472441"><ele>41.0</ele><time>2026-04-29T13:15:01.466Z</time></trkpt><trkpt lat="44.0663415" lon="12.4471614"><ele>41.0</ele><time>2026-04-29T13:15:02.466Z</time></trkpt><trkpt lat="44.0663802" lon="12.4470156"><ele>41.0</ele><time>2026-04-29T13:15:04.466Z</time></trkpt><trkpt lat="44.0664061" lon="12.4469277"><ele>41.0</ele><time>2026-04-29T13:15:05.466Z</time></trkpt><trkpt lat="44.0664302" lon="12.4468242"><ele>41.0</ele><time>2026-04-29T13:15:06.466Z</time></trkpt><trkpt lat="44.0664548" lon="12.4467173"><ele>40.83333333333333</ele><time>2026-04-29T13:15:07.466Z</time></trkpt><trkpt lat="44.0664758" lon="12.4466227"><ele>40.666666666666664</ele><time>2026-04-29T13:15:08.467Z</time></trkpt><trkpt lat="44.0665024" lon="12.4464793"><ele>40.5</ele><time>2026-04-29T13:15:10.467Z</time></trkpt><trkpt lat="44.0665285" lon="12.4463624"><ele>40.333333333333336</ele><time>2026-04-29T13:15:12.466Z</time></trkpt><trkpt lat="44.0666257" lon="12.4463152"><ele>40.16666666666667</ele><time>2026-04-29T13:15:14.466Z</time></trkpt><trkpt lat="44.0667001" lon="12.4463476"><ele>40.0</ele><time>2026-04-29T13:15:15.466Z</time></trkpt><trkpt lat="44.0667936" lon="12.4464065"><ele>39.75</ele><time>2026-04-29T13:15:16.467Z</time></trkpt><trkpt lat="44.0668958" lon="12.4464811"><ele>39.5</ele><time>2026-04-29T13:15:17.466Z</time></trkpt><trkpt lat="44.0670075" lon="12.4465603"><ele>39.25</ele><time>2026-04-29T13:15:18.466Z</time></trkpt><trkpt lat="44.0671288" lon="12.4466365"><ele>39.0</ele><time>2026-04-29T13:15:19.466Z</time></trkpt><trkpt lat="44.067247" lon="12.4467142"><ele>39.0</ele><time>2026-04-29T13:15:20.466Z</time></trkpt><trkpt lat="44.0673605" lon="12.4467901"><ele>39.0</ele><time>2026-04-29T13:15:21.466Z</time></trkpt><trkpt lat="44.0674763" lon="12.4468633"><ele>39.0</ele><time>2026-04-29T13:15:22.467Z</time></trkpt><trkpt lat="44.0675893" lon="12.4469301"><ele>39.0</ele><time>2026-04-29T13:15:23.466Z</time></trkpt><trkpt lat="44.0676885" lon="12.4469908"><ele>39.2</ele><time>2026-04-29T13:15:24.466Z</time></trkpt><trkpt lat="44.0677734" lon="12.4470531"><ele>39.4</ele><time>2026-04-29T13:15:25.466Z</time></trkpt><trkpt lat="44.0678491" lon="12.447102"><ele>39.6</ele><time>2026-04-29T13:15:26.466Z</time></trkpt><trkpt lat="44.0679153" lon="12.4471298"><ele>39.8</ele><time>2026-04-29T13:15:27.466Z</time></trkpt><trkpt lat="44.0680352" lon="12.4470587"><ele>40.0</ele><time>2026-04-29T13:15:29.466Z</time></trkpt><trkpt lat="44.0681499" lon="12.4469377"><ele>40.0</ele><time>2026-04-29T13:15:31.466Z</time></trkpt><trkpt lat="44.0682285" lon="12.446884"><ele>40.0</ele><time>2026-04-29T13:15:32.466Z</time></trkpt><trkpt lat="44.0683048" lon="12.4468129"><ele>40.0</ele><time>2026-04-29T13:15:33.467Z</time></trkpt><trkpt lat="44.06836" lon="12.4467197"><ele>40.0</ele><time>2026-04-29T13:15:34.466Z</time></trkpt><trkpt lat="44.0684093" lon="12.4466088"><ele>40.0</ele><time>2026-04-29T13:15:35.466Z</time></trkpt><trkpt lat="44.0684475" lon="12.4464971"><ele>40.0</ele><time>2026-04-29T13:15:36.466Z</time></trkpt><trkpt lat="44.068477" lon="12.4464143"><ele>37.0</ele><time>2026-04-29T13:15:37.466Z</time></trkpt><trkpt lat="44.0684874" lon="12.4462832"><ele>35.0</ele><time>2026-04-29T13:15:39.466Z</time></trkpt><trkpt lat="44.0683875" lon="12.4462368"><ele>35.0</ele><time>2026-04-29T13:16:09.466Z</time></trkpt><trkpt lat="44.0683243" lon="12.4461982"><ele>35.0</ele><time>2026-04-29T13:16:11.466Z</time></trkpt><trkpt lat="44.0682939" lon="12.4461051"><ele>35.0</ele><time>2026-04-29T13:16:14.466Z</time></trkpt></trkseg></trk></gpx>